<?xml version='1.0' encoding='UTF-8'?><gpx version="1.1" creator="JPX - https://github.com/jenetics/jpx" xmlns="http://www.topografix.com/GPX/1/1"><trk><trkseg><trkpt lat="45.5076262" lon="10.4635498"><ele>182.0</ele><time>2026-03-28T08:13:56.573Z</time></trkpt><trkpt lat="45.5076798" lon="10.4636038"><ele>182.0</ele><time>2026-03-28T08:15:48.574Z</time></trkpt><trkpt lat="45.5077458" lon="10.4636028"><ele>182.0</ele><time>2026-03-28T08:18:38.573Z</time></trkpt><trkpt lat="45.5078108" lon="10.4635955"><ele>182.0</ele><time>2026-03-28T08:20:22.574Z</time></trkpt><trkpt lat="45.5078812" lon="10.463588"><ele>182.0</ele><time>2026-03-28T08:21:51.573Z</time></trkpt><trkpt lat="45.5079438" lon="10.4635782"><ele>182.0</ele><time>2026-03-28T08:25:09.573Z</time></trkpt><trkpt lat="45.5080102" lon="10.4635747"><ele>182.0</ele><time>2026-03-28T08:26:33.571Z</time></trkpt><trkpt lat="45.5080855" lon="10.4635622"><ele>182.85714285714286</ele><time>2026-03-28T08:27:10.572Z</time></trkpt><trkpt lat="45.5081438" lon="10.4635248"><ele>183.71428571428572</ele><time>2026-03-28T08:27:47.572Z</time></trkpt><trkpt lat="45.5082169" lon="10.4635076"><ele>184.57142857142856</ele><time>2026-03-28T08:28:07.572Z</time></trkpt><trkpt lat="45.5082898" lon="10.4635038"><ele>185.42857142857144</ele><time>2026-03-28T08:28:09.573Z</time></trkpt><trkpt lat="45.5083528" lon="10.4635235"><ele>186.28571428571428</ele><time>2026-03-28T08:28:11.573Z</time></trkpt><trkpt lat="45.5084039" lon="10.4636273"><ele>187.14285714285714</ele><time>2026-03-28T08:28:14.572Z</time></trkpt><trkpt lat="45.5083537" lon="10.4636973"><ele>188.0</ele><time>2026-03-28T08:28:15.572Z</time></trkpt><trkpt lat="45.5082841" lon="10.463735"><ele>188.0</ele><time>2026-03-28T08:28:16.572Z</time></trkpt><trkpt lat="45.508198" lon="10.4637494"><ele>188.0</ele><time>2026-03-28T08:28:17.572Z</time></trkpt><trkpt lat="45.5081078" lon="10.4637635"><ele>188.0</ele><time>2026-03-28T08:28:18.571Z</time></trkpt><trkpt lat="45.5080101" lon="10.4637813"><ele>188.0</ele><time>2026-03-28T08:28:19.573Z</time></trkpt><trkpt lat="45.5077675" lon="10.4637995"><ele>186.66666666666666</ele><time>2026-03-28T08:28:20.573Z</time></trkpt><trkpt lat="45.5075621" lon="10.4638184"><ele>185.33333333333334</ele><time>2026-03-28T08:28:21.572Z</time></trkpt><trkpt lat="45.5073341" lon="10.4638166"><ele>184.0</ele><time>2026-03-28T08:28:22.572Z</time></trkpt><trkpt lat="45.5072183" lon="10.4638247"><ele>184.0</ele><time>2026-03-28T08:28:23.572Z</time></trkpt><trkpt lat="45.5071258" lon="10.4638224"><ele>184.0</ele><time>2026-03-28T08:28:24.572Z</time></trkpt><trkpt lat="45.5070545" lon="10.4638068"><ele>184.0</ele><time>2026-03-28T08:28:25.572Z</time></trkpt><trkpt lat="45.5069502" lon="10.4637252"><ele>184.0</ele><time>2026-03-28T08:28:27.573Z</time></trkpt><trkpt lat="45.5068938" lon="10.4636738"><ele>184.0</ele><time>2026-03-28T08:28:28.572Z</time></trkpt><trkpt lat="45.5068283" lon="10.4636361"><ele>184.0</ele><time>2026-03-28T08:28:29.572Z</time></trkpt><trkpt lat="45.5067601" lon="10.4636359"><ele>183.66666666666669</ele><time>2026-03-28T08:28:30.573Z</time></trkpt><trkpt lat="45.5067016" lon="10.4636744"><ele>183.33333333333334</ele><time>2026-03-28T08:28:31.572Z</time></trkpt><trkpt lat="45.5066399" lon="10.4638159"><ele>183.0</ele><time>2026-03-28T08:28:33.572Z</time></trkpt><trkpt lat="45.5066459" lon="10.4639073"><ele>182.66666666666666</ele><time>2026-03-28T08:28:34.572Z</time></trkpt><trkpt lat="45.5066782" lon="10.4639988"><ele>182.33333333333331</ele><time>2026-03-28T08:28:35.572Z</time></trkpt><trkpt lat="45.5067156" lon="10.4641051"><ele>182.0</ele><time>2026-03-28T08:28:36.572Z</time></trkpt><trkpt lat="45.5067329" lon="10.4642421"><ele>182.0</ele><time>2026-03-28T08:28:37.571Z</time></trkpt><trkpt lat="45.5067316" lon="10.4643953"><ele>182.0</ele><time>2026-03-28T08:28:38.572Z</time></trkpt><trkpt lat="45.5067271" lon="10.4645655"><ele>182.0</ele><time>2026-03-28T08:28:39.571Z</time></trkpt><trkpt lat="45.5067205" lon="10.4647301"><ele>182.0</ele><time>2026-03-28T08:28:40.572Z</time></trkpt><trkpt lat="45.506712" lon="10.4648835"><ele>182.2</ele><time>2026-03-28T08:28:41.572Z</time></trkpt><trkpt lat="45.5066994" lon="10.4650369"><ele>182.39999999999998</ele><time>2026-03-28T08:28:42.571Z</time></trkpt><trkpt lat="45.5066858" lon="10.4651884"><ele>182.60000000000002</ele><time>2026-03-28T08:28:43.573Z</time></trkpt><trkpt lat="45.5066762" lon="10.4653399"><ele>182.8</ele><time>2026-03-28T08:28:44.573Z</time></trkpt><trkpt lat="45.5066635" lon="10.4655051"><ele>183.0</ele><time>2026-03-28T08:28:45.573Z</time></trkpt><trkpt lat="45.5066487" lon="10.4656808"><ele>183.0</ele><time>2026-03-28T08:28:46.572Z</time></trkpt><trkpt lat="45.5066483" lon="10.4658795"><ele>183.0</ele><time>2026-03-28T08:28:47.572Z</time></trkpt><trkpt lat="45.5066662" lon="10.4660865"><ele>183.0</ele><time>2026-03-28T08:28:48.572Z</time></trkpt><trkpt lat="45.5066957" lon="10.4663153"><ele>183.0</ele><time>2026-03-28T08:28:49.571Z</time></trkpt><trkpt lat="45.5067283" lon="10.4665537"><ele>183.0</ele><time>2026-03-28T08:28:50.572Z</time></trkpt><trkpt lat="45.5067673" lon="10.4668002"><ele>183.0</ele><time>2026-03-28T08:28:51.572Z</time></trkpt><trkpt lat="45.5068057" lon="10.4670497"><ele>183.0</ele><time>2026-03-28T08:28:52.571Z</time></trkpt><trkpt lat="45.5068439" lon="10.4672974"><ele>183.0</ele><time>2026-03-28T08:28:53.572Z</time></trkpt><trkpt lat="45.5068794" lon="10.4675377"><ele>183.0</ele><time>2026-03-28T08:28:54.571Z</time></trkpt><trkpt lat="45.506912" lon="10.4677624"><ele>183.0</ele><time>2026-03-28T08:28:55.572Z</time></trkpt><trkpt lat="45.5069459" lon="10.467993"><ele>184.0</ele><time>2026-03-28T08:28:56.572Z</time></trkpt><trkpt lat="45.5069815" lon="10.4682292"><ele>185.0</ele><time>2026-03-28T08:28:57.572Z</time></trkpt><trkpt lat="45.5070209" lon="10.4684715"><ele>186.0</ele><time>2026-03-28T08:28:58.572Z</time></trkpt><trkpt lat="45.5070619" lon="10.468719"><ele>187.33333333333334</ele><time>2026-03-28T08:28:59.571Z</time></trkpt><trkpt lat="45.5070942" lon="10.4689692"><ele>188.66666666666669</ele><time>2026-03-28T08:29:00.572Z</time></trkpt><trkpt lat="45.5071071" lon="10.4692157"><ele>190.0</ele><time>2026-03-28T08:29:01.571Z</time></trkpt><trkpt lat="45.5071092" lon="10.4694645"><ele>189.66666666666669</ele><time>2026-03-28T08:29:02.572Z</time></trkpt><trkpt lat="45.5070981" lon="10.4697082"><ele>189.33333333333334</ele><time>2026-03-28T08:29:03.571Z</time></trkpt><trkpt lat="45.507064" lon="10.4699517"><ele>189.0</ele><time>2026-03-28T08:29:04.572Z</time></trkpt><trkpt lat="45.5070234" lon="10.4702061"><ele>189.66666666666666</ele><time>2026-03-28T08:29:05.572Z</time></trkpt><trkpt lat="45.5069732" lon="10.4704566"><ele>190.33333333333331</ele><time>2026-03-28T08:29:06.572Z</time></trkpt><trkpt lat="45.5069199" lon="10.4707012"><ele>191.0</ele><time>2026-03-28T08:29:07.571Z</time></trkpt><trkpt lat="45.5068665" lon="10.4709292"><ele>191.0</ele><time>2026-03-28T08:29:08.571Z</time></trkpt><trkpt lat="45.5068125" lon="10.4711439"><ele>191.0</ele><time>2026-03-28T08:29:09.571Z</time></trkpt><trkpt lat="45.5067555" lon="10.471357"><ele>191.0</ele><time>2026-03-28T08:29:10.571Z</time></trkpt><trkpt lat="45.5067076" lon="10.4715773"><ele>191.66666666666666</ele><time>2026-03-28T08:29:11.572Z</time></trkpt><trkpt lat="45.5066648" lon="10.4718067"><ele>192.33333333333331</ele><time>2026-03-28T08:29:12.571Z</time></trkpt><trkpt lat="45.5066326" lon="10.4720438"><ele>193.0</ele><time>2026-03-28T08:29:13.572Z</time></trkpt><trkpt lat="45.5066068" lon="10.4722912"><ele>193.66666666666666</ele><time>2026-03-28T08:29:14.572Z</time></trkpt><trkpt lat="45.5065781" lon="10.4725384"><ele>194.33333333333331</ele><time>2026-03-28T08:29:15.572Z</time></trkpt><trkpt lat="45.5065478" lon="10.4727822"><ele>195.0</ele><time>2026-03-28T08:29:16.572Z</time></trkpt><trkpt lat="45.5065225" lon="10.4730147"><ele>195.0</ele><time>2026-03-28T08:29:17.572Z</time></trkpt><trkpt lat="45.5064987" lon="10.4732338"><ele>195.0</ele><time>2026-03-28T08:29:18.572Z</time></trkpt><trkpt lat="45.5064769" lon="10.4734422"><ele>195.0</ele><time>2026-03-28T08:29:19.572Z</time></trkpt><trkpt lat="45.5064533" lon="10.47364"><ele>195.0</ele><time>2026-03-28T08:29:20.572Z</time></trkpt><trkpt lat="45.5064334" lon="10.4738242"><ele>194.75</ele><time>2026-03-28T08:29:21.572Z</time></trkpt><trkpt lat="45.5064051" lon="10.473995"><ele>194.5</ele><time>2026-03-28T08:29:22.572Z</time></trkpt><trkpt lat="45.5063627" lon="10.4741466"><ele>194.25</ele><time>2026-03-28T08:29:23.572Z</time></trkpt><trkpt lat="45.5063104" lon="10.4742866"><ele>194.0</ele><time>2026-03-28T08:29:24.571Z</time></trkpt><trkpt lat="45.5062526" lon="10.4744234"><ele>194.00000000000003</ele><time>2026-03-28T08:29:25.571Z</time></trkpt><trkpt lat="45.5062002" lon="10.4745193"><ele>194.0</ele><time>2026-03-28T08:29:26.572Z</time></trkpt><trkpt lat="45.506147" lon="10.4745858"><ele>194.0</ele><time>2026-03-28T08:29:27.572Z</time></trkpt><trkpt lat="45.5060799" lon="10.4746207"><ele>194.0</ele><time>2026-03-28T08:29:28.572Z</time></trkpt><trkpt lat="45.5059559" lon="10.4745794"><ele>194.00000000000003</ele><time>2026-03-28T08:29:30.572Z</time></trkpt><trkpt lat="45.5058963" lon="10.4745054"><ele>194.0</ele><time>2026-03-28T08:29:31.572Z</time></trkpt><trkpt lat="45.5058477" lon="10.4744"><ele>194.0</ele><time>2026-03-28T08:29:32.572Z</time></trkpt><trkpt lat="45.5058101" lon="10.4742686"><ele>194.0</ele><time>2026-03-28T08:29:33.572Z</time></trkpt><trkpt lat="45.5057863" lon="10.4740949"><ele>194.0</ele><time>2026-03-28T08:29:34.572Z</time></trkpt><trkpt lat="45.5057481" lon="10.4738369"><ele>194.0</ele><time>2026-03-28T08:29:35.572Z</time></trkpt><trkpt lat="45.5057231" lon="10.4736265"><ele>194.0</ele><time>2026-03-28T08:29:36.571Z</time></trkpt><trkpt lat="45.5056859" lon="10.4734493"><ele>194.0</ele><time>2026-03-28T08:29:37.571Z</time></trkpt><trkpt lat="45.505653" lon="10.4733208"><ele>194.0</ele><time>2026-03-28T08:29:38.572Z</time></trkpt><trkpt lat="45.5056122" lon="10.4732001"><ele>194.0</ele><time>2026-03-28T08:29:39.572Z</time></trkpt><trkpt lat="45.5055741" lon="10.4731187"><ele>194.0</ele><time>2026-03-28T08:29:40.571Z</time></trkpt><trkpt lat="45.5054927" lon="10.4729967"><ele>194.0</ele><time>2026-03-28T08:29:42.571Z</time></trkpt><trkpt lat="45.5054303" lon="10.4730635"><ele>194.0</ele><time>2026-03-28T08:29:43.571Z</time></trkpt><trkpt lat="45.5053286" lon="10.4731859"><ele>194.0</ele><time>2026-03-28T08:29:45.571Z</time></trkpt><trkpt lat="45.5052413" lon="10.4732928"><ele>194.0</ele><time>2026-03-28T08:29:46.571Z</time></trkpt><trkpt lat="45.5051272" lon="10.473434"><ele>194.0</ele><time>2026-03-28T08:29:47.572Z</time></trkpt><trkpt lat="45.5050085" lon="10.4735802"><ele>194.0</ele><time>2026-03-28T08:29:48.572Z</time></trkpt><trkpt lat="45.5049007" lon="10.4737127"><ele>194.0</ele><time>2026-03-28T08:29:49.572Z</time></trkpt><trkpt lat="45.5047645" lon="10.4738759"><ele>194.0</ele><time>2026-03-28T08:29:50.57Z</time></trkpt><trkpt lat="45.5046291" lon="10.4739812"><ele>194.0</ele><time>2026-03-28T08:29:51.571Z</time></trkpt><trkpt lat="45.5044992" lon="10.4740401"><ele>194.0</ele><time>2026-03-28T08:29:52.57Z</time></trkpt><trkpt lat="45.5043568" lon="10.4740923"><ele>194.0</ele><time>2026-03-28T08:29:53.571Z</time></trkpt><trkpt lat="45.5042193" lon="10.4740625"><ele>196.75</ele><time>2026-03-28T08:29:54.571Z</time></trkpt><trkpt lat="45.5040844" lon="10.4740468"><ele>199.5</ele><time>2026-03-28T08:29:55.572Z</time></trkpt><trkpt lat="45.5039472" lon="10.4740245"><ele>202.25</ele><time>2026-03-28T08:29:56.572Z</time></trkpt><trkpt lat="45.5038131" lon="10.4740189"><ele>205.0</ele><time>2026-03-28T08:29:57.57Z</time></trkpt><trkpt lat="45.5036896" lon="10.4740153"><ele>206.25</ele><time>2026-03-28T08:29:58.57Z</time></trkpt><trkpt lat="45.5035725" lon="10.4740233"><ele>207.5</ele><time>2026-03-28T08:29:59.571Z</time></trkpt><trkpt lat="45.5034531" lon="10.474051"><ele>208.75</ele><time>2026-03-28T08:30:00.572Z</time></trkpt><trkpt lat="45.5033356" lon="10.4740991"><ele>210.0</ele><time>2026-03-28T08:30:01.572Z</time></trkpt><trkpt lat="45.503227" lon="10.4741774"><ele>210.0</ele><time>2026-03-28T08:30:02.572Z</time></trkpt><trkpt lat="45.5031077" lon="10.4742618"><ele>210.0</ele><time>2026-03-28T08:30:03.571Z</time></trkpt><trkpt lat="45.5029829" lon="10.4743606"><ele>210.0</ele><time>2026-03-28T08:30:04.571Z</time></trkpt><trkpt lat="45.5028605" lon="10.4744585"><ele>210.0</ele><time>2026-03-28T08:30:05.571Z</time></trkpt><trkpt lat="45.5027454" lon="10.4745474"><ele>209.8</ele><time>2026-03-28T08:30:06.571Z</time></trkpt><trkpt lat="45.5026363" lon="10.4746194"><ele>209.6</ele><time>2026-03-28T08:30:07.571Z</time></trkpt><trkpt lat="45.5025305" lon="10.4746695"><ele>209.39999999999998</ele><time>2026-03-28T08:30:08.57Z</time></trkpt><trkpt lat="45.5024258" lon="10.4746765"><ele>209.2</ele><time>2026-03-28T08:30:09.572Z</time></trkpt><trkpt lat="45.5023198" lon="10.4746511"><ele>209.0</ele><time>2026-03-28T08:30:10.571Z</time></trkpt><trkpt lat="45.5021978" lon="10.4746102"><ele>209.25</ele><time>2026-03-28T08:30:11.571Z</time></trkpt><trkpt lat="45.5020678" lon="10.4745413"><ele>209.5</ele><time>2026-03-28T08:30:12.571Z</time></trkpt><trkpt lat="45.501937" lon="10.4744575"><ele>209.75</ele><time>2026-03-28T08:30:13.572Z</time></trkpt><trkpt lat="45.5018134" lon="10.4743718"><ele>210.0</ele><time>2026-03-28T08:30:14.571Z</time></trkpt><trkpt lat="45.5016981" lon="10.4742865"><ele>210.0</ele><time>2026-03-28T08:30:15.571Z</time></trkpt><trkpt lat="45.501592" lon="10.4742021"><ele>210.0</ele><time>2026-03-28T08:30:16.57Z</time></trkpt><trkpt lat="45.5015289" lon="10.4741405"><ele>210.0</ele><time>2026-03-28T08:30:17.571Z</time></trkpt><trkpt lat="45.5014693" lon="10.4740883"><ele>210.0</ele><time>2026-03-28T08:30:18.571Z</time></trkpt><trkpt lat="45.5013551" lon="10.4740511"><ele>210.0</ele><time>2026-03-28T08:30:20.571Z</time></trkpt><trkpt lat="45.5012687" lon="10.4741144"><ele>209.83333333333334</ele><time>2026-03-28T08:30:22.571Z</time></trkpt><trkpt lat="45.5011994" lon="10.4741268"><ele>209.66666666666669</ele><time>2026-03-28T08:30:23.572Z</time></trkpt><trkpt lat="45.5011374" lon="10.4741003"><ele>209.5</ele><time>2026-03-28T08:30:24.571Z</time></trkpt><trkpt lat="45.5010808" lon="10.4740246"><ele>209.33333333333334</ele><time>2026-03-28T08:30:25.572Z</time></trkpt><trkpt lat="45.5010111" lon="10.4739098"><ele>209.16666666666669</ele><time>2026-03-28T08:30:27.571Z</time></trkpt><trkpt lat="45.500947" lon="10.4737607"><ele>209.0</ele><time>2026-03-28T08:30:29.57Z</time></trkpt><trkpt lat="45.500909" lon="10.4736809"><ele>209.0</ele><time>2026-03-28T08:30:30.57Z</time></trkpt><trkpt lat="45.5008552" lon="10.4735585"><ele>209.0</ele><time>2026-03-28T08:30:31.572Z</time></trkpt><trkpt lat="45.5008147" lon="10.4734463"><ele>209.0</ele><time>2026-03-28T08:30:32.571Z</time></trkpt><trkpt lat="45.5007743" lon="10.4733328"><ele>209.0</ele><time>2026-03-28T08:30:33.572Z</time></trkpt><trkpt lat="45.5007568" lon="10.4732453"><ele>209.0</ele><time>2026-03-28T08:30:34.572Z</time></trkpt><trkpt lat="45.5007025" lon="10.4731047"><ele>209.0</ele><time>2026-03-28T08:30:36.571Z</time></trkpt><trkpt lat="45.5006014" lon="10.4730426"><ele>209.0</ele><time>2026-03-28T08:30:38.571Z</time></trkpt><trkpt lat="45.5004584" lon="10.4730005"><ele>209.0</ele><time>2026-03-28T08:30:40.571Z</time></trkpt><trkpt lat="45.5003819" lon="10.4729721"><ele>209.0</ele><time>2026-03-28T08:30:41.572Z</time></trkpt><trkpt lat="45.500309" lon="10.4729565"><ele>209.0</ele><time>2026-03-28T08:30:42.572Z</time></trkpt><trkpt lat="45.5002371" lon="10.4729385"><ele>208.0</ele><time>2026-03-28T08:30:43.571Z</time></trkpt><trkpt lat="45.5001666" lon="10.4729158"><ele>207.0</ele><time>2026-03-28T08:30:44.571Z</time></trkpt><trkpt lat="45.5000956" lon="10.4728963"><ele>206.0</ele><time>2026-03-28T08:30:45.571Z</time></trkpt><trkpt lat="45.5000254" lon="10.4728775"><ele>205.0</ele><time>2026-03-28T08:30:46.571Z</time></trkpt><trkpt lat="45.4999547" lon="10.4728549"><ele>204.0</ele><time>2026-03-28T08:30:47.571Z</time></trkpt><trkpt lat="45.4998868" lon="10.4728347"><ele>203.0</ele><time>2026-03-28T08:30:48.572Z</time></trkpt><trkpt lat="45.4998138" lon="10.4728138"><ele>202.0</ele><time>2026-03-28T08:30:49.571Z</time></trkpt><trkpt lat="45.499729" lon="10.4727911"><ele>202.0</ele><time>2026-03-28T08:30:50.571Z</time></trkpt><trkpt lat="45.4996373" lon="10.472768"><ele>202.0</ele><time>2026-03-28T08:30:51.571Z</time></trkpt><trkpt lat="45.4995394" lon="10.4727374"><ele>202.0</ele><time>2026-03-28T08:30:52.571Z</time></trkpt><trkpt lat="45.4994417" lon="10.4727068"><ele>202.0</ele><time>2026-03-28T08:30:53.572Z</time></trkpt><trkpt lat="45.4993432" lon="10.4726742"><ele>202.0</ele><time>2026-03-28T08:30:54.571Z</time></trkpt><trkpt lat="45.4992592" lon="10.4726457"><ele>201.66666666666666</ele><time>2026-03-28T08:30:55.571Z</time></trkpt><trkpt lat="45.4991825" lon="10.4726232"><ele>201.33333333333331</ele><time>2026-03-28T08:30:56.572Z</time></trkpt><trkpt lat="45.4990964" lon="10.4725936"><ele>201.0</ele><time>2026-03-28T08:30:58.572Z</time></trkpt><trkpt lat="45.4990267" lon="10.4726324"><ele>200.66666666666669</ele><time>2026-03-28T08:31:01.572Z</time></trkpt><trkpt lat="45.4990231" lon="10.4727464"><ele>200.33333333333334</ele><time>2026-03-28T08:31:03.572Z</time></trkpt><trkpt lat="45.4990301" lon="10.4728521"><ele>200.0</ele><time>2026-03-28T08:31:04.571Z</time></trkpt><trkpt lat="45.4990321" lon="10.4729776"><ele>200.0</ele><time>2026-03-28T08:31:05.571Z</time></trkpt><trkpt lat="45.4990257" lon="10.4731273"><ele>200.0</ele><time>2026-03-28T08:31:06.571Z</time></trkpt><trkpt lat="45.4990191" lon="10.4732849"><ele>200.0</ele><time>2026-03-28T08:31:07.57Z</time></trkpt><trkpt lat="45.4990153" lon="10.4734386"><ele>200.0</ele><time>2026-03-28T08:31:08.572Z</time></trkpt><trkpt lat="45.4990112" lon="10.4735887"><ele>200.0</ele><time>2026-03-28T08:31:09.571Z</time></trkpt><trkpt lat="45.499007" lon="10.4737355"><ele>200.33333333333334</ele><time>2026-03-28T08:31:10.571Z</time></trkpt><trkpt lat="45.4990011" lon="10.4738758"><ele>200.66666666666669</ele><time>2026-03-28T08:31:11.571Z</time></trkpt><trkpt lat="45.4989938" lon="10.4739985"><ele>201.0</ele><time>2026-03-28T08:31:12.571Z</time></trkpt><trkpt lat="45.498987" lon="10.4741145"><ele>201.33333333333331</ele><time>2026-03-28T08:31:13.571Z</time></trkpt><trkpt lat="45.4989842" lon="10.4742431"><ele>201.66666666666666</ele><time>2026-03-28T08:31:14.571Z</time></trkpt><trkpt lat="45.498981" lon="10.4743716"><ele>202.0</ele><time>2026-03-28T08:31:15.571Z</time></trkpt><trkpt lat="45.4989754" lon="10.4744979"><ele>202.33333333333331</ele><time>2026-03-28T08:31:16.571Z</time></trkpt><trkpt lat="45.4989707" lon="10.4746236"><ele>202.66666666666666</ele><time>2026-03-28T08:31:17.571Z</time></trkpt><trkpt lat="45.4989675" lon="10.4747515"><ele>203.0</ele><time>2026-03-28T08:31:18.571Z</time></trkpt><trkpt lat="45.4989601" lon="10.4748813"><ele>203.33333333333331</ele><time>2026-03-28T08:31:19.572Z</time></trkpt><trkpt lat="45.4989522" lon="10.4750069"><ele>203.66666666666666</ele><time>2026-03-28T08:31:20.572Z</time></trkpt><trkpt lat="45.4989473" lon="10.4751059"><ele>204.0</ele><time>2026-03-28T08:31:21.572Z</time></trkpt><trkpt lat="45.498935" lon="10.4752471"><ele>204.0</ele><time>2026-03-28T08:31:23.572Z</time></trkpt><trkpt lat="45.4989293" lon="10.4753577"><ele>204.0</ele><time>2026-03-28T08:31:25.571Z</time></trkpt><trkpt lat="45.4988825" lon="10.4754382"><ele>204.0</ele><time>2026-03-28T08:31:27.571Z</time></trkpt><trkpt lat="45.4987715" lon="10.4754572"><ele>204.0</ele><time>2026-03-28T08:31:29.571Z</time></trkpt><trkpt lat="45.4986924" lon="10.4754523"><ele>204.0</ele><time>2026-03-28T08:31:30.571Z</time></trkpt><trkpt lat="45.4986004" lon="10.4754583"><ele>204.0</ele><time>2026-03-28T08:31:31.571Z</time></trkpt><trkpt lat="45.4985026" lon="10.4754695"><ele>204.79999999999998</ele><time>2026-03-28T08:31:32.571Z</time></trkpt><trkpt lat="45.4983996" lon="10.475484"><ele>205.6</ele><time>2026-03-28T08:31:33.57Z</time></trkpt><trkpt lat="45.4982959" lon="10.4754988"><ele>206.4</ele><time>2026-03-28T08:31:34.57Z</time></trkpt><trkpt lat="45.4982012" lon="10.4755038"><ele>207.2</ele><time>2026-03-28T08:31:35.57Z</time></trkpt><trkpt lat="45.4981094" lon="10.4755048"><ele>208.0</ele><time>2026-03-28T08:31:36.572Z</time></trkpt><trkpt lat="45.4980179" lon="10.4755038"><ele>208.0</ele><time>2026-03-28T08:31:37.572Z</time></trkpt><trkpt lat="45.4979186" lon="10.4755006"><ele>208.0</ele><time>2026-03-28T08:31:38.572Z</time></trkpt><trkpt lat="45.4978228" lon="10.4754907"><ele>208.0</ele><time>2026-03-28T08:31:39.571Z</time></trkpt><trkpt lat="45.4977275" lon="10.4754861"><ele>208.0</ele><time>2026-03-28T08:31:40.571Z</time></trkpt><trkpt lat="45.4976318" lon="10.4754696"><ele>208.0</ele><time>2026-03-28T08:31:41.571Z</time></trkpt><trkpt lat="45.4975284" lon="10.475448"><ele>207.4</ele><time>2026-03-28T08:31:42.571Z</time></trkpt><trkpt lat="45.4974187" lon="10.4754274"><ele>206.8</ele><time>2026-03-28T08:31:43.572Z</time></trkpt><trkpt lat="45.4973134" lon="10.4753933"><ele>206.2</ele><time>2026-03-28T08:31:44.571Z</time></trkpt><trkpt lat="45.497212" lon="10.4753631"><ele>205.6</ele><time>2026-03-28T08:31:45.572Z</time></trkpt><trkpt lat="45.497108" lon="10.4753443"><ele>205.0</ele><time>2026-03-28T08:31:46.571Z</time></trkpt><trkpt lat="45.4970112" lon="10.4753221"><ele>205.0</ele><time>2026-03-28T08:31:47.571Z</time></trkpt><trkpt lat="45.496917" lon="10.4752959"><ele>205.0</ele><time>2026-03-28T08:31:48.571Z</time></trkpt><trkpt lat="45.4968223" lon="10.4752578"><ele>205.0</ele><time>2026-03-28T08:31:49.571Z</time></trkpt><trkpt lat="45.4967264" lon="10.4752279"><ele>205.0</ele><time>2026-03-28T08:31:50.57Z</time></trkpt><trkpt lat="45.4966184" lon="10.4752089"><ele>205.0</ele><time>2026-03-28T08:31:51.571Z</time></trkpt><trkpt lat="45.4964997" lon="10.475193"><ele>205.0</ele><time>2026-03-28T08:31:52.571Z</time></trkpt><trkpt lat="45.4963845" lon="10.4751795"><ele>205.0</ele><time>2026-03-28T08:31:53.572Z</time></trkpt><trkpt lat="45.4962733" lon="10.4751676"><ele>205.0</ele><time>2026-03-28T08:31:54.572Z</time></trkpt><trkpt lat="45.4961503" lon="10.4751525"><ele>205.0</ele><time>2026-03-28T08:31:55.571Z</time></trkpt><trkpt lat="45.4960263" lon="10.4751334"><ele>205.4</ele><time>2026-03-28T08:31:56.571Z</time></trkpt><trkpt lat="45.4959097" lon="10.4751148"><ele>205.8</ele><time>2026-03-28T08:31:57.572Z</time></trkpt><trkpt lat="45.495819" lon="10.4750953"><ele>206.2</ele><time>2026-03-28T08:31:58.571Z</time></trkpt><trkpt lat="45.4957354" lon="10.4750691"><ele>206.6</ele><time>2026-03-28T08:31:59.571Z</time></trkpt><trkpt lat="45.4956479" lon="10.4750516"><ele>207.0</ele><time>2026-03-28T08:32:00.572Z</time></trkpt><trkpt lat="45.4955589" lon="10.4750363"><ele>207.0</ele><time>2026-03-28T08:32:01.572Z</time></trkpt><trkpt lat="45.4954656" lon="10.4750209"><ele>207.0</ele><time>2026-03-28T08:32:02.571Z</time></trkpt><trkpt lat="45.495359" lon="10.4750262"><ele>207.0</ele><time>2026-03-28T08:32:03.572Z</time></trkpt><trkpt lat="45.4952559" lon="10.4750213"><ele>207.0</ele><time>2026-03-28T08:32:04.572Z</time></trkpt><trkpt lat="45.4951573" lon="10.4750106"><ele>207.0</ele><time>2026-03-28T08:32:05.572Z</time></trkpt><trkpt lat="45.4950581" lon="10.4750017"><ele>207.25</ele><time>2026-03-28T08:32:06.57Z</time></trkpt><trkpt lat="45.4949486" lon="10.47499"><ele>207.5</ele><time>2026-03-28T08:32:07.571Z</time></trkpt><trkpt lat="45.4948345" lon="10.4749759"><ele>207.75</ele><time>2026-03-28T08:32:08.571Z</time></trkpt><trkpt lat="45.4947203" lon="10.4749626"><ele>208.0</ele><time>2026-03-28T08:32:09.571Z</time></trkpt><trkpt lat="45.4945929" lon="10.4749595"><ele>208.0</ele><time>2026-03-28T08:32:10.572Z</time></trkpt><trkpt lat="45.4944713" lon="10.4749481"><ele>208.0</ele><time>2026-03-28T08:32:11.571Z</time></trkpt><trkpt lat="45.4943563" lon="10.474946"><ele>208.0</ele><time>2026-03-28T08:32:12.571Z</time></trkpt><trkpt lat="45.4942376" lon="10.4749364"><ele>208.0</ele><time>2026-03-28T08:32:13.571Z</time></trkpt><trkpt lat="45.4941157" lon="10.4749221"><ele>208.0</ele><time>2026-03-28T08:32:14.572Z</time></trkpt><trkpt lat="45.4940088" lon="10.4749058"><ele>208.0</ele><time>2026-03-28T08:32:15.571Z</time></trkpt><trkpt lat="45.493899" lon="10.4749062"><ele>208.0</ele><time>2026-03-28T08:32:16.571Z</time></trkpt><trkpt lat="45.4937988" lon="10.4749138"><ele>208.0</ele><time>2026-03-28T08:32:17.571Z</time></trkpt><trkpt lat="45.4937115" lon="10.4749239"><ele>208.0</ele><time>2026-03-28T08:32:18.571Z</time></trkpt><trkpt lat="45.4936194" lon="10.4749438"><ele>208.8</ele><time>2026-03-28T08:32:19.571Z</time></trkpt><trkpt lat="45.4935168" lon="10.4749516"><ele>209.60000000000002</ele><time>2026-03-28T08:32:20.572Z</time></trkpt><trkpt lat="45.4934146" lon="10.4749418"><ele>210.39999999999998</ele><time>2026-03-28T08:32:21.571Z</time></trkpt><trkpt lat="45.493304" lon="10.4749286"><ele>211.2</ele><time>2026-03-28T08:32:22.571Z</time></trkpt><trkpt lat="45.4931794" lon="10.4749223"><ele>212.0</ele><time>2026-03-28T08:32:23.571Z</time></trkpt><trkpt lat="45.4930571" lon="10.4749307"><ele>212.0</ele><time>2026-03-28T08:32:24.571Z</time></trkpt><trkpt lat="45.4929591" lon="10.4749268"><ele>212.0</ele><time>2026-03-28T08:32:25.572Z</time></trkpt><trkpt lat="45.4928953" lon="10.4749281"><ele>212.0</ele><time>2026-03-28T08:32:26.572Z</time></trkpt><trkpt lat="45.4928427" lon="10.4748618"><ele>212.0</ele><time>2026-03-28T08:32:28.572Z</time></trkpt><trkpt lat="45.492807" lon="10.4746894"><ele>212.0</ele><time>2026-03-28T08:32:30.571Z</time></trkpt><trkpt lat="45.4927921" lon="10.4745481"><ele>213.0</ele><time>2026-03-28T08:32:31.57Z</time></trkpt><trkpt lat="45.492778" lon="10.4743843"><ele>214.0</ele><time>2026-03-28T08:32:32.571Z</time></trkpt><trkpt lat="45.4927473" lon="10.4741956"><ele>215.0</ele><time>2026-03-28T08:32:33.572Z</time></trkpt><trkpt lat="45.4927024" lon="10.4740473"><ele>216.0</ele><time>2026-03-28T08:32:34.571Z</time></trkpt><trkpt lat="45.4926644" lon="10.4739244"><ele>216.0</ele><time>2026-03-28T08:32:35.571Z</time></trkpt><trkpt lat="45.4926273" lon="10.4738189"><ele>216.00000000000003</ele><time>2026-03-28T08:32:36.571Z</time></trkpt><trkpt lat="45.4925867" lon="10.4737121"><ele>216.00000000000003</ele><time>2026-03-28T08:32:37.571Z</time></trkpt><trkpt lat="45.4925495" lon="10.4736038"><ele>216.0</ele><time>2026-03-28T08:32:38.571Z</time></trkpt><trkpt lat="45.492497" lon="10.4734889"><ele>216.0</ele><time>2026-03-28T08:32:39.571Z</time></trkpt><trkpt lat="45.4924291" lon="10.473344"><ele>214.8</ele><time>2026-03-28T08:32:40.571Z</time></trkpt><trkpt lat="45.4923747" lon="10.4732431"><ele>213.60000000000002</ele><time>2026-03-28T08:32:41.572Z</time></trkpt><trkpt lat="45.4923193" lon="10.4731606"><ele>212.4</ele><time>2026-03-28T08:32:42.572Z</time></trkpt><trkpt lat="45.4922563" lon="10.4730786"><ele>211.2</ele><time>2026-03-28T08:32:43.571Z</time></trkpt><trkpt lat="45.4921831" lon="10.4729853"><ele>210.0</ele><time>2026-03-28T08:32:44.571Z</time></trkpt><trkpt lat="45.4920973" lon="10.4729171"><ele>207.0</ele><time>2026-03-28T08:32:45.57Z</time></trkpt><trkpt lat="45.4919836" lon="10.4728808"><ele>204.0</ele><time>2026-03-28T08:32:46.571Z</time></trkpt><trkpt lat="45.4918829" lon="10.4728686"><ele>201.0</ele><time>2026-03-28T08:32:47.571Z</time></trkpt><trkpt lat="45.4917855" lon="10.4728784"><ele>198.0</ele><time>2026-03-28T08:32:48.571Z</time></trkpt><trkpt lat="45.4916952" lon="10.4729042"><ele>195.0</ele><time>2026-03-28T08:32:49.571Z</time></trkpt><trkpt lat="45.4916056" lon="10.4729369"><ele>196.2</ele><time>2026-03-28T08:32:50.571Z</time></trkpt><trkpt lat="45.4915178" lon="10.4729659"><ele>197.4</ele><time>2026-03-28T08:32:51.571Z</time></trkpt><trkpt lat="45.491422" lon="10.4729905"><ele>198.60000000000002</ele><time>2026-03-28T08:32:52.571Z</time></trkpt><trkpt lat="45.4913258" lon="10.4730097"><ele>199.8</ele><time>2026-03-28T08:32:53.571Z</time></trkpt><trkpt lat="45.4912302" lon="10.4730309"><ele>201.0</ele><time>2026-03-28T08:32:54.572Z</time></trkpt><trkpt lat="45.4911393" lon="10.4730524"><ele>201.0</ele><time>2026-03-28T08:32:55.571Z</time></trkpt><trkpt lat="45.4910426" lon="10.473067"><ele>201.0</ele><time>2026-03-28T08:32:56.571Z</time></trkpt><trkpt lat="45.4909633" lon="10.4730784"><ele>201.0</ele><time>2026-03-28T08:32:57.57Z</time></trkpt><trkpt lat="45.490898" lon="10.4730909"><ele>201.0</ele><time>2026-03-28T08:32:58.571Z</time></trkpt><trkpt lat="45.4908296" lon="10.4730985"><ele>201.0</ele><time>2026-03-28T08:32:59.572Z</time></trkpt><trkpt lat="45.4907397" lon="10.4731021"><ele>201.0</ele><time>2026-03-28T08:33:00.572Z</time></trkpt><trkpt lat="45.4906466" lon="10.4731079"><ele>201.0</ele><time>2026-03-28T08:33:01.571Z</time></trkpt><trkpt lat="45.4905292" lon="10.4731834"><ele>201.0</ele><time>2026-03-28T08:33:02.57Z</time></trkpt><trkpt lat="45.4904177" lon="10.4732392"><ele>201.0</ele><time>2026-03-28T08:33:03.571Z</time></trkpt><trkpt lat="45.4903142" lon="10.4733095"><ele>201.0</ele><time>2026-03-28T08:33:04.572Z</time></trkpt><trkpt lat="45.490214" lon="10.473389"><ele>199.0</ele><time>2026-03-28T08:33:05.571Z</time></trkpt><trkpt lat="45.4901152" lon="10.4734624"><ele>197.0</ele><time>2026-03-28T08:33:06.57Z</time></trkpt><trkpt lat="45.4900498" lon="10.4735152"><ele>195.0</ele><time>2026-03-28T08:33:07.572Z</time></trkpt><trkpt lat="45.4899814" lon="10.4735767"><ele>193.0</ele><time>2026-03-28T08:33:08.572Z</time></trkpt><trkpt lat="45.489917" lon="10.4736321"><ele>191.0</ele><time>2026-03-28T08:33:09.572Z</time></trkpt><trkpt lat="45.4898553" lon="10.4736813"><ele>189.0</ele><time>2026-03-28T08:33:10.571Z</time></trkpt><trkpt lat="45.4897972" lon="10.4737457"><ele>189.5</ele><time>2026-03-28T08:33:11.571Z</time></trkpt><trkpt lat="45.489722" lon="10.4738242"><ele>190.0</ele><time>2026-03-28T08:33:12.571Z</time></trkpt><trkpt lat="45.4896311" lon="10.4739096"><ele>190.5</ele><time>2026-03-28T08:33:13.572Z</time></trkpt><trkpt lat="45.4895232" lon="10.4739978"><ele>191.0</ele><time>2026-03-28T08:33:14.571Z</time></trkpt><trkpt lat="45.4894015" lon="10.474087"><ele>189.33333333333331</ele><time>2026-03-28T08:33:15.571Z</time></trkpt><trkpt lat="45.4892586" lon="10.4741825"><ele>187.66666666666666</ele><time>2026-03-28T08:33:16.572Z</time></trkpt><trkpt lat="45.4891124" lon="10.4742692"><ele>186.0</ele><time>2026-03-28T08:33:17.572Z</time></trkpt><trkpt lat="45.4889779" lon="10.4743475"><ele>186.0</ele><time>2026-03-28T08:33:18.571Z</time></trkpt><trkpt lat="45.4888524" lon="10.4744241"><ele>186.0</ele><time>2026-03-28T08:33:19.572Z</time></trkpt><trkpt lat="45.4887304" lon="10.4744938"><ele>186.0</ele><time>2026-03-28T08:33:20.572Z</time></trkpt><trkpt lat="45.4886055" lon="10.474561"><ele>186.0</ele><time>2026-03-28T08:33:21.571Z</time></trkpt><trkpt lat="45.4884771" lon="10.4746307"><ele>185.5</ele><time>2026-03-28T08:33:22.571Z</time></trkpt><trkpt lat="45.4883481" lon="10.474703"><ele>185.0</ele><time>2026-03-28T08:33:23.571Z</time></trkpt><trkpt lat="45.4882278" lon="10.474772"><ele>184.5</ele><time>2026-03-28T08:33:24.571Z</time></trkpt><trkpt lat="45.4881125" lon="10.4748351"><ele>184.0</ele><time>2026-03-28T08:33:25.572Z</time></trkpt><trkpt lat="45.4880018" lon="10.4748994"><ele>183.6</ele><time>2026-03-28T08:33:26.571Z</time></trkpt><trkpt lat="45.4878933" lon="10.4749645"><ele>183.2</ele><time>2026-03-28T08:33:27.57Z</time></trkpt><trkpt lat="45.4877942" lon="10.475026"><ele>182.79999999999998</ele><time>2026-03-28T08:33:28.572Z</time></trkpt><trkpt lat="45.4877044" lon="10.475107"><ele>182.39999999999998</ele><time>2026-03-28T08:33:29.572Z</time></trkpt><trkpt lat="45.4876164" lon="10.4751843"><ele>182.0</ele><time>2026-03-28T08:33:30.572Z</time></trkpt><trkpt lat="45.4875616" lon="10.4752591"><ele>182.0</ele><time>2026-03-28T08:33:31.572Z</time></trkpt><trkpt lat="45.4875071" lon="10.4753337"><ele>182.0</ele><time>2026-03-28T08:33:32.57Z</time></trkpt><trkpt lat="45.4874518" lon="10.4754716"><ele>182.0</ele><time>2026-03-28T08:33:34.57Z</time></trkpt><trkpt lat="45.4873821" lon="10.475534"><ele>182.0</ele><time>2026-03-28T08:33:35.571Z</time></trkpt><trkpt lat="45.487303" lon="10.4755651"><ele>182.0</ele><time>2026-03-28T08:33:36.572Z</time></trkpt><trkpt lat="45.4872289" lon="10.4756042"><ele>182.0</ele><time>2026-03-28T08:33:37.571Z</time></trkpt><trkpt lat="45.4871163" lon="10.4756217"><ele>182.8</ele><time>2026-03-28T08:33:39.57Z</time></trkpt><trkpt lat="45.487016" lon="10.4755419"><ele>183.6</ele><time>2026-03-28T08:33:41.571Z</time></trkpt><trkpt lat="45.4869837" lon="10.4754198"><ele>184.4</ele><time>2026-03-28T08:33:42.571Z</time></trkpt><trkpt lat="45.4869401" lon="10.4753173"><ele>185.20000000000002</ele><time>2026-03-28T08:33:43.572Z</time></trkpt><trkpt lat="45.486887" lon="10.4751838"><ele>186.0</ele><time>2026-03-28T08:33:44.572Z</time></trkpt><trkpt lat="45.4868518" lon="10.4750665"><ele>186.0</ele><time>2026-03-28T08:33:45.572Z</time></trkpt><trkpt lat="45.4868176" lon="10.4749684"><ele>186.0</ele><time>2026-03-28T08:33:46.572Z</time></trkpt><trkpt lat="45.4867906" lon="10.4748671"><ele>186.0</ele><time>2026-03-28T08:33:47.571Z</time></trkpt><trkpt lat="45.4867652" lon="10.4747467"><ele>186.0</ele><time>2026-03-28T08:33:48.571Z</time></trkpt><trkpt lat="45.4867415" lon="10.4746236"><ele>186.0</ele><time>2026-03-28T08:33:49.57Z</time></trkpt><trkpt lat="45.4867193" lon="10.4745036"><ele>186.0</ele><time>2026-03-28T08:33:50.571Z</time></trkpt><trkpt lat="45.4867066" lon="10.4743902"><ele>185.83333333333334</ele><time>2026-03-28T08:33:51.572Z</time></trkpt><trkpt lat="45.4867033" lon="10.474282"><ele>185.66666666666666</ele><time>2026-03-28T08:33:52.572Z</time></trkpt><trkpt lat="45.4866893" lon="10.4741757"><ele>185.5</ele><time>2026-03-28T08:33:53.572Z</time></trkpt><trkpt lat="45.4866664" lon="10.4740596"><ele>185.33333333333331</ele><time>2026-03-28T08:33:54.572Z</time></trkpt><trkpt lat="45.4866444" lon="10.4739405"><ele>185.16666666666666</ele><time>2026-03-28T08:33:55.571Z</time></trkpt><trkpt lat="45.4866223" lon="10.4738263"><ele>185.0</ele><time>2026-03-28T08:33:56.572Z</time></trkpt><trkpt lat="45.4865965" lon="10.4737177"><ele>185.0</ele><time>2026-03-28T08:33:57.571Z</time></trkpt><trkpt lat="45.4865626" lon="10.4736148"><ele>185.0</ele><time>2026-03-28T08:33:58.572Z</time></trkpt><trkpt lat="45.4865235" lon="10.4735068"><ele>185.0</ele><time>2026-03-28T08:33:59.571Z</time></trkpt><trkpt lat="45.4864853" lon="10.4733969"><ele>185.0</ele><time>2026-03-28T08:34:00.572Z</time></trkpt><trkpt lat="45.4864388" lon="10.4732892"><ele>185.0</ele><time>2026-03-28T08:34:01.572Z</time></trkpt><trkpt lat="45.4863968" lon="10.4731852"><ele>185.0</ele><time>2026-03-28T08:34:02.572Z</time></trkpt><trkpt lat="45.4863598" lon="10.4730905"><ele>185.0</ele><time>2026-03-28T08:34:03.572Z</time></trkpt><trkpt lat="45.4863223" lon="10.4730028"><ele>185.0</ele><time>2026-03-28T08:34:04.572Z</time></trkpt><trkpt lat="45.4862851" lon="10.4729157"><ele>185.0</ele><time>2026-03-28T08:34:05.571Z</time></trkpt><trkpt lat="45.4862471" lon="10.472843"><ele>185.0</ele><time>2026-03-28T08:34:06.571Z</time></trkpt><trkpt lat="45.4861763" lon="10.4727113"><ele>185.0</ele><time>2026-03-28T08:34:08.571Z</time></trkpt><trkpt lat="45.4860901" lon="10.4726169"><ele>185.0</ele><time>2026-03-28T08:34:10.571Z</time></trkpt><trkpt lat="45.4859951" lon="10.4725302"><ele>184.66666666666666</ele><time>2026-03-28T08:34:12.571Z</time></trkpt><trkpt lat="45.485947" lon="10.4724654"><ele>184.33333333333331</ele><time>2026-03-28T08:34:13.571Z</time></trkpt><trkpt lat="45.4858982" lon="10.472403"><ele>184.0</ele><time>2026-03-28T08:34:14.571Z</time></trkpt><trkpt lat="45.4858093" lon="10.4723294"><ele>183.66666666666666</ele><time>2026-03-28T08:34:16.571Z</time></trkpt><trkpt lat="45.4857184" lon="10.472374"><ele>183.33333333333334</ele><time>2026-03-28T08:34:18.571Z</time></trkpt><trkpt lat="45.4856309" lon="10.4723422"><ele>183.0</ele><time>2026-03-28T08:34:20.571Z</time></trkpt><trkpt lat="45.4855952" lon="10.4722173"><ele>183.0</ele><time>2026-03-28T08:34:22.571Z</time></trkpt><trkpt lat="45.4855686" lon="10.4721164"><ele>183.0</ele><time>2026-03-28T08:34:24.571Z</time></trkpt><trkpt lat="45.4855493" lon="10.4720167"><ele>183.0</ele><time>2026-03-28T08:34:26.571Z</time></trkpt><trkpt lat="45.4855325" lon="10.4719189"><ele>183.0</ele><time>2026-03-28T08:34:28.572Z</time></trkpt><trkpt lat="45.4855032" lon="10.4717778"><ele>183.0</ele><time>2026-03-28T08:34:30.571Z</time></trkpt><trkpt lat="45.48545" lon="10.4715987"><ele>182.0</ele><time>2026-03-28T08:34:32.572Z</time></trkpt><trkpt lat="45.4854189" lon="10.471484"><ele>181.0</ele><time>2026-03-28T08:34:33.572Z</time></trkpt><trkpt lat="45.4853865" lon="10.4713618"><ele>180.0</ele><time>2026-03-28T08:34:34.571Z</time></trkpt><trkpt lat="45.4853542" lon="10.4712291"><ele>179.0</ele><time>2026-03-28T08:34:35.572Z</time></trkpt><trkpt lat="45.485329" lon="10.4710978"><ele>178.0</ele><time>2026-03-28T08:34:36.572Z</time></trkpt><trkpt lat="45.4853067" lon="10.4709642"><ele>177.4</ele><time>2026-03-28T08:34:37.571Z</time></trkpt><trkpt lat="45.4852871" lon="10.4708326"><ele>176.8</ele><time>2026-03-28T08:34:38.572Z</time></trkpt><trkpt lat="45.4852687" lon="10.4706963"><ele>176.2</ele><time>2026-03-28T08:34:39.572Z</time></trkpt><trkpt lat="45.485246" lon="10.4705523"><ele>175.6</ele><time>2026-03-28T08:34:40.572Z</time></trkpt><trkpt lat="45.4852243" lon="10.4704144"><ele>175.0</ele><time>2026-03-28T08:34:41.572Z</time></trkpt><trkpt lat="45.4852015" lon="10.470271"><ele>174.4</ele><time>2026-03-28T08:34:42.572Z</time></trkpt><trkpt lat="45.4851801" lon="10.4701273"><ele>173.8</ele><time>2026-03-28T08:34:43.572Z</time></trkpt><trkpt lat="45.4851582" lon="10.4699909"><ele>173.2</ele><time>2026-03-28T08:34:44.572Z</time></trkpt><trkpt lat="45.4851409" lon="10.4698611"><ele>172.6</ele><time>2026-03-28T08:34:45.571Z</time></trkpt><trkpt lat="45.4851272" lon="10.4697382"><ele>172.0</ele><time>2026-03-28T08:34:46.572Z</time></trkpt><trkpt lat="45.4851182" lon="10.4696273"><ele>171.8</ele><time>2026-03-28T08:34:47.572Z</time></trkpt><trkpt lat="45.4851195" lon="10.4695219"><ele>171.6</ele><time>2026-03-28T08:34:48.571Z</time></trkpt><trkpt lat="45.485127" lon="10.4694098"><ele>171.4</ele><time>2026-03-28T08:34:49.571Z</time></trkpt><trkpt lat="45.485135" lon="10.4692777"><ele>171.20000000000002</ele><time>2026-03-28T08:34:50.571Z</time></trkpt><trkpt lat="45.4851359" lon="10.469126"><ele>171.0</ele><time>2026-03-28T08:34:51.571Z</time></trkpt><trkpt lat="45.4851347" lon="10.4689553"><ele>171.0</ele><time>2026-03-28T08:34:52.57Z</time></trkpt><trkpt lat="45.4851289" lon="10.4687778"><ele>171.0</ele><time>2026-03-28T08:34:53.571Z</time></trkpt><trkpt lat="45.4851197" lon="10.4686054"><ele>171.0</ele><time>2026-03-28T08:34:54.571Z</time></trkpt><trkpt lat="45.4851074" lon="10.4684255"><ele>171.0</ele><time>2026-03-28T08:34:55.572Z</time></trkpt><trkpt lat="45.4850944" lon="10.468243"><ele>170.75</ele><time>2026-03-28T08:34:56.572Z</time></trkpt><trkpt lat="45.4850817" lon="10.4680686"><ele>170.5</ele><time>2026-03-28T08:34:57.571Z</time></trkpt><trkpt lat="45.4850691" lon="10.4678965"><ele>170.25</ele><time>2026-03-28T08:34:58.571Z</time></trkpt><trkpt lat="45.4850561" lon="10.4677308"><ele>170.0</ele><time>2026-03-28T08:34:59.572Z</time></trkpt><trkpt lat="45.4850418" lon="10.4675702"><ele>169.8</ele><time>2026-03-28T08:35:00.571Z</time></trkpt><trkpt lat="45.4850274" lon="10.4674101"><ele>169.6</ele><time>2026-03-28T08:35:01.571Z</time></trkpt><trkpt lat="45.4850113" lon="10.4672478"><ele>169.39999999999998</ele><time>2026-03-28T08:35:02.572Z</time></trkpt><trkpt lat="45.4849955" lon="10.4670949"><ele>169.2</ele><time>2026-03-28T08:35:03.572Z</time></trkpt><trkpt lat="45.4849723" lon="10.4669478"><ele>169.0</ele><time>2026-03-28T08:35:04.571Z</time></trkpt><trkpt lat="45.4849463" lon="10.4667949"><ele>169.0</ele><time>2026-03-28T08:35:05.571Z</time></trkpt><trkpt lat="45.4849211" lon="10.4666388"><ele>169.0</ele><time>2026-03-28T08:35:06.572Z</time></trkpt><trkpt lat="45.4848952" lon="10.4664767"><ele>169.0</ele><time>2026-03-28T08:35:07.572Z</time></trkpt><trkpt lat="45.4848778" lon="10.4663172"><ele>169.0</ele><time>2026-03-28T08:35:08.572Z</time></trkpt><trkpt lat="45.4848646" lon="10.4661606"><ele>168.6</ele><time>2026-03-28T08:35:09.57Z</time></trkpt><trkpt lat="45.4848501" lon="10.4660001"><ele>168.2</ele><time>2026-03-28T08:35:10.572Z</time></trkpt><trkpt lat="45.4848343" lon="10.4658448"><ele>167.79999999999998</ele><time>2026-03-28T08:35:11.572Z</time></trkpt><trkpt lat="45.4848161" lon="10.4656922"><ele>167.39999999999998</ele><time>2026-03-28T08:35:12.571Z</time></trkpt><trkpt lat="45.4847979" lon="10.4655412"><ele>167.0</ele><time>2026-03-28T08:35:13.571Z</time></trkpt><trkpt lat="45.484779" lon="10.4653885"><ele>166.8</ele><time>2026-03-28T08:35:14.571Z</time></trkpt><trkpt lat="45.4847563" lon="10.4652367"><ele>166.6</ele><time>2026-03-28T08:35:15.571Z</time></trkpt><trkpt lat="45.4847334" lon="10.4650924"><ele>166.4</ele><time>2026-03-28T08:35:16.572Z</time></trkpt><trkpt lat="45.4847135" lon="10.4649498"><ele>166.20000000000002</ele><time>2026-03-28T08:35:17.572Z</time></trkpt><trkpt lat="45.4846942" lon="10.4648014"><ele>166.0</ele><time>2026-03-28T08:35:18.571Z</time></trkpt><trkpt lat="45.48468" lon="10.4646484"><ele>165.75</ele><time>2026-03-28T08:35:19.571Z</time></trkpt><trkpt lat="45.4846691" lon="10.4644932"><ele>165.5</ele><time>2026-03-28T08:35:20.571Z</time></trkpt><trkpt lat="45.4846505" lon="10.4643309"><ele>165.25</ele><time>2026-03-28T08:35:21.571Z</time></trkpt><trkpt lat="45.4846259" lon="10.464154"><ele>165.0</ele><time>2026-03-28T08:35:22.571Z</time></trkpt><trkpt lat="45.484604" lon="10.4639683"><ele>165.0</ele><time>2026-03-28T08:35:23.571Z</time></trkpt><trkpt lat="45.4845929" lon="10.46379"><ele>165.0</ele><time>2026-03-28T08:35:24.57Z</time></trkpt><trkpt lat="45.4845866" lon="10.4636243"><ele>165.0</ele><time>2026-03-28T08:35:25.571Z</time></trkpt><trkpt lat="45.4845847" lon="10.4634677"><ele>165.0</ele><time>2026-03-28T08:35:26.571Z</time></trkpt><trkpt lat="45.4845852" lon="10.4633063"><ele>164.75</ele><time>2026-03-28T08:35:27.572Z</time></trkpt><trkpt lat="45.4845907" lon="10.4631305"><ele>164.5</ele><time>2026-03-28T08:35:28.571Z</time></trkpt><trkpt lat="45.4846034" lon="10.4629447"><ele>164.25</ele><time>2026-03-28T08:35:29.571Z</time></trkpt><trkpt lat="45.4846122" lon="10.4627549"><ele>164.0</ele><time>2026-03-28T08:35:30.572Z</time></trkpt><trkpt lat="45.484613" lon="10.4625851"><ele>164.0</ele><time>2026-03-28T08:35:31.572Z</time></trkpt><trkpt lat="45.4846183" lon="10.462433"><ele>164.0</ele><time>2026-03-28T08:35:32.572Z</time></trkpt><trkpt lat="45.4846271" lon="10.462289"><ele>164.0</ele><time>2026-03-28T08:35:33.572Z</time></trkpt><trkpt lat="45.4846407" lon="10.4621484"><ele>164.0</ele><time>2026-03-28T08:35:34.571Z</time></trkpt><trkpt lat="45.4846544" lon="10.4619918"><ele>164.0</ele><time>2026-03-28T08:35:35.571Z</time></trkpt><trkpt lat="45.4846663" lon="10.4618314"><ele>163.83333333333331</ele><time>2026-03-28T08:35:36.571Z</time></trkpt><trkpt lat="45.4846765" lon="10.4616847"><ele>163.66666666666666</ele><time>2026-03-28T08:35:37.57Z</time></trkpt><trkpt lat="45.4846793" lon="10.4615527"><ele>163.5</ele><time>2026-03-28T08:35:38.572Z</time></trkpt><trkpt lat="45.4846781" lon="10.4614493"><ele>163.33333333333334</ele><time>2026-03-28T08:35:39.571Z</time></trkpt><trkpt lat="45.4846793" lon="10.4613256"><ele>163.16666666666669</ele><time>2026-03-28T08:35:41.571Z</time></trkpt><trkpt lat="45.4846766" lon="10.4612349"><ele>163.0</ele><time>2026-03-28T08:35:44.571Z</time></trkpt><trkpt lat="45.4846156" lon="10.461295"><ele>163.0</ele><time>2026-03-28T08:35:51.572Z</time></trkpt><trkpt lat="45.4846403" lon="10.461485"><ele>163.0</ele><time>2026-03-28T08:35:53.572Z</time></trkpt><trkpt lat="45.4846545" lon="10.4615969"><ele>163.0</ele><time>2026-03-28T08:35:54.571Z</time></trkpt><trkpt lat="45.4846635" lon="10.4616948"><ele>163.0</ele><time>2026-03-28T08:35:55.571Z</time></trkpt><trkpt lat="45.4846624" lon="10.4618298"><ele>163.0</ele><time>2026-03-28T08:35:56.571Z</time></trkpt><trkpt lat="45.4846491" lon="10.4620314"><ele>163.33333333333334</ele><time>2026-03-28T08:35:57.572Z</time></trkpt><trkpt lat="45.4846329" lon="10.4622755"><ele>163.66666666666666</ele><time>2026-03-28T08:35:58.572Z</time></trkpt><trkpt lat="45.4846192" lon="10.4625038"><ele>164.0</ele><time>2026-03-28T08:35:59.571Z</time></trkpt><trkpt lat="45.4846112" lon="10.4626969"><ele>164.0</ele><time>2026-03-28T08:36:00.571Z</time></trkpt><trkpt lat="45.4846068" lon="10.462856"><ele>164.0</ele><time>2026-03-28T08:36:01.571Z</time></trkpt><trkpt lat="45.4846026" lon="10.4629765"><ele>164.0</ele><time>2026-03-28T08:36:02.571Z</time></trkpt><trkpt lat="45.4845708" lon="10.4630913"><ele>164.0</ele><time>2026-03-28T08:36:04.571Z</time></trkpt><trkpt lat="45.4845014" lon="10.463065"><ele>164.0</ele><time>2026-03-28T08:36:06.571Z</time></trkpt><trkpt lat="45.4844455" lon="10.4630067"><ele>164.0</ele><time>2026-03-28T08:36:07.571Z</time></trkpt><trkpt lat="45.4843836" lon="10.4628933"><ele>163.75</ele><time>2026-03-28T08:36:08.571Z</time></trkpt><trkpt lat="45.4843298" lon="10.4627334"><ele>163.5</ele><time>2026-03-28T08:36:09.572Z</time></trkpt><trkpt lat="45.4842906" lon="10.4625691"><ele>163.25</ele><time>2026-03-28T08:36:10.571Z</time></trkpt><trkpt lat="45.4842458" lon="10.4624257"><ele>163.0</ele><time>2026-03-28T08:36:11.571Z</time></trkpt><trkpt lat="45.4841768" lon="10.4622757"><ele>163.0</ele><time>2026-03-28T08:36:12.572Z</time></trkpt><trkpt lat="45.4841029" lon="10.4621337"><ele>163.0</ele><time>2026-03-28T08:36:13.571Z</time></trkpt><trkpt lat="45.4840415" lon="10.4620087"><ele>163.0</ele><time>2026-03-28T08:36:14.572Z</time></trkpt><trkpt lat="45.4839925" lon="10.4619041"><ele>163.0</ele><time>2026-03-28T08:36:15.572Z</time></trkpt><trkpt lat="45.4839526" lon="10.461817"><ele>163.0</ele><time>2026-03-28T08:36:16.571Z</time></trkpt><trkpt lat="45.4839333" lon="10.461716"><ele>163.0</ele><time>2026-03-28T08:36:17.571Z</time></trkpt><trkpt lat="45.4839239" lon="10.4616105"><ele>163.0</ele><time>2026-03-28T08:36:18.571Z</time></trkpt><trkpt lat="45.4839391" lon="10.4614163"><ele>163.0</ele><time>2026-03-28T08:36:19.572Z</time></trkpt><trkpt lat="45.4839404" lon="10.4611502"><ele>163.0</ele><time>2026-03-28T08:36:20.571Z</time></trkpt><trkpt lat="45.483941" lon="10.4608886"><ele>163.0</ele><time>2026-03-28T08:36:21.571Z</time></trkpt><trkpt lat="45.4839391" lon="10.4606551"><ele>163.0</ele><time>2026-03-28T08:36:22.572Z</time></trkpt><trkpt lat="45.4839245" lon="10.4604296"><ele>163.0</ele><time>2026-03-28T08:36:23.571Z</time></trkpt><trkpt lat="45.4838966" lon="10.4601851"><ele>162.66666666666669</ele><time>2026-03-28T08:36:24.572Z</time></trkpt><trkpt lat="45.4838627" lon="10.4599264"><ele>162.33333333333334</ele><time>2026-03-28T08:36:25.57Z</time></trkpt><trkpt lat="45.4838287" lon="10.4597138"><ele>162.0</ele><time>2026-03-28T08:36:26.572Z</time></trkpt><trkpt lat="45.4838036" lon="10.4595527"><ele>161.8</ele><time>2026-03-28T08:36:27.571Z</time></trkpt><trkpt lat="45.4837893" lon="10.4594254"><ele>161.6</ele><time>2026-03-28T08:36:28.571Z</time></trkpt><trkpt lat="45.4837971" lon="10.4593267"><ele>161.4</ele><time>2026-03-28T08:36:29.571Z</time></trkpt><trkpt lat="45.4838424" lon="10.459239"><ele>161.20000000000002</ele><time>2026-03-28T08:36:30.571Z</time></trkpt><trkpt lat="45.4839181" lon="10.4591215"><ele>161.0</ele><time>2026-03-28T08:36:31.571Z</time></trkpt><trkpt lat="45.4840177" lon="10.4589654"><ele>161.0</ele><time>2026-03-28T08:36:32.572Z</time></trkpt><trkpt lat="45.4841249" lon="10.4587987"><ele>161.0</ele><time>2026-03-28T08:36:33.572Z</time></trkpt><trkpt lat="45.4842319" lon="10.4586335"><ele>161.0</ele><time>2026-03-28T08:36:34.571Z</time></trkpt><trkpt lat="45.4843363" lon="10.4584847"><ele>160.4</ele><time>2026-03-28T08:36:35.571Z</time></trkpt><trkpt lat="45.4844209" lon="10.4583541"><ele>159.8</ele><time>2026-03-28T08:36:36.572Z</time></trkpt><trkpt lat="45.4844839" lon="10.4582269"><ele>159.20000000000002</ele><time>2026-03-28T08:36:37.572Z</time></trkpt><trkpt lat="45.484525" lon="10.4581021"><ele>158.60000000000002</ele><time>2026-03-28T08:36:38.572Z</time></trkpt><trkpt lat="45.4845494" lon="10.4579635"><ele>158.0</ele><time>2026-03-28T08:36:39.571Z</time></trkpt><trkpt lat="45.4845563" lon="10.4577978"><ele>157.66666666666666</ele><time>2026-03-28T08:36:40.57Z</time></trkpt><trkpt lat="45.48456" lon="10.4575972"><ele>157.33333333333334</ele><time>2026-03-28T08:36:41.571Z</time></trkpt><trkpt lat="45.4845674" lon="10.4573932"><ele>157.0</ele><time>2026-03-28T08:36:42.572Z</time></trkpt><trkpt lat="45.4845701" lon="10.4571436"><ele>157.33333333333334</ele><time>2026-03-28T08:36:43.572Z</time></trkpt><trkpt lat="45.4845722" lon="10.4568836"><ele>157.66666666666666</ele><time>2026-03-28T08:36:44.571Z</time></trkpt><trkpt lat="45.4845711" lon="10.4566302"><ele>158.0</ele><time>2026-03-28T08:36:45.57Z</time></trkpt><trkpt lat="45.4845724" lon="10.456366"><ele>157.66666666666666</ele><time>2026-03-28T08:36:46.571Z</time></trkpt><trkpt lat="45.4845681" lon="10.4560903"><ele>157.33333333333334</ele><time>2026-03-28T08:36:47.571Z</time></trkpt><trkpt lat="45.484564" lon="10.4558441"><ele>157.0</ele><time>2026-03-28T08:36:48.571Z</time></trkpt><trkpt lat="45.4845638" lon="10.4556066"><ele>156.66666666666669</ele><time>2026-03-28T08:36:49.572Z</time></trkpt><trkpt lat="45.4845682" lon="10.4553849"><ele>156.33333333333334</ele><time>2026-03-28T08:36:50.572Z</time></trkpt><trkpt lat="45.4845693" lon="10.4551543"><ele>156.0</ele><time>2026-03-28T08:36:51.572Z</time></trkpt><trkpt lat="45.4845695" lon="10.4549337"><ele>156.0</ele><time>2026-03-28T08:36:52.572Z</time></trkpt><trkpt lat="45.4845728" lon="10.4547454"><ele>156.0</ele><time>2026-03-28T08:36:53.572Z</time></trkpt><trkpt lat="45.4845753" lon="10.4545798"><ele>156.0</ele><time>2026-03-28T08:36:54.572Z</time></trkpt><trkpt lat="45.4845792" lon="10.4544247"><ele>156.0</ele><time>2026-03-28T08:36:55.571Z</time></trkpt><trkpt lat="45.4845871" lon="10.4542856"><ele>155.83333333333334</ele><time>2026-03-28T08:36:56.571Z</time></trkpt><trkpt lat="45.4845875" lon="10.4541743"><ele>155.66666666666666</ele><time>2026-03-28T08:36:57.57Z</time></trkpt><trkpt lat="45.4845651" lon="10.4540197"><ele>155.5</ele><time>2026-03-28T08:36:59.571Z</time></trkpt><trkpt lat="45.4845021" lon="10.4539517"><ele>155.33333333333331</ele><time>2026-03-28T08:37:01.571Z</time></trkpt><trkpt lat="45.4844039" lon="10.4539513"><ele>155.16666666666666</ele><time>2026-03-28T08:37:03.572Z</time></trkpt><trkpt lat="45.4843376" lon="10.4539349"><ele>155.0</ele><time>2026-03-28T08:37:04.571Z</time></trkpt><trkpt lat="45.4842629" lon="10.4539221"><ele>155.0</ele><time>2026-03-28T08:37:05.571Z</time></trkpt><trkpt lat="45.4841817" lon="10.4539101"><ele>155.0</ele><time>2026-03-28T08:37:06.571Z</time></trkpt><trkpt lat="45.4840953" lon="10.4538979"><ele>155.0</ele><time>2026-03-28T08:37:07.571Z</time></trkpt><trkpt lat="45.4840005" lon="10.4538787"><ele>155.0</ele><time>2026-03-28T08:37:08.572Z</time></trkpt><trkpt lat="45.4839016" lon="10.4538606"><ele>155.0</ele><time>2026-03-28T08:37:09.572Z</time></trkpt><trkpt lat="45.4837939" lon="10.4538428"><ele>154.75</ele><time>2026-03-28T08:37:10.571Z</time></trkpt><trkpt lat="45.4836773" lon="10.4538234"><ele>154.5</ele><time>2026-03-28T08:37:11.571Z</time></trkpt><trkpt lat="45.4835582" lon="10.4538042"><ele>154.25</ele><time>2026-03-28T08:37:12.572Z</time></trkpt><trkpt lat="45.483433" lon="10.4537862"><ele>154.0</ele><time>2026-03-28T08:37:13.571Z</time></trkpt><trkpt lat="45.4833052" lon="10.4537672"><ele>153.75</ele><time>2026-03-28T08:37:14.571Z</time></trkpt><trkpt lat="45.4831821" lon="10.4537497"><ele>153.5</ele><time>2026-03-28T08:37:15.571Z</time></trkpt><trkpt lat="45.4830605" lon="10.4537331"><ele>153.25</ele><time>2026-03-28T08:37:16.571Z</time></trkpt><trkpt lat="45.4829366" lon="10.4537191"><ele>153.0</ele><time>2026-03-28T08:37:17.572Z</time></trkpt><trkpt lat="45.4828091" lon="10.4536982"><ele>152.75</ele><time>2026-03-28T08:37:18.572Z</time></trkpt><trkpt lat="45.4826776" lon="10.4536754"><ele>152.5</ele><time>2026-03-28T08:37:19.571Z</time></trkpt><trkpt lat="45.4825458" lon="10.4536514"><ele>152.25</ele><time>2026-03-28T08:37:20.571Z</time></trkpt><trkpt lat="45.482411" lon="10.4536299"><ele>152.0</ele><time>2026-03-28T08:37:21.571Z</time></trkpt><trkpt lat="45.4822736" lon="10.4536191"><ele>152.0</ele><time>2026-03-28T08:37:22.571Z</time></trkpt><trkpt lat="45.4821452" lon="10.4536056"><ele>152.0</ele><time>2026-03-28T08:37:23.572Z</time></trkpt><trkpt lat="45.4820075" lon="10.4535903"><ele>152.0</ele><time>2026-03-28T08:37:24.571Z</time></trkpt><trkpt lat="45.4818654" lon="10.4535718"><ele>152.0</ele><time>2026-03-28T08:37:25.571Z</time></trkpt><trkpt lat="45.4817224" lon="10.4535469"><ele>152.0</ele><time>2026-03-28T08:37:26.572Z</time></trkpt><trkpt lat="45.4815774" lon="10.453522"><ele>152.0</ele><time>2026-03-28T08:37:27.57Z</time></trkpt><trkpt lat="45.481427" lon="10.4534979"><ele>152.0</ele><time>2026-03-28T08:37:28.572Z</time></trkpt><trkpt lat="45.4812766" lon="10.4534749"><ele>152.0</ele><time>2026-03-28T08:37:29.571Z</time></trkpt><trkpt lat="45.4811181" lon="10.4534546"><ele>151.66666666666666</ele><time>2026-03-28T08:37:30.571Z</time></trkpt><trkpt lat="45.4809484" lon="10.4534303"><ele>151.33333333333334</ele><time>2026-03-28T08:37:31.57Z</time></trkpt><trkpt lat="45.480795" lon="10.4534073"><ele>151.0</ele><time>2026-03-28T08:37:32.571Z</time></trkpt><trkpt lat="45.4806496" lon="10.4533872"><ele>151.0</ele><time>2026-03-28T08:37:33.571Z</time></trkpt><trkpt lat="45.4805152" lon="10.453363"><ele>151.0</ele><time>2026-03-28T08:37:34.571Z</time></trkpt><trkpt lat="45.4803918" lon="10.4533407"><ele>151.0</ele><time>2026-03-28T08:37:35.571Z</time></trkpt><trkpt lat="45.4802782" lon="10.4533245"><ele>151.0</ele><time>2026-03-28T08:37:36.571Z</time></trkpt><trkpt lat="45.4801762" lon="10.4533264"><ele>151.2</ele><time>2026-03-28T08:37:37.572Z</time></trkpt><trkpt lat="45.4800824" lon="10.4533244"><ele>151.39999999999998</ele><time>2026-03-28T08:37:38.571Z</time></trkpt><trkpt lat="45.4799914" lon="10.4533283"><ele>151.6</ele><time>2026-03-28T08:37:39.572Z</time></trkpt><trkpt lat="45.4798931" lon="10.4533703"><ele>151.79999999999998</ele><time>2026-03-28T08:37:40.572Z</time></trkpt><trkpt lat="45.4797824" lon="10.4534436"><ele>152.0</ele><time>2026-03-28T08:37:41.571Z</time></trkpt><trkpt lat="45.4796474" lon="10.4535627"><ele>151.66666666666666</ele><time>2026-03-28T08:37:42.571Z</time></trkpt><trkpt lat="45.4794751" lon="10.4537133"><ele>151.33333333333334</ele><time>2026-03-28T08:37:43.57Z</time></trkpt><trkpt lat="45.4792897" lon="10.4539016"><ele>151.0</ele><time>2026-03-28T08:37:44.571Z</time></trkpt><trkpt lat="45.4790893" lon="10.4541254"><ele>151.0</ele><time>2026-03-28T08:37:45.571Z</time></trkpt><trkpt lat="45.4788979" lon="10.4543565"><ele>151.0</ele><time>2026-03-28T08:37:46.571Z</time></trkpt><trkpt lat="45.4787269" lon="10.4545683"><ele>151.0</ele><time>2026-03-28T08:37:47.571Z</time></trkpt><trkpt lat="45.478565" lon="10.4547688"><ele>151.0</ele><time>2026-03-28T08:37:48.571Z</time></trkpt><trkpt lat="45.4784166" lon="10.4549526"><ele>151.0</ele><time>2026-03-28T08:37:49.571Z</time></trkpt><trkpt lat="45.4782777" lon="10.4551256"><ele>151.0</ele><time>2026-03-28T08:37:50.571Z</time></trkpt><trkpt lat="45.4781495" lon="10.4552837"><ele>151.0</ele><time>2026-03-28T08:37:51.572Z</time></trkpt><trkpt lat="45.4780301" lon="10.4554275"><ele>151.0</ele><time>2026-03-28T08:37:52.572Z</time></trkpt><trkpt lat="45.4779222" lon="10.4555626"><ele>151.75</ele><time>2026-03-28T08:37:53.572Z</time></trkpt><trkpt lat="45.4778223" lon="10.4556877"><ele>152.5</ele><time>2026-03-28T08:37:54.571Z</time></trkpt><trkpt lat="45.4777285" lon="10.4557996"><ele>153.25</ele><time>2026-03-28T08:37:55.571Z</time></trkpt><trkpt lat="45.4776428" lon="10.4559065"><ele>154.0</ele><time>2026-03-28T08:37:56.572Z</time></trkpt><trkpt lat="45.4775642" lon="10.455995"><ele>154.0</ele><time>2026-03-28T08:37:57.572Z</time></trkpt><trkpt lat="45.4774978" lon="10.4560653"><ele>154.0</ele><time>2026-03-28T08:37:58.571Z</time></trkpt><trkpt lat="45.4774478" lon="10.456126"><ele>154.0</ele><time>2026-03-28T08:37:59.572Z</time></trkpt><trkpt lat="45.4774057" lon="10.4561955"><ele>154.0</ele><time>2026-03-28T08:38:00.572Z</time></trkpt><trkpt lat="45.4773659" lon="10.4562801"><ele>154.0</ele><time>2026-03-28T08:38:01.57Z</time></trkpt><trkpt lat="45.4773263" lon="10.4563798"><ele>154.0</ele><time>2026-03-28T08:38:02.57Z</time></trkpt><trkpt lat="45.4772906" lon="10.4564924"><ele>153.8</ele><time>2026-03-28T08:38:03.571Z</time></trkpt><trkpt lat="45.4772581" lon="10.4566223"><ele>153.60000000000002</ele><time>2026-03-28T08:38:04.572Z</time></trkpt><trkpt lat="45.4772242" lon="10.4567591"><ele>153.4</ele><time>2026-03-28T08:38:05.571Z</time></trkpt><trkpt lat="45.4771911" lon="10.4569073"><ele>153.20000000000002</ele><time>2026-03-28T08:38:06.571Z</time></trkpt><trkpt lat="45.4771558" lon="10.457066"><ele>153.0</ele><time>2026-03-28T08:38:07.572Z</time></trkpt><trkpt lat="45.4771208" lon="10.457231"><ele>153.5</ele><time>2026-03-28T08:38:08.572Z</time></trkpt><trkpt lat="45.4770912" lon="10.4574036"><ele>154.0</ele><time>2026-03-28T08:38:09.571Z</time></trkpt><trkpt lat="45.4770623" lon="10.4575836"><ele>154.5</ele><time>2026-03-28T08:38:10.571Z</time></trkpt><trkpt lat="45.4770325" lon="10.4577669"><ele>155.0</ele><time>2026-03-28T08:38:11.571Z</time></trkpt><trkpt lat="45.4769982" lon="10.4579472"><ele>155.0</ele><time>2026-03-28T08:38:12.572Z</time></trkpt><trkpt lat="45.4769636" lon="10.4581177"><ele>155.0</ele><time>2026-03-28T08:38:13.572Z</time></trkpt><trkpt lat="45.4769295" lon="10.4582843"><ele>155.0</ele><time>2026-03-28T08:38:14.572Z</time></trkpt><trkpt lat="45.4768987" lon="10.4584508"><ele>155.0</ele><time>2026-03-28T08:38:15.571Z</time></trkpt><trkpt lat="45.4768691" lon="10.4586134"><ele>155.0</ele><time>2026-03-28T08:38:16.571Z</time></trkpt><trkpt lat="45.4768383" lon="10.4587721"><ele>155.0</ele><time>2026-03-28T08:38:17.572Z</time></trkpt><trkpt lat="45.4768063" lon="10.4589245"><ele>155.0</ele><time>2026-03-28T08:38:18.572Z</time></trkpt><trkpt lat="45.4767757" lon="10.4590601"><ele>155.0</ele><time>2026-03-28T08:38:19.571Z</time></trkpt><trkpt lat="45.4767529" lon="10.459178"><ele>155.0</ele><time>2026-03-28T08:38:20.571Z</time></trkpt><trkpt lat="45.4767194" lon="10.4592744"><ele>155.0</ele><time>2026-03-28T08:38:21.571Z</time></trkpt><trkpt lat="45.476679" lon="10.4593588"><ele>155.0</ele><time>2026-03-28T08:38:22.571Z</time></trkpt><trkpt lat="45.4766289" lon="10.4594211"><ele>155.0</ele><time>2026-03-28T08:38:23.572Z</time></trkpt><trkpt lat="45.4765699" lon="10.4594537"><ele>155.0</ele><time>2026-03-28T08:38:24.572Z</time></trkpt><trkpt lat="45.4764765" lon="10.4594969"><ele>155.0</ele><time>2026-03-28T08:38:26.572Z</time></trkpt><trkpt lat="45.476408" lon="10.459537"><ele>155.0</ele><time>2026-03-28T08:38:28.57Z</time></trkpt><trkpt lat="45.4763277" lon="10.4595958"><ele>155.0</ele><time>2026-03-28T08:38:31.571Z</time></trkpt><trkpt lat="45.4762775" lon="10.4596561"><ele>155.0</ele><time>2026-03-28T08:38:33.572Z</time></trkpt><trkpt lat="45.4761946" lon="10.4597135"><ele>155.0</ele><time>2026-03-28T08:38:35.57Z</time></trkpt><trkpt lat="45.4760904" lon="10.4597988"><ele>155.0</ele><time>2026-03-28T08:38:37.571Z</time></trkpt><trkpt lat="45.4760279" lon="10.4598483"><ele>155.0</ele><time>2026-03-28T08:38:38.57Z</time></trkpt><trkpt lat="45.4759623" lon="10.4599099"><ele>155.0</ele><time>2026-03-28T08:38:39.571Z</time></trkpt><trkpt lat="45.4758893" lon="10.459971"><ele>155.0</ele><time>2026-03-28T08:38:40.571Z</time></trkpt><trkpt lat="45.4758106" lon="10.4600363"><ele>155.0</ele><time>2026-03-28T08:38:41.572Z</time></trkpt><trkpt lat="45.4757291" lon="10.4601061"><ele>155.0</ele><time>2026-03-28T08:38:42.571Z</time></trkpt><trkpt lat="45.4756437" lon="10.4601795"><ele>155.0</ele><time>2026-03-28T08:38:43.571Z</time></trkpt><trkpt lat="45.4755562" lon="10.4602567"><ele>155.0</ele><time>2026-03-28T08:38:44.571Z</time></trkpt><trkpt lat="45.4754665" lon="10.4603276"><ele>154.6</ele><time>2026-03-28T08:38:45.572Z</time></trkpt><trkpt lat="45.4753757" lon="10.4603864"><ele>154.2</ele><time>2026-03-28T08:38:46.571Z</time></trkpt><trkpt lat="45.4752853" lon="10.4604408"><ele>153.8</ele><time>2026-03-28T08:38:47.572Z</time></trkpt><trkpt lat="45.4751937" lon="10.4604896"><ele>153.4</ele><time>2026-03-28T08:38:48.571Z</time></trkpt><trkpt lat="45.475102" lon="10.4605353"><ele>153.0</ele><time>2026-03-28T08:38:49.571Z</time></trkpt><trkpt lat="45.4750089" lon="10.4605764"><ele>152.8</ele><time>2026-03-28T08:38:50.571Z</time></trkpt><trkpt lat="45.4749163" lon="10.4606241"><ele>152.60000000000002</ele><time>2026-03-28T08:38:51.572Z</time></trkpt><trkpt lat="45.4748283" lon="10.4606878"><ele>152.39999999999998</ele><time>2026-03-28T08:38:52.571Z</time></trkpt><trkpt lat="45.4747435" lon="10.4607582"><ele>152.2</ele><time>2026-03-28T08:38:53.572Z</time></trkpt><trkpt lat="45.4746574" lon="10.4608246"><ele>152.0</ele><time>2026-03-28T08:38:54.57Z</time></trkpt><trkpt lat="45.4745676" lon="10.4608969"><ele>152.4</ele><time>2026-03-28T08:38:55.571Z</time></trkpt><trkpt lat="45.4744779" lon="10.4609686"><ele>152.79999999999998</ele><time>2026-03-28T08:38:56.571Z</time></trkpt><trkpt lat="45.4743956" lon="10.4610335"><ele>153.2</ele><time>2026-03-28T08:38:57.571Z</time></trkpt><trkpt lat="45.4743172" lon="10.4610996"><ele>153.6</ele><time>2026-03-28T08:38:58.571Z</time></trkpt><trkpt lat="45.4742358" lon="10.4611835"><ele>154.0</ele><time>2026-03-28T08:38:59.57Z</time></trkpt><trkpt lat="45.4741566" lon="10.4612765"><ele>154.0</ele><time>2026-03-28T08:39:00.571Z</time></trkpt><trkpt lat="45.4740744" lon="10.4613786"><ele>154.0</ele><time>2026-03-28T08:39:01.571Z</time></trkpt><trkpt lat="45.4739903" lon="10.4614917"><ele>154.0</ele><time>2026-03-28T08:39:02.571Z</time></trkpt><trkpt lat="45.4739015" lon="10.4616082"><ele>154.0</ele><time>2026-03-28T08:39:03.57Z</time></trkpt><trkpt lat="45.4738095" lon="10.4617227"><ele>153.75</ele><time>2026-03-28T08:39:04.57Z</time></trkpt><trkpt lat="45.4737138" lon="10.4618325"><ele>153.5</ele><time>2026-03-28T08:39:05.572Z</time></trkpt><trkpt lat="45.4736128" lon="10.4619349"><ele>153.25</ele><time>2026-03-28T08:39:06.572Z</time></trkpt><trkpt lat="45.4735039" lon="10.4620236"><ele>153.0</ele><time>2026-03-28T08:39:07.571Z</time></trkpt><trkpt lat="45.4733901" lon="10.4621139"><ele>152.75</ele><time>2026-03-28T08:39:08.572Z</time></trkpt><trkpt lat="45.4732734" lon="10.4622166"><ele>152.5</ele><time>2026-03-28T08:39:09.572Z</time></trkpt><trkpt lat="45.4731562" lon="10.4623268"><ele>152.25</ele><time>2026-03-28T08:39:10.571Z</time></trkpt><trkpt lat="45.4730363" lon="10.4624474"><ele>152.0</ele><time>2026-03-28T08:39:11.572Z</time></trkpt><trkpt lat="45.4729195" lon="10.4625715"><ele>152.0</ele><time>2026-03-28T08:39:12.572Z</time></trkpt><trkpt lat="45.4727918" lon="10.4626941"><ele>152.0</ele><time>2026-03-28T08:39:13.571Z</time></trkpt><trkpt lat="45.4726631" lon="10.4628171"><ele>152.0</ele><time>2026-03-28T08:39:14.57Z</time></trkpt><trkpt lat="45.4725342" lon="10.4629461"><ele>152.66666666666666</ele><time>2026-03-28T08:39:15.571Z</time></trkpt><trkpt lat="45.4724088" lon="10.4630829"><ele>153.33333333333334</ele><time>2026-03-28T08:39:16.571Z</time></trkpt><trkpt lat="45.4722879" lon="10.4632265"><ele>154.0</ele><time>2026-03-28T08:39:17.572Z</time></trkpt><trkpt lat="45.4721595" lon="10.4633666"><ele>153.66666666666669</ele><time>2026-03-28T08:39:18.572Z</time></trkpt><trkpt lat="45.472023" lon="10.4634958"><ele>153.33333333333334</ele><time>2026-03-28T08:39:19.572Z</time></trkpt><trkpt lat="45.4718782" lon="10.4636116"><ele>153.0</ele><time>2026-03-28T08:39:20.572Z</time></trkpt><trkpt lat="45.4717322" lon="10.4637061"><ele>153.0</ele><time>2026-03-28T08:39:21.571Z</time></trkpt><trkpt lat="45.4715853" lon="10.4637857"><ele>153.0</ele><time>2026-03-28T08:39:22.572Z</time></trkpt><trkpt lat="45.47144" lon="10.4638666"><ele>153.0</ele><time>2026-03-28T08:39:23.572Z</time></trkpt><trkpt lat="45.4713032" lon="10.463961"><ele>152.66666666666666</ele><time>2026-03-28T08:39:24.572Z</time></trkpt><trkpt lat="45.471174" lon="10.4640815"><ele>152.33333333333331</ele><time>2026-03-28T08:39:25.571Z</time></trkpt><trkpt lat="45.4710482" lon="10.4642205"><ele>152.0</ele><time>2026-03-28T08:39:26.572Z</time></trkpt><trkpt lat="45.4709309" lon="10.4643977"><ele>152.0</ele><time>2026-03-28T08:39:27.572Z</time></trkpt><trkpt lat="45.470819" lon="10.46458"><ele>152.0</ele><time>2026-03-28T08:39:28.572Z</time></trkpt><trkpt lat="45.4707148" lon="10.4647556"><ele>152.0</ele><time>2026-03-28T08:39:29.571Z</time></trkpt><trkpt lat="45.4706198" lon="10.4649143"><ele>152.0</ele><time>2026-03-28T08:39:30.572Z</time></trkpt><trkpt lat="45.4705284" lon="10.4650702"><ele>152.0</ele><time>2026-03-28T08:39:31.572Z</time></trkpt><trkpt lat="45.4704332" lon="10.4652229"><ele>152.0</ele><time>2026-03-28T08:39:32.571Z</time></trkpt><trkpt lat="45.4703278" lon="10.4653693"><ele>152.0</ele><time>2026-03-28T08:39:33.571Z</time></trkpt><trkpt lat="45.4702104" lon="10.4655105"><ele>152.0</ele><time>2026-03-28T08:39:34.572Z</time></trkpt><trkpt lat="45.4700859" lon="10.465651"><ele>152.0</ele><time>2026-03-28T08:39:35.572Z</time></trkpt><trkpt lat="45.4699689" lon="10.4657917"><ele>152.0</ele><time>2026-03-28T08:39:36.571Z</time></trkpt><trkpt lat="45.4698657" lon="10.4659257"><ele>152.0</ele><time>2026-03-28T08:39:37.57Z</time></trkpt><trkpt lat="45.4697855" lon="10.4660615"><ele>152.0</ele><time>2026-03-28T08:39:38.572Z</time></trkpt><trkpt lat="45.4697242" lon="10.4662162"><ele>152.0</ele><time>2026-03-28T08:39:39.571Z</time></trkpt><trkpt lat="45.4696733" lon="10.4663883"><ele>152.0</ele><time>2026-03-28T08:39:40.572Z</time></trkpt><trkpt lat="45.4696208" lon="10.4665696"><ele>152.5</ele><time>2026-03-28T08:39:41.571Z</time></trkpt><trkpt lat="45.4695723" lon="10.4667562"><ele>153.0</ele><time>2026-03-28T08:39:42.572Z</time></trkpt><trkpt lat="45.469535" lon="10.4669389"><ele>153.5</ele><time>2026-03-28T08:39:43.571Z</time></trkpt><trkpt lat="45.4695048" lon="10.4671174"><ele>154.0</ele><time>2026-03-28T08:39:44.571Z</time></trkpt><trkpt lat="45.4694694" lon="10.4672891"><ele>154.0</ele><time>2026-03-28T08:39:45.571Z</time></trkpt><trkpt lat="45.4694162" lon="10.4674562"><ele>154.0</ele><time>2026-03-28T08:39:46.571Z</time></trkpt><trkpt lat="45.4693534" lon="10.4676137"><ele>154.0</ele><time>2026-03-28T08:39:47.571Z</time></trkpt><trkpt lat="45.4692761" lon="10.467757"><ele>154.0</ele><time>2026-03-28T08:39:48.571Z</time></trkpt><trkpt lat="45.4691843" lon="10.4678856"><ele>154.0</ele><time>2026-03-28T08:39:49.571Z</time></trkpt><trkpt lat="45.4690801" lon="10.4679963"><ele>154.0</ele><time>2026-03-28T08:39:50.571Z</time></trkpt><trkpt lat="45.4689583" lon="10.4680825"><ele>154.0</ele><time>2026-03-28T08:39:51.572Z</time></trkpt><trkpt lat="45.4688291" lon="10.4681546"><ele>154.0</ele><time>2026-03-28T08:39:52.571Z</time></trkpt><trkpt lat="45.4686951" lon="10.468227"><ele>154.0</ele><time>2026-03-28T08:39:53.571Z</time></trkpt><trkpt lat="45.4685642" lon="10.468286"><ele>154.0</ele><time>2026-03-28T08:39:54.571Z</time></trkpt><trkpt lat="45.4684383" lon="10.4683279"><ele>154.0</ele><time>2026-03-28T08:39:55.573Z</time></trkpt><trkpt lat="45.4683179" lon="10.4683592"><ele>154.0</ele><time>2026-03-28T08:39:56.572Z</time></trkpt><trkpt lat="45.4682105" lon="10.4683838"><ele>154.0</ele><time>2026-03-28T08:39:57.572Z</time></trkpt><trkpt lat="45.4681159" lon="10.468404"><ele>154.0</ele><time>2026-03-28T08:39:58.572Z</time></trkpt><trkpt lat="45.4680318" lon="10.468414"><ele>154.0</ele><time>2026-03-28T08:39:59.572Z</time></trkpt><trkpt lat="45.4679573" lon="10.4684188"><ele>154.0</ele><time>2026-03-28T08:40:00.572Z</time></trkpt><trkpt lat="45.467894" lon="10.4684584"><ele>154.0</ele><time>2026-03-28T08:40:01.573Z</time></trkpt><trkpt lat="45.4678579" lon="10.4685369"><ele>154.0</ele><time>2026-03-28T08:40:02.573Z</time></trkpt><trkpt lat="45.4678382" lon="10.4686289"><ele>154.0</ele><time>2026-03-28T08:40:03.572Z</time></trkpt><trkpt lat="45.4678293" lon="10.4687466"><ele>154.0</ele><time>2026-03-28T08:40:04.572Z</time></trkpt><trkpt lat="45.4678078" lon="10.4688865"><ele>154.0</ele><time>2026-03-28T08:40:05.571Z</time></trkpt><trkpt lat="45.4677888" lon="10.4690505"><ele>154.0</ele><time>2026-03-28T08:40:06.572Z</time></trkpt><trkpt lat="45.4677658" lon="10.4692363"><ele>154.0</ele><time>2026-03-28T08:40:07.571Z</time></trkpt><trkpt lat="45.4677435" lon="10.4694343"><ele>153.5</ele><time>2026-03-28T08:40:08.573Z</time></trkpt><trkpt lat="45.4677208" lon="10.4696377"><ele>153.0</ele><time>2026-03-28T08:40:09.573Z</time></trkpt><trkpt lat="45.4676953" lon="10.4698429"><ele>152.5</ele><time>2026-03-28T08:40:10.573Z</time></trkpt><trkpt lat="45.4676624" lon="10.4700293"><ele>152.0</ele><time>2026-03-28T08:40:11.571Z</time></trkpt><trkpt lat="45.4676263" lon="10.4702028"><ele>152.0</ele><time>2026-03-28T08:40:12.572Z</time></trkpt><trkpt lat="45.4675899" lon="10.4703758"><ele>152.0</ele><time>2026-03-28T08:40:13.572Z</time></trkpt><trkpt lat="45.4675506" lon="10.470546"><ele>152.0</ele><time>2026-03-28T08:40:14.572Z</time></trkpt><trkpt lat="45.4675106" lon="10.4707154"><ele>152.0</ele><time>2026-03-28T08:40:15.571Z</time></trkpt><trkpt lat="45.4674739" lon="10.4708863"><ele>152.25</ele><time>2026-03-28T08:40:16.571Z</time></trkpt><trkpt lat="45.4674414" lon="10.4710581"><ele>152.5</ele><time>2026-03-28T08:40:17.573Z</time></trkpt><trkpt lat="45.4674123" lon="10.4712325"><ele>152.75</ele><time>2026-03-28T08:40:18.573Z</time></trkpt><trkpt lat="45.4673821" lon="10.4714023"><ele>153.0</ele><time>2026-03-28T08:40:19.573Z</time></trkpt><trkpt lat="45.467354" lon="10.4715646"><ele>153.16666666666666</ele><time>2026-03-28T08:40:20.573Z</time></trkpt><trkpt lat="45.4673298" lon="10.4717166"><ele>153.33333333333334</ele><time>2026-03-28T08:40:21.572Z</time></trkpt><trkpt lat="45.4673044" lon="10.4718519"><ele>153.5</ele><time>2026-03-28T08:40:22.571Z</time></trkpt><trkpt lat="45.4672727" lon="10.4719674"><ele>153.66666666666669</ele><time>2026-03-28T08:40:23.572Z</time></trkpt><trkpt lat="45.4672277" lon="10.4720532"><ele>153.83333333333334</ele><time>2026-03-28T08:40:24.572Z</time></trkpt><trkpt lat="45.4671715" lon="10.4720999"><ele>154.0</ele><time>2026-03-28T08:40:25.572Z</time></trkpt><trkpt lat="45.4670457" lon="10.4720716"><ele>154.66666666666669</ele><time>2026-03-28T08:40:27.571Z</time></trkpt><trkpt lat="45.4669718" lon="10.472031"><ele>155.33333333333334</ele><time>2026-03-28T08:40:28.573Z</time></trkpt><trkpt lat="45.4668924" lon="10.4719835"><ele>156.0</ele><time>2026-03-28T08:40:29.572Z</time></trkpt><trkpt lat="45.4668167" lon="10.4719439"><ele>156.66666666666666</ele><time>2026-03-28T08:40:30.572Z</time></trkpt><trkpt lat="45.4667471" lon="10.4719097"><ele>157.33333333333331</ele><time>2026-03-28T08:40:31.573Z</time></trkpt><trkpt lat="45.4666854" lon="10.4718806"><ele>158.0</ele><time>2026-03-28T08:40:32.573Z</time></trkpt><trkpt lat="45.4665738" lon="10.4718371"><ele>158.0</ele><time>2026-03-28T08:40:34.572Z</time></trkpt><trkpt lat="45.466473" lon="10.4718519"><ele>158.0</ele><time>2026-03-28T08:40:36.571Z</time></trkpt><trkpt lat="45.4663849" lon="10.4719742"><ele>158.0</ele><time>2026-03-28T08:40:38.572Z</time></trkpt><trkpt lat="45.4663009" lon="10.472013"><ele>158.0</ele><time>2026-03-28T08:40:39.572Z</time></trkpt><trkpt lat="45.4661951" lon="10.4720634"><ele>158.0</ele><time>2026-03-28T08:40:40.571Z</time></trkpt><trkpt lat="45.4660681" lon="10.4721281"><ele>158.0</ele><time>2026-03-28T08:40:41.572Z</time></trkpt><trkpt lat="45.4659284" lon="10.4722032"><ele>158.0</ele><time>2026-03-28T08:40:42.572Z</time></trkpt><trkpt lat="45.4657924" lon="10.4722749"><ele>158.0</ele><time>2026-03-28T08:40:43.573Z</time></trkpt><trkpt lat="45.4656638" lon="10.4723356"><ele>158.0</ele><time>2026-03-28T08:40:44.573Z</time></trkpt><trkpt lat="45.4655322" lon="10.4723898"><ele>158.0</ele><time>2026-03-28T08:40:45.573Z</time></trkpt><trkpt lat="45.4653967" lon="10.4724403"><ele>158.0</ele><time>2026-03-28T08:40:46.573Z</time></trkpt><trkpt lat="45.4652538" lon="10.4724702"><ele>158.0</ele><time>2026-03-28T08:40:47.572Z</time></trkpt><trkpt lat="45.4651062" lon="10.4724911"><ele>158.0</ele><time>2026-03-28T08:40:48.572Z</time></trkpt><trkpt lat="45.4649655" lon="10.4724984"><ele>158.0</ele><time>2026-03-28T08:40:49.571Z</time></trkpt><trkpt lat="45.464833" lon="10.4724896"><ele>158.0</ele><time>2026-03-28T08:40:50.572Z</time></trkpt><trkpt lat="45.4646986" lon="10.4724721"><ele>158.0</ele><time>2026-03-28T08:40:51.573Z</time></trkpt><trkpt lat="45.4645576" lon="10.472451"><ele>158.0</ele><time>2026-03-28T08:40:52.571Z</time></trkpt><trkpt lat="45.4644139" lon="10.4724329"><ele>158.20000000000002</ele><time>2026-03-28T08:40:53.572Z</time></trkpt><trkpt lat="45.4642861" lon="10.4724188"><ele>158.4</ele><time>2026-03-28T08:40:54.573Z</time></trkpt><trkpt lat="45.4641703" lon="10.4724071"><ele>158.60000000000002</ele><time>2026-03-28T08:40:55.573Z</time></trkpt><trkpt lat="45.4640715" lon="10.4724016"><ele>158.8</ele><time>2026-03-28T08:40:56.573Z</time></trkpt><trkpt lat="45.4640057" lon="10.4724027"><ele>159.0</ele><time>2026-03-28T08:40:57.573Z</time></trkpt><trkpt lat="45.4639268" lon="10.4724102"><ele>159.0</ele><time>2026-03-28T08:41:00.572Z</time></trkpt><trkpt lat="45.4638684" lon="10.4725268"><ele>159.0</ele><time>2026-03-28T08:41:03.572Z</time></trkpt><trkpt lat="45.4638525" lon="10.4726208"><ele>159.0</ele><time>2026-03-28T08:41:04.571Z</time></trkpt><trkpt lat="45.4638325" lon="10.4727351"><ele>159.0</ele><time>2026-03-28T08:41:05.572Z</time></trkpt><trkpt lat="45.4638162" lon="10.472865"><ele>159.0</ele><time>2026-03-28T08:41:06.572Z</time></trkpt><trkpt lat="45.4637996" lon="10.473014"><ele>159.0</ele><time>2026-03-28T08:41:07.572Z</time></trkpt><trkpt lat="45.4637855" lon="10.4731763"><ele>159.25</ele><time>2026-03-28T08:41:08.571Z</time></trkpt><trkpt lat="45.4637687" lon="10.4733475"><ele>159.5</ele><time>2026-03-28T08:41:09.573Z</time></trkpt><trkpt lat="45.4637559" lon="10.4735308"><ele>159.75</ele><time>2026-03-28T08:41:10.572Z</time></trkpt><trkpt lat="45.463743" lon="10.4737203"><ele>160.0</ele><time>2026-03-28T08:41:11.573Z</time></trkpt><trkpt lat="45.4637256" lon="10.4739347"><ele>160.5</ele><time>2026-03-28T08:41:12.572Z</time></trkpt><trkpt lat="45.4637067" lon="10.4741656"><ele>161.0</ele><time>2026-03-28T08:41:13.573Z</time></trkpt><trkpt lat="45.4636995" lon="10.474355"><ele>161.5</ele><time>2026-03-28T08:41:14.573Z</time></trkpt><trkpt lat="45.4636844" lon="10.4744931"><ele>162.0</ele><time>2026-03-28T08:41:15.572Z</time></trkpt><trkpt lat="45.4636626" lon="10.4745869"><ele>162.0</ele><time>2026-03-28T08:41:16.573Z</time></trkpt><trkpt lat="45.4635742" lon="10.4746553"><ele>162.0</ele><time>2026-03-28T08:41:18.573Z</time></trkpt><trkpt lat="45.4634564" lon="10.4745725"><ele>162.0</ele><time>2026-03-28T08:41:20.573Z</time></trkpt><trkpt lat="45.4633818" lon="10.4744971"><ele>162.0</ele><time>2026-03-28T08:41:21.573Z</time></trkpt><trkpt lat="45.4633022" lon="10.4744183"><ele>162.0</ele><time>2026-03-28T08:41:22.572Z</time></trkpt><trkpt lat="45.4632214" lon="10.4743511"><ele>162.0</ele><time>2026-03-28T08:41:23.573Z</time></trkpt><trkpt lat="45.4631474" lon="10.4742779"><ele>162.0</ele><time>2026-03-28T08:41:24.572Z</time></trkpt><trkpt lat="45.4630798" lon="10.4742105"><ele>162.0</ele><time>2026-03-28T08:41:25.573Z</time></trkpt><trkpt lat="45.4630173" lon="10.474151"><ele>162.0</ele><time>2026-03-28T08:41:26.572Z</time></trkpt><trkpt lat="45.4629278" lon="10.4740638"><ele>162.0</ele><time>2026-03-28T08:41:28.573Z</time></trkpt><trkpt lat="45.4628642" lon="10.4739957"><ele>162.0</ele><time>2026-03-28T08:41:31.572Z</time></trkpt><trkpt lat="45.4628058" lon="10.473923"><ele>162.0</ele><time>2026-03-28T08:41:34.572Z</time></trkpt><trkpt lat="45.4627508" lon="10.4738582"><ele>162.0</ele><time>2026-03-28T08:41:36.572Z</time></trkpt><trkpt lat="45.4626668" lon="10.4737586"><ele>162.0</ele><time>2026-03-28T08:41:38.572Z</time></trkpt><trkpt lat="45.4625536" lon="10.4737409"><ele>162.0</ele><time>2026-03-28T08:41:40.572Z</time></trkpt><trkpt lat="45.4625033" lon="10.4738069"><ele>162.0</ele><time>2026-03-28T08:41:41.572Z</time></trkpt><trkpt lat="45.4624477" lon="10.4738574"><ele>162.0</ele><time>2026-03-28T08:41:42.573Z</time></trkpt><trkpt lat="45.4623902" lon="10.4739192"><ele>162.0</ele><time>2026-03-28T08:41:43.572Z</time></trkpt><trkpt lat="45.4623322" lon="10.4739995"><ele>162.0</ele><time>2026-03-28T08:41:44.573Z</time></trkpt><trkpt lat="45.4622696" lon="10.474089"><ele>162.0</ele><time>2026-03-28T08:41:45.573Z</time></trkpt><trkpt lat="45.462203" lon="10.4741881"><ele>162.0</ele><time>2026-03-28T08:41:46.573Z</time></trkpt><trkpt lat="45.4621326" lon="10.4742915"><ele>162.0</ele><time>2026-03-28T08:41:47.573Z</time></trkpt><trkpt lat="45.4620611" lon="10.4743985"><ele>161.2</ele><time>2026-03-28T08:41:48.572Z</time></trkpt><trkpt lat="45.4619856" lon="10.4745087"><ele>160.39999999999998</ele><time>2026-03-28T08:41:49.572Z</time></trkpt><trkpt lat="45.4619115" lon="10.474624"><ele>159.60000000000002</ele><time>2026-03-28T08:41:50.572Z</time></trkpt><trkpt lat="45.4618369" lon="10.4747437"><ele>158.8</ele><time>2026-03-28T08:41:51.572Z</time></trkpt><trkpt lat="45.4617618" lon="10.4748604"><ele>158.0</ele><time>2026-03-28T08:41:52.572Z</time></trkpt><trkpt lat="45.461691" lon="10.4749696"><ele>158.0</ele><time>2026-03-28T08:41:53.572Z</time></trkpt><trkpt lat="45.4616234" lon="10.4750707"><ele>158.0</ele><time>2026-03-28T08:41:54.572Z</time></trkpt><trkpt lat="45.4615555" lon="10.4751719"><ele>158.0</ele><time>2026-03-28T08:41:55.572Z</time></trkpt><trkpt lat="45.4614868" lon="10.4752752"><ele>158.0</ele><time>2026-03-28T08:41:56.571Z</time></trkpt><trkpt lat="45.4614299" lon="10.4753543"><ele>158.0</ele><time>2026-03-28T08:41:57.573Z</time></trkpt><trkpt lat="45.4613365" lon="10.4754225"><ele>157.83333333333331</ele><time>2026-03-28T08:41:59.572Z</time></trkpt><trkpt lat="45.4612753" lon="10.4753965"><ele>157.66666666666666</ele><time>2026-03-28T08:42:00.572Z</time></trkpt><trkpt lat="45.4612124" lon="10.4753508"><ele>157.5</ele><time>2026-03-28T08:42:01.572Z</time></trkpt><trkpt lat="45.4611387" lon="10.4752906"><ele>157.33333333333334</ele><time>2026-03-28T08:42:02.572Z</time></trkpt><trkpt lat="45.4610534" lon="10.4752269"><ele>157.16666666666669</ele><time>2026-03-28T08:42:03.571Z</time></trkpt><trkpt lat="45.460963" lon="10.4751567"><ele>157.0</ele><time>2026-03-28T08:42:04.572Z</time></trkpt><trkpt lat="45.4608764" lon="10.4750882"><ele>157.0</ele><time>2026-03-28T08:42:05.572Z</time></trkpt><trkpt lat="45.4607921" lon="10.4750193"><ele>157.0</ele><time>2026-03-28T08:42:06.572Z</time></trkpt><trkpt lat="45.460714" lon="10.4749551"><ele>157.0</ele><time>2026-03-28T08:42:07.572Z</time></trkpt><trkpt lat="45.4606425" lon="10.4748884"><ele>157.0</ele><time>2026-03-28T08:42:08.573Z</time></trkpt><trkpt lat="45.4605757" lon="10.4748398"><ele>157.0</ele><time>2026-03-28T08:42:09.573Z</time></trkpt><trkpt lat="45.4605121" lon="10.4748"><ele>157.0</ele><time>2026-03-28T08:42:10.572Z</time></trkpt><trkpt lat="45.4604603" lon="10.4747455"><ele>156.66666666666669</ele><time>2026-03-28T08:42:11.573Z</time></trkpt><trkpt lat="45.4604096" lon="10.4746893"><ele>156.33333333333334</ele><time>2026-03-28T08:42:12.571Z</time></trkpt><trkpt lat="45.4602978" lon="10.4746365"><ele>156.0</ele><time>2026-03-28T08:42:14.572Z</time></trkpt><trkpt lat="45.4602053" lon="10.4747134"><ele>155.66666666666666</ele><time>2026-03-28T08:42:16.573Z</time></trkpt><trkpt lat="45.4601643" lon="10.4747826"><ele>155.33333333333331</ele><time>2026-03-28T08:42:17.572Z</time></trkpt><trkpt lat="45.4601235" lon="10.4748671"><ele>155.0</ele><time>2026-03-28T08:42:18.572Z</time></trkpt><trkpt lat="45.4600757" lon="10.4749634"><ele>155.0</ele><time>2026-03-28T08:42:19.572Z</time></trkpt><trkpt lat="45.46003" lon="10.4750778"><ele>155.0</ele><time>2026-03-28T08:42:20.572Z</time></trkpt><trkpt lat="45.4599798" lon="10.4752014"><ele>155.0</ele><time>2026-03-28T08:42:21.573Z</time></trkpt><trkpt lat="45.4599268" lon="10.4753368"><ele>155.0</ele><time>2026-03-28T08:42:22.573Z</time></trkpt><trkpt lat="45.4598726" lon="10.4754768"><ele>155.0</ele><time>2026-03-28T08:42:23.573Z</time></trkpt><trkpt lat="45.4598125" lon="10.4756224"><ele>155.0</ele><time>2026-03-28T08:42:24.573Z</time></trkpt><trkpt lat="45.4597515" lon="10.4757736"><ele>155.0</ele><time>2026-03-28T08:42:25.571Z</time></trkpt><trkpt lat="45.4596887" lon="10.4759289"><ele>155.0</ele><time>2026-03-28T08:42:26.573Z</time></trkpt><trkpt lat="45.4596257" lon="10.4760919"><ele>155.0</ele><time>2026-03-28T08:42:27.573Z</time></trkpt><trkpt lat="45.4595601" lon="10.4762632"><ele>154.75</ele><time>2026-03-28T08:42:28.573Z</time></trkpt><trkpt lat="45.459491" lon="10.4764347"><ele>154.5</ele><time>2026-03-28T08:42:29.573Z</time></trkpt><trkpt lat="45.459424" lon="10.4766109"><ele>154.25</ele><time>2026-03-28T08:42:30.573Z</time></trkpt><trkpt lat="45.4593548" lon="10.4767852"><ele>154.0</ele><time>2026-03-28T08:42:31.571Z</time></trkpt><trkpt lat="45.4592841" lon="10.4769576"><ele>154.0</ele><time>2026-03-28T08:42:32.571Z</time></trkpt><trkpt lat="45.4592166" lon="10.4771253"><ele>154.0</ele><time>2026-03-28T08:42:33.572Z</time></trkpt><trkpt lat="45.4591491" lon="10.4772947"><ele>154.0</ele><time>2026-03-28T08:42:34.573Z</time></trkpt><trkpt lat="45.4590875" lon="10.4774565"><ele>154.0</ele><time>2026-03-28T08:42:35.573Z</time></trkpt><trkpt lat="45.4590253" lon="10.4776103"><ele>154.0</ele><time>2026-03-28T08:42:36.571Z</time></trkpt><trkpt lat="45.4589693" lon="10.4777547"><ele>154.0</ele><time>2026-03-28T08:42:37.573Z</time></trkpt><trkpt lat="45.4589135" lon="10.4778963"><ele>154.0</ele><time>2026-03-28T08:42:38.572Z</time></trkpt><trkpt lat="45.4588574" lon="10.478039"><ele>154.0</ele><time>2026-03-28T08:42:39.572Z</time></trkpt><trkpt lat="45.4588031" lon="10.4781829"><ele>154.5</ele><time>2026-03-28T08:42:40.572Z</time></trkpt><trkpt lat="45.4587516" lon="10.4783296"><ele>155.0</ele><time>2026-03-28T08:42:41.572Z</time></trkpt><trkpt lat="45.4587021" lon="10.478482"><ele>155.5</ele><time>2026-03-28T08:42:42.572Z</time></trkpt><trkpt lat="45.4586566" lon="10.4786336"><ele>156.0</ele><time>2026-03-28T08:42:43.572Z</time></trkpt><trkpt lat="45.4586115" lon="10.4787789"><ele>156.5</ele><time>2026-03-28T08:42:44.572Z</time></trkpt><trkpt lat="45.4585704" lon="10.4789319"><ele>157.0</ele><time>2026-03-28T08:42:45.572Z</time></trkpt><trkpt lat="45.4585247" lon="10.4790855"><ele>157.5</ele><time>2026-03-28T08:42:46.573Z</time></trkpt><trkpt lat="45.4584782" lon="10.4792487"><ele>158.0</ele><time>2026-03-28T08:42:47.573Z</time></trkpt><trkpt lat="45.4584312" lon="10.4794192"><ele>158.0</ele><time>2026-03-28T08:42:48.572Z</time></trkpt><trkpt lat="45.458368" lon="10.4795958"><ele>158.0</ele><time>2026-03-28T08:42:49.572Z</time></trkpt><trkpt lat="45.4582832" lon="10.4797841"><ele>158.0</ele><time>2026-03-28T08:42:50.572Z</time></trkpt><trkpt lat="45.4581724" lon="10.4799779"><ele>158.0</ele><time>2026-03-28T08:42:51.572Z</time></trkpt><trkpt lat="45.4580305" lon="10.4801791"><ele>158.0</ele><time>2026-03-28T08:42:52.572Z</time></trkpt><trkpt lat="45.4578925" lon="10.4803578"><ele>158.0</ele><time>2026-03-28T08:42:53.572Z</time></trkpt><trkpt lat="45.4577639" lon="10.4805204"><ele>157.75</ele><time>2026-03-28T08:42:54.572Z</time></trkpt><trkpt lat="45.4576452" lon="10.4806703"><ele>157.5</ele><time>2026-03-28T08:42:55.573Z</time></trkpt><trkpt lat="45.4575375" lon="10.4808065"><ele>157.25</ele><time>2026-03-28T08:42:56.573Z</time></trkpt><trkpt lat="45.457436" lon="10.4809328"><ele>157.0</ele><time>2026-03-28T08:42:57.573Z</time></trkpt><trkpt lat="45.4573495" lon="10.4810692"><ele>157.0</ele><time>2026-03-28T08:42:58.573Z</time></trkpt><trkpt lat="45.4572781" lon="10.4812112"><ele>157.0</ele><time>2026-03-28T08:42:59.571Z</time></trkpt><trkpt lat="45.4572222" lon="10.4813684"><ele>157.0</ele><time>2026-03-28T08:43:00.573Z</time></trkpt><trkpt lat="45.4571868" lon="10.4815431"><ele>157.0</ele><time>2026-03-28T08:43:01.573Z</time></trkpt><trkpt lat="45.4571673" lon="10.4817386"><ele>156.75</ele><time>2026-03-28T08:43:02.573Z</time></trkpt><trkpt lat="45.4571475" lon="10.4819477"><ele>156.5</ele><time>2026-03-28T08:43:03.572Z</time></trkpt><trkpt lat="45.4571301" lon="10.4821511"><ele>156.25</ele><time>2026-03-28T08:43:04.571Z</time></trkpt><trkpt lat="45.4571184" lon="10.4823612"><ele>156.0</ele><time>2026-03-28T08:43:05.572Z</time></trkpt><trkpt lat="45.4571103" lon="10.4825653"><ele>156.0</ele><time>2026-03-28T08:43:06.572Z</time></trkpt><trkpt lat="45.4571045" lon="10.4827534"><ele>156.0</ele><time>2026-03-28T08:43:07.571Z</time></trkpt><trkpt lat="45.4570991" lon="10.4829429"><ele>156.0</ele><time>2026-03-28T08:43:08.572Z</time></trkpt><trkpt lat="45.4570907" lon="10.4831345"><ele>156.0</ele><time>2026-03-28T08:43:09.572Z</time></trkpt><trkpt lat="45.4570848" lon="10.4833268"><ele>156.0</ele><time>2026-03-28T08:43:10.572Z</time></trkpt><trkpt lat="45.4570877" lon="10.4835167"><ele>156.0</ele><time>2026-03-28T08:43:11.572Z</time></trkpt><trkpt lat="45.4570927" lon="10.4837021"><ele>156.0</ele><time>2026-03-28T08:43:12.572Z</time></trkpt><trkpt lat="45.4570967" lon="10.483873"><ele>156.0</ele><time>2026-03-28T08:43:13.573Z</time></trkpt><trkpt lat="45.4571013" lon="10.4840376"><ele>156.0</ele><time>2026-03-28T08:43:14.571Z</time></trkpt><trkpt lat="45.4571157" lon="10.4842024"><ele>156.0</ele><time>2026-03-28T08:43:15.573Z</time></trkpt><trkpt lat="45.4571433" lon="10.4843674"><ele>156.0</ele><time>2026-03-28T08:43:16.572Z</time></trkpt><trkpt lat="45.4571914" lon="10.4845342"><ele>156.0</ele><time>2026-03-28T08:43:17.573Z</time></trkpt><trkpt lat="45.4572473" lon="10.4846916"><ele>158.8</ele><time>2026-03-28T08:43:18.573Z</time></trkpt><trkpt lat="45.4572956" lon="10.4848386"><ele>161.6</ele><time>2026-03-28T08:43:19.573Z</time></trkpt><trkpt lat="45.4573255" lon="10.4849882"><ele>164.4</ele><time>2026-03-28T08:43:20.573Z</time></trkpt><trkpt lat="45.4573422" lon="10.4851349"><ele>167.2</ele><time>2026-03-28T08:43:21.572Z</time></trkpt><trkpt lat="45.4573445" lon="10.4852786"><ele>170.0</ele><time>2026-03-28T08:43:22.572Z</time></trkpt><trkpt lat="45.457348" lon="10.4854254"><ele>169.4</ele><time>2026-03-28T08:43:23.572Z</time></trkpt><trkpt lat="45.4573571" lon="10.4855674"><ele>168.8</ele><time>2026-03-28T08:43:24.573Z</time></trkpt><trkpt lat="45.4573744" lon="10.4857055"><ele>168.2</ele><time>2026-03-28T08:43:25.572Z</time></trkpt><trkpt lat="45.4574087" lon="10.4858386"><ele>167.6</ele><time>2026-03-28T08:43:26.573Z</time></trkpt><trkpt lat="45.4574532" lon="10.4859658"><ele>167.0</ele><time>2026-03-28T08:43:27.572Z</time></trkpt><trkpt lat="45.4575069" lon="10.4861071"><ele>167.0</ele><time>2026-03-28T08:43:28.573Z</time></trkpt><trkpt lat="45.45756" lon="10.4862336"><ele>167.0</ele><time>2026-03-28T08:43:29.573Z</time></trkpt><trkpt lat="45.4576109" lon="10.4863478"><ele>167.0</ele><time>2026-03-28T08:43:30.572Z</time></trkpt><trkpt lat="45.457654" lon="10.4864637"><ele>167.0</ele><time>2026-03-28T08:43:31.573Z</time></trkpt><trkpt lat="45.4576866" lon="10.4865772"><ele>167.0</ele><time>2026-03-28T08:43:32.572Z</time></trkpt><trkpt lat="45.4577015" lon="10.4866975"><ele>166.0</ele><time>2026-03-28T08:43:33.573Z</time></trkpt><trkpt lat="45.4576977" lon="10.4868353"><ele>165.0</ele><time>2026-03-28T08:43:34.573Z</time></trkpt><trkpt lat="45.4576806" lon="10.4869856"><ele>164.0</ele><time>2026-03-28T08:43:35.573Z</time></trkpt><trkpt lat="45.4576396" lon="10.4871413"><ele>163.0</ele><time>2026-03-28T08:43:36.572Z</time></trkpt><trkpt lat="45.4576091" lon="10.4872977"><ele>162.0</ele><time>2026-03-28T08:43:37.573Z</time></trkpt><trkpt lat="45.4576013" lon="10.4874524"><ele>160.75</ele><time>2026-03-28T08:43:38.573Z</time></trkpt><trkpt lat="45.4576088" lon="10.4876123"><ele>159.5</ele><time>2026-03-28T08:43:39.573Z</time></trkpt><trkpt lat="45.457641" lon="10.4877685"><ele>158.25</ele><time>2026-03-28T08:43:40.572Z</time></trkpt><trkpt lat="45.457685" lon="10.4879212"><ele>157.0</ele><time>2026-03-28T08:43:41.571Z</time></trkpt><trkpt lat="45.4577323" lon="10.4880712"><ele>157.0</ele><time>2026-03-28T08:43:42.573Z</time></trkpt><trkpt lat="45.4577777" lon="10.4882159"><ele>157.0</ele><time>2026-03-28T08:43:43.572Z</time></trkpt><trkpt lat="45.4578225" lon="10.4883509"><ele>157.0</ele><time>2026-03-28T08:43:44.572Z</time></trkpt><trkpt lat="45.4578733" lon="10.4884783"><ele>157.0</ele><time>2026-03-28T08:43:45.572Z</time></trkpt><trkpt lat="45.4579153" lon="10.4885837"><ele>157.0</ele><time>2026-03-28T08:43:46.573Z</time></trkpt><trkpt lat="45.4579503" lon="10.4886887"><ele>158.0</ele><time>2026-03-28T08:43:47.573Z</time></trkpt><trkpt lat="45.4579819" lon="10.4887828"><ele>159.0</ele><time>2026-03-28T08:43:48.573Z</time></trkpt><trkpt lat="45.4580147" lon="10.488872"><ele>160.0</ele><time>2026-03-28T08:43:49.573Z</time></trkpt><trkpt lat="45.4580388" lon="10.4889567"><ele>161.0</ele><time>2026-03-28T08:43:50.572Z</time></trkpt><trkpt lat="45.4580634" lon="10.489094"><ele>162.0</ele><time>2026-03-28T08:43:52.573Z</time></trkpt><trkpt lat="45.4580679" lon="10.4891958"><ele>163.0</ele><time>2026-03-28T08:43:54.573Z</time></trkpt><trkpt lat="45.4580752" lon="10.48931"><ele>163.0</ele><time>2026-03-28T08:43:56.573Z</time></trkpt><trkpt lat="45.4580216" lon="10.4894249"><ele>163.0</ele><time>2026-03-28T08:43:58.573Z</time></trkpt><trkpt lat="45.4579639" lon="10.4894737"><ele>163.0</ele><time>2026-03-28T08:43:59.572Z</time></trkpt><trkpt lat="45.4578941" lon="10.4895225"><ele>163.0</ele><time>2026-03-28T08:44:00.573Z</time></trkpt><trkpt lat="45.4578154" lon="10.4895756"><ele>163.0</ele><time>2026-03-28T08:44:01.572Z</time></trkpt><trkpt lat="45.4577348" lon="10.4896272"><ele>163.0</ele><time>2026-03-28T08:44:02.572Z</time></trkpt><trkpt lat="45.4576537" lon="10.4896793"><ele>163.16666666666669</ele><time>2026-03-28T08:44:03.572Z</time></trkpt><trkpt lat="45.4575821" lon="10.489727"><ele>163.33333333333334</ele><time>2026-03-28T08:44:04.572Z</time></trkpt><trkpt lat="45.4575189" lon="10.4897582"><ele>163.5</ele><time>2026-03-28T08:44:05.572Z</time></trkpt><trkpt lat="45.4574067" lon="10.4897626"><ele>163.66666666666666</ele><time>2026-03-28T08:44:07.573Z</time></trkpt><trkpt lat="45.4573402" lon="10.4897234"><ele>163.83333333333331</ele><time>2026-03-28T08:44:08.573Z</time></trkpt><trkpt lat="45.4572536" lon="10.4896317"><ele>164.0</ele><time>2026-03-28T08:44:09.573Z</time></trkpt><trkpt lat="45.4571453" lon="10.4894783"><ele>163.0</ele><time>2026-03-28T08:44:10.572Z</time></trkpt><trkpt lat="45.457043" lon="10.4893226"><ele>162.0</ele><time>2026-03-28T08:44:11.572Z</time></trkpt><trkpt lat="45.4569504" lon="10.4891706"><ele>161.0</ele><time>2026-03-28T08:44:12.573Z</time></trkpt><trkpt lat="45.4568732" lon="10.4890253"><ele>160.0</ele><time>2026-03-28T08:44:13.572Z</time></trkpt><trkpt lat="45.4568184" lon="10.4888923"><ele>160.0</ele><time>2026-03-28T08:44:14.572Z</time></trkpt><trkpt lat="45.4567885" lon="10.4887817"><ele>160.0</ele><time>2026-03-28T08:44:15.572Z</time></trkpt><trkpt lat="45.4567696" lon="10.488685"><ele>160.0</ele><time>2026-03-28T08:44:16.572Z</time></trkpt><trkpt lat="45.4567448" lon="10.4885032"><ele>160.0</ele><time>2026-03-28T08:44:18.572Z</time></trkpt><trkpt lat="45.4567485" lon="10.488398"><ele>160.0</ele><time>2026-03-28T08:44:19.571Z</time></trkpt><trkpt lat="45.4567593" lon="10.4882876"><ele>160.0</ele><time>2026-03-28T08:44:20.573Z</time></trkpt><trkpt lat="45.4567709" lon="10.4881761"><ele>159.8</ele><time>2026-03-28T08:44:21.572Z</time></trkpt><trkpt lat="45.4567847" lon="10.4880629"><ele>159.6</ele><time>2026-03-28T08:44:22.572Z</time></trkpt><trkpt lat="45.4567983" lon="10.4879463"><ele>159.4</ele><time>2026-03-28T08:44:23.571Z</time></trkpt><trkpt lat="45.4568116" lon="10.4878164"><ele>159.2</ele><time>2026-03-28T08:44:24.572Z</time></trkpt><trkpt lat="45.4568233" lon="10.4876807"><ele>159.0</ele><time>2026-03-28T08:44:25.571Z</time></trkpt><trkpt lat="45.4568354" lon="10.4875348"><ele>158.0</ele><time>2026-03-28T08:44:26.573Z</time></trkpt><trkpt lat="45.456846" lon="10.4873707"><ele>157.0</ele><time>2026-03-28T08:44:27.572Z</time></trkpt><trkpt lat="45.4568511" lon="10.4871893"><ele>156.0</ele><time>2026-03-28T08:44:28.572Z</time></trkpt><trkpt lat="45.4568547" lon="10.48699"><ele>155.0</ele><time>2026-03-28T08:44:29.573Z</time></trkpt><trkpt lat="45.456858" lon="10.4867845"><ele>155.0</ele><time>2026-03-28T08:44:30.572Z</time></trkpt><trkpt lat="45.4568626" lon="10.4865756"><ele>155.0</ele><time>2026-03-28T08:44:31.573Z</time></trkpt><trkpt lat="45.4568704" lon="10.4863684"><ele>155.0</ele><time>2026-03-28T08:44:32.571Z</time></trkpt><trkpt lat="45.4568769" lon="10.4861588"><ele>155.0</ele><time>2026-03-28T08:44:33.572Z</time></trkpt><trkpt lat="45.4568812" lon="10.4859449"><ele>155.0</ele><time>2026-03-28T08:44:34.573Z</time></trkpt><trkpt lat="45.456878" lon="10.4857332"><ele>155.0</ele><time>2026-03-28T08:44:35.572Z</time></trkpt><trkpt lat="45.4568693" lon="10.4855276"><ele>155.0</ele><time>2026-03-28T08:44:36.573Z</time></trkpt><trkpt lat="45.4568538" lon="10.4853204"><ele>155.0</ele><time>2026-03-28T08:44:37.572Z</time></trkpt><trkpt lat="45.4568352" lon="10.4851113"><ele>155.0</ele><time>2026-03-28T08:44:38.572Z</time></trkpt><trkpt lat="45.4568154" lon="10.4849011"><ele>155.0</ele><time>2026-03-28T08:44:39.572Z</time></trkpt><trkpt lat="45.4567981" lon="10.4846895"><ele>155.0</ele><time>2026-03-28T08:44:40.573Z</time></trkpt><trkpt lat="45.4567757" lon="10.4844765"><ele>155.0</ele><time>2026-03-28T08:44:41.573Z</time></trkpt><trkpt lat="45.4567435" lon="10.4842699"><ele>155.25</ele><time>2026-03-28T08:44:42.571Z</time></trkpt><trkpt lat="45.4567047" lon="10.4840687"><ele>155.5</ele><time>2026-03-28T08:44:43.572Z</time></trkpt><trkpt lat="45.4566519" lon="10.4838861"><ele>155.75</ele><time>2026-03-28T08:44:44.572Z</time></trkpt><trkpt lat="45.4565928" lon="10.4837183"><ele>156.0</ele><time>2026-03-28T08:44:45.573Z</time></trkpt><trkpt lat="45.4565223" lon="10.4835732"><ele>156.2</ele><time>2026-03-28T08:44:46.572Z</time></trkpt><trkpt lat="45.4564508" lon="10.4834393"><ele>156.39999999999998</ele><time>2026-03-28T08:44:47.572Z</time></trkpt><trkpt lat="45.4563864" lon="10.483319"><ele>156.6</ele><time>2026-03-28T08:44:48.572Z</time></trkpt><trkpt lat="45.4563266" lon="10.4832147"><ele>156.79999999999998</ele><time>2026-03-28T08:44:49.572Z</time></trkpt><trkpt lat="45.4562766" lon="10.483129"><ele>157.0</ele><time>2026-03-28T08:44:50.572Z</time></trkpt><trkpt lat="45.4562181" lon="10.4830367"><ele>156.5</ele><time>2026-03-28T08:44:52.573Z</time></trkpt><trkpt lat="45.4561639" lon="10.4829582"><ele>156.0</ele><time>2026-03-28T08:44:58.572Z</time></trkpt><trkpt lat="45.4561001" lon="10.4828597"><ele>155.5</ele><time>2026-03-28T08:45:01.573Z</time></trkpt><trkpt lat="45.4560432" lon="10.4827706"><ele>155.0</ele><time>2026-03-28T08:45:03.572Z</time></trkpt><trkpt lat="45.4559594" lon="10.4826446"><ele>154.5</ele><time>2026-03-28T08:45:05.572Z</time></trkpt><trkpt lat="45.4559101" lon="10.4825705"><ele>154.0</ele><time>2026-03-28T08:45:06.573Z</time></trkpt><trkpt lat="45.4558524" lon="10.4824775"><ele>153.75</ele><time>2026-03-28T08:45:07.572Z</time></trkpt><trkpt lat="45.4557831" lon="10.4823702"><ele>153.5</ele><time>2026-03-28T08:45:08.572Z</time></trkpt><trkpt lat="45.4557028" lon="10.4822502"><ele>153.25</ele><time>2026-03-28T08:45:09.572Z</time></trkpt><trkpt lat="45.4556144" lon="10.4821247"><ele>153.0</ele><time>2026-03-28T08:45:10.572Z</time></trkpt><trkpt lat="45.455521" lon="10.4819912"><ele>152.5</ele><time>2026-03-28T08:45:11.571Z</time></trkpt><trkpt lat="45.4554278" lon="10.481846"><ele>152.0</ele><time>2026-03-28T08:45:12.572Z</time></trkpt><trkpt lat="45.4553303" lon="10.4816997"><ele>151.5</ele><time>2026-03-28T08:45:13.573Z</time></trkpt><trkpt lat="45.4552256" lon="10.4815557"><ele>151.0</ele><time>2026-03-28T08:45:14.573Z</time></trkpt><trkpt lat="45.4551143" lon="10.4814072"><ele>151.33333333333334</ele><time>2026-03-28T08:45:15.572Z</time></trkpt><trkpt lat="45.4550002" lon="10.4812537"><ele>151.66666666666666</ele><time>2026-03-28T08:45:16.571Z</time></trkpt><trkpt lat="45.4548805" lon="10.481096"><ele>152.0</ele><time>2026-03-28T08:45:17.572Z</time></trkpt><trkpt lat="45.4547592" lon="10.4809379"><ele>152.0</ele><time>2026-03-28T08:45:18.572Z</time></trkpt><trkpt lat="45.4546401" lon="10.4807714"><ele>152.0</ele><time>2026-03-28T08:45:19.572Z</time></trkpt><trkpt lat="45.4545283" lon="10.4805942"><ele>152.0</ele><time>2026-03-28T08:45:20.571Z</time></trkpt><trkpt lat="45.4544241" lon="10.4804103"><ele>151.33333333333331</ele><time>2026-03-28T08:45:21.572Z</time></trkpt><trkpt lat="45.4543251" lon="10.4802245"><ele>150.66666666666666</ele><time>2026-03-28T08:45:22.572Z</time></trkpt><trkpt lat="45.4542236" lon="10.480038"><ele>150.0</ele><time>2026-03-28T08:45:23.572Z</time></trkpt><trkpt lat="45.454131" lon="10.4798574"><ele>150.0</ele><time>2026-03-28T08:45:24.572Z</time></trkpt><trkpt lat="45.4540407" lon="10.47968"><ele>150.0</ele><time>2026-03-28T08:45:25.572Z</time></trkpt><trkpt lat="45.4539511" lon="10.4795066"><ele>150.0</ele><time>2026-03-28T08:45:26.572Z</time></trkpt><trkpt lat="45.4538661" lon="10.4793351"><ele>149.75</ele><time>2026-03-28T08:45:27.572Z</time></trkpt><trkpt lat="45.4537805" lon="10.4791722"><ele>149.5</ele><time>2026-03-28T08:45:28.573Z</time></trkpt><trkpt lat="45.4537004" lon="10.4790149"><ele>149.25</ele><time>2026-03-28T08:45:29.572Z</time></trkpt><trkpt lat="45.4536194" lon="10.4788575"><ele>149.0</ele><time>2026-03-28T08:45:30.572Z</time></trkpt><trkpt lat="45.4535359" lon="10.4786919"><ele>149.0</ele><time>2026-03-28T08:45:31.572Z</time></trkpt><trkpt lat="45.453448" lon="10.4785201"><ele>149.0</ele><time>2026-03-28T08:45:32.572Z</time></trkpt><trkpt lat="45.4533556" lon="10.4783412"><ele>149.0</ele><time>2026-03-28T08:45:33.571Z</time></trkpt><trkpt lat="45.4532572" lon="10.478155"><ele>149.0</ele><time>2026-03-28T08:45:34.572Z</time></trkpt><trkpt lat="45.4531579" lon="10.4779644"><ele>149.0</ele><time>2026-03-28T08:45:35.573Z</time></trkpt><trkpt lat="45.4530531" lon="10.4777637"><ele>149.0</ele><time>2026-03-28T08:45:36.572Z</time></trkpt><trkpt lat="45.4529415" lon="10.4775559"><ele>149.0</ele><time>2026-03-28T08:45:37.573Z</time></trkpt><trkpt lat="45.4528246" lon="10.4773431"><ele>149.0</ele><time>2026-03-28T08:45:38.573Z</time></trkpt><trkpt lat="45.4527051" lon="10.4771328"><ele>149.0</ele><time>2026-03-28T08:45:39.572Z</time></trkpt><trkpt lat="45.4525804" lon="10.4769234"><ele>149.0</ele><time>2026-03-28T08:45:40.572Z</time></trkpt><trkpt lat="45.4524495" lon="10.4767128"><ele>149.0</ele><time>2026-03-28T08:45:41.573Z</time></trkpt><trkpt lat="45.4523165" lon="10.4764983"><ele>149.0</ele><time>2026-03-28T08:45:42.573Z</time></trkpt><trkpt lat="45.4521746" lon="10.4762889"><ele>146.66666666666666</ele><time>2026-03-28T08:45:43.573Z</time></trkpt><trkpt lat="45.4520261" lon="10.4760801"><ele>144.33333333333334</ele><time>2026-03-28T08:45:44.573Z</time></trkpt><trkpt lat="45.4518775" lon="10.4758763"><ele>142.0</ele><time>2026-03-28T08:45:45.573Z</time></trkpt><trkpt lat="45.4517264" lon="10.4756721"><ele>142.0</ele><time>2026-03-28T08:45:46.571Z</time></trkpt><trkpt lat="45.4515737" lon="10.475476"><ele>142.0</ele><time>2026-03-28T08:45:47.573Z</time></trkpt><trkpt lat="45.4514178" lon="10.4752764"><ele>142.0</ele><time>2026-03-28T08:45:48.573Z</time></trkpt><trkpt lat="45.4512552" lon="10.475075"><ele>141.66666666666669</ele><time>2026-03-28T08:45:49.573Z</time></trkpt><trkpt lat="45.4510984" lon="10.4748687"><ele>141.33333333333334</ele><time>2026-03-28T08:45:50.573Z</time></trkpt><trkpt lat="45.4509433" lon="10.474652"><ele>141.0</ele><time>2026-03-28T08:45:51.573Z</time></trkpt><trkpt lat="45.4507919" lon="10.4744163"><ele>141.0</ele><time>2026-03-28T08:45:52.573Z</time></trkpt><trkpt lat="45.4506458" lon="10.4741646"><ele>141.0</ele><time>2026-03-28T08:45:53.573Z</time></trkpt><trkpt lat="45.4505112" lon="10.4738934"><ele>139.5</ele><time>2026-03-28T08:45:54.571Z</time></trkpt><trkpt lat="45.4503822" lon="10.4736063"><ele>138.0</ele><time>2026-03-28T08:45:55.572Z</time></trkpt><trkpt lat="45.4502658" lon="10.4733146"><ele>138.0</ele><time>2026-03-28T08:45:56.571Z</time></trkpt><trkpt lat="45.450157" lon="10.473019"><ele>138.0</ele><time>2026-03-28T08:45:57.572Z</time></trkpt><trkpt lat="45.450052" lon="10.4727292"><ele>139.0</ele><time>2026-03-28T08:45:58.571Z</time></trkpt><trkpt lat="45.4499494" lon="10.4724461"><ele>140.0</ele><time>2026-03-28T08:45:59.571Z</time></trkpt><trkpt lat="45.4498421" lon="10.472161"><ele>139.66666666666666</ele><time>2026-03-28T08:46:00.571Z</time></trkpt><trkpt lat="45.4497385" lon="10.4718806"><ele>139.33333333333334</ele><time>2026-03-28T08:46:01.572Z</time></trkpt><trkpt lat="45.4496407" lon="10.4716168"><ele>139.0</ele><time>2026-03-28T08:46:02.572Z</time></trkpt><trkpt lat="45.4495497" lon="10.4713677"><ele>139.0</ele><time>2026-03-28T08:46:03.572Z</time></trkpt><trkpt lat="45.4494662" lon="10.4711395"><ele>139.0</ele><time>2026-03-28T08:46:04.572Z</time></trkpt><trkpt lat="45.4493894" lon="10.4709326"><ele>139.0</ele><time>2026-03-28T08:46:05.572Z</time></trkpt><trkpt lat="45.4493132" lon="10.4707249"><ele>139.0</ele><time>2026-03-28T08:46:06.572Z</time></trkpt><trkpt lat="45.4492336" lon="10.4705059"><ele>139.0</ele><time>2026-03-28T08:46:07.573Z</time></trkpt><trkpt lat="45.4491539" lon="10.4702901"><ele>139.0</ele><time>2026-03-28T08:46:08.573Z</time></trkpt><trkpt lat="45.449078" lon="10.4700876"><ele>139.0</ele><time>2026-03-28T08:46:09.571Z</time></trkpt><trkpt lat="45.4490074" lon="10.4698994"><ele>139.0</ele><time>2026-03-28T08:46:10.572Z</time></trkpt><trkpt lat="45.4489464" lon="10.4697304"><ele>139.0</ele><time>2026-03-28T08:46:11.572Z</time></trkpt><trkpt lat="45.4488923" lon="10.4695843"><ele>139.0</ele><time>2026-03-28T08:46:12.572Z</time></trkpt><trkpt lat="45.448844" lon="10.4694534"><ele>138.83333333333334</ele><time>2026-03-28T08:46:13.572Z</time></trkpt><trkpt lat="45.448801" lon="10.4693468"><ele>138.66666666666669</ele><time>2026-03-28T08:46:14.571Z</time></trkpt><trkpt lat="45.44877" lon="10.4692652"><ele>138.5</ele><time>2026-03-28T08:46:15.573Z</time></trkpt><trkpt lat="45.4486994" lon="10.4691512"><ele>138.33333333333334</ele><time>2026-03-28T08:46:17.572Z</time></trkpt><trkpt lat="45.4486404" lon="10.4691186"><ele>138.16666666666666</ele><time>2026-03-28T08:46:18.572Z</time></trkpt><trkpt lat="45.4485218" lon="10.4690668"><ele>138.0</ele><time>2026-03-28T08:46:20.572Z</time></trkpt><trkpt lat="45.4484555" lon="10.4690397"><ele>138.0</ele><time>2026-03-28T08:46:21.572Z</time></trkpt><trkpt lat="45.4483758" lon="10.4690136"><ele>138.0</ele><time>2026-03-28T08:46:22.573Z</time></trkpt><trkpt lat="45.4482863" lon="10.4689818"><ele>138.0</ele><time>2026-03-28T08:46:23.572Z</time></trkpt><trkpt lat="45.4481901" lon="10.4689469"><ele>138.0</ele><time>2026-03-28T08:46:24.573Z</time></trkpt><trkpt lat="45.4480833" lon="10.4689143"><ele>138.0</ele><time>2026-03-28T08:46:25.572Z</time></trkpt><trkpt lat="45.4479686" lon="10.4688801"><ele>137.25</ele><time>2026-03-28T08:46:26.572Z</time></trkpt><trkpt lat="45.4478497" lon="10.4688437"><ele>136.5</ele><time>2026-03-28T08:46:27.572Z</time></trkpt><trkpt lat="45.4477351" lon="10.4688004"><ele>135.75</ele><time>2026-03-28T08:46:28.572Z</time></trkpt><trkpt lat="45.4476206" lon="10.4687521"><ele>135.0</ele><time>2026-03-28T08:46:29.572Z</time></trkpt><trkpt lat="45.4475042" lon="10.4686973"><ele>134.75</ele><time>2026-03-28T08:46:30.571Z</time></trkpt><trkpt lat="45.447387" lon="10.4686367"><ele>134.5</ele><time>2026-03-28T08:46:31.572Z</time></trkpt><trkpt lat="45.4472682" lon="10.4685702"><ele>134.25</ele><time>2026-03-28T08:46:32.572Z</time></trkpt><trkpt lat="45.4471497" lon="10.4685013"><ele>134.0</ele><time>2026-03-28T08:46:33.572Z</time></trkpt><trkpt lat="45.4470164" lon="10.4684428"><ele>133.75</ele><time>2026-03-28T08:46:34.572Z</time></trkpt><trkpt lat="45.446891" lon="10.4684045"><ele>133.5</ele><time>2026-03-28T08:46:35.572Z</time></trkpt><trkpt lat="45.4467357" lon="10.4683806"><ele>133.25</ele><time>2026-03-28T08:46:36.573Z</time></trkpt><trkpt lat="45.44658" lon="10.4683663"><ele>133.0</ele><time>2026-03-28T08:46:37.572Z</time></trkpt><trkpt lat="45.446412" lon="10.4683476"><ele>133.0</ele><time>2026-03-28T08:46:38.572Z</time></trkpt><trkpt lat="45.4462361" lon="10.468331"><ele>133.0</ele><time>2026-03-28T08:46:39.572Z</time></trkpt><trkpt lat="45.4460574" lon="10.4683101"><ele>133.0</ele><time>2026-03-28T08:46:40.572Z</time></trkpt><trkpt lat="45.44589" lon="10.4682815"><ele>133.0</ele><time>2026-03-28T08:46:41.572Z</time></trkpt><trkpt lat="45.4457325" lon="10.468246"><ele>133.0</ele><time>2026-03-28T08:46:42.573Z</time></trkpt><trkpt lat="45.4455838" lon="10.4682126"><ele>133.0</ele><time>2026-03-28T08:46:43.572Z</time></trkpt><trkpt lat="45.4454363" lon="10.4681865"><ele>132.33333333333334</ele><time>2026-03-28T08:46:44.572Z</time></trkpt><trkpt lat="45.4452811" lon="10.4681721"><ele>131.66666666666666</ele><time>2026-03-28T08:46:45.572Z</time></trkpt><trkpt lat="45.4451262" lon="10.4681662"><ele>131.0</ele><time>2026-03-28T08:46:46.571Z</time></trkpt><trkpt lat="45.4449689" lon="10.4681672"><ele>131.0</ele><time>2026-03-28T08:46:47.572Z</time></trkpt><trkpt lat="45.444815" lon="10.4681739"><ele>131.0</ele><time>2026-03-28T08:46:48.573Z</time></trkpt><trkpt lat="45.4446697" lon="10.4681773"><ele>131.0</ele><time>2026-03-28T08:46:49.572Z</time></trkpt><trkpt lat="45.4445249" lon="10.4681762"><ele>131.0</ele><time>2026-03-28T08:46:50.572Z</time></trkpt><trkpt lat="45.4443813" lon="10.4681626"><ele>131.25</ele><time>2026-03-28T08:46:51.571Z</time></trkpt><trkpt lat="45.4442334" lon="10.4681553"><ele>131.5</ele><time>2026-03-28T08:46:52.572Z</time></trkpt><trkpt lat="45.4440821" lon="10.468164"><ele>131.75</ele><time>2026-03-28T08:46:53.571Z</time></trkpt><trkpt lat="45.4439381" lon="10.4681847"><ele>132.0</ele><time>2026-03-28T08:46:54.572Z</time></trkpt><trkpt lat="45.4438003" lon="10.4682173"><ele>132.0</ele><time>2026-03-28T08:46:55.572Z</time></trkpt><trkpt lat="45.4436784" lon="10.4682534"><ele>132.0</ele><time>2026-03-28T08:46:56.572Z</time></trkpt><trkpt lat="45.4435642" lon="10.4682867"><ele>132.0</ele><time>2026-03-28T08:46:57.572Z</time></trkpt><trkpt lat="45.4434591" lon="10.468319"><ele>132.0</ele><time>2026-03-28T08:46:58.573Z</time></trkpt><trkpt lat="45.4433454" lon="10.468343"><ele>132.0</ele><time>2026-03-28T08:46:59.573Z</time></trkpt><trkpt lat="45.4432214" lon="10.4683535"><ele>132.0</ele><time>2026-03-28T08:47:00.573Z</time></trkpt><trkpt lat="45.4430941" lon="10.4683436"><ele>132.0</ele><time>2026-03-28T08:47:01.573Z</time></trkpt><trkpt lat="45.4429581" lon="10.4683223"><ele>132.0</ele><time>2026-03-28T08:47:02.573Z</time></trkpt><trkpt lat="45.4428156" lon="10.468297"><ele>131.75</ele><time>2026-03-28T08:47:03.573Z</time></trkpt><trkpt lat="45.4426733" lon="10.4682669"><ele>131.5</ele><time>2026-03-28T08:47:04.572Z</time></trkpt><trkpt lat="45.4425396" lon="10.4682435"><ele>131.25</ele><time>2026-03-28T08:47:05.572Z</time></trkpt><trkpt lat="45.4424133" lon="10.468228"><ele>131.0</ele><time>2026-03-28T08:47:06.572Z</time></trkpt><trkpt lat="45.4422915" lon="10.4682135"><ele>131.0</ele><time>2026-03-28T08:47:07.573Z</time></trkpt><trkpt lat="45.4421614" lon="10.4681953"><ele>131.0</ele><time>2026-03-28T08:47:08.572Z</time></trkpt><trkpt lat="45.4420253" lon="10.4681699"><ele>131.0</ele><time>2026-03-28T08:47:09.572Z</time></trkpt><trkpt lat="45.4418921" lon="10.468131"><ele>131.0</ele><time>2026-03-28T08:47:10.572Z</time></trkpt><trkpt lat="45.4417553" lon="10.4680713"><ele>130.66666666666666</ele><time>2026-03-28T08:47:11.573Z</time></trkpt><trkpt lat="45.4416049" lon="10.4679849"><ele>130.33333333333334</ele><time>2026-03-28T08:47:12.572Z</time></trkpt><trkpt lat="45.4414371" lon="10.4678734"><ele>130.0</ele><time>2026-03-28T08:47:13.571Z</time></trkpt><trkpt lat="45.4412698" lon="10.4677585"><ele>129.33333333333334</ele><time>2026-03-28T08:47:14.572Z</time></trkpt><trkpt lat="45.4411121" lon="10.4676344"><ele>128.66666666666666</ele><time>2026-03-28T08:47:15.572Z</time></trkpt><trkpt lat="45.4409629" lon="10.4675131"><ele>128.0</ele><time>2026-03-28T08:47:16.572Z</time></trkpt><trkpt lat="45.4408227" lon="10.4673991"><ele>128.0</ele><time>2026-03-28T08:47:17.572Z</time></trkpt><trkpt lat="45.4406832" lon="10.4672855"><ele>128.0</ele><time>2026-03-28T08:47:18.573Z</time></trkpt><trkpt lat="45.4405449" lon="10.4671753"><ele>128.0</ele><time>2026-03-28T08:47:19.573Z</time></trkpt><trkpt lat="45.440408" lon="10.4670686"><ele>127.33333333333333</ele><time>2026-03-28T08:47:20.573Z</time></trkpt><trkpt lat="45.4402586" lon="10.466965"><ele>126.66666666666666</ele><time>2026-03-28T08:47:21.571Z</time></trkpt><trkpt lat="45.4401118" lon="10.4668837"><ele>126.0</ele><time>2026-03-28T08:47:22.573Z</time></trkpt><trkpt lat="45.4399732" lon="10.4668138"><ele>126.0</ele><time>2026-03-28T08:47:23.573Z</time></trkpt><trkpt lat="45.4398178" lon="10.4667451"><ele>126.0</ele><time>2026-03-28T08:47:24.573Z</time></trkpt><trkpt lat="45.4396478" lon="10.4666788"><ele>126.0</ele><time>2026-03-28T08:47:25.573Z</time></trkpt><trkpt lat="45.4394535" lon="10.4666129"><ele>126.0</ele><time>2026-03-28T08:47:26.572Z</time></trkpt><trkpt lat="45.4392728" lon="10.4665559"><ele>126.0</ele><time>2026-03-28T08:47:27.572Z</time></trkpt><trkpt lat="45.4391004" lon="10.466507"><ele>126.0</ele><time>2026-03-28T08:47:28.572Z</time></trkpt><trkpt lat="45.4389357" lon="10.4664571"><ele>126.0</ele><time>2026-03-28T08:47:29.571Z</time></trkpt><trkpt lat="45.438775" lon="10.4664219"><ele>126.0</ele><time>2026-03-28T08:47:30.573Z</time></trkpt><trkpt lat="45.438612" lon="10.4663687"><ele>126.0</ele><time>2026-03-28T08:47:31.573Z</time></trkpt><trkpt lat="45.4384669" lon="10.4663023"><ele>126.33333333333334</ele><time>2026-03-28T08:47:32.572Z</time></trkpt><trkpt lat="45.4383314" lon="10.4662217"><ele>126.66666666666667</ele><time>2026-03-28T08:47:33.573Z</time></trkpt><trkpt lat="45.4381937" lon="10.4661263"><ele>127.0</ele><time>2026-03-28T08:47:34.572Z</time></trkpt><trkpt lat="45.4380398" lon="10.4660047"><ele>126.0</ele><time>2026-03-28T08:47:35.573Z</time></trkpt><trkpt lat="45.4378697" lon="10.4658705"><ele>125.0</ele><time>2026-03-28T08:47:36.572Z</time></trkpt><trkpt lat="45.4377224" lon="10.465743"><ele>124.0</ele><time>2026-03-28T08:47:37.573Z</time></trkpt><trkpt lat="45.4375827" lon="10.4656256"><ele>124.0</ele><time>2026-03-28T08:47:38.572Z</time></trkpt><trkpt lat="45.4374458" lon="10.4655069"><ele>124.0</ele><time>2026-03-28T08:47:39.572Z</time></trkpt><trkpt lat="45.4372993" lon="10.4654044"><ele>124.0</ele><time>2026-03-28T08:47:40.572Z</time></trkpt><trkpt lat="45.4371607" lon="10.4653126"><ele>124.0</ele><time>2026-03-28T08:47:41.572Z</time></trkpt><trkpt lat="45.437031" lon="10.465238"><ele>124.0</ele><time>2026-03-28T08:47:42.572Z</time></trkpt><trkpt lat="45.4369069" lon="10.4651734"><ele>124.0</ele><time>2026-03-28T08:47:43.573Z</time></trkpt><trkpt lat="45.4367994" lon="10.4651143"><ele>124.0</ele><time>2026-03-28T08:47:44.573Z</time></trkpt><trkpt lat="45.4367029" lon="10.4650623"><ele>124.0</ele><time>2026-03-28T08:47:45.573Z</time></trkpt><trkpt lat="45.4366172" lon="10.4650325"><ele>124.0</ele><time>2026-03-28T08:47:46.573Z</time></trkpt><trkpt lat="45.4365468" lon="10.4650226"><ele>124.0</ele><time>2026-03-28T08:47:47.571Z</time></trkpt><trkpt lat="45.4364499" lon="10.4651106"><ele>124.0</ele><time>2026-03-28T08:47:49.573Z</time></trkpt><trkpt lat="45.4364217" lon="10.4652151"><ele>124.0</ele><time>2026-03-28T08:47:50.572Z</time></trkpt><trkpt lat="45.4364032" lon="10.4653626"><ele>124.33333333333334</ele><time>2026-03-28T08:47:51.573Z</time></trkpt><trkpt lat="45.4363877" lon="10.4655622"><ele>124.66666666666666</ele><time>2026-03-28T08:47:52.572Z</time></trkpt><trkpt lat="45.4363718" lon="10.4658239"><ele>125.0</ele><time>2026-03-28T08:47:53.572Z</time></trkpt><trkpt lat="45.4363668" lon="10.4660707"><ele>125.0</ele><time>2026-03-28T08:47:54.573Z</time></trkpt><trkpt lat="45.4363727" lon="10.4663114"><ele>125.0</ele><time>2026-03-28T08:47:55.573Z</time></trkpt><trkpt lat="45.4363823" lon="10.4665593"><ele>125.0</ele><time>2026-03-28T08:47:56.572Z</time></trkpt><trkpt lat="45.436386" lon="10.4668012"><ele>125.0</ele><time>2026-03-28T08:47:57.572Z</time></trkpt><trkpt lat="45.4363818" lon="10.4670406"><ele>125.0</ele><time>2026-03-28T08:47:58.572Z</time></trkpt><trkpt lat="45.4363805" lon="10.4672851"><ele>125.0</ele><time>2026-03-28T08:47:59.572Z</time></trkpt><trkpt lat="45.4363678" lon="10.4675506"><ele>125.0</ele><time>2026-03-28T08:48:00.572Z</time></trkpt><trkpt lat="45.4363579" lon="10.4678076"><ele>125.0</ele><time>2026-03-28T08:48:01.573Z</time></trkpt><trkpt lat="45.4363667" lon="10.4680641"><ele>125.0</ele><time>2026-03-28T08:48:02.573Z</time></trkpt><trkpt lat="45.4363675" lon="10.4682958"><ele>125.0</ele><time>2026-03-28T08:48:03.573Z</time></trkpt><trkpt lat="45.4363635" lon="10.4685319"><ele>125.0</ele><time>2026-03-28T08:48:04.573Z</time></trkpt><trkpt lat="45.436358" lon="10.4687419"><ele>125.0</ele><time>2026-03-28T08:48:05.571Z</time></trkpt><trkpt lat="45.436354" lon="10.4689742"><ele>125.33333333333333</ele><time>2026-03-28T08:48:06.572Z</time></trkpt><trkpt lat="45.4363501" lon="10.4692015"><ele>125.66666666666666</ele><time>2026-03-28T08:48:07.572Z</time></trkpt><trkpt lat="45.436355" lon="10.4694323"><ele>126.0</ele><time>2026-03-28T08:48:08.572Z</time></trkpt><trkpt lat="45.4363535" lon="10.4696643"><ele>126.33333333333334</ele><time>2026-03-28T08:48:09.572Z</time></trkpt><trkpt lat="45.4363611" lon="10.4699051"><ele>126.66666666666667</ele><time>2026-03-28T08:48:10.571Z</time></trkpt><trkpt lat="45.4363724" lon="10.4701611"><ele>127.0</ele><time>2026-03-28T08:48:11.572Z</time></trkpt><trkpt lat="45.4363665" lon="10.4704713"><ele>127.0</ele><time>2026-03-28T08:48:12.573Z</time></trkpt><trkpt lat="45.4363662" lon="10.4707793"><ele>127.0</ele><time>2026-03-28T08:48:13.572Z</time></trkpt><trkpt lat="45.4363642" lon="10.4710506"><ele>127.0</ele><time>2026-03-28T08:48:14.572Z</time></trkpt><trkpt lat="45.4363604" lon="10.4713094"><ele>127.0</ele><time>2026-03-28T08:48:15.572Z</time></trkpt><trkpt lat="45.4363571" lon="10.4715847"><ele>127.0</ele><time>2026-03-28T08:48:16.572Z</time></trkpt><trkpt lat="45.4363531" lon="10.4718698"><ele>127.0</ele><time>2026-03-28T08:48:17.572Z</time></trkpt><trkpt lat="45.4363565" lon="10.4721706"><ele>127.0</ele><time>2026-03-28T08:48:18.572Z</time></trkpt><trkpt lat="45.436363" lon="10.4724486"><ele>127.0</ele><time>2026-03-28T08:48:19.572Z</time></trkpt><trkpt lat="45.4363706" lon="10.4727009"><ele>127.0</ele><time>2026-03-28T08:48:20.571Z</time></trkpt><trkpt lat="45.4363849" lon="10.4729632"><ele>127.0</ele><time>2026-03-28T08:48:21.573Z</time></trkpt><trkpt lat="45.4364115" lon="10.4732412"><ele>127.0</ele><time>2026-03-28T08:48:22.573Z</time></trkpt><trkpt lat="45.4364466" lon="10.4735218"><ele>127.0</ele><time>2026-03-28T08:48:23.572Z</time></trkpt><trkpt lat="45.436476" lon="10.473797"><ele>127.0</ele><time>2026-03-28T08:48:24.573Z</time></trkpt><trkpt lat="45.4364957" lon="10.474056"><ele>127.0</ele><time>2026-03-28T08:48:25.572Z</time></trkpt><trkpt lat="45.4365137" lon="10.4743021"><ele>127.0</ele><time>2026-03-28T08:48:26.573Z</time></trkpt><trkpt lat="45.4365347" lon="10.4745344"><ele>127.33333333333334</ele><time>2026-03-28T08:48:27.573Z</time></trkpt><trkpt lat="45.4365588" lon="10.4747768"><ele>127.66666666666666</ele><time>2026-03-28T08:48:28.572Z</time></trkpt><trkpt lat="45.4365837" lon="10.4750322"><ele>128.0</ele><time>2026-03-28T08:48:29.572Z</time></trkpt><trkpt lat="45.4366131" lon="10.4752799"><ele>128.0</ele><time>2026-03-28T08:48:30.572Z</time></trkpt><trkpt lat="45.4366438" lon="10.4755304"><ele>128.0</ele><time>2026-03-28T08:48:31.572Z</time></trkpt><trkpt lat="45.4366733" lon="10.4757752"><ele>128.0</ele><time>2026-03-28T08:48:32.572Z</time></trkpt><trkpt lat="45.4367054" lon="10.4760099"><ele>128.0</ele><time>2026-03-28T08:48:33.572Z</time></trkpt><trkpt lat="45.4367309" lon="10.476223"><ele>128.0</ele><time>2026-03-28T08:48:34.571Z</time></trkpt><trkpt lat="45.4367538" lon="10.4764162"><ele>128.0</ele><time>2026-03-28T08:48:35.572Z</time></trkpt><trkpt lat="45.436774" lon="10.4765886"><ele>128.0</ele><time>2026-03-28T08:48:36.572Z</time></trkpt><trkpt lat="45.43679" lon="10.4767447"><ele>128.0</ele><time>2026-03-28T08:48:37.572Z</time></trkpt><trkpt lat="45.4368142" lon="10.4768947"><ele>128.0</ele><time>2026-03-28T08:48:38.572Z</time></trkpt><trkpt lat="45.4368376" lon="10.4770463"><ele>128.0</ele><time>2026-03-28T08:48:39.572Z</time></trkpt><trkpt lat="45.4368509" lon="10.4771697"><ele>128.0</ele><time>2026-03-28T08:48:40.572Z</time></trkpt><trkpt lat="45.4368637" lon="10.4772725"><ele>128.0</ele><time>2026-03-28T08:48:41.572Z</time></trkpt><trkpt lat="45.4368773" lon="10.477402"><ele>128.20000000000002</ele><time>2026-03-28T08:48:43.572Z</time></trkpt><trkpt lat="45.4369491" lon="10.4774944"><ele>128.4</ele><time>2026-03-28T08:48:51.571Z</time></trkpt><trkpt lat="45.4370231" lon="10.4775001"><ele>128.60000000000002</ele><time>2026-03-28T08:48:52.572Z</time></trkpt><trkpt lat="45.4371356" lon="10.4775187"><ele>128.8</ele><time>2026-03-28T08:48:53.573Z</time></trkpt><trkpt lat="45.4372796" lon="10.477545"><ele>129.0</ele><time>2026-03-28T08:48:54.572Z</time></trkpt><trkpt lat="45.437475" lon="10.4775774"><ele>129.0</ele><time>2026-03-28T08:48:55.572Z</time></trkpt><trkpt lat="45.4377003" lon="10.4776091"><ele>129.0</ele><time>2026-03-28T08:48:56.572Z</time></trkpt><trkpt lat="45.4379118" lon="10.4776279"><ele>129.0</ele><time>2026-03-28T08:48:57.572Z</time></trkpt><trkpt lat="45.4381059" lon="10.4776428"><ele>129.33333333333334</ele><time>2026-03-28T08:48:58.572Z</time></trkpt><trkpt lat="45.4382903" lon="10.477656"><ele>129.66666666666669</ele><time>2026-03-28T08:48:59.573Z</time></trkpt><trkpt lat="45.4384703" lon="10.4776737"><ele>130.0</ele><time>2026-03-28T08:49:00.572Z</time></trkpt><trkpt lat="45.4386479" lon="10.4777008"><ele>130.0</ele><time>2026-03-28T08:49:01.572Z</time></trkpt><trkpt lat="45.4388155" lon="10.4777336"><ele>130.0</ele><time>2026-03-28T08:49:02.572Z</time></trkpt><trkpt lat="45.4389792" lon="10.4777728"><ele>130.0</ele><time>2026-03-28T08:49:03.573Z</time></trkpt><trkpt lat="45.4391379" lon="10.4778153"><ele>130.0</ele><time>2026-03-28T08:49:04.571Z</time></trkpt><trkpt lat="45.4392991" lon="10.4778637"><ele>130.0</ele><time>2026-03-28T08:49:05.573Z</time></trkpt><trkpt lat="45.439456" lon="10.4779194"><ele>130.0</ele><time>2026-03-28T08:49:06.572Z</time></trkpt><trkpt lat="45.4396098" lon="10.4779832"><ele>130.33333333333334</ele><time>2026-03-28T08:49:07.572Z</time></trkpt><trkpt lat="45.4397607" lon="10.4780488"><ele>130.66666666666666</ele><time>2026-03-28T08:49:08.573Z</time></trkpt><trkpt lat="45.439911" lon="10.4781095"><ele>131.0</ele><time>2026-03-28T08:49:09.573Z</time></trkpt><trkpt lat="45.4400598" lon="10.4781665"><ele>131.0</ele><time>2026-03-28T08:49:10.573Z</time></trkpt><trkpt lat="45.4402034" lon="10.4782199"><ele>131.0</ele><time>2026-03-28T08:49:11.573Z</time></trkpt><trkpt lat="45.4403419" lon="10.4782718"><ele>131.0</ele><time>2026-03-28T08:49:12.573Z</time></trkpt><trkpt lat="45.4404846" lon="10.4783216"><ele>131.0</ele><time>2026-03-28T08:49:13.573Z</time></trkpt><trkpt lat="45.4406328" lon="10.4783748"><ele>131.33333333333331</ele><time>2026-03-28T08:49:14.573Z</time></trkpt><trkpt lat="45.4407865" lon="10.478422"><ele>131.66666666666666</ele><time>2026-03-28T08:49:15.572Z</time></trkpt><trkpt lat="45.4409479" lon="10.4784685"><ele>132.0</ele><time>2026-03-28T08:49:16.572Z</time></trkpt><trkpt lat="45.4411137" lon="10.4785233"><ele>132.0</ele><time>2026-03-28T08:49:17.572Z</time></trkpt><trkpt lat="45.4412861" lon="10.478577"><ele>132.0</ele><time>2026-03-28T08:49:18.572Z</time></trkpt><trkpt lat="45.4414662" lon="10.478624"><ele>132.0</ele><time>2026-03-28T08:49:19.571Z</time></trkpt><trkpt lat="45.441646" lon="10.4786466"><ele>132.66666666666666</ele><time>2026-03-28T08:49:20.572Z</time></trkpt><trkpt lat="45.4418253" lon="10.4786428"><ele>133.33333333333331</ele><time>2026-03-28T08:49:21.573Z</time></trkpt><trkpt lat="45.4420024" lon="10.4786169"><ele>134.0</ele><time>2026-03-28T08:49:22.573Z</time></trkpt><trkpt lat="45.4421804" lon="10.4785647"><ele>134.66666666666666</ele><time>2026-03-28T08:49:23.573Z</time></trkpt><trkpt lat="45.4423606" lon="10.4784885"><ele>135.33333333333334</ele><time>2026-03-28T08:49:24.573Z</time></trkpt><trkpt lat="45.442541" lon="10.4783905"><ele>136.0</ele><time>2026-03-28T08:49:25.573Z</time></trkpt><trkpt lat="45.4427074" lon="10.478283"><ele>136.0</ele><time>2026-03-28T08:49:26.573Z</time></trkpt><trkpt lat="45.4428753" lon="10.4781799"><ele>136.0</ele><time>2026-03-28T08:49:27.573Z</time></trkpt><trkpt lat="45.443059" lon="10.4780992"><ele>136.0</ele><time>2026-03-28T08:49:28.573Z</time></trkpt><trkpt lat="45.4432488" lon="10.4780355"><ele>136.0</ele><time>2026-03-28T08:49:29.572Z</time></trkpt><trkpt lat="45.443443" lon="10.4779958"><ele>136.0</ele><time>2026-03-28T08:49:30.573Z</time></trkpt><trkpt lat="45.4436403" lon="10.4779767"><ele>136.0</ele><time>2026-03-28T08:49:31.573Z</time></trkpt><trkpt lat="45.443845" lon="10.477993"><ele>136.0</ele><time>2026-03-28T08:49:32.572Z</time></trkpt><trkpt lat="45.4440437" lon="10.4780406"><ele>136.0</ele><time>2026-03-28T08:49:33.572Z</time></trkpt><trkpt lat="45.4442247" lon="10.4780871"><ele>136.0</ele><time>2026-03-28T08:49:34.572Z</time></trkpt><trkpt lat="45.4443969" lon="10.4781303"><ele>136.0</ele><time>2026-03-28T08:49:35.572Z</time></trkpt><trkpt lat="45.4445619" lon="10.4781716"><ele>136.0</ele><time>2026-03-28T08:49:36.571Z</time></trkpt><trkpt lat="45.44471" lon="10.4782139"><ele>136.0</ele><time>2026-03-28T08:49:37.573Z</time></trkpt><trkpt lat="45.4448589" lon="10.4782591"><ele>136.33333333333334</ele><time>2026-03-28T08:49:38.573Z</time></trkpt><trkpt lat="45.4450152" lon="10.4783066"><ele>136.66666666666666</ele><time>2026-03-28T08:49:39.573Z</time></trkpt><trkpt lat="45.4451765" lon="10.4783579"><ele>137.0</ele><time>2026-03-28T08:49:40.572Z</time></trkpt><trkpt lat="45.4453447" lon="10.4784106"><ele>137.66666666666666</ele><time>2026-03-28T08:49:41.572Z</time></trkpt><trkpt lat="45.4455126" lon="10.4784701"><ele>138.33333333333334</ele><time>2026-03-28T08:49:42.573Z</time></trkpt><trkpt lat="45.4456739" lon="10.4785493"><ele>139.0</ele><time>2026-03-28T08:49:43.572Z</time></trkpt><trkpt lat="45.4458303" lon="10.4786535"><ele>139.0</ele><time>2026-03-28T08:49:44.573Z</time></trkpt><trkpt lat="45.4459828" lon="10.4787612"><ele>139.0</ele><time>2026-03-28T08:49:45.573Z</time></trkpt><trkpt lat="45.4461223" lon="10.4788629"><ele>139.0</ele><time>2026-03-28T08:49:46.573Z</time></trkpt><trkpt lat="45.44626" lon="10.4789719"><ele>140.0</ele><time>2026-03-28T08:49:47.573Z</time></trkpt><trkpt lat="45.4464004" lon="10.4790817"><ele>141.0</ele><time>2026-03-28T08:49:48.572Z</time></trkpt><trkpt lat="45.4465429" lon="10.4791894"><ele>142.0</ele><time>2026-03-28T08:49:49.573Z</time></trkpt><trkpt lat="45.4466774" lon="10.4792962"><ele>142.0</ele><time>2026-03-28T08:49:50.572Z</time></trkpt><trkpt lat="45.4468122" lon="10.4794057"><ele>142.0</ele><time>2026-03-28T08:49:51.573Z</time></trkpt><trkpt lat="45.4469485" lon="10.4795069"><ele>142.0</ele><time>2026-03-28T08:49:52.573Z</time></trkpt><trkpt lat="45.4470838" lon="10.4795904"><ele>141.33333333333334</ele><time>2026-03-28T08:49:53.572Z</time></trkpt><trkpt lat="45.4472294" lon="10.4796695"><ele>140.66666666666666</ele><time>2026-03-28T08:49:54.574Z</time></trkpt><trkpt lat="45.447375" lon="10.4797531"><ele>140.0</ele><time>2026-03-28T08:49:55.574Z</time></trkpt><trkpt lat="45.4475272" lon="10.4798403"><ele>140.0</ele><time>2026-03-28T08:49:56.574Z</time></trkpt><trkpt lat="45.4476753" lon="10.4799201"><ele>140.0</ele><time>2026-03-28T08:49:57.574Z</time></trkpt><trkpt lat="45.4478164" lon="10.4799947"><ele>140.0</ele><time>2026-03-28T08:49:58.574Z</time></trkpt><trkpt lat="45.4479578" lon="10.4800736"><ele>140.0</ele><time>2026-03-28T08:49:59.573Z</time></trkpt><trkpt lat="45.4481098" lon="10.480148"><ele>140.0</ele><time>2026-03-28T08:50:00.572Z</time></trkpt><trkpt lat="45.4482715" lon="10.4802167"><ele>140.0</ele><time>2026-03-28T08:50:01.573Z</time></trkpt><trkpt lat="45.448442" lon="10.4802809"><ele>140.0</ele><time>2026-03-28T08:50:02.572Z</time></trkpt><trkpt lat="45.4486221" lon="10.4803397"><ele>140.0</ele><time>2026-03-28T08:50:03.573Z</time></trkpt><trkpt lat="45.4488129" lon="10.4804003"><ele>140.0</ele><time>2026-03-28T08:50:04.574Z</time></trkpt><trkpt lat="45.4490026" lon="10.4804585"><ele>140.0</ele><time>2026-03-28T08:50:05.574Z</time></trkpt><trkpt lat="45.4491893" lon="10.4805141"><ele>140.0</ele><time>2026-03-28T08:50:06.572Z</time></trkpt><trkpt lat="45.4493709" lon="10.480569"><ele>140.0</ele><time>2026-03-28T08:50:07.573Z</time></trkpt><trkpt lat="45.4495452" lon="10.4806182"><ele>141.0</ele><time>2026-03-28T08:50:08.574Z</time></trkpt><trkpt lat="45.4497101" lon="10.4806603"><ele>142.0</ele><time>2026-03-28T08:50:09.574Z</time></trkpt><trkpt lat="45.4498713" lon="10.480705"><ele>143.0</ele><time>2026-03-28T08:50:10.574Z</time></trkpt><trkpt lat="45.4500244" lon="10.4807469"><ele>143.0</ele><time>2026-03-28T08:50:11.574Z</time></trkpt><trkpt lat="45.4501727" lon="10.4807849"><ele>143.0</ele><time>2026-03-28T08:50:12.573Z</time></trkpt><trkpt lat="45.4503228" lon="10.4808219"><ele>143.0</ele><time>2026-03-28T08:50:13.572Z</time></trkpt><trkpt lat="45.4504798" lon="10.4808613"><ele>143.33333333333331</ele><time>2026-03-28T08:50:14.574Z</time></trkpt><trkpt lat="45.4506298" lon="10.4809011"><ele>143.66666666666666</ele><time>2026-03-28T08:50:15.574Z</time></trkpt><trkpt lat="45.4507783" lon="10.4809412"><ele>144.0</ele><time>2026-03-28T08:50:16.573Z</time></trkpt><trkpt lat="45.4509268" lon="10.4809766"><ele>144.0</ele><time>2026-03-28T08:50:17.573Z</time></trkpt><trkpt lat="45.4510775" lon="10.4810126"><ele>144.0</ele><time>2026-03-28T08:50:18.574Z</time></trkpt><trkpt lat="45.4512294" lon="10.4810493"><ele>144.0</ele><time>2026-03-28T08:50:19.573Z</time></trkpt><trkpt lat="45.4513836" lon="10.4810912"><ele>143.75</ele><time>2026-03-28T08:50:20.573Z</time></trkpt><trkpt lat="45.4515279" lon="10.4811392"><ele>143.5</ele><time>2026-03-28T08:50:21.573Z</time></trkpt><trkpt lat="45.4516634" lon="10.4811887"><ele>143.25</ele><time>2026-03-28T08:50:22.572Z</time></trkpt><trkpt lat="45.4517956" lon="10.4812344"><ele>143.0</ele><time>2026-03-28T08:50:23.573Z</time></trkpt><trkpt lat="45.4519265" lon="10.4812844"><ele>144.0</ele><time>2026-03-28T08:50:24.574Z</time></trkpt><trkpt lat="45.4520597" lon="10.4813454"><ele>145.0</ele><time>2026-03-28T08:50:25.574Z</time></trkpt><trkpt lat="45.4521942" lon="10.4814291"><ele>146.0</ele><time>2026-03-28T08:50:26.574Z</time></trkpt><trkpt lat="45.4523194" lon="10.4815285"><ele>147.0</ele><time>2026-03-28T08:50:27.574Z</time></trkpt><trkpt lat="45.4524311" lon="10.4816522"><ele>147.0</ele><time>2026-03-28T08:50:28.573Z</time></trkpt><trkpt lat="45.452533" lon="10.4818057"><ele>147.0</ele><time>2026-03-28T08:50:29.573Z</time></trkpt><trkpt lat="45.4526167" lon="10.4819837"><ele>147.0</ele><time>2026-03-28T08:50:30.573Z</time></trkpt><trkpt lat="45.4526766" lon="10.4821905"><ele>147.33333333333334</ele><time>2026-03-28T08:50:31.573Z</time></trkpt><trkpt lat="45.4527048" lon="10.4824152"><ele>147.66666666666669</ele><time>2026-03-28T08:50:32.574Z</time></trkpt><trkpt lat="45.4527036" lon="10.4826722"><ele>148.0</ele><time>2026-03-28T08:50:33.574Z</time></trkpt><trkpt lat="45.452683" lon="10.48295"><ele>148.66666666666669</ele><time>2026-03-28T08:50:34.572Z</time></trkpt><trkpt lat="45.4526635" lon="10.4832084"><ele>149.33333333333334</ele><time>2026-03-28T08:50:35.573Z</time></trkpt><trkpt lat="45.4526464" lon="10.4834485"><ele>150.0</ele><time>2026-03-28T08:50:36.574Z</time></trkpt><trkpt lat="45.452644" lon="10.4836705"><ele>150.0</ele><time>2026-03-28T08:50:37.573Z</time></trkpt><trkpt lat="45.4526641" lon="10.4838932"><ele>150.0</ele><time>2026-03-28T08:50:38.572Z</time></trkpt><trkpt lat="45.452704" lon="10.4840925"><ele>150.0</ele><time>2026-03-28T08:50:39.574Z</time></trkpt><trkpt lat="45.4527516" lon="10.4842612"><ele>150.0</ele><time>2026-03-28T08:50:40.574Z</time></trkpt><trkpt lat="45.4528097" lon="10.4844024"><ele>150.0</ele><time>2026-03-28T08:50:41.572Z</time></trkpt><trkpt lat="45.4528684" lon="10.4845188"><ele>150.0</ele><time>2026-03-28T08:50:42.573Z</time></trkpt><trkpt lat="45.4529154" lon="10.4846159"><ele>150.0</ele><time>2026-03-28T08:50:43.574Z</time></trkpt><trkpt lat="45.4529398" lon="10.4847728"><ele>150.0</ele><time>2026-03-28T08:50:45.574Z</time></trkpt><trkpt lat="45.4529214" lon="10.4848884"><ele>150.0</ele><time>2026-03-28T08:50:47.574Z</time></trkpt><trkpt lat="45.4528971" lon="10.4849792"><ele>150.0</ele><time>2026-03-28T08:50:50.574Z</time></trkpt><trkpt lat="45.4528514" lon="10.4850417"><ele>151.0</ele><time>2026-03-28T08:50:52.573Z</time></trkpt><trkpt lat="45.4527396" lon="10.4850773"><ele>152.0</ele><time>2026-03-28T08:50:54.573Z</time></trkpt><trkpt lat="45.4526582" lon="10.4850779"><ele>153.0</ele><time>2026-03-28T08:50:55.573Z</time></trkpt><trkpt lat="45.4525828" lon="10.4850787"><ele>154.0</ele><time>2026-03-28T08:50:56.574Z</time></trkpt><trkpt lat="45.4524972" lon="10.4850734"><ele>155.0</ele><time>2026-03-28T08:50:57.574Z</time></trkpt><trkpt lat="45.4524099" lon="10.4850681"><ele>156.0</ele><time>2026-03-28T08:50:58.573Z</time></trkpt><trkpt lat="45.4523123" lon="10.4850568"><ele>156.0</ele><time>2026-03-28T08:50:59.573Z</time></trkpt><trkpt lat="45.4521972" lon="10.4850328"><ele>156.0</ele><time>2026-03-28T08:51:00.573Z</time></trkpt><trkpt lat="45.4520779" lon="10.4850163"><ele>156.0</ele><time>2026-03-28T08:51:01.574Z</time></trkpt><trkpt lat="45.4519585" lon="10.4849891"><ele>156.0</ele><time>2026-03-28T08:51:02.573Z</time></trkpt><trkpt lat="45.4518376" lon="10.4849612"><ele>156.0</ele><time>2026-03-28T08:51:03.573Z</time></trkpt><trkpt lat="45.4517119" lon="10.4849176"><ele>156.0</ele><time>2026-03-28T08:51:04.573Z</time></trkpt><trkpt lat="45.4515794" lon="10.4848594"><ele>156.0</ele><time>2026-03-28T08:51:05.573Z</time></trkpt><trkpt lat="45.4513988" lon="10.4847746"><ele>156.66666666666666</ele><time>2026-03-28T08:51:06.574Z</time></trkpt><trkpt lat="45.4512453" lon="10.4847162"><ele>157.33333333333331</ele><time>2026-03-28T08:51:07.574Z</time></trkpt><trkpt lat="45.4510732" lon="10.4846673"><ele>158.0</ele><time>2026-03-28T08:51:08.574Z</time></trkpt><trkpt lat="45.45091" lon="10.4846319"><ele>158.0</ele><time>2026-03-28T08:51:09.574Z</time></trkpt><trkpt lat="45.4507739" lon="10.4846024"><ele>158.0</ele><time>2026-03-28T08:51:10.574Z</time></trkpt><trkpt lat="45.4506557" lon="10.4845709"><ele>158.0</ele><time>2026-03-28T08:51:11.572Z</time></trkpt><trkpt lat="45.4505471" lon="10.4845239"><ele>158.0</ele><time>2026-03-28T08:51:12.573Z</time></trkpt><trkpt lat="45.4504397" lon="10.484475"><ele>155.5</ele><time>2026-03-28T08:51:13.574Z</time></trkpt><trkpt lat="45.4503289" lon="10.4844269"><ele>153.0</ele><time>2026-03-28T08:51:14.574Z</time></trkpt><trkpt lat="45.4502022" lon="10.4844132"><ele>150.5</ele><time>2026-03-28T08:51:15.574Z</time></trkpt><trkpt lat="45.4500793" lon="10.4843898"><ele>148.0</ele><time>2026-03-28T08:51:16.574Z</time></trkpt><trkpt lat="45.4499566" lon="10.4843758"><ele>148.0</ele><time>2026-03-28T08:51:17.573Z</time></trkpt><trkpt lat="45.449807" lon="10.4843782"><ele>148.0</ele><time>2026-03-28T08:51:18.572Z</time></trkpt><trkpt lat="45.4496449" lon="10.4843989"><ele>148.0</ele><time>2026-03-28T08:51:19.574Z</time></trkpt><trkpt lat="45.4494447" lon="10.4844161"><ele>147.33333333333334</ele><time>2026-03-28T08:51:20.574Z</time></trkpt><trkpt lat="45.4492428" lon="10.4844254"><ele>146.66666666666666</ele><time>2026-03-28T08:51:21.573Z</time></trkpt><trkpt lat="45.4490688" lon="10.4844321"><ele>146.0</ele><time>2026-03-28T08:51:22.573Z</time></trkpt><trkpt lat="45.4489049" lon="10.484432"><ele>146.25</ele><time>2026-03-28T08:51:23.573Z</time></trkpt><trkpt lat="45.4487675" lon="10.4844336"><ele>146.5</ele><time>2026-03-28T08:51:24.573Z</time></trkpt><trkpt lat="45.4486315" lon="10.4844383"><ele>146.75</ele><time>2026-03-28T08:51:25.574Z</time></trkpt><trkpt lat="45.4485345" lon="10.4844446"><ele>147.0</ele><time>2026-03-28T08:51:26.574Z</time></trkpt><trkpt lat="45.4484274" lon="10.4844366"><ele>147.0</ele><time>2026-03-28T08:51:27.573Z</time></trkpt><trkpt lat="45.4483245" lon="10.4844251"><ele>147.0</ele><time>2026-03-28T08:51:28.574Z</time></trkpt><trkpt lat="45.4482279" lon="10.4844125"><ele>147.0</ele><time>2026-03-28T08:51:29.573Z</time></trkpt><trkpt lat="45.4481309" lon="10.4844025"><ele>147.0</ele><time>2026-03-28T08:51:30.573Z</time></trkpt><trkpt lat="45.4480376" lon="10.4844"><ele>147.0</ele><time>2026-03-28T08:51:31.572Z</time></trkpt><trkpt lat="45.4479531" lon="10.4843966"><ele>147.66666666666666</ele><time>2026-03-28T08:51:32.572Z</time></trkpt><trkpt lat="45.4478614" lon="10.4843814"><ele>148.33333333333334</ele><time>2026-03-28T08:51:34.573Z</time></trkpt><trkpt lat="45.4478063" lon="10.4843264"><ele>149.0</ele><time>2026-03-28T08:51:38.573Z</time></trkpt><trkpt lat="45.4477049" lon="10.4842531"><ele>149.66666666666669</ele><time>2026-03-28T08:51:40.574Z</time></trkpt><trkpt lat="45.4476304" lon="10.4841812"><ele>150.33333333333334</ele><time>2026-03-28T08:51:41.573Z</time></trkpt><trkpt lat="45.4475687" lon="10.4841078"><ele>151.0</ele><time>2026-03-28T08:51:42.573Z</time></trkpt><trkpt lat="45.4475121" lon="10.4840272"><ele>151.0</ele><time>2026-03-28T08:51:43.574Z</time></trkpt><trkpt lat="45.4474514" lon="10.4839588"><ele>151.0</ele><time>2026-03-28T08:51:44.572Z</time></trkpt><trkpt lat="45.4473752" lon="10.4839071"><ele>151.0</ele><time>2026-03-28T08:51:45.573Z</time></trkpt><trkpt lat="45.4472872" lon="10.4838701"><ele>151.0</ele><time>2026-03-28T08:51:46.573Z</time></trkpt><trkpt lat="45.4471769" lon="10.4838396"><ele>151.0</ele><time>2026-03-28T08:51:47.574Z</time></trkpt><trkpt lat="45.4470553" lon="10.4838093"><ele>151.5</ele><time>2026-03-28T08:51:48.573Z</time></trkpt><trkpt lat="45.4469272" lon="10.4837771"><ele>152.0</ele><time>2026-03-28T08:51:49.573Z</time></trkpt><trkpt lat="45.4468059" lon="10.483742"><ele>152.5</ele><time>2026-03-28T08:51:50.574Z</time></trkpt><trkpt lat="45.4466919" lon="10.4837147"><ele>153.0</ele><time>2026-03-28T08:51:51.573Z</time></trkpt><trkpt lat="45.4465823" lon="10.4836851"><ele>150.75</ele><time>2026-03-28T08:51:52.573Z</time></trkpt><trkpt lat="45.4464714" lon="10.4836553"><ele>148.5</ele><time>2026-03-28T08:51:53.573Z</time></trkpt><trkpt lat="45.4463553" lon="10.4836281"><ele>146.25</ele><time>2026-03-28T08:51:54.573Z</time></trkpt><trkpt lat="45.4462341" lon="10.4835986"><ele>144.0</ele><time>2026-03-28T08:51:55.573Z</time></trkpt><trkpt lat="45.4461132" lon="10.4835756"><ele>143.75</ele><time>2026-03-28T08:51:56.573Z</time></trkpt><trkpt lat="45.4459898" lon="10.4835617"><ele>143.5</ele><time>2026-03-28T08:51:57.574Z</time></trkpt><trkpt lat="45.4458644" lon="10.4835392"><ele>143.25</ele><time>2026-03-28T08:51:58.573Z</time></trkpt><trkpt lat="45.4457406" lon="10.4835118"><ele>143.0</ele><time>2026-03-28T08:51:59.574Z</time></trkpt><trkpt lat="45.4456162" lon="10.4834857"><ele>143.0</ele><time>2026-03-28T08:52:00.573Z</time></trkpt><trkpt lat="45.4454901" lon="10.4834634"><ele>143.0</ele><time>2026-03-28T08:52:01.574Z</time></trkpt><trkpt lat="45.4453653" lon="10.4834389"><ele>143.0</ele><time>2026-03-28T08:52:02.573Z</time></trkpt><trkpt lat="45.4452363" lon="10.4834078"><ele>143.0</ele><time>2026-03-28T08:52:03.574Z</time></trkpt><trkpt lat="45.4450994" lon="10.4833755"><ele>143.25</ele><time>2026-03-28T08:52:04.572Z</time></trkpt><trkpt lat="45.4449586" lon="10.4833438"><ele>143.5</ele><time>2026-03-28T08:52:05.573Z</time></trkpt><trkpt lat="45.4448081" lon="10.4833086"><ele>143.75</ele><time>2026-03-28T08:52:06.573Z</time></trkpt><trkpt lat="45.4446633" lon="10.483284"><ele>144.0</ele><time>2026-03-28T08:52:07.573Z</time></trkpt><trkpt lat="45.4445306" lon="10.4832704"><ele>144.0</ele><time>2026-03-28T08:52:08.574Z</time></trkpt><trkpt lat="45.4444038" lon="10.4832557"><ele>144.0</ele><time>2026-03-28T08:52:09.573Z</time></trkpt><trkpt lat="45.4442759" lon="10.4832395"><ele>144.0</ele><time>2026-03-28T08:52:10.574Z</time></trkpt><trkpt lat="45.4441562" lon="10.4832183"><ele>144.0</ele><time>2026-03-28T08:52:11.574Z</time></trkpt><trkpt lat="45.4440444" lon="10.4831924"><ele>144.0</ele><time>2026-03-28T08:52:12.574Z</time></trkpt><trkpt lat="45.4439363" lon="10.4831631"><ele>144.0</ele><time>2026-03-28T08:52:13.574Z</time></trkpt><trkpt lat="45.4438313" lon="10.4831301"><ele>144.0</ele><time>2026-03-28T08:52:14.574Z</time></trkpt><trkpt lat="45.4437327" lon="10.4830974"><ele>144.0</ele><time>2026-03-28T08:52:15.574Z</time></trkpt><trkpt lat="45.4436305" lon="10.4830696"><ele>144.0</ele><time>2026-03-28T08:52:16.573Z</time></trkpt><trkpt lat="45.4435228" lon="10.4830502"><ele>144.25</ele><time>2026-03-28T08:52:17.572Z</time></trkpt><trkpt lat="45.4434124" lon="10.4830357"><ele>144.5</ele><time>2026-03-28T08:52:18.573Z</time></trkpt><trkpt lat="45.4432996" lon="10.4830172"><ele>144.75</ele><time>2026-03-28T08:52:19.573Z</time></trkpt><trkpt lat="45.443186" lon="10.4829956"><ele>145.0</ele><time>2026-03-28T08:52:20.573Z</time></trkpt><trkpt lat="45.4430696" lon="10.4829696"><ele>145.25</ele><time>2026-03-28T08:52:21.573Z</time></trkpt><trkpt lat="45.4429517" lon="10.4829399"><ele>145.5</ele><time>2026-03-28T08:52:22.573Z</time></trkpt><trkpt lat="45.4428319" lon="10.4829013"><ele>145.75</ele><time>2026-03-28T08:52:23.573Z</time></trkpt><trkpt lat="45.4427146" lon="10.4828475"><ele>146.0</ele><time>2026-03-28T08:52:24.574Z</time></trkpt><trkpt lat="45.4425967" lon="10.4827814"><ele>144.75</ele><time>2026-03-28T08:52:25.574Z</time></trkpt><trkpt lat="45.4424789" lon="10.4827022"><ele>143.5</ele><time>2026-03-28T08:52:26.574Z</time></trkpt><trkpt lat="45.4423635" lon="10.4826128"><ele>142.25</ele><time>2026-03-28T08:52:27.573Z</time></trkpt><trkpt lat="45.4422444" lon="10.4825188"><ele>141.0</ele><time>2026-03-28T08:52:28.574Z</time></trkpt><trkpt lat="45.4421214" lon="10.4824229"><ele>141.0</ele><time>2026-03-28T08:52:29.574Z</time></trkpt><trkpt lat="45.4420001" lon="10.4823321"><ele>141.0</ele><time>2026-03-28T08:52:30.573Z</time></trkpt><trkpt lat="45.4418773" lon="10.4822461"><ele>141.0</ele><time>2026-03-28T08:52:31.573Z</time></trkpt><trkpt lat="45.441761" lon="10.4821521"><ele>141.0</ele><time>2026-03-28T08:52:32.573Z</time></trkpt><trkpt lat="45.4416521" lon="10.4820631"><ele>140.25</ele><time>2026-03-28T08:52:33.572Z</time></trkpt><trkpt lat="45.44155" lon="10.4819778"><ele>139.5</ele><time>2026-03-28T08:52:34.573Z</time></trkpt><trkpt lat="45.4414511" lon="10.4819004"><ele>138.75</ele><time>2026-03-28T08:52:35.573Z</time></trkpt><trkpt lat="45.441344" lon="10.4818216"><ele>138.0</ele><time>2026-03-28T08:52:36.573Z</time></trkpt><trkpt lat="45.4412317" lon="10.4817455"><ele>138.0</ele><time>2026-03-28T08:52:37.572Z</time></trkpt><trkpt lat="45.4411147" lon="10.4816654"><ele>138.0</ele><time>2026-03-28T08:52:38.574Z</time></trkpt><trkpt lat="45.4409938" lon="10.4815769"><ele>138.0</ele><time>2026-03-28T08:52:39.574Z</time></trkpt><trkpt lat="45.4408712" lon="10.4814892"><ele>138.0</ele><time>2026-03-28T08:52:40.574Z</time></trkpt><trkpt lat="45.4407447" lon="10.4813965"><ele>138.0</ele><time>2026-03-28T08:52:41.573Z</time></trkpt><trkpt lat="45.4406191" lon="10.4813054"><ele>138.0</ele><time>2026-03-28T08:52:42.572Z</time></trkpt><trkpt lat="45.440496" lon="10.4812183"><ele>138.0</ele><time>2026-03-28T08:52:43.573Z</time></trkpt><trkpt lat="45.4403667" lon="10.4811419"><ele>138.0</ele><time>2026-03-28T08:52:44.574Z</time></trkpt><trkpt lat="45.4402396" lon="10.4810818"><ele>137.0</ele><time>2026-03-28T08:52:45.574Z</time></trkpt><trkpt lat="45.4401093" lon="10.4810266"><ele>136.0</ele><time>2026-03-28T08:52:46.574Z</time></trkpt><trkpt lat="45.4399775" lon="10.4809775"><ele>135.0</ele><time>2026-03-28T08:52:47.574Z</time></trkpt><trkpt lat="45.4398403" lon="10.4809309"><ele>134.0</ele><time>2026-03-28T08:52:48.574Z</time></trkpt><trkpt lat="45.4396954" lon="10.4808914"><ele>134.25</ele><time>2026-03-28T08:52:49.574Z</time></trkpt><trkpt lat="45.4395436" lon="10.4808517"><ele>134.5</ele><time>2026-03-28T08:52:50.574Z</time></trkpt><trkpt lat="45.4393952" lon="10.4808122"><ele>134.75</ele><time>2026-03-28T08:52:51.574Z</time></trkpt><trkpt lat="45.4392559" lon="10.4807766"><ele>135.0</ele><time>2026-03-28T08:52:52.572Z</time></trkpt><trkpt lat="45.4391235" lon="10.4807392"><ele>135.0</ele><time>2026-03-28T08:52:53.573Z</time></trkpt><trkpt lat="45.4390013" lon="10.4807008"><ele>135.0</ele><time>2026-03-28T08:52:54.574Z</time></trkpt><trkpt lat="45.43889" lon="10.48067"><ele>135.0</ele><time>2026-03-28T08:52:55.574Z</time></trkpt><trkpt lat="45.4387845" lon="10.4806422"><ele>135.0</ele><time>2026-03-28T08:52:56.573Z</time></trkpt><trkpt lat="45.4386818" lon="10.4806163"><ele>134.6</ele><time>2026-03-28T08:52:57.572Z</time></trkpt><trkpt lat="45.4385901" lon="10.4805901"><ele>134.2</ele><time>2026-03-28T08:52:58.573Z</time></trkpt><trkpt lat="45.4385087" lon="10.480562"><ele>133.8</ele><time>2026-03-28T08:52:59.573Z</time></trkpt><trkpt lat="45.4384278" lon="10.4805364"><ele>133.4</ele><time>2026-03-28T08:53:00.574Z</time></trkpt><trkpt lat="45.4383434" lon="10.4805012"><ele>133.0</ele><time>2026-03-28T08:53:01.574Z</time></trkpt><trkpt lat="45.4382445" lon="10.4804625"><ele>133.0</ele><time>2026-03-28T08:53:02.574Z</time></trkpt><trkpt lat="45.4381296" lon="10.480434"><ele>133.0</ele><time>2026-03-28T08:53:03.574Z</time></trkpt><trkpt lat="45.4380011" lon="10.4804149"><ele>133.0</ele><time>2026-03-28T08:53:04.574Z</time></trkpt><trkpt lat="45.4378578" lon="10.4804035"><ele>133.0</ele><time>2026-03-28T08:53:05.574Z</time></trkpt><trkpt lat="45.4376931" lon="10.4804046"><ele>132.0</ele><time>2026-03-28T08:53:06.572Z</time></trkpt><trkpt lat="45.4375007" lon="10.4804059"><ele>131.0</ele><time>2026-03-28T08:53:07.573Z</time></trkpt><trkpt lat="45.437309" lon="10.4804106"><ele>130.0</ele><time>2026-03-28T08:53:08.573Z</time></trkpt><trkpt lat="45.4371349" lon="10.4804152"><ele>129.66666666666669</ele><time>2026-03-28T08:53:09.574Z</time></trkpt><trkpt lat="45.436978" lon="10.4804225"><ele>129.33333333333334</ele><time>2026-03-28T08:53:10.574Z</time></trkpt><trkpt lat="45.4368316" lon="10.480428"><ele>129.0</ele><time>2026-03-28T08:53:11.574Z</time></trkpt><trkpt lat="45.4366832" lon="10.4804306"><ele>129.66666666666666</ele><time>2026-03-28T08:53:12.573Z</time></trkpt><trkpt lat="45.4365284" lon="10.4804511"><ele>130.33333333333331</ele><time>2026-03-28T08:53:13.573Z</time></trkpt><trkpt lat="45.4363715" lon="10.4804999"><ele>131.0</ele><time>2026-03-28T08:53:14.573Z</time></trkpt><trkpt lat="45.4362056" lon="10.4805754"><ele>131.0</ele><time>2026-03-28T08:53:15.573Z</time></trkpt><trkpt lat="45.4360223" lon="10.48067"><ele>131.0</ele><time>2026-03-28T08:53:16.573Z</time></trkpt><trkpt lat="45.4358482" lon="10.4807631"><ele>131.0</ele><time>2026-03-28T08:53:17.573Z</time></trkpt><trkpt lat="45.4356881" lon="10.4808501"><ele>131.0</ele><time>2026-03-28T08:53:18.573Z</time></trkpt><trkpt lat="45.4355398" lon="10.4809304"><ele>131.0</ele><time>2026-03-28T08:53:19.573Z</time></trkpt><trkpt lat="45.4354001" lon="10.481002"><ele>131.0</ele><time>2026-03-28T08:53:20.573Z</time></trkpt><trkpt lat="45.4352599" lon="10.4810707"><ele>131.0</ele><time>2026-03-28T08:53:21.573Z</time></trkpt><trkpt lat="45.4351127" lon="10.4811385"><ele>131.0</ele><time>2026-03-28T08:53:22.573Z</time></trkpt><trkpt lat="45.4349589" lon="10.4812073"><ele>131.0</ele><time>2026-03-28T08:53:23.574Z</time></trkpt><trkpt lat="45.4347996" lon="10.481271"><ele>131.0</ele><time>2026-03-28T08:53:24.574Z</time></trkpt><trkpt lat="45.4346429" lon="10.4813188"><ele>131.0</ele><time>2026-03-28T08:53:25.573Z</time></trkpt><trkpt lat="45.4344922" lon="10.4813465"><ele>131.0</ele><time>2026-03-28T08:53:26.574Z</time></trkpt><trkpt lat="45.4343435" lon="10.48137"><ele>131.0</ele><time>2026-03-28T08:53:27.574Z</time></trkpt><trkpt lat="45.4341974" lon="10.4813823"><ele>131.0</ele><time>2026-03-28T08:53:28.574Z</time></trkpt><trkpt lat="45.4340582" lon="10.4813798"><ele>131.0</ele><time>2026-03-28T08:53:29.573Z</time></trkpt><trkpt lat="45.4339133" lon="10.4813779"><ele>131.0</ele><time>2026-03-28T08:53:30.573Z</time></trkpt><trkpt lat="45.4337732" lon="10.4813596"><ele>131.0</ele><time>2026-03-28T08:53:31.572Z</time></trkpt><trkpt lat="45.43363" lon="10.4813235"><ele>131.0</ele><time>2026-03-28T08:53:32.573Z</time></trkpt><trkpt lat="45.4334847" lon="10.4812768"><ele>131.0</ele><time>2026-03-28T08:53:33.572Z</time></trkpt><trkpt lat="45.433335" lon="10.4812019"><ele>131.33333333333331</ele><time>2026-03-28T08:53:34.574Z</time></trkpt><trkpt lat="45.4331769" lon="10.4811196"><ele>131.66666666666666</ele><time>2026-03-28T08:53:35.574Z</time></trkpt><trkpt lat="45.4330111" lon="10.4810289"><ele>132.0</ele><time>2026-03-28T08:53:36.573Z</time></trkpt><trkpt lat="45.4328395" lon="10.4809369"><ele>132.0</ele><time>2026-03-28T08:53:37.573Z</time></trkpt><trkpt lat="45.4326578" lon="10.4808407"><ele>132.0</ele><time>2026-03-28T08:53:38.573Z</time></trkpt><trkpt lat="45.4324763" lon="10.4807423"><ele>132.0</ele><time>2026-03-28T08:53:39.573Z</time></trkpt><trkpt lat="45.4322986" lon="10.4806482"><ele>132.33333333333334</ele><time>2026-03-28T08:53:40.573Z</time></trkpt><trkpt lat="45.4321223" lon="10.4805637"><ele>132.66666666666669</ele><time>2026-03-28T08:53:41.573Z</time></trkpt><trkpt lat="45.4319487" lon="10.4804869"><ele>133.0</ele><time>2026-03-28T08:53:42.574Z</time></trkpt><trkpt lat="45.4317804" lon="10.4804134"><ele>131.66666666666669</ele><time>2026-03-28T08:53:43.574Z</time></trkpt><trkpt lat="45.4316181" lon="10.4803471"><ele>130.33333333333334</ele><time>2026-03-28T08:53:44.574Z</time></trkpt><trkpt lat="45.4314626" lon="10.4802933"><ele>129.0</ele><time>2026-03-28T08:53:45.573Z</time></trkpt><trkpt lat="45.4313086" lon="10.4802531"><ele>129.0</ele><time>2026-03-28T08:53:46.573Z</time></trkpt><trkpt lat="45.4311508" lon="10.4802198"><ele>129.0</ele><time>2026-03-28T08:53:47.573Z</time></trkpt><trkpt lat="45.4309912" lon="10.4801836"><ele>129.0</ele><time>2026-03-28T08:53:48.574Z</time></trkpt><trkpt lat="45.4308393" lon="10.4801436"><ele>129.0</ele><time>2026-03-28T08:53:49.574Z</time></trkpt><trkpt lat="45.4306941" lon="10.4801024"><ele>129.0</ele><time>2026-03-28T08:53:50.574Z</time></trkpt><trkpt lat="45.430555" lon="10.480058"><ele>129.0</ele><time>2026-03-28T08:53:51.574Z</time></trkpt><trkpt lat="45.4304186" lon="10.4800215"><ele>129.0</ele><time>2026-03-28T08:53:52.573Z</time></trkpt><trkpt lat="45.4302847" lon="10.4799918"><ele>129.5</ele><time>2026-03-28T08:53:53.573Z</time></trkpt><trkpt lat="45.4301556" lon="10.4799622"><ele>130.0</ele><time>2026-03-28T08:53:54.573Z</time></trkpt><trkpt lat="45.4300319" lon="10.479929"><ele>130.5</ele><time>2026-03-28T08:53:55.573Z</time></trkpt><trkpt lat="45.4299119" lon="10.479896"><ele>131.0</ele><time>2026-03-28T08:53:56.572Z</time></trkpt><trkpt lat="45.4297947" lon="10.479862"><ele>131.0</ele><time>2026-03-28T08:53:57.573Z</time></trkpt><trkpt lat="45.4296748" lon="10.4798295"><ele>131.0</ele><time>2026-03-28T08:53:58.573Z</time></trkpt><trkpt lat="45.429548" lon="10.4797953"><ele>131.0</ele><time>2026-03-28T08:53:59.572Z</time></trkpt><trkpt lat="45.4294164" lon="10.4797646"><ele>131.0</ele><time>2026-03-28T08:54:00.573Z</time></trkpt><trkpt lat="45.4292786" lon="10.4797472"><ele>130.25</ele><time>2026-03-28T08:54:01.572Z</time></trkpt><trkpt lat="45.429141" lon="10.4797338"><ele>129.5</ele><time>2026-03-28T08:54:02.573Z</time></trkpt><trkpt lat="45.4290028" lon="10.4797276"><ele>128.75</ele><time>2026-03-28T08:54:03.572Z</time></trkpt><trkpt lat="45.4288655" lon="10.4797273"><ele>128.0</ele><time>2026-03-28T08:54:04.573Z</time></trkpt><trkpt lat="45.4287306" lon="10.4797256"><ele>127.25</ele><time>2026-03-28T08:54:05.573Z</time></trkpt><trkpt lat="45.4285985" lon="10.4797267"><ele>126.5</ele><time>2026-03-28T08:54:06.574Z</time></trkpt><trkpt lat="45.4284656" lon="10.4797276"><ele>125.75</ele><time>2026-03-28T08:54:07.574Z</time></trkpt><trkpt lat="45.4283299" lon="10.4797263"><ele>125.0</ele><time>2026-03-28T08:54:08.574Z</time></trkpt><trkpt lat="45.4281914" lon="10.4797286"><ele>125.0</ele><time>2026-03-28T08:54:09.574Z</time></trkpt><trkpt lat="45.4280477" lon="10.4797371"><ele>125.0</ele><time>2026-03-28T08:54:10.572Z</time></trkpt><trkpt lat="45.4279031" lon="10.4797399"><ele>125.0</ele><time>2026-03-28T08:54:11.573Z</time></trkpt><trkpt lat="45.4277529" lon="10.4797391"><ele>125.0</ele><time>2026-03-28T08:54:12.573Z</time></trkpt><trkpt lat="45.4275983" lon="10.4797384"><ele>125.33333333333333</ele><time>2026-03-28T08:54:13.573Z</time></trkpt><trkpt lat="45.4274367" lon="10.4797329"><ele>125.66666666666666</ele><time>2026-03-28T08:54:14.573Z</time></trkpt><trkpt lat="45.4272784" lon="10.479717"><ele>126.0</ele><time>2026-03-28T08:54:15.574Z</time></trkpt><trkpt lat="45.4271222" lon="10.4796964"><ele>126.0</ele><time>2026-03-28T08:54:16.572Z</time></trkpt><trkpt lat="45.4269677" lon="10.4796584"><ele>126.0</ele><time>2026-03-28T08:54:17.573Z</time></trkpt><trkpt lat="45.4268158" lon="10.4796165"><ele>126.0</ele><time>2026-03-28T08:54:18.572Z</time></trkpt><trkpt lat="45.4266656" lon="10.4795695"><ele>125.33333333333334</ele><time>2026-03-28T08:54:19.574Z</time></trkpt><trkpt lat="45.4265136" lon="10.479519"><ele>124.66666666666667</ele><time>2026-03-28T08:54:20.574Z</time></trkpt><trkpt lat="45.4263587" lon="10.4794682"><ele>124.0</ele><time>2026-03-28T08:54:21.573Z</time></trkpt><trkpt lat="45.4262004" lon="10.4794187"><ele>124.0</ele><time>2026-03-28T08:54:22.574Z</time></trkpt><trkpt lat="45.426045" lon="10.47937"><ele>124.0</ele><time>2026-03-28T08:54:23.573Z</time></trkpt><trkpt lat="45.4258911" lon="10.4793194"><ele>124.0</ele><time>2026-03-28T08:54:24.574Z</time></trkpt><trkpt lat="45.4257405" lon="10.4792713"><ele>124.0</ele><time>2026-03-28T08:54:25.574Z</time></trkpt><trkpt lat="45.4255948" lon="10.4792229"><ele>124.0</ele><time>2026-03-28T08:54:26.574Z</time></trkpt><trkpt lat="45.4254574" lon="10.4791708"><ele>124.0</ele><time>2026-03-28T08:54:27.573Z</time></trkpt><trkpt lat="45.4253169" lon="10.4791179"><ele>124.0</ele><time>2026-03-28T08:54:28.572Z</time></trkpt><trkpt lat="45.4251722" lon="10.4790638"><ele>124.0</ele><time>2026-03-28T08:54:29.574Z</time></trkpt><trkpt lat="45.42503" lon="10.479019"><ele>124.0</ele><time>2026-03-28T08:54:30.574Z</time></trkpt><trkpt lat="45.4248886" lon="10.4789684"><ele>124.0</ele><time>2026-03-28T08:54:31.574Z</time></trkpt><trkpt lat="45.4247516" lon="10.4789113"><ele>124.0</ele><time>2026-03-28T08:54:32.574Z</time></trkpt><trkpt lat="45.4246181" lon="10.4788569"><ele>124.0</ele><time>2026-03-28T08:54:33.574Z</time></trkpt><trkpt lat="45.4244889" lon="10.4788088"><ele>124.0</ele><time>2026-03-28T08:54:34.572Z</time></trkpt><trkpt lat="45.4243622" lon="10.478757"><ele>124.0</ele><time>2026-03-28T08:54:35.572Z</time></trkpt><trkpt lat="45.4242313" lon="10.4787096"><ele>124.0</ele><time>2026-03-28T08:54:36.572Z</time></trkpt><trkpt lat="45.4240959" lon="10.4786639"><ele>123.75</ele><time>2026-03-28T08:54:37.573Z</time></trkpt><trkpt lat="45.4239575" lon="10.4786114"><ele>123.5</ele><time>2026-03-28T08:54:38.572Z</time></trkpt><trkpt lat="45.4238202" lon="10.4785569"><ele>123.25</ele><time>2026-03-28T08:54:39.573Z</time></trkpt><trkpt lat="45.4236857" lon="10.4784982"><ele>123.0</ele><time>2026-03-28T08:54:40.574Z</time></trkpt><trkpt lat="45.4235465" lon="10.4784367"><ele>123.0</ele><time>2026-03-28T08:54:41.574Z</time></trkpt><trkpt lat="45.4234127" lon="10.4783806"><ele>123.0</ele><time>2026-03-28T08:54:42.574Z</time></trkpt><trkpt lat="45.4232765" lon="10.47832"><ele>123.0</ele><time>2026-03-28T08:54:43.573Z</time></trkpt><trkpt lat="45.4231367" lon="10.4782464"><ele>123.0</ele><time>2026-03-28T08:54:44.574Z</time></trkpt><trkpt lat="45.4229905" lon="10.4781662"><ele>123.66666666666666</ele><time>2026-03-28T08:54:45.573Z</time></trkpt><trkpt lat="45.4228357" lon="10.4780805"><ele>124.33333333333333</ele><time>2026-03-28T08:54:46.574Z</time></trkpt><trkpt lat="45.4226764" lon="10.4779929"><ele>125.0</ele><time>2026-03-28T08:54:47.573Z</time></trkpt><trkpt lat="45.4225249" lon="10.4779054"><ele>123.0</ele><time>2026-03-28T08:54:48.574Z</time></trkpt><trkpt lat="45.4223748" lon="10.4778225"><ele>121.0</ele><time>2026-03-28T08:54:49.574Z</time></trkpt><trkpt lat="45.4222238" lon="10.4777374"><ele>119.0</ele><time>2026-03-28T08:54:50.573Z</time></trkpt><trkpt lat="45.4220788" lon="10.4776543"><ele>119.0</ele><time>2026-03-28T08:54:51.573Z</time></trkpt><trkpt lat="45.4219394" lon="10.4775774"><ele>119.0</ele><time>2026-03-28T08:54:52.572Z</time></trkpt><trkpt lat="45.4218019" lon="10.4774977"><ele>119.0</ele><time>2026-03-28T08:54:53.573Z</time></trkpt><trkpt lat="45.4216606" lon="10.4774259"><ele>119.0</ele><time>2026-03-28T08:54:54.573Z</time></trkpt><trkpt lat="45.4215096" lon="10.4773583"><ele>119.0</ele><time>2026-03-28T08:54:55.573Z</time></trkpt><trkpt lat="45.4213441" lon="10.4773023"><ele>119.0</ele><time>2026-03-28T08:54:56.572Z</time></trkpt><trkpt lat="45.421172" lon="10.4772534"><ele>119.0</ele><time>2026-03-28T08:54:57.574Z</time></trkpt><trkpt lat="45.4209976" lon="10.4772031"><ele>119.66666666666666</ele><time>2026-03-28T08:54:58.574Z</time></trkpt><trkpt lat="45.4208258" lon="10.4771553"><ele>120.33333333333334</ele><time>2026-03-28T08:54:59.574Z</time></trkpt><trkpt lat="45.4206548" lon="10.4771087"><ele>121.0</ele><time>2026-03-28T08:55:00.574Z</time></trkpt><trkpt lat="45.4204816" lon="10.4770638"><ele>119.0</ele><time>2026-03-28T08:55:01.574Z</time></trkpt><trkpt lat="45.4203042" lon="10.4770188"><ele>117.0</ele><time>2026-03-28T08:55:02.574Z</time></trkpt><trkpt lat="45.4201354" lon="10.4769809"><ele>115.0</ele><time>2026-03-28T08:55:03.573Z</time></trkpt><trkpt lat="45.4199649" lon="10.4769454"><ele>115.0</ele><time>2026-03-28T08:55:04.574Z</time></trkpt><trkpt lat="45.4197848" lon="10.4769094"><ele>115.0</ele><time>2026-03-28T08:55:05.574Z</time></trkpt><trkpt lat="45.4196338" lon="10.476869"><ele>115.0</ele><time>2026-03-28T08:55:06.573Z</time></trkpt><trkpt lat="45.4194953" lon="10.4768221"><ele>115.4</ele><time>2026-03-28T08:55:07.573Z</time></trkpt><trkpt lat="45.4193723" lon="10.4767922"><ele>115.8</ele><time>2026-03-28T08:55:08.572Z</time></trkpt><trkpt lat="45.4192569" lon="10.4767648"><ele>116.19999999999999</ele><time>2026-03-28T08:55:09.573Z</time></trkpt><trkpt lat="45.4191536" lon="10.4767409"><ele>116.6</ele><time>2026-03-28T08:55:10.573Z</time></trkpt><trkpt lat="45.4190684" lon="10.4767174"><ele>117.0</ele><time>2026-03-28T08:55:11.573Z</time></trkpt><trkpt lat="45.4190007" lon="10.4767012"><ele>117.0</ele><time>2026-03-28T08:55:12.572Z</time></trkpt><trkpt lat="45.4189007" lon="10.4766847"><ele>116.99999999999999</ele><time>2026-03-28T08:55:14.573Z</time></trkpt><trkpt lat="45.4188177" lon="10.4766666"><ele>116.99999999999999</ele><time>2026-03-28T08:55:16.574Z</time></trkpt><trkpt lat="45.4187159" lon="10.4766546"><ele>117.0</ele><time>2026-03-28T08:55:18.574Z</time></trkpt><trkpt lat="45.4186639" lon="10.4767776"><ele>117.0</ele><time>2026-03-28T08:55:20.574Z</time></trkpt><trkpt lat="45.4186706" lon="10.4768867"><ele>116.5</ele><time>2026-03-28T08:55:21.574Z</time></trkpt><trkpt lat="45.41866" lon="10.4770137"><ele>116.0</ele><time>2026-03-28T08:55:22.574Z</time></trkpt><trkpt lat="45.4186078" lon="10.4771571"><ele>115.5</ele><time>2026-03-28T08:55:23.574Z</time></trkpt><trkpt lat="45.418539" lon="10.4773096"><ele>115.0</ele><time>2026-03-28T08:55:24.573Z</time></trkpt><trkpt lat="45.418455" lon="10.4774491"><ele>116.25</ele><time>2026-03-28T08:55:25.573Z</time></trkpt><trkpt lat="45.4183657" lon="10.4775811"><ele>117.5</ele><time>2026-03-28T08:55:26.573Z</time></trkpt><trkpt lat="45.4182812" lon="10.4777104"><ele>118.75</ele><time>2026-03-28T08:55:27.573Z</time></trkpt><trkpt lat="45.4182042" lon="10.4778426"><ele>120.0</ele><time>2026-03-28T08:55:28.574Z</time></trkpt><trkpt lat="45.4181429" lon="10.478002"><ele>119.33333333333334</ele><time>2026-03-28T08:55:29.574Z</time></trkpt><trkpt lat="45.4180617" lon="10.4781747"><ele>118.66666666666667</ele><time>2026-03-28T08:55:30.573Z</time></trkpt><trkpt lat="45.4180101" lon="10.478492"><ele>118.0</ele><time>2026-03-28T08:55:31.574Z</time></trkpt><trkpt lat="45.4179495" lon="10.4787087"><ele>119.25</ele><time>2026-03-28T08:55:32.574Z</time></trkpt><trkpt lat="45.4178908" lon="10.4789198"><ele>120.5</ele><time>2026-03-28T08:55:33.573Z</time></trkpt><trkpt lat="45.417873" lon="10.4790318"><ele>121.75</ele><time>2026-03-28T08:55:34.573Z</time></trkpt><trkpt lat="45.4178491" lon="10.479186"><ele>123.0</ele><time>2026-03-28T08:55:35.574Z</time></trkpt><trkpt lat="45.4178385" lon="10.4793324"><ele>123.0</ele><time>2026-03-28T08:55:36.574Z</time></trkpt><trkpt lat="45.4179006" lon="10.4794881"><ele>123.0</ele><time>2026-03-28T08:55:37.574Z</time></trkpt><trkpt lat="45.417957" lon="10.479656"><ele>123.0</ele><time>2026-03-28T08:55:38.573Z</time></trkpt><trkpt lat="45.4180188" lon="10.4798385"><ele>123.0</ele><time>2026-03-28T08:55:39.574Z</time></trkpt><trkpt lat="45.4180727" lon="10.4800252"><ele>124.0</ele><time>2026-03-28T08:55:40.572Z</time></trkpt><trkpt lat="45.4181292" lon="10.480228"><ele>125.0</ele><time>2026-03-28T08:55:41.573Z</time></trkpt><trkpt lat="45.4181859" lon="10.4804106"><ele>126.0</ele><time>2026-03-28T08:55:42.573Z</time></trkpt><trkpt lat="45.4182492" lon="10.4805764"><ele>127.0</ele><time>2026-03-28T08:55:43.574Z</time></trkpt><trkpt lat="45.4183321" lon="10.4807115"><ele>127.0</ele><time>2026-03-28T08:55:44.573Z</time></trkpt><trkpt lat="45.4184246" lon="10.4808177"><ele>126.99999999999999</ele><time>2026-03-28T08:55:45.572Z</time></trkpt><trkpt lat="45.4185193" lon="10.4809139"><ele>126.99999999999999</ele><time>2026-03-28T08:55:46.573Z</time></trkpt><trkpt lat="45.4186015" lon="10.481015"><ele>127.0</ele><time>2026-03-28T08:55:47.572Z</time></trkpt><trkpt lat="45.4186711" lon="10.4811215"><ele>127.0</ele><time>2026-03-28T08:55:48.573Z</time></trkpt><trkpt lat="45.4187176" lon="10.4812393"><ele>126.39999999999999</ele><time>2026-03-28T08:55:49.573Z</time></trkpt><trkpt lat="45.4187323" lon="10.4813607"><ele>125.79999999999998</ele><time>2026-03-28T08:55:50.574Z</time></trkpt><trkpt lat="45.4187223" lon="10.4814721"><ele>125.2</ele><time>2026-03-28T08:55:51.573Z</time></trkpt><trkpt lat="45.4186834" lon="10.4816259"><ele>124.6</ele><time>2026-03-28T08:55:53.572Z</time></trkpt><trkpt lat="45.4186579" lon="10.4817508"><ele>124.0</ele><time>2026-03-28T08:55:55.574Z</time></trkpt><trkpt lat="45.4187053" lon="10.4818679"><ele>124.0</ele><time>2026-03-28T08:55:57.574Z</time></trkpt><trkpt lat="45.4187552" lon="10.481951"><ele>124.0</ele><time>2026-03-28T08:55:58.573Z</time></trkpt><trkpt lat="45.4187888" lon="10.4820613"><ele>124.0</ele><time>2026-03-28T08:55:59.573Z</time></trkpt><trkpt lat="45.4187963" lon="10.4822469"><ele>124.0</ele><time>2026-03-28T08:56:00.572Z</time></trkpt><trkpt lat="45.4188034" lon="10.4824265"><ele>124.0</ele><time>2026-03-28T08:56:01.574Z</time></trkpt><trkpt lat="45.4188157" lon="10.4826025"><ele>124.16666666666667</ele><time>2026-03-28T08:56:02.574Z</time></trkpt><trkpt lat="45.4188021" lon="10.4827192"><ele>124.33333333333334</ele><time>2026-03-28T08:56:03.574Z</time></trkpt><trkpt lat="45.4188053" lon="10.4828339"><ele>124.5</ele><time>2026-03-28T08:56:04.573Z</time></trkpt><trkpt lat="45.4188272" lon="10.4829393"><ele>124.66666666666666</ele><time>2026-03-28T08:56:05.573Z</time></trkpt><trkpt lat="45.4188742" lon="10.4830439"><ele>124.83333333333333</ele><time>2026-03-28T08:56:06.573Z</time></trkpt><trkpt lat="45.4189404" lon="10.4831247"><ele>125.0</ele><time>2026-03-28T08:56:07.573Z</time></trkpt><trkpt lat="45.4190143" lon="10.4831941"><ele>124.99999999999999</ele><time>2026-03-28T08:56:08.573Z</time></trkpt><trkpt lat="45.4190877" lon="10.4832724"><ele>125.0</ele><time>2026-03-28T08:56:09.573Z</time></trkpt><trkpt lat="45.4191618" lon="10.4833567"><ele>125.0</ele><time>2026-03-28T08:56:10.573Z</time></trkpt><trkpt lat="45.4192298" lon="10.4834404"><ele>125.0</ele><time>2026-03-28T08:56:11.573Z</time></trkpt><trkpt lat="45.4192797" lon="10.4835159"><ele>124.99999999999999</ele><time>2026-03-28T08:56:12.573Z</time></trkpt><trkpt lat="45.4193256" lon="10.4835967"><ele>125.0</ele><time>2026-03-28T08:56:13.573Z</time></trkpt><trkpt lat="45.4193585" lon="10.48368"><ele>125.6</ele><time>2026-03-28T08:56:14.573Z</time></trkpt><trkpt lat="45.4193765" lon="10.4838727"><ele>126.2</ele><time>2026-03-28T08:56:16.572Z</time></trkpt><trkpt lat="45.4193651" lon="10.4839794"><ele>126.80000000000001</ele><time>2026-03-28T08:56:17.573Z</time></trkpt><trkpt lat="45.4193487" lon="10.4840994"><ele>127.4</ele><time>2026-03-28T08:56:18.573Z</time></trkpt><trkpt lat="45.4193356" lon="10.4842295"><ele>128.0</ele><time>2026-03-28T08:56:19.573Z</time></trkpt><trkpt lat="45.4193328" lon="10.4843491"><ele>127.99999999999999</ele><time>2026-03-28T08:56:20.573Z</time></trkpt><trkpt lat="45.4193432" lon="10.4844581"><ele>128.0</ele><time>2026-03-28T08:56:21.573Z</time></trkpt><trkpt lat="45.4193698" lon="10.4845667"><ele>128.0</ele><time>2026-03-28T08:56:22.573Z</time></trkpt><trkpt lat="45.4194061" lon="10.4846608"><ele>128.0</ele><time>2026-03-28T08:56:23.573Z</time></trkpt><trkpt lat="45.4194664" lon="10.4847579"><ele>127.99999999999999</ele><time>2026-03-28T08:56:24.574Z</time></trkpt><trkpt lat="45.4195298" lon="10.4848578"><ele>128.0</ele><time>2026-03-28T08:56:25.574Z</time></trkpt><trkpt lat="45.4196107" lon="10.4849566"><ele>128.0</ele><time>2026-03-28T08:56:26.574Z</time></trkpt><trkpt lat="45.4197001" lon="10.4850475"><ele>128.0</ele><time>2026-03-28T08:56:27.574Z</time></trkpt><trkpt lat="45.4197985" lon="10.4851359"><ele>128.0</ele><time>2026-03-28T08:56:28.574Z</time></trkpt><trkpt lat="45.419904" lon="10.4852228"><ele>128.0</ele><time>2026-03-28T08:56:29.574Z</time></trkpt><trkpt lat="45.4200112" lon="10.485307"><ele>128.0</ele><time>2026-03-28T08:56:30.572Z</time></trkpt><trkpt lat="45.420121" lon="10.4853822"><ele>128.0</ele><time>2026-03-28T08:56:31.573Z</time></trkpt><trkpt lat="45.4202409" lon="10.4854165"><ele>128.0</ele><time>2026-03-28T08:56:32.572Z</time></trkpt><trkpt lat="45.4203654" lon="10.4854489"><ele>128.0</ele><time>2026-03-28T08:56:33.573Z</time></trkpt><trkpt lat="45.4204928" lon="10.4854733"><ele>130.75</ele><time>2026-03-28T08:56:34.574Z</time></trkpt><trkpt lat="45.4206171" lon="10.485491"><ele>133.5</ele><time>2026-03-28T08:56:35.573Z</time></trkpt><trkpt lat="45.4207385" lon="10.4855041"><ele>136.25</ele><time>2026-03-28T08:56:36.574Z</time></trkpt><trkpt lat="45.4208603" lon="10.4854984"><ele>139.0</ele><time>2026-03-28T08:56:37.573Z</time></trkpt><trkpt lat="45.4209783" lon="10.4854805"><ele>139.0</ele><time>2026-03-28T08:56:38.573Z</time></trkpt><trkpt lat="45.421112" lon="10.4854834"><ele>139.0</ele><time>2026-03-28T08:56:39.573Z</time></trkpt><trkpt lat="45.4212527" lon="10.4855073"><ele>139.0</ele><time>2026-03-28T08:56:40.574Z</time></trkpt><trkpt lat="45.4213954" lon="10.4855395"><ele>139.0</ele><time>2026-03-28T08:56:41.574Z</time></trkpt><trkpt lat="45.421535" lon="10.4855772"><ele>139.25</ele><time>2026-03-28T08:56:42.573Z</time></trkpt><trkpt lat="45.4217065" lon="10.4856203"><ele>139.5</ele><time>2026-03-28T08:56:43.574Z</time></trkpt><trkpt lat="45.4218583" lon="10.4856716"><ele>139.75</ele><time>2026-03-28T08:56:44.573Z</time></trkpt><trkpt lat="45.4219544" lon="10.4857256"><ele>140.0</ele><time>2026-03-28T08:56:45.573Z</time></trkpt><trkpt lat="45.4220569" lon="10.4857969"><ele>140.5</ele><time>2026-03-28T08:56:46.573Z</time></trkpt><trkpt lat="45.4221497" lon="10.4858782"><ele>141.0</ele><time>2026-03-28T08:56:47.573Z</time></trkpt><trkpt lat="45.4222317" lon="10.485997"><ele>141.5</ele><time>2026-03-28T08:56:48.573Z</time></trkpt><trkpt lat="45.4223068" lon="10.4861259"><ele>142.0</ele><time>2026-03-28T08:56:49.572Z</time></trkpt><trkpt lat="45.4223515" lon="10.4862641"><ele>142.5</ele><time>2026-03-28T08:56:50.572Z</time></trkpt><trkpt lat="45.4223989" lon="10.4864368"><ele>143.0</ele><time>2026-03-28T08:56:51.573Z</time></trkpt><trkpt lat="45.4224363" lon="10.4866048"><ele>143.5</ele><time>2026-03-28T08:56:52.573Z</time></trkpt><trkpt lat="45.4224131" lon="10.4867991"><ele>144.0</ele><time>2026-03-28T08:56:53.573Z</time></trkpt><trkpt lat="45.4224065" lon="10.4869978"><ele>144.75</ele><time>2026-03-28T08:56:54.572Z</time></trkpt><trkpt lat="45.4223943" lon="10.4871891"><ele>145.5</ele><time>2026-03-28T08:56:55.573Z</time></trkpt><trkpt lat="45.4223856" lon="10.4873705"><ele>146.25</ele><time>2026-03-28T08:56:56.574Z</time></trkpt><trkpt lat="45.4224019" lon="10.4875683"><ele>147.0</ele><time>2026-03-28T08:56:57.574Z</time></trkpt><trkpt lat="45.4224386" lon="10.4877511"><ele>147.0</ele><time>2026-03-28T08:56:58.574Z</time></trkpt><trkpt lat="45.4224781" lon="10.487923"><ele>147.0</ele><time>2026-03-28T08:56:59.573Z</time></trkpt><trkpt lat="45.4225371" lon="10.488069"><ele>147.0</ele><time>2026-03-28T08:57:00.572Z</time></trkpt><trkpt lat="45.4226049" lon="10.4881881"><ele>147.0</ele><time>2026-03-28T08:57:01.572Z</time></trkpt><trkpt lat="45.4227011" lon="10.4883127"><ele>147.75</ele><time>2026-03-28T08:57:02.574Z</time></trkpt><trkpt lat="45.4227862" lon="10.4884238"><ele>148.5</ele><time>2026-03-28T08:57:03.574Z</time></trkpt><trkpt lat="45.4228812" lon="10.4885023"><ele>149.25</ele><time>2026-03-28T08:57:04.573Z</time></trkpt><trkpt lat="45.4229838" lon="10.4885883"><ele>150.0</ele><time>2026-03-28T08:57:05.573Z</time></trkpt><trkpt lat="45.4231743" lon="10.4887348"><ele>151.0</ele><time>2026-03-28T08:57:06.573Z</time></trkpt><trkpt lat="45.4233225" lon="10.4888565"><ele>152.0</ele><time>2026-03-28T08:57:07.574Z</time></trkpt><trkpt lat="45.4234723" lon="10.488981"><ele>153.0</ele><time>2026-03-28T08:57:08.574Z</time></trkpt><trkpt lat="45.4235969" lon="10.4890994"><ele>153.0</ele><time>2026-03-28T08:57:09.573Z</time></trkpt><trkpt lat="45.4237206" lon="10.4892335"><ele>153.0</ele><time>2026-03-28T08:57:10.573Z</time></trkpt><trkpt lat="45.4238436" lon="10.4893661"><ele>153.0</ele><time>2026-03-28T08:57:11.574Z</time></trkpt><trkpt lat="45.4239607" lon="10.4895119"><ele>152.66666666666666</ele><time>2026-03-28T08:57:12.573Z</time></trkpt><trkpt lat="45.4240805" lon="10.4896679"><ele>152.33333333333331</ele><time>2026-03-28T08:57:13.573Z</time></trkpt><trkpt lat="45.4242041" lon="10.4898237"><ele>152.0</ele><time>2026-03-28T08:57:14.573Z</time></trkpt><trkpt lat="45.4243504" lon="10.4900115"><ele>152.0</ele><time>2026-03-28T08:57:15.573Z</time></trkpt><trkpt lat="45.4244732" lon="10.4901737"><ele>152.0</ele><time>2026-03-28T08:57:16.573Z</time></trkpt><trkpt lat="45.4245891" lon="10.4903232"><ele>152.0</ele><time>2026-03-28T08:57:17.573Z</time></trkpt><trkpt lat="45.4247017" lon="10.4904659"><ele>153.25</ele><time>2026-03-28T08:57:18.573Z</time></trkpt><trkpt lat="45.4248073" lon="10.4905947"><ele>154.5</ele><time>2026-03-28T08:57:19.573Z</time></trkpt><trkpt lat="45.4248897" lon="10.4907113"><ele>155.75</ele><time>2026-03-28T08:57:20.573Z</time></trkpt><trkpt lat="45.4249565" lon="10.490836"><ele>157.0</ele><time>2026-03-28T08:57:21.572Z</time></trkpt><trkpt lat="45.4250255" lon="10.4909539"><ele>157.0</ele><time>2026-03-28T08:57:22.573Z</time></trkpt><trkpt lat="45.4250623" lon="10.4911104"><ele>157.0</ele><time>2026-03-28T08:57:23.574Z</time></trkpt><trkpt lat="45.4250881" lon="10.4912391"><ele>157.0</ele><time>2026-03-28T08:57:24.572Z</time></trkpt><trkpt lat="45.4251142" lon="10.4913758"><ele>157.0</ele><time>2026-03-28T08:57:25.572Z</time></trkpt><trkpt lat="45.4250752" lon="10.4915781"><ele>156.0</ele><time>2026-03-28T08:57:26.573Z</time></trkpt><trkpt lat="45.4250581" lon="10.4917632"><ele>155.0</ele><time>2026-03-28T08:57:27.573Z</time></trkpt><trkpt lat="45.4250586" lon="10.4919772"><ele>154.0</ele><time>2026-03-28T08:57:28.573Z</time></trkpt><trkpt lat="45.4250668" lon="10.49216"><ele>153.0</ele><time>2026-03-28T08:57:29.573Z</time></trkpt><trkpt lat="45.4250664" lon="10.4923213"><ele>152.0</ele><time>2026-03-28T08:57:30.573Z</time></trkpt><trkpt lat="45.4250719" lon="10.4924628"><ele>151.0</ele><time>2026-03-28T08:57:31.573Z</time></trkpt><trkpt lat="45.4251008" lon="10.4925907"><ele>150.0</ele><time>2026-03-28T08:57:32.573Z</time></trkpt><trkpt lat="45.425149" lon="10.4927042"><ele>149.0</ele><time>2026-03-28T08:57:33.573Z</time></trkpt><trkpt lat="45.4252131" lon="10.4927934"><ele>148.0</ele><time>2026-03-28T08:57:34.572Z</time></trkpt><trkpt lat="45.4252841" lon="10.4928688"><ele>147.4</ele><time>2026-03-28T08:57:35.573Z</time></trkpt><trkpt lat="45.4253714" lon="10.4929295"><ele>146.8</ele><time>2026-03-28T08:57:36.573Z</time></trkpt><trkpt lat="45.4254539" lon="10.4929967"><ele>146.2</ele><time>2026-03-28T08:57:37.574Z</time></trkpt><trkpt lat="45.4255427" lon="10.493059"><ele>145.6</ele><time>2026-03-28T08:57:38.574Z</time></trkpt><trkpt lat="45.425641" lon="10.4931176"><ele>145.0</ele><time>2026-03-28T08:57:39.573Z</time></trkpt><trkpt lat="45.4257337" lon="10.4931812"><ele>145.0</ele><time>2026-03-28T08:57:40.573Z</time></trkpt><trkpt lat="45.425829" lon="10.4932479"><ele>145.0</ele><time>2026-03-28T08:57:41.574Z</time></trkpt><trkpt lat="45.4259348" lon="10.4933162"><ele>145.0</ele><time>2026-03-28T08:57:42.574Z</time></trkpt><trkpt lat="45.4260534" lon="10.4933846"><ele>145.0</ele><time>2026-03-28T08:57:43.574Z</time></trkpt><trkpt lat="45.4261819" lon="10.4934543"><ele>145.0</ele><time>2026-03-28T08:57:44.573Z</time></trkpt><trkpt lat="45.4263079" lon="10.4935305"><ele>145.0</ele><time>2026-03-28T08:57:45.574Z</time></trkpt><trkpt lat="45.4264341" lon="10.493617"><ele>145.0</ele><time>2026-03-28T08:57:46.574Z</time></trkpt><trkpt lat="45.4265623" lon="10.4937114"><ele>145.0</ele><time>2026-03-28T08:57:47.573Z</time></trkpt><trkpt lat="45.4266836" lon="10.4938125"><ele>145.0</ele><time>2026-03-28T08:57:48.572Z</time></trkpt><trkpt lat="45.4267946" lon="10.4939092"><ele>145.0</ele><time>2026-03-28T08:57:49.574Z</time></trkpt><trkpt lat="45.4268986" lon="10.4939972"><ele>145.0</ele><time>2026-03-28T08:57:50.574Z</time></trkpt><trkpt lat="45.4269943" lon="10.4940665"><ele>145.0</ele><time>2026-03-28T08:57:51.574Z</time></trkpt><trkpt lat="45.4270705" lon="10.4941027"><ele>145.0</ele><time>2026-03-28T08:57:52.574Z</time></trkpt><trkpt lat="45.4271508" lon="10.4941151"><ele>145.0</ele><time>2026-03-28T08:57:53.574Z</time></trkpt><trkpt lat="45.4272457" lon="10.494115"><ele>145.0</ele><time>2026-03-28T08:57:54.573Z</time></trkpt><trkpt lat="45.4273615" lon="10.4941086"><ele>145.0</ele><time>2026-03-28T08:57:55.573Z</time></trkpt><trkpt lat="45.4274914" lon="10.4940972"><ele>145.0</ele><time>2026-03-28T08:57:56.573Z</time></trkpt><trkpt lat="45.4276228" lon="10.4940817"><ele>145.0</ele><time>2026-03-28T08:57:57.573Z</time></trkpt><trkpt lat="45.427742" lon="10.4940704"><ele>145.0</ele><time>2026-03-28T08:57:58.573Z</time></trkpt><trkpt lat="45.4278537" lon="10.4940626"><ele>145.0</ele><time>2026-03-28T08:57:59.574Z</time></trkpt><trkpt lat="45.4279577" lon="10.4940609"><ele>145.0</ele><time>2026-03-28T08:58:00.573Z</time></trkpt><trkpt lat="45.4280485" lon="10.4940579"><ele>145.0</ele><time>2026-03-28T08:58:01.572Z</time></trkpt><trkpt lat="45.4281352" lon="10.4940559"><ele>145.6</ele><time>2026-03-28T08:58:02.574Z</time></trkpt><trkpt lat="45.4282188" lon="10.4940626"><ele>146.2</ele><time>2026-03-28T08:58:03.574Z</time></trkpt><trkpt lat="45.4283037" lon="10.4940909"><ele>146.8</ele><time>2026-03-28T08:58:04.574Z</time></trkpt><trkpt lat="45.42839" lon="10.4941366"><ele>147.4</ele><time>2026-03-28T08:58:05.574Z</time></trkpt><trkpt lat="45.4284804" lon="10.4941837"><ele>148.0</ele><time>2026-03-28T08:58:06.574Z</time></trkpt><trkpt lat="45.4285754" lon="10.4942364"><ele>148.0</ele><time>2026-03-28T08:58:07.573Z</time></trkpt><trkpt lat="45.4286833" lon="10.4942934"><ele>148.0</ele><time>2026-03-28T08:58:08.573Z</time></trkpt><trkpt lat="45.4288006" lon="10.4943628"><ele>148.0</ele><time>2026-03-28T08:58:09.573Z</time></trkpt><trkpt lat="45.4289287" lon="10.4944302"><ele>148.0</ele><time>2026-03-28T08:58:10.573Z</time></trkpt><trkpt lat="45.4290602" lon="10.4945035"><ele>148.66666666666669</ele><time>2026-03-28T08:58:11.573Z</time></trkpt><trkpt lat="45.4291964" lon="10.494585"><ele>149.33333333333334</ele><time>2026-03-28T08:58:12.572Z</time></trkpt><trkpt lat="45.4293358" lon="10.4946782"><ele>150.0</ele><time>2026-03-28T08:58:13.573Z</time></trkpt><trkpt lat="45.4294798" lon="10.4947817"><ele>148.0</ele><time>2026-03-28T08:58:14.573Z</time></trkpt><trkpt lat="45.4296323" lon="10.4949135"><ele>146.0</ele><time>2026-03-28T08:58:15.573Z</time></trkpt><trkpt lat="45.4297806" lon="10.4950607"><ele>144.0</ele><time>2026-03-28T08:58:16.573Z</time></trkpt><trkpt lat="45.4299151" lon="10.4952124"><ele>145.5</ele><time>2026-03-28T08:58:17.572Z</time></trkpt><trkpt lat="45.4300282" lon="10.4953526"><ele>147.0</ele><time>2026-03-28T08:58:18.572Z</time></trkpt><trkpt lat="45.4301237" lon="10.4954891"><ele>148.5</ele><time>2026-03-28T08:58:19.573Z</time></trkpt><trkpt lat="45.4302036" lon="10.4956451"><ele>150.0</ele><time>2026-03-28T08:58:20.572Z</time></trkpt><trkpt lat="45.4302843" lon="10.4958153"><ele>150.0</ele><time>2026-03-28T08:58:21.573Z</time></trkpt><trkpt lat="45.4303619" lon="10.4959814"><ele>150.0</ele><time>2026-03-28T08:58:22.573Z</time></trkpt><trkpt lat="45.430431" lon="10.4961297"><ele>150.0</ele><time>2026-03-28T08:58:23.573Z</time></trkpt><trkpt lat="45.4305157" lon="10.496279"><ele>150.0</ele><time>2026-03-28T08:58:24.574Z</time></trkpt><trkpt lat="45.4306116" lon="10.4964243"><ele>152.66666666666666</ele><time>2026-03-28T08:58:25.573Z</time></trkpt><trkpt lat="45.4307232" lon="10.496559"><ele>155.33333333333331</ele><time>2026-03-28T08:58:26.574Z</time></trkpt><trkpt lat="45.4308543" lon="10.4966879"><ele>158.0</ele><time>2026-03-28T08:58:27.572Z</time></trkpt><trkpt lat="45.4309982" lon="10.4968206"><ele>158.0</ele><time>2026-03-28T08:58:28.573Z</time></trkpt><trkpt lat="45.4311139" lon="10.4969263"><ele>158.0</ele><time>2026-03-28T08:58:29.573Z</time></trkpt><trkpt lat="45.4312134" lon="10.4970253"><ele>158.0</ele><time>2026-03-28T08:58:30.572Z</time></trkpt><trkpt lat="45.4313065" lon="10.4971287"><ele>158.0</ele><time>2026-03-28T08:58:31.575Z</time></trkpt><trkpt lat="45.4313897" lon="10.4972734"><ele>157.5</ele><time>2026-03-28T08:58:32.574Z</time></trkpt><trkpt lat="45.4314642" lon="10.4974376"><ele>157.0</ele><time>2026-03-28T08:58:33.574Z</time></trkpt><trkpt lat="45.4315259" lon="10.4975862"><ele>156.5</ele><time>2026-03-28T08:58:34.574Z</time></trkpt><trkpt lat="45.4315783" lon="10.4977347"><ele>156.0</ele><time>2026-03-28T08:58:35.574Z</time></trkpt><trkpt lat="45.4316227" lon="10.4978918"><ele>154.5</ele><time>2026-03-28T08:58:36.575Z</time></trkpt><trkpt lat="45.4316699" lon="10.4980608"><ele>153.0</ele><time>2026-03-28T08:58:37.574Z</time></trkpt><trkpt lat="45.431716" lon="10.4982471"><ele>151.5</ele><time>2026-03-28T08:58:38.574Z</time></trkpt><trkpt lat="45.4317471" lon="10.4984466"><ele>150.0</ele><time>2026-03-28T08:58:39.575Z</time></trkpt><trkpt lat="45.431755" lon="10.4986713"><ele>150.0</ele><time>2026-03-28T08:58:40.575Z</time></trkpt><trkpt lat="45.4317432" lon="10.4989338"><ele>150.0</ele><time>2026-03-28T08:58:41.574Z</time></trkpt><trkpt lat="45.4317097" lon="10.4992163"><ele>150.0</ele><time>2026-03-28T08:58:42.574Z</time></trkpt><trkpt lat="45.4316683" lon="10.4994758"><ele>150.0</ele><time>2026-03-28T08:58:43.574Z</time></trkpt><trkpt lat="45.4316287" lon="10.4997235"><ele>150.0</ele><time>2026-03-28T08:58:44.575Z</time></trkpt><trkpt lat="45.4315859" lon="10.4999832"><ele>150.0</ele><time>2026-03-28T08:58:45.575Z</time></trkpt><trkpt lat="45.4315371" lon="10.5002547"><ele>149.33333333333334</ele><time>2026-03-28T08:58:46.575Z</time></trkpt><trkpt lat="45.4314885" lon="10.5005272"><ele>148.66666666666669</ele><time>2026-03-28T08:58:47.574Z</time></trkpt><trkpt lat="45.4314435" lon="10.5007964"><ele>148.0</ele><time>2026-03-28T08:58:48.574Z</time></trkpt><trkpt lat="45.4314012" lon="10.501043"><ele>148.0</ele><time>2026-03-28T08:58:49.574Z</time></trkpt><trkpt lat="45.4313609" lon="10.5012749"><ele>148.0</ele><time>2026-03-28T08:58:50.574Z</time></trkpt><trkpt lat="45.431329" lon="10.5014842"><ele>148.0</ele><time>2026-03-28T08:58:51.574Z</time></trkpt><trkpt lat="45.4312972" lon="10.5016572"><ele>148.0</ele><time>2026-03-28T08:58:52.575Z</time></trkpt><trkpt lat="45.4312693" lon="10.5018036"><ele>147.83333333333334</ele><time>2026-03-28T08:58:53.575Z</time></trkpt><trkpt lat="45.4312432" lon="10.501918"><ele>147.66666666666669</ele><time>2026-03-28T08:58:54.575Z</time></trkpt><trkpt lat="45.4311947" lon="10.502038"><ele>147.5</ele><time>2026-03-28T08:58:56.574Z</time></trkpt><trkpt lat="45.4311175" lon="10.5020378"><ele>147.33333333333334</ele><time>2026-03-28T08:58:58.574Z</time></trkpt><trkpt lat="45.4310639" lon="10.5019881"><ele>147.16666666666666</ele><time>2026-03-28T08:58:59.574Z</time></trkpt><trkpt lat="45.4309901" lon="10.5019082"><ele>147.0</ele><time>2026-03-28T08:59:00.574Z</time></trkpt><trkpt lat="45.4308935" lon="10.5018053"><ele>147.0</ele><time>2026-03-28T08:59:01.573Z</time></trkpt><trkpt lat="45.4307809" lon="10.5016966"><ele>147.0</ele><time>2026-03-28T08:59:02.575Z</time></trkpt><trkpt lat="45.4306404" lon="10.5015562"><ele>147.0</ele><time>2026-03-28T08:59:03.575Z</time></trkpt><trkpt lat="45.4305009" lon="10.5014202"><ele>147.0</ele><time>2026-03-28T08:59:04.575Z</time></trkpt><trkpt lat="45.4303732" lon="10.5012964"><ele>147.0</ele><time>2026-03-28T08:59:05.575Z</time></trkpt><trkpt lat="45.4302563" lon="10.5011844"><ele>147.0</ele><time>2026-03-28T08:59:06.573Z</time></trkpt><trkpt lat="45.430158" lon="10.5010855"><ele>147.0</ele><time>2026-03-28T08:59:07.574Z</time></trkpt><trkpt lat="45.4300666" lon="10.5009872"><ele>146.66666666666666</ele><time>2026-03-28T08:59:08.574Z</time></trkpt><trkpt lat="45.4299918" lon="10.5009027"><ele>146.33333333333334</ele><time>2026-03-28T08:59:09.575Z</time></trkpt><trkpt lat="45.4299299" lon="10.5008415"><ele>146.0</ele><time>2026-03-28T08:59:10.574Z</time></trkpt><trkpt lat="45.4298721" lon="10.5008025"><ele>145.66666666666669</ele><time>2026-03-28T08:59:11.573Z</time></trkpt><trkpt lat="45.4297755" lon="10.5008068"><ele>145.33333333333334</ele><time>2026-03-28T08:59:13.574Z</time></trkpt><trkpt lat="45.4297209" lon="10.5008603"><ele>145.0</ele><time>2026-03-28T08:59:14.574Z</time></trkpt><trkpt lat="45.4296708" lon="10.5009514"><ele>146.25</ele><time>2026-03-28T08:59:15.573Z</time></trkpt><trkpt lat="45.4296086" lon="10.5010691"><ele>147.5</ele><time>2026-03-28T08:59:16.573Z</time></trkpt><trkpt lat="45.4295345" lon="10.5012165"><ele>148.75</ele><time>2026-03-28T08:59:17.575Z</time></trkpt><trkpt lat="45.429461" lon="10.5013539"><ele>150.0</ele><time>2026-03-28T08:59:18.575Z</time></trkpt><trkpt lat="45.4293596" lon="10.501478"><ele>150.25</ele><time>2026-03-28T08:59:19.574Z</time></trkpt><trkpt lat="45.4292688" lon="10.501601"><ele>150.5</ele><time>2026-03-28T08:59:20.574Z</time></trkpt><trkpt lat="45.4291797" lon="10.5017189"><ele>150.75</ele><time>2026-03-28T08:59:21.574Z</time></trkpt><trkpt lat="45.4291177" lon="10.5018339"><ele>151.0</ele><time>2026-03-28T08:59:22.574Z</time></trkpt><trkpt lat="45.4290801" lon="10.5019923"><ele>151.5</ele><time>2026-03-28T08:59:23.575Z</time></trkpt><trkpt lat="45.4290266" lon="10.5021481"><ele>152.0</ele><time>2026-03-28T08:59:24.575Z</time></trkpt><trkpt lat="45.428973" lon="10.5023013"><ele>152.5</ele><time>2026-03-28T08:59:25.575Z</time></trkpt><trkpt lat="45.4289228" lon="10.5024498"><ele>153.0</ele><time>2026-03-28T08:59:26.575Z</time></trkpt><trkpt lat="45.428874" lon="10.5025897"><ele>153.0</ele><time>2026-03-28T08:59:27.574Z</time></trkpt><trkpt lat="45.4288185" lon="10.502731"><ele>153.0</ele><time>2026-03-28T08:59:28.574Z</time></trkpt><trkpt lat="45.4287624" lon="10.5028686"><ele>153.0</ele><time>2026-03-28T08:59:29.573Z</time></trkpt><trkpt lat="45.4287082" lon="10.5029555"><ele>153.0</ele><time>2026-03-28T08:59:30.574Z</time></trkpt><trkpt lat="45.4286474" lon="10.5030343"><ele>153.0</ele><time>2026-03-28T08:59:31.575Z</time></trkpt><trkpt lat="45.4285576" lon="10.5030934"><ele>152.4</ele><time>2026-03-28T08:59:32.574Z</time></trkpt><trkpt lat="45.4284803" lon="10.5031504"><ele>151.8</ele><time>2026-03-28T08:59:33.575Z</time></trkpt><trkpt lat="45.4283916" lon="10.5031981"><ele>151.2</ele><time>2026-03-28T08:59:34.575Z</time></trkpt><trkpt lat="45.4283061" lon="10.5032778"><ele>150.6</ele><time>2026-03-28T08:59:35.574Z</time></trkpt><trkpt lat="45.4282303" lon="10.5033694"><ele>150.0</ele><time>2026-03-28T08:59:36.574Z</time></trkpt><trkpt lat="45.4281814" lon="10.5034882"><ele>150.0</ele><time>2026-03-28T08:59:37.573Z</time></trkpt><trkpt lat="45.4281207" lon="10.5036073"><ele>150.0</ele><time>2026-03-28T08:59:38.575Z</time></trkpt><trkpt lat="45.4280628" lon="10.5037165"><ele>150.0</ele><time>2026-03-28T08:59:39.573Z</time></trkpt><trkpt lat="45.4279841" lon="10.5037678"><ele>150.0</ele><time>2026-03-28T08:59:40.574Z</time></trkpt><trkpt lat="45.4278879" lon="10.5038314"><ele>150.0</ele><time>2026-03-28T08:59:41.574Z</time></trkpt><trkpt lat="45.4277831" lon="10.5039049"><ele>147.8</ele><time>2026-03-28T08:59:42.573Z</time></trkpt><trkpt lat="45.4276746" lon="10.5039778"><ele>145.6</ele><time>2026-03-28T08:59:43.574Z</time></trkpt><trkpt lat="45.4275752" lon="10.5040488"><ele>143.4</ele><time>2026-03-28T08:59:44.575Z</time></trkpt><trkpt lat="45.4274747" lon="10.5040974"><ele>141.2</ele><time>2026-03-28T08:59:45.574Z</time></trkpt><trkpt lat="45.4273731" lon="10.5041522"><ele>139.0</ele><time>2026-03-28T08:59:46.574Z</time></trkpt><trkpt lat="45.4272371" lon="10.5041823"><ele>139.25</ele><time>2026-03-28T08:59:47.573Z</time></trkpt><trkpt lat="45.4271026" lon="10.5042243"><ele>139.5</ele><time>2026-03-28T08:59:48.574Z</time></trkpt><trkpt lat="45.4269813" lon="10.5042316"><ele>139.75</ele><time>2026-03-28T08:59:49.575Z</time></trkpt><trkpt lat="45.4268665" lon="10.5041727"><ele>140.0</ele><time>2026-03-28T08:59:50.574Z</time></trkpt><trkpt lat="45.4267406" lon="10.5041565"><ele>140.0</ele><time>2026-03-28T08:59:51.573Z</time></trkpt><trkpt lat="45.4266151" lon="10.5041915"><ele>140.0</ele><time>2026-03-28T08:59:52.575Z</time></trkpt><trkpt lat="45.4265093" lon="10.5042327"><ele>140.0</ele><time>2026-03-28T08:59:53.574Z</time></trkpt><trkpt lat="45.4263895" lon="10.5043052"><ele>140.0</ele><time>2026-03-28T08:59:54.575Z</time></trkpt><trkpt lat="45.4262588" lon="10.5044094"><ele>139.5</ele><time>2026-03-28T08:59:55.575Z</time></trkpt><trkpt lat="45.4261308" lon="10.5045333"><ele>139.0</ele><time>2026-03-28T08:59:56.574Z</time></trkpt><trkpt lat="45.4260014" lon="10.5046478"><ele>138.5</ele><time>2026-03-28T08:59:57.575Z</time></trkpt><trkpt lat="45.4258839" lon="10.5047525"><ele>138.0</ele><time>2026-03-28T08:59:58.575Z</time></trkpt><trkpt lat="45.4257741" lon="10.5048532"><ele>136.20000000000002</ele><time>2026-03-28T08:59:59.574Z</time></trkpt><trkpt lat="45.4257022" lon="10.5049242"><ele>134.4</ele><time>2026-03-28T09:00:01.575Z</time></trkpt><trkpt lat="45.4255946" lon="10.5050173"><ele>132.60000000000002</ele><time>2026-03-28T09:00:03.574Z</time></trkpt><trkpt lat="45.4255131" lon="10.5050493"><ele>130.8</ele><time>2026-03-28T09:00:04.575Z</time></trkpt><trkpt lat="45.425428" lon="10.5050367"><ele>129.0</ele><time>2026-03-28T09:00:05.574Z</time></trkpt><trkpt lat="45.425358" lon="10.5050281"><ele>129.0</ele><time>2026-03-28T09:00:06.574Z</time></trkpt><trkpt lat="45.4252824" lon="10.5050153"><ele>129.0</ele><time>2026-03-28T09:00:07.575Z</time></trkpt><trkpt lat="45.4251999" lon="10.5049954"><ele>129.0</ele><time>2026-03-28T09:00:08.575Z</time></trkpt><trkpt lat="45.425105" lon="10.5049724"><ele>129.0</ele><time>2026-03-28T09:00:09.573Z</time></trkpt><trkpt lat="45.4250018" lon="10.5049675"><ele>129.0</ele><time>2026-03-28T09:00:10.574Z</time></trkpt><trkpt lat="45.424911" lon="10.5049453"><ele>129.0</ele><time>2026-03-28T09:00:11.574Z</time></trkpt><trkpt lat="45.4248184" lon="10.5049528"><ele>129.0</ele><time>2026-03-28T09:00:12.574Z</time></trkpt><trkpt lat="45.4247223" lon="10.5049494"><ele>129.0</ele><time>2026-03-28T09:00:13.574Z</time></trkpt><trkpt lat="45.4246279" lon="10.5049485"><ele>129.0</ele><time>2026-03-28T09:00:14.573Z</time></trkpt><trkpt lat="45.424503" lon="10.5049368"><ele>129.0</ele><time>2026-03-28T09:00:15.574Z</time></trkpt><trkpt lat="45.4243739" lon="10.5049312"><ele>129.0</ele><time>2026-03-28T09:00:16.575Z</time></trkpt><trkpt lat="45.424252" lon="10.5049166"><ele>129.0</ele><time>2026-03-28T09:00:17.574Z</time></trkpt><trkpt lat="45.4241025" lon="10.5048554"><ele>129.0</ele><time>2026-03-28T09:00:18.574Z</time></trkpt><trkpt lat="45.4239733" lon="10.5048083"><ele>129.0</ele><time>2026-03-28T09:00:19.573Z</time></trkpt><trkpt lat="45.423854" lon="10.5047522"><ele>128.6</ele><time>2026-03-28T09:00:20.574Z</time></trkpt><trkpt lat="45.4237483" lon="10.5046811"><ele>128.2</ele><time>2026-03-28T09:00:21.574Z</time></trkpt><trkpt lat="45.4236618" lon="10.5046072"><ele>127.79999999999998</ele><time>2026-03-28T09:00:22.575Z</time></trkpt><trkpt lat="45.4235887" lon="10.5045429"><ele>127.39999999999999</ele><time>2026-03-28T09:00:23.575Z</time></trkpt><trkpt lat="45.4235205" lon="10.504483"><ele>127.0</ele><time>2026-03-28T09:00:24.574Z</time></trkpt><trkpt lat="45.4234469" lon="10.5044164"><ele>127.0</ele><time>2026-03-28T09:00:25.574Z</time></trkpt><trkpt lat="45.4233278" lon="10.5043124"><ele>127.0</ele><time>2026-03-28T09:00:26.574Z</time></trkpt><trkpt lat="45.4231874" lon="10.5042026"><ele>127.0</ele><time>2026-03-28T09:00:27.574Z</time></trkpt><trkpt lat="45.4230552" lon="10.5041223"><ele>127.0</ele><time>2026-03-28T09:00:28.574Z</time></trkpt><trkpt lat="45.4229298" lon="10.5040501"><ele>125.66666666666667</ele><time>2026-03-28T09:00:29.574Z</time></trkpt><trkpt lat="45.4227997" lon="10.5039713"><ele>124.33333333333334</ele><time>2026-03-28T09:00:30.574Z</time></trkpt><trkpt lat="45.4226535" lon="10.5038885"><ele>123.0</ele><time>2026-03-28T09:00:31.575Z</time></trkpt><trkpt lat="45.4224994" lon="10.5038143"><ele>123.0</ele><time>2026-03-28T09:00:32.574Z</time></trkpt><trkpt lat="45.422362" lon="10.5037508"><ele>123.0</ele><time>2026-03-28T09:00:33.575Z</time></trkpt><trkpt lat="45.4222096" lon="10.5036838"><ele>123.0</ele><time>2026-03-28T09:00:34.575Z</time></trkpt><trkpt lat="45.4220685" lon="10.503628"><ele>123.25</ele><time>2026-03-28T09:00:35.575Z</time></trkpt><trkpt lat="45.421946" lon="10.5035868"><ele>123.5</ele><time>2026-03-28T09:00:36.574Z</time></trkpt><trkpt lat="45.4218365" lon="10.5035388"><ele>123.75</ele><time>2026-03-28T09:00:37.574Z</time></trkpt><trkpt lat="45.4217397" lon="10.5034653"><ele>124.0</ele><time>2026-03-28T09:00:38.574Z</time></trkpt><trkpt lat="45.421652" lon="10.5033678"><ele>124.00000000000001</ele><time>2026-03-28T09:00:39.574Z</time></trkpt><trkpt lat="45.4215694" lon="10.5032616"><ele>124.0</ele><time>2026-03-28T09:00:40.574Z</time></trkpt><trkpt lat="45.4214846" lon="10.5031709"><ele>124.0</ele><time>2026-03-28T09:00:41.574Z</time></trkpt><trkpt lat="45.4214141" lon="10.5031055"><ele>124.0</ele><time>2026-03-28T09:00:42.574Z</time></trkpt><trkpt lat="45.4213469" lon="10.5030965"><ele>124.00000000000001</ele><time>2026-03-28T09:00:43.574Z</time></trkpt><trkpt lat="45.4212766" lon="10.5031504"><ele>124.0</ele><time>2026-03-28T09:00:44.575Z</time></trkpt><trkpt lat="45.4212246" lon="10.5032704"><ele>124.0</ele><time>2026-03-28T09:00:45.575Z</time></trkpt><trkpt lat="45.4211696" lon="10.5034716"><ele>124.0</ele><time>2026-03-28T09:00:46.575Z</time></trkpt><trkpt lat="45.4211066" lon="10.5037047"><ele>124.0</ele><time>2026-03-28T09:00:47.573Z</time></trkpt><trkpt lat="45.4210215" lon="10.5038964"><ele>124.0</ele><time>2026-03-28T09:00:48.574Z</time></trkpt><trkpt lat="45.4209221" lon="10.5040802"><ele>124.0</ele><time>2026-03-28T09:00:49.574Z</time></trkpt><trkpt lat="45.4208291" lon="10.5042615"><ele>124.0</ele><time>2026-03-28T09:00:50.574Z</time></trkpt><trkpt lat="45.4207782" lon="10.5044676"><ele>123.0</ele><time>2026-03-28T09:00:51.574Z</time></trkpt><trkpt lat="45.4207464" lon="10.5047088"><ele>122.0</ele><time>2026-03-28T09:00:52.574Z</time></trkpt><trkpt lat="45.4206988" lon="10.5050149"><ele>121.0</ele><time>2026-03-28T09:00:53.575Z</time></trkpt><trkpt lat="45.4206418" lon="10.505335"><ele>121.0</ele><time>2026-03-28T09:00:54.575Z</time></trkpt><trkpt lat="45.4205996" lon="10.5056194"><ele>121.0</ele><time>2026-03-28T09:00:55.575Z</time></trkpt><trkpt lat="45.4205641" lon="10.5058941"><ele>121.0</ele><time>2026-03-28T09:00:56.574Z</time></trkpt><trkpt lat="45.420526" lon="10.5061626"><ele>121.0</ele><time>2026-03-28T09:00:57.574Z</time></trkpt><trkpt lat="45.4204913" lon="10.5064466"><ele>121.0</ele><time>2026-03-28T09:00:58.574Z</time></trkpt><trkpt lat="45.4204583" lon="10.5067407"><ele>121.0</ele><time>2026-03-28T09:00:59.575Z</time></trkpt><trkpt lat="45.4204312" lon="10.5070091"><ele>120.5</ele><time>2026-03-28T09:01:00.575Z</time></trkpt><trkpt lat="45.420408" lon="10.5072381"><ele>120.0</ele><time>2026-03-28T09:01:01.574Z</time></trkpt><trkpt lat="45.4203921" lon="10.5074123"><ele>119.5</ele><time>2026-03-28T09:01:02.574Z</time></trkpt><trkpt lat="45.4203799" lon="10.5075635"><ele>119.0</ele><time>2026-03-28T09:01:03.574Z</time></trkpt><trkpt lat="45.420371" lon="10.5076775"><ele>119.0</ele><time>2026-03-28T09:01:04.573Z</time></trkpt><trkpt lat="45.4203693" lon="10.5077824"><ele>119.0</ele><time>2026-03-28T09:01:05.574Z</time></trkpt><trkpt lat="45.420392" lon="10.507908"><ele>119.0</ele><time>2026-03-28T09:01:06.574Z</time></trkpt><trkpt lat="45.4204286" lon="10.5080547"><ele>119.0</ele><time>2026-03-28T09:01:07.575Z</time></trkpt><trkpt lat="45.4204899" lon="10.50824"><ele>119.0</ele><time>2026-03-28T09:01:08.575Z</time></trkpt><trkpt lat="45.4205474" lon="10.5084627"><ele>119.25</ele><time>2026-03-28T09:01:09.575Z</time></trkpt><trkpt lat="45.4205953" lon="10.5086697"><ele>119.5</ele><time>2026-03-28T09:01:10.575Z</time></trkpt><trkpt lat="45.4206478" lon="10.5088632"><ele>119.75</ele><time>2026-03-28T09:01:11.575Z</time></trkpt><trkpt lat="45.4206964" lon="10.5090482"><ele>120.0</ele><time>2026-03-28T09:01:12.574Z</time></trkpt><trkpt lat="45.4207427" lon="10.5092304"><ele>119.5</ele><time>2026-03-28T09:01:13.573Z</time></trkpt><trkpt lat="45.4207968" lon="10.5094169"><ele>119.0</ele><time>2026-03-28T09:01:14.574Z</time></trkpt><trkpt lat="45.4208711" lon="10.5095898"><ele>118.5</ele><time>2026-03-28T09:01:15.575Z</time></trkpt><trkpt lat="45.4209592" lon="10.5097269"><ele>118.0</ele><time>2026-03-28T09:01:16.575Z</time></trkpt><trkpt lat="45.4210639" lon="10.5098546"><ele>118.0</ele><time>2026-03-28T09:01:17.575Z</time></trkpt><trkpt lat="45.4211648" lon="10.5099652"><ele>118.00000000000001</ele><time>2026-03-28T09:01:18.575Z</time></trkpt><trkpt lat="45.421253" lon="10.5100622"><ele>118.00000000000001</ele><time>2026-03-28T09:01:19.575Z</time></trkpt><trkpt lat="45.4213148" lon="10.5101607"><ele>118.0</ele><time>2026-03-28T09:01:20.575Z</time></trkpt><trkpt lat="45.4213501" lon="10.510258"><ele>118.0</ele><time>2026-03-28T09:01:21.575Z</time></trkpt><trkpt lat="45.421326" lon="10.5103755"><ele>118.80000000000001</ele><time>2026-03-28T09:01:23.574Z</time></trkpt><trkpt lat="45.4212532" lon="10.5104498"><ele>119.60000000000001</ele><time>2026-03-28T09:01:25.574Z</time></trkpt><trkpt lat="45.4211814" lon="10.5104662"><ele>120.39999999999999</ele><time>2026-03-28T09:01:26.573Z</time></trkpt><trkpt lat="45.421087" lon="10.5104788"><ele>121.19999999999999</ele><time>2026-03-28T09:01:27.574Z</time></trkpt><trkpt lat="45.4209867" lon="10.5105024"><ele>122.0</ele><time>2026-03-28T09:01:28.574Z</time></trkpt><trkpt lat="45.4208944" lon="10.510556"><ele>122.0</ele><time>2026-03-28T09:01:29.575Z</time></trkpt><trkpt lat="45.4208004" lon="10.5106272"><ele>121.99999999999999</ele><time>2026-03-28T09:01:30.575Z</time></trkpt><trkpt lat="45.4207087" lon="10.5107027"><ele>121.99999999999999</ele><time>2026-03-28T09:01:31.573Z</time></trkpt><trkpt lat="45.4206724" lon="10.5108376"><ele>122.0</ele><time>2026-03-28T09:01:32.575Z</time></trkpt><trkpt lat="45.4206425" lon="10.5109258"><ele>122.0</ele><time>2026-03-28T09:01:33.573Z</time></trkpt><trkpt lat="45.4206072" lon="10.5110891"><ele>122.0</ele><time>2026-03-28T09:01:35.574Z</time></trkpt><trkpt lat="45.4205913" lon="10.51124"><ele>121.99999999999999</ele><time>2026-03-28T09:01:37.574Z</time></trkpt><trkpt lat="45.4205624" lon="10.5113727"><ele>121.99999999999999</ele><time>2026-03-28T09:01:41.573Z</time></trkpt><trkpt lat="45.4205596" lon="10.5114804"><ele>122.0</ele><time>2026-03-28T09:01:42.574Z</time></trkpt><trkpt lat="45.4205184" lon="10.5116218"><ele>122.0</ele><time>2026-03-28T09:01:44.575Z</time></trkpt><trkpt lat="45.4204802" lon="10.5117106"><ele>121.83333333333333</ele><time>2026-03-28T09:01:47.574Z</time></trkpt><trkpt lat="45.4204076" lon="10.5117313"><ele>121.66666666666666</ele><time>2026-03-28T09:01:50.575Z</time></trkpt><trkpt lat="45.4203423" lon="10.5117156"><ele>121.5</ele><time>2026-03-28T09:01:53.574Z</time></trkpt><trkpt lat="45.4203279" lon="10.5118165"><ele>121.33333333333334</ele><time>2026-03-28T09:02:05.574Z</time></trkpt><trkpt lat="45.4204008" lon="10.5118252"><ele>121.16666666666667</ele><time>2026-03-28T09:02:07.574Z</time></trkpt><trkpt lat="45.4205033" lon="10.5117911"><ele>121.0</ele><time>2026-03-28T09:02:09.574Z</time></trkpt><trkpt lat="45.4206221" lon="10.5117871"><ele>121.0</ele><time>2026-03-28T09:02:11.574Z</time></trkpt><trkpt lat="45.4206839" lon="10.5118064"><ele>120.99999999999999</ele><time>2026-03-28T09:02:12.574Z</time></trkpt><trkpt lat="45.4207456" lon="10.5118629"><ele>121.0</ele><time>2026-03-28T09:02:13.575Z</time></trkpt><trkpt lat="45.4208012" lon="10.5119418"><ele>121.0</ele><time>2026-03-28T09:02:14.575Z</time></trkpt><trkpt lat="45.4208332" lon="10.512031"><ele>120.99999999999999</ele><time>2026-03-28T09:02:15.573Z</time></trkpt><trkpt lat="45.4208358" lon="10.5121212"><ele>121.0</ele><time>2026-03-28T09:02:16.575Z</time></trkpt><trkpt lat="45.4207795" lon="10.5122273"><ele>121.0</ele><time>2026-03-28T09:02:18.574Z</time></trkpt><trkpt lat="45.4206928" lon="10.5122238"><ele>121.0</ele><time>2026-03-28T09:02:20.575Z</time></trkpt><trkpt lat="45.4205705" lon="10.5122855"><ele>121.0</ele><time>2026-03-28T09:02:22.575Z</time></trkpt><trkpt lat="45.4204843" lon="10.512333"><ele>121.0</ele><time>2026-03-28T09:02:23.574Z</time></trkpt><trkpt lat="45.4203798" lon="10.5123778"><ele>121.0</ele><time>2026-03-28T09:02:24.575Z</time></trkpt><trkpt lat="45.4202654" lon="10.5124342"><ele>121.0</ele><time>2026-03-28T09:02:25.575Z</time></trkpt><trkpt lat="45.4201366" lon="10.5124941"><ele>121.0</ele><time>2026-03-28T09:02:26.575Z</time></trkpt><trkpt lat="45.4199974" lon="10.5125485"><ele>121.0</ele><time>2026-03-28T09:02:27.575Z</time></trkpt><trkpt lat="45.4198482" lon="10.5126071"><ele>121.0</ele><time>2026-03-28T09:02:28.574Z</time></trkpt><trkpt lat="45.4196881" lon="10.5126648"><ele>121.33333333333334</ele><time>2026-03-28T09:02:29.573Z</time></trkpt><trkpt lat="45.4195049" lon="10.5127117"><ele>121.66666666666666</ele><time>2026-03-28T09:02:30.573Z</time></trkpt><trkpt lat="45.4192553" lon="10.5127391"><ele>122.0</ele><time>2026-03-28T09:02:31.574Z</time></trkpt><trkpt lat="45.4189882" lon="10.5127576"><ele>119.5</ele><time>2026-03-28T09:02:32.574Z</time></trkpt><trkpt lat="45.4186934" lon="10.5127772"><ele>117.0</ele><time>2026-03-28T09:02:33.574Z</time></trkpt><trkpt lat="45.4183736" lon="10.5127989"><ele>117.0</ele><time>2026-03-28T09:02:34.575Z</time></trkpt><trkpt lat="45.4180359" lon="10.5128267"><ele>117.0</ele><time>2026-03-28T09:02:35.575Z</time></trkpt><trkpt lat="45.4176829" lon="10.5128559"><ele>116.0</ele><time>2026-03-28T09:02:36.574Z</time></trkpt><trkpt lat="45.4173137" lon="10.5128861"><ele>115.0</ele><time>2026-03-28T09:02:37.574Z</time></trkpt><trkpt lat="45.4169667" lon="10.5129126"><ele>114.5</ele><time>2026-03-28T09:02:38.575Z</time></trkpt><trkpt lat="45.4166582" lon="10.5129322"><ele>114.0</ele><time>2026-03-28T09:02:39.575Z</time></trkpt><trkpt lat="45.4163874" lon="10.5129521"><ele>115.0</ele><time>2026-03-28T09:02:40.574Z</time></trkpt><trkpt lat="45.4161498" lon="10.512967"><ele>116.0</ele><time>2026-03-28T09:02:41.575Z</time></trkpt><trkpt lat="45.4159292" lon="10.5129787"><ele>116.0</ele><time>2026-03-28T09:02:42.575Z</time></trkpt><trkpt lat="45.4157218" lon="10.5129841"><ele>116.0</ele><time>2026-03-28T09:02:43.574Z</time></trkpt><trkpt lat="45.4155332" lon="10.512976"><ele>116.0</ele><time>2026-03-28T09:02:44.574Z</time></trkpt><trkpt lat="45.4153684" lon="10.5129487"><ele>116.16666666666666</ele><time>2026-03-28T09:02:45.574Z</time></trkpt><trkpt lat="45.4152354" lon="10.5129177"><ele>116.33333333333333</ele><time>2026-03-28T09:02:46.575Z</time></trkpt><trkpt lat="45.4151483" lon="10.5128937"><ele>116.5</ele><time>2026-03-28T09:02:47.574Z</time></trkpt><trkpt lat="45.4150821" lon="10.5128777"><ele>116.66666666666666</ele><time>2026-03-28T09:02:48.575Z</time></trkpt><trkpt lat="45.415027" lon="10.5129239"><ele>116.83333333333333</ele><time>2026-03-28T09:02:50.574Z</time></trkpt><trkpt lat="45.4149839" lon="10.5130418"><ele>117.0</ele><time>2026-03-28T09:02:52.574Z</time></trkpt><trkpt lat="45.4149603" lon="10.5131937"><ele>117.0</ele><time>2026-03-28T09:02:54.573Z</time></trkpt><trkpt lat="45.4149513" lon="10.5132952"><ele>117.0</ele><time>2026-03-28T09:02:55.575Z</time></trkpt><trkpt lat="45.4149442" lon="10.5134198"><ele>117.0</ele><time>2026-03-28T09:02:56.575Z</time></trkpt><trkpt lat="45.4149449" lon="10.5135674"><ele>117.0</ele><time>2026-03-28T09:02:57.574Z</time></trkpt><trkpt lat="45.4149449" lon="10.5136971"><ele>117.0</ele><time>2026-03-28T09:02:58.574Z</time></trkpt><trkpt lat="45.4149401" lon="10.5138045"><ele>117.0</ele><time>2026-03-28T09:02:59.575Z</time></trkpt><trkpt lat="45.4148844" lon="10.5139528"><ele>116.8</ele><time>2026-03-28T09:03:01.573Z</time></trkpt><trkpt lat="45.4148206" lon="10.5139958"><ele>116.6</ele><time>2026-03-28T09:03:02.574Z</time></trkpt><trkpt lat="45.4147292" lon="10.51401"><ele>116.39999999999999</ele><time>2026-03-28T09:03:03.574Z</time></trkpt><trkpt lat="45.414621" lon="10.5140131"><ele>116.19999999999999</ele><time>2026-03-28T09:03:04.574Z</time></trkpt><trkpt lat="45.4144912" lon="10.5140134"><ele>116.0</ele><time>2026-03-28T09:03:05.574Z</time></trkpt><trkpt lat="45.4143675" lon="10.5140248"><ele>116.0</ele><time>2026-03-28T09:03:06.574Z</time></trkpt><trkpt lat="45.4142447" lon="10.514057"><ele>116.0</ele><time>2026-03-28T09:03:07.574Z</time></trkpt><trkpt lat="45.4141345" lon="10.5141173"><ele>116.0</ele><time>2026-03-28T09:03:08.574Z</time></trkpt><trkpt lat="45.4140159" lon="10.5141926"><ele>116.0</ele><time>2026-03-28T09:03:09.575Z</time></trkpt><trkpt lat="45.4138745" lon="10.5142646"><ele>116.0</ele><time>2026-03-28T09:03:10.575Z</time></trkpt><trkpt lat="45.4137321" lon="10.5143165"><ele>116.0</ele><time>2026-03-28T09:03:11.575Z</time></trkpt><trkpt lat="45.4136297" lon="10.5143635"><ele>116.0</ele><time>2026-03-28T09:03:12.575Z</time></trkpt><trkpt lat="45.4135454" lon="10.5144191"><ele>116.0</ele><time>2026-03-28T09:03:13.575Z</time></trkpt><trkpt lat="45.4134858" lon="10.5144932"><ele>116.0</ele><time>2026-03-28T09:03:14.575Z</time></trkpt><trkpt lat="45.4134316" lon="10.5145999"><ele>116.0</ele><time>2026-03-28T09:03:15.575Z</time></trkpt><trkpt lat="45.4133883" lon="10.5147313"><ele>116.0</ele><time>2026-03-28T09:03:16.574Z</time></trkpt><trkpt lat="45.4133456" lon="10.5148952"><ele>116.0</ele><time>2026-03-28T09:03:17.574Z</time></trkpt><trkpt lat="45.4133022" lon="10.5150876"><ele>116.0</ele><time>2026-03-28T09:03:18.574Z</time></trkpt><trkpt lat="45.4132526" lon="10.515302"><ele>116.0</ele><time>2026-03-28T09:03:19.574Z</time></trkpt><trkpt lat="45.4131901" lon="10.5155335"><ele>116.0</ele><time>2026-03-28T09:03:20.574Z</time></trkpt><trkpt lat="45.413118" lon="10.5157668"><ele>116.0</ele><time>2026-03-28T09:03:21.574Z</time></trkpt><trkpt lat="45.4130426" lon="10.5159955"><ele>115.66666666666666</ele><time>2026-03-28T09:03:22.574Z</time></trkpt><trkpt lat="45.4129689" lon="10.5162041"><ele>115.33333333333334</ele><time>2026-03-28T09:03:23.574Z</time></trkpt><trkpt lat="45.4128967" lon="10.5164124"><ele>115.0</ele><time>2026-03-28T09:03:24.574Z</time></trkpt><trkpt lat="45.4128244" lon="10.5166256"><ele>114.66666666666667</ele><time>2026-03-28T09:03:25.573Z</time></trkpt><trkpt lat="45.4127529" lon="10.5168405"><ele>114.33333333333334</ele><time>2026-03-28T09:03:26.574Z</time></trkpt><trkpt lat="45.4126874" lon="10.517041"><ele>114.0</ele><time>2026-03-28T09:03:27.575Z</time></trkpt><trkpt lat="45.4126216" lon="10.5172297"><ele>114.0</ele><time>2026-03-28T09:03:28.575Z</time></trkpt><trkpt lat="45.4125451" lon="10.5174005"><ele>114.0</ele><time>2026-03-28T09:03:29.574Z</time></trkpt><trkpt lat="45.4124593" lon="10.517549"><ele>114.0</ele><time>2026-03-28T09:03:30.574Z</time></trkpt><trkpt lat="45.4123623" lon="10.5176825"><ele>114.0</ele><time>2026-03-28T09:03:31.575Z</time></trkpt><trkpt lat="45.4122752" lon="10.5177945"><ele>114.0</ele><time>2026-03-28T09:03:32.574Z</time></trkpt><trkpt lat="45.4121896" lon="10.5178943"><ele>114.0</ele><time>2026-03-28T09:03:33.573Z</time></trkpt><trkpt lat="45.412097" lon="10.5180026"><ele>114.0</ele><time>2026-03-28T09:03:34.574Z</time></trkpt><trkpt lat="45.4120017" lon="10.5181231"><ele>114.0</ele><time>2026-03-28T09:03:35.574Z</time></trkpt><trkpt lat="45.4119078" lon="10.5182655"><ele>115.25</ele><time>2026-03-28T09:03:36.575Z</time></trkpt><trkpt lat="45.4118167" lon="10.5184268"><ele>116.5</ele><time>2026-03-28T09:03:37.575Z</time></trkpt><trkpt lat="45.411731" lon="10.5185956"><ele>117.75</ele><time>2026-03-28T09:03:38.575Z</time></trkpt><trkpt lat="45.4116534" lon="10.5187455"><ele>119.0</ele><time>2026-03-28T09:03:39.575Z</time></trkpt><trkpt lat="45.4115844" lon="10.5188751"><ele>118.99999999999999</ele><time>2026-03-28T09:03:40.575Z</time></trkpt><trkpt lat="45.4115276" lon="10.5189798"><ele>119.0</ele><time>2026-03-28T09:03:41.575Z</time></trkpt><trkpt lat="45.4114737" lon="10.519071"><ele>119.0</ele><time>2026-03-28T09:03:42.575Z</time></trkpt><trkpt lat="45.4114291" lon="10.519153"><ele>119.0</ele><time>2026-03-28T09:03:43.575Z</time></trkpt><trkpt lat="45.4114028" lon="10.5192442"><ele>118.99999999999999</ele><time>2026-03-28T09:03:44.574Z</time></trkpt><trkpt lat="45.4114027" lon="10.5193361"><ele>119.0</ele><time>2026-03-28T09:03:45.574Z</time></trkpt><trkpt lat="45.4114331" lon="10.5194218"><ele>119.0</ele><time>2026-03-28T09:03:46.574Z</time></trkpt><trkpt lat="45.4114913" lon="10.5195289"><ele>119.0</ele><time>2026-03-28T09:03:47.574Z</time></trkpt><trkpt lat="45.4115434" lon="10.5196386"><ele>119.0</ele><time>2026-03-28T09:03:48.574Z</time></trkpt><trkpt lat="45.411571" lon="10.5197725"><ele>119.0</ele><time>2026-03-28T09:03:49.574Z</time></trkpt><trkpt lat="45.4115834" lon="10.5199453"><ele>119.0</ele><time>2026-03-28T09:03:50.574Z</time></trkpt><trkpt lat="45.4115809" lon="10.5201505"><ele>118.5</ele><time>2026-03-28T09:03:51.573Z</time></trkpt><trkpt lat="45.4115726" lon="10.5203527"><ele>118.0</ele><time>2026-03-28T09:03:52.575Z</time></trkpt><trkpt lat="45.4115681" lon="10.5205242"><ele>117.5</ele><time>2026-03-28T09:03:53.575Z</time></trkpt><trkpt lat="45.4115793" lon="10.5206806"><ele>117.0</ele><time>2026-03-28T09:03:54.574Z</time></trkpt><trkpt lat="45.4116052" lon="10.5208131"><ele>116.8</ele><time>2026-03-28T09:03:55.575Z</time></trkpt><trkpt lat="45.4116499" lon="10.5209185"><ele>116.6</ele><time>2026-03-28T09:03:56.574Z</time></trkpt><trkpt lat="45.4117174" lon="10.5210069"><ele>116.39999999999999</ele><time>2026-03-28T09:03:57.575Z</time></trkpt><trkpt lat="45.4118032" lon="10.5210785"><ele>116.19999999999999</ele><time>2026-03-28T09:03:58.575Z</time></trkpt><trkpt lat="45.4119053" lon="10.5211425"><ele>116.0</ele><time>2026-03-28T09:03:59.574Z</time></trkpt><trkpt lat="45.4119926" lon="10.5212034"><ele>116.19999999999999</ele><time>2026-03-28T09:04:00.573Z</time></trkpt><trkpt lat="45.4120664" lon="10.5212692"><ele>116.39999999999999</ele><time>2026-03-28T09:04:01.574Z</time></trkpt><trkpt lat="45.4121216" lon="10.5213541"><ele>116.6</ele><time>2026-03-28T09:04:02.575Z</time></trkpt><trkpt lat="45.4121557" lon="10.5214671"><ele>116.8</ele><time>2026-03-28T09:04:03.575Z</time></trkpt><trkpt lat="45.4121645" lon="10.5216016"><ele>117.0</ele><time>2026-03-28T09:04:04.574Z</time></trkpt><trkpt lat="45.4121484" lon="10.5217493"><ele>117.0</ele><time>2026-03-28T09:04:05.575Z</time></trkpt><trkpt lat="45.412117" lon="10.5218768"><ele>117.0</ele><time>2026-03-28T09:04:06.575Z</time></trkpt><trkpt lat="45.4120881" lon="10.5219839"><ele>117.0</ele><time>2026-03-28T09:04:07.575Z</time></trkpt><trkpt lat="45.4120682" lon="10.522072"><ele>117.0</ele><time>2026-03-28T09:04:08.575Z</time></trkpt><trkpt lat="45.4120677" lon="10.5221851"><ele>117.0</ele><time>2026-03-28T09:04:10.574Z</time></trkpt><trkpt lat="45.4121375" lon="10.5222741"><ele>117.0</ele><time>2026-03-28T09:04:12.575Z</time></trkpt><trkpt lat="45.4122062" lon="10.5223328"><ele>117.75</ele><time>2026-03-28T09:04:13.575Z</time></trkpt><trkpt lat="45.4123007" lon="10.5223947"><ele>118.5</ele><time>2026-03-28T09:04:14.574Z</time></trkpt><trkpt lat="45.4124191" lon="10.5224541"><ele>119.25</ele><time>2026-03-28T09:04:15.574Z</time></trkpt><trkpt lat="45.4125592" lon="10.5225223"><ele>120.0</ele><time>2026-03-28T09:04:16.574Z</time></trkpt><trkpt lat="45.4127008" lon="10.5225889"><ele>120.0</ele><time>2026-03-28T09:04:17.575Z</time></trkpt><trkpt lat="45.4128545" lon="10.5226658"><ele>120.0</ele><time>2026-03-28T09:04:18.574Z</time></trkpt><trkpt lat="45.4130041" lon="10.5227463"><ele>120.0</ele><time>2026-03-28T09:04:19.574Z</time></trkpt><trkpt lat="45.4131297" lon="10.5228155"><ele>120.0</ele><time>2026-03-28T09:04:20.573Z</time></trkpt><trkpt lat="45.4132659" lon="10.5228857"><ele>120.0</ele><time>2026-03-28T09:04:21.574Z</time></trkpt><trkpt lat="45.4134093" lon="10.5229457"><ele>120.0</ele><time>2026-03-28T09:04:22.574Z</time></trkpt><trkpt lat="45.4135577" lon="10.5229956"><ele>120.0</ele><time>2026-03-28T09:04:23.574Z</time></trkpt><trkpt lat="45.4137084" lon="10.5230331"><ele>119.0</ele><time>2026-03-28T09:04:24.575Z</time></trkpt><trkpt lat="45.4138378" lon="10.5230525"><ele>118.0</ele><time>2026-03-28T09:04:25.575Z</time></trkpt><trkpt lat="45.413948" lon="10.5230651"><ele>117.0</ele><time>2026-03-28T09:04:26.574Z</time></trkpt><trkpt lat="45.4140445" lon="10.5230792"><ele>116.0</ele><time>2026-03-28T09:04:27.574Z</time></trkpt><trkpt lat="45.4141276" lon="10.523101"><ele>115.0</ele><time>2026-03-28T09:04:28.574Z</time></trkpt><trkpt lat="45.4142157" lon="10.5231796"><ele>115.0</ele><time>2026-03-28T09:04:30.574Z</time></trkpt><trkpt lat="45.4142339" lon="10.5232677"><ele>115.0</ele><time>2026-03-28T09:04:31.574Z</time></trkpt><trkpt lat="45.4142229" lon="10.5233842"><ele>115.0</ele><time>2026-03-28T09:04:32.574Z</time></trkpt><trkpt lat="45.4141948" lon="10.5235283"><ele>115.0</ele><time>2026-03-28T09:04:33.574Z</time></trkpt><trkpt lat="45.4141544" lon="10.5237037"><ele>115.0</ele><time>2026-03-28T09:04:34.574Z</time></trkpt><trkpt lat="45.4141106" lon="10.5238904"><ele>115.0</ele><time>2026-03-28T09:04:35.575Z</time></trkpt><trkpt lat="45.4140807" lon="10.5240267"><ele>115.0</ele><time>2026-03-28T09:04:36.574Z</time></trkpt><trkpt lat="45.4140637" lon="10.5241261"><ele>115.0</ele><time>2026-03-28T09:04:37.574Z</time></trkpt><trkpt lat="45.4140937" lon="10.5242454"><ele>115.0</ele><time>2026-03-28T09:04:40.574Z</time></trkpt><trkpt lat="45.4142019" lon="10.5243368"><ele>115.0</ele><time>2026-03-28T09:04:42.575Z</time></trkpt><trkpt lat="45.4142872" lon="10.5243971"><ele>115.0</ele><time>2026-03-28T09:04:43.575Z</time></trkpt><trkpt lat="45.4143899" lon="10.5244708"><ele>115.0</ele><time>2026-03-28T09:04:44.574Z</time></trkpt><trkpt lat="45.4145027" lon="10.5245578"><ele>115.0</ele><time>2026-03-28T09:04:45.574Z</time></trkpt><trkpt lat="45.4146252" lon="10.5246547"><ele>115.0</ele><time>2026-03-28T09:04:46.574Z</time></trkpt><trkpt lat="45.4147547" lon="10.5247591"><ele>115.33333333333334</ele><time>2026-03-28T09:04:47.574Z</time></trkpt><trkpt lat="45.4148896" lon="10.5248757"><ele>115.66666666666666</ele><time>2026-03-28T09:04:48.575Z</time></trkpt><trkpt lat="45.4150273" lon="10.5250031"><ele>116.0</ele><time>2026-03-28T09:04:49.574Z</time></trkpt><trkpt lat="45.4151645" lon="10.5251328"><ele>116.0</ele><time>2026-03-28T09:04:50.574Z</time></trkpt><trkpt lat="45.4153065" lon="10.5252661"><ele>116.0</ele><time>2026-03-28T09:04:51.574Z</time></trkpt><trkpt lat="45.4154525" lon="10.5254082"><ele>116.0</ele><time>2026-03-28T09:04:52.575Z</time></trkpt><trkpt lat="45.4156027" lon="10.525552"><ele>115.66666666666666</ele><time>2026-03-28T09:04:53.574Z</time></trkpt><trkpt lat="45.4157559" lon="10.5256983"><ele>115.33333333333334</ele><time>2026-03-28T09:04:54.574Z</time></trkpt><trkpt lat="45.4159103" lon="10.5258402"><ele>115.0</ele><time>2026-03-28T09:04:55.574Z</time></trkpt><trkpt lat="45.4160683" lon="10.5259819"><ele>115.0</ele><time>2026-03-28T09:04:56.574Z</time></trkpt><trkpt lat="45.4162295" lon="10.5261204"><ele>115.0</ele><time>2026-03-28T09:04:57.575Z</time></trkpt><trkpt lat="45.4163926" lon="10.5262552"><ele>115.0</ele><time>2026-03-28T09:04:58.574Z</time></trkpt><trkpt lat="45.4165562" lon="10.5263872"><ele>114.33333333333334</ele><time>2026-03-28T09:04:59.575Z</time></trkpt><trkpt lat="45.4167205" lon="10.5265157"><ele>113.66666666666666</ele><time>2026-03-28T09:05:00.574Z</time></trkpt><trkpt lat="45.4168883" lon="10.5266386"><ele>113.0</ele><time>2026-03-28T09:05:01.574Z</time></trkpt><trkpt lat="45.4170553" lon="10.5267555"><ele>113.66666666666666</ele><time>2026-03-28T09:05:02.574Z</time></trkpt><trkpt lat="45.4172176" lon="10.5268651"><ele>114.33333333333334</ele><time>2026-03-28T09:05:03.575Z</time></trkpt><trkpt lat="45.417382" lon="10.5269669"><ele>115.0</ele><time>2026-03-28T09:05:04.574Z</time></trkpt><trkpt lat="45.4175511" lon="10.5270642"><ele>115.0</ele><time>2026-03-28T09:05:05.574Z</time></trkpt><trkpt lat="45.4177259" lon="10.5271687"><ele>115.0</ele><time>2026-03-28T09:05:06.573Z</time></trkpt><trkpt lat="45.4179124" lon="10.5272861"><ele>115.0</ele><time>2026-03-28T09:05:07.573Z</time></trkpt><trkpt lat="45.4181214" lon="10.527415"><ele>116.0</ele><time>2026-03-28T09:05:08.573Z</time></trkpt><trkpt lat="45.4183251" lon="10.5275472"><ele>117.0</ele><time>2026-03-28T09:05:09.575Z</time></trkpt><trkpt lat="45.4185066" lon="10.5276679"><ele>118.0</ele><time>2026-03-28T09:05:10.574Z</time></trkpt><trkpt lat="45.4186762" lon="10.527773"><ele>118.0</ele><time>2026-03-28T09:05:11.575Z</time></trkpt><trkpt lat="45.4188287" lon="10.5278637"><ele>118.0</ele><time>2026-03-28T09:05:12.573Z</time></trkpt><trkpt lat="45.418959" lon="10.5279432"><ele>118.0</ele><time>2026-03-28T09:05:13.573Z</time></trkpt><trkpt lat="45.4190677" lon="10.5280199"><ele>118.0</ele><time>2026-03-28T09:05:14.574Z</time></trkpt><trkpt lat="45.4191681" lon="10.5281179"><ele>118.0</ele><time>2026-03-28T09:05:15.575Z</time></trkpt><trkpt lat="45.4192602" lon="10.5282456"><ele>118.0</ele><time>2026-03-28T09:05:16.574Z</time></trkpt><trkpt lat="45.4193427" lon="10.5283652"><ele>118.0</ele><time>2026-03-28T09:05:17.574Z</time></trkpt><trkpt lat="45.4194364" lon="10.5284585"><ele>118.0</ele><time>2026-03-28T09:05:18.574Z</time></trkpt><trkpt lat="45.4195426" lon="10.5285367"><ele>118.5</ele><time>2026-03-28T09:05:19.575Z</time></trkpt><trkpt lat="45.4196591" lon="10.5286088"><ele>119.0</ele><time>2026-03-28T09:05:20.574Z</time></trkpt><trkpt lat="45.4197828" lon="10.5286897"><ele>119.5</ele><time>2026-03-28T09:05:21.574Z</time></trkpt><trkpt lat="45.4199019" lon="10.5287895"><ele>120.0</ele><time>2026-03-28T09:05:22.574Z</time></trkpt><trkpt lat="45.4200061" lon="10.5288944"><ele>120.25</ele><time>2026-03-28T09:05:23.574Z</time></trkpt><trkpt lat="45.4201002" lon="10.5290085"><ele>120.5</ele><time>2026-03-28T09:05:24.575Z</time></trkpt><trkpt lat="45.4201917" lon="10.5291466"><ele>120.75</ele><time>2026-03-28T09:05:25.574Z</time></trkpt><trkpt lat="45.4202868" lon="10.529307"><ele>121.0</ele><time>2026-03-28T09:05:26.573Z</time></trkpt><trkpt lat="45.4203862" lon="10.5294772"><ele>121.25</ele><time>2026-03-28T09:05:27.574Z</time></trkpt><trkpt lat="45.4204743" lon="10.5296296"><ele>121.5</ele><time>2026-03-28T09:05:28.574Z</time></trkpt><trkpt lat="45.4205502" lon="10.529766"><ele>121.75</ele><time>2026-03-28T09:05:29.573Z</time></trkpt><trkpt lat="45.4206222" lon="10.52989"><ele>122.0</ele><time>2026-03-28T09:05:30.574Z</time></trkpt><trkpt lat="45.4206952" lon="10.5300012"><ele>122.0</ele><time>2026-03-28T09:05:31.575Z</time></trkpt><trkpt lat="45.4207678" lon="10.5300977"><ele>121.99999999999999</ele><time>2026-03-28T09:05:32.574Z</time></trkpt><trkpt lat="45.4208468" lon="10.5301887"><ele>121.99999999999999</ele><time>2026-03-28T09:05:33.574Z</time></trkpt><trkpt lat="45.4209351" lon="10.5302739"><ele>122.0</ele><time>2026-03-28T09:05:34.573Z</time></trkpt><trkpt lat="45.4210304" lon="10.5303439"><ele>122.0</ele><time>2026-03-28T09:05:35.575Z</time></trkpt><trkpt lat="45.4211429" lon="10.5304025"><ele>122.25</ele><time>2026-03-28T09:05:36.575Z</time></trkpt><trkpt lat="45.4212832" lon="10.5304403"><ele>122.5</ele><time>2026-03-28T09:05:37.575Z</time></trkpt><trkpt lat="45.4214276" lon="10.5304469"><ele>122.75</ele><time>2026-03-28T09:05:38.575Z</time></trkpt><trkpt lat="45.4215496" lon="10.5304451"><ele>123.0</ele><time>2026-03-28T09:05:39.574Z</time></trkpt><trkpt lat="45.4216512" lon="10.5304654"><ele>124.25</ele><time>2026-03-28T09:05:40.574Z</time></trkpt><trkpt lat="45.4217531" lon="10.5305127"><ele>125.5</ele><time>2026-03-28T09:05:41.574Z</time></trkpt><trkpt lat="45.4218508" lon="10.5306073"><ele>126.75</ele><time>2026-03-28T09:05:42.574Z</time></trkpt><trkpt lat="45.421931" lon="10.530722"><ele>128.0</ele><time>2026-03-28T09:05:43.574Z</time></trkpt><trkpt lat="45.4219973" lon="10.5308626"><ele>128.0</ele><time>2026-03-28T09:05:44.575Z</time></trkpt><trkpt lat="45.4220481" lon="10.5310167"><ele>128.0</ele><time>2026-03-28T09:05:45.574Z</time></trkpt><trkpt lat="45.4220792" lon="10.5311823"><ele>128.0</ele><time>2026-03-28T09:05:46.574Z</time></trkpt><trkpt lat="45.4220826" lon="10.5313345"><ele>128.0</ele><time>2026-03-28T09:05:47.575Z</time></trkpt><trkpt lat="45.4220795" lon="10.5314578"><ele>128.0</ele><time>2026-03-28T09:05:48.575Z</time></trkpt><trkpt lat="45.4220847" lon="10.5315573"><ele>128.83333333333331</ele><time>2026-03-28T09:05:49.575Z</time></trkpt><trkpt lat="45.4220697" lon="10.5317177"><ele>129.66666666666666</ele><time>2026-03-28T09:05:51.575Z</time></trkpt><trkpt lat="45.4220544" lon="10.5318056"><ele>130.5</ele><time>2026-03-28T09:05:52.574Z</time></trkpt><trkpt lat="45.4220272" lon="10.5319037"><ele>131.33333333333334</ele><time>2026-03-28T09:05:53.575Z</time></trkpt><trkpt lat="45.4219869" lon="10.5320121"><ele>132.16666666666669</ele><time>2026-03-28T09:05:54.574Z</time></trkpt><trkpt lat="45.4219381" lon="10.5321327"><ele>133.0</ele><time>2026-03-28T09:05:55.574Z</time></trkpt><trkpt lat="45.4218784" lon="10.5322596"><ele>134.0</ele><time>2026-03-28T09:05:56.574Z</time></trkpt><trkpt lat="45.4218062" lon="10.5323981"><ele>135.0</ele><time>2026-03-28T09:05:57.575Z</time></trkpt><trkpt lat="45.4217275" lon="10.5325183"><ele>136.0</ele><time>2026-03-28T09:05:58.575Z</time></trkpt><trkpt lat="45.4216245" lon="10.5326409"><ele>137.0</ele><time>2026-03-28T09:05:59.574Z</time></trkpt><trkpt lat="45.4215043" lon="10.5327479"><ele>137.0</ele><time>2026-03-28T09:06:00.574Z</time></trkpt><trkpt lat="45.4213631" lon="10.532835"><ele>137.0</ele><time>2026-03-28T09:06:01.574Z</time></trkpt><trkpt lat="45.4212012" lon="10.5329128"><ele>137.0</ele><time>2026-03-28T09:06:02.574Z</time></trkpt><trkpt lat="45.4210187" lon="10.53299"><ele>137.33333333333331</ele><time>2026-03-28T09:06:03.573Z</time></trkpt><trkpt lat="45.4208174" lon="10.533082"><ele>137.66666666666666</ele><time>2026-03-28T09:06:04.574Z</time></trkpt><trkpt lat="45.4205998" lon="10.5332076"><ele>138.0</ele><time>2026-03-28T09:06:05.574Z</time></trkpt><trkpt lat="45.4203932" lon="10.5333437"><ele>134.0</ele><time>2026-03-28T09:06:06.573Z</time></trkpt><trkpt lat="45.4201919" lon="10.533486"><ele>130.0</ele><time>2026-03-28T09:06:07.573Z</time></trkpt><trkpt lat="45.419993" lon="10.533639"><ele>130.66666666666669</ele><time>2026-03-28T09:06:08.575Z</time></trkpt><trkpt lat="45.4198007" lon="10.5337978"><ele>131.33333333333334</ele><time>2026-03-28T09:06:09.575Z</time></trkpt><trkpt lat="45.4196076" lon="10.5339643"><ele>132.0</ele><time>2026-03-28T09:06:10.575Z</time></trkpt><trkpt lat="45.4194282" lon="10.5341259"><ele>132.0</ele><time>2026-03-28T09:06:11.575Z</time></trkpt><trkpt lat="45.4192575" lon="10.5342781"><ele>132.0</ele><time>2026-03-28T09:06:12.575Z</time></trkpt><trkpt lat="45.4190944" lon="10.5344193"><ele>132.0</ele><time>2026-03-28T09:06:13.575Z</time></trkpt><trkpt lat="45.4189382" lon="10.5345414"><ele>131.0</ele><time>2026-03-28T09:06:14.574Z</time></trkpt><trkpt lat="45.4187839" lon="10.5346344"><ele>130.0</ele><time>2026-03-28T09:06:15.574Z</time></trkpt><trkpt lat="45.4186265" lon="10.5347064"><ele>129.0</ele><time>2026-03-28T09:06:16.575Z</time></trkpt><trkpt lat="45.4184614" lon="10.5347712"><ele>129.0</ele><time>2026-03-28T09:06:17.574Z</time></trkpt><trkpt lat="45.4182938" lon="10.5348347"><ele>129.0</ele><time>2026-03-28T09:06:18.574Z</time></trkpt><trkpt lat="45.4181286" lon="10.5349065"><ele>129.0</ele><time>2026-03-28T09:06:19.575Z</time></trkpt><trkpt lat="45.4179677" lon="10.5349989"><ele>128.66666666666666</ele><time>2026-03-28T09:06:20.575Z</time></trkpt><trkpt lat="45.4178089" lon="10.5351085"><ele>128.33333333333331</ele><time>2026-03-28T09:06:21.574Z</time></trkpt><trkpt lat="45.4176582" lon="10.5352448"><ele>128.0</ele><time>2026-03-28T09:06:22.575Z</time></trkpt><trkpt lat="45.4175222" lon="10.5353895"><ele>128.0</ele><time>2026-03-28T09:06:23.575Z</time></trkpt><trkpt lat="45.4173862" lon="10.5355217"><ele>128.0</ele><time>2026-03-28T09:06:24.575Z</time></trkpt><trkpt lat="45.4172309" lon="10.5356303"><ele>128.0</ele><time>2026-03-28T09:06:25.573Z</time></trkpt><trkpt lat="45.41708" lon="10.5357262"><ele>127.33333333333333</ele><time>2026-03-28T09:06:26.574Z</time></trkpt><trkpt lat="45.4168836" lon="10.535747"><ele>126.66666666666666</ele><time>2026-03-28T09:06:27.574Z</time></trkpt><trkpt lat="45.4167112" lon="10.5357936"><ele>126.0</ele><time>2026-03-28T09:06:28.575Z</time></trkpt><trkpt lat="45.4165484" lon="10.5358341"><ele>126.0</ele><time>2026-03-28T09:06:29.575Z</time></trkpt><trkpt lat="45.416381" lon="10.5358999"><ele>126.0</ele><time>2026-03-28T09:06:30.574Z</time></trkpt><trkpt lat="45.4162155" lon="10.5360096"><ele>126.0</ele><time>2026-03-28T09:06:31.575Z</time></trkpt><trkpt lat="45.4160562" lon="10.5361515"><ele>126.33333333333334</ele><time>2026-03-28T09:06:32.574Z</time></trkpt><trkpt lat="45.4158984" lon="10.5363204"><ele>126.66666666666667</ele><time>2026-03-28T09:06:33.575Z</time></trkpt><trkpt lat="45.4157417" lon="10.5365159"><ele>127.0</ele><time>2026-03-28T09:06:34.575Z</time></trkpt><trkpt lat="45.4155959" lon="10.536735"><ele>126.66666666666667</ele><time>2026-03-28T09:06:35.573Z</time></trkpt><trkpt lat="45.4154579" lon="10.5369822"><ele>126.33333333333334</ele><time>2026-03-28T09:06:36.575Z</time></trkpt><trkpt lat="45.4153377" lon="10.5372425"><ele>126.0</ele><time>2026-03-28T09:06:37.575Z</time></trkpt><trkpt lat="45.4152442" lon="10.5374786"><ele>126.0</ele><time>2026-03-28T09:06:38.575Z</time></trkpt><trkpt lat="45.4151622" lon="10.537672"><ele>126.0</ele><time>2026-03-28T09:06:39.573Z</time></trkpt><trkpt lat="45.4150782" lon="10.5378417"><ele>126.0</ele><time>2026-03-28T09:06:40.575Z</time></trkpt><trkpt lat="45.4149775" lon="10.5379977"><ele>125.66666666666666</ele><time>2026-03-28T09:06:41.575Z</time></trkpt><trkpt lat="45.4148525" lon="10.5381388"><ele>125.33333333333333</ele><time>2026-03-28T09:06:42.575Z</time></trkpt><trkpt lat="45.4147005" lon="10.5382949"><ele>125.0</ele><time>2026-03-28T09:06:43.574Z</time></trkpt><trkpt lat="45.4145303" lon="10.538465"><ele>125.0</ele><time>2026-03-28T09:06:44.573Z</time></trkpt><trkpt lat="45.4143523" lon="10.538646"><ele>125.0</ele><time>2026-03-28T09:06:45.573Z</time></trkpt><trkpt lat="45.4141688" lon="10.5388281"><ele>125.0</ele><time>2026-03-28T09:06:46.574Z</time></trkpt><trkpt lat="45.4139771" lon="10.5390109"><ele>125.0</ele><time>2026-03-28T09:06:47.575Z</time></trkpt><trkpt lat="45.4137747" lon="10.5391895"><ele>125.0</ele><time>2026-03-28T09:06:48.573Z</time></trkpt><trkpt lat="45.4135612" lon="10.5393659"><ele>125.0</ele><time>2026-03-28T09:06:49.574Z</time></trkpt><trkpt lat="45.4133613" lon="10.5395233"><ele>125.0</ele><time>2026-03-28T09:06:50.575Z</time></trkpt><trkpt lat="45.4131734" lon="10.5396622"><ele>125.0</ele><time>2026-03-28T09:06:51.573Z</time></trkpt><trkpt lat="45.4130056" lon="10.5397951"><ele>125.33333333333333</ele><time>2026-03-28T09:06:52.574Z</time></trkpt><trkpt lat="45.4128633" lon="10.53993"><ele>125.66666666666666</ele><time>2026-03-28T09:06:53.573Z</time></trkpt><trkpt lat="45.4127458" lon="10.5400751"><ele>126.0</ele><time>2026-03-28T09:06:54.574Z</time></trkpt><trkpt lat="45.4126512" lon="10.5402532"><ele>127.0</ele><time>2026-03-28T09:06:55.575Z</time></trkpt><trkpt lat="45.412569" lon="10.5404577"><ele>128.0</ele><time>2026-03-28T09:06:56.575Z</time></trkpt><trkpt lat="45.4124847" lon="10.5406811"><ele>129.0</ele><time>2026-03-28T09:06:57.574Z</time></trkpt><trkpt lat="45.4123844" lon="10.540902"><ele>129.0</ele><time>2026-03-28T09:06:58.574Z</time></trkpt><trkpt lat="45.4122832" lon="10.5411078"><ele>129.0</ele><time>2026-03-28T09:06:59.574Z</time></trkpt><trkpt lat="45.41218" lon="10.5413139"><ele>129.0</ele><time>2026-03-28T09:07:00.574Z</time></trkpt><trkpt lat="45.4120718" lon="10.5415169"><ele>128.33333333333334</ele><time>2026-03-28T09:07:01.575Z</time></trkpt><trkpt lat="45.4119582" lon="10.5416929"><ele>127.66666666666667</ele><time>2026-03-28T09:07:02.575Z</time></trkpt><trkpt lat="45.411854" lon="10.541875"><ele>127.0</ele><time>2026-03-28T09:07:03.573Z</time></trkpt><trkpt lat="45.4117625" lon="10.5420762"><ele>126.66666666666667</ele><time>2026-03-28T09:07:04.574Z</time></trkpt><trkpt lat="45.4116669" lon="10.5422662"><ele>126.33333333333334</ele><time>2026-03-28T09:07:05.574Z</time></trkpt><trkpt lat="45.4115628" lon="10.5424656"><ele>126.0</ele><time>2026-03-28T09:07:06.574Z</time></trkpt><trkpt lat="45.4114559" lon="10.5426709"><ele>126.0</ele><time>2026-03-28T09:07:07.574Z</time></trkpt><trkpt lat="45.4113555" lon="10.5428783"><ele>126.0</ele><time>2026-03-28T09:07:08.575Z</time></trkpt><trkpt lat="45.41127" lon="10.5430835"><ele>126.0</ele><time>2026-03-28T09:07:09.574Z</time></trkpt><trkpt lat="45.4112006" lon="10.5432781"><ele>125.0</ele><time>2026-03-28T09:07:10.574Z</time></trkpt><trkpt lat="45.4111517" lon="10.5434655"><ele>124.0</ele><time>2026-03-28T09:07:11.574Z</time></trkpt><trkpt lat="45.4111157" lon="10.5436523"><ele>123.0</ele><time>2026-03-28T09:07:12.575Z</time></trkpt><trkpt lat="45.4110677" lon="10.5438381"><ele>122.0</ele><time>2026-03-28T09:07:13.575Z</time></trkpt><trkpt lat="45.4109815" lon="10.5440346"><ele>122.0</ele><time>2026-03-28T09:07:14.574Z</time></trkpt><trkpt lat="45.4108567" lon="10.5442258"><ele>122.0</ele><time>2026-03-28T09:07:15.574Z</time></trkpt><trkpt lat="45.410691" lon="10.5444239"><ele>122.0</ele><time>2026-03-28T09:07:16.575Z</time></trkpt><trkpt lat="45.4105067" lon="10.5446334"><ele>121.5</ele><time>2026-03-28T09:07:17.574Z</time></trkpt><trkpt lat="45.410321" lon="10.5448694"><ele>121.0</ele><time>2026-03-28T09:07:18.575Z</time></trkpt><trkpt lat="45.4101508" lon="10.545081"><ele>121.0</ele><time>2026-03-28T09:07:19.574Z</time></trkpt><trkpt lat="45.4099863" lon="10.5452833"><ele>121.0</ele><time>2026-03-28T09:07:20.575Z</time></trkpt><trkpt lat="45.4098252" lon="10.5454642"><ele>121.0</ele><time>2026-03-28T09:07:21.575Z</time></trkpt><trkpt lat="45.4096643" lon="10.5456164"><ele>118.66666666666667</ele><time>2026-03-28T09:07:22.574Z</time></trkpt><trkpt lat="45.4095043" lon="10.5457426"><ele>116.33333333333334</ele><time>2026-03-28T09:07:23.574Z</time></trkpt><trkpt lat="45.4093424" lon="10.5458269"><ele>114.0</ele><time>2026-03-28T09:07:24.574Z</time></trkpt><trkpt lat="45.409183" lon="10.5458855"><ele>114.0</ele><time>2026-03-28T09:07:25.575Z</time></trkpt><trkpt lat="45.4090298" lon="10.5459043"><ele>114.0</ele><time>2026-03-28T09:07:26.575Z</time></trkpt><trkpt lat="45.4088861" lon="10.5458935"><ele>114.0</ele><time>2026-03-28T09:07:27.574Z</time></trkpt><trkpt lat="45.4087305" lon="10.545868"><ele>113.33333333333334</ele><time>2026-03-28T09:07:28.575Z</time></trkpt><trkpt lat="45.4085596" lon="10.5458363"><ele>112.66666666666667</ele><time>2026-03-28T09:07:29.574Z</time></trkpt><trkpt lat="45.4083972" lon="10.5458145"><ele>112.0</ele><time>2026-03-28T09:07:30.574Z</time></trkpt><trkpt lat="45.4082528" lon="10.5458008"><ele>112.0</ele><time>2026-03-28T09:07:31.574Z</time></trkpt><trkpt lat="45.4081138" lon="10.5458051"><ele>112.0</ele><time>2026-03-28T09:07:32.574Z</time></trkpt><trkpt lat="45.4079662" lon="10.545835"><ele>112.0</ele><time>2026-03-28T09:07:33.574Z</time></trkpt><trkpt lat="45.4077953" lon="10.5458817"><ele>112.0</ele><time>2026-03-28T09:07:34.573Z</time></trkpt><trkpt lat="45.4076378" lon="10.5459192"><ele>112.0</ele><time>2026-03-28T09:07:35.575Z</time></trkpt><trkpt lat="45.407497" lon="10.5459474"><ele>112.0</ele><time>2026-03-28T09:07:36.574Z</time></trkpt><trkpt lat="45.4073723" lon="10.5459805"><ele>112.0</ele><time>2026-03-28T09:07:37.573Z</time></trkpt><trkpt lat="45.4072618" lon="10.5460331"><ele>112.5</ele><time>2026-03-28T09:07:38.574Z</time></trkpt><trkpt lat="45.4071568" lon="10.5461112"><ele>113.0</ele><time>2026-03-28T09:07:39.573Z</time></trkpt><trkpt lat="45.4070527" lon="10.5462135"><ele>113.5</ele><time>2026-03-28T09:07:40.573Z</time></trkpt><trkpt lat="45.4069486" lon="10.5463347"><ele>114.0</ele><time>2026-03-28T09:07:41.574Z</time></trkpt><trkpt lat="45.4068323" lon="10.5464807"><ele>114.66666666666666</ele><time>2026-03-28T09:07:42.574Z</time></trkpt><trkpt lat="45.4067023" lon="10.5466479"><ele>115.33333333333333</ele><time>2026-03-28T09:07:43.573Z</time></trkpt><trkpt lat="45.4065854" lon="10.5468025"><ele>116.0</ele><time>2026-03-28T09:07:44.575Z</time></trkpt><trkpt lat="45.4064606" lon="10.5469447"><ele>116.0</ele><time>2026-03-28T09:07:45.574Z</time></trkpt><trkpt lat="45.4063311" lon="10.5470721"><ele>116.0</ele><time>2026-03-28T09:07:46.574Z</time></trkpt><trkpt lat="45.4061901" lon="10.547173"><ele>116.0</ele><time>2026-03-28T09:07:47.573Z</time></trkpt><trkpt lat="45.4060366" lon="10.5472514"><ele>117.5</ele><time>2026-03-28T09:07:48.574Z</time></trkpt><trkpt lat="45.4058963" lon="10.5473171"><ele>119.0</ele><time>2026-03-28T09:07:49.575Z</time></trkpt><trkpt lat="45.4057581" lon="10.5473801"><ele>120.5</ele><time>2026-03-28T09:07:50.575Z</time></trkpt><trkpt lat="45.4056324" lon="10.5474383"><ele>122.0</ele><time>2026-03-28T09:07:51.575Z</time></trkpt><trkpt lat="45.4055159" lon="10.5474967"><ele>121.25</ele><time>2026-03-28T09:07:52.574Z</time></trkpt><trkpt lat="45.4054065" lon="10.5475675"><ele>120.5</ele><time>2026-03-28T09:07:53.575Z</time></trkpt><trkpt lat="45.4052894" lon="10.5476544"><ele>119.75</ele><time>2026-03-28T09:07:54.574Z</time></trkpt><trkpt lat="45.4051727" lon="10.5477453"><ele>119.0</ele><time>2026-03-28T09:07:55.576Z</time></trkpt><trkpt lat="45.405057" lon="10.5478435"><ele>118.75</ele><time>2026-03-28T09:07:56.575Z</time></trkpt><trkpt lat="45.4049318" lon="10.5479436"><ele>118.5</ele><time>2026-03-28T09:07:57.574Z</time></trkpt><trkpt lat="45.4048074" lon="10.5480493"><ele>118.25</ele><time>2026-03-28T09:07:58.575Z</time></trkpt><trkpt lat="45.4046865" lon="10.5481527"><ele>118.0</ele><time>2026-03-28T09:07:59.575Z</time></trkpt><trkpt lat="45.4045616" lon="10.5482576"><ele>118.0</ele><time>2026-03-28T09:08:00.574Z</time></trkpt><trkpt lat="45.4044397" lon="10.5483623"><ele>118.0</ele><time>2026-03-28T09:08:01.576Z</time></trkpt><trkpt lat="45.4043264" lon="10.5484607"><ele>118.0</ele><time>2026-03-28T09:08:02.575Z</time></trkpt><trkpt lat="45.4042198" lon="10.5485498"><ele>118.0</ele><time>2026-03-28T09:08:03.575Z</time></trkpt><trkpt lat="45.4041221" lon="10.5486376"><ele>117.75</ele><time>2026-03-28T09:08:04.575Z</time></trkpt><trkpt lat="45.4040308" lon="10.5487338"><ele>117.5</ele><time>2026-03-28T09:08:05.576Z</time></trkpt><trkpt lat="45.4039484" lon="10.5488355"><ele>117.25</ele><time>2026-03-28T09:08:06.575Z</time></trkpt><trkpt lat="45.4038677" lon="10.5489373"><ele>117.0</ele><time>2026-03-28T09:08:07.575Z</time></trkpt><trkpt lat="45.4037812" lon="10.5490587"><ele>117.0</ele><time>2026-03-28T09:08:08.575Z</time></trkpt><trkpt lat="45.4036823" lon="10.5491738"><ele>117.0</ele><time>2026-03-28T09:08:09.575Z</time></trkpt><trkpt lat="45.4035803" lon="10.5492791"><ele>117.0</ele><time>2026-03-28T09:08:10.575Z</time></trkpt><trkpt lat="45.40348" lon="10.5493557"><ele>117.0</ele><time>2026-03-28T09:08:11.575Z</time></trkpt><trkpt lat="45.4033774" lon="10.5494175"><ele>117.0</ele><time>2026-03-28T09:08:12.575Z</time></trkpt><trkpt lat="45.4032702" lon="10.5494696"><ele>116.99999999999999</ele><time>2026-03-28T09:08:13.575Z</time></trkpt><trkpt lat="45.4031665" lon="10.5495031"><ele>116.99999999999999</ele><time>2026-03-28T09:08:14.576Z</time></trkpt><trkpt lat="45.4030709" lon="10.5495133"><ele>117.0</ele><time>2026-03-28T09:08:15.576Z</time></trkpt><trkpt lat="45.40298" lon="10.5494993"><ele>117.0</ele><time>2026-03-28T09:08:16.575Z</time></trkpt><trkpt lat="45.4028865" lon="10.5494888"><ele>117.16666666666667</ele><time>2026-03-28T09:08:17.575Z</time></trkpt><trkpt lat="45.4028006" lon="10.5494742"><ele>117.33333333333334</ele><time>2026-03-28T09:08:18.575Z</time></trkpt><trkpt lat="45.4027098" lon="10.5494763"><ele>117.5</ele><time>2026-03-28T09:08:19.575Z</time></trkpt><trkpt lat="45.4026194" lon="10.549488"><ele>117.66666666666667</ele><time>2026-03-28T09:08:20.575Z</time></trkpt><trkpt lat="45.4025388" lon="10.5495074"><ele>117.83333333333334</ele><time>2026-03-28T09:08:21.575Z</time></trkpt><trkpt lat="45.4024678" lon="10.5495604"><ele>118.0</ele><time>2026-03-28T09:08:22.575Z</time></trkpt><trkpt lat="45.4023801" lon="10.5496246"><ele>118.0</ele><time>2026-03-28T09:08:23.575Z</time></trkpt><trkpt lat="45.4022895" lon="10.549722"><ele>118.0</ele><time>2026-03-28T09:08:24.576Z</time></trkpt><trkpt lat="45.402207" lon="10.5498258"><ele>118.0</ele><time>2026-03-28T09:08:25.576Z</time></trkpt><trkpt lat="45.402115" lon="10.549949"><ele>118.0</ele><time>2026-03-28T09:08:26.576Z</time></trkpt><trkpt lat="45.4020278" lon="10.5500663"><ele>117.80000000000001</ele><time>2026-03-28T09:08:27.575Z</time></trkpt><trkpt lat="45.4019405" lon="10.5501867"><ele>117.60000000000001</ele><time>2026-03-28T09:08:28.575Z</time></trkpt><trkpt lat="45.4018744" lon="10.5502764"><ele>117.39999999999999</ele><time>2026-03-28T09:08:29.575Z</time></trkpt><trkpt lat="45.4017933" lon="10.5503835"><ele>117.19999999999999</ele><time>2026-03-28T09:08:30.576Z</time></trkpt><trkpt lat="45.401706" lon="10.5505002"><ele>117.0</ele><time>2026-03-28T09:08:31.575Z</time></trkpt><trkpt lat="45.401621" lon="10.5506173"><ele>117.0</ele><time>2026-03-28T09:08:32.576Z</time></trkpt><trkpt lat="45.4015382" lon="10.5507308"><ele>116.99999999999999</ele><time>2026-03-28T09:08:33.574Z</time></trkpt><trkpt lat="45.4014587" lon="10.5508204"><ele>116.99999999999999</ele><time>2026-03-28T09:08:34.575Z</time></trkpt><trkpt lat="45.4013779" lon="10.5509162"><ele>117.0</ele><time>2026-03-28T09:08:35.575Z</time></trkpt><trkpt lat="45.4012962" lon="10.5510044"><ele>117.0</ele><time>2026-03-28T09:08:36.575Z</time></trkpt><trkpt lat="45.4012154" lon="10.5510607"><ele>116.25</ele><time>2026-03-28T09:08:37.575Z</time></trkpt><trkpt lat="45.4011197" lon="10.5510992"><ele>115.5</ele><time>2026-03-28T09:08:38.575Z</time></trkpt><trkpt lat="45.40101" lon="10.5511177"><ele>114.75</ele><time>2026-03-28T09:08:39.576Z</time></trkpt><trkpt lat="45.4008915" lon="10.5511212"><ele>114.0</ele><time>2026-03-28T09:08:40.576Z</time></trkpt><trkpt lat="45.4007676" lon="10.5511191"><ele>114.0</ele><time>2026-03-28T09:08:41.575Z</time></trkpt><trkpt lat="45.4006517" lon="10.5511157"><ele>114.0</ele><time>2026-03-28T09:08:42.575Z</time></trkpt><trkpt lat="45.4005392" lon="10.5511286"><ele>114.0</ele><time>2026-03-28T09:08:43.576Z</time></trkpt><trkpt lat="45.4004166" lon="10.551161"><ele>114.0</ele><time>2026-03-28T09:08:44.575Z</time></trkpt><trkpt lat="45.4003026" lon="10.5512063"><ele>113.25</ele><time>2026-03-28T09:08:45.575Z</time></trkpt><trkpt lat="45.4002" lon="10.5512556"><ele>112.5</ele><time>2026-03-28T09:08:46.575Z</time></trkpt><trkpt lat="45.4000852" lon="10.5513487"><ele>111.75</ele><time>2026-03-28T09:08:47.575Z</time></trkpt><trkpt lat="45.3999859" lon="10.5514288"><ele>111.0</ele><time>2026-03-28T09:08:48.576Z</time></trkpt><trkpt lat="45.3998889" lon="10.5514976"><ele>111.0</ele><time>2026-03-28T09:08:49.575Z</time></trkpt><trkpt lat="45.399784" lon="10.5515404"><ele>111.0</ele><time>2026-03-28T09:08:50.574Z</time></trkpt><trkpt lat="45.3996643" lon="10.5515646"><ele>111.0</ele><time>2026-03-28T09:08:51.575Z</time></trkpt><trkpt lat="45.399543" lon="10.5515794"><ele>111.0</ele><time>2026-03-28T09:08:52.576Z</time></trkpt><trkpt lat="45.3994238" lon="10.5515895"><ele>111.8</ele><time>2026-03-28T09:08:53.575Z</time></trkpt><trkpt lat="45.3993134" lon="10.5515968"><ele>112.6</ele><time>2026-03-28T09:08:54.575Z</time></trkpt><trkpt lat="45.3991992" lon="10.5515973"><ele>113.4</ele><time>2026-03-28T09:08:55.574Z</time></trkpt><trkpt lat="45.3990901" lon="10.5515854"><ele>114.2</ele><time>2026-03-28T09:08:56.575Z</time></trkpt><trkpt lat="45.3989794" lon="10.5515875"><ele>115.0</ele><time>2026-03-28T09:08:57.576Z</time></trkpt><trkpt lat="45.3988746" lon="10.5516179"><ele>116.6</ele><time>2026-03-28T09:08:58.576Z</time></trkpt><trkpt lat="45.3987735" lon="10.5516599"><ele>118.2</ele><time>2026-03-28T09:08:59.575Z</time></trkpt><trkpt lat="45.3986687" lon="10.5517112"><ele>119.80000000000001</ele><time>2026-03-28T09:09:00.575Z</time></trkpt><trkpt lat="45.3985669" lon="10.5517665"><ele>121.4</ele><time>2026-03-28T09:09:01.576Z</time></trkpt><trkpt lat="45.3984639" lon="10.5518286"><ele>123.0</ele><time>2026-03-28T09:09:02.575Z</time></trkpt><trkpt lat="45.3983622" lon="10.5518788"><ele>123.0</ele><time>2026-03-28T09:09:03.575Z</time></trkpt><trkpt lat="45.3982541" lon="10.5519116"><ele>123.0</ele><time>2026-03-28T09:09:04.576Z</time></trkpt><trkpt lat="45.3981457" lon="10.5519295"><ele>123.0</ele><time>2026-03-28T09:09:05.575Z</time></trkpt><trkpt lat="45.3980305" lon="10.5519332"><ele>123.0</ele><time>2026-03-28T09:09:06.574Z</time></trkpt><trkpt lat="45.397916" lon="10.5519217"><ele>122.75</ele><time>2026-03-28T09:09:07.576Z</time></trkpt><trkpt lat="45.3978003" lon="10.551906"><ele>122.5</ele><time>2026-03-28T09:09:08.576Z</time></trkpt><trkpt lat="45.3976826" lon="10.5518795"><ele>122.25</ele><time>2026-03-28T09:09:09.576Z</time></trkpt><trkpt lat="45.3975602" lon="10.551849"><ele>122.0</ele><time>2026-03-28T09:09:10.576Z</time></trkpt><trkpt lat="45.3974407" lon="10.5518183"><ele>122.0</ele><time>2026-03-28T09:09:11.576Z</time></trkpt><trkpt lat="45.3973246" lon="10.5517933"><ele>121.99999999999999</ele><time>2026-03-28T09:09:12.576Z</time></trkpt><trkpt lat="45.397219" lon="10.5517706"><ele>121.99999999999999</ele><time>2026-03-28T09:09:13.575Z</time></trkpt><trkpt lat="45.3971287" lon="10.5517523"><ele>122.0</ele><time>2026-03-28T09:09:14.574Z</time></trkpt><trkpt lat="45.3970537" lon="10.5517486"><ele>122.0</ele><time>2026-03-28T09:09:15.576Z</time></trkpt><trkpt lat="45.39699" lon="10.5517726"><ele>121.8</ele><time>2026-03-28T09:09:16.576Z</time></trkpt><trkpt lat="45.3969414" lon="10.5518344"><ele>121.6</ele><time>2026-03-28T09:09:17.576Z</time></trkpt><trkpt lat="45.3969027" lon="10.5519211"><ele>121.39999999999999</ele><time>2026-03-28T09:09:18.576Z</time></trkpt><trkpt lat="45.3968788" lon="10.5520163"><ele>121.19999999999999</ele><time>2026-03-28T09:09:19.575Z</time></trkpt><trkpt lat="45.3969002" lon="10.5522103"><ele>121.0</ele><time>2026-03-28T09:09:20.575Z</time></trkpt><trkpt lat="45.3969262" lon="10.5523654"><ele>122.8</ele><time>2026-03-28T09:09:21.575Z</time></trkpt><trkpt lat="45.3969669" lon="10.5525053"><ele>124.6</ele><time>2026-03-28T09:09:22.576Z</time></trkpt><trkpt lat="45.3970071" lon="10.5526465"><ele>126.4</ele><time>2026-03-28T09:09:23.576Z</time></trkpt><trkpt lat="45.3970545" lon="10.552775"><ele>128.2</ele><time>2026-03-28T09:09:24.576Z</time></trkpt><trkpt lat="45.3970977" lon="10.5529068"><ele>130.0</ele><time>2026-03-28T09:09:25.576Z</time></trkpt><trkpt lat="45.3971336" lon="10.5530372"><ele>130.0</ele><time>2026-03-28T09:09:26.575Z</time></trkpt><trkpt lat="45.3971636" lon="10.5531729"><ele>130.0</ele><time>2026-03-28T09:09:27.575Z</time></trkpt><trkpt lat="45.397198" lon="10.553307"><ele>130.0</ele><time>2026-03-28T09:09:28.575Z</time></trkpt><trkpt lat="45.3972374" lon="10.5534383"><ele>130.0</ele><time>2026-03-28T09:09:29.575Z</time></trkpt><trkpt lat="45.3972845" lon="10.5535745"><ele>130.0</ele><time>2026-03-28T09:09:30.575Z</time></trkpt><trkpt lat="45.3973335" lon="10.5537119"><ele>125.75</ele><time>2026-03-28T09:09:31.575Z</time></trkpt><trkpt lat="45.3973887" lon="10.553863"><ele>121.5</ele><time>2026-03-28T09:09:32.576Z</time></trkpt><trkpt lat="45.3974417" lon="10.5540178"><ele>117.25</ele><time>2026-03-28T09:09:33.576Z</time></trkpt><trkpt lat="45.3974961" lon="10.5541656"><ele>113.0</ele><time>2026-03-28T09:09:34.575Z</time></trkpt><trkpt lat="45.3975395" lon="10.554311"><ele>113.0</ele><time>2026-03-28T09:09:35.575Z</time></trkpt><trkpt lat="45.3975771" lon="10.5544579"><ele>113.00000000000001</ele><time>2026-03-28T09:09:36.576Z</time></trkpt><trkpt lat="45.3975985" lon="10.5546097"><ele>113.00000000000001</ele><time>2026-03-28T09:09:37.576Z</time></trkpt><trkpt lat="45.3976052" lon="10.554766"><ele>113.0</ele><time>2026-03-28T09:09:38.576Z</time></trkpt><trkpt lat="45.3975936" lon="10.5549352"><ele>113.0</ele><time>2026-03-28T09:09:39.576Z</time></trkpt><trkpt lat="45.3975592" lon="10.5551093"><ele>112.0</ele><time>2026-03-28T09:09:40.576Z</time></trkpt><trkpt lat="45.3975208" lon="10.5552899"><ele>111.0</ele><time>2026-03-28T09:09:41.576Z</time></trkpt><trkpt lat="45.3974524" lon="10.5554975"><ele>110.0</ele><time>2026-03-28T09:09:42.575Z</time></trkpt><trkpt lat="45.3974028" lon="10.5557108"><ele>108.66666666666666</ele><time>2026-03-28T09:09:43.574Z</time></trkpt><trkpt lat="45.3973542" lon="10.555935"><ele>107.33333333333334</ele><time>2026-03-28T09:09:44.575Z</time></trkpt><trkpt lat="45.3973194" lon="10.5561666"><ele>106.0</ele><time>2026-03-28T09:09:45.576Z</time></trkpt><trkpt lat="45.3972921" lon="10.5563946"><ele>106.0</ele><time>2026-03-28T09:09:46.575Z</time></trkpt><trkpt lat="45.397267" lon="10.5566151"><ele>106.0</ele><time>2026-03-28T09:09:47.576Z</time></trkpt><trkpt lat="45.3972432" lon="10.5568204"><ele>106.0</ele><time>2026-03-28T09:09:48.575Z</time></trkpt><trkpt lat="45.3972176" lon="10.5570083"><ele>106.0</ele><time>2026-03-28T09:09:49.575Z</time></trkpt><trkpt lat="45.397177" lon="10.5571698"><ele>106.75</ele><time>2026-03-28T09:09:50.575Z</time></trkpt><trkpt lat="45.3971188" lon="10.557319"><ele>107.5</ele><time>2026-03-28T09:09:51.575Z</time></trkpt><trkpt lat="45.3970399" lon="10.557465"><ele>108.25</ele><time>2026-03-28T09:09:52.576Z</time></trkpt><trkpt lat="45.3969514" lon="10.557621"><ele>109.0</ele><time>2026-03-28T09:09:53.574Z</time></trkpt><trkpt lat="45.3968739" lon="10.5577981"><ele>107.33333333333334</ele><time>2026-03-28T09:09:54.576Z</time></trkpt><trkpt lat="45.3968126" lon="10.557996"><ele>105.66666666666666</ele><time>2026-03-28T09:09:55.575Z</time></trkpt><trkpt lat="45.3967665" lon="10.5582228"><ele>104.0</ele><time>2026-03-28T09:09:56.575Z</time></trkpt><trkpt lat="45.3967472" lon="10.5584758"><ele>103.33333333333333</ele><time>2026-03-28T09:09:57.576Z</time></trkpt><trkpt lat="45.3967497" lon="10.5587571"><ele>102.66666666666666</ele><time>2026-03-28T09:09:58.574Z</time></trkpt><trkpt lat="45.3967657" lon="10.5590066"><ele>102.0</ele><time>2026-03-28T09:09:59.575Z</time></trkpt><trkpt lat="45.3967812" lon="10.5592462"><ele>102.0</ele><time>2026-03-28T09:10:00.576Z</time></trkpt><trkpt lat="45.3967971" lon="10.5594843"><ele>102.0</ele><time>2026-03-28T09:10:01.575Z</time></trkpt><trkpt lat="45.3968133" lon="10.5597187"><ele>102.0</ele><time>2026-03-28T09:10:02.575Z</time></trkpt><trkpt lat="45.3968287" lon="10.5599466"><ele>102.66666666666666</ele><time>2026-03-28T09:10:03.575Z</time></trkpt><trkpt lat="45.3968389" lon="10.5601739"><ele>103.33333333333333</ele><time>2026-03-28T09:10:04.575Z</time></trkpt><trkpt lat="45.3968473" lon="10.560387"><ele>104.0</ele><time>2026-03-28T09:10:05.575Z</time></trkpt><trkpt lat="45.3968562" lon="10.5606097"><ele>104.0</ele><time>2026-03-28T09:10:06.575Z</time></trkpt><trkpt lat="45.3968536" lon="10.5608423"><ele>104.0</ele><time>2026-03-28T09:10:07.576Z</time></trkpt><trkpt lat="45.3968358" lon="10.5610781"><ele>104.0</ele><time>2026-03-28T09:10:08.575Z</time></trkpt><trkpt lat="45.3968074" lon="10.5612923"><ele>104.0</ele><time>2026-03-28T09:10:09.575Z</time></trkpt><trkpt lat="45.396767" lon="10.5615021"><ele>104.0</ele><time>2026-03-28T09:10:10.575Z</time></trkpt><trkpt lat="45.3967228" lon="10.561713"><ele>104.0</ele><time>2026-03-28T09:10:11.576Z</time></trkpt><trkpt lat="45.3966743" lon="10.5619266"><ele>103.25</ele><time>2026-03-28T09:10:12.576Z</time></trkpt><trkpt lat="45.3966246" lon="10.562128"><ele>102.5</ele><time>2026-03-28T09:10:13.575Z</time></trkpt><trkpt lat="45.3965736" lon="10.5623229"><ele>101.75</ele><time>2026-03-28T09:10:14.575Z</time></trkpt><trkpt lat="45.3965197" lon="10.5625171"><ele>101.0</ele><time>2026-03-28T09:10:15.574Z</time></trkpt><trkpt lat="45.396461" lon="10.5626985"><ele>101.0</ele><time>2026-03-28T09:10:16.576Z</time></trkpt><trkpt lat="45.3964" lon="10.5628687"><ele>101.0</ele><time>2026-03-28T09:10:17.574Z</time></trkpt><trkpt lat="45.396342" lon="10.563026"><ele>101.0</ele><time>2026-03-28T09:10:18.574Z</time></trkpt><trkpt lat="45.3962882" lon="10.5631706"><ele>101.0</ele><time>2026-03-28T09:10:19.576Z</time></trkpt><trkpt lat="45.3962364" lon="10.5632998"><ele>100.99999999999999</ele><time>2026-03-28T09:10:20.575Z</time></trkpt><trkpt lat="45.3961918" lon="10.5634049"><ele>101.0</ele><time>2026-03-28T09:10:21.574Z</time></trkpt><trkpt lat="45.3961556" lon="10.5635084"><ele>101.0</ele><time>2026-03-28T09:10:22.575Z</time></trkpt><trkpt lat="45.3961438" lon="10.5636155"><ele>101.0</ele><time>2026-03-28T09:10:23.576Z</time></trkpt><trkpt lat="45.3961717" lon="10.5637295"><ele>100.99999999999999</ele><time>2026-03-28T09:10:24.576Z</time></trkpt><trkpt lat="45.3962454" lon="10.5638495"><ele>101.0</ele><time>2026-03-28T09:10:25.576Z</time></trkpt><trkpt lat="45.3963563" lon="10.5639886"><ele>101.66666666666666</ele><time>2026-03-28T09:10:26.575Z</time></trkpt><trkpt lat="45.3964699" lon="10.5641456"><ele>102.33333333333334</ele><time>2026-03-28T09:10:27.576Z</time></trkpt><trkpt lat="45.3965767" lon="10.5642902"><ele>103.0</ele><time>2026-03-28T09:10:28.576Z</time></trkpt><trkpt lat="45.3966951" lon="10.5644446"><ele>102.66666666666667</ele><time>2026-03-28T09:10:29.576Z</time></trkpt><trkpt lat="45.3968117" lon="10.5645986"><ele>102.33333333333334</ele><time>2026-03-28T09:10:30.575Z</time></trkpt><trkpt lat="45.3969173" lon="10.5647471"><ele>102.0</ele><time>2026-03-28T09:10:31.575Z</time></trkpt><trkpt lat="45.3970193" lon="10.5648918"><ele>102.0</ele><time>2026-03-28T09:10:32.575Z</time></trkpt><trkpt lat="45.3971221" lon="10.5650344"><ele>102.0</ele><time>2026-03-28T09:10:33.575Z</time></trkpt><trkpt lat="45.3972261" lon="10.5651764"><ele>102.0</ele><time>2026-03-28T09:10:34.576Z</time></trkpt><trkpt lat="45.3973187" lon="10.5653245"><ele>102.0</ele><time>2026-03-28T09:10:35.575Z</time></trkpt><trkpt lat="45.3973984" lon="10.5654878"><ele>102.0</ele><time>2026-03-28T09:10:36.575Z</time></trkpt><trkpt lat="45.3974517" lon="10.5656696"><ele>102.0</ele><time>2026-03-28T09:10:37.576Z</time></trkpt><trkpt lat="45.3974995" lon="10.5658625"><ele>102.0</ele><time>2026-03-28T09:10:38.576Z</time></trkpt><trkpt lat="45.3975761" lon="10.5660542"><ele>102.0</ele><time>2026-03-28T09:10:39.575Z</time></trkpt><trkpt lat="45.3976816" lon="10.5662499"><ele>102.0</ele><time>2026-03-28T09:10:40.575Z</time></trkpt><trkpt lat="45.3978173" lon="10.5664502"><ele>102.0</ele><time>2026-03-28T09:10:41.576Z</time></trkpt><trkpt lat="45.3979573" lon="10.5666481"><ele>102.0</ele><time>2026-03-28T09:10:42.575Z</time></trkpt><trkpt lat="45.3981011" lon="10.5668601"><ele>103.0</ele><time>2026-03-28T09:10:43.575Z</time></trkpt><trkpt lat="45.3982537" lon="10.567066"><ele>104.0</ele><time>2026-03-28T09:10:44.575Z</time></trkpt><trkpt lat="45.3984198" lon="10.5672619"><ele>105.0</ele><time>2026-03-28T09:10:45.575Z</time></trkpt><trkpt lat="45.3986047" lon="10.5674623"><ele>105.0</ele><time>2026-03-28T09:10:46.575Z</time></trkpt><trkpt lat="45.3987958" lon="10.5676853"><ele>105.0</ele><time>2026-03-28T09:10:47.576Z</time></trkpt><trkpt lat="45.3989647" lon="10.5679143"><ele>106.33333333333334</ele><time>2026-03-28T09:10:48.576Z</time></trkpt><trkpt lat="45.3991241" lon="10.5681188"><ele>107.66666666666667</ele><time>2026-03-28T09:10:49.576Z</time></trkpt><trkpt lat="45.3992563" lon="10.5682884"><ele>109.0</ele><time>2026-03-28T09:10:50.576Z</time></trkpt><trkpt lat="45.3993605" lon="10.5684244"><ele>109.00000000000001</ele><time>2026-03-28T09:10:51.575Z</time></trkpt><trkpt lat="45.3994344" lon="10.5685213"><ele>109.0</ele><time>2026-03-28T09:10:52.575Z</time></trkpt><trkpt lat="45.3994939" lon="10.5686029"><ele>109.0</ele><time>2026-03-28T09:10:53.576Z</time></trkpt><trkpt lat="45.399563" lon="10.5687178"><ele>109.0</ele><time>2026-03-28T09:10:55.575Z</time></trkpt><trkpt lat="45.3996073" lon="10.5687953"><ele>109.00000000000001</ele><time>2026-03-28T09:10:57.576Z</time></trkpt><trkpt lat="45.3996049" lon="10.5689203"><ele>109.0</ele><time>2026-03-28T09:10:59.576Z</time></trkpt><trkpt lat="45.3995312" lon="10.5690273"><ele>110.66666666666667</ele><time>2026-03-28T09:11:00.575Z</time></trkpt><trkpt lat="45.3994233" lon="10.5691698"><ele>112.33333333333334</ele><time>2026-03-28T09:11:01.575Z</time></trkpt><trkpt lat="45.3992681" lon="10.5693663"><ele>114.0</ele><time>2026-03-28T09:11:02.575Z</time></trkpt><trkpt lat="45.399113" lon="10.5695882"><ele>115.0</ele><time>2026-03-28T09:11:03.575Z</time></trkpt><trkpt lat="45.3989778" lon="10.5697887"><ele>116.0</ele><time>2026-03-28T09:11:04.576Z</time></trkpt><trkpt lat="45.3988437" lon="10.5699715"><ele>117.0</ele><time>2026-03-28T09:11:05.576Z</time></trkpt><trkpt lat="45.3987047" lon="10.5701661"><ele>117.66666666666666</ele><time>2026-03-28T09:11:06.576Z</time></trkpt><trkpt lat="45.3985544" lon="10.5703632"><ele>118.33333333333333</ele><time>2026-03-28T09:11:07.576Z</time></trkpt><trkpt lat="45.3984009" lon="10.5705448"><ele>119.0</ele><time>2026-03-28T09:11:08.574Z</time></trkpt><trkpt lat="45.398233" lon="10.5707268"><ele>119.0</ele><time>2026-03-28T09:11:09.576Z</time></trkpt><trkpt lat="45.398052" lon="10.5709222"><ele>119.0</ele><time>2026-03-28T09:11:10.576Z</time></trkpt><trkpt lat="45.3978687" lon="10.5711297"><ele>118.5</ele><time>2026-03-28T09:11:11.576Z</time></trkpt><trkpt lat="45.3976848" lon="10.5713418"><ele>118.0</ele><time>2026-03-28T09:11:12.576Z</time></trkpt><trkpt lat="45.3974807" lon="10.5715956"><ele>118.0</ele><time>2026-03-28T09:11:13.575Z</time></trkpt><trkpt lat="45.3972491" lon="10.5718783"><ele>118.0</ele><time>2026-03-28T09:11:14.575Z</time></trkpt><trkpt lat="45.3969952" lon="10.572164"><ele>117.5</ele><time>2026-03-28T09:11:15.576Z</time></trkpt><trkpt lat="45.3967614" lon="10.5724348"><ele>117.0</ele><time>2026-03-28T09:11:16.575Z</time></trkpt><trkpt lat="45.3965532" lon="10.5726617"><ele>117.0</ele><time>2026-03-28T09:11:17.575Z</time></trkpt><trkpt lat="45.3963445" lon="10.5728446"><ele>117.0</ele><time>2026-03-28T09:11:18.576Z</time></trkpt><trkpt lat="45.3961254" lon="10.5729857"><ele>118.0</ele><time>2026-03-28T09:11:19.576Z</time></trkpt><trkpt lat="45.3959172" lon="10.5731036"><ele>119.0</ele><time>2026-03-28T09:11:20.576Z</time></trkpt><trkpt lat="45.3957043" lon="10.5732467"><ele>118.5</ele><time>2026-03-28T09:11:21.575Z</time></trkpt><trkpt lat="45.3954884" lon="10.573423"><ele>118.0</ele><time>2026-03-28T09:11:22.574Z</time></trkpt><trkpt lat="45.3952941" lon="10.5736271"><ele>118.5</ele><time>2026-03-28T09:11:23.575Z</time></trkpt><trkpt lat="45.3951075" lon="10.573831"><ele>119.0</ele><time>2026-03-28T09:11:24.576Z</time></trkpt><trkpt lat="45.394917" lon="10.574036"><ele>119.0</ele><time>2026-03-28T09:11:25.575Z</time></trkpt><trkpt lat="45.3947429" lon="10.5742257"><ele>119.0</ele><time>2026-03-28T09:11:26.574Z</time></trkpt><trkpt lat="45.3945804" lon="10.5744131"><ele>119.0</ele><time>2026-03-28T09:11:27.574Z</time></trkpt><trkpt lat="45.3944292" lon="10.5745925"><ele>119.0</ele><time>2026-03-28T09:11:28.576Z</time></trkpt><trkpt lat="45.3942904" lon="10.5747607"><ele>119.0</ele><time>2026-03-28T09:11:29.575Z</time></trkpt><trkpt lat="45.3941574" lon="10.5749261"><ele>119.0</ele><time>2026-03-28T09:11:30.576Z</time></trkpt><trkpt lat="45.3940257" lon="10.5750959"><ele>119.0</ele><time>2026-03-28T09:11:31.575Z</time></trkpt><trkpt lat="45.3938922" lon="10.5752652"><ele>119.0</ele><time>2026-03-28T09:11:32.575Z</time></trkpt><trkpt lat="45.3937554" lon="10.5754437"><ele>119.0</ele><time>2026-03-28T09:11:33.575Z</time></trkpt><trkpt lat="45.3936297" lon="10.5756278"><ele>118.66666666666666</ele><time>2026-03-28T09:11:34.574Z</time></trkpt><trkpt lat="45.3935152" lon="10.5758363"><ele>118.33333333333334</ele><time>2026-03-28T09:11:35.575Z</time></trkpt><trkpt lat="45.3933979" lon="10.5760776"><ele>118.0</ele><time>2026-03-28T09:11:36.576Z</time></trkpt><trkpt lat="45.3932762" lon="10.5763262"><ele>118.66666666666667</ele><time>2026-03-28T09:11:37.576Z</time></trkpt><trkpt lat="45.3931553" lon="10.5765684"><ele>119.33333333333334</ele><time>2026-03-28T09:11:38.576Z</time></trkpt><trkpt lat="45.3930457" lon="10.5767947"><ele>120.0</ele><time>2026-03-28T09:11:39.575Z</time></trkpt><trkpt lat="45.3929418" lon="10.5770047"><ele>119.33333333333334</ele><time>2026-03-28T09:11:40.575Z</time></trkpt><trkpt lat="45.3928422" lon="10.5772006"><ele>118.66666666666667</ele><time>2026-03-28T09:11:41.575Z</time></trkpt><trkpt lat="45.3927359" lon="10.5773929"><ele>118.0</ele><time>2026-03-28T09:11:42.575Z</time></trkpt><trkpt lat="45.3926211" lon="10.5775865"><ele>118.0</ele><time>2026-03-28T09:11:43.575Z</time></trkpt><trkpt lat="45.3925003" lon="10.5777807"><ele>118.0</ele><time>2026-03-28T09:11:44.575Z</time></trkpt><trkpt lat="45.3923766" lon="10.5779732"><ele>118.0</ele><time>2026-03-28T09:11:45.575Z</time></trkpt><trkpt lat="45.3922523" lon="10.5781603"><ele>117.66666666666667</ele><time>2026-03-28T09:11:46.576Z</time></trkpt><trkpt lat="45.3921262" lon="10.5783476"><ele>117.33333333333334</ele><time>2026-03-28T09:11:47.575Z</time></trkpt><trkpt lat="45.3920062" lon="10.5785281"><ele>117.0</ele><time>2026-03-28T09:11:48.575Z</time></trkpt><trkpt lat="45.3918932" lon="10.5786939"><ele>117.0</ele><time>2026-03-28T09:11:49.575Z</time></trkpt><trkpt lat="45.3917845" lon="10.5788414"><ele>117.0</ele><time>2026-03-28T09:11:50.576Z</time></trkpt><trkpt lat="45.3916746" lon="10.5789763"><ele>117.0</ele><time>2026-03-28T09:11:51.576Z</time></trkpt><trkpt lat="45.3915694" lon="10.5790965"><ele>117.0</ele><time>2026-03-28T09:11:52.576Z</time></trkpt><trkpt lat="45.3914697" lon="10.5792064"><ele>117.0</ele><time>2026-03-28T09:11:53.576Z</time></trkpt><trkpt lat="45.3913752" lon="10.579304"><ele>116.99999999999999</ele><time>2026-03-28T09:11:54.575Z</time></trkpt><trkpt lat="45.3912887" lon="10.5793988"><ele>116.99999999999999</ele><time>2026-03-28T09:11:55.576Z</time></trkpt><trkpt lat="45.3912099" lon="10.5794918"><ele>117.0</ele><time>2026-03-28T09:11:56.575Z</time></trkpt><trkpt lat="45.3911454" lon="10.5795912"><ele>117.0</ele><time>2026-03-28T09:11:57.576Z</time></trkpt><trkpt lat="45.3911021" lon="10.57969"><ele>117.83333333333333</ele><time>2026-03-28T09:11:58.576Z</time></trkpt><trkpt lat="45.3910701" lon="10.5797806"><ele>118.66666666666666</ele><time>2026-03-28T09:11:59.575Z</time></trkpt><trkpt lat="45.3910179" lon="10.5799313"><ele>119.5</ele><time>2026-03-28T09:12:01.575Z</time></trkpt><trkpt lat="45.3909794" lon="10.5800583"><ele>120.33333333333333</ele><time>2026-03-28T09:12:03.575Z</time></trkpt><trkpt lat="45.3909541" lon="10.5801605"><ele>121.16666666666666</ele><time>2026-03-28T09:12:05.575Z</time></trkpt><trkpt lat="45.3909848" lon="10.5802597"><ele>122.0</ele><time>2026-03-28T09:12:07.576Z</time></trkpt><trkpt lat="45.3910918" lon="10.5803099"><ele>122.0</ele><time>2026-03-28T09:12:09.576Z</time></trkpt><trkpt lat="45.3911344" lon="10.5804329"><ele>122.0</ele><time>2026-03-28T09:12:11.575Z</time></trkpt><trkpt lat="45.3910953" lon="10.5806039"><ele>122.0</ele><time>2026-03-28T09:12:13.576Z</time></trkpt><trkpt lat="45.3910416" lon="10.5807568"><ele>122.0</ele><time>2026-03-28T09:12:14.575Z</time></trkpt><trkpt lat="45.3909861" lon="10.5809342"><ele>122.0</ele><time>2026-03-28T09:12:15.575Z</time></trkpt><trkpt lat="45.3909322" lon="10.581095"><ele>121.99999999999999</ele><time>2026-03-28T09:12:16.575Z</time></trkpt><trkpt lat="45.3908807" lon="10.5812235"><ele>121.99999999999999</ele><time>2026-03-28T09:12:17.575Z</time></trkpt><trkpt lat="45.3908245" lon="10.5813407"><ele>122.0</ele><time>2026-03-28T09:12:18.575Z</time></trkpt><trkpt lat="45.3907642" lon="10.5814406"><ele>122.0</ele><time>2026-03-28T09:12:19.574Z</time></trkpt><trkpt lat="45.3906989" lon="10.5815528"><ele>121.0</ele><time>2026-03-28T09:12:20.575Z</time></trkpt><trkpt lat="45.3906353" lon="10.5816841"><ele>120.0</ele><time>2026-03-28T09:12:21.574Z</time></trkpt><trkpt lat="45.3905776" lon="10.5818333"><ele>119.0</ele><time>2026-03-28T09:12:22.575Z</time></trkpt><trkpt lat="45.390527" lon="10.5819803"><ele>118.0</ele><time>2026-03-28T09:12:23.575Z</time></trkpt><trkpt lat="45.3904819" lon="10.5821221"><ele>118.0</ele><time>2026-03-28T09:12:24.575Z</time></trkpt><trkpt lat="45.3904407" lon="10.5822493"><ele>118.00000000000001</ele><time>2026-03-28T09:12:25.575Z</time></trkpt><trkpt lat="45.3903958" lon="10.5823646"><ele>118.00000000000001</ele><time>2026-03-28T09:12:26.575Z</time></trkpt><trkpt lat="45.3903443" lon="10.5824788"><ele>118.0</ele><time>2026-03-28T09:12:27.576Z</time></trkpt><trkpt lat="45.3902875" lon="10.5826027"><ele>118.0</ele><time>2026-03-28T09:12:28.575Z</time></trkpt><trkpt lat="45.3902286" lon="10.5827272"><ele>118.4</ele><time>2026-03-28T09:12:29.576Z</time></trkpt><trkpt lat="45.3901655" lon="10.5828507"><ele>118.80000000000001</ele><time>2026-03-28T09:12:30.575Z</time></trkpt><trkpt lat="45.3901067" lon="10.5829659"><ele>119.2</ele><time>2026-03-28T09:12:31.576Z</time></trkpt><trkpt lat="45.3900515" lon="10.5830777"><ele>119.6</ele><time>2026-03-28T09:12:32.575Z</time></trkpt><trkpt lat="45.3899989" lon="10.5831825"><ele>120.0</ele><time>2026-03-28T09:12:33.576Z</time></trkpt><trkpt lat="45.3899584" lon="10.5832652"><ele>120.0</ele><time>2026-03-28T09:12:34.576Z</time></trkpt><trkpt lat="45.3899257" lon="10.5833422"><ele>120.0</ele><time>2026-03-28T09:12:35.576Z</time></trkpt><trkpt lat="45.3898886" lon="10.5834983"><ele>120.0</ele><time>2026-03-28T09:12:37.575Z</time></trkpt><trkpt lat="45.3898888" lon="10.583624"><ele>120.0</ele><time>2026-03-28T09:12:39.576Z</time></trkpt><trkpt lat="45.3899135" lon="10.5837429"><ele>120.0</ele><time>2026-03-28T09:12:41.575Z</time></trkpt><trkpt lat="45.389989" lon="10.5838547"><ele>119.8</ele><time>2026-03-28T09:12:43.574Z</time></trkpt><trkpt lat="45.3901169" lon="10.5839279"><ele>119.6</ele><time>2026-03-28T09:12:45.574Z</time></trkpt><trkpt lat="45.3902028" lon="10.5839491"><ele>119.4</ele><time>2026-03-28T09:12:46.575Z</time></trkpt><trkpt lat="45.3903052" lon="10.5839541"><ele>119.2</ele><time>2026-03-28T09:12:47.576Z</time></trkpt><trkpt lat="45.3904154" lon="10.5839566"><ele>119.0</ele><time>2026-03-28T09:12:48.576Z</time></trkpt><trkpt lat="45.3905268" lon="10.5839555"><ele>119.0</ele><time>2026-03-28T09:12:49.576Z</time></trkpt><trkpt lat="45.390634" lon="10.5839543"><ele>119.0</ele><time>2026-03-28T09:12:50.575Z</time></trkpt><trkpt lat="45.3907411" lon="10.5839515"><ele>119.0</ele><time>2026-03-28T09:12:51.575Z</time></trkpt><trkpt lat="45.390841" lon="10.5839478"><ele>119.0</ele><time>2026-03-28T09:12:52.574Z</time></trkpt><trkpt lat="45.3909334" lon="10.5839475"><ele>119.0</ele><time>2026-03-28T09:12:53.574Z</time></trkpt><trkpt lat="45.3910173" lon="10.5839598"><ele>119.0</ele><time>2026-03-28T09:12:54.576Z</time></trkpt><trkpt lat="45.3910974" lon="10.5839892"><ele>119.0</ele><time>2026-03-28T09:12:55.575Z</time></trkpt><trkpt lat="45.3911806" lon="10.5840449"><ele>119.0</ele><time>2026-03-28T09:12:56.576Z</time></trkpt><trkpt lat="45.3912619" lon="10.5841248"><ele>119.0</ele><time>2026-03-28T09:12:57.575Z</time></trkpt><trkpt lat="45.3913428" lon="10.5842117"><ele>119.0</ele><time>2026-03-28T09:12:58.574Z</time></trkpt><trkpt lat="45.3914183" lon="10.5842969"><ele>118.42857142857143</ele><time>2026-03-28T09:12:59.575Z</time></trkpt><trkpt lat="45.391485" lon="10.5843736"><ele>117.85714285714286</ele><time>2026-03-28T09:13:00.575Z</time></trkpt><trkpt lat="45.391542" lon="10.5844364"><ele>117.28571428571428</ele><time>2026-03-28T09:13:01.574Z</time></trkpt><trkpt lat="45.3915959" lon="10.5844975"><ele>116.71428571428571</ele><time>2026-03-28T09:13:02.575Z</time></trkpt><trkpt lat="45.3916511" lon="10.5845609"><ele>116.14285714285714</ele><time>2026-03-28T09:13:03.575Z</time></trkpt><trkpt lat="45.3916972" lon="10.5846331"><ele>115.57142857142856</ele><time>2026-03-28T09:13:04.574Z</time></trkpt><trkpt lat="45.3917341" lon="10.5847171"><ele>114.99999999999999</ele><time>2026-03-28T09:13:05.575Z</time></trkpt><trkpt lat="45.39176" lon="10.584812"><ele>115.0</ele><time>2026-03-28T09:13:06.575Z</time></trkpt><trkpt lat="45.3917698" lon="10.58492"><ele>115.0</ele><time>2026-03-28T09:13:07.574Z</time></trkpt><trkpt lat="45.3917628" lon="10.585046"><ele>115.0</ele><time>2026-03-28T09:13:08.574Z</time></trkpt><trkpt lat="45.3917433" lon="10.5851832"><ele>115.0</ele><time>2026-03-28T09:13:09.575Z</time></trkpt><trkpt lat="45.3917238" lon="10.5853323"><ele>115.0</ele><time>2026-03-28T09:13:10.575Z</time></trkpt><trkpt lat="45.3917113" lon="10.5854748"><ele>115.0</ele><time>2026-03-28T09:13:11.575Z</time></trkpt><trkpt lat="45.3916945" lon="10.5856166"><ele>115.0</ele><time>2026-03-28T09:13:12.575Z</time></trkpt><trkpt lat="45.3916783" lon="10.5857607"><ele>115.0</ele><time>2026-03-28T09:13:13.576Z</time></trkpt><trkpt lat="45.39166" lon="10.5858996"><ele>115.0</ele><time>2026-03-28T09:13:14.575Z</time></trkpt><trkpt lat="45.3916357" lon="10.5860436"><ele>115.0</ele><time>2026-03-28T09:13:15.575Z</time></trkpt><trkpt lat="45.3916114" lon="10.5861649"><ele>114.8</ele><time>2026-03-28T09:13:16.576Z</time></trkpt><trkpt lat="45.3915733" lon="10.5862751"><ele>114.6</ele><time>2026-03-28T09:13:17.575Z</time></trkpt><trkpt lat="45.3915132" lon="10.5863968"><ele>114.4</ele><time>2026-03-28T09:13:18.575Z</time></trkpt><trkpt lat="45.3914411" lon="10.5865283"><ele>114.2</ele><time>2026-03-28T09:13:19.574Z</time></trkpt><trkpt lat="45.3913935" lon="10.5866474"><ele>114.0</ele><time>2026-03-28T09:13:20.576Z</time></trkpt><trkpt lat="45.3913556" lon="10.5867681"><ele>114.16666666666667</ele><time>2026-03-28T09:13:21.575Z</time></trkpt><trkpt lat="45.3913215" lon="10.5868876"><ele>114.33333333333334</ele><time>2026-03-28T09:13:22.576Z</time></trkpt><trkpt lat="45.3912979" lon="10.587001"><ele>114.5</ele><time>2026-03-28T09:13:23.574Z</time></trkpt><trkpt lat="45.3912879" lon="10.5871256"><ele>114.66666666666667</ele><time>2026-03-28T09:13:24.576Z</time></trkpt><trkpt lat="45.391295" lon="10.5872518"><ele>114.83333333333334</ele><time>2026-03-28T09:13:25.576Z</time></trkpt><trkpt lat="45.3913183" lon="10.5873739"><ele>115.0</ele><time>2026-03-28T09:13:26.576Z</time></trkpt><trkpt lat="45.3913564" lon="10.5874713"><ele>115.00000000000001</ele><time>2026-03-28T09:13:27.576Z</time></trkpt><trkpt lat="45.3914081" lon="10.5875544"><ele>115.0</ele><time>2026-03-28T09:13:28.576Z</time></trkpt><trkpt lat="45.3914652" lon="10.58762"><ele>115.0</ele><time>2026-03-28T09:13:29.576Z</time></trkpt><trkpt lat="45.3915328" lon="10.5876892"><ele>115.0</ele><time>2026-03-28T09:13:30.574Z</time></trkpt><trkpt lat="45.3916061" lon="10.5877722"><ele>115.00000000000001</ele><time>2026-03-28T09:13:31.574Z</time></trkpt><trkpt lat="45.3916805" lon="10.5878622"><ele>115.0</ele><time>2026-03-28T09:13:32.575Z</time></trkpt><trkpt lat="45.3917501" lon="10.5879606"><ele>115.6</ele><time>2026-03-28T09:13:33.575Z</time></trkpt><trkpt lat="45.391813" lon="10.5880746"><ele>116.2</ele><time>2026-03-28T09:13:34.575Z</time></trkpt><trkpt lat="45.391865" lon="10.588211"><ele>116.80000000000001</ele><time>2026-03-28T09:13:35.576Z</time></trkpt><trkpt lat="45.3919063" lon="10.5883539"><ele>117.4</ele><time>2026-03-28T09:13:36.576Z</time></trkpt><trkpt lat="45.3919434" lon="10.5885023"><ele>118.0</ele><time>2026-03-28T09:13:37.575Z</time></trkpt><trkpt lat="45.3919742" lon="10.588665"><ele>118.0</ele><time>2026-03-28T09:13:38.576Z</time></trkpt><trkpt lat="45.3920016" lon="10.5888514"><ele>118.0</ele><time>2026-03-28T09:13:39.575Z</time></trkpt><trkpt lat="45.3920266" lon="10.5890606"><ele>118.0</ele><time>2026-03-28T09:13:40.575Z</time></trkpt><trkpt lat="45.3920446" lon="10.5892971"><ele>117.66666666666667</ele><time>2026-03-28T09:13:41.575Z</time></trkpt><trkpt lat="45.3920526" lon="10.5895561"><ele>117.33333333333334</ele><time>2026-03-28T09:13:42.575Z</time></trkpt><trkpt lat="45.392052" lon="10.589788"><ele>117.0</ele><time>2026-03-28T09:13:43.576Z</time></trkpt><trkpt lat="45.3920556" lon="10.5900419"><ele>117.0</ele><time>2026-03-28T09:13:44.576Z</time></trkpt><trkpt lat="45.3920614" lon="10.5903118"><ele>117.0</ele><time>2026-03-28T09:13:45.576Z</time></trkpt><trkpt lat="45.3920731" lon="10.5905465"><ele>117.0</ele><time>2026-03-28T09:13:46.574Z</time></trkpt><trkpt lat="45.392094" lon="10.5907521"><ele>116.75</ele><time>2026-03-28T09:13:47.575Z</time></trkpt><trkpt lat="45.3921288" lon="10.5909313"><ele>116.5</ele><time>2026-03-28T09:13:48.575Z</time></trkpt><trkpt lat="45.3921878" lon="10.5910866"><ele>116.25</ele><time>2026-03-28T09:13:49.576Z</time></trkpt><trkpt lat="45.3922713" lon="10.5912408"><ele>116.0</ele><time>2026-03-28T09:13:50.576Z</time></trkpt><trkpt lat="45.3923713" lon="10.5914092"><ele>117.0</ele><time>2026-03-28T09:13:51.576Z</time></trkpt><trkpt lat="45.3924573" lon="10.5915815"><ele>118.0</ele><time>2026-03-28T09:13:52.576Z</time></trkpt><trkpt lat="45.392531" lon="10.5917523"><ele>119.0</ele><time>2026-03-28T09:13:53.575Z</time></trkpt><trkpt lat="45.3925794" lon="10.5919216"><ele>120.0</ele><time>2026-03-28T09:13:54.575Z</time></trkpt><trkpt lat="45.3926052" lon="10.5920937"><ele>120.0</ele><time>2026-03-28T09:13:55.574Z</time></trkpt><trkpt lat="45.3926107" lon="10.5922654"><ele>120.0</ele><time>2026-03-28T09:13:56.575Z</time></trkpt><trkpt lat="45.3925944" lon="10.5924484"><ele>120.0</ele><time>2026-03-28T09:13:57.576Z</time></trkpt><trkpt lat="45.3925721" lon="10.5926116"><ele>120.0</ele><time>2026-03-28T09:13:58.575Z</time></trkpt><trkpt lat="45.3925668" lon="10.5927404"><ele>119.8</ele><time>2026-03-28T09:13:59.576Z</time></trkpt><trkpt lat="45.3925804" lon="10.5928499"><ele>119.6</ele><time>2026-03-28T09:14:00.574Z</time></trkpt><trkpt lat="45.3926213" lon="10.5929534"><ele>119.4</ele><time>2026-03-28T09:14:01.575Z</time></trkpt><trkpt lat="45.3926916" lon="10.593037"><ele>119.2</ele><time>2026-03-28T09:14:02.575Z</time></trkpt><trkpt lat="45.3927883" lon="10.5931029"><ele>119.0</ele><time>2026-03-28T09:14:03.576Z</time></trkpt><trkpt lat="45.3929185" lon="10.5931686"><ele>118.25</ele><time>2026-03-28T09:14:04.575Z</time></trkpt><trkpt lat="45.3930559" lon="10.5932281"><ele>117.5</ele><time>2026-03-28T09:14:05.575Z</time></trkpt><trkpt lat="45.3931809" lon="10.5932799"><ele>116.75</ele><time>2026-03-28T09:14:06.575Z</time></trkpt><trkpt lat="45.3932945" lon="10.5933601"><ele>116.0</ele><time>2026-03-28T09:14:07.575Z</time></trkpt><trkpt lat="45.3934102" lon="10.5934634"><ele>116.0</ele><time>2026-03-28T09:14:08.576Z</time></trkpt><trkpt lat="45.3935419" lon="10.5935705"><ele>116.0</ele><time>2026-03-28T09:14:09.576Z</time></trkpt><trkpt lat="45.393662" lon="10.5936658"><ele>116.0</ele><time>2026-03-28T09:14:10.575Z</time></trkpt><trkpt lat="45.3937709" lon="10.5937504"><ele>116.0</ele><time>2026-03-28T09:14:11.575Z</time></trkpt><trkpt lat="45.3938446" lon="10.5938182"><ele>115.6</ele><time>2026-03-28T09:14:12.576Z</time></trkpt><trkpt lat="45.3939049" lon="10.5939137"><ele>115.19999999999999</ele><time>2026-03-28T09:14:13.576Z</time></trkpt><trkpt lat="45.3939383" lon="10.5940398"><ele>114.80000000000001</ele><time>2026-03-28T09:14:14.575Z</time></trkpt><trkpt lat="45.3939528" lon="10.5941826"><ele>114.4</ele><time>2026-03-28T09:14:15.575Z</time></trkpt><trkpt lat="45.3939542" lon="10.5943581"><ele>114.0</ele><time>2026-03-28T09:14:16.575Z</time></trkpt><trkpt lat="45.3939454" lon="10.5945576"><ele>113.75</ele><time>2026-03-28T09:14:17.576Z</time></trkpt><trkpt lat="45.3939301" lon="10.5947512"><ele>113.5</ele><time>2026-03-28T09:14:18.575Z</time></trkpt><trkpt lat="45.393912" lon="10.5949576"><ele>113.25</ele><time>2026-03-28T09:14:19.576Z</time></trkpt><trkpt lat="45.393892" lon="10.595168"><ele>113.0</ele><time>2026-03-28T09:14:20.575Z</time></trkpt><trkpt lat="45.3938822" lon="10.5953473"><ele>113.49999999999999</ele><time>2026-03-28T09:14:21.576Z</time></trkpt><trkpt lat="45.3938782" lon="10.5954965"><ele>114.0</ele><time>2026-03-28T09:14:22.575Z</time></trkpt><trkpt lat="45.3938919" lon="10.5956212"><ele>114.5</ele><time>2026-03-28T09:14:23.576Z</time></trkpt><trkpt lat="45.3939244" lon="10.595731"><ele>115.0</ele><time>2026-03-28T09:14:24.575Z</time></trkpt><trkpt lat="45.3939773" lon="10.5958043"><ele>115.49999999999999</ele><time>2026-03-28T09:14:25.575Z</time></trkpt><trkpt lat="45.3940524" lon="10.595868"><ele>116.0</ele><time>2026-03-28T09:14:26.575Z</time></trkpt><trkpt lat="45.3941537" lon="10.5959249"><ele>116.0</ele><time>2026-03-28T09:14:27.575Z</time></trkpt><trkpt lat="45.3942665" lon="10.5959852"><ele>116.0</ele><time>2026-03-28T09:14:28.575Z</time></trkpt><trkpt lat="45.3943764" lon="10.5960394"><ele>116.0</ele><time>2026-03-28T09:14:29.576Z</time></trkpt><trkpt lat="45.3944795" lon="10.5960876"><ele>116.0</ele><time>2026-03-28T09:14:30.576Z</time></trkpt><trkpt lat="45.3946038" lon="10.5961378"><ele>115.0</ele><time>2026-03-28T09:14:31.576Z</time></trkpt><trkpt lat="45.3947391" lon="10.5961814"><ele>114.0</ele><time>2026-03-28T09:14:32.576Z</time></trkpt><trkpt lat="45.3948629" lon="10.5962148"><ele>113.0</ele><time>2026-03-28T09:14:33.576Z</time></trkpt><trkpt lat="45.39498" lon="10.5962423"><ele>112.0</ele><time>2026-03-28T09:14:34.575Z</time></trkpt><trkpt lat="45.3950902" lon="10.5962802"><ele>112.0</ele><time>2026-03-28T09:14:35.575Z</time></trkpt><trkpt lat="45.3951907" lon="10.5963285"><ele>111.99999999999999</ele><time>2026-03-28T09:14:36.576Z</time></trkpt><trkpt lat="45.3952752" lon="10.5963865"><ele>111.99999999999999</ele><time>2026-03-28T09:14:37.575Z</time></trkpt><trkpt lat="45.3953465" lon="10.5964524"><ele>112.0</ele><time>2026-03-28T09:14:38.575Z</time></trkpt><trkpt lat="45.3954093" lon="10.5965283"><ele>112.0</ele><time>2026-03-28T09:14:39.576Z</time></trkpt><trkpt lat="45.3954724" lon="10.5966342"><ele>111.33333333333334</ele><time>2026-03-28T09:14:40.576Z</time></trkpt><trkpt lat="45.3955273" lon="10.5967302"><ele>110.66666666666667</ele><time>2026-03-28T09:14:41.576Z</time></trkpt><trkpt lat="45.395575" lon="10.596816"><ele>110.0</ele><time>2026-03-28T09:14:42.575Z</time></trkpt><trkpt lat="45.3956279" lon="10.5968958"><ele>109.33333333333334</ele><time>2026-03-28T09:14:43.575Z</time></trkpt><trkpt lat="45.3956932" lon="10.5969661"><ele>108.66666666666667</ele><time>2026-03-28T09:14:44.575Z</time></trkpt><trkpt lat="45.3957636" lon="10.5970177"><ele>108.0</ele><time>2026-03-28T09:14:45.575Z</time></trkpt><trkpt lat="45.3958532" lon="10.5970719"><ele>108.0</ele><time>2026-03-28T09:14:46.575Z</time></trkpt><trkpt lat="45.3959452" lon="10.597111"><ele>108.00000000000001</ele><time>2026-03-28T09:14:47.576Z</time></trkpt><trkpt lat="45.3960426" lon="10.5971373"><ele>108.00000000000001</ele><time>2026-03-28T09:14:48.576Z</time></trkpt><trkpt lat="45.3961474" lon="10.597163"><ele>108.0</ele><time>2026-03-28T09:14:49.576Z</time></trkpt><trkpt lat="45.3962431" lon="10.5971934"><ele>108.0</ele><time>2026-03-28T09:14:50.575Z</time></trkpt><trkpt lat="45.396334" lon="10.5972401"><ele>107.0</ele><time>2026-03-28T09:14:51.574Z</time></trkpt><trkpt lat="45.3964372" lon="10.5972653"><ele>106.00000000000001</ele><time>2026-03-28T09:14:52.575Z</time></trkpt><trkpt lat="45.3965454" lon="10.597254"><ele>105.0</ele><time>2026-03-28T09:14:53.576Z</time></trkpt><trkpt lat="45.39666" lon="10.5972056"><ele>104.0</ele><time>2026-03-28T09:14:54.576Z</time></trkpt><trkpt lat="45.3967628" lon="10.5971619"><ele>103.0</ele><time>2026-03-28T09:14:55.575Z</time></trkpt><trkpt lat="45.3968679" lon="10.5971376"><ele>103.0</ele><time>2026-03-28T09:14:56.574Z</time></trkpt><trkpt lat="45.3969816" lon="10.5971144"><ele>103.0</ele><time>2026-03-28T09:14:57.575Z</time></trkpt><trkpt lat="45.3970801" lon="10.5971018"><ele>103.0</ele><time>2026-03-28T09:14:58.576Z</time></trkpt><trkpt lat="45.3971556" lon="10.5971026"><ele>103.0</ele><time>2026-03-28T09:14:59.575Z</time></trkpt><trkpt lat="45.3972507" lon="10.5971255"><ele>103.0</ele><time>2026-03-28T09:15:01.575Z</time></trkpt><trkpt lat="45.397296" lon="10.5972275"><ele>103.25</ele><time>2026-03-28T09:15:03.576Z</time></trkpt><trkpt lat="45.3972784" lon="10.5974343"><ele>103.5</ele><time>2026-03-28T09:15:05.575Z</time></trkpt><trkpt lat="45.3972628" lon="10.5975866"><ele>103.75</ele><time>2026-03-28T09:15:06.576Z</time></trkpt><trkpt lat="45.3972374" lon="10.5977574"><ele>104.0</ele><time>2026-03-28T09:15:07.576Z</time></trkpt><trkpt lat="45.3972041" lon="10.597959"><ele>103.66666666666666</ele><time>2026-03-28T09:15:08.576Z</time></trkpt><trkpt lat="45.3971647" lon="10.5981694"><ele>103.33333333333334</ele><time>2026-03-28T09:15:09.576Z</time></trkpt><trkpt lat="45.3971187" lon="10.5983776"><ele>103.0</ele><time>2026-03-28T09:15:10.576Z</time></trkpt><trkpt lat="45.3970536" lon="10.5985641"><ele>102.5</ele><time>2026-03-28T09:15:11.575Z</time></trkpt><trkpt lat="45.3969975" lon="10.5987682"><ele>102.0</ele><time>2026-03-28T09:15:12.575Z</time></trkpt><trkpt lat="45.3969569" lon="10.5989585"><ele>101.5</ele><time>2026-03-28T09:15:13.574Z</time></trkpt><trkpt lat="45.3969197" lon="10.5991294"><ele>101.0</ele><time>2026-03-28T09:15:14.576Z</time></trkpt><trkpt lat="45.3968897" lon="10.5993186"><ele>101.0</ele><time>2026-03-28T09:15:15.574Z</time></trkpt><trkpt lat="45.3968545" lon="10.5994913"><ele>101.0</ele><time>2026-03-28T09:15:16.575Z</time></trkpt><trkpt lat="45.3968182" lon="10.5996701"><ele>101.0</ele><time>2026-03-28T09:15:17.575Z</time></trkpt><trkpt lat="45.3967386" lon="10.599836"><ele>101.0</ele><time>2026-03-28T09:15:18.576Z</time></trkpt><trkpt lat="45.3966554" lon="10.5999844"><ele>101.5</ele><time>2026-03-28T09:15:19.575Z</time></trkpt><trkpt lat="45.3965918" lon="10.6001441"><ele>102.0</ele><time>2026-03-28T09:15:20.575Z</time></trkpt><trkpt lat="45.3965363" lon="10.6003282"><ele>102.5</ele><time>2026-03-28T09:15:21.575Z</time></trkpt><trkpt lat="45.3964868" lon="10.6004852"><ele>103.0</ele><time>2026-03-28T09:15:22.576Z</time></trkpt><trkpt lat="45.3964446" lon="10.6006146"><ele>102.66666666666667</ele><time>2026-03-28T09:15:23.576Z</time></trkpt><trkpt lat="45.3964109" lon="10.600726"><ele>102.33333333333334</ele><time>2026-03-28T09:15:24.575Z</time></trkpt><trkpt lat="45.3963755" lon="10.6008359"><ele>102.0</ele><time>2026-03-28T09:15:25.575Z</time></trkpt><trkpt lat="45.3963408" lon="10.6009522"><ele>101.66666666666666</ele><time>2026-03-28T09:15:26.575Z</time></trkpt><trkpt lat="45.3963006" lon="10.6010677"><ele>101.33333333333333</ele><time>2026-03-28T09:15:27.575Z</time></trkpt><trkpt lat="45.3962622" lon="10.6011973"><ele>101.0</ele><time>2026-03-28T09:15:28.575Z</time></trkpt><trkpt lat="45.3962293" lon="10.6013182"><ele>101.0</ele><time>2026-03-28T09:15:29.576Z</time></trkpt><trkpt lat="45.3961954" lon="10.6014423"><ele>101.0</ele><time>2026-03-28T09:15:30.576Z</time></trkpt><trkpt lat="45.3961577" lon="10.6015747"><ele>101.0</ele><time>2026-03-28T09:15:31.575Z</time></trkpt><trkpt lat="45.3961237" lon="10.6017164"><ele>101.0</ele><time>2026-03-28T09:15:32.576Z</time></trkpt><trkpt lat="45.3960822" lon="10.601868"><ele>101.0</ele><time>2026-03-28T09:15:33.576Z</time></trkpt><trkpt lat="45.3960451" lon="10.6020017"><ele>101.19999999999999</ele><time>2026-03-28T09:15:34.575Z</time></trkpt><trkpt lat="45.3960028" lon="10.6021417"><ele>101.39999999999999</ele><time>2026-03-28T09:15:35.574Z</time></trkpt><trkpt lat="45.3959531" lon="10.6022864"><ele>101.6</ele><time>2026-03-28T09:15:36.576Z</time></trkpt><trkpt lat="45.3959106" lon="10.6024172"><ele>101.8</ele><time>2026-03-28T09:15:37.576Z</time></trkpt><trkpt lat="45.3958668" lon="10.6025535"><ele>102.0</ele><time>2026-03-28T09:15:38.575Z</time></trkpt><trkpt lat="45.3958196" lon="10.6026969"><ele>102.6</ele><time>2026-03-28T09:15:39.575Z</time></trkpt><trkpt lat="45.3957749" lon="10.6028488"><ele>103.19999999999999</ele><time>2026-03-28T09:15:40.576Z</time></trkpt><trkpt lat="45.3957319" lon="10.6029913"><ele>103.8</ele><time>2026-03-28T09:15:41.575Z</time></trkpt><trkpt lat="45.3956909" lon="10.6031217"><ele>104.4</ele><time>2026-03-28T09:15:42.575Z</time></trkpt><trkpt lat="45.3956485" lon="10.6032512"><ele>105.0</ele><time>2026-03-28T09:15:43.575Z</time></trkpt><trkpt lat="45.3956087" lon="10.6033733"><ele>105.0</ele><time>2026-03-28T09:15:44.576Z</time></trkpt><trkpt lat="45.3955657" lon="10.6034978"><ele>105.0</ele><time>2026-03-28T09:15:45.576Z</time></trkpt><trkpt lat="45.3955203" lon="10.6036336"><ele>105.0</ele><time>2026-03-28T09:15:46.575Z</time></trkpt><trkpt lat="45.3954748" lon="10.6037648"><ele>105.0</ele><time>2026-03-28T09:15:47.575Z</time></trkpt><trkpt lat="45.3954368" lon="10.6038835"><ele>105.0</ele><time>2026-03-28T09:15:48.575Z</time></trkpt><trkpt lat="45.3954012" lon="10.6039852"><ele>104.0</ele><time>2026-03-28T09:15:49.574Z</time></trkpt><trkpt lat="45.3953639" lon="10.6041046"><ele>103.0</ele><time>2026-03-28T09:15:50.575Z</time></trkpt><trkpt lat="45.395324" lon="10.6042281"><ele>102.0</ele><time>2026-03-28T09:15:51.575Z</time></trkpt><trkpt lat="45.3952895" lon="10.6043379"><ele>101.0</ele><time>2026-03-28T09:15:52.575Z</time></trkpt><trkpt lat="45.3952474" lon="10.6044715"><ele>100.0</ele><time>2026-03-28T09:15:53.574Z</time></trkpt><trkpt lat="45.3952162" lon="10.6045858"><ele>100.0</ele><time>2026-03-28T09:15:54.575Z</time></trkpt><trkpt lat="45.3951889" lon="10.6046963"><ele>100.0</ele><time>2026-03-28T09:15:55.576Z</time></trkpt><trkpt lat="45.3951629" lon="10.6048225"><ele>100.0</ele><time>2026-03-28T09:15:56.576Z</time></trkpt><trkpt lat="45.3951336" lon="10.6049543"><ele>100.0</ele><time>2026-03-28T09:15:57.574Z</time></trkpt><trkpt lat="45.3951074" lon="10.6050789"><ele>100.0</ele><time>2026-03-28T09:15:58.575Z</time></trkpt><trkpt lat="45.395084" lon="10.605208"><ele>100.6</ele><time>2026-03-28T09:15:59.576Z</time></trkpt><trkpt lat="45.3950607" lon="10.6053394"><ele>101.2</ele><time>2026-03-28T09:16:00.574Z</time></trkpt><trkpt lat="45.3950416" lon="10.6054524"><ele>101.80000000000001</ele><time>2026-03-28T09:16:01.575Z</time></trkpt><trkpt lat="45.395023" lon="10.6055608"><ele>102.4</ele><time>2026-03-28T09:16:02.576Z</time></trkpt><trkpt lat="45.3949979" lon="10.6056999"><ele>103.0</ele><time>2026-03-28T09:16:03.576Z</time></trkpt><trkpt lat="45.3949684" lon="10.6058706"><ele>103.0</ele><time>2026-03-28T09:16:04.575Z</time></trkpt><trkpt lat="45.3949349" lon="10.606056"><ele>103.0</ele><time>2026-03-28T09:16:05.575Z</time></trkpt><trkpt lat="45.3949" lon="10.6062193"><ele>103.0</ele><time>2026-03-28T09:16:06.575Z</time></trkpt><trkpt lat="45.3948727" lon="10.6063775"><ele>103.0</ele><time>2026-03-28T09:16:07.575Z</time></trkpt><trkpt lat="45.3948486" lon="10.6065464"><ele>102.75</ele><time>2026-03-28T09:16:08.576Z</time></trkpt><trkpt lat="45.3948278" lon="10.6067166"><ele>102.5</ele><time>2026-03-28T09:16:09.576Z</time></trkpt><trkpt lat="45.394816" lon="10.6069047"><ele>102.25</ele><time>2026-03-28T09:16:10.575Z</time></trkpt><trkpt lat="45.3948101" lon="10.6070817"><ele>102.0</ele><time>2026-03-28T09:16:11.576Z</time></trkpt><trkpt lat="45.3947991" lon="10.6072645"><ele>102.66666666666666</ele><time>2026-03-28T09:16:12.575Z</time></trkpt><trkpt lat="45.3947992" lon="10.607458"><ele>103.33333333333333</ele><time>2026-03-28T09:16:13.575Z</time></trkpt><trkpt lat="45.3948008" lon="10.6076836"><ele>104.0</ele><time>2026-03-28T09:16:14.575Z</time></trkpt><trkpt lat="45.3947914" lon="10.6079375"><ele>104.0</ele><time>2026-03-28T09:16:15.574Z</time></trkpt><trkpt lat="45.3947782" lon="10.6081864"><ele>104.0</ele><time>2026-03-28T09:16:16.575Z</time></trkpt><trkpt lat="45.3947622" lon="10.6084081"><ele>104.0</ele><time>2026-03-28T09:16:17.576Z</time></trkpt><trkpt lat="45.3947409" lon="10.608647"><ele>104.66666666666666</ele><time>2026-03-28T09:16:18.576Z</time></trkpt><trkpt lat="45.3947091" lon="10.6088903"><ele>105.33333333333334</ele><time>2026-03-28T09:16:19.574Z</time></trkpt><trkpt lat="45.3946649" lon="10.6091021"><ele>106.0</ele><time>2026-03-28T09:16:20.575Z</time></trkpt><trkpt lat="45.3945995" lon="10.6093181"><ele>103.33333333333334</ele><time>2026-03-28T09:16:21.575Z</time></trkpt><trkpt lat="45.394516" lon="10.6095321"><ele>100.66666666666666</ele><time>2026-03-28T09:16:22.576Z</time></trkpt><trkpt lat="45.3944327" lon="10.6097224"><ele>98.0</ele><time>2026-03-28T09:16:23.575Z</time></trkpt><trkpt lat="45.3943672" lon="10.6099032"><ele>98.0</ele><time>2026-03-28T09:16:24.574Z</time></trkpt><trkpt lat="45.3943204" lon="10.6100793"><ele>98.0</ele><time>2026-03-28T09:16:25.574Z</time></trkpt><trkpt lat="45.3942867" lon="10.6102676"><ele>98.0</ele><time>2026-03-28T09:16:26.575Z</time></trkpt><trkpt lat="45.3942678" lon="10.6104751"><ele>98.0</ele><time>2026-03-28T09:16:27.575Z</time></trkpt><trkpt lat="45.3942655" lon="10.6106976"><ele>98.4</ele><time>2026-03-28T09:16:28.575Z</time></trkpt><trkpt lat="45.3942691" lon="10.6108925"><ele>98.80000000000001</ele><time>2026-03-28T09:16:29.575Z</time></trkpt><trkpt lat="45.394276" lon="10.611018"><ele>99.2</ele><time>2026-03-28T09:16:30.575Z</time></trkpt><trkpt lat="45.3942807" lon="10.6111266"><ele>99.6</ele><time>2026-03-28T09:16:31.575Z</time></trkpt><trkpt lat="45.3943498" lon="10.6112258"><ele>100.0</ele><time>2026-03-28T09:16:33.576Z</time></trkpt><trkpt lat="45.3944395" lon="10.6112198"><ele>100.0</ele><time>2026-03-28T09:16:35.576Z</time></trkpt><trkpt lat="45.3944988" lon="10.6111682"><ele>100.0</ele><time>2026-03-28T09:16:36.576Z</time></trkpt><trkpt lat="45.3945788" lon="10.6111156"><ele>100.0</ele><time>2026-03-28T09:16:37.575Z</time></trkpt><trkpt lat="45.394679" lon="10.6110589"><ele>100.0</ele><time>2026-03-28T09:16:38.575Z</time></trkpt><trkpt lat="45.3947872" lon="10.6109971"><ele>100.0</ele><time>2026-03-28T09:16:39.575Z</time></trkpt><trkpt lat="45.3949358" lon="10.6109052"><ele>102.5</ele><time>2026-03-28T09:16:40.575Z</time></trkpt><trkpt lat="45.3950718" lon="10.6108322"><ele>105.0</ele><time>2026-03-28T09:16:41.575Z</time></trkpt><trkpt lat="45.395211" lon="10.6107709"><ele>107.5</ele><time>2026-03-28T09:16:42.576Z</time></trkpt><trkpt lat="45.3953538" lon="10.6107216"><ele>110.0</ele><time>2026-03-28T09:16:43.575Z</time></trkpt><trkpt lat="45.3955113" lon="10.6106631"><ele>111.25</ele><time>2026-03-28T09:16:44.576Z</time></trkpt><trkpt lat="45.3956346" lon="10.6106209"><ele>112.5</ele><time>2026-03-28T09:16:45.575Z</time></trkpt><trkpt lat="45.3957386" lon="10.6105819"><ele>113.75</ele><time>2026-03-28T09:16:46.575Z</time></trkpt><trkpt lat="45.3958387" lon="10.610506"><ele>115.0</ele><time>2026-03-28T09:16:47.574Z</time></trkpt><trkpt lat="45.3959185" lon="10.6104094"><ele>115.25</ele><time>2026-03-28T09:16:48.575Z</time></trkpt><trkpt lat="45.3959834" lon="10.6102712"><ele>115.5</ele><time>2026-03-28T09:16:49.575Z</time></trkpt><trkpt lat="45.3960687" lon="10.610134"><ele>115.75</ele><time>2026-03-28T09:16:50.576Z</time></trkpt><trkpt lat="45.3961418" lon="10.6100059"><ele>116.0</ele><time>2026-03-28T09:16:51.576Z</time></trkpt><trkpt lat="45.3962167" lon="10.609874"><ele>116.0</ele><time>2026-03-28T09:16:52.576Z</time></trkpt><trkpt lat="45.3962743" lon="10.6097525"><ele>116.0</ele><time>2026-03-28T09:16:53.576Z</time></trkpt><trkpt lat="45.3963261" lon="10.6096032"><ele>116.0</ele><time>2026-03-28T09:16:54.575Z</time></trkpt><trkpt lat="45.3963796" lon="10.6094366"><ele>116.0</ele><time>2026-03-28T09:16:55.575Z</time></trkpt><trkpt lat="45.396425" lon="10.60931"><ele>116.0</ele><time>2026-03-28T09:16:56.575Z</time></trkpt><trkpt lat="45.3964734" lon="10.6092018"><ele>116.8</ele><time>2026-03-28T09:16:57.576Z</time></trkpt><trkpt lat="45.3965217" lon="10.6091238"><ele>117.6</ele><time>2026-03-28T09:16:58.576Z</time></trkpt><trkpt lat="45.3965897" lon="10.6090837"><ele>118.4</ele><time>2026-03-28T09:16:59.576Z</time></trkpt><trkpt lat="45.3966828" lon="10.6090748"><ele>119.2</ele><time>2026-03-28T09:17:00.574Z</time></trkpt><trkpt lat="45.3968064" lon="10.6090836"><ele>120.0</ele><time>2026-03-28T09:17:01.575Z</time></trkpt><trkpt lat="45.3969513" lon="10.6090945"><ele>120.0</ele><time>2026-03-28T09:17:02.574Z</time></trkpt><trkpt lat="45.3971213" lon="10.6091025"><ele>120.0</ele><time>2026-03-28T09:17:03.575Z</time></trkpt><trkpt lat="45.3973024" lon="10.6091018"><ele>120.0</ele><time>2026-03-28T09:17:04.575Z</time></trkpt><trkpt lat="45.3974624" lon="10.6090955"><ele>120.66666666666666</ele><time>2026-03-28T09:17:05.575Z</time></trkpt><trkpt lat="45.3976171" lon="10.6090774"><ele>121.33333333333333</ele><time>2026-03-28T09:17:06.575Z</time></trkpt><trkpt lat="45.3977707" lon="10.6090435"><ele>122.0</ele><time>2026-03-28T09:17:07.574Z</time></trkpt><trkpt lat="45.3979159" lon="10.6090016"><ele>122.0</ele><time>2026-03-28T09:17:08.575Z</time></trkpt><trkpt lat="45.3980628" lon="10.6089563"><ele>121.99999999999999</ele><time>2026-03-28T09:17:09.576Z</time></trkpt><trkpt lat="45.3981674" lon="10.6089273"><ele>121.99999999999999</ele><time>2026-03-28T09:17:10.575Z</time></trkpt><trkpt lat="45.3982566" lon="10.6089095"><ele>122.0</ele><time>2026-03-28T09:17:11.575Z</time></trkpt><trkpt lat="45.398323" lon="10.6089061"><ele>122.0</ele><time>2026-03-28T09:17:12.574Z</time></trkpt><trkpt lat="45.3983947" lon="10.6089951"><ele>122.0</ele><time>2026-03-28T09:17:14.575Z</time></trkpt><trkpt lat="45.3983975" lon="10.6091137"><ele>122.0</ele><time>2026-03-28T09:17:15.576Z</time></trkpt><trkpt lat="45.3983684" lon="10.6093058"><ele>122.0</ele><time>2026-03-28T09:17:16.576Z</time></trkpt><trkpt lat="45.398327" lon="10.6095814"><ele>122.0</ele><time>2026-03-28T09:17:17.577Z</time></trkpt><trkpt lat="45.3982831" lon="10.6099242"><ele>123.5</ele><time>2026-03-28T09:17:18.577Z</time></trkpt><trkpt lat="45.398237" lon="10.6102517"><ele>125.0</ele><time>2026-03-28T09:17:19.577Z</time></trkpt><trkpt lat="45.3981775" lon="10.6106019"><ele>125.0</ele><time>2026-03-28T09:17:20.576Z</time></trkpt><trkpt lat="45.3981008" lon="10.6109439"><ele>125.0</ele><time>2026-03-28T09:17:21.576Z</time></trkpt><trkpt lat="45.3980051" lon="10.6112828"><ele>121.5</ele><time>2026-03-28T09:17:22.576Z</time></trkpt><trkpt lat="45.3978954" lon="10.6116127"><ele>118.0</ele><time>2026-03-28T09:17:23.576Z</time></trkpt><trkpt lat="45.3977966" lon="10.6119021"><ele>118.0</ele><time>2026-03-28T09:17:24.576Z</time></trkpt><trkpt lat="45.3977073" lon="10.6121641"><ele>118.0</ele><time>2026-03-28T09:17:25.576Z</time></trkpt><trkpt lat="45.3976326" lon="10.6124217"><ele>118.0</ele><time>2026-03-28T09:17:26.575Z</time></trkpt><trkpt lat="45.3975797" lon="10.6126968"><ele>118.0</ele><time>2026-03-28T09:17:27.577Z</time></trkpt><trkpt lat="45.3975587" lon="10.613004"><ele>118.0</ele><time>2026-03-28T09:17:28.576Z</time></trkpt><trkpt lat="45.3975637" lon="10.6133454"><ele>118.0</ele><time>2026-03-28T09:17:29.576Z</time></trkpt><trkpt lat="45.3975774" lon="10.6136992"><ele>118.0</ele><time>2026-03-28T09:17:30.576Z</time></trkpt><trkpt lat="45.3975893" lon="10.6140541"><ele>118.0</ele><time>2026-03-28T09:17:31.576Z</time></trkpt><trkpt lat="45.3976031" lon="10.6144091"><ele>118.0</ele><time>2026-03-28T09:17:32.576Z</time></trkpt><trkpt lat="45.3976112" lon="10.6147484"><ele>118.0</ele><time>2026-03-28T09:17:33.576Z</time></trkpt><trkpt lat="45.3976129" lon="10.615073"><ele>118.0</ele><time>2026-03-28T09:17:34.575Z</time></trkpt><trkpt lat="45.39761" lon="10.6153906"><ele>118.0</ele><time>2026-03-28T09:17:35.577Z</time></trkpt><trkpt lat="45.3976001" lon="10.6157181"><ele>118.0</ele><time>2026-03-28T09:17:36.577Z</time></trkpt><trkpt lat="45.3975791" lon="10.6160747"><ele>117.0</ele><time>2026-03-28T09:17:37.577Z</time></trkpt><trkpt lat="45.3975527" lon="10.6164658"><ele>116.0</ele><time>2026-03-28T09:17:38.575Z</time></trkpt><trkpt lat="45.3975363" lon="10.6168495"><ele>115.0</ele><time>2026-03-28T09:17:39.576Z</time></trkpt><trkpt lat="45.3975225" lon="10.6172119"><ele>114.0</ele><time>2026-03-28T09:17:40.576Z</time></trkpt><trkpt lat="45.3975054" lon="10.6175612"><ele>113.0</ele><time>2026-03-28T09:17:41.575Z</time></trkpt><trkpt lat="45.3974883" lon="10.6178952"><ele>112.0</ele><time>2026-03-28T09:17:42.577Z</time></trkpt><trkpt lat="45.3974696" lon="10.6181889"><ele>111.0</ele><time>2026-03-28T09:17:43.576Z</time></trkpt><trkpt lat="45.3974481" lon="10.6184631"><ele>108.66666666666666</ele><time>2026-03-28T09:17:44.576Z</time></trkpt><trkpt lat="45.3974225" lon="10.6187327"><ele>106.33333333333333</ele><time>2026-03-28T09:17:45.577Z</time></trkpt><trkpt lat="45.3973878" lon="10.6189979"><ele>104.0</ele><time>2026-03-28T09:17:46.576Z</time></trkpt><trkpt lat="45.3973354" lon="10.6192464"><ele>104.0</ele><time>2026-03-28T09:17:47.576Z</time></trkpt><trkpt lat="45.3972725" lon="10.6194797"><ele>104.0</ele><time>2026-03-28T09:17:48.576Z</time></trkpt><trkpt lat="45.3971907" lon="10.619707"><ele>104.0</ele><time>2026-03-28T09:17:49.577Z</time></trkpt><trkpt lat="45.3970821" lon="10.6199181"><ele>102.66666666666666</ele><time>2026-03-28T09:17:50.577Z</time></trkpt><trkpt lat="45.3969528" lon="10.6201067"><ele>101.33333333333334</ele><time>2026-03-28T09:17:51.577Z</time></trkpt><trkpt lat="45.3967969" lon="10.6202989"><ele>100.0</ele><time>2026-03-28T09:17:52.577Z</time></trkpt><trkpt lat="45.3966395" lon="10.6204807"><ele>99.0</ele><time>2026-03-28T09:17:53.576Z</time></trkpt><trkpt lat="45.3964889" lon="10.620651"><ele>98.0</ele><time>2026-03-28T09:17:54.576Z</time></trkpt><trkpt lat="45.3963491" lon="10.6208142"><ele>97.0</ele><time>2026-03-28T09:17:55.576Z</time></trkpt><trkpt lat="45.3962195" lon="10.6209623"><ele>96.19999999999999</ele><time>2026-03-28T09:17:56.576Z</time></trkpt><trkpt lat="45.3961087" lon="10.6210944"><ele>95.4</ele><time>2026-03-28T09:17:57.577Z</time></trkpt><trkpt lat="45.3960185" lon="10.6212114"><ele>94.6</ele><time>2026-03-28T09:17:58.576Z</time></trkpt><trkpt lat="45.3959418" lon="10.6212983"><ele>93.80000000000001</ele><time>2026-03-28T09:17:59.575Z</time></trkpt><trkpt lat="45.3958812" lon="10.6213438"><ele>93.0</ele><time>2026-03-28T09:18:00.575Z</time></trkpt><trkpt lat="45.3957839" lon="10.6213012"><ele>93.0</ele><time>2026-03-28T09:18:02.577Z</time></trkpt><trkpt lat="45.3957584" lon="10.6212122"><ele>93.0</ele><time>2026-03-28T09:18:03.577Z</time></trkpt><trkpt lat="45.3957488" lon="10.6210605"><ele>93.0</ele><time>2026-03-28T09:18:04.577Z</time></trkpt><trkpt lat="45.3957441" lon="10.6208433"><ele>93.0</ele><time>2026-03-28T09:18:05.576Z</time></trkpt><trkpt lat="45.3957367" lon="10.6205804"><ele>93.66666666666667</ele><time>2026-03-28T09:18:06.577Z</time></trkpt><trkpt lat="45.3957003" lon="10.6202935"><ele>94.33333333333334</ele><time>2026-03-28T09:18:07.577Z</time></trkpt><trkpt lat="45.3956378" lon="10.6200026"><ele>95.0</ele><time>2026-03-28T09:18:08.576Z</time></trkpt><trkpt lat="45.3955413" lon="10.6196929"><ele>94.5</ele><time>2026-03-28T09:18:09.576Z</time></trkpt><trkpt lat="45.3954227" lon="10.619383"><ele>94.0</ele><time>2026-03-28T09:18:10.576Z</time></trkpt><trkpt lat="45.3953047" lon="10.6190592"><ele>94.0</ele><time>2026-03-28T09:18:11.577Z</time></trkpt><trkpt lat="45.3951713" lon="10.6186898"><ele>94.0</ele><time>2026-03-28T09:18:12.576Z</time></trkpt><trkpt lat="45.3950192" lon="10.6182999"><ele>95.5</ele><time>2026-03-28T09:18:13.577Z</time></trkpt><trkpt lat="45.3948647" lon="10.6178835"><ele>97.0</ele><time>2026-03-28T09:18:14.577Z</time></trkpt><trkpt lat="45.3946928" lon="10.6174731"><ele>95.5</ele><time>2026-03-28T09:18:15.576Z</time></trkpt><trkpt lat="45.394523" lon="10.6171118"><ele>94.0</ele><time>2026-03-28T09:18:16.577Z</time></trkpt><trkpt lat="45.3943566" lon="10.6167715"><ele>97.0</ele><time>2026-03-28T09:18:17.576Z</time></trkpt><trkpt lat="45.3941948" lon="10.6164346"><ele>100.0</ele><time>2026-03-28T09:18:18.576Z</time></trkpt><trkpt lat="45.394047" lon="10.6161169"><ele>101.0</ele><time>2026-03-28T09:18:19.577Z</time></trkpt><trkpt lat="45.3939053" lon="10.6157933"><ele>102.0</ele><time>2026-03-28T09:18:20.576Z</time></trkpt><trkpt lat="45.3937697" lon="10.6154471"><ele>99.0</ele><time>2026-03-28T09:18:21.576Z</time></trkpt><trkpt lat="45.3936494" lon="10.6151259"><ele>96.0</ele><time>2026-03-28T09:18:22.577Z</time></trkpt><trkpt lat="45.3935385" lon="10.6148071"><ele>96.0</ele><time>2026-03-28T09:18:23.577Z</time></trkpt><trkpt lat="45.3934366" lon="10.6145118"><ele>96.0</ele><time>2026-03-28T09:18:24.576Z</time></trkpt><trkpt lat="45.393339" lon="10.6142434"><ele>96.0</ele><time>2026-03-28T09:18:25.576Z</time></trkpt><trkpt lat="45.3932498" lon="10.6139944"><ele>97.0</ele><time>2026-03-28T09:18:26.576Z</time></trkpt><trkpt lat="45.3931678" lon="10.61377"><ele>98.0</ele><time>2026-03-28T09:18:27.575Z</time></trkpt><trkpt lat="45.393082" lon="10.6135607"><ele>99.0</ele><time>2026-03-28T09:18:28.576Z</time></trkpt><trkpt lat="45.3929888" lon="10.613361"><ele>97.0</ele><time>2026-03-28T09:18:29.577Z</time></trkpt><trkpt lat="45.3928884" lon="10.6131691"><ele>95.0</ele><time>2026-03-28T09:18:30.576Z</time></trkpt><trkpt lat="45.3927812" lon="10.6129884"><ele>93.0</ele><time>2026-03-28T09:18:31.577Z</time></trkpt><trkpt lat="45.3926775" lon="10.6128335"><ele>93.0</ele><time>2026-03-28T09:18:32.577Z</time></trkpt><trkpt lat="45.3925844" lon="10.6126947"><ele>93.0</ele><time>2026-03-28T09:18:33.576Z</time></trkpt><trkpt lat="45.3924969" lon="10.6125676"><ele>93.0</ele><time>2026-03-28T09:18:34.577Z</time></trkpt><trkpt lat="45.3924148" lon="10.6124438"><ele>93.0</ele><time>2026-03-28T09:18:35.577Z</time></trkpt><trkpt lat="45.3923402" lon="10.6123261"><ele>93.0</ele><time>2026-03-28T09:18:36.577Z</time></trkpt><trkpt lat="45.3922678" lon="10.6122289"><ele>93.0</ele><time>2026-03-28T09:18:37.577Z</time></trkpt><trkpt lat="45.3921941" lon="10.612157"><ele>93.0</ele><time>2026-03-28T09:18:38.577Z</time></trkpt><trkpt lat="45.3921034" lon="10.6121286"><ele>93.0</ele><time>2026-03-28T09:18:39.577Z</time></trkpt><trkpt lat="45.3919717" lon="10.6121391"><ele>93.0</ele><time>2026-03-28T09:18:40.577Z</time></trkpt><trkpt lat="45.3918066" lon="10.6121742"><ele>93.66666666666667</ele><time>2026-03-28T09:18:41.576Z</time></trkpt><trkpt lat="45.3916307" lon="10.6122232"><ele>94.33333333333334</ele><time>2026-03-28T09:18:42.576Z</time></trkpt><trkpt lat="45.3914203" lon="10.6122657"><ele>95.0</ele><time>2026-03-28T09:18:43.575Z</time></trkpt><trkpt lat="45.3912274" lon="10.6122825"><ele>95.66666666666667</ele><time>2026-03-28T09:18:44.576Z</time></trkpt><trkpt lat="45.3910302" lon="10.6122721"><ele>96.33333333333334</ele><time>2026-03-28T09:18:45.577Z</time></trkpt><trkpt lat="45.3908272" lon="10.6122154"><ele>97.0</ele><time>2026-03-28T09:18:46.576Z</time></trkpt><trkpt lat="45.3906166" lon="10.6121696"><ele>97.0</ele><time>2026-03-28T09:18:47.576Z</time></trkpt><trkpt lat="45.3903888" lon="10.6120018"><ele>97.0</ele><time>2026-03-28T09:18:48.576Z</time></trkpt><trkpt lat="45.3901968" lon="10.6118996"><ele>97.33333333333334</ele><time>2026-03-28T09:18:49.577Z</time></trkpt><trkpt lat="45.3900112" lon="10.6117868"><ele>97.66666666666666</ele><time>2026-03-28T09:18:50.577Z</time></trkpt><trkpt lat="45.3898332" lon="10.6116812"><ele>98.0</ele><time>2026-03-28T09:18:51.577Z</time></trkpt><trkpt lat="45.389665" lon="10.6115876"><ele>98.33333333333333</ele><time>2026-03-28T09:18:52.577Z</time></trkpt><trkpt lat="45.3894937" lon="10.611502"><ele>98.66666666666666</ele><time>2026-03-28T09:18:53.576Z</time></trkpt><trkpt lat="45.3893091" lon="10.6114267"><ele>99.0</ele><time>2026-03-28T09:18:54.576Z</time></trkpt><trkpt lat="45.389088" lon="10.6113694"><ele>99.0</ele><time>2026-03-28T09:18:55.576Z</time></trkpt><trkpt lat="45.388836" lon="10.611328"><ele>99.0</ele><time>2026-03-28T09:18:56.576Z</time></trkpt><trkpt lat="45.3885615" lon="10.6112897"><ele>99.0</ele><time>2026-03-28T09:18:57.577Z</time></trkpt><trkpt lat="45.3882633" lon="10.6112431"><ele>99.0</ele><time>2026-03-28T09:18:58.576Z</time></trkpt><trkpt lat="45.3879432" lon="10.6111893"><ele>99.0</ele><time>2026-03-28T09:18:59.577Z</time></trkpt><trkpt lat="45.3876061" lon="10.611143"><ele>99.0</ele><time>2026-03-28T09:19:00.576Z</time></trkpt><trkpt lat="45.3872967" lon="10.6111076"><ele>99.5</ele><time>2026-03-28T09:19:01.576Z</time></trkpt><trkpt lat="45.387009" lon="10.6110708"><ele>100.0</ele><time>2026-03-28T09:19:02.575Z</time></trkpt><trkpt lat="45.3867529" lon="10.6110332"><ele>100.0</ele><time>2026-03-28T09:19:03.576Z</time></trkpt><trkpt lat="45.3865207" lon="10.6109947"><ele>100.0</ele><time>2026-03-28T09:19:04.577Z</time></trkpt><trkpt lat="45.386307" lon="10.6109632"><ele>100.0</ele><time>2026-03-28T09:19:05.577Z</time></trkpt><trkpt lat="45.3861132" lon="10.610965"><ele>100.33333333333334</ele><time>2026-03-28T09:19:06.577Z</time></trkpt><trkpt lat="45.3859274" lon="10.6110095"><ele>100.66666666666666</ele><time>2026-03-28T09:19:07.577Z</time></trkpt><trkpt lat="45.3857431" lon="10.6111032"><ele>101.0</ele><time>2026-03-28T09:19:08.577Z</time></trkpt><trkpt lat="45.38555" lon="10.6112715"><ele>102.0</ele><time>2026-03-28T09:19:09.576Z</time></trkpt><trkpt lat="45.3853399" lon="10.6114834"><ele>103.0</ele><time>2026-03-28T09:19:10.575Z</time></trkpt><trkpt lat="45.3851073" lon="10.6116912"><ele>103.0</ele><time>2026-03-28T09:19:11.577Z</time></trkpt><trkpt lat="45.384846" lon="10.6118766"><ele>103.0</ele><time>2026-03-28T09:19:12.576Z</time></trkpt><trkpt lat="45.3845692" lon="10.6120389"><ele>104.0</ele><time>2026-03-28T09:19:13.576Z</time></trkpt><trkpt lat="45.3842831" lon="10.6121881"><ele>105.0</ele><time>2026-03-28T09:19:14.576Z</time></trkpt><trkpt lat="45.3840139" lon="10.6123094"><ele>104.0</ele><time>2026-03-28T09:19:15.577Z</time></trkpt><trkpt lat="45.3837534" lon="10.612451"><ele>103.0</ele><time>2026-03-28T09:19:16.577Z</time></trkpt><trkpt lat="45.3834833" lon="10.6126353"><ele>103.0</ele><time>2026-03-28T09:19:17.575Z</time></trkpt><trkpt lat="45.383232" lon="10.6128524"><ele>103.0</ele><time>2026-03-28T09:19:18.576Z</time></trkpt><trkpt lat="45.383008" lon="10.6130777"><ele>103.0</ele><time>2026-03-28T09:19:19.576Z</time></trkpt><trkpt lat="45.3827798" lon="10.6133403"><ele>103.0</ele><time>2026-03-28T09:19:20.575Z</time></trkpt><trkpt lat="45.3825566" lon="10.613633"><ele>102.5</ele><time>2026-03-28T09:19:21.576Z</time></trkpt><trkpt lat="45.3823579" lon="10.6139001"><ele>102.0</ele><time>2026-03-28T09:19:22.576Z</time></trkpt><trkpt lat="45.3821939" lon="10.6141188"><ele>102.19999999999999</ele><time>2026-03-28T09:19:23.576Z</time></trkpt><trkpt lat="45.3820721" lon="10.6142802"><ele>102.4</ele><time>2026-03-28T09:19:24.577Z</time></trkpt><trkpt lat="45.38199" lon="10.6143923"><ele>102.6</ele><time>2026-03-28T09:19:25.577Z</time></trkpt><trkpt lat="45.3819542" lon="10.6144688"><ele>102.80000000000001</ele><time>2026-03-28T09:19:26.576Z</time></trkpt><trkpt lat="45.3819635" lon="10.6145581"><ele>103.0</ele><time>2026-03-28T09:19:28.576Z</time></trkpt><trkpt lat="45.3819851" lon="10.6147084"><ele>103.0</ele><time>2026-03-28T09:19:30.577Z</time></trkpt><trkpt lat="45.3819778" lon="10.6148391"><ele>103.0</ele><time>2026-03-28T09:19:31.576Z</time></trkpt><trkpt lat="45.3819663" lon="10.6150087"><ele>103.0</ele><time>2026-03-28T09:19:32.576Z</time></trkpt><trkpt lat="45.3819623" lon="10.6152015"><ele>103.0</ele><time>2026-03-28T09:19:33.577Z</time></trkpt><trkpt lat="45.38196" lon="10.6154424"><ele>103.0</ele><time>2026-03-28T09:19:34.576Z</time></trkpt><trkpt lat="45.3819615" lon="10.6156983"><ele>103.0</ele><time>2026-03-28T09:19:35.577Z</time></trkpt><trkpt lat="45.3819572" lon="10.6159563"><ele>103.0</ele><time>2026-03-28T09:19:36.576Z</time></trkpt><trkpt lat="45.3819521" lon="10.6162138"><ele>103.0</ele><time>2026-03-28T09:19:37.577Z</time></trkpt><trkpt lat="45.3819466" lon="10.6164652"><ele>103.0</ele><time>2026-03-28T09:19:38.577Z</time></trkpt><trkpt lat="45.3819384" lon="10.6167026"><ele>103.0</ele><time>2026-03-28T09:19:39.576Z</time></trkpt><trkpt lat="45.3819304" lon="10.6169385"><ele>102.0</ele><time>2026-03-28T09:19:40.576Z</time></trkpt><trkpt lat="45.3819245" lon="10.617172"><ele>101.0</ele><time>2026-03-28T09:19:41.576Z</time></trkpt><trkpt lat="45.3819259" lon="10.617376"><ele>100.0</ele><time>2026-03-28T09:19:42.576Z</time></trkpt><trkpt lat="45.3819308" lon="10.6175881"><ele>100.0</ele><time>2026-03-28T09:19:43.576Z</time></trkpt><trkpt lat="45.381946" lon="10.6177902"><ele>100.0</ele><time>2026-03-28T09:19:44.576Z</time></trkpt><trkpt lat="45.3819633" lon="10.6179748"><ele>100.0</ele><time>2026-03-28T09:19:45.576Z</time></trkpt><trkpt lat="45.3820034" lon="10.6181767"><ele>100.0</ele><time>2026-03-28T09:19:46.576Z</time></trkpt><trkpt lat="45.3820196" lon="10.6183797"><ele>100.5</ele><time>2026-03-28T09:19:47.577Z</time></trkpt><trkpt lat="45.3820342" lon="10.6185625"><ele>101.0</ele><time>2026-03-28T09:19:48.576Z</time></trkpt><trkpt lat="45.3820729" lon="10.618747"><ele>101.5</ele><time>2026-03-28T09:19:49.576Z</time></trkpt><trkpt lat="45.3821042" lon="10.6189308"><ele>102.0</ele><time>2026-03-28T09:19:50.575Z</time></trkpt><trkpt lat="45.3821312" lon="10.6191047"><ele>102.5</ele><time>2026-03-28T09:19:51.575Z</time></trkpt><trkpt lat="45.3821402" lon="10.61926"><ele>103.0</ele><time>2026-03-28T09:19:52.576Z</time></trkpt><trkpt lat="45.3821199" lon="10.6194235"><ele>103.5</ele><time>2026-03-28T09:19:53.577Z</time></trkpt><trkpt lat="45.382074" lon="10.6196168"><ele>104.0</ele><time>2026-03-28T09:19:54.576Z</time></trkpt><trkpt lat="45.3820269" lon="10.6198275"><ele>104.0</ele><time>2026-03-28T09:19:55.576Z</time></trkpt><trkpt lat="45.3819726" lon="10.6200161"><ele>104.0</ele><time>2026-03-28T09:19:56.576Z</time></trkpt><trkpt lat="45.3819193" lon="10.6201881"><ele>104.0</ele><time>2026-03-28T09:19:57.577Z</time></trkpt><trkpt lat="45.3818666" lon="10.6203401"><ele>104.0</ele><time>2026-03-28T09:19:58.577Z</time></trkpt><trkpt lat="45.381823" lon="10.6204677"><ele>103.4</ele><time>2026-03-28T09:19:59.577Z</time></trkpt><trkpt lat="45.3817962" lon="10.6205844"><ele>102.80000000000001</ele><time>2026-03-28T09:20:00.577Z</time></trkpt><trkpt lat="45.3817835" lon="10.6207224"><ele>102.19999999999999</ele><time>2026-03-28T09:20:01.577Z</time></trkpt><trkpt lat="45.3817827" lon="10.6208975"><ele>101.6</ele><time>2026-03-28T09:20:02.576Z</time></trkpt><trkpt lat="45.3817839" lon="10.6210973"><ele>101.0</ele><time>2026-03-28T09:20:03.576Z</time></trkpt><trkpt lat="45.3817806" lon="10.621291"><ele>100.75</ele><time>2026-03-28T09:20:04.576Z</time></trkpt><trkpt lat="45.3817798" lon="10.6214676"><ele>100.5</ele><time>2026-03-28T09:20:05.576Z</time></trkpt><trkpt lat="45.3817797" lon="10.6216469"><ele>100.25</ele><time>2026-03-28T09:20:06.577Z</time></trkpt><trkpt lat="45.3817729" lon="10.6218304"><ele>100.0</ele><time>2026-03-28T09:20:07.575Z</time></trkpt><trkpt lat="45.3817648" lon="10.622012"><ele>100.0</ele><time>2026-03-28T09:20:08.576Z</time></trkpt><trkpt lat="45.3817588" lon="10.6221906"><ele>100.0</ele><time>2026-03-28T09:20:09.576Z</time></trkpt><trkpt lat="45.3817546" lon="10.622368"><ele>100.0</ele><time>2026-03-28T09:20:10.577Z</time></trkpt><trkpt lat="45.381748" lon="10.6225672"><ele>100.0</ele><time>2026-03-28T09:20:11.576Z</time></trkpt><trkpt lat="45.3817238" lon="10.6227871"><ele>100.0</ele><time>2026-03-28T09:20:12.577Z</time></trkpt><trkpt lat="45.3816994" lon="10.6230027"><ele>100.0</ele><time>2026-03-28T09:20:13.576Z</time></trkpt><trkpt lat="45.3816936" lon="10.6231877"><ele>100.0</ele><time>2026-03-28T09:20:14.575Z</time></trkpt><trkpt lat="45.3817073" lon="10.6233495"><ele>100.0</ele><time>2026-03-28T09:20:15.576Z</time></trkpt><trkpt lat="45.3817238" lon="10.623525"><ele>100.33333333333334</ele><time>2026-03-28T09:20:16.576Z</time></trkpt><trkpt lat="45.3817238" lon="10.6237209"><ele>100.66666666666666</ele><time>2026-03-28T09:20:17.576Z</time></trkpt><trkpt lat="45.3817021" lon="10.6239351"><ele>101.0</ele><time>2026-03-28T09:20:18.577Z</time></trkpt><trkpt lat="45.3816772" lon="10.6241787"><ele>101.0</ele><time>2026-03-28T09:20:19.577Z</time></trkpt><trkpt lat="45.3816587" lon="10.62445"><ele>101.0</ele><time>2026-03-28T09:20:20.576Z</time></trkpt><trkpt lat="45.3816495" lon="10.6247148"><ele>101.0</ele><time>2026-03-28T09:20:21.577Z</time></trkpt><trkpt lat="45.3816407" lon="10.6249608"><ele>100.66666666666666</ele><time>2026-03-28T09:20:22.576Z</time></trkpt><trkpt lat="45.3816122" lon="10.6252264"><ele>100.33333333333334</ele><time>2026-03-28T09:20:23.576Z</time></trkpt><trkpt lat="45.3815752" lon="10.6254974"><ele>100.0</ele><time>2026-03-28T09:20:24.576Z</time></trkpt><trkpt lat="45.3815479" lon="10.6257497"><ele>100.0</ele><time>2026-03-28T09:20:25.576Z</time></trkpt><trkpt lat="45.3815162" lon="10.6260089"><ele>100.0</ele><time>2026-03-28T09:20:26.575Z</time></trkpt><trkpt lat="45.3814744" lon="10.6262839"><ele>100.0</ele><time>2026-03-28T09:20:27.577Z</time></trkpt><trkpt lat="45.3814337" lon="10.626541"><ele>100.33333333333334</ele><time>2026-03-28T09:20:28.577Z</time></trkpt><trkpt lat="45.3813952" lon="10.6268013"><ele>100.66666666666666</ele><time>2026-03-28T09:20:29.576Z</time></trkpt><trkpt lat="45.3813587" lon="10.6270614"><ele>101.0</ele><time>2026-03-28T09:20:30.577Z</time></trkpt><trkpt lat="45.3813251" lon="10.6272842"><ele>100.8</ele><time>2026-03-28T09:20:31.577Z</time></trkpt><trkpt lat="45.3813026" lon="10.6274716"><ele>100.6</ele><time>2026-03-28T09:20:32.577Z</time></trkpt><trkpt lat="45.3812828" lon="10.6276206"><ele>100.4</ele><time>2026-03-28T09:20:33.577Z</time></trkpt><trkpt lat="45.3812564" lon="10.6277299"><ele>100.2</ele><time>2026-03-28T09:20:34.576Z</time></trkpt><trkpt lat="45.3812156" lon="10.6278089"><ele>100.0</ele><time>2026-03-28T09:20:35.576Z</time></trkpt><trkpt lat="45.3811489" lon="10.6278561"><ele>100.0</ele><time>2026-03-28T09:20:36.576Z</time></trkpt><trkpt lat="45.3810702" lon="10.6278976"><ele>100.0</ele><time>2026-03-28T09:20:37.576Z</time></trkpt><trkpt lat="45.3809294" lon="10.6279441"><ele>100.0</ele><time>2026-03-28T09:20:38.576Z</time></trkpt><trkpt lat="45.3807788" lon="10.6280064"><ele>100.0</ele><time>2026-03-28T09:20:39.577Z</time></trkpt><trkpt lat="45.3806331" lon="10.6280723"><ele>102.66666666666667</ele><time>2026-03-28T09:20:40.577Z</time></trkpt><trkpt lat="45.3804913" lon="10.6281505"><ele>105.33333333333334</ele><time>2026-03-28T09:20:41.575Z</time></trkpt><trkpt lat="45.3803566" lon="10.6282517"><ele>108.0</ele><time>2026-03-28T09:20:42.576Z</time></trkpt><trkpt lat="45.3802314" lon="10.6283742"><ele>108.0</ele><time>2026-03-28T09:20:43.575Z</time></trkpt><trkpt lat="45.380106" lon="10.6284943"><ele>108.0</ele><time>2026-03-28T09:20:44.576Z</time></trkpt><trkpt lat="45.3800018" lon="10.6285405"><ele>108.0</ele><time>2026-03-28T09:20:45.577Z</time></trkpt><trkpt lat="45.3798885" lon="10.6285393"><ele>108.0</ele><time>2026-03-28T09:20:46.577Z</time></trkpt><trkpt lat="45.379759" lon="10.6284978"><ele>108.5</ele><time>2026-03-28T09:20:47.576Z</time></trkpt><trkpt lat="45.3796197" lon="10.6284462"><ele>109.0</ele><time>2026-03-28T09:20:48.576Z</time></trkpt><trkpt lat="45.3794831" lon="10.6283958"><ele>109.5</ele><time>2026-03-28T09:20:49.576Z</time></trkpt><trkpt lat="45.3793403" lon="10.6283717"><ele>110.0</ele><time>2026-03-28T09:20:50.577Z</time></trkpt><trkpt lat="45.3791996" lon="10.628376"><ele>110.0</ele><time>2026-03-28T09:20:51.576Z</time></trkpt><trkpt lat="45.3790311" lon="10.6284276"><ele>110.0</ele><time>2026-03-28T09:20:52.576Z</time></trkpt><trkpt lat="45.3788742" lon="10.6284732"><ele>110.0</ele><time>2026-03-28T09:20:53.577Z</time></trkpt><trkpt lat="45.3787375" lon="10.6285265"><ele>108.75</ele><time>2026-03-28T09:20:54.576Z</time></trkpt><trkpt lat="45.3786116" lon="10.6285829"><ele>107.5</ele><time>2026-03-28T09:20:55.575Z</time></trkpt><trkpt lat="45.3784887" lon="10.6286549"><ele>106.25</ele><time>2026-03-28T09:20:56.577Z</time></trkpt><trkpt lat="45.3783586" lon="10.6287466"><ele>105.0</ele><time>2026-03-28T09:20:57.575Z</time></trkpt><trkpt lat="45.378162" lon="10.6289563"><ele>105.0</ele><time>2026-03-28T09:20:58.576Z</time></trkpt><trkpt lat="45.3780193" lon="10.6291028"><ele>105.0</ele><time>2026-03-28T09:20:59.577Z</time></trkpt><trkpt lat="45.3779013" lon="10.629229"><ele>105.0</ele><time>2026-03-28T09:21:00.576Z</time></trkpt><trkpt lat="45.377795" lon="10.6293566"><ele>105.25</ele><time>2026-03-28T09:21:01.576Z</time></trkpt><trkpt lat="45.3776998" lon="10.6294965"><ele>105.5</ele><time>2026-03-28T09:21:02.577Z</time></trkpt><trkpt lat="45.3776077" lon="10.6296441"><ele>105.75</ele><time>2026-03-28T09:21:03.575Z</time></trkpt><trkpt lat="45.3775222" lon="10.629781"><ele>106.0</ele><time>2026-03-28T09:21:04.576Z</time></trkpt><trkpt lat="45.3774429" lon="10.6299033"><ele>106.0</ele><time>2026-03-28T09:21:05.577Z</time></trkpt><trkpt lat="45.3773687" lon="10.6300159"><ele>106.0</ele><time>2026-03-28T09:21:06.577Z</time></trkpt><trkpt lat="45.377291" lon="10.6301214"><ele>106.0</ele><time>2026-03-28T09:21:07.576Z</time></trkpt><trkpt lat="45.3772128" lon="10.6302171"><ele>106.0</ele><time>2026-03-28T09:21:08.576Z</time></trkpt><trkpt lat="45.3771388" lon="10.6302891"><ele>106.0</ele><time>2026-03-28T09:21:09.576Z</time></trkpt><trkpt lat="45.3770438" lon="10.6303303"><ele>107.19999999999999</ele><time>2026-03-28T09:21:10.575Z</time></trkpt><trkpt lat="45.3769434" lon="10.630357"><ele>108.39999999999999</ele><time>2026-03-28T09:21:11.576Z</time></trkpt><trkpt lat="45.3768381" lon="10.6303751"><ele>109.6</ele><time>2026-03-28T09:21:12.577Z</time></trkpt><trkpt lat="45.3767502" lon="10.6304126"><ele>110.8</ele><time>2026-03-28T09:21:13.577Z</time></trkpt><trkpt lat="45.3766654" lon="10.6304725"><ele>112.0</ele><time>2026-03-28T09:21:14.576Z</time></trkpt><trkpt lat="45.3765947" lon="10.6305594"><ele>112.0</ele><time>2026-03-28T09:21:15.577Z</time></trkpt><trkpt lat="45.3765303" lon="10.6306513"><ele>112.0</ele><time>2026-03-28T09:21:16.577Z</time></trkpt><trkpt lat="45.3764633" lon="10.6307635"><ele>112.0</ele><time>2026-03-28T09:21:17.576Z</time></trkpt><trkpt lat="45.3763967" lon="10.6309607"><ele>112.0</ele><time>2026-03-28T09:21:18.577Z</time></trkpt><trkpt lat="45.3763252" lon="10.6311952"><ele>117.33333333333334</ele><time>2026-03-28T09:21:19.577Z</time></trkpt><trkpt lat="45.3762595" lon="10.6314217"><ele>122.66666666666666</ele><time>2026-03-28T09:21:20.576Z</time></trkpt><trkpt lat="45.3761938" lon="10.6316497"><ele>128.0</ele><time>2026-03-28T09:21:21.576Z</time></trkpt><trkpt lat="45.3761225" lon="10.6319085"><ele>125.33333333333333</ele><time>2026-03-28T09:21:22.576Z</time></trkpt><trkpt lat="45.3760562" lon="10.6321518"><ele>122.66666666666666</ele><time>2026-03-28T09:21:23.577Z</time></trkpt><trkpt lat="45.376002" lon="10.6323751"><ele>120.0</ele><time>2026-03-28T09:21:24.577Z</time></trkpt><trkpt lat="45.3759685" lon="10.6325814"><ele>120.0</ele><time>2026-03-28T09:21:25.577Z</time></trkpt><trkpt lat="45.3759445" lon="10.6327791"><ele>120.0</ele><time>2026-03-28T09:21:26.576Z</time></trkpt><trkpt lat="45.3759306" lon="10.6329623"><ele>120.0</ele><time>2026-03-28T09:21:27.577Z</time></trkpt><trkpt lat="45.3759167" lon="10.6331279"><ele>120.0</ele><time>2026-03-28T09:21:28.577Z</time></trkpt><trkpt lat="45.3759053" lon="10.633286"><ele>118.2</ele><time>2026-03-28T09:21:29.576Z</time></trkpt><trkpt lat="45.3758876" lon="10.6334326"><ele>116.4</ele><time>2026-03-28T09:21:30.576Z</time></trkpt><trkpt lat="45.3758708" lon="10.6335522"><ele>114.6</ele><time>2026-03-28T09:21:31.576Z</time></trkpt><trkpt lat="45.3758608" lon="10.6336459"><ele>112.8</ele><time>2026-03-28T09:21:32.576Z</time></trkpt><trkpt lat="45.3758695" lon="10.6338016"><ele>111.0</ele><time>2026-03-28T09:21:34.577Z</time></trkpt><trkpt lat="45.375942" lon="10.6339311"><ele>110.4</ele><time>2026-03-28T09:21:36.576Z</time></trkpt><trkpt lat="45.3759943" lon="10.634028"><ele>109.8</ele><time>2026-03-28T09:21:37.577Z</time></trkpt><trkpt lat="45.3760545" lon="10.6341183"><ele>109.20000000000002</ele><time>2026-03-28T09:21:38.576Z</time></trkpt><trkpt lat="45.3761411" lon="10.6342151"><ele>108.60000000000001</ele><time>2026-03-28T09:21:39.577Z</time></trkpt><trkpt lat="45.3762206" lon="10.6343065"><ele>108.0</ele><time>2026-03-28T09:21:40.577Z</time></trkpt><trkpt lat="45.376293" lon="10.6344042"><ele>107.60000000000001</ele><time>2026-03-28T09:21:41.575Z</time></trkpt><trkpt lat="45.3763545" lon="10.6345087"><ele>107.20000000000002</ele><time>2026-03-28T09:21:42.577Z</time></trkpt><trkpt lat="45.376406" lon="10.6346197"><ele>106.8</ele><time>2026-03-28T09:21:43.577Z</time></trkpt><trkpt lat="45.3764598" lon="10.6347548"><ele>106.4</ele><time>2026-03-28T09:21:44.577Z</time></trkpt><trkpt lat="45.3765006" lon="10.6349036"><ele>106.0</ele><time>2026-03-28T09:21:45.576Z</time></trkpt><trkpt lat="45.3765347" lon="10.6350325"><ele>106.0</ele><time>2026-03-28T09:21:46.577Z</time></trkpt><trkpt lat="45.3765586" lon="10.6351465"><ele>106.0</ele><time>2026-03-28T09:21:47.576Z</time></trkpt><trkpt lat="45.3765737" lon="10.6352519"><ele>106.0</ele><time>2026-03-28T09:21:48.577Z</time></trkpt><trkpt lat="45.3765664" lon="10.6353432"><ele>106.0</ele><time>2026-03-28T09:21:49.577Z</time></trkpt><trkpt lat="45.376563" lon="10.6354354"><ele>106.0</ele><time>2026-03-28T09:21:50.577Z</time></trkpt><trkpt lat="45.3765117" lon="10.6355249"><ele>106.0</ele><time>2026-03-28T09:21:51.577Z</time></trkpt><trkpt lat="45.3764919" lon="10.6356342"><ele>106.0</ele><time>2026-03-28T09:21:52.576Z</time></trkpt><trkpt lat="45.3764649" lon="10.6357632"><ele>107.33333333333334</ele><time>2026-03-28T09:21:54.576Z</time></trkpt><trkpt lat="45.376407" lon="10.6358445"><ele>108.66666666666667</ele><time>2026-03-28T09:21:56.577Z</time></trkpt><trkpt lat="45.376298" lon="10.6358473"><ele>110.0</ele><time>2026-03-28T09:21:58.577Z</time></trkpt><trkpt lat="45.3762193" lon="10.6357489"><ele>111.33333333333334</ele><time>2026-03-28T09:21:59.576Z</time></trkpt><trkpt lat="45.3761675" lon="10.6356914"><ele>112.66666666666667</ele><time>2026-03-28T09:22:00.577Z</time></trkpt><trkpt lat="45.3761122" lon="10.635643"><ele>114.0</ele><time>2026-03-28T09:22:01.576Z</time></trkpt><trkpt lat="45.3760537" lon="10.6355882"><ele>114.4</ele><time>2026-03-28T09:22:02.576Z</time></trkpt><trkpt lat="45.3759841" lon="10.6355158"><ele>114.80000000000001</ele><time>2026-03-28T09:22:03.576Z</time></trkpt><trkpt lat="45.3758928" lon="10.6354479"><ele>115.19999999999999</ele><time>2026-03-28T09:22:04.575Z</time></trkpt><trkpt lat="45.3757979" lon="10.6354015"><ele>115.6</ele><time>2026-03-28T09:22:05.575Z</time></trkpt><trkpt lat="45.3757027" lon="10.6353743"><ele>116.0</ele><time>2026-03-28T09:22:06.576Z</time></trkpt><trkpt lat="45.3756086" lon="10.6353567"><ele>115.19999999999999</ele><time>2026-03-28T09:22:07.577Z</time></trkpt><trkpt lat="45.3755085" lon="10.6353685"><ele>114.39999999999999</ele><time>2026-03-28T09:22:08.576Z</time></trkpt><trkpt lat="45.3754051" lon="10.635419"><ele>113.6</ele><time>2026-03-28T09:22:09.576Z</time></trkpt><trkpt lat="45.3753189" lon="10.6354938"><ele>112.8</ele><time>2026-03-28T09:22:10.575Z</time></trkpt><trkpt lat="45.3752456" lon="10.6355723"><ele>112.0</ele><time>2026-03-28T09:22:11.577Z</time></trkpt><trkpt lat="45.375189" lon="10.6356521"><ele>112.0</ele><time>2026-03-28T09:22:12.576Z</time></trkpt><trkpt lat="45.3751333" lon="10.63573"><ele>111.99999999999999</ele><time>2026-03-28T09:22:13.577Z</time></trkpt><trkpt lat="45.3750701" lon="10.6358064"><ele>111.99999999999999</ele><time>2026-03-28T09:22:14.577Z</time></trkpt><trkpt lat="45.3749999" lon="10.6358897"><ele>112.0</ele><time>2026-03-28T09:22:15.577Z</time></trkpt><trkpt lat="45.3749248" lon="10.6359818"><ele>112.0</ele><time>2026-03-28T09:22:16.576Z</time></trkpt><trkpt lat="45.374849" lon="10.6360791"><ele>112.39999999999999</ele><time>2026-03-28T09:22:17.576Z</time></trkpt><trkpt lat="45.3747654" lon="10.6361621"><ele>112.79999999999998</ele><time>2026-03-28T09:22:18.577Z</time></trkpt><trkpt lat="45.3746849" lon="10.6362177"><ele>113.2</ele><time>2026-03-28T09:22:19.576Z</time></trkpt><trkpt lat="45.3746185" lon="10.6362783"><ele>113.6</ele><time>2026-03-28T09:22:20.577Z</time></trkpt><trkpt lat="45.3745344" lon="10.6363782"><ele>114.0</ele><time>2026-03-28T09:22:22.576Z</time></trkpt><trkpt lat="45.3744654" lon="10.6364629"><ele>113.2</ele><time>2026-03-28T09:22:24.577Z</time></trkpt><trkpt lat="45.3744516" lon="10.6366212"><ele>112.4</ele><time>2026-03-28T09:22:26.576Z</time></trkpt><trkpt lat="45.3744885" lon="10.6367362"><ele>111.6</ele><time>2026-03-28T09:22:27.577Z</time></trkpt><trkpt lat="45.3745288" lon="10.636861"><ele>110.8</ele><time>2026-03-28T09:22:28.577Z</time></trkpt><trkpt lat="45.3745668" lon="10.6370051"><ele>110.0</ele><time>2026-03-28T09:22:29.576Z</time></trkpt><trkpt lat="45.374598" lon="10.6371565"><ele>110.0</ele><time>2026-03-28T09:22:30.577Z</time></trkpt><trkpt lat="45.374613" lon="10.6373267"><ele>110.0</ele><time>2026-03-28T09:22:31.577Z</time></trkpt><trkpt lat="45.3746064" lon="10.6375039"><ele>110.0</ele><time>2026-03-28T09:22:32.576Z</time></trkpt><trkpt lat="45.3746088" lon="10.6376834"><ele>110.0</ele><time>2026-03-28T09:22:33.577Z</time></trkpt><trkpt lat="45.3746255" lon="10.6378638"><ele>110.5</ele><time>2026-03-28T09:22:34.576Z</time></trkpt><trkpt lat="45.3746528" lon="10.6380429"><ele>111.0</ele><time>2026-03-28T09:22:35.577Z</time></trkpt><trkpt lat="45.374687" lon="10.6382107"><ele>111.5</ele><time>2026-03-28T09:22:36.577Z</time></trkpt><trkpt lat="45.3747185" lon="10.6383611"><ele>112.0</ele><time>2026-03-28T09:22:37.577Z</time></trkpt><trkpt lat="45.3747474" lon="10.6385039"><ele>113.75</ele><time>2026-03-28T09:22:38.577Z</time></trkpt><trkpt lat="45.3747784" lon="10.6386441"><ele>115.5</ele><time>2026-03-28T09:22:39.576Z</time></trkpt><trkpt lat="45.374806" lon="10.6387869"><ele>117.25</ele><time>2026-03-28T09:22:40.576Z</time></trkpt><trkpt lat="45.3748184" lon="10.638956"><ele>119.0</ele><time>2026-03-28T09:22:41.577Z</time></trkpt><trkpt lat="45.3748185" lon="10.639133"><ele>119.0</ele><time>2026-03-28T09:22:42.576Z</time></trkpt><trkpt lat="45.374817" lon="10.6392933"><ele>119.0</ele><time>2026-03-28T09:22:43.577Z</time></trkpt><trkpt lat="45.3748325" lon="10.6394698"><ele>119.0</ele><time>2026-03-28T09:22:44.577Z</time></trkpt><trkpt lat="45.3748689" lon="10.6396536"><ele>119.0</ele><time>2026-03-28T09:22:45.576Z</time></trkpt><trkpt lat="45.3749237" lon="10.6398329"><ele>118.75</ele><time>2026-03-28T09:22:46.577Z</time></trkpt><trkpt lat="45.374984" lon="10.6399965"><ele>118.5</ele><time>2026-03-28T09:22:47.577Z</time></trkpt><trkpt lat="45.3750533" lon="10.6401441"><ele>118.25</ele><time>2026-03-28T09:22:48.575Z</time></trkpt><trkpt lat="45.3751239" lon="10.640272"><ele>118.0</ele><time>2026-03-28T09:22:49.577Z</time></trkpt><trkpt lat="45.3751825" lon="10.6403884"><ele>117.16666666666667</ele><time>2026-03-28T09:22:50.576Z</time></trkpt><trkpt lat="45.3752298" lon="10.6404956"><ele>116.33333333333334</ele><time>2026-03-28T09:22:51.577Z</time></trkpt><trkpt lat="45.3752711" lon="10.6405986"><ele>115.5</ele><time>2026-03-28T09:22:52.576Z</time></trkpt><trkpt lat="45.375292" lon="10.6407053"><ele>114.66666666666666</ele><time>2026-03-28T09:22:53.577Z</time></trkpt><trkpt lat="45.3753007" lon="10.6408105"><ele>113.83333333333333</ele><time>2026-03-28T09:22:54.576Z</time></trkpt><trkpt lat="45.3752886" lon="10.6409132"><ele>113.0</ele><time>2026-03-28T09:22:55.576Z</time></trkpt><trkpt lat="45.3752589" lon="10.6410018"><ele>113.0</ele><time>2026-03-28T09:22:56.575Z</time></trkpt><trkpt lat="45.375196" lon="10.6410876"><ele>113.0</ele><time>2026-03-28T09:22:57.577Z</time></trkpt><trkpt lat="45.3750877" lon="10.6411531"><ele>113.0</ele><time>2026-03-28T09:22:58.575Z</time></trkpt><trkpt lat="45.3749099" lon="10.6412037"><ele>113.0</ele><time>2026-03-28T09:22:59.575Z</time></trkpt><trkpt lat="45.374679" lon="10.6412255"><ele>111.0</ele><time>2026-03-28T09:23:00.575Z</time></trkpt><trkpt lat="45.3744427" lon="10.6412065"><ele>109.0</ele><time>2026-03-28T09:23:01.576Z</time></trkpt><trkpt lat="45.374217" lon="10.6411936"><ele>109.0</ele><time>2026-03-28T09:23:02.576Z</time></trkpt><trkpt lat="45.3740061" lon="10.6412198"><ele>109.0</ele><time>2026-03-28T09:23:03.576Z</time></trkpt><trkpt lat="45.3737969" lon="10.6412931"><ele>109.0</ele><time>2026-03-28T09:23:04.576Z</time></trkpt><trkpt lat="45.3735994" lon="10.6413776"><ele>107.5</ele><time>2026-03-28T09:23:05.577Z</time></trkpt><trkpt lat="45.3733603" lon="10.6416461"><ele>106.0</ele><time>2026-03-28T09:23:06.576Z</time></trkpt><trkpt lat="45.3731636" lon="10.6418287"><ele>106.0</ele><time>2026-03-28T09:23:07.576Z</time></trkpt><trkpt lat="45.3729719" lon="10.6420093"><ele>106.0</ele><time>2026-03-28T09:23:08.576Z</time></trkpt><trkpt lat="45.3727781" lon="10.642152"><ele>106.0</ele><time>2026-03-28T09:23:09.576Z</time></trkpt><trkpt lat="45.372584" lon="10.6422317"><ele>106.0</ele><time>2026-03-28T09:23:10.575Z</time></trkpt><trkpt lat="45.3723767" lon="10.6422865"><ele>106.0</ele><time>2026-03-28T09:23:11.575Z</time></trkpt><trkpt lat="45.3721763" lon="10.64233"><ele>106.0</ele><time>2026-03-28T09:23:12.575Z</time></trkpt><trkpt lat="45.3719853" lon="10.6423655"><ele>107.0</ele><time>2026-03-28T09:23:13.577Z</time></trkpt><trkpt lat="45.3718039" lon="10.6423999"><ele>108.0</ele><time>2026-03-28T09:23:14.577Z</time></trkpt><trkpt lat="45.371632" lon="10.6424355"><ele>109.0</ele><time>2026-03-28T09:23:15.577Z</time></trkpt><trkpt lat="45.3714783" lon="10.6424625"><ele>108.66666666666667</ele><time>2026-03-28T09:23:16.577Z</time></trkpt><trkpt lat="45.3713367" lon="10.6425019"><ele>108.33333333333334</ele><time>2026-03-28T09:23:17.576Z</time></trkpt><trkpt lat="45.3711999" lon="10.6425921"><ele>108.0</ele><time>2026-03-28T09:23:18.577Z</time></trkpt><trkpt lat="45.3710595" lon="10.6427284"><ele>108.0</ele><time>2026-03-28T09:23:19.575Z</time></trkpt><trkpt lat="45.3709226" lon="10.6429215"><ele>108.0</ele><time>2026-03-28T09:23:20.575Z</time></trkpt><trkpt lat="45.3707827" lon="10.6431286"><ele>108.0</ele><time>2026-03-28T09:23:21.576Z</time></trkpt><trkpt lat="45.370645" lon="10.6433105"><ele>108.33333333333334</ele><time>2026-03-28T09:23:22.576Z</time></trkpt><trkpt lat="45.3705038" lon="10.6434483"><ele>108.66666666666667</ele><time>2026-03-28T09:23:23.577Z</time></trkpt><trkpt lat="45.3703334" lon="10.6435601"><ele>109.0</ele><time>2026-03-28T09:23:24.577Z</time></trkpt><trkpt lat="45.3701154" lon="10.6436585"><ele>110.0</ele><time>2026-03-28T09:23:25.577Z</time></trkpt><trkpt lat="45.3698609" lon="10.643746"><ele>111.0</ele><time>2026-03-28T09:23:26.576Z</time></trkpt><trkpt lat="45.3695784" lon="10.6438461"><ele>111.0</ele><time>2026-03-28T09:23:27.576Z</time></trkpt><trkpt lat="45.3693163" lon="10.6439792"><ele>111.0</ele><time>2026-03-28T09:23:28.577Z</time></trkpt><trkpt lat="45.3690766" lon="10.6441064"><ele>110.5</ele><time>2026-03-28T09:23:29.576Z</time></trkpt><trkpt lat="45.368851" lon="10.6442002"><ele>110.0</ele><time>2026-03-28T09:23:30.576Z</time></trkpt><trkpt lat="45.3686067" lon="10.6442547"><ele>110.0</ele><time>2026-03-28T09:23:31.576Z</time></trkpt><trkpt lat="45.3683476" lon="10.6442824"><ele>110.0</ele><time>2026-03-28T09:23:32.576Z</time></trkpt><trkpt lat="45.3681073" lon="10.6442947"><ele>110.0</ele><time>2026-03-28T09:23:33.576Z</time></trkpt><trkpt lat="45.3678956" lon="10.6442745"><ele>110.0</ele><time>2026-03-28T09:23:34.575Z</time></trkpt><trkpt lat="45.3676783" lon="10.64421"><ele>110.0</ele><time>2026-03-28T09:23:35.576Z</time></trkpt><trkpt lat="45.3674545" lon="10.644099"><ele>110.0</ele><time>2026-03-28T09:23:36.575Z</time></trkpt><trkpt lat="45.3672354" lon="10.6439124"><ele>110.0</ele><time>2026-03-28T09:23:37.575Z</time></trkpt><trkpt lat="45.3670381" lon="10.643705"><ele>109.0</ele><time>2026-03-28T09:23:38.577Z</time></trkpt><trkpt lat="45.3668627" lon="10.6435315"><ele>108.0</ele><time>2026-03-28T09:23:39.577Z</time></trkpt><trkpt lat="45.3666965" lon="10.6433757"><ele>107.0</ele><time>2026-03-28T09:23:40.576Z</time></trkpt><trkpt lat="45.3665146" lon="10.6432596"><ele>106.66666666666666</ele><time>2026-03-28T09:23:41.576Z</time></trkpt><trkpt lat="45.3663279" lon="10.6431912"><ele>106.33333333333334</ele><time>2026-03-28T09:23:42.576Z</time></trkpt><trkpt lat="45.3661508" lon="10.6431841"><ele>106.0</ele><time>2026-03-28T09:23:43.576Z</time></trkpt><trkpt lat="45.365978" lon="10.6432524"><ele>106.0</ele><time>2026-03-28T09:23:44.576Z</time></trkpt><trkpt lat="45.3658115" lon="10.6433817"><ele>106.0</ele><time>2026-03-28T09:23:45.577Z</time></trkpt><trkpt lat="45.3656483" lon="10.6435386"><ele>106.0</ele><time>2026-03-28T09:23:46.576Z</time></trkpt><trkpt lat="45.3654836" lon="10.6436676"><ele>106.33333333333334</ele><time>2026-03-28T09:23:47.576Z</time></trkpt><trkpt lat="45.365298" lon="10.6437916"><ele>106.66666666666666</ele><time>2026-03-28T09:23:48.575Z</time></trkpt><trkpt lat="45.3650937" lon="10.6438808"><ele>107.0</ele><time>2026-03-28T09:23:49.576Z</time></trkpt><trkpt lat="45.3648997" lon="10.6439133"><ele>107.0</ele><time>2026-03-28T09:23:50.577Z</time></trkpt><trkpt lat="45.3647068" lon="10.643921"><ele>107.0</ele><time>2026-03-28T09:23:51.577Z</time></trkpt><trkpt lat="45.3644496" lon="10.6438139"><ele>107.33333333333333</ele><time>2026-03-28T09:23:52.577Z</time></trkpt><trkpt lat="45.3642222" lon="10.6437434"><ele>107.66666666666666</ele><time>2026-03-28T09:23:53.576Z</time></trkpt><trkpt lat="45.3640779" lon="10.6436918"><ele>108.0</ele><time>2026-03-28T09:23:54.576Z</time></trkpt><trkpt lat="45.3639056" lon="10.643703"><ele>109.66666666666666</ele><time>2026-03-28T09:23:55.577Z</time></trkpt><trkpt lat="45.363721" lon="10.6437852"><ele>111.33333333333333</ele><time>2026-03-28T09:23:56.576Z</time></trkpt><trkpt lat="45.3635113" lon="10.6439174"><ele>113.0</ele><time>2026-03-28T09:23:57.577Z</time></trkpt><trkpt lat="45.3632846" lon="10.6440769"><ele>113.0</ele><time>2026-03-28T09:23:58.576Z</time></trkpt><trkpt lat="45.3630807" lon="10.6441844"><ele>113.0</ele><time>2026-03-28T09:23:59.576Z</time></trkpt><trkpt lat="45.3629118" lon="10.6442708"><ele>113.0</ele><time>2026-03-28T09:24:00.577Z</time></trkpt><trkpt lat="45.3627643" lon="10.6443614"><ele>114.33333333333333</ele><time>2026-03-28T09:24:01.576Z</time></trkpt><trkpt lat="45.3626059" lon="10.6443875"><ele>115.66666666666666</ele><time>2026-03-28T09:24:02.577Z</time></trkpt><trkpt lat="45.3624394" lon="10.6443813"><ele>117.0</ele><time>2026-03-28T09:24:03.577Z</time></trkpt><trkpt lat="45.3622945" lon="10.6443838"><ele>118.66666666666666</ele><time>2026-03-28T09:24:04.576Z</time></trkpt><trkpt lat="45.3621418" lon="10.6443998"><ele>120.33333333333333</ele><time>2026-03-28T09:24:05.576Z</time></trkpt><trkpt lat="45.3619862" lon="10.6444488"><ele>122.0</ele><time>2026-03-28T09:24:06.576Z</time></trkpt><trkpt lat="45.3618367" lon="10.644527"><ele>123.75</ele><time>2026-03-28T09:24:07.577Z</time></trkpt><trkpt lat="45.3617199" lon="10.6446431"><ele>125.5</ele><time>2026-03-28T09:24:08.577Z</time></trkpt><trkpt lat="45.3616088" lon="10.6447683"><ele>127.25</ele><time>2026-03-28T09:24:09.575Z</time></trkpt><trkpt lat="45.3614968" lon="10.6448795"><ele>129.0</ele><time>2026-03-28T09:24:10.576Z</time></trkpt><trkpt lat="45.3613862" lon="10.6449551"><ele>128.75</ele><time>2026-03-28T09:24:11.577Z</time></trkpt><trkpt lat="45.3612736" lon="10.6450046"><ele>128.5</ele><time>2026-03-28T09:24:12.576Z</time></trkpt><trkpt lat="45.3611668" lon="10.6450279"><ele>128.25</ele><time>2026-03-28T09:24:13.576Z</time></trkpt><trkpt lat="45.3610501" lon="10.6450266"><ele>128.0</ele><time>2026-03-28T09:24:14.575Z</time></trkpt><trkpt lat="45.3608919" lon="10.644993"><ele>128.0</ele><time>2026-03-28T09:24:15.575Z</time></trkpt><trkpt lat="45.3607025" lon="10.6449047"><ele>128.0</ele><time>2026-03-28T09:24:16.575Z</time></trkpt><trkpt lat="45.3604842" lon="10.6447923"><ele>128.0</ele><time>2026-03-28T09:24:17.577Z</time></trkpt><trkpt lat="45.3602282" lon="10.6446861"><ele>126.5</ele><time>2026-03-28T09:24:18.577Z</time></trkpt><trkpt lat="45.3599482" lon="10.6446068"><ele>125.0</ele><time>2026-03-28T09:24:19.576Z</time></trkpt><trkpt lat="45.3596888" lon="10.644539"><ele>125.0</ele><time>2026-03-28T09:24:20.576Z</time></trkpt><trkpt lat="45.3594416" lon="10.6444767"><ele>125.0</ele><time>2026-03-28T09:24:21.576Z</time></trkpt><trkpt lat="45.3592096" lon="10.644407"><ele>124.66666666666666</ele><time>2026-03-28T09:24:22.577Z</time></trkpt><trkpt lat="45.3589872" lon="10.6443412"><ele>124.33333333333334</ele><time>2026-03-28T09:24:23.577Z</time></trkpt><trkpt lat="45.3587824" lon="10.6442913"><ele>124.0</ele><time>2026-03-28T09:24:24.577Z</time></trkpt><trkpt lat="45.3586046" lon="10.6442551"><ele>123.66666666666667</ele><time>2026-03-28T09:24:25.576Z</time></trkpt><trkpt lat="45.358438" lon="10.6442262"><ele>123.33333333333334</ele><time>2026-03-28T09:24:26.576Z</time></trkpt><trkpt lat="45.3582797" lon="10.6441973"><ele>123.0</ele><time>2026-03-28T09:24:27.577Z</time></trkpt><trkpt lat="45.3581352" lon="10.644152"><ele>122.5</ele><time>2026-03-28T09:24:28.577Z</time></trkpt><trkpt lat="45.358028" lon="10.6441037"><ele>122.0</ele><time>2026-03-28T09:24:29.576Z</time></trkpt><trkpt lat="45.35795" lon="10.6440642"><ele>121.5</ele><time>2026-03-28T09:24:30.576Z</time></trkpt><trkpt lat="45.3578875" lon="10.644043"><ele>121.0</ele><time>2026-03-28T09:24:31.577Z</time></trkpt><trkpt lat="45.3578191" lon="10.6440277"><ele>120.5</ele><time>2026-03-28T09:24:33.577Z</time></trkpt><trkpt lat="45.3577483" lon="10.6440468"><ele>120.0</ele><time>2026-03-28T09:24:35.577Z</time></trkpt><trkpt lat="45.3576855" lon="10.644098"><ele>120.0</ele><time>2026-03-28T09:24:36.577Z</time></trkpt><trkpt lat="45.3575951" lon="10.6441652"><ele>120.0</ele><time>2026-03-28T09:24:37.575Z</time></trkpt><trkpt lat="45.3574409" lon="10.6441927"><ele>120.0</ele><time>2026-03-28T09:24:38.576Z</time></trkpt><trkpt lat="45.3572425" lon="10.6441908"><ele>119.5</ele><time>2026-03-28T09:24:39.577Z</time></trkpt><trkpt lat="45.3569946" lon="10.6441847"><ele>119.0</ele><time>2026-03-28T09:24:40.577Z</time></trkpt><trkpt lat="45.3567139" lon="10.6441881"><ele>119.0</ele><time>2026-03-28T09:24:41.576Z</time></trkpt><trkpt lat="45.3564414" lon="10.6441445"><ele>119.0</ele><time>2026-03-28T09:24:42.576Z</time></trkpt><trkpt lat="45.3561498" lon="10.6440405"><ele>119.5</ele><time>2026-03-28T09:24:43.577Z</time></trkpt><trkpt lat="45.3558844" lon="10.6439081"><ele>120.0</ele><time>2026-03-28T09:24:44.577Z</time></trkpt><trkpt lat="45.3556498" lon="10.6437765"><ele>119.33333333333334</ele><time>2026-03-28T09:24:45.576Z</time></trkpt><trkpt lat="45.3554542" lon="10.6436643"><ele>118.66666666666667</ele><time>2026-03-28T09:24:46.576Z</time></trkpt><trkpt lat="45.3552794" lon="10.6435562"><ele>118.0</ele><time>2026-03-28T09:24:47.576Z</time></trkpt><trkpt lat="45.355109" lon="10.6434838"><ele>118.0</ele><time>2026-03-28T09:24:48.577Z</time></trkpt><trkpt lat="45.35492" lon="10.6434834"><ele>118.0</ele><time>2026-03-28T09:24:49.576Z</time></trkpt><trkpt lat="45.3547417" lon="10.6434884"><ele>118.0</ele><time>2026-03-28T09:24:50.576Z</time></trkpt><trkpt lat="45.354559" lon="10.6435452"><ele>114.5</ele><time>2026-03-28T09:24:51.576Z</time></trkpt><trkpt lat="45.3543443" lon="10.6436765"><ele>111.0</ele><time>2026-03-28T09:24:52.577Z</time></trkpt><trkpt lat="45.3541399" lon="10.643811"><ele>110.0</ele><time>2026-03-28T09:24:53.577Z</time></trkpt><trkpt lat="45.3536213" lon="10.6442766"><ele>107.5</ele><time>2026-03-28T09:24:54.575Z</time></trkpt><trkpt lat="45.353318" lon="10.6445303"><ele>105.0</ele><time>2026-03-28T09:24:55.576Z</time></trkpt><trkpt lat="45.3530413" lon="10.6447756"><ele>107.5</ele><time>2026-03-28T09:24:56.576Z</time></trkpt><trkpt lat="45.3527998" lon="10.6450001"><ele>110.0</ele><time>2026-03-28T09:24:57.577Z</time></trkpt><trkpt lat="45.3525953" lon="10.6451865"><ele>109.66666666666666</ele><time>2026-03-28T09:24:58.576Z</time></trkpt><trkpt lat="45.3523989" lon="10.6453658"><ele>109.33333333333334</ele><time>2026-03-28T09:24:59.576Z</time></trkpt><trkpt lat="45.3522199" lon="10.6455237"><ele>109.0</ele><time>2026-03-28T09:25:00.576Z</time></trkpt><trkpt lat="45.3520576" lon="10.6456613"><ele>109.0</ele><time>2026-03-28T09:25:01.577Z</time></trkpt><trkpt lat="45.3519199" lon="10.6457665"><ele>109.0</ele><time>2026-03-28T09:25:02.577Z</time></trkpt><trkpt lat="45.3518144" lon="10.6458361"><ele>109.0</ele><time>2026-03-28T09:25:03.577Z</time></trkpt><trkpt lat="45.3517354" lon="10.6458535"><ele>109.0</ele><time>2026-03-28T09:25:04.576Z</time></trkpt><trkpt lat="45.3516739" lon="10.6458163"><ele>109.0</ele><time>2026-03-28T09:25:05.575Z</time></trkpt><trkpt lat="45.3516422" lon="10.6457277"><ele>109.0</ele><time>2026-03-28T09:25:06.576Z</time></trkpt><trkpt lat="45.3516503" lon="10.6455854"><ele>109.0</ele><time>2026-03-28T09:25:07.576Z</time></trkpt><trkpt lat="45.3516892" lon="10.6453858"><ele>109.0</ele><time>2026-03-28T09:25:08.577Z</time></trkpt><trkpt lat="45.3517594" lon="10.6451617"><ele>109.0</ele><time>2026-03-28T09:25:09.577Z</time></trkpt><trkpt lat="45.3518438" lon="10.6449897"><ele>109.25</ele><time>2026-03-28T09:25:10.576Z</time></trkpt><trkpt lat="45.3519386" lon="10.6448321"><ele>109.5</ele><time>2026-03-28T09:25:11.576Z</time></trkpt><trkpt lat="45.352032" lon="10.6446949"><ele>109.75</ele><time>2026-03-28T09:25:12.576Z</time></trkpt><trkpt lat="45.3521152" lon="10.6445705"><ele>110.0</ele><time>2026-03-28T09:25:13.577Z</time></trkpt><trkpt lat="45.3521768" lon="10.644475"><ele>110.16666666666666</ele><time>2026-03-28T09:25:14.577Z</time></trkpt><trkpt lat="45.3522156" lon="10.6444035"><ele>110.33333333333333</ele><time>2026-03-28T09:25:15.577Z</time></trkpt><trkpt lat="45.3522365" lon="10.6442967"><ele>110.5</ele><time>2026-03-28T09:25:17.576Z</time></trkpt><trkpt lat="45.3521912" lon="10.6442326"><ele>110.66666666666666</ele><time>2026-03-28T09:25:19.577Z</time></trkpt><trkpt lat="45.3520687" lon="10.644181"><ele>110.83333333333333</ele><time>2026-03-28T09:25:21.576Z</time></trkpt><trkpt lat="45.3519763" lon="10.6441302"><ele>111.0</ele><time>2026-03-28T09:25:22.576Z</time></trkpt><trkpt lat="45.351875" lon="10.6440611"><ele>111.0</ele><time>2026-03-28T09:25:23.575Z</time></trkpt><trkpt lat="45.3517425" lon="10.6439602"><ele>111.0</ele><time>2026-03-28T09:25:24.576Z</time></trkpt><trkpt lat="45.3515925" lon="10.6438278"><ele>111.0</ele><time>2026-03-28T09:25:25.577Z</time></trkpt><trkpt lat="45.3514335" lon="10.6437003"><ele>110.0</ele><time>2026-03-28T09:25:26.577Z</time></trkpt><trkpt lat="45.3512556" lon="10.643583"><ele>109.0</ele><time>2026-03-28T09:25:27.575Z</time></trkpt><trkpt lat="45.3510567" lon="10.6434669"><ele>108.0</ele><time>2026-03-28T09:25:28.575Z</time></trkpt><trkpt lat="45.3508631" lon="10.6433483"><ele>108.0</ele><time>2026-03-28T09:25:29.576Z</time></trkpt><trkpt lat="45.3506835" lon="10.6432435"><ele>108.0</ele><time>2026-03-28T09:25:30.576Z</time></trkpt><trkpt lat="45.3505123" lon="10.643158"><ele>108.0</ele><time>2026-03-28T09:25:31.577Z</time></trkpt><trkpt lat="45.350345" lon="10.6430783"><ele>107.66666666666666</ele><time>2026-03-28T09:25:32.577Z</time></trkpt><trkpt lat="45.3501888" lon="10.6430042"><ele>107.33333333333333</ele><time>2026-03-28T09:25:33.577Z</time></trkpt><trkpt lat="45.3500452" lon="10.6429376"><ele>107.0</ele><time>2026-03-28T09:25:34.576Z</time></trkpt><trkpt lat="45.3499155" lon="10.6428801"><ele>107.0</ele><time>2026-03-28T09:25:35.575Z</time></trkpt><trkpt lat="45.3498049" lon="10.6428269"><ele>107.0</ele><time>2026-03-28T09:25:36.576Z</time></trkpt><trkpt lat="45.3496954" lon="10.6427876"><ele>107.0</ele><time>2026-03-28T09:25:37.576Z</time></trkpt><trkpt lat="45.349568" lon="10.6427489"><ele>107.0</ele><time>2026-03-28T09:25:38.576Z</time></trkpt><trkpt lat="45.3494484" lon="10.6427138"><ele>106.5</ele><time>2026-03-28T09:25:39.576Z</time></trkpt><trkpt lat="45.3493444" lon="10.6426802"><ele>106.0</ele><time>2026-03-28T09:25:40.576Z</time></trkpt><trkpt lat="45.3492297" lon="10.6426426"><ele>105.5</ele><time>2026-03-28T09:25:41.576Z</time></trkpt><trkpt lat="45.3490943" lon="10.6426051"><ele>105.0</ele><time>2026-03-28T09:25:42.577Z</time></trkpt><trkpt lat="45.3489713" lon="10.6425659"><ele>105.0</ele><time>2026-03-28T09:25:43.577Z</time></trkpt><trkpt lat="45.3488789" lon="10.6425357"><ele>105.0</ele><time>2026-03-28T09:25:44.577Z</time></trkpt><trkpt lat="45.3488078" lon="10.6424945"><ele>105.0</ele><time>2026-03-28T09:25:45.576Z</time></trkpt><trkpt lat="45.3487597" lon="10.6424319"><ele>105.0</ele><time>2026-03-28T09:25:46.577Z</time></trkpt><trkpt lat="45.3487361" lon="10.6423358"><ele>105.0</ele><time>2026-03-28T09:25:47.576Z</time></trkpt><trkpt lat="45.3487326" lon="10.642204"><ele>105.0</ele><time>2026-03-28T09:25:48.576Z</time></trkpt><trkpt lat="45.3487368" lon="10.6420616"><ele>105.4</ele><time>2026-03-28T09:25:49.576Z</time></trkpt><trkpt lat="45.3487389" lon="10.6419503"><ele>105.8</ele><time>2026-03-28T09:25:50.576Z</time></trkpt><trkpt lat="45.3487293" lon="10.6418545"><ele>106.19999999999999</ele><time>2026-03-28T09:25:51.576Z</time></trkpt><trkpt lat="45.3486331" lon="10.6417613"><ele>106.6</ele><time>2026-03-28T09:25:53.577Z</time></trkpt><trkpt lat="45.3485435" lon="10.6417708"><ele>107.0</ele><time>2026-03-28T09:25:54.576Z</time></trkpt><trkpt lat="45.348425" lon="10.6417917"><ele>107.0</ele><time>2026-03-28T09:25:55.577Z</time></trkpt><trkpt lat="45.3483003" lon="10.6418156"><ele>107.0</ele><time>2026-03-28T09:25:56.577Z</time></trkpt><trkpt lat="45.3481799" lon="10.6418329"><ele>107.0</ele><time>2026-03-28T09:25:57.576Z</time></trkpt><trkpt lat="45.3480772" lon="10.6418593"><ele>107.0</ele><time>2026-03-28T09:25:58.577Z</time></trkpt><trkpt lat="45.3479305" lon="10.6418899"><ele>107.0</ele><time>2026-03-28T09:25:59.576Z</time></trkpt><trkpt lat="45.347769" lon="10.6419259"><ele>107.0</ele><time>2026-03-28T09:26:00.576Z</time></trkpt><trkpt lat="45.3476281" lon="10.6419551"><ele>107.0</ele><time>2026-03-28T09:26:01.576Z</time></trkpt><trkpt lat="45.347501" lon="10.6419775"><ele>107.0</ele><time>2026-03-28T09:26:02.575Z</time></trkpt><trkpt lat="45.3473777" lon="10.642003"><ele>107.0</ele><time>2026-03-28T09:26:03.576Z</time></trkpt><trkpt lat="45.3472599" lon="10.6420257"><ele>106.99999999999999</ele><time>2026-03-28T09:26:04.577Z</time></trkpt><trkpt lat="45.3471488" lon="10.6420511"><ele>106.99999999999999</ele><time>2026-03-28T09:26:05.577Z</time></trkpt><trkpt lat="45.3470554" lon="10.6420699"><ele>107.0</ele><time>2026-03-28T09:26:06.576Z</time></trkpt><trkpt lat="45.3469663" lon="10.6420888"><ele>107.0</ele><time>2026-03-28T09:26:07.576Z</time></trkpt><trkpt lat="45.3468802" lon="10.6421102"><ele>106.49999999999999</ele><time>2026-03-28T09:26:08.576Z</time></trkpt><trkpt lat="45.3468006" lon="10.6421255"><ele>106.0</ele><time>2026-03-28T09:26:09.576Z</time></trkpt><trkpt lat="45.3467364" lon="10.6421278"><ele>105.5</ele><time>2026-03-28T09:26:10.577Z</time></trkpt><trkpt lat="45.3466637" lon="10.6420614"><ele>105.0</ele><time>2026-03-28T09:26:12.575Z</time></trkpt><trkpt lat="45.3466086" lon="10.6419052"><ele>104.49999999999999</ele><time>2026-03-28T09:26:14.576Z</time></trkpt><trkpt lat="45.3465764" lon="10.6417772"><ele>104.0</ele><time>2026-03-28T09:26:15.575Z</time></trkpt><trkpt lat="45.3465269" lon="10.6416128"><ele>105.2</ele><time>2026-03-28T09:26:16.576Z</time></trkpt><trkpt lat="45.3464659" lon="10.6414272"><ele>106.4</ele><time>2026-03-28T09:26:17.576Z</time></trkpt><trkpt lat="45.3464116" lon="10.6412842"><ele>107.6</ele><time>2026-03-28T09:26:18.576Z</time></trkpt><trkpt lat="45.346369" lon="10.641155"><ele>108.8</ele><time>2026-03-28T09:26:19.577Z</time></trkpt><trkpt lat="45.3463508" lon="10.6410477"><ele>110.0</ele><time>2026-03-28T09:26:20.577Z</time></trkpt><trkpt lat="45.3463617" lon="10.6409187"><ele>110.25</ele><time>2026-03-28T09:26:21.577Z</time></trkpt><trkpt lat="45.3463851" lon="10.6407457"><ele>110.5</ele><time>2026-03-28T09:26:22.576Z</time></trkpt><trkpt lat="45.3464042" lon="10.640555"><ele>110.75</ele><time>2026-03-28T09:26:23.576Z</time></trkpt><trkpt lat="45.3464114" lon="10.6403869"><ele>111.0</ele><time>2026-03-28T09:26:24.576Z</time></trkpt><trkpt lat="45.3463963" lon="10.6402198"><ele>113.75</ele><time>2026-03-28T09:26:25.575Z</time></trkpt><trkpt lat="45.3463617" lon="10.6400233"><ele>116.5</ele><time>2026-03-28T09:26:26.577Z</time></trkpt><trkpt lat="45.3463211" lon="10.639826"><ele>119.25</ele><time>2026-03-28T09:26:27.576Z</time></trkpt><trkpt lat="45.3462893" lon="10.6396306"><ele>122.0</ele><time>2026-03-28T09:26:28.577Z</time></trkpt><trkpt lat="45.3462696" lon="10.6394562"><ele>122.6</ele><time>2026-03-28T09:26:29.577Z</time></trkpt><trkpt lat="45.3462507" lon="10.6392904"><ele>123.19999999999999</ele><time>2026-03-28T09:26:30.577Z</time></trkpt><trkpt lat="45.3462344" lon="10.6391404"><ele>123.8</ele><time>2026-03-28T09:26:31.577Z</time></trkpt><trkpt lat="45.3462183" lon="10.6389864"><ele>124.4</ele><time>2026-03-28T09:26:32.576Z</time></trkpt><trkpt lat="45.3461994" lon="10.6388456"><ele>125.0</ele><time>2026-03-28T09:26:33.576Z</time></trkpt><trkpt lat="45.3461679" lon="10.638711"><ele>124.25</ele><time>2026-03-28T09:26:34.577Z</time></trkpt><trkpt lat="45.3461134" lon="10.6385793"><ele>123.5</ele><time>2026-03-28T09:26:35.577Z</time></trkpt><trkpt lat="45.346049" lon="10.6384303"><ele>122.75</ele><time>2026-03-28T09:26:36.577Z</time></trkpt><trkpt lat="45.3459882" lon="10.6382698"><ele>122.0</ele><time>2026-03-28T09:26:37.575Z</time></trkpt><trkpt lat="45.3459339" lon="10.6381237"><ele>122.0</ele><time>2026-03-28T09:26:38.576Z</time></trkpt><trkpt lat="45.3458885" lon="10.6379765"><ele>121.99999999999999</ele><time>2026-03-28T09:26:39.575Z</time></trkpt><trkpt lat="45.3458444" lon="10.6378468"><ele>121.99999999999999</ele><time>2026-03-28T09:26:40.577Z</time></trkpt><trkpt lat="45.3457966" lon="10.6377546"><ele>122.0</ele><time>2026-03-28T09:26:41.577Z</time></trkpt><trkpt lat="45.3457306" lon="10.6376613"><ele>122.0</ele><time>2026-03-28T09:26:42.576Z</time></trkpt><trkpt lat="45.3456355" lon="10.6375544"><ele>122.0</ele><time>2026-03-28T09:26:43.576Z</time></trkpt><trkpt lat="45.3455262" lon="10.6374586"><ele>122.0</ele><time>2026-03-28T09:26:44.575Z</time></trkpt><trkpt lat="45.345417" lon="10.637381"><ele>122.0</ele><time>2026-03-28T09:26:45.575Z</time></trkpt><trkpt lat="45.3453112" lon="10.6373128"><ele>122.0</ele><time>2026-03-28T09:26:46.576Z</time></trkpt><trkpt lat="45.3452003" lon="10.6372372"><ele>122.0</ele><time>2026-03-28T09:26:47.576Z</time></trkpt><trkpt lat="45.3450954" lon="10.6371446"><ele>122.0</ele><time>2026-03-28T09:26:48.576Z</time></trkpt><trkpt lat="45.3450061" lon="10.6370364"><ele>122.0</ele><time>2026-03-28T09:26:49.576Z</time></trkpt><trkpt lat="45.3449144" lon="10.6369176"><ele>122.0</ele><time>2026-03-28T09:26:50.577Z</time></trkpt><trkpt lat="45.3448336" lon="10.6367969"><ele>122.19999999999999</ele><time>2026-03-28T09:26:51.577Z</time></trkpt><trkpt lat="45.3447658" lon="10.6366752"><ele>122.39999999999999</ele><time>2026-03-28T09:26:52.576Z</time></trkpt><trkpt lat="45.3447142" lon="10.6365456"><ele>122.60000000000001</ele><time>2026-03-28T09:26:53.575Z</time></trkpt><trkpt lat="45.3446638" lon="10.6364027"><ele>122.80000000000001</ele><time>2026-03-28T09:26:54.576Z</time></trkpt><trkpt lat="45.3446247" lon="10.6362563"><ele>123.0</ele><time>2026-03-28T09:26:55.576Z</time></trkpt><trkpt lat="45.3445862" lon="10.6361237"><ele>124.0</ele><time>2026-03-28T09:26:56.575Z</time></trkpt><trkpt lat="45.3445366" lon="10.6360013"><ele>125.0</ele><time>2026-03-28T09:26:57.576Z</time></trkpt><trkpt lat="45.3444731" lon="10.6358708"><ele>126.0</ele><time>2026-03-28T09:26:58.576Z</time></trkpt><trkpt lat="45.3443786" lon="10.6357386"><ele>127.0</ele><time>2026-03-28T09:26:59.576Z</time></trkpt><trkpt lat="45.3442726" lon="10.6356081"><ele>127.0</ele><time>2026-03-28T09:27:00.576Z</time></trkpt><trkpt lat="45.3441734" lon="10.6354793"><ele>127.0</ele><time>2026-03-28T09:27:01.577Z</time></trkpt><trkpt lat="45.344078" lon="10.6353678"><ele>127.0</ele><time>2026-03-28T09:27:02.576Z</time></trkpt><trkpt lat="45.3439912" lon="10.6352539"><ele>127.0</ele><time>2026-03-28T09:27:03.575Z</time></trkpt><trkpt lat="45.3439106" lon="10.6351412"><ele>125.39999999999999</ele><time>2026-03-28T09:27:04.576Z</time></trkpt><trkpt lat="45.3438421" lon="10.6350189"><ele>123.79999999999998</ele><time>2026-03-28T09:27:05.576Z</time></trkpt><trkpt lat="45.3437823" lon="10.6348857"><ele>122.2</ele><time>2026-03-28T09:27:06.577Z</time></trkpt><trkpt lat="45.3437422" lon="10.6347496"><ele>120.6</ele><time>2026-03-28T09:27:07.575Z</time></trkpt><trkpt lat="45.3437097" lon="10.6346094"><ele>119.0</ele><time>2026-03-28T09:27:08.575Z</time></trkpt><trkpt lat="45.3436852" lon="10.6344646"><ele>119.0</ele><time>2026-03-28T09:27:09.576Z</time></trkpt><trkpt lat="45.3436661" lon="10.6343162"><ele>119.0</ele><time>2026-03-28T09:27:10.577Z</time></trkpt><trkpt lat="45.3436481" lon="10.6341741"><ele>119.0</ele><time>2026-03-28T09:27:11.577Z</time></trkpt><trkpt lat="45.3436372" lon="10.6340369"><ele>119.0</ele><time>2026-03-28T09:27:12.576Z</time></trkpt><trkpt lat="45.3436358" lon="10.6339049"><ele>119.0</ele><time>2026-03-28T09:27:13.575Z</time></trkpt><trkpt lat="45.3436477" lon="10.6337691"><ele>120.80000000000001</ele><time>2026-03-28T09:27:14.576Z</time></trkpt><trkpt lat="45.3436817" lon="10.6336316"><ele>122.60000000000001</ele><time>2026-03-28T09:27:15.576Z</time></trkpt><trkpt lat="45.3437411" lon="10.6335041"><ele>124.4</ele><time>2026-03-28T09:27:16.576Z</time></trkpt><trkpt lat="45.3438085" lon="10.6333769"><ele>126.2</ele><time>2026-03-28T09:27:17.575Z</time></trkpt><trkpt lat="45.3438643" lon="10.6332535"><ele>128.0</ele><time>2026-03-28T09:27:18.577Z</time></trkpt><trkpt lat="45.3439017" lon="10.6331079"><ele>128.0</ele><time>2026-03-28T09:27:19.576Z</time></trkpt><trkpt lat="45.3439192" lon="10.6329396"><ele>128.0</ele><time>2026-03-28T09:27:20.575Z</time></trkpt><trkpt lat="45.3439189" lon="10.6327709"><ele>128.0</ele><time>2026-03-28T09:27:21.576Z</time></trkpt><trkpt lat="45.3439186" lon="10.6325886"><ele>128.0</ele><time>2026-03-28T09:27:22.577Z</time></trkpt><trkpt lat="45.3439277" lon="10.6323928"><ele>128.33333333333331</ele><time>2026-03-28T09:27:23.577Z</time></trkpt><trkpt lat="45.3439448" lon="10.6321749"><ele>128.66666666666666</ele><time>2026-03-28T09:27:24.577Z</time></trkpt><trkpt lat="45.3439723" lon="10.6319648"><ele>129.0</ele><time>2026-03-28T09:27:25.576Z</time></trkpt><trkpt lat="45.3440005" lon="10.6317483"><ele>130.0</ele><time>2026-03-28T09:27:26.577Z</time></trkpt><trkpt lat="45.3440332" lon="10.631527"><ele>131.0</ele><time>2026-03-28T09:27:27.578Z</time></trkpt><trkpt lat="45.3440488" lon="10.6313437"><ele>132.0</ele><time>2026-03-28T09:27:28.578Z</time></trkpt><trkpt lat="45.3440677" lon="10.6311647"><ele>133.0</ele><time>2026-03-28T09:27:29.576Z</time></trkpt><trkpt lat="45.3440954" lon="10.6309855"><ele>134.0</ele><time>2026-03-28T09:27:30.577Z</time></trkpt><trkpt lat="45.3441758" lon="10.6307622"><ele>135.0</ele><time>2026-03-28T09:27:31.577Z</time></trkpt><trkpt lat="45.344239" lon="10.6305524"><ele>136.0</ele><time>2026-03-28T09:27:32.578Z</time></trkpt><trkpt lat="45.3442955" lon="10.6303926"><ele>135.66666666666669</ele><time>2026-03-28T09:27:33.577Z</time></trkpt><trkpt lat="45.3443599" lon="10.630297"><ele>135.33333333333334</ele><time>2026-03-28T09:27:34.578Z</time></trkpt><trkpt lat="45.3444129" lon="10.6302035"><ele>135.0</ele><time>2026-03-28T09:27:35.577Z</time></trkpt><trkpt lat="45.3444477" lon="10.6301149"><ele>134.66666666666666</ele><time>2026-03-28T09:27:36.576Z</time></trkpt><trkpt lat="45.3444562" lon="10.6300195"><ele>134.33333333333331</ele><time>2026-03-28T09:27:37.578Z</time></trkpt><trkpt lat="45.3444137" lon="10.6298661"><ele>134.0</ele><time>2026-03-28T09:27:39.578Z</time></trkpt><trkpt lat="45.3442942" lon="10.6297856"><ele>134.0</ele><time>2026-03-28T09:27:41.578Z</time></trkpt><trkpt lat="45.3442126" lon="10.6297732"><ele>134.0</ele><time>2026-03-28T09:27:42.577Z</time></trkpt><trkpt lat="45.3441343" lon="10.6297775"><ele>134.0</ele><time>2026-03-28T09:27:43.576Z</time></trkpt><trkpt lat="45.3440659" lon="10.6298096"><ele>134.0</ele><time>2026-03-28T09:27:44.576Z</time></trkpt><trkpt lat="45.3439967" lon="10.6298817"><ele>134.0</ele><time>2026-03-28T09:27:45.578Z</time></trkpt><trkpt lat="45.343916" lon="10.6299885"><ele>134.0</ele><time>2026-03-28T09:27:46.578Z</time></trkpt><trkpt lat="45.3438125" lon="10.6301063"><ele>133.66666666666666</ele><time>2026-03-28T09:27:47.578Z</time></trkpt><trkpt lat="45.3437009" lon="10.6302123"><ele>133.33333333333334</ele><time>2026-03-28T09:27:48.577Z</time></trkpt><trkpt lat="45.3435558" lon="10.6303441"><ele>133.0</ele><time>2026-03-28T09:27:49.578Z</time></trkpt><trkpt lat="45.3434129" lon="10.6304743"><ele>133.0</ele><time>2026-03-28T09:27:50.577Z</time></trkpt><trkpt lat="45.3432627" lon="10.6306096"><ele>133.0</ele><time>2026-03-28T09:27:51.578Z</time></trkpt><trkpt lat="45.3431021" lon="10.6307511"><ele>133.0</ele><time>2026-03-28T09:27:52.577Z</time></trkpt><trkpt lat="45.3429327" lon="10.6309"><ele>132.66666666666669</ele><time>2026-03-28T09:27:53.578Z</time></trkpt><trkpt lat="45.3427632" lon="10.6310437"><ele>132.33333333333334</ele><time>2026-03-28T09:27:54.576Z</time></trkpt><trkpt lat="45.3426085" lon="10.631175"><ele>132.0</ele><time>2026-03-28T09:27:55.578Z</time></trkpt><trkpt lat="45.3424733" lon="10.6312916"><ele>132.0</ele><time>2026-03-28T09:27:56.577Z</time></trkpt><trkpt lat="45.342354" lon="10.6314003"><ele>132.0</ele><time>2026-03-28T09:27:57.577Z</time></trkpt><trkpt lat="45.3422477" lon="10.6315208"><ele>132.0</ele><time>2026-03-28T09:27:58.577Z</time></trkpt><trkpt lat="45.3421576" lon="10.6316687"><ele>132.0</ele><time>2026-03-28T09:27:59.578Z</time></trkpt><trkpt lat="45.342079" lon="10.6318421"><ele>130.0</ele><time>2026-03-28T09:28:00.578Z</time></trkpt><trkpt lat="45.3420022" lon="10.6320361"><ele>128.0</ele><time>2026-03-28T09:28:01.578Z</time></trkpt><trkpt lat="45.3419193" lon="10.6322416"><ele>126.0</ele><time>2026-03-28T09:28:02.577Z</time></trkpt><trkpt lat="45.3418218" lon="10.6324526"><ele>126.0</ele><time>2026-03-28T09:28:03.577Z</time></trkpt><trkpt lat="45.3417091" lon="10.6326531"><ele>126.0</ele><time>2026-03-28T09:28:04.578Z</time></trkpt><trkpt lat="45.3415982" lon="10.6328291"><ele>126.0</ele><time>2026-03-28T09:28:05.578Z</time></trkpt><trkpt lat="45.3414929" lon="10.6329807"><ele>125.5</ele><time>2026-03-28T09:28:06.578Z</time></trkpt><trkpt lat="45.3413898" lon="10.6331107"><ele>125.0</ele><time>2026-03-28T09:28:07.577Z</time></trkpt><trkpt lat="45.3412852" lon="10.6332176"><ele>124.5</ele><time>2026-03-28T09:28:08.577Z</time></trkpt><trkpt lat="45.3411749" lon="10.6332928"><ele>124.0</ele><time>2026-03-28T09:28:09.577Z</time></trkpt><trkpt lat="45.3410624" lon="10.6333614"><ele>124.0</ele><time>2026-03-28T09:28:10.576Z</time></trkpt><trkpt lat="45.3409635" lon="10.6334199"><ele>124.0</ele><time>2026-03-28T09:28:11.578Z</time></trkpt><trkpt lat="45.3408682" lon="10.6334673"><ele>124.0</ele><time>2026-03-28T09:28:12.578Z</time></trkpt><trkpt lat="45.340776" lon="10.6335081"><ele>124.0</ele><time>2026-03-28T09:28:13.577Z</time></trkpt><trkpt lat="45.3406841" lon="10.6335592"><ele>124.0</ele><time>2026-03-28T09:28:14.577Z</time></trkpt><trkpt lat="45.3405788" lon="10.6336194"><ele>123.75</ele><time>2026-03-28T09:28:15.576Z</time></trkpt><trkpt lat="45.3404608" lon="10.6336747"><ele>123.5</ele><time>2026-03-28T09:28:16.577Z</time></trkpt><trkpt lat="45.3403348" lon="10.6337203"><ele>123.25</ele><time>2026-03-28T09:28:17.578Z</time></trkpt><trkpt lat="45.3402024" lon="10.6337687"><ele>123.0</ele><time>2026-03-28T09:28:18.578Z</time></trkpt><trkpt lat="45.3400599" lon="10.633824"><ele>123.0</ele><time>2026-03-28T09:28:19.577Z</time></trkpt><trkpt lat="45.3399279" lon="10.6338737"><ele>123.0</ele><time>2026-03-28T09:28:20.576Z</time></trkpt><trkpt lat="45.339806" lon="10.6339219"><ele>123.0</ele><time>2026-03-28T09:28:21.577Z</time></trkpt><trkpt lat="45.3396919" lon="10.6339656"><ele>123.0</ele><time>2026-03-28T09:28:22.577Z</time></trkpt><trkpt lat="45.3395828" lon="10.6340085"><ele>122.2</ele><time>2026-03-28T09:28:23.578Z</time></trkpt><trkpt lat="45.3394679" lon="10.6340553"><ele>121.4</ele><time>2026-03-28T09:28:24.578Z</time></trkpt><trkpt lat="45.3393683" lon="10.6341029"><ele>120.60000000000001</ele><time>2026-03-28T09:28:25.577Z</time></trkpt><trkpt lat="45.3392914" lon="10.6341402"><ele>119.80000000000001</ele><time>2026-03-28T09:28:26.578Z</time></trkpt><trkpt lat="45.3392293" lon="10.6341623"><ele>119.0</ele><time>2026-03-28T09:28:27.577Z</time></trkpt><trkpt lat="45.339132" lon="10.6341174"><ele>119.0</ele><time>2026-03-28T09:28:29.578Z</time></trkpt><trkpt lat="45.3390784" lon="10.6340583"><ele>119.0</ele><time>2026-03-28T09:28:30.577Z</time></trkpt><trkpt lat="45.3389877" lon="10.6339772"><ele>119.0</ele><time>2026-03-28T09:28:32.576Z</time></trkpt><trkpt lat="45.3388755" lon="10.6340259"><ele>119.0</ele><time>2026-03-28T09:28:34.577Z</time></trkpt><trkpt lat="45.3388071" lon="10.6340819"><ele>119.0</ele><time>2026-03-28T09:28:35.578Z</time></trkpt><trkpt lat="45.3387264" lon="10.6341428"><ele>119.2</ele><time>2026-03-28T09:28:36.578Z</time></trkpt><trkpt lat="45.3386452" lon="10.6341986"><ele>119.4</ele><time>2026-03-28T09:28:37.578Z</time></trkpt><trkpt lat="45.3385508" lon="10.6342751"><ele>119.6</ele><time>2026-03-28T09:28:38.577Z</time></trkpt><trkpt lat="45.3384466" lon="10.6343616"><ele>119.8</ele><time>2026-03-28T09:28:39.576Z</time></trkpt><trkpt lat="45.3383416" lon="10.6344462"><ele>120.0</ele><time>2026-03-28T09:28:40.577Z</time></trkpt><trkpt lat="45.3382282" lon="10.6345535"><ele>120.0</ele><time>2026-03-28T09:28:41.577Z</time></trkpt><trkpt lat="45.3381106" lon="10.6346643"><ele>120.0</ele><time>2026-03-28T09:28:42.578Z</time></trkpt><trkpt lat="45.3380025" lon="10.6347661"><ele>120.0</ele><time>2026-03-28T09:28:43.578Z</time></trkpt><trkpt lat="45.3378963" lon="10.6348679"><ele>120.0</ele><time>2026-03-28T09:28:44.578Z</time></trkpt><trkpt lat="45.3377928" lon="10.6349652"><ele>118.4</ele><time>2026-03-28T09:28:45.577Z</time></trkpt><trkpt lat="45.3377021" lon="10.635056"><ele>116.8</ele><time>2026-03-28T09:28:46.578Z</time></trkpt><trkpt lat="45.3376299" lon="10.6351319"><ele>115.19999999999999</ele><time>2026-03-28T09:28:47.577Z</time></trkpt><trkpt lat="45.3375703" lon="10.6352005"><ele>113.6</ele><time>2026-03-28T09:28:48.577Z</time></trkpt><trkpt lat="45.3374984" lon="10.6352831"><ele>112.0</ele><time>2026-03-28T09:28:50.578Z</time></trkpt><trkpt lat="45.3374074" lon="10.6352896"><ele>112.00000000000001</ele><time>2026-03-28T09:28:52.577Z</time></trkpt><trkpt lat="45.3373242" lon="10.6352046"><ele>112.0</ele><time>2026-03-28T09:28:54.577Z</time></trkpt><trkpt lat="45.337269" lon="10.6351479"><ele>112.0</ele><time>2026-03-28T09:28:55.577Z</time></trkpt><trkpt lat="45.3372099" lon="10.6350921"><ele>112.0</ele><time>2026-03-28T09:28:56.577Z</time></trkpt><trkpt lat="45.3371376" lon="10.6350109"><ele>112.00000000000001</ele><time>2026-03-28T09:28:57.578Z</time></trkpt><trkpt lat="45.3370455" lon="10.6349356"><ele>112.0</ele><time>2026-03-28T09:28:58.578Z</time></trkpt><trkpt lat="45.3369453" lon="10.6348601"><ele>110.83333333333334</ele><time>2026-03-28T09:28:59.578Z</time></trkpt><trkpt lat="45.3368564" lon="10.634788"><ele>109.66666666666667</ele><time>2026-03-28T09:29:00.577Z</time></trkpt><trkpt lat="45.3367734" lon="10.6347018"><ele>108.5</ele><time>2026-03-28T09:29:01.578Z</time></trkpt><trkpt lat="45.3367047" lon="10.6346075"><ele>107.33333333333334</ele><time>2026-03-28T09:29:02.578Z</time></trkpt><trkpt lat="45.3366564" lon="10.6345226"><ele>106.16666666666667</ele><time>2026-03-28T09:29:03.577Z</time></trkpt><trkpt lat="45.3366231" lon="10.6344453"><ele>105.0</ele><time>2026-03-28T09:29:04.578Z</time></trkpt><trkpt lat="45.3365229" lon="10.6343626"><ele>104.5</ele><time>2026-03-28T09:29:06.578Z</time></trkpt><trkpt lat="45.3363796" lon="10.6343978"><ele>104.0</ele><time>2026-03-28T09:29:08.577Z</time></trkpt><trkpt lat="45.336282" lon="10.6344285"><ele>103.5</ele><time>2026-03-28T09:29:09.577Z</time></trkpt><trkpt lat="45.3361768" lon="10.6344733"><ele>103.0</ele><time>2026-03-28T09:29:10.578Z</time></trkpt><trkpt lat="45.3360802" lon="10.6345317"><ele>102.80000000000001</ele><time>2026-03-28T09:29:11.578Z</time></trkpt><trkpt lat="45.3359992" lon="10.6346082"><ele>102.6</ele><time>2026-03-28T09:29:12.578Z</time></trkpt><trkpt lat="45.3359348" lon="10.6347082"><ele>102.4</ele><time>2026-03-28T09:29:13.577Z</time></trkpt><trkpt lat="45.3358832" lon="10.6348075"><ele>102.19999999999999</ele><time>2026-03-28T09:29:14.577Z</time></trkpt><trkpt lat="45.3358233" lon="10.634918"><ele>102.0</ele><time>2026-03-28T09:29:15.577Z</time></trkpt><trkpt lat="45.3357568" lon="10.6350334"><ele>102.0</ele><time>2026-03-28T09:29:16.577Z</time></trkpt><trkpt lat="45.3356917" lon="10.635157"><ele>102.0</ele><time>2026-03-28T09:29:17.578Z</time></trkpt><trkpt lat="45.3356254" lon="10.6353051"><ele>102.0</ele><time>2026-03-28T09:29:18.578Z</time></trkpt><trkpt lat="45.3355586" lon="10.6354702"><ele>102.0</ele><time>2026-03-28T09:29:19.578Z</time></trkpt><trkpt lat="45.3354969" lon="10.6356217"><ele>101.0</ele><time>2026-03-28T09:29:20.578Z</time></trkpt><trkpt lat="45.335432" lon="10.6357601"><ele>100.0</ele><time>2026-03-28T09:29:21.576Z</time></trkpt><trkpt lat="45.3353669" lon="10.6358772"><ele>99.0</ele><time>2026-03-28T09:29:22.578Z</time></trkpt><trkpt lat="45.3352974" lon="10.6359712"><ele>98.0</ele><time>2026-03-28T09:29:23.578Z</time></trkpt><trkpt lat="45.3352208" lon="10.6360524"><ele>97.0</ele><time>2026-03-28T09:29:24.578Z</time></trkpt><trkpt lat="45.3351342" lon="10.636138"><ele>97.0</ele><time>2026-03-28T09:29:25.577Z</time></trkpt><trkpt lat="45.3350487" lon="10.636223"><ele>97.0</ele><time>2026-03-28T09:29:26.577Z</time></trkpt><trkpt lat="45.3349527" lon="10.6363124"><ele>97.0</ele><time>2026-03-28T09:29:27.578Z</time></trkpt><trkpt lat="45.3348518" lon="10.6364063"><ele>97.0</ele><time>2026-03-28T09:29:28.577Z</time></trkpt><trkpt lat="45.3347593" lon="10.6364927"><ele>97.0</ele><time>2026-03-28T09:29:29.577Z</time></trkpt><trkpt lat="45.3346697" lon="10.6365901"><ele>97.0</ele><time>2026-03-28T09:29:30.578Z</time></trkpt><trkpt lat="45.3346093" lon="10.6366854"><ele>97.0</ele><time>2026-03-28T09:29:31.578Z</time></trkpt><trkpt lat="45.3345443" lon="10.6367966"><ele>97.0</ele><time>2026-03-28T09:29:32.576Z</time></trkpt><trkpt lat="45.3344824" lon="10.6369152"><ele>97.0</ele><time>2026-03-28T09:29:33.576Z</time></trkpt><trkpt lat="45.3344193" lon="10.6370338"><ele>96.16666666666667</ele><time>2026-03-28T09:29:34.577Z</time></trkpt><trkpt lat="45.3343589" lon="10.6371393"><ele>95.33333333333334</ele><time>2026-03-28T09:29:35.578Z</time></trkpt><trkpt lat="45.3342987" lon="10.6372374"><ele>94.5</ele><time>2026-03-28T09:29:36.577Z</time></trkpt><trkpt lat="45.3342477" lon="10.6373197"><ele>93.66666666666667</ele><time>2026-03-28T09:29:37.577Z</time></trkpt><trkpt lat="45.3341817" lon="10.6373899"><ele>92.83333333333334</ele><time>2026-03-28T09:29:38.577Z</time></trkpt><trkpt lat="45.3340958" lon="10.6374534"><ele>92.0</ele><time>2026-03-28T09:29:39.578Z</time></trkpt><trkpt lat="45.3340095" lon="10.6375204"><ele>93.5</ele><time>2026-03-28T09:29:40.578Z</time></trkpt><trkpt lat="45.3338696" lon="10.637597"><ele>95.0</ele><time>2026-03-28T09:29:41.577Z</time></trkpt><trkpt lat="45.3337506" lon="10.6376615"><ele>96.5</ele><time>2026-03-28T09:29:42.577Z</time></trkpt><trkpt lat="45.3336355" lon="10.6377213"><ele>98.0</ele><time>2026-03-28T09:29:43.578Z</time></trkpt><trkpt lat="45.3335259" lon="10.6377701"><ele>97.80000000000001</ele><time>2026-03-28T09:29:44.578Z</time></trkpt><trkpt lat="45.3334135" lon="10.6378138"><ele>97.6</ele><time>2026-03-28T09:29:45.578Z</time></trkpt><trkpt lat="45.3333016" lon="10.6378726"><ele>97.4</ele><time>2026-03-28T09:29:46.577Z</time></trkpt><trkpt lat="45.333208" lon="10.6379443"><ele>97.19999999999999</ele><time>2026-03-28T09:29:47.577Z</time></trkpt><trkpt lat="45.3331186" lon="10.6380285"><ele>97.0</ele><time>2026-03-28T09:29:48.577Z</time></trkpt><trkpt lat="45.333034" lon="10.6381223"><ele>97.0</ele><time>2026-03-28T09:29:49.578Z</time></trkpt><trkpt lat="45.3329453" lon="10.6382297"><ele>97.0</ele><time>2026-03-28T09:29:50.577Z</time></trkpt><trkpt lat="45.3328544" lon="10.638328"><ele>97.0</ele><time>2026-03-28T09:29:51.577Z</time></trkpt><trkpt lat="45.3327662" lon="10.6384284"><ele>97.0</ele><time>2026-03-28T09:29:52.577Z</time></trkpt><trkpt lat="45.3326627" lon="10.6385274"><ele>97.0</ele><time>2026-03-28T09:29:53.578Z</time></trkpt><trkpt lat="45.3325671" lon="10.6386205"><ele>97.0</ele><time>2026-03-28T09:29:54.578Z</time></trkpt><trkpt lat="45.332464" lon="10.6387316"><ele>97.0</ele><time>2026-03-28T09:29:55.577Z</time></trkpt><trkpt lat="45.3323603" lon="10.6388016"><ele>97.0</ele><time>2026-03-28T09:29:56.578Z</time></trkpt><trkpt lat="45.332258" lon="10.6388723"><ele>94.39999999999999</ele><time>2026-03-28T09:29:57.578Z</time></trkpt><trkpt lat="45.3321604" lon="10.6389436"><ele>91.8</ele><time>2026-03-28T09:29:58.578Z</time></trkpt><trkpt lat="45.3320756" lon="10.6390317"><ele>89.2</ele><time>2026-03-28T09:29:59.578Z</time></trkpt><trkpt lat="45.3319998" lon="10.6391468"><ele>86.6</ele><time>2026-03-28T09:30:00.577Z</time></trkpt><trkpt lat="45.331921" lon="10.6392608"><ele>84.0</ele><time>2026-03-28T09:30:01.576Z</time></trkpt><trkpt lat="45.3318264" lon="10.6393595"><ele>84.0</ele><time>2026-03-28T09:30:02.578Z</time></trkpt><trkpt lat="45.331742" lon="10.6394399"><ele>84.0</ele><time>2026-03-28T09:30:03.578Z</time></trkpt><trkpt lat="45.3316809" lon="10.6395172"><ele>84.0</ele><time>2026-03-28T09:30:04.578Z</time></trkpt><trkpt lat="45.3316369" lon="10.6396209"><ele>84.0</ele><time>2026-03-28T09:30:05.578Z</time></trkpt><trkpt lat="45.331614" lon="10.6397282"><ele>84.0</ele><time>2026-03-28T09:30:06.576Z</time></trkpt><trkpt lat="45.3315743" lon="10.6398552"><ele>84.0</ele><time>2026-03-28T09:30:08.577Z</time></trkpt><trkpt lat="45.3314979" lon="10.6399069"><ele>84.0</ele><time>2026-03-28T09:30:10.577Z</time></trkpt><trkpt lat="45.3314113" lon="10.6398957"><ele>84.0</ele><time>2026-03-28T09:30:11.577Z</time></trkpt><trkpt lat="45.3312727" lon="10.6398919"><ele>84.0</ele><time>2026-03-28T09:30:12.577Z</time></trkpt><trkpt lat="45.3311033" lon="10.6398938"><ele>84.0</ele><time>2026-03-28T09:30:13.577Z</time></trkpt><trkpt lat="45.3309303" lon="10.6398888"><ele>85.0</ele><time>2026-03-28T09:30:14.578Z</time></trkpt><trkpt lat="45.3307475" lon="10.6398778"><ele>86.0</ele><time>2026-03-28T09:30:15.577Z</time></trkpt><trkpt lat="45.3305556" lon="10.6398416"><ele>87.0</ele><time>2026-03-28T09:30:16.577Z</time></trkpt><trkpt lat="45.3303705" lon="10.6397749"><ele>87.0</ele><time>2026-03-28T09:30:17.578Z</time></trkpt><trkpt lat="45.3302155" lon="10.6397094"><ele>87.0</ele><time>2026-03-28T09:30:18.577Z</time></trkpt><trkpt lat="45.3300773" lon="10.6396564"><ele>87.0</ele><time>2026-03-28T09:30:19.577Z</time></trkpt><trkpt lat="45.3299701" lon="10.6396204"><ele>87.0</ele><time>2026-03-28T09:30:20.577Z</time></trkpt><trkpt lat="45.3298825" lon="10.6396052"><ele>87.0</ele><time>2026-03-28T09:30:21.577Z</time></trkpt><trkpt lat="45.3297957" lon="10.6396194"><ele>87.0</ele><time>2026-03-28T09:30:22.577Z</time></trkpt><trkpt lat="45.3297176" lon="10.6396708"><ele>87.0</ele><time>2026-03-28T09:30:23.577Z</time></trkpt><trkpt lat="45.3296451" lon="10.6397414"><ele>87.0</ele><time>2026-03-28T09:30:24.578Z</time></trkpt><trkpt lat="45.3295815" lon="10.6398153"><ele>87.0</ele><time>2026-03-28T09:30:25.576Z</time></trkpt><trkpt lat="45.3295297" lon="10.6398885"><ele>87.0</ele><time>2026-03-28T09:30:26.577Z</time></trkpt><trkpt lat="45.3294591" lon="10.6400011"><ele>86.25</ele><time>2026-03-28T09:30:28.577Z</time></trkpt><trkpt lat="45.3294532" lon="10.6401618"><ele>85.5</ele><time>2026-03-28T09:30:30.577Z</time></trkpt><trkpt lat="45.3294746" lon="10.6403042"><ele>84.75</ele><time>2026-03-28T09:30:31.577Z</time></trkpt><trkpt lat="45.3295153" lon="10.6405275"><ele>84.0</ele><time>2026-03-28T09:30:32.577Z</time></trkpt><trkpt lat="45.3295634" lon="10.6407756"><ele>84.0</ele><time>2026-03-28T09:30:33.577Z</time></trkpt><trkpt lat="45.3295904" lon="10.6409959"><ele>84.0</ele><time>2026-03-28T09:30:34.577Z</time></trkpt><trkpt lat="45.3295883" lon="10.641209"><ele>84.0</ele><time>2026-03-28T09:30:35.578Z</time></trkpt><trkpt lat="45.3295365" lon="10.6414363"><ele>83.66666666666667</ele><time>2026-03-28T09:30:36.578Z</time></trkpt><trkpt lat="45.3294257" lon="10.6416606"><ele>83.33333333333334</ele><time>2026-03-28T09:30:37.577Z</time></trkpt><trkpt lat="45.3293226" lon="10.6418652"><ele>83.0</ele><time>2026-03-28T09:30:38.578Z</time></trkpt><trkpt lat="45.3292471" lon="10.6420769"><ele>82.66666666666667</ele><time>2026-03-28T09:30:39.577Z</time></trkpt><trkpt lat="45.3291974" lon="10.6422852"><ele>82.33333333333333</ele><time>2026-03-28T09:30:40.576Z</time></trkpt><trkpt lat="45.3291643" lon="10.6425525"><ele>82.0</ele><time>2026-03-28T09:30:41.578Z</time></trkpt><trkpt lat="45.3291363" lon="10.6428664"><ele>82.5</ele><time>2026-03-28T09:30:42.578Z</time></trkpt><trkpt lat="45.3291077" lon="10.6432276"><ele>83.0</ele><time>2026-03-28T09:30:43.577Z</time></trkpt><trkpt lat="45.3290856" lon="10.6436336"><ele>83.0</ele><time>2026-03-28T09:30:44.577Z</time></trkpt><trkpt lat="45.3290551" lon="10.6440702"><ele>83.0</ele><time>2026-03-28T09:30:45.578Z</time></trkpt><trkpt lat="45.3290357" lon="10.644503"><ele>84.0</ele><time>2026-03-28T09:30:46.578Z</time></trkpt><trkpt lat="45.3290201" lon="10.6448967"><ele>85.0</ele><time>2026-03-28T09:30:47.578Z</time></trkpt><trkpt lat="45.3290017" lon="10.6452306"><ele>85.66666666666666</ele><time>2026-03-28T09:30:48.577Z</time></trkpt><trkpt lat="45.3289827" lon="10.645517"><ele>86.33333333333333</ele><time>2026-03-28T09:30:49.577Z</time></trkpt><trkpt lat="45.3289594" lon="10.6457489"><ele>87.0</ele><time>2026-03-28T09:30:50.577Z</time></trkpt><trkpt lat="45.3289369" lon="10.6458992"><ele>87.0</ele><time>2026-03-28T09:30:51.577Z</time></trkpt><trkpt lat="45.3289214" lon="10.6460026"><ele>87.0</ele><time>2026-03-28T09:30:52.577Z</time></trkpt><trkpt lat="45.3288863" lon="10.6461697"><ele>87.0</ele><time>2026-03-28T09:30:54.578Z</time></trkpt><trkpt lat="45.3288327" lon="10.6463357"><ele>87.0</ele><time>2026-03-28T09:30:55.577Z</time></trkpt><trkpt lat="45.3287739" lon="10.6465115"><ele>88.0</ele><time>2026-03-28T09:30:56.576Z</time></trkpt><trkpt lat="45.3286451" lon="10.6468417"><ele>89.0</ele><time>2026-03-28T09:30:57.577Z</time></trkpt><trkpt lat="45.3285201" lon="10.6470999"><ele>89.0</ele><time>2026-03-28T09:30:58.578Z</time></trkpt><trkpt lat="45.328327" lon="10.6473609"><ele>89.0</ele><time>2026-03-28T09:30:59.577Z</time></trkpt><trkpt lat="45.3281222" lon="10.6476376"><ele>96.5</ele><time>2026-03-28T09:31:00.578Z</time></trkpt><trkpt lat="45.3279358" lon="10.6479535"><ele>104.0</ele><time>2026-03-28T09:31:01.577Z</time></trkpt><trkpt lat="45.3277654" lon="10.6482676"><ele>104.0</ele><time>2026-03-28T09:31:02.577Z</time></trkpt><trkpt lat="45.3276084" lon="10.6486054"><ele>104.0</ele><time>2026-03-28T09:31:03.577Z</time></trkpt><trkpt lat="45.3274707" lon="10.6489174"><ele>102.0</ele><time>2026-03-28T09:31:04.578Z</time></trkpt><trkpt lat="45.3273269" lon="10.6492343"><ele>100.0</ele><time>2026-03-28T09:31:05.578Z</time></trkpt><trkpt lat="45.3271778" lon="10.6495955"><ele>105.0</ele><time>2026-03-28T09:31:06.578Z</time></trkpt><trkpt lat="45.3270306" lon="10.649956"><ele>110.0</ele><time>2026-03-28T09:31:07.578Z</time></trkpt><trkpt lat="45.3268966" lon="10.6502774"><ele>108.0</ele><time>2026-03-28T09:31:08.577Z</time></trkpt><trkpt lat="45.3267742" lon="10.6505566"><ele>106.0</ele><time>2026-03-28T09:31:09.576Z</time></trkpt><trkpt lat="45.3266525" lon="10.6508008"><ele>104.0</ele><time>2026-03-28T09:31:10.578Z</time></trkpt><trkpt lat="45.3265197" lon="10.6510084"><ele>108.66666666666666</ele><time>2026-03-28T09:31:11.577Z</time></trkpt><trkpt lat="45.3263676" lon="10.6512182"><ele>113.33333333333334</ele><time>2026-03-28T09:31:12.577Z</time></trkpt><trkpt lat="45.3261834" lon="10.6514014"><ele>118.0</ele><time>2026-03-28T09:31:13.578Z</time></trkpt><trkpt lat="45.3259919" lon="10.6516324"><ele>118.0</ele><time>2026-03-28T09:31:14.578Z</time></trkpt><trkpt lat="45.325797" lon="10.6518743"><ele>118.0</ele><time>2026-03-28T09:31:15.576Z</time></trkpt><trkpt lat="45.3256271" lon="10.6520889"><ele>120.33333333333334</ele><time>2026-03-28T09:31:16.576Z</time></trkpt><trkpt lat="45.3254911" lon="10.6522786"><ele>122.66666666666666</ele><time>2026-03-28T09:31:17.576Z</time></trkpt><trkpt lat="45.3253749" lon="10.6524687"><ele>125.0</ele><time>2026-03-28T09:31:18.577Z</time></trkpt><trkpt lat="45.3252901" lon="10.6526651"><ele>124.0</ele><time>2026-03-28T09:31:19.576Z</time></trkpt><trkpt lat="45.325212" lon="10.6528839"><ele>123.0</ele><time>2026-03-28T09:31:20.577Z</time></trkpt><trkpt lat="45.325129" lon="10.653085"><ele>122.0</ele><time>2026-03-28T09:31:21.578Z</time></trkpt><trkpt lat="45.3250485" lon="10.6532532"><ele>122.0</ele><time>2026-03-28T09:31:22.577Z</time></trkpt><trkpt lat="45.3249593" lon="10.6534041"><ele>122.0</ele><time>2026-03-28T09:31:23.577Z</time></trkpt><trkpt lat="45.3248604" lon="10.653544"><ele>122.0</ele><time>2026-03-28T09:31:24.576Z</time></trkpt><trkpt lat="45.3247734" lon="10.6536656"><ele>122.0</ele><time>2026-03-28T09:31:25.578Z</time></trkpt><trkpt lat="45.3246994" lon="10.6537658"><ele>122.16666666666666</ele><time>2026-03-28T09:31:26.578Z</time></trkpt><trkpt lat="45.3246362" lon="10.6538432"><ele>122.33333333333333</ele><time>2026-03-28T09:31:27.578Z</time></trkpt><trkpt lat="45.3246018" lon="10.6539465"><ele>122.5</ele><time>2026-03-28T09:31:29.577Z</time></trkpt><trkpt lat="45.3246683" lon="10.6540008"><ele>122.66666666666666</ele><time>2026-03-28T09:31:32.577Z</time></trkpt><trkpt lat="45.3247767" lon="10.6540049"><ele>122.83333333333333</ele><time>2026-03-28T09:31:35.578Z</time></trkpt><trkpt lat="45.3248401" lon="10.6540193"><ele>123.0</ele><time>2026-03-28T09:31:36.577Z</time></trkpt><trkpt lat="45.3249215" lon="10.6540819"><ele>123.0</ele><time>2026-03-28T09:31:37.577Z</time></trkpt><trkpt lat="45.3250223" lon="10.6542012"><ele>123.0</ele><time>2026-03-28T09:31:38.578Z</time></trkpt><trkpt lat="45.3251393" lon="10.6543318"><ele>123.0</ele><time>2026-03-28T09:31:39.578Z</time></trkpt><trkpt lat="45.3252517" lon="10.6544648"><ele>123.0</ele><time>2026-03-28T09:31:40.577Z</time></trkpt><trkpt lat="45.3253602" lon="10.6545974"><ele>123.25</ele><time>2026-03-28T09:31:41.578Z</time></trkpt><trkpt lat="45.3253864" lon="10.6547835"><ele>123.5</ele><time>2026-03-28T09:31:42.577Z</time></trkpt><trkpt lat="45.3253978" lon="10.6549716"><ele>123.75</ele><time>2026-03-28T09:31:43.578Z</time></trkpt><trkpt lat="45.3253851" lon="10.655172"><ele>124.0</ele><time>2026-03-28T09:31:44.576Z</time></trkpt><trkpt lat="45.325347" lon="10.6553855"><ele>122.66666666666667</ele><time>2026-03-28T09:31:45.577Z</time></trkpt><trkpt lat="45.3252966" lon="10.6556136"><ele>121.33333333333334</ele><time>2026-03-28T09:31:46.577Z</time></trkpt><trkpt lat="45.325238" lon="10.6558479"><ele>120.0</ele><time>2026-03-28T09:31:47.577Z</time></trkpt><trkpt lat="45.3251866" lon="10.6560707"><ele>117.25</ele><time>2026-03-28T09:31:48.578Z</time></trkpt><trkpt lat="45.3251348" lon="10.6562812"><ele>114.5</ele><time>2026-03-28T09:31:49.578Z</time></trkpt><trkpt lat="45.3250904" lon="10.656484"><ele>111.75</ele><time>2026-03-28T09:31:50.578Z</time></trkpt><trkpt lat="45.3250498" lon="10.6566757"><ele>109.0</ele><time>2026-03-28T09:31:51.578Z</time></trkpt><trkpt lat="45.3250434" lon="10.6568649"><ele>107.66666666666667</ele><time>2026-03-28T09:31:52.577Z</time></trkpt><trkpt lat="45.3251248" lon="10.6571133"><ele>106.33333333333334</ele><time>2026-03-28T09:31:53.578Z</time></trkpt><trkpt lat="45.3251735" lon="10.6573371"><ele>105.0</ele><time>2026-03-28T09:31:54.578Z</time></trkpt><trkpt lat="45.3252083" lon="10.6575412"><ele>105.0</ele><time>2026-03-28T09:31:55.576Z</time></trkpt><trkpt lat="45.3252412" lon="10.6577335"><ele>105.0</ele><time>2026-03-28T09:31:56.578Z</time></trkpt><trkpt lat="45.3252705" lon="10.6579098"><ele>105.0</ele><time>2026-03-28T09:31:57.578Z</time></trkpt><trkpt lat="45.3252954" lon="10.6580645"><ele>105.0</ele><time>2026-03-28T09:31:58.578Z</time></trkpt><trkpt lat="45.3253161" lon="10.6581936"><ele>105.16666666666667</ele><time>2026-03-28T09:31:59.576Z</time></trkpt><trkpt lat="45.3253258" lon="10.6582859"><ele>105.33333333333334</ele><time>2026-03-28T09:32:00.577Z</time></trkpt><trkpt lat="45.3253455" lon="10.6583941"><ele>105.5</ele><time>2026-03-28T09:32:02.578Z</time></trkpt><trkpt lat="45.3253858" lon="10.6584963"><ele>105.66666666666667</ele><time>2026-03-28T09:32:05.576Z</time></trkpt><trkpt lat="45.325479" lon="10.6585218"><ele>105.83333333333334</ele><time>2026-03-28T09:32:07.577Z</time></trkpt><trkpt lat="45.3255693" lon="10.6584865"><ele>106.0</ele><time>2026-03-28T09:32:08.576Z</time></trkpt><trkpt lat="45.3256796" lon="10.6584499"><ele>105.25</ele><time>2026-03-28T09:32:09.578Z</time></trkpt><trkpt lat="45.3258159" lon="10.6584029"><ele>104.5</ele><time>2026-03-28T09:32:10.578Z</time></trkpt><trkpt lat="45.3259451" lon="10.6583628"><ele>103.75</ele><time>2026-03-28T09:32:11.577Z</time></trkpt><trkpt lat="45.3260692" lon="10.6583269"><ele>103.0</ele><time>2026-03-28T09:32:12.577Z</time></trkpt><trkpt lat="45.3261885" lon="10.6582941"><ele>103.0</ele><time>2026-03-28T09:32:13.577Z</time></trkpt><trkpt lat="45.326304" lon="10.6582648"><ele>103.0</ele><time>2026-03-28T09:32:14.577Z</time></trkpt><trkpt lat="45.3264099" lon="10.6582387"><ele>103.0</ele><time>2026-03-28T09:32:15.578Z</time></trkpt><trkpt lat="45.3265049" lon="10.6582088"><ele>103.0</ele><time>2026-03-28T09:32:16.578Z</time></trkpt><trkpt lat="45.3265877" lon="10.6581974"><ele>103.0</ele><time>2026-03-28T09:32:17.577Z</time></trkpt><trkpt lat="45.3266606" lon="10.6582172"><ele>102.60000000000001</ele><time>2026-03-28T09:32:18.577Z</time></trkpt><trkpt lat="45.3267144" lon="10.6582809"><ele>102.2</ele><time>2026-03-28T09:32:19.576Z</time></trkpt><trkpt lat="45.3267615" lon="10.658388"><ele>101.8</ele><time>2026-03-28T09:32:20.577Z</time></trkpt><trkpt lat="45.3267896" lon="10.6585379"><ele>101.4</ele><time>2026-03-28T09:32:21.577Z</time></trkpt><trkpt lat="45.3268044" lon="10.6587196"><ele>101.0</ele><time>2026-03-28T09:32:22.578Z</time></trkpt><trkpt lat="45.326801" lon="10.6589315"><ele>100.0</ele><time>2026-03-28T09:32:23.578Z</time></trkpt><trkpt lat="45.3267706" lon="10.6591577"><ele>99.0</ele><time>2026-03-28T09:32:24.578Z</time></trkpt><trkpt lat="45.3267379" lon="10.6593678"><ele>98.0</ele><time>2026-03-28T09:32:25.578Z</time></trkpt><trkpt lat="45.3267136" lon="10.6595334"><ele>97.0</ele><time>2026-03-28T09:32:26.578Z</time></trkpt><trkpt lat="45.3266786" lon="10.6596758"><ele>96.5</ele><time>2026-03-28T09:32:27.577Z</time></trkpt><trkpt lat="45.3266545" lon="10.6598104"><ele>96.0</ele><time>2026-03-28T09:32:28.577Z</time></trkpt><trkpt lat="45.3266696" lon="10.6599714"><ele>95.5</ele><time>2026-03-28T09:32:29.578Z</time></trkpt><trkpt lat="45.3267033" lon="10.6601926"><ele>95.0</ele><time>2026-03-28T09:32:30.577Z</time></trkpt><trkpt lat="45.3267462" lon="10.6604799"><ele>94.0</ele><time>2026-03-28T09:32:31.577Z</time></trkpt><trkpt lat="45.3267882" lon="10.6607642"><ele>93.0</ele><time>2026-03-28T09:32:32.578Z</time></trkpt><trkpt lat="45.3268255" lon="10.6610361"><ele>92.0</ele><time>2026-03-28T09:32:33.578Z</time></trkpt><trkpt lat="45.3268438" lon="10.661306"><ele>91.0</ele><time>2026-03-28T09:32:34.577Z</time></trkpt><trkpt lat="45.3268471" lon="10.6615684"><ele>90.0</ele><time>2026-03-28T09:32:35.577Z</time></trkpt><trkpt lat="45.326842" lon="10.6618213"><ele>89.0</ele><time>2026-03-28T09:32:36.577Z</time></trkpt><trkpt lat="45.3268266" lon="10.6620435"><ele>89.0</ele><time>2026-03-28T09:32:37.578Z</time></trkpt><trkpt lat="45.3268019" lon="10.6622371"><ele>89.0</ele><time>2026-03-28T09:32:38.577Z</time></trkpt><trkpt lat="45.3267784" lon="10.6623796"><ele>89.0</ele><time>2026-03-28T09:32:39.578Z</time></trkpt><trkpt lat="45.3267486" lon="10.662495"><ele>89.0</ele><time>2026-03-28T09:32:40.577Z</time></trkpt><trkpt lat="45.3267179" lon="10.6625958"><ele>89.0</ele><time>2026-03-28T09:32:41.577Z</time></trkpt><trkpt lat="45.3267274" lon="10.6626974"><ele>88.75</ele><time>2026-03-28T09:32:42.578Z</time></trkpt><trkpt lat="45.3267835" lon="10.6627851"><ele>88.5</ele><time>2026-03-28T09:32:43.577Z</time></trkpt><trkpt lat="45.3268888" lon="10.6628743"><ele>88.25</ele><time>2026-03-28T09:32:44.577Z</time></trkpt><trkpt lat="45.3270104" lon="10.6630001"><ele>88.0</ele><time>2026-03-28T09:32:45.578Z</time></trkpt><trkpt lat="45.3271425" lon="10.6631171"><ele>88.33333333333333</ele><time>2026-03-28T09:32:46.577Z</time></trkpt><trkpt lat="45.3272968" lon="10.6632261"><ele>88.66666666666667</ele><time>2026-03-28T09:32:47.577Z</time></trkpt><trkpt lat="45.3274682" lon="10.6633428"><ele>89.0</ele><time>2026-03-28T09:32:48.577Z</time></trkpt><trkpt lat="45.3276486" lon="10.6635069"><ele>88.0</ele><time>2026-03-28T09:32:49.578Z</time></trkpt><trkpt lat="45.3278399" lon="10.6636855"><ele>87.0</ele><time>2026-03-28T09:32:50.577Z</time></trkpt><trkpt lat="45.3280582" lon="10.6638573"><ele>86.5</ele><time>2026-03-28T09:32:51.577Z</time></trkpt><trkpt lat="45.328309" lon="10.6640218"><ele>86.0</ele><time>2026-03-28T09:32:52.577Z</time></trkpt><trkpt lat="45.32858" lon="10.6641738"><ele>86.0</ele><time>2026-03-28T09:32:53.578Z</time></trkpt><trkpt lat="45.3288233" lon="10.6642994"><ele>86.0</ele><time>2026-03-28T09:32:54.577Z</time></trkpt><trkpt lat="45.3290451" lon="10.6644223"><ele>87.33333333333334</ele><time>2026-03-28T09:32:55.578Z</time></trkpt><trkpt lat="45.3292408" lon="10.6645587"><ele>88.66666666666667</ele><time>2026-03-28T09:32:56.578Z</time></trkpt><trkpt lat="45.3294047" lon="10.6647284"><ele>90.0</ele><time>2026-03-28T09:32:57.578Z</time></trkpt><trkpt lat="45.3295458" lon="10.6649322"><ele>90.0</ele><time>2026-03-28T09:32:58.578Z</time></trkpt><trkpt lat="45.3296836" lon="10.6651589"><ele>90.0</ele><time>2026-03-28T09:32:59.577Z</time></trkpt><trkpt lat="45.3298244" lon="10.6653879"><ele>90.0</ele><time>2026-03-28T09:33:00.577Z</time></trkpt><trkpt lat="45.3299585" lon="10.6656088"><ele>90.33333333333333</ele><time>2026-03-28T09:33:01.577Z</time></trkpt><trkpt lat="45.3300815" lon="10.6658307"><ele>90.66666666666666</ele><time>2026-03-28T09:33:02.578Z</time></trkpt><trkpt lat="45.3302074" lon="10.6660888"><ele>91.0</ele><time>2026-03-28T09:33:03.578Z</time></trkpt><trkpt lat="45.3303397" lon="10.6663876"><ele>91.0</ele><time>2026-03-28T09:33:04.577Z</time></trkpt><trkpt lat="45.3304586" lon="10.6667135"><ele>91.0</ele><time>2026-03-28T09:33:05.578Z</time></trkpt><trkpt lat="45.3305697" lon="10.6670714"><ele>91.0</ele><time>2026-03-28T09:33:06.578Z</time></trkpt><trkpt lat="45.3306882" lon="10.6674405"><ele>91.0</ele><time>2026-03-28T09:33:07.577Z</time></trkpt><trkpt lat="45.3308014" lon="10.6677704"><ele>91.5</ele><time>2026-03-28T09:33:08.577Z</time></trkpt><trkpt lat="45.3309096" lon="10.6680813"><ele>92.0</ele><time>2026-03-28T09:33:09.577Z</time></trkpt><trkpt lat="45.3310061" lon="10.6683496"><ele>92.0</ele><time>2026-03-28T09:33:10.576Z</time></trkpt><trkpt lat="45.3311007" lon="10.6685908"><ele>92.0</ele><time>2026-03-28T09:33:11.577Z</time></trkpt><trkpt lat="45.3312098" lon="10.6688043"><ele>92.0</ele><time>2026-03-28T09:33:12.578Z</time></trkpt><trkpt lat="45.3313268" lon="10.6689977"><ele>91.33333333333334</ele><time>2026-03-28T09:33:13.578Z</time></trkpt><trkpt lat="45.3314656" lon="10.6691724"><ele>90.66666666666667</ele><time>2026-03-28T09:33:14.576Z</time></trkpt><trkpt lat="45.3316521" lon="10.6693245"><ele>90.0</ele><time>2026-03-28T09:33:15.577Z</time></trkpt><trkpt lat="45.3318771" lon="10.6694704"><ele>89.5</ele><time>2026-03-28T09:33:16.577Z</time></trkpt><trkpt lat="45.3321352" lon="10.6696103"><ele>89.0</ele><time>2026-03-28T09:33:17.578Z</time></trkpt><trkpt lat="45.3324036" lon="10.6697555"><ele>88.0</ele><time>2026-03-28T09:33:18.578Z</time></trkpt><trkpt lat="45.332647" lon="10.6698801"><ele>87.0</ele><time>2026-03-28T09:33:19.577Z</time></trkpt><trkpt lat="45.3328794" lon="10.6699992"><ele>87.0</ele><time>2026-03-28T09:33:20.578Z</time></trkpt><trkpt lat="45.3330931" lon="10.6701212"><ele>87.0</ele><time>2026-03-28T09:33:21.577Z</time></trkpt><trkpt lat="45.3332875" lon="10.6702475"><ele>87.0</ele><time>2026-03-28T09:33:22.577Z</time></trkpt><trkpt lat="45.333464" lon="10.6703824"><ele>86.33333333333333</ele><time>2026-03-28T09:33:23.577Z</time></trkpt><trkpt lat="45.3336157" lon="10.670519"><ele>85.66666666666666</ele><time>2026-03-28T09:33:24.577Z</time></trkpt><trkpt lat="45.3337498" lon="10.6706497"><ele>85.0</ele><time>2026-03-28T09:33:25.577Z</time></trkpt><trkpt lat="45.333861" lon="10.6707608"><ele>84.6</ele><time>2026-03-28T09:33:26.578Z</time></trkpt><trkpt lat="45.3339417" lon="10.6708546"><ele>84.2</ele><time>2026-03-28T09:33:27.577Z</time></trkpt><trkpt lat="45.3339558" lon="10.6709942"><ele>83.80000000000001</ele><time>2026-03-28T09:33:29.576Z</time></trkpt><trkpt lat="45.3338845" lon="10.6711654"><ele>83.4</ele><time>2026-03-28T09:33:31.578Z</time></trkpt><trkpt lat="45.3338347" lon="10.6712816"><ele>83.0</ele><time>2026-03-28T09:33:32.578Z</time></trkpt><trkpt lat="45.3337781" lon="10.6714099"><ele>83.0</ele><time>2026-03-28T09:33:33.577Z</time></trkpt><trkpt lat="45.333714" lon="10.671548"><ele>83.0</ele><time>2026-03-28T09:33:34.577Z</time></trkpt><trkpt lat="45.3336418" lon="10.6716896"><ele>83.0</ele><time>2026-03-28T09:33:35.577Z</time></trkpt><trkpt lat="45.3335671" lon="10.6718407"><ele>83.0</ele><time>2026-03-28T09:33:36.578Z</time></trkpt><trkpt lat="45.3334903" lon="10.6719801"><ele>82.4</ele><time>2026-03-28T09:33:37.577Z</time></trkpt><trkpt lat="45.3334159" lon="10.6721096"><ele>81.80000000000001</ele><time>2026-03-28T09:33:38.577Z</time></trkpt><trkpt lat="45.3333532" lon="10.6722288"><ele>81.2</ele><time>2026-03-28T09:33:39.577Z</time></trkpt><trkpt lat="45.333302" lon="10.6723456"><ele>80.6</ele><time>2026-03-28T09:33:40.577Z</time></trkpt><trkpt lat="45.3332734" lon="10.6724635"><ele>80.0</ele><time>2026-03-28T09:33:41.577Z</time></trkpt><trkpt lat="45.3332649" lon="10.6725768"><ele>80.0</ele><time>2026-03-28T09:33:42.577Z</time></trkpt><trkpt lat="45.3332642" lon="10.6726829"><ele>80.0</ele><time>2026-03-28T09:33:43.577Z</time></trkpt><trkpt lat="45.3332699" lon="10.6727892"><ele>80.0</ele><time>2026-03-28T09:33:44.577Z</time></trkpt><trkpt lat="45.3332728" lon="10.6729114"><ele>80.0</ele><time>2026-03-28T09:33:45.578Z</time></trkpt><trkpt lat="45.3332776" lon="10.6730144"><ele>80.0</ele><time>2026-03-28T09:33:46.577Z</time></trkpt><trkpt lat="45.3333198" lon="10.6731662"><ele>80.0</ele><time>2026-03-28T09:33:48.578Z</time></trkpt><trkpt lat="45.3333593" lon="10.6732635"><ele>80.0</ele><time>2026-03-28T09:33:49.578Z</time></trkpt><trkpt lat="45.333406" lon="10.6734053"><ele>80.0</ele><time>2026-03-28T09:33:50.578Z</time></trkpt><trkpt lat="45.3334562" lon="10.673574"><ele>80.0</ele><time>2026-03-28T09:33:51.578Z</time></trkpt><trkpt lat="45.3335001" lon="10.6737244"><ele>80.0</ele><time>2026-03-28T09:33:52.578Z</time></trkpt><trkpt lat="45.333531" lon="10.6738276"><ele>80.0</ele><time>2026-03-28T09:33:53.578Z</time></trkpt><trkpt lat="45.3335507" lon="10.6739166"><ele>80.4</ele><time>2026-03-28T09:33:54.577Z</time></trkpt><trkpt lat="45.3335682" lon="10.6740116"><ele>80.8</ele><time>2026-03-28T09:33:55.577Z</time></trkpt><trkpt lat="45.3335206" lon="10.6741154"><ele>81.19999999999999</ele><time>2026-03-28T09:33:56.578Z</time></trkpt><trkpt lat="45.333432" lon="10.6743443"><ele>81.6</ele><time>2026-03-28T09:33:57.577Z</time></trkpt><trkpt lat="45.3334078" lon="10.6744871"><ele>82.0</ele><time>2026-03-28T09:33:58.576Z</time></trkpt><trkpt lat="45.3334001" lon="10.6746187"><ele>82.0</ele><time>2026-03-28T09:33:59.578Z</time></trkpt><trkpt lat="45.3334226" lon="10.6747675"><ele>82.0</ele><time>2026-03-28T09:34:00.577Z</time></trkpt><trkpt lat="45.3334772" lon="10.6749128"><ele>82.0</ele><time>2026-03-28T09:34:01.577Z</time></trkpt><trkpt lat="45.3335405" lon="10.6750631"><ele>82.0</ele><time>2026-03-28T09:34:02.578Z</time></trkpt><trkpt lat="45.3335879" lon="10.6751877"><ele>82.0</ele><time>2026-03-28T09:34:03.578Z</time></trkpt><trkpt lat="45.3336329" lon="10.6753006"><ele>82.0</ele><time>2026-03-28T09:34:04.578Z</time></trkpt><trkpt lat="45.3336776" lon="10.675394"><ele>82.0</ele><time>2026-03-28T09:34:05.578Z</time></trkpt><trkpt lat="45.3337268" lon="10.6754616"><ele>82.0</ele><time>2026-03-28T09:34:06.576Z</time></trkpt><trkpt lat="45.3337949" lon="10.6755114"><ele>82.0</ele><time>2026-03-28T09:34:07.577Z</time></trkpt><trkpt lat="45.3338561" lon="10.6755504"><ele>82.0</ele><time>2026-03-28T09:34:08.577Z</time></trkpt><trkpt lat="45.3338931" lon="10.6757243"><ele>82.0</ele><time>2026-03-28T09:34:10.577Z</time></trkpt><trkpt lat="45.3338928" lon="10.6758673"><ele>82.0</ele><time>2026-03-28T09:34:11.577Z</time></trkpt><trkpt lat="45.3338876" lon="10.6760191"><ele>82.0</ele><time>2026-03-28T09:34:12.577Z</time></trkpt><trkpt lat="45.3338888" lon="10.6761848"><ele>82.0</ele><time>2026-03-28T09:34:13.578Z</time></trkpt><trkpt lat="45.3338972" lon="10.6763587"><ele>82.0</ele><time>2026-03-28T09:34:14.578Z</time></trkpt><trkpt lat="45.3339252" lon="10.6765546"><ele>83.0</ele><time>2026-03-28T09:34:15.577Z</time></trkpt><trkpt lat="45.3339478" lon="10.6767587"><ele>84.0</ele><time>2026-03-28T09:34:16.578Z</time></trkpt><trkpt lat="45.3339714" lon="10.6769456"><ele>85.0</ele><time>2026-03-28T09:34:17.577Z</time></trkpt><trkpt lat="45.3340001" lon="10.677111"><ele>86.0</ele><time>2026-03-28T09:34:18.576Z</time></trkpt><trkpt lat="45.3340197" lon="10.6772452"><ele>86.4</ele><time>2026-03-28T09:34:19.578Z</time></trkpt><trkpt lat="45.3340445" lon="10.6773678"><ele>86.8</ele><time>2026-03-28T09:34:20.577Z</time></trkpt><trkpt lat="45.3340746" lon="10.6774911"><ele>87.2</ele><time>2026-03-28T09:34:21.578Z</time></trkpt><trkpt lat="45.3341106" lon="10.677616"><ele>87.60000000000001</ele><time>2026-03-28T09:34:22.577Z</time></trkpt><trkpt lat="45.3341683" lon="10.6777506"><ele>88.0</ele><time>2026-03-28T09:34:23.576Z</time></trkpt><trkpt lat="45.334219" lon="10.6778566"><ele>88.33333333333333</ele><time>2026-03-28T09:34:24.577Z</time></trkpt><trkpt lat="45.3342382" lon="10.6779566"><ele>88.66666666666666</ele><time>2026-03-28T09:34:25.578Z</time></trkpt><trkpt lat="45.3342707" lon="10.6780682"><ele>89.0</ele><time>2026-03-28T09:34:26.576Z</time></trkpt><trkpt lat="45.3343059" lon="10.6781676"><ele>89.33333333333333</ele><time>2026-03-28T09:34:27.576Z</time></trkpt><trkpt lat="45.3343684" lon="10.6783251"><ele>89.66666666666667</ele><time>2026-03-28T09:34:29.577Z</time></trkpt><trkpt lat="45.3344147" lon="10.6784146"><ele>90.0</ele><time>2026-03-28T09:34:30.576Z</time></trkpt><trkpt lat="45.3344679" lon="10.6785003"><ele>90.0</ele><time>2026-03-28T09:34:31.578Z</time></trkpt><trkpt lat="45.3345265" lon="10.678568"><ele>90.0</ele><time>2026-03-28T09:34:32.577Z</time></trkpt><trkpt lat="45.3345878" lon="10.6786325"><ele>90.0</ele><time>2026-03-28T09:34:33.576Z</time></trkpt><trkpt lat="45.3346514" lon="10.6786779"><ele>90.0</ele><time>2026-03-28T09:34:34.578Z</time></trkpt><trkpt lat="45.3347748" lon="10.6786863"><ele>90.0</ele><time>2026-03-28T09:34:36.578Z</time></trkpt><trkpt lat="45.3349019" lon="10.6786169"><ele>90.5</ele><time>2026-03-28T09:34:38.578Z</time></trkpt><trkpt lat="45.334985" lon="10.6785512"><ele>91.0</ele><time>2026-03-28T09:34:39.578Z</time></trkpt><trkpt lat="45.3350722" lon="10.6784762"><ele>91.5</ele><time>2026-03-28T09:34:40.576Z</time></trkpt><trkpt lat="45.3351474" lon="10.6784207"><ele>92.0</ele><time>2026-03-28T09:34:41.577Z</time></trkpt><trkpt lat="45.3352175" lon="10.6783864"><ele>92.5</ele><time>2026-03-28T09:34:42.578Z</time></trkpt><trkpt lat="45.3352868" lon="10.6783704"><ele>93.0</ele><time>2026-03-28T09:34:43.578Z</time></trkpt><trkpt lat="45.3353548" lon="10.6783994"><ele>93.0</ele><time>2026-03-28T09:34:44.578Z</time></trkpt><trkpt lat="45.3354148" lon="10.6784605"><ele>93.0</ele><time>2026-03-28T09:34:45.577Z</time></trkpt><trkpt lat="45.3354927" lon="10.6785569"><ele>93.0</ele><time>2026-03-28T09:34:46.577Z</time></trkpt><trkpt lat="45.335584" lon="10.6786843"><ele>93.0</ele><time>2026-03-28T09:34:47.577Z</time></trkpt><trkpt lat="45.3356667" lon="10.6788306"><ele>93.0</ele><time>2026-03-28T09:34:48.576Z</time></trkpt><trkpt lat="45.3357561" lon="10.6789737"><ele>91.0</ele><time>2026-03-28T09:34:49.578Z</time></trkpt><trkpt lat="45.3358451" lon="10.6791166"><ele>89.0</ele><time>2026-03-28T09:34:50.578Z</time></trkpt><trkpt lat="45.3359256" lon="10.679251"><ele>87.0</ele><time>2026-03-28T09:34:51.578Z</time></trkpt><trkpt lat="45.3360077" lon="10.6793882"><ele>85.0</ele><time>2026-03-28T09:34:52.577Z</time></trkpt><trkpt lat="45.3360916" lon="10.6795276"><ele>85.0</ele><time>2026-03-28T09:34:53.578Z</time></trkpt><trkpt lat="45.3362096" lon="10.6796996"><ele>85.0</ele><time>2026-03-28T09:34:54.577Z</time></trkpt><trkpt lat="45.336317" lon="10.67987"><ele>85.0</ele><time>2026-03-28T09:34:55.576Z</time></trkpt><trkpt lat="45.3364082" lon="10.6800119"><ele>85.0</ele><time>2026-03-28T09:34:56.577Z</time></trkpt><trkpt lat="45.3364759" lon="10.6801209"><ele>85.0</ele><time>2026-03-28T09:34:57.577Z</time></trkpt><trkpt lat="45.3365259" lon="10.6802044"><ele>85.0</ele><time>2026-03-28T09:34:58.578Z</time></trkpt><trkpt lat="45.3365801" lon="10.680289"><ele>85.0</ele><time>2026-03-28T09:34:59.578Z</time></trkpt><trkpt lat="45.3366349" lon="10.6803755"><ele>85.0</ele><time>2026-03-28T09:35:00.578Z</time></trkpt><trkpt lat="45.3367061" lon="10.680468"><ele>85.0</ele><time>2026-03-28T09:35:02.578Z</time></trkpt><trkpt lat="45.3367947" lon="10.6804427"><ele>85.0</ele><time>2026-03-28T09:35:05.578Z</time></trkpt><trkpt lat="45.3368477" lon="10.6803765"><ele>85.0</ele><time>2026-03-28T09:35:06.578Z</time></trkpt><trkpt lat="45.3369346" lon="10.6802631"><ele>85.0</ele><time>2026-03-28T09:35:07.578Z</time></trkpt><trkpt lat="45.3370323" lon="10.6801263"><ele>85.0</ele><time>2026-03-28T09:35:08.578Z</time></trkpt><trkpt lat="45.3371572" lon="10.6799437"><ele>86.0</ele><time>2026-03-28T09:35:09.577Z</time></trkpt><trkpt lat="45.3372969" lon="10.6797542"><ele>87.0</ele><time>2026-03-28T09:35:10.577Z</time></trkpt><trkpt lat="45.3374492" lon="10.6795493"><ele>88.0</ele><time>2026-03-28T09:35:11.578Z</time></trkpt><trkpt lat="45.3375969" lon="10.679364"><ele>88.0</ele><time>2026-03-28T09:35:12.578Z</time></trkpt><trkpt lat="45.337786" lon="10.6791626"><ele>88.0</ele><time>2026-03-28T09:35:13.577Z</time></trkpt><trkpt lat="45.3379819" lon="10.6789815"><ele>88.0</ele><time>2026-03-28T09:35:14.578Z</time></trkpt><trkpt lat="45.3381449" lon="10.6788307"><ele>88.0</ele><time>2026-03-28T09:35:15.578Z</time></trkpt><trkpt lat="45.3382761" lon="10.6787087"><ele>88.0</ele><time>2026-03-28T09:35:16.578Z</time></trkpt><trkpt lat="45.3383828" lon="10.6786096"><ele>88.0</ele><time>2026-03-28T09:35:17.576Z</time></trkpt><trkpt lat="45.3384627" lon="10.6785439"><ele>88.0</ele><time>2026-03-28T09:35:18.577Z</time></trkpt><trkpt lat="45.3385477" lon="10.6785656"><ele>88.0</ele><time>2026-03-28T09:35:20.577Z</time></trkpt><trkpt lat="45.3386162" lon="10.6787216"><ele>88.0</ele><time>2026-03-28T09:35:22.578Z</time></trkpt><trkpt lat="45.338656" lon="10.6788526"><ele>88.0</ele><time>2026-03-28T09:35:23.577Z</time></trkpt><trkpt lat="45.3387183" lon="10.6789787"><ele>88.0</ele><time>2026-03-28T09:35:24.576Z</time></trkpt><trkpt lat="45.3387821" lon="10.6791141"><ele>88.0</ele><time>2026-03-28T09:35:25.577Z</time></trkpt><trkpt lat="45.338858" lon="10.6792658"><ele>88.0</ele><time>2026-03-28T09:35:26.578Z</time></trkpt><trkpt lat="45.3389212" lon="10.6794095"><ele>88.0</ele><time>2026-03-28T09:35:27.578Z</time></trkpt><trkpt lat="45.3389872" lon="10.6795486"><ele>88.4</ele><time>2026-03-28T09:35:28.578Z</time></trkpt><trkpt lat="45.3390492" lon="10.6797011"><ele>88.80000000000001</ele><time>2026-03-28T09:35:29.578Z</time></trkpt><trkpt lat="45.3391065" lon="10.6798438"><ele>89.2</ele><time>2026-03-28T09:35:30.577Z</time></trkpt><trkpt lat="45.339158" lon="10.6799695"><ele>89.6</ele><time>2026-03-28T09:35:31.576Z</time></trkpt><trkpt lat="45.3392053" lon="10.6800848"><ele>90.0</ele><time>2026-03-28T09:35:32.577Z</time></trkpt><trkpt lat="45.3392587" lon="10.680212"><ele>90.0</ele><time>2026-03-28T09:35:33.576Z</time></trkpt><trkpt lat="45.3393058" lon="10.6803287"><ele>90.0</ele><time>2026-03-28T09:35:34.576Z</time></trkpt><trkpt lat="45.3393634" lon="10.6804679"><ele>90.0</ele><time>2026-03-28T09:35:35.577Z</time></trkpt><trkpt lat="45.3394316" lon="10.6806281"><ele>90.0</ele><time>2026-03-28T09:35:36.577Z</time></trkpt><trkpt lat="45.3395044" lon="10.6808112"><ele>90.0</ele><time>2026-03-28T09:35:37.576Z</time></trkpt><trkpt lat="45.3395809" lon="10.6809931"><ele>90.0</ele><time>2026-03-28T09:35:38.577Z</time></trkpt><trkpt lat="45.3396664" lon="10.6811961"><ele>90.0</ele><time>2026-03-28T09:35:39.577Z</time></trkpt><trkpt lat="45.3397637" lon="10.6814104"><ele>90.33333333333333</ele><time>2026-03-28T09:35:40.577Z</time></trkpt><trkpt lat="45.3398628" lon="10.6816363"><ele>90.66666666666666</ele><time>2026-03-28T09:35:41.578Z</time></trkpt><trkpt lat="45.3399364" lon="10.6818311"><ele>91.0</ele><time>2026-03-28T09:35:42.578Z</time></trkpt><trkpt lat="45.3399851" lon="10.6819784"><ele>91.0</ele><time>2026-03-28T09:35:43.578Z</time></trkpt><trkpt lat="45.3399992" lon="10.6821246"><ele>91.0</ele><time>2026-03-28T09:35:44.577Z</time></trkpt><trkpt lat="45.3399953" lon="10.6822908"><ele>91.0</ele><time>2026-03-28T09:35:45.577Z</time></trkpt><trkpt lat="45.3400021" lon="10.6824633"><ele>91.0</ele><time>2026-03-28T09:35:46.577Z</time></trkpt><trkpt lat="45.3400234" lon="10.6826579"><ele>91.33333333333333</ele><time>2026-03-28T09:35:47.577Z</time></trkpt><trkpt lat="45.3400667" lon="10.6828584"><ele>91.66666666666667</ele><time>2026-03-28T09:35:48.578Z</time></trkpt><trkpt lat="45.3401306" lon="10.683061"><ele>92.0</ele><time>2026-03-28T09:35:49.578Z</time></trkpt><trkpt lat="45.3402016" lon="10.6832722"><ele>92.0</ele><time>2026-03-28T09:35:50.577Z</time></trkpt><trkpt lat="45.34028" lon="10.6834983"><ele>92.0</ele><time>2026-03-28T09:35:51.577Z</time></trkpt><trkpt lat="45.3403516" lon="10.6837227"><ele>92.0</ele><time>2026-03-28T09:35:52.576Z</time></trkpt><trkpt lat="45.3404188" lon="10.6839324"><ele>91.33333333333334</ele><time>2026-03-28T09:35:53.576Z</time></trkpt><trkpt lat="45.3404734" lon="10.6841262"><ele>90.66666666666667</ele><time>2026-03-28T09:35:54.578Z</time></trkpt><trkpt lat="45.3405248" lon="10.6843215"><ele>90.0</ele><time>2026-03-28T09:35:55.577Z</time></trkpt><trkpt lat="45.3405548" lon="10.68454"><ele>91.33333333333333</ele><time>2026-03-28T09:35:56.577Z</time></trkpt><trkpt lat="45.3405818" lon="10.6847903"><ele>92.66666666666666</ele><time>2026-03-28T09:35:57.578Z</time></trkpt><trkpt lat="45.3406123" lon="10.685023"><ele>94.0</ele><time>2026-03-28T09:35:58.578Z</time></trkpt><trkpt lat="45.3406506" lon="10.6852518"><ele>93.0</ele><time>2026-03-28T09:35:59.577Z</time></trkpt><trkpt lat="45.3406914" lon="10.6854843"><ele>92.0</ele><time>2026-03-28T09:36:00.577Z</time></trkpt><trkpt lat="45.3407364" lon="10.6857218"><ele>91.0</ele><time>2026-03-28T09:36:01.577Z</time></trkpt><trkpt lat="45.3407797" lon="10.6859323"><ele>90.66666666666666</ele><time>2026-03-28T09:36:02.578Z</time></trkpt><trkpt lat="45.3408218" lon="10.6861457"><ele>90.33333333333333</ele><time>2026-03-28T09:36:03.577Z</time></trkpt><trkpt lat="45.340859" lon="10.6863402"><ele>90.0</ele><time>2026-03-28T09:36:04.578Z</time></trkpt><trkpt lat="45.340919" lon="10.6865682"><ele>90.0</ele><time>2026-03-28T09:36:05.577Z</time></trkpt><trkpt lat="45.3409453" lon="10.686757"><ele>90.0</ele><time>2026-03-28T09:36:06.576Z</time></trkpt><trkpt lat="45.3409566" lon="10.6869541"><ele>90.0</ele><time>2026-03-28T09:36:07.578Z</time></trkpt><trkpt lat="45.3409607" lon="10.6871404"><ele>90.0</ele><time>2026-03-28T09:36:08.577Z</time></trkpt><trkpt lat="45.3409768" lon="10.6873413"><ele>90.33333333333333</ele><time>2026-03-28T09:36:09.577Z</time></trkpt><trkpt lat="45.3410186" lon="10.6875819"><ele>90.66666666666666</ele><time>2026-03-28T09:36:10.578Z</time></trkpt><trkpt lat="45.3410669" lon="10.6878451"><ele>91.0</ele><time>2026-03-28T09:36:11.578Z</time></trkpt><trkpt lat="45.3411088" lon="10.6880933"><ele>91.0</ele><time>2026-03-28T09:36:12.578Z</time></trkpt><trkpt lat="45.3411527" lon="10.688329"><ele>91.0</ele><time>2026-03-28T09:36:13.577Z</time></trkpt><trkpt lat="45.3412125" lon="10.6885794"><ele>91.0</ele><time>2026-03-28T09:36:14.578Z</time></trkpt><trkpt lat="45.3412761" lon="10.6888301"><ele>91.0</ele><time>2026-03-28T09:36:15.578Z</time></trkpt><trkpt lat="45.3413419" lon="10.6890919"><ele>91.0</ele><time>2026-03-28T09:36:16.576Z</time></trkpt><trkpt lat="45.3414154" lon="10.6893635"><ele>91.0</ele><time>2026-03-28T09:36:17.577Z</time></trkpt><trkpt lat="45.3414776" lon="10.6895914"><ele>91.0</ele><time>2026-03-28T09:36:18.578Z</time></trkpt><trkpt lat="45.3415388" lon="10.6897952"><ele>91.0</ele><time>2026-03-28T09:36:19.576Z</time></trkpt><trkpt lat="45.341612" lon="10.6900043"><ele>91.0</ele><time>2026-03-28T09:36:20.576Z</time></trkpt><trkpt lat="45.3416887" lon="10.6902453"><ele>91.33333333333333</ele><time>2026-03-28T09:36:21.577Z</time></trkpt><trkpt lat="45.3417797" lon="10.6904898"><ele>91.66666666666667</ele><time>2026-03-28T09:36:22.578Z</time></trkpt><trkpt lat="45.3418536" lon="10.690704"><ele>92.0</ele><time>2026-03-28T09:36:23.577Z</time></trkpt><trkpt lat="45.3419238" lon="10.6909236"><ele>92.33333333333334</ele><time>2026-03-28T09:36:24.577Z</time></trkpt><trkpt lat="45.3419695" lon="10.6911618"><ele>92.66666666666667</ele><time>2026-03-28T09:36:25.576Z</time></trkpt><trkpt lat="45.3419888" lon="10.6914025"><ele>93.0</ele><time>2026-03-28T09:36:26.577Z</time></trkpt><trkpt lat="45.3419935" lon="10.6916715"><ele>93.33333333333333</ele><time>2026-03-28T09:36:27.577Z</time></trkpt><trkpt lat="45.3420001" lon="10.6919503"><ele>93.66666666666666</ele><time>2026-03-28T09:36:28.577Z</time></trkpt><trkpt lat="45.3420185" lon="10.6922176"><ele>94.0</ele><time>2026-03-28T09:36:29.577Z</time></trkpt><trkpt lat="45.3420432" lon="10.6924483"><ele>94.0</ele><time>2026-03-28T09:36:30.577Z</time></trkpt><trkpt lat="45.3420735" lon="10.6926569"><ele>94.0</ele><time>2026-03-28T09:36:31.577Z</time></trkpt><trkpt lat="45.3421144" lon="10.6928607"><ele>94.0</ele><time>2026-03-28T09:36:32.577Z</time></trkpt><trkpt lat="45.3421742" lon="10.6930854"><ele>96.33333333333333</ele><time>2026-03-28T09:36:33.578Z</time></trkpt><trkpt lat="45.3422392" lon="10.6933278"><ele>98.66666666666666</ele><time>2026-03-28T09:36:34.578Z</time></trkpt><trkpt lat="45.3423066" lon="10.6935815"><ele>101.0</ele><time>2026-03-28T09:36:35.577Z</time></trkpt><trkpt lat="45.3423781" lon="10.6938232"><ele>101.0</ele><time>2026-03-28T09:36:36.577Z</time></trkpt><trkpt lat="45.3424434" lon="10.6940297"><ele>101.0</ele><time>2026-03-28T09:36:37.577Z</time></trkpt><trkpt lat="45.342503" lon="10.6942221"><ele>101.0</ele><time>2026-03-28T09:36:38.577Z</time></trkpt><trkpt lat="45.3425601" lon="10.6944397"><ele>100.66666666666666</ele><time>2026-03-28T09:36:39.577Z</time></trkpt><trkpt lat="45.3426195" lon="10.6947115"><ele>100.33333333333334</ele><time>2026-03-28T09:36:40.577Z</time></trkpt><trkpt lat="45.3426779" lon="10.6950315"><ele>100.0</ele><time>2026-03-28T09:36:41.577Z</time></trkpt><trkpt lat="45.3427323" lon="10.6953783"><ele>99.66666666666667</ele><time>2026-03-28T09:36:42.578Z</time></trkpt><trkpt lat="45.342768" lon="10.6956798"><ele>99.33333333333334</ele><time>2026-03-28T09:36:43.578Z</time></trkpt><trkpt lat="45.3428053" lon="10.6959435"><ele>99.0</ele><time>2026-03-28T09:36:44.578Z</time></trkpt><trkpt lat="45.3428374" lon="10.6961439"><ele>98.66666666666666</ele><time>2026-03-28T09:36:45.578Z</time></trkpt><trkpt lat="45.3428649" lon="10.6963479"><ele>98.33333333333333</ele><time>2026-03-28T09:36:46.577Z</time></trkpt><trkpt lat="45.3429282" lon="10.6965569"><ele>98.0</ele><time>2026-03-28T09:36:47.577Z</time></trkpt><trkpt lat="45.3429687" lon="10.6967558"><ele>98.0</ele><time>2026-03-28T09:36:48.576Z</time></trkpt><trkpt lat="45.3430205" lon="10.6969883"><ele>98.0</ele><time>2026-03-28T09:36:49.578Z</time></trkpt><trkpt lat="45.3431845" lon="10.6974243"><ele>98.33333333333333</ele><time>2026-03-28T09:36:50.577Z</time></trkpt><trkpt lat="45.3432605" lon="10.6976934"><ele>98.66666666666666</ele><time>2026-03-28T09:36:51.578Z</time></trkpt><trkpt lat="45.3433463" lon="10.697949"><ele>99.0</ele><time>2026-03-28T09:36:52.578Z</time></trkpt><trkpt lat="45.3434499" lon="10.6981869"><ele>99.0</ele><time>2026-03-28T09:36:53.578Z</time></trkpt><trkpt lat="45.3435747" lon="10.6984398"><ele>99.0</ele><time>2026-03-28T09:36:54.578Z</time></trkpt><trkpt lat="45.3437154" lon="10.6987099"><ele>99.0</ele><time>2026-03-28T09:36:55.578Z</time></trkpt><trkpt lat="45.3438639" lon="10.6989916"><ele>99.0</ele><time>2026-03-28T09:36:56.576Z</time></trkpt><trkpt lat="45.3440395" lon="10.6993652"><ele>97.5</ele><time>2026-03-28T09:36:57.577Z</time></trkpt><trkpt lat="45.3441716" lon="10.6996851"><ele>96.0</ele><time>2026-03-28T09:36:58.577Z</time></trkpt><trkpt lat="45.3442965" lon="10.6999945"><ele>96.0</ele><time>2026-03-28T09:36:59.577Z</time></trkpt><trkpt lat="45.3444098" lon="10.7002879"><ele>96.0</ele><time>2026-03-28T09:37:00.577Z</time></trkpt><trkpt lat="45.3445082" lon="10.70054"><ele>96.0</ele><time>2026-03-28T09:37:01.577Z</time></trkpt><trkpt lat="45.3445873" lon="10.700743"><ele>96.0</ele><time>2026-03-28T09:37:02.578Z</time></trkpt><trkpt lat="45.3446558" lon="10.7009118"><ele>96.0</ele><time>2026-03-28T09:37:03.578Z</time></trkpt><trkpt lat="45.3447163" lon="10.7010587"><ele>96.0</ele><time>2026-03-28T09:37:04.578Z</time></trkpt><trkpt lat="45.3447645" lon="10.701165"><ele>96.0</ele><time>2026-03-28T09:37:05.577Z</time></trkpt><trkpt lat="45.344798" lon="10.7012419"><ele>96.0</ele><time>2026-03-28T09:37:06.578Z</time></trkpt><trkpt lat="45.3448565" lon="10.7013352"><ele>96.0</ele><time>2026-03-28T09:37:08.577Z</time></trkpt><trkpt lat="45.344931" lon="10.7013488"><ele>96.0</ele><time>2026-03-28T09:37:11.577Z</time></trkpt><trkpt lat="45.3450308" lon="10.7011786"><ele>96.0</ele><time>2026-03-28T09:37:13.577Z</time></trkpt><trkpt lat="45.3451141" lon="10.7010001"><ele>96.0</ele><time>2026-03-28T09:37:14.576Z</time></trkpt><trkpt lat="45.345209" lon="10.7007877"><ele>96.33333333333334</ele><time>2026-03-28T09:37:15.577Z</time></trkpt><trkpt lat="45.3453104" lon="10.7005435"><ele>96.66666666666667</ele><time>2026-03-28T09:37:16.577Z</time></trkpt><trkpt lat="45.3454031" lon="10.7003335"><ele>97.0</ele><time>2026-03-28T09:37:17.577Z</time></trkpt><trkpt lat="45.3455167" lon="10.7001046"><ele>101.0</ele><time>2026-03-28T09:37:18.578Z</time></trkpt><trkpt lat="45.3456649" lon="10.6998745"><ele>105.0</ele><time>2026-03-28T09:37:19.578Z</time></trkpt><trkpt lat="45.3457962" lon="10.69967"><ele>109.0</ele><time>2026-03-28T09:37:20.577Z</time></trkpt><trkpt lat="45.3459176" lon="10.6994693"><ele>109.5</ele><time>2026-03-28T09:37:21.577Z</time></trkpt><trkpt lat="45.3460158" lon="10.699284"><ele>110.0</ele><time>2026-03-28T09:37:22.577Z</time></trkpt><trkpt lat="45.3461067" lon="10.6991043"><ele>110.5</ele><time>2026-03-28T09:37:23.577Z</time></trkpt><trkpt lat="45.346155" lon="10.6989935"><ele>111.0</ele><time>2026-03-28T09:37:24.578Z</time></trkpt><trkpt lat="45.3462083" lon="10.6988234"><ele>111.0</ele><time>2026-03-28T09:37:25.578Z</time></trkpt><trkpt lat="45.3462684" lon="10.6985864"><ele>111.0</ele><time>2026-03-28T09:37:26.577Z</time></trkpt><trkpt lat="45.3463451" lon="10.6983137"><ele>111.0</ele><time>2026-03-28T09:37:27.576Z</time></trkpt><trkpt lat="45.3464455" lon="10.6980434"><ele>108.66666666666666</ele><time>2026-03-28T09:37:28.577Z</time></trkpt><trkpt lat="45.3465533" lon="10.697824"><ele>106.33333333333333</ele><time>2026-03-28T09:37:29.578Z</time></trkpt><trkpt lat="45.346668" lon="10.6975893"><ele>104.0</ele><time>2026-03-28T09:37:30.577Z</time></trkpt><trkpt lat="45.3467777" lon="10.6973872"><ele>103.0</ele><time>2026-03-28T09:37:31.577Z</time></trkpt><trkpt lat="45.3468849" lon="10.6972067"><ele>102.0</ele><time>2026-03-28T09:37:32.578Z</time></trkpt><trkpt lat="45.3469911" lon="10.6970452"><ele>101.0</ele><time>2026-03-28T09:37:33.577Z</time></trkpt><trkpt lat="45.3470971" lon="10.6969114"><ele>100.8</ele><time>2026-03-28T09:37:34.577Z</time></trkpt><trkpt lat="45.347207" lon="10.696805"><ele>100.6</ele><time>2026-03-28T09:37:35.577Z</time></trkpt><trkpt lat="45.3473069" lon="10.6967322"><ele>100.4</ele><time>2026-03-28T09:37:36.578Z</time></trkpt><trkpt lat="45.3473998" lon="10.6966816"><ele>100.2</ele><time>2026-03-28T09:37:37.578Z</time></trkpt><trkpt lat="45.3474854" lon="10.6966362"><ele>100.0</ele><time>2026-03-28T09:37:38.578Z</time></trkpt><trkpt lat="45.3475661" lon="10.6965891"><ele>99.83333333333334</ele><time>2026-03-28T09:37:39.578Z</time></trkpt><trkpt lat="45.3476487" lon="10.6965413"><ele>99.66666666666667</ele><time>2026-03-28T09:37:40.578Z</time></trkpt><trkpt lat="45.3477364" lon="10.6964795"><ele>99.5</ele><time>2026-03-28T09:37:41.577Z</time></trkpt><trkpt lat="45.347821" lon="10.6964122"><ele>99.33333333333334</ele><time>2026-03-28T09:37:42.577Z</time></trkpt><trkpt lat="45.3478958" lon="10.6963477"><ele>99.16666666666667</ele><time>2026-03-28T09:37:43.577Z</time></trkpt><trkpt lat="45.3479512" lon="10.6962993"><ele>99.0</ele><time>2026-03-28T09:37:44.576Z</time></trkpt><trkpt lat="45.3480585" lon="10.6962131"><ele>98.6</ele><time>2026-03-28T09:37:46.577Z</time></trkpt><trkpt lat="45.3481301" lon="10.6961783"><ele>98.2</ele><time>2026-03-28T09:37:47.577Z</time></trkpt><trkpt lat="45.3482163" lon="10.6961494"><ele>97.8</ele><time>2026-03-28T09:37:48.576Z</time></trkpt><trkpt lat="45.3483131" lon="10.6961352"><ele>97.39999999999999</ele><time>2026-03-28T09:37:49.578Z</time></trkpt><trkpt lat="45.3484204" lon="10.6961351"><ele>97.0</ele><time>2026-03-28T09:37:50.577Z</time></trkpt><trkpt lat="45.3485308" lon="10.6961461"><ele>97.0</ele><time>2026-03-28T09:37:51.576Z</time></trkpt><trkpt lat="45.3486388" lon="10.6961498"><ele>97.0</ele><time>2026-03-28T09:37:52.578Z</time></trkpt><trkpt lat="45.3487484" lon="10.6961517"><ele>97.0</ele><time>2026-03-28T09:37:53.577Z</time></trkpt><trkpt lat="45.3488582" lon="10.6961479"><ele>97.0</ele><time>2026-03-28T09:37:54.577Z</time></trkpt><trkpt lat="45.3489711" lon="10.696145"><ele>97.0</ele><time>2026-03-28T09:37:55.578Z</time></trkpt><trkpt lat="45.3490753" lon="10.6961411"><ele>96.42857142857143</ele><time>2026-03-28T09:37:56.577Z</time></trkpt><trkpt lat="45.3491645" lon="10.696143"><ele>95.85714285714286</ele><time>2026-03-28T09:37:57.577Z</time></trkpt><trkpt lat="45.3492431" lon="10.6961538"><ele>95.28571428571429</ele><time>2026-03-28T09:37:58.577Z</time></trkpt><trkpt lat="45.3493112" lon="10.6961728"><ele>94.71428571428572</ele><time>2026-03-28T09:37:59.577Z</time></trkpt><trkpt lat="45.3493718" lon="10.696209"><ele>94.14285714285714</ele><time>2026-03-28T09:38:00.577Z</time></trkpt><trkpt lat="45.3494256" lon="10.6962696"><ele>93.57142857142858</ele><time>2026-03-28T09:38:01.577Z</time></trkpt><trkpt lat="45.3494631" lon="10.6963632"><ele>93.0</ele><time>2026-03-28T09:38:02.578Z</time></trkpt><trkpt lat="45.3494842" lon="10.6964681"><ele>93.0</ele><time>2026-03-28T09:38:03.578Z</time></trkpt><trkpt lat="45.3494907" lon="10.6965664"><ele>93.0</ele><time>2026-03-28T09:38:04.577Z</time></trkpt><trkpt lat="45.3494915" lon="10.6967348"><ele>93.0</ele><time>2026-03-28T09:38:06.578Z</time></trkpt><trkpt lat="45.3494893" lon="10.6968337"><ele>93.0</ele><time>2026-03-28T09:38:07.577Z</time></trkpt><trkpt lat="45.3494899" lon="10.6969601"><ele>93.0</ele><time>2026-03-28T09:38:08.577Z</time></trkpt><trkpt lat="45.3494969" lon="10.6971139"><ele>93.5</ele><time>2026-03-28T09:38:09.577Z</time></trkpt><trkpt lat="45.3495059" lon="10.6972913"><ele>94.0</ele><time>2026-03-28T09:38:10.577Z</time></trkpt><trkpt lat="45.3495188" lon="10.697486"><ele>94.5</ele><time>2026-03-28T09:38:11.577Z</time></trkpt><trkpt lat="45.3495351" lon="10.6977011"><ele>95.0</ele><time>2026-03-28T09:38:12.577Z</time></trkpt><trkpt lat="45.3495623" lon="10.6979282"><ele>95.33333333333334</ele><time>2026-03-28T09:38:13.577Z</time></trkpt><trkpt lat="45.3495834" lon="10.6981536"><ele>95.66666666666667</ele><time>2026-03-28T09:38:14.577Z</time></trkpt><trkpt lat="45.3495995" lon="10.6983868"><ele>96.0</ele><time>2026-03-28T09:38:15.577Z</time></trkpt><trkpt lat="45.3496106" lon="10.6986162"><ele>97.33333333333334</ele><time>2026-03-28T09:38:16.576Z</time></trkpt><trkpt lat="45.3496198" lon="10.6988348"><ele>98.66666666666667</ele><time>2026-03-28T09:38:17.577Z</time></trkpt><trkpt lat="45.3496267" lon="10.6990609"><ele>100.0</ele><time>2026-03-28T09:38:18.576Z</time></trkpt><trkpt lat="45.3496337" lon="10.6992801"><ele>99.0</ele><time>2026-03-28T09:38:19.577Z</time></trkpt><trkpt lat="45.3496382" lon="10.6995055"><ele>98.0</ele><time>2026-03-28T09:38:20.577Z</time></trkpt><trkpt lat="45.3496288" lon="10.6997417"><ele>97.0</ele><time>2026-03-28T09:38:21.578Z</time></trkpt><trkpt lat="45.3496088" lon="10.6999875"><ele>97.0</ele><time>2026-03-28T09:38:22.577Z</time></trkpt><trkpt lat="45.3495828" lon="10.7002324"><ele>97.0</ele><time>2026-03-28T09:38:23.577Z</time></trkpt><trkpt lat="45.3495574" lon="10.7004779"><ele>97.0</ele><time>2026-03-28T09:38:24.577Z</time></trkpt><trkpt lat="45.3495321" lon="10.7007035"><ele>96.25</ele><time>2026-03-28T09:38:25.576Z</time></trkpt><trkpt lat="45.3495081" lon="10.7009062"><ele>95.5</ele><time>2026-03-28T09:38:26.578Z</time></trkpt><trkpt lat="45.3494853" lon="10.7010961"><ele>94.75</ele><time>2026-03-28T09:38:27.578Z</time></trkpt><trkpt lat="45.3494611" lon="10.7013023"><ele>94.0</ele><time>2026-03-28T09:38:28.578Z</time></trkpt><trkpt lat="45.3494527" lon="10.701525"><ele>93.66666666666666</ele><time>2026-03-28T09:38:29.578Z</time></trkpt><trkpt lat="45.3494683" lon="10.7017755"><ele>93.33333333333333</ele><time>2026-03-28T09:38:30.577Z</time></trkpt><trkpt lat="45.3494861" lon="10.7020476"><ele>93.0</ele><time>2026-03-28T09:38:31.577Z</time></trkpt><trkpt lat="45.3495034" lon="10.7023145"><ele>92.33333333333333</ele><time>2026-03-28T09:38:32.577Z</time></trkpt><trkpt lat="45.3495249" lon="10.7025879"><ele>91.66666666666666</ele><time>2026-03-28T09:38:33.578Z</time></trkpt><trkpt lat="45.3495288" lon="10.702866"><ele>91.0</ele><time>2026-03-28T09:38:34.577Z</time></trkpt><trkpt lat="45.349545" lon="10.7031241"><ele>89.66666666666666</ele><time>2026-03-28T09:38:35.578Z</time></trkpt><trkpt lat="45.3495633" lon="10.7033867"><ele>88.33333333333333</ele><time>2026-03-28T09:38:36.578Z</time></trkpt><trkpt lat="45.349575" lon="10.7036389"><ele>87.0</ele><time>2026-03-28T09:38:37.577Z</time></trkpt><trkpt lat="45.3495775" lon="10.7038835"><ele>86.25</ele><time>2026-03-28T09:38:38.577Z</time></trkpt><trkpt lat="45.349564" lon="10.704105"><ele>85.5</ele><time>2026-03-28T09:38:39.578Z</time></trkpt><trkpt lat="45.3495407" lon="10.7043025"><ele>84.75</ele><time>2026-03-28T09:38:40.576Z</time></trkpt><trkpt lat="45.3495097" lon="10.7044896"><ele>84.0</ele><time>2026-03-28T09:38:41.578Z</time></trkpt><trkpt lat="45.349487" lon="10.7046709"><ele>84.0</ele><time>2026-03-28T09:38:42.578Z</time></trkpt><trkpt lat="45.349482" lon="10.7048407"><ele>84.0</ele><time>2026-03-28T09:38:43.578Z</time></trkpt><trkpt lat="45.3494934" lon="10.7050161"><ele>84.0</ele><time>2026-03-28T09:38:44.578Z</time></trkpt><trkpt lat="45.3495106" lon="10.70518"><ele>84.0</ele><time>2026-03-28T09:38:45.577Z</time></trkpt><trkpt lat="45.3495413" lon="10.7053275"><ele>84.66666666666667</ele><time>2026-03-28T09:38:46.578Z</time></trkpt><trkpt lat="45.3496181" lon="10.7054977"><ele>85.33333333333334</ele><time>2026-03-28T09:38:47.578Z</time></trkpt><trkpt lat="45.3497229" lon="10.7057172"><ele>86.0</ele><time>2026-03-28T09:38:48.578Z</time></trkpt><trkpt lat="45.3498326" lon="10.7059388"><ele>79.33333333333334</ele><time>2026-03-28T09:38:49.577Z</time></trkpt><trkpt lat="45.3499423" lon="10.7061445"><ele>72.66666666666667</ele><time>2026-03-28T09:38:50.578Z</time></trkpt><trkpt lat="45.350052" lon="10.7063579"><ele>66.0</ele><time>2026-03-28T09:38:51.577Z</time></trkpt><trkpt lat="45.3501664" lon="10.7065905"><ele>66.0</ele><time>2026-03-28T09:38:52.577Z</time></trkpt><trkpt lat="45.3502706" lon="10.7068262"><ele>66.0</ele><time>2026-03-28T09:38:53.578Z</time></trkpt><trkpt lat="45.3503706" lon="10.7070715"><ele>66.0</ele><time>2026-03-28T09:38:54.578Z</time></trkpt><trkpt lat="45.3504719" lon="10.7073158"><ele>67.33333333333333</ele><time>2026-03-28T09:38:55.578Z</time></trkpt><trkpt lat="45.3505648" lon="10.7075531"><ele>68.66666666666666</ele><time>2026-03-28T09:38:56.578Z</time></trkpt><trkpt lat="45.3506551" lon="10.7077732"><ele>70.0</ele><time>2026-03-28T09:38:57.578Z</time></trkpt><trkpt lat="45.3507404" lon="10.7079725"><ele>70.33333333333333</ele><time>2026-03-28T09:38:58.577Z</time></trkpt><trkpt lat="45.3508198" lon="10.7081576"><ele>70.66666666666667</ele><time>2026-03-28T09:38:59.577Z</time></trkpt><trkpt lat="45.3509031" lon="10.7083474"><ele>71.0</ele><time>2026-03-28T09:39:00.576Z</time></trkpt><trkpt lat="45.3509807" lon="10.7085465"><ele>70.33333333333334</ele><time>2026-03-28T09:39:01.577Z</time></trkpt><trkpt lat="45.3510564" lon="10.7087653"><ele>69.66666666666667</ele><time>2026-03-28T09:39:02.578Z</time></trkpt><trkpt lat="45.351131" lon="10.7089944"><ele>69.0</ele><time>2026-03-28T09:39:03.578Z</time></trkpt><trkpt lat="45.3511967" lon="10.7091992"><ele>69.0</ele><time>2026-03-28T09:39:04.577Z</time></trkpt><trkpt lat="45.3512614" lon="10.709407"><ele>69.0</ele><time>2026-03-28T09:39:05.577Z</time></trkpt><trkpt lat="45.3513167" lon="10.7096208"><ele>69.0</ele><time>2026-03-28T09:39:06.578Z</time></trkpt><trkpt lat="45.3513732" lon="10.7098421"><ele>68.0</ele><time>2026-03-28T09:39:07.577Z</time></trkpt><trkpt lat="45.3514702" lon="10.7100831"><ele>67.0</ele><time>2026-03-28T09:39:08.578Z</time></trkpt><trkpt lat="45.3515585" lon="10.7103294"><ele>66.0</ele><time>2026-03-28T09:39:09.578Z</time></trkpt><trkpt lat="45.3516654" lon="10.7105719"><ele>66.0</ele><time>2026-03-28T09:39:10.578Z</time></trkpt><trkpt lat="45.3517834" lon="10.7108223"><ele>66.0</ele><time>2026-03-28T09:39:11.578Z</time></trkpt><trkpt lat="45.3519335" lon="10.7110964"><ele>66.33333333333333</ele><time>2026-03-28T09:39:12.577Z</time></trkpt><trkpt lat="45.3520845" lon="10.7113447"><ele>66.66666666666666</ele><time>2026-03-28T09:39:13.578Z</time></trkpt><trkpt lat="45.3522221" lon="10.7115629"><ele>67.0</ele><time>2026-03-28T09:39:14.578Z</time></trkpt><trkpt lat="45.3523369" lon="10.7117396"><ele>67.0</ele><time>2026-03-28T09:39:15.578Z</time></trkpt><trkpt lat="45.352423" lon="10.7118801"><ele>67.0</ele><time>2026-03-28T09:39:16.579Z</time></trkpt><trkpt lat="45.3525005" lon="10.7120067"><ele>67.0</ele><time>2026-03-28T09:39:17.578Z</time></trkpt><trkpt lat="45.352566" lon="10.7121321"><ele>67.0</ele><time>2026-03-28T09:39:18.578Z</time></trkpt><trkpt lat="45.3526239" lon="10.712273"><ele>67.0</ele><time>2026-03-28T09:39:19.578Z</time></trkpt><trkpt lat="45.3526876" lon="10.7124416"><ele>67.0</ele><time>2026-03-28T09:39:20.579Z</time></trkpt><trkpt lat="45.3528015" lon="10.712638"><ele>67.0</ele><time>2026-03-28T09:39:21.578Z</time></trkpt><trkpt lat="45.3529265" lon="10.7128495"><ele>69.0</ele><time>2026-03-28T09:39:22.577Z</time></trkpt><trkpt lat="45.3530427" lon="10.7130506"><ele>71.0</ele><time>2026-03-28T09:39:23.579Z</time></trkpt><trkpt lat="45.3531525" lon="10.7132426"><ele>73.0</ele><time>2026-03-28T09:39:24.578Z</time></trkpt><trkpt lat="45.3532565" lon="10.713425"><ele>71.33333333333333</ele><time>2026-03-28T09:39:25.578Z</time></trkpt><trkpt lat="45.3533574" lon="10.7136047"><ele>69.66666666666667</ele><time>2026-03-28T09:39:26.577Z</time></trkpt><trkpt lat="45.3534632" lon="10.7137931"><ele>68.0</ele><time>2026-03-28T09:39:27.578Z</time></trkpt><trkpt lat="45.3535646" lon="10.7140012"><ele>68.0</ele><time>2026-03-28T09:39:28.578Z</time></trkpt><trkpt lat="45.3536425" lon="10.7142379"><ele>68.0</ele><time>2026-03-28T09:39:29.577Z</time></trkpt><trkpt lat="45.3537002" lon="10.7145098"><ele>68.0</ele><time>2026-03-28T09:39:30.579Z</time></trkpt><trkpt lat="45.3537437" lon="10.7148021"><ele>67.33333333333334</ele><time>2026-03-28T09:39:31.579Z</time></trkpt><trkpt lat="45.3537755" lon="10.7150978"><ele>66.66666666666667</ele><time>2026-03-28T09:39:32.579Z</time></trkpt><trkpt lat="45.3537952" lon="10.7153909"><ele>66.0</ele><time>2026-03-28T09:39:33.579Z</time></trkpt><trkpt lat="45.3537994" lon="10.7156898"><ele>65.0</ele><time>2026-03-28T09:39:34.579Z</time></trkpt><trkpt lat="45.3537877" lon="10.7159881"><ele>64.0</ele><time>2026-03-28T09:39:35.579Z</time></trkpt><trkpt lat="45.3537708" lon="10.7162893"><ele>63.0</ele><time>2026-03-28T09:39:36.579Z</time></trkpt><trkpt lat="45.3537673" lon="10.7165889"><ele>62.66666666666667</ele><time>2026-03-28T09:39:37.579Z</time></trkpt><trkpt lat="45.3538007" lon="10.7168835"><ele>62.333333333333336</ele><time>2026-03-28T09:39:38.577Z</time></trkpt><trkpt lat="45.3538544" lon="10.7171731"><ele>62.0</ele><time>2026-03-28T09:39:39.578Z</time></trkpt><trkpt lat="45.3539441" lon="10.7174565"><ele>62.333333333333336</ele><time>2026-03-28T09:39:40.579Z</time></trkpt><trkpt lat="45.3540652" lon="10.7177305"><ele>62.66666666666667</ele><time>2026-03-28T09:39:41.579Z</time></trkpt><trkpt lat="45.3541953" lon="10.7179804"><ele>63.0</ele><time>2026-03-28T09:39:42.578Z</time></trkpt><trkpt lat="45.3543188" lon="10.7182143"><ele>63.0</ele><time>2026-03-28T09:39:43.578Z</time></trkpt><trkpt lat="45.3544372" lon="10.7184382"><ele>63.0</ele><time>2026-03-28T09:39:44.578Z</time></trkpt><trkpt lat="45.3545566" lon="10.7186525"><ele>63.0</ele><time>2026-03-28T09:39:45.579Z</time></trkpt><trkpt lat="45.3546794" lon="10.7188645"><ele>63.33333333333333</ele><time>2026-03-28T09:39:46.579Z</time></trkpt><trkpt lat="45.3547984" lon="10.7190755"><ele>63.666666666666664</ele><time>2026-03-28T09:39:47.578Z</time></trkpt><trkpt lat="45.3549078" lon="10.7192771"><ele>64.0</ele><time>2026-03-28T09:39:48.578Z</time></trkpt><trkpt lat="45.3550148" lon="10.7194688"><ele>64.0</ele><time>2026-03-28T09:39:49.579Z</time></trkpt><trkpt lat="45.3551036" lon="10.7196423"><ele>64.0</ele><time>2026-03-28T09:39:50.579Z</time></trkpt><trkpt lat="45.3551875" lon="10.7198064"><ele>64.0</ele><time>2026-03-28T09:39:51.578Z</time></trkpt><trkpt lat="45.3552648" lon="10.7199598"><ele>64.0</ele><time>2026-03-28T09:39:52.579Z</time></trkpt><trkpt lat="45.3553383" lon="10.720103"><ele>63.25</ele><time>2026-03-28T09:39:53.577Z</time></trkpt><trkpt lat="45.3554108" lon="10.7202398"><ele>62.5</ele><time>2026-03-28T09:39:54.578Z</time></trkpt><trkpt lat="45.3554825" lon="10.7203678"><ele>61.75</ele><time>2026-03-28T09:39:55.579Z</time></trkpt><trkpt lat="45.3555545" lon="10.7204972"><ele>61.0</ele><time>2026-03-28T09:39:56.578Z</time></trkpt><trkpt lat="45.3556258" lon="10.7206313"><ele>61.75</ele><time>2026-03-28T09:39:57.578Z</time></trkpt><trkpt lat="45.3556969" lon="10.7207705"><ele>62.5</ele><time>2026-03-28T09:39:58.579Z</time></trkpt><trkpt lat="45.355776" lon="10.7209108"><ele>63.25</ele><time>2026-03-28T09:39:59.578Z</time></trkpt><trkpt lat="45.3558483" lon="10.7210278"><ele>64.0</ele><time>2026-03-28T09:40:00.579Z</time></trkpt><trkpt lat="45.3559186" lon="10.7211249"><ele>63.99999999999999</ele><time>2026-03-28T09:40:01.579Z</time></trkpt><trkpt lat="45.3559826" lon="10.7212023"><ele>64.0</ele><time>2026-03-28T09:40:02.579Z</time></trkpt><trkpt lat="45.3560346" lon="10.7212594"><ele>64.0</ele><time>2026-03-28T09:40:03.579Z</time></trkpt><trkpt lat="45.3561005" lon="10.7213553"><ele>64.0</ele><time>2026-03-28T09:40:05.579Z</time></trkpt><trkpt lat="45.356136" lon="10.7214389"><ele>63.99999999999999</ele><time>2026-03-28T09:40:07.578Z</time></trkpt><trkpt lat="45.3561062" lon="10.7215918"><ele>64.0</ele><time>2026-03-28T09:40:09.578Z</time></trkpt><trkpt lat="45.3560635" lon="10.7216985"><ele>64.0</ele><time>2026-03-28T09:40:10.579Z</time></trkpt><trkpt lat="45.3560214" lon="10.7218266"><ele>64.0</ele><time>2026-03-28T09:40:11.578Z</time></trkpt><trkpt lat="45.3559711" lon="10.721968"><ele>64.0</ele><time>2026-03-28T09:40:12.578Z</time></trkpt><trkpt lat="45.3559214" lon="10.7221229"><ele>64.0</ele><time>2026-03-28T09:40:13.577Z</time></trkpt><trkpt lat="45.3558652" lon="10.7222823"><ele>63.75</ele><time>2026-03-28T09:40:14.578Z</time></trkpt><trkpt lat="45.3558145" lon="10.7224413"><ele>63.5</ele><time>2026-03-28T09:40:15.578Z</time></trkpt><trkpt lat="45.3557575" lon="10.7226114"><ele>63.25</ele><time>2026-03-28T09:40:16.578Z</time></trkpt><trkpt lat="45.3556986" lon="10.7227867"><ele>63.0</ele><time>2026-03-28T09:40:17.578Z</time></trkpt><trkpt lat="45.355637" lon="10.722961"><ele>63.0</ele><time>2026-03-28T09:40:18.579Z</time></trkpt><trkpt lat="45.3555654" lon="10.7231366"><ele>63.0</ele><time>2026-03-28T09:40:19.578Z</time></trkpt><trkpt lat="45.3554973" lon="10.7233142"><ele>63.0</ele><time>2026-03-28T09:40:20.578Z</time></trkpt><trkpt lat="45.3554305" lon="10.7234937"><ele>63.0</ele><time>2026-03-28T09:40:21.578Z</time></trkpt><trkpt lat="45.3553626" lon="10.7236806"><ele>62.0</ele><time>2026-03-28T09:40:22.579Z</time></trkpt><trkpt lat="45.3553004" lon="10.7238572"><ele>61.0</ele><time>2026-03-28T09:40:23.578Z</time></trkpt><trkpt lat="45.3552424" lon="10.724024"><ele>60.0</ele><time>2026-03-28T09:40:24.579Z</time></trkpt><trkpt lat="45.3551846" lon="10.7241824"><ele>59.0</ele><time>2026-03-28T09:40:25.578Z</time></trkpt><trkpt lat="45.3551297" lon="10.7243344"><ele>59.2</ele><time>2026-03-28T09:40:26.578Z</time></trkpt><trkpt lat="45.3550753" lon="10.7244847"><ele>59.400000000000006</ele><time>2026-03-28T09:40:27.578Z</time></trkpt><trkpt lat="45.3550253" lon="10.7246294"><ele>59.6</ele><time>2026-03-28T09:40:28.578Z</time></trkpt><trkpt lat="45.3549763" lon="10.7247618"><ele>59.8</ele><time>2026-03-28T09:40:29.579Z</time></trkpt><trkpt lat="45.3549292" lon="10.7248909"><ele>60.0</ele><time>2026-03-28T09:40:30.579Z</time></trkpt><trkpt lat="45.3548787" lon="10.7250282"><ele>60.0</ele><time>2026-03-28T09:40:31.578Z</time></trkpt><trkpt lat="45.3548313" lon="10.7251759"><ele>60.0</ele><time>2026-03-28T09:40:32.578Z</time></trkpt><trkpt lat="45.3547819" lon="10.7253243"><ele>60.0</ele><time>2026-03-28T09:40:33.578Z</time></trkpt><trkpt lat="45.3547249" lon="10.7254745"><ele>60.0</ele><time>2026-03-28T09:40:34.578Z</time></trkpt><trkpt lat="45.3546695" lon="10.7256339"><ele>59.75</ele><time>2026-03-28T09:40:35.578Z</time></trkpt><trkpt lat="45.3546158" lon="10.7257923"><ele>59.5</ele><time>2026-03-28T09:40:36.579Z</time></trkpt><trkpt lat="45.3545573" lon="10.7259501"><ele>59.25</ele><time>2026-03-28T09:40:37.578Z</time></trkpt><trkpt lat="45.3544999" lon="10.7261051"><ele>59.0</ele><time>2026-03-28T09:40:38.578Z</time></trkpt><trkpt lat="45.3544499" lon="10.7262681"><ele>59.0</ele><time>2026-03-28T09:40:39.579Z</time></trkpt><trkpt lat="45.3543939" lon="10.7264494"><ele>59.0</ele><time>2026-03-28T09:40:40.579Z</time></trkpt><trkpt lat="45.3543201" lon="10.7266423"><ele>59.0</ele><time>2026-03-28T09:40:41.578Z</time></trkpt><trkpt lat="45.354235" lon="10.7268469"><ele>59.333333333333336</ele><time>2026-03-28T09:40:42.579Z</time></trkpt><trkpt lat="45.35415" lon="10.7270737"><ele>59.66666666666667</ele><time>2026-03-28T09:40:43.578Z</time></trkpt><trkpt lat="45.3540666" lon="10.7273176"><ele>60.0</ele><time>2026-03-28T09:40:44.577Z</time></trkpt><trkpt lat="45.3539868" lon="10.7275504"><ele>61.5</ele><time>2026-03-28T09:40:45.578Z</time></trkpt><trkpt lat="45.3539178" lon="10.7277549"><ele>63.0</ele><time>2026-03-28T09:40:46.579Z</time></trkpt><trkpt lat="45.3538583" lon="10.7279066"><ele>64.5</ele><time>2026-03-28T09:40:47.579Z</time></trkpt><trkpt lat="45.353818" lon="10.7280233"><ele>66.0</ele><time>2026-03-28T09:40:48.577Z</time></trkpt><trkpt lat="45.3537817" lon="10.7281252"><ele>68.0</ele><time>2026-03-28T09:40:49.579Z</time></trkpt><trkpt lat="45.3537506" lon="10.7282033"><ele>70.0</ele><time>2026-03-28T09:40:50.578Z</time></trkpt><trkpt lat="45.3536856" lon="10.7282837"><ele>72.0</ele><time>2026-03-28T09:40:52.578Z</time></trkpt><trkpt lat="45.3536545" lon="10.7283926"><ele>74.0</ele><time>2026-03-28T09:40:54.578Z</time></trkpt><trkpt lat="45.3537451" lon="10.7285318"><ele>76.0</ele><time>2026-03-28T09:40:56.577Z</time></trkpt><trkpt lat="45.3538288" lon="10.7286013"><ele>77.19999999999999</ele><time>2026-03-28T09:40:57.578Z</time></trkpt><trkpt lat="45.35391" lon="10.7286564"><ele>78.39999999999999</ele><time>2026-03-28T09:40:58.579Z</time></trkpt><trkpt lat="45.3540031" lon="10.7287099"><ele>79.6</ele><time>2026-03-28T09:40:59.579Z</time></trkpt><trkpt lat="45.3541083" lon="10.7287616"><ele>80.8</ele><time>2026-03-28T09:41:00.577Z</time></trkpt><trkpt lat="45.3542244" lon="10.7288175"><ele>82.0</ele><time>2026-03-28T09:41:01.579Z</time></trkpt><trkpt lat="45.3543401" lon="10.7288795"><ele>82.0</ele><time>2026-03-28T09:41:02.578Z</time></trkpt><trkpt lat="45.3544621" lon="10.7289362"><ele>82.0</ele><time>2026-03-28T09:41:03.578Z</time></trkpt><trkpt lat="45.3545915" lon="10.7289973"><ele>82.0</ele><time>2026-03-28T09:41:04.579Z</time></trkpt><trkpt lat="45.3547286" lon="10.7290617"><ele>82.0</ele><time>2026-03-28T09:41:05.579Z</time></trkpt><trkpt lat="45.3548685" lon="10.7291082"><ele>81.33333333333333</ele><time>2026-03-28T09:41:06.578Z</time></trkpt><trkpt lat="45.3550125" lon="10.7291654"><ele>80.66666666666667</ele><time>2026-03-28T09:41:07.579Z</time></trkpt><trkpt lat="45.3551597" lon="10.7292187"><ele>80.0</ele><time>2026-03-28T09:41:08.579Z</time></trkpt><trkpt lat="45.3553061" lon="10.7292548"><ele>80.0</ele><time>2026-03-28T09:41:09.577Z</time></trkpt><trkpt lat="45.3554517" lon="10.7292891"><ele>80.0</ele><time>2026-03-28T09:41:10.578Z</time></trkpt><trkpt lat="45.3555888" lon="10.7293195"><ele>80.0</ele><time>2026-03-28T09:41:11.578Z</time></trkpt><trkpt lat="45.3557245" lon="10.729357"><ele>80.0</ele><time>2026-03-28T09:41:12.577Z</time></trkpt><trkpt lat="45.3558566" lon="10.7293872"><ele>79.75</ele><time>2026-03-28T09:41:13.578Z</time></trkpt><trkpt lat="45.3559772" lon="10.7293987"><ele>79.5</ele><time>2026-03-28T09:41:14.578Z</time></trkpt><trkpt lat="45.3560937" lon="10.7293849"><ele>79.25</ele><time>2026-03-28T09:41:15.578Z</time></trkpt><trkpt lat="45.3562146" lon="10.7293621"><ele>79.0</ele><time>2026-03-28T09:41:16.577Z</time></trkpt><trkpt lat="45.356334" lon="10.7293304"><ele>79.66666666666666</ele><time>2026-03-28T09:41:17.577Z</time></trkpt><trkpt lat="45.3564368" lon="10.7293036"><ele>80.33333333333333</ele><time>2026-03-28T09:41:18.578Z</time></trkpt><trkpt lat="45.3565089" lon="10.7292923"><ele>81.0</ele><time>2026-03-28T09:41:19.577Z</time></trkpt><trkpt lat="45.3566074" lon="10.7293397"><ele>81.66666666666667</ele><time>2026-03-28T09:41:21.578Z</time></trkpt><trkpt lat="45.3565799" lon="10.7294476"><ele>82.33333333333334</ele><time>2026-03-28T09:41:23.578Z</time></trkpt><trkpt lat="45.3565321" lon="10.7295181"><ele>83.0</ele><time>2026-03-28T09:41:24.578Z</time></trkpt><trkpt lat="45.3564668" lon="10.7295768"><ele>86.5</ele><time>2026-03-28T09:41:25.578Z</time></trkpt><trkpt lat="45.3563084" lon="10.7296297"><ele>90.0</ele><time>2026-03-28T09:41:26.579Z</time></trkpt><trkpt lat="45.3561885" lon="10.7296922"><ele>93.5</ele><time>2026-03-28T09:41:27.579Z</time></trkpt><trkpt lat="45.3560621" lon="10.7297713"><ele>97.0</ele><time>2026-03-28T09:41:28.578Z</time></trkpt><trkpt lat="45.3559478" lon="10.7298554"><ele>97.00000000000001</ele><time>2026-03-28T09:41:29.577Z</time></trkpt><trkpt lat="45.3558505" lon="10.7299408"><ele>97.0</ele><time>2026-03-28T09:41:30.578Z</time></trkpt><trkpt lat="45.3557718" lon="10.7300281"><ele>97.0</ele><time>2026-03-28T09:41:31.579Z</time></trkpt><trkpt lat="45.3557245" lon="10.7301294"><ele>97.0</ele><time>2026-03-28T09:41:32.579Z</time></trkpt><trkpt lat="45.3556977" lon="10.730223"><ele>97.00000000000001</ele><time>2026-03-28T09:41:33.579Z</time></trkpt><trkpt lat="45.3557179" lon="10.7303253"><ele>97.0</ele><time>2026-03-28T09:41:34.579Z</time></trkpt><trkpt lat="45.3557346" lon="10.7304399"><ele>97.83333333333334</ele><time>2026-03-28T09:41:35.579Z</time></trkpt><trkpt lat="45.3557555" lon="10.7305615"><ele>98.66666666666667</ele><time>2026-03-28T09:41:36.577Z</time></trkpt><trkpt lat="45.355777" lon="10.7306836"><ele>99.5</ele><time>2026-03-28T09:41:37.579Z</time></trkpt><trkpt lat="45.3558002" lon="10.7308028"><ele>100.33333333333334</ele><time>2026-03-28T09:41:38.579Z</time></trkpt><trkpt lat="45.3558296" lon="10.7309096"><ele>101.16666666666667</ele><time>2026-03-28T09:41:39.579Z</time></trkpt><trkpt lat="45.3558509" lon="10.7310155"><ele>102.0</ele><time>2026-03-28T09:41:40.579Z</time></trkpt><trkpt lat="45.3558704" lon="10.7311074"><ele>102.0</ele><time>2026-03-28T09:41:41.579Z</time></trkpt><trkpt lat="45.3559088" lon="10.7312437"><ele>102.0</ele><time>2026-03-28T09:41:43.579Z</time></trkpt><trkpt lat="45.3559393" lon="10.7313725"><ele>102.0</ele><time>2026-03-28T09:41:45.578Z</time></trkpt><trkpt lat="45.3559284" lon="10.73149"><ele>102.0</ele><time>2026-03-28T09:41:47.578Z</time></trkpt><trkpt lat="45.3559091" lon="10.7316519"><ele>102.0</ele><time>2026-03-28T09:41:49.577Z</time></trkpt><trkpt lat="45.3558643" lon="10.731816"><ele>100.83333333333333</ele><time>2026-03-28T09:41:51.579Z</time></trkpt><trkpt lat="45.3558326" lon="10.7319102"><ele>99.66666666666667</ele><time>2026-03-28T09:41:52.577Z</time></trkpt><trkpt lat="45.3558027" lon="10.7320077"><ele>98.5</ele><time>2026-03-28T09:41:53.578Z</time></trkpt><trkpt lat="45.3557704" lon="10.7320922"><ele>97.33333333333334</ele><time>2026-03-28T09:41:54.577Z</time></trkpt><trkpt lat="45.3557356" lon="10.7321706"><ele>96.16666666666667</ele><time>2026-03-28T09:41:55.578Z</time></trkpt><trkpt lat="45.3556678" lon="10.732319"><ele>95.0</ele><time>2026-03-28T09:41:57.578Z</time></trkpt><trkpt lat="45.3556122" lon="10.7324462"><ele>95.0</ele><time>2026-03-28T09:41:59.578Z</time></trkpt><trkpt lat="45.3555609" lon="10.732543"><ele>95.0</ele><time>2026-03-28T09:42:01.578Z</time></trkpt><trkpt lat="45.3555151" lon="10.7326285"><ele>95.0</ele><time>2026-03-28T09:42:03.578Z</time></trkpt><trkpt lat="45.3554576" lon="10.7327193"><ele>95.0</ele><time>2026-03-28T09:42:05.579Z</time></trkpt><trkpt lat="45.3553927" lon="10.7328319"><ele>95.0</ele><time>2026-03-28T09:42:07.578Z</time></trkpt><trkpt lat="45.3553402" lon="10.73296"><ele>94.8</ele><time>2026-03-28T09:42:09.578Z</time></trkpt><trkpt lat="45.355295" lon="10.7330899"><ele>94.6</ele><time>2026-03-28T09:42:11.578Z</time></trkpt><trkpt lat="45.3552355" lon="10.7332312"><ele>94.4</ele><time>2026-03-28T09:42:13.579Z</time></trkpt><trkpt lat="45.3551758" lon="10.7333647"><ele>94.2</ele><time>2026-03-28T09:42:15.578Z</time></trkpt><trkpt lat="45.3551432" lon="10.7334763"><ele>94.0</ele><time>2026-03-28T09:42:17.578Z</time></trkpt><trkpt lat="45.3551088" lon="10.7335941"><ele>93.83333333333333</ele><time>2026-03-28T09:42:20.579Z</time></trkpt><trkpt lat="45.3550742" lon="10.7336893"><ele>93.66666666666666</ele><time>2026-03-28T09:42:23.577Z</time></trkpt><trkpt lat="45.3550367" lon="10.7337818"><ele>93.5</ele><time>2026-03-28T09:42:26.578Z</time></trkpt><trkpt lat="45.3549963" lon="10.7338784"><ele>93.33333333333333</ele><time>2026-03-28T09:42:29.578Z</time></trkpt><trkpt lat="45.3549548" lon="10.7339642"><ele>93.16666666666667</ele><time>2026-03-28T09:42:32.578Z</time></trkpt><trkpt lat="45.3549036" lon="10.7340763"><ele>93.0</ele><time>2026-03-28T09:42:35.577Z</time></trkpt><trkpt lat="45.3548596" lon="10.7341632"><ele>93.0</ele><time>2026-03-28T09:42:37.578Z</time></trkpt><trkpt lat="45.3548726" lon="10.7342827"><ele>93.0</ele><time>2026-03-28T09:42:41.578Z</time></trkpt><trkpt lat="45.3549534" lon="10.7343311"><ele>93.0</ele><time>2026-03-28T09:42:43.579Z</time></trkpt><trkpt lat="45.3550322" lon="10.7343535"><ele>93.0</ele><time>2026-03-28T09:42:44.578Z</time></trkpt><trkpt lat="45.3551137" lon="10.7343786"><ele>93.0</ele><time>2026-03-28T09:42:45.578Z</time></trkpt><trkpt lat="45.3551986" lon="10.7343934"><ele>93.0</ele><time>2026-03-28T09:42:46.578Z</time></trkpt><trkpt lat="45.3552854" lon="10.7344186"><ele>93.16666666666667</ele><time>2026-03-28T09:42:47.578Z</time></trkpt><trkpt lat="45.3553656" lon="10.7344422"><ele>93.33333333333333</ele><time>2026-03-28T09:42:48.578Z</time></trkpt><trkpt lat="45.355439" lon="10.7344682"><ele>93.5</ele><time>2026-03-28T09:42:49.579Z</time></trkpt><trkpt lat="45.3555054" lon="10.7344934"><ele>93.66666666666666</ele><time>2026-03-28T09:42:50.579Z</time></trkpt><trkpt lat="45.3556294" lon="10.7345561"><ele>93.83333333333333</ele><time>2026-03-28T09:42:52.578Z</time></trkpt><trkpt lat="45.3557013" lon="10.7345867"><ele>94.0</ele><time>2026-03-28T09:42:53.577Z</time></trkpt><trkpt lat="45.3557744" lon="10.7346248"><ele>94.0</ele><time>2026-03-28T09:42:54.578Z</time></trkpt><trkpt lat="45.3558542" lon="10.7346681"><ele>94.0</ele><time>2026-03-28T09:42:55.578Z</time></trkpt><trkpt lat="45.3559332" lon="10.7347149"><ele>94.0</ele><time>2026-03-28T09:42:56.579Z</time></trkpt><trkpt lat="45.3560147" lon="10.7347615"><ele>94.0</ele><time>2026-03-28T09:42:57.578Z</time></trkpt><trkpt lat="45.356107" lon="10.7348033"><ele>94.0</ele><time>2026-03-28T09:42:58.578Z</time></trkpt><trkpt lat="45.3562225" lon="10.7348464"><ele>94.0</ele><time>2026-03-28T09:42:59.578Z</time></trkpt><trkpt lat="45.3563576" lon="10.7348973"><ele>94.0</ele><time>2026-03-28T09:43:00.578Z</time></trkpt><trkpt lat="45.3565057" lon="10.7349513"><ele>94.0</ele><time>2026-03-28T09:43:01.579Z</time></trkpt><trkpt lat="45.3566491" lon="10.7349913"><ele>94.0</ele><time>2026-03-28T09:43:02.579Z</time></trkpt><trkpt lat="45.3567772" lon="10.7350114"><ele>93.80000000000001</ele><time>2026-03-28T09:43:03.579Z</time></trkpt><trkpt lat="45.3568842" lon="10.7350232"><ele>93.60000000000001</ele><time>2026-03-28T09:43:04.579Z</time></trkpt><trkpt lat="45.3569822" lon="10.73503"><ele>93.4</ele><time>2026-03-28T09:43:05.578Z</time></trkpt><trkpt lat="45.3570769" lon="10.7350293"><ele>93.2</ele><time>2026-03-28T09:43:06.578Z</time></trkpt><trkpt lat="45.3571635" lon="10.7350208"><ele>93.0</ele><time>2026-03-28T09:43:07.579Z</time></trkpt><trkpt lat="45.3572459" lon="10.7350075"><ele>93.0</ele><time>2026-03-28T09:43:08.579Z</time></trkpt><trkpt lat="45.357316" lon="10.7349923"><ele>93.0</ele><time>2026-03-28T09:43:09.578Z</time></trkpt><trkpt lat="45.3573835" lon="10.7349896"><ele>93.0</ele><time>2026-03-28T09:43:10.578Z</time></trkpt><trkpt lat="45.3574493" lon="10.7349991"><ele>93.0</ele><time>2026-03-28T09:43:11.578Z</time></trkpt><trkpt lat="45.3575156" lon="10.7349983"><ele>93.0</ele><time>2026-03-28T09:43:12.578Z</time></trkpt><trkpt lat="45.3576259" lon="10.7349736"><ele>93.0</ele><time>2026-03-28T09:43:14.579Z</time></trkpt><trkpt lat="45.3577528" lon="10.7349645"><ele>93.0</ele><time>2026-03-28T09:43:16.578Z</time></trkpt><trkpt lat="45.3578211" lon="10.7349573"><ele>93.0</ele><time>2026-03-28T09:43:17.578Z</time></trkpt><trkpt lat="45.3579034" lon="10.7349296"><ele>93.0</ele><time>2026-03-28T09:43:19.579Z</time></trkpt><trkpt lat="45.357976" lon="10.7349051"><ele>93.0</ele><time>2026-03-28T09:43:22.578Z</time></trkpt><trkpt lat="45.3580817" lon="10.7348871"><ele>93.0</ele><time>2026-03-28T09:43:27.578Z</time></trkpt><trkpt lat="45.3582157" lon="10.7348835"><ele>94.0</ele><time>2026-03-28T09:43:28.578Z</time></trkpt><trkpt lat="45.3583594" lon="10.7348831"><ele>95.0</ele><time>2026-03-28T09:43:29.577Z</time></trkpt><trkpt lat="45.3585939" lon="10.7349194"><ele>96.0</ele><time>2026-03-28T09:43:30.578Z</time></trkpt><trkpt lat="45.3588055" lon="10.7349502"><ele>96.33333333333334</ele><time>2026-03-28T09:43:31.578Z</time></trkpt><trkpt lat="45.3590026" lon="10.7349773"><ele>96.66666666666667</ele><time>2026-03-28T09:43:32.579Z</time></trkpt><trkpt lat="45.3591907" lon="10.7349993"><ele>97.0</ele><time>2026-03-28T09:43:33.579Z</time></trkpt><trkpt lat="45.3593679" lon="10.7350236"><ele>97.0</ele><time>2026-03-28T09:43:34.577Z</time></trkpt><trkpt lat="45.359531" lon="10.7350483"><ele>97.0</ele><time>2026-03-28T09:43:35.578Z</time></trkpt><trkpt lat="45.359682" lon="10.7350663"><ele>97.0</ele><time>2026-03-28T09:43:36.577Z</time></trkpt><trkpt lat="45.3598039" lon="10.7350823"><ele>97.0</ele><time>2026-03-28T09:43:37.578Z</time></trkpt><trkpt lat="45.3598787" lon="10.7351045"><ele>96.8</ele><time>2026-03-28T09:43:38.578Z</time></trkpt><trkpt lat="45.3599299" lon="10.7352128"><ele>96.6</ele><time>2026-03-28T09:43:40.578Z</time></trkpt><trkpt lat="45.3599316" lon="10.7353078"><ele>96.39999999999999</ele><time>2026-03-28T09:43:41.578Z</time></trkpt><trkpt lat="45.3599221" lon="10.7354509"><ele>96.19999999999999</ele><time>2026-03-28T09:43:42.579Z</time></trkpt><trkpt lat="45.3599066" lon="10.7356307"><ele>96.0</ele><time>2026-03-28T09:43:43.578Z</time></trkpt><trkpt lat="45.3598879" lon="10.7358654"><ele>95.33333333333333</ele><time>2026-03-28T09:43:44.577Z</time></trkpt><trkpt lat="45.3598664" lon="10.7361532"><ele>94.66666666666666</ele><time>2026-03-28T09:43:45.578Z</time></trkpt><trkpt lat="45.3598425" lon="10.7364769"><ele>94.0</ele><time>2026-03-28T09:43:46.577Z</time></trkpt><trkpt lat="45.3598183" lon="10.7367826"><ele>94.0</ele><time>2026-03-28T09:43:47.578Z</time></trkpt><trkpt lat="45.3597957" lon="10.7370603"><ele>94.0</ele><time>2026-03-28T09:43:48.579Z</time></trkpt><trkpt lat="45.3597709" lon="10.737316"><ele>94.0</ele><time>2026-03-28T09:43:49.578Z</time></trkpt><trkpt lat="45.3597515" lon="10.7375356"><ele>94.0</ele><time>2026-03-28T09:43:50.579Z</time></trkpt><trkpt lat="45.359738" lon="10.7377175"><ele>94.0</ele><time>2026-03-28T09:43:51.579Z</time></trkpt><trkpt lat="45.3597223" lon="10.7378711"><ele>94.0</ele><time>2026-03-28T09:43:52.579Z</time></trkpt><trkpt lat="45.359704" lon="10.7380073"><ele>94.0</ele><time>2026-03-28T09:43:53.579Z</time></trkpt><trkpt lat="45.3596978" lon="10.7381635"><ele>94.0</ele><time>2026-03-28T09:43:54.578Z</time></trkpt><trkpt lat="45.3597218" lon="10.7383719"><ele>93.75</ele><time>2026-03-28T09:43:55.579Z</time></trkpt><trkpt lat="45.3597683" lon="10.7385958"><ele>93.5</ele><time>2026-03-28T09:43:56.579Z</time></trkpt><trkpt lat="45.3598092" lon="10.7387714"><ele>93.25</ele><time>2026-03-28T09:43:57.578Z</time></trkpt><trkpt lat="45.3598262" lon="10.738901"><ele>93.0</ele><time>2026-03-28T09:43:58.577Z</time></trkpt><trkpt lat="45.3598391" lon="10.7390269"><ele>93.0</ele><time>2026-03-28T09:43:59.578Z</time></trkpt><trkpt lat="45.3598744" lon="10.7391193"><ele>93.0</ele><time>2026-03-28T09:44:00.579Z</time></trkpt><trkpt lat="45.3599378" lon="10.739197"><ele>93.0</ele><time>2026-03-28T09:44:01.578Z</time></trkpt><trkpt lat="45.3600414" lon="10.7392712"><ele>93.0</ele><time>2026-03-28T09:44:02.578Z</time></trkpt><trkpt lat="45.3601913" lon="10.7393521"><ele>93.0</ele><time>2026-03-28T09:44:03.577Z</time></trkpt><trkpt lat="45.3603653" lon="10.7394704"><ele>93.25</ele><time>2026-03-28T09:44:04.579Z</time></trkpt><trkpt lat="45.3605193" lon="10.7395587"><ele>93.5</ele><time>2026-03-28T09:44:05.579Z</time></trkpt><trkpt lat="45.3606582" lon="10.7396338"><ele>93.75</ele><time>2026-03-28T09:44:06.579Z</time></trkpt><trkpt lat="45.3607716" lon="10.7397096"><ele>94.0</ele><time>2026-03-28T09:44:07.579Z</time></trkpt><trkpt lat="45.3608575" lon="10.7398006"><ele>94.66666666666666</ele><time>2026-03-28T09:44:08.579Z</time></trkpt><trkpt lat="45.3609394" lon="10.7399399"><ele>95.33333333333333</ele><time>2026-03-28T09:44:09.579Z</time></trkpt><trkpt lat="45.3610217" lon="10.7401271"><ele>96.0</ele><time>2026-03-28T09:44:10.578Z</time></trkpt><trkpt lat="45.3611078" lon="10.7403449"><ele>96.0</ele><time>2026-03-28T09:44:11.578Z</time></trkpt><trkpt lat="45.3612057" lon="10.7405804"><ele>96.0</ele><time>2026-03-28T09:44:12.579Z</time></trkpt><trkpt lat="45.3612965" lon="10.7408055"><ele>96.0</ele><time>2026-03-28T09:44:13.578Z</time></trkpt><trkpt lat="45.3613868" lon="10.7410351"><ele>94.66666666666667</ele><time>2026-03-28T09:44:14.579Z</time></trkpt><trkpt lat="45.3614773" lon="10.7412765"><ele>93.33333333333334</ele><time>2026-03-28T09:44:15.577Z</time></trkpt><trkpt lat="45.3615617" lon="10.7415228"><ele>92.0</ele><time>2026-03-28T09:44:16.578Z</time></trkpt><trkpt lat="45.3616315" lon="10.7417613"><ele>92.0</ele><time>2026-03-28T09:44:17.579Z</time></trkpt><trkpt lat="45.3616954" lon="10.7419918"><ele>92.0</ele><time>2026-03-28T09:44:18.577Z</time></trkpt><trkpt lat="45.3617577" lon="10.7422101"><ele>92.0</ele><time>2026-03-28T09:44:19.578Z</time></trkpt><trkpt lat="45.3618179" lon="10.7424264"><ele>92.0</ele><time>2026-03-28T09:44:20.578Z</time></trkpt><trkpt lat="45.361872" lon="10.7426383"><ele>92.0</ele><time>2026-03-28T09:44:21.578Z</time></trkpt><trkpt lat="45.3619271" lon="10.7428381"><ele>92.0</ele><time>2026-03-28T09:44:22.578Z</time></trkpt><trkpt lat="45.361984" lon="10.7430338"><ele>92.0</ele><time>2026-03-28T09:44:23.579Z</time></trkpt><trkpt lat="45.3620422" lon="10.7432253"><ele>92.0</ele><time>2026-03-28T09:44:24.579Z</time></trkpt><trkpt lat="45.3621011" lon="10.7434125"><ele>92.0</ele><time>2026-03-28T09:44:25.577Z</time></trkpt><trkpt lat="45.3621562" lon="10.743599"><ele>92.0</ele><time>2026-03-28T09:44:26.579Z</time></trkpt><trkpt lat="45.362218" lon="10.7437892"><ele>92.25</ele><time>2026-03-28T09:44:27.579Z</time></trkpt><trkpt lat="45.3622797" lon="10.7439789"><ele>92.5</ele><time>2026-03-28T09:44:28.579Z</time></trkpt><trkpt lat="45.3623406" lon="10.7441706"><ele>92.75</ele><time>2026-03-28T09:44:29.578Z</time></trkpt><trkpt lat="45.3624053" lon="10.7443657"><ele>93.0</ele><time>2026-03-28T09:44:30.578Z</time></trkpt><trkpt lat="45.3624673" lon="10.7445629"><ele>93.0</ele><time>2026-03-28T09:44:31.577Z</time></trkpt><trkpt lat="45.362529" lon="10.7447629"><ele>93.0</ele><time>2026-03-28T09:44:32.578Z</time></trkpt><trkpt lat="45.362589" lon="10.7449591"><ele>93.0</ele><time>2026-03-28T09:44:33.579Z</time></trkpt><trkpt lat="45.3626469" lon="10.7451495"><ele>93.0</ele><time>2026-03-28T09:44:34.578Z</time></trkpt><trkpt lat="45.3626999" lon="10.7453324"><ele>93.0</ele><time>2026-03-28T09:44:35.578Z</time></trkpt><trkpt lat="45.3627519" lon="10.7455122"><ele>93.0</ele><time>2026-03-28T09:44:36.578Z</time></trkpt><trkpt lat="45.3628044" lon="10.7456914"><ele>93.0</ele><time>2026-03-28T09:44:37.578Z</time></trkpt><trkpt lat="45.3628602" lon="10.745878"><ele>92.66666666666667</ele><time>2026-03-28T09:44:38.578Z</time></trkpt><trkpt lat="45.3629243" lon="10.7460752"><ele>92.33333333333334</ele><time>2026-03-28T09:44:39.579Z</time></trkpt><trkpt lat="45.3629991" lon="10.7462929"><ele>92.0</ele><time>2026-03-28T09:44:40.578Z</time></trkpt><trkpt lat="45.363086" lon="10.7465298"><ele>92.0</ele><time>2026-03-28T09:44:41.578Z</time></trkpt><trkpt lat="45.3631836" lon="10.7467763"><ele>92.0</ele><time>2026-03-28T09:44:42.579Z</time></trkpt><trkpt lat="45.3632948" lon="10.7470165"><ele>92.0</ele><time>2026-03-28T09:44:43.579Z</time></trkpt><trkpt lat="45.3634092" lon="10.747242"><ele>92.0</ele><time>2026-03-28T09:44:44.578Z</time></trkpt><trkpt lat="45.363531" lon="10.7474525"><ele>92.0</ele><time>2026-03-28T09:44:45.578Z</time></trkpt><trkpt lat="45.3636522" lon="10.747649"><ele>92.0</ele><time>2026-03-28T09:44:46.579Z</time></trkpt><trkpt lat="45.3637614" lon="10.7478436"><ele>92.0</ele><time>2026-03-28T09:44:47.579Z</time></trkpt><trkpt lat="45.3638603" lon="10.7480469"><ele>92.0</ele><time>2026-03-28T09:44:48.578Z</time></trkpt><trkpt lat="45.3639546" lon="10.7482594"><ele>92.0</ele><time>2026-03-28T09:44:49.578Z</time></trkpt><trkpt lat="45.364047" lon="10.7484791"><ele>92.33333333333334</ele><time>2026-03-28T09:44:50.578Z</time></trkpt><trkpt lat="45.3641384" lon="10.7486997"><ele>92.66666666666667</ele><time>2026-03-28T09:44:51.578Z</time></trkpt><trkpt lat="45.3642274" lon="10.7489139"><ele>93.0</ele><time>2026-03-28T09:44:52.578Z</time></trkpt><trkpt lat="45.36431" lon="10.749117"><ele>93.0</ele><time>2026-03-28T09:44:53.578Z</time></trkpt><trkpt lat="45.364392" lon="10.7493309"><ele>93.0</ele><time>2026-03-28T09:44:54.578Z</time></trkpt><trkpt lat="45.364478" lon="10.7495415"><ele>93.0</ele><time>2026-03-28T09:44:55.578Z</time></trkpt><trkpt lat="45.3645664" lon="10.749753"><ele>93.0</ele><time>2026-03-28T09:44:56.579Z</time></trkpt><trkpt lat="45.3646571" lon="10.7499558"><ele>93.0</ele><time>2026-03-28T09:44:57.578Z</time></trkpt><trkpt lat="45.3647464" lon="10.7501576"><ele>93.0</ele><time>2026-03-28T09:44:58.579Z</time></trkpt><trkpt lat="45.3648353" lon="10.7503659"><ele>94.0</ele><time>2026-03-28T09:44:59.578Z</time></trkpt><trkpt lat="45.3649298" lon="10.7505732"><ele>95.0</ele><time>2026-03-28T09:45:00.578Z</time></trkpt><trkpt lat="45.3650289" lon="10.7507808"><ele>96.0</ele><time>2026-03-28T09:45:01.578Z</time></trkpt><trkpt lat="45.3651296" lon="10.750991"><ele>95.33333333333333</ele><time>2026-03-28T09:45:02.578Z</time></trkpt><trkpt lat="45.3652335" lon="10.7512033"><ele>94.66666666666666</ele><time>2026-03-28T09:45:03.578Z</time></trkpt><trkpt lat="45.3653403" lon="10.7514122"><ele>94.0</ele><time>2026-03-28T09:45:04.578Z</time></trkpt><trkpt lat="45.365452" lon="10.7516229"><ele>94.0</ele><time>2026-03-28T09:45:05.577Z</time></trkpt><trkpt lat="45.3655641" lon="10.751834"><ele>94.0</ele><time>2026-03-28T09:45:06.578Z</time></trkpt><trkpt lat="45.3656852" lon="10.7520563"><ele>94.0</ele><time>2026-03-28T09:45:07.578Z</time></trkpt><trkpt lat="45.3658004" lon="10.7522906"><ele>94.0</ele><time>2026-03-28T09:45:08.578Z</time></trkpt><trkpt lat="45.3659076" lon="10.7525284"><ele>94.0</ele><time>2026-03-28T09:45:09.578Z</time></trkpt><trkpt lat="45.3660133" lon="10.7527699"><ele>94.0</ele><time>2026-03-28T09:45:10.578Z</time></trkpt><trkpt lat="45.366116" lon="10.7530021"><ele>94.0</ele><time>2026-03-28T09:45:11.579Z</time></trkpt><trkpt lat="45.3662091" lon="10.75322"><ele>94.0</ele><time>2026-03-28T09:45:12.578Z</time></trkpt><trkpt lat="45.3662946" lon="10.7534336"><ele>94.0</ele><time>2026-03-28T09:45:13.578Z</time></trkpt><trkpt lat="45.3663638" lon="10.7536416"><ele>93.66666666666666</ele><time>2026-03-28T09:45:14.578Z</time></trkpt><trkpt lat="45.3664328" lon="10.7538547"><ele>93.33333333333333</ele><time>2026-03-28T09:45:15.577Z</time></trkpt><trkpt lat="45.3665046" lon="10.7540699"><ele>93.0</ele><time>2026-03-28T09:45:16.577Z</time></trkpt><trkpt lat="45.3665787" lon="10.7542809"><ele>93.66666666666667</ele><time>2026-03-28T09:45:17.578Z</time></trkpt><trkpt lat="45.3666572" lon="10.7544889"><ele>94.33333333333334</ele><time>2026-03-28T09:45:18.579Z</time></trkpt><trkpt lat="45.3667395" lon="10.7546914"><ele>95.0</ele><time>2026-03-28T09:45:19.578Z</time></trkpt><trkpt lat="45.3668229" lon="10.754875"><ele>95.0</ele><time>2026-03-28T09:45:20.579Z</time></trkpt><trkpt lat="45.3669005" lon="10.7550482"><ele>95.0</ele><time>2026-03-28T09:45:21.577Z</time></trkpt><trkpt lat="45.36698" lon="10.7552138"><ele>95.0</ele><time>2026-03-28T09:45:22.578Z</time></trkpt><trkpt lat="45.3670586" lon="10.7553748"><ele>95.0</ele><time>2026-03-28T09:45:23.578Z</time></trkpt><trkpt lat="45.3671356" lon="10.7555321"><ele>95.0</ele><time>2026-03-28T09:45:24.579Z</time></trkpt><trkpt lat="45.3672102" lon="10.7556873"><ele>95.0</ele><time>2026-03-28T09:45:25.577Z</time></trkpt><trkpt lat="45.3672809" lon="10.7558368"><ele>95.0</ele><time>2026-03-28T09:45:26.578Z</time></trkpt><trkpt lat="45.3673559" lon="10.755991"><ele>95.0</ele><time>2026-03-28T09:45:27.578Z</time></trkpt><trkpt lat="45.3674338" lon="10.7561439"><ele>95.0</ele><time>2026-03-28T09:45:28.578Z</time></trkpt><trkpt lat="45.3675021" lon="10.7562949"><ele>95.0</ele><time>2026-03-28T09:45:29.579Z</time></trkpt><trkpt lat="45.3675714" lon="10.7564399"><ele>95.0</ele><time>2026-03-28T09:45:30.578Z</time></trkpt><trkpt lat="45.3676475" lon="10.7565814"><ele>95.0</ele><time>2026-03-28T09:45:31.578Z</time></trkpt><trkpt lat="45.3677314" lon="10.7567323"><ele>95.25</ele><time>2026-03-28T09:45:32.578Z</time></trkpt><trkpt lat="45.3677923" lon="10.7568931"><ele>95.5</ele><time>2026-03-28T09:45:33.578Z</time></trkpt><trkpt lat="45.3678307" lon="10.7570705"><ele>95.75</ele><time>2026-03-28T09:45:34.578Z</time></trkpt><trkpt lat="45.3678578" lon="10.7572558"><ele>96.0</ele><time>2026-03-28T09:45:35.578Z</time></trkpt><trkpt lat="45.367881" lon="10.7574491"><ele>96.0</ele><time>2026-03-28T09:45:36.578Z</time></trkpt><trkpt lat="45.3679014" lon="10.7576455"><ele>96.0</ele><time>2026-03-28T09:45:37.579Z</time></trkpt><trkpt lat="45.3679275" lon="10.7578275"><ele>96.0</ele><time>2026-03-28T09:45:38.579Z</time></trkpt><trkpt lat="45.3679571" lon="10.7580112"><ele>96.0</ele><time>2026-03-28T09:45:39.578Z</time></trkpt><trkpt lat="45.3679865" lon="10.7581997"><ele>96.25</ele><time>2026-03-28T09:45:40.578Z</time></trkpt><trkpt lat="45.3680186" lon="10.7583923"><ele>96.5</ele><time>2026-03-28T09:45:41.578Z</time></trkpt><trkpt lat="45.3680481" lon="10.7585862"><ele>96.75</ele><time>2026-03-28T09:45:42.577Z</time></trkpt><trkpt lat="45.368084" lon="10.7587822"><ele>97.0</ele><time>2026-03-28T09:45:43.577Z</time></trkpt><trkpt lat="45.368114" lon="10.758981"><ele>97.0</ele><time>2026-03-28T09:45:44.578Z</time></trkpt><trkpt lat="45.3681461" lon="10.7591796"><ele>97.0</ele><time>2026-03-28T09:45:45.578Z</time></trkpt><trkpt lat="45.3681778" lon="10.7593841"><ele>97.0</ele><time>2026-03-28T09:45:46.579Z</time></trkpt><trkpt lat="45.3682084" lon="10.7595953"><ele>97.0</ele><time>2026-03-28T09:45:47.579Z</time></trkpt><trkpt lat="45.3682382" lon="10.7598105"><ele>97.0</ele><time>2026-03-28T09:45:48.578Z</time></trkpt><trkpt lat="45.3682689" lon="10.760013"><ele>97.0</ele><time>2026-03-28T09:45:49.578Z</time></trkpt><trkpt lat="45.3682995" lon="10.7601981"><ele>97.0</ele><time>2026-03-28T09:45:50.579Z</time></trkpt><trkpt lat="45.3683312" lon="10.7603626"><ele>97.0</ele><time>2026-03-28T09:45:51.578Z</time></trkpt><trkpt lat="45.3683625" lon="10.7605028"><ele>97.0</ele><time>2026-03-28T09:45:52.579Z</time></trkpt><trkpt lat="45.3683967" lon="10.7606359"><ele>97.0</ele><time>2026-03-28T09:45:53.578Z</time></trkpt><trkpt lat="45.3684288" lon="10.7607568"><ele>97.0</ele><time>2026-03-28T09:45:54.578Z</time></trkpt><trkpt lat="45.3684647" lon="10.7608778"><ele>97.0</ele><time>2026-03-28T09:45:55.577Z</time></trkpt><trkpt lat="45.3685028" lon="10.7609951"><ele>97.0</ele><time>2026-03-28T09:45:56.578Z</time></trkpt><trkpt lat="45.3685437" lon="10.7611181"><ele>97.0</ele><time>2026-03-28T09:45:57.577Z</time></trkpt><trkpt lat="45.3685848" lon="10.7612563"><ele>97.0</ele><time>2026-03-28T09:45:58.578Z</time></trkpt><trkpt lat="45.3686358" lon="10.7614275"><ele>97.0</ele><time>2026-03-28T09:45:59.579Z</time></trkpt><trkpt lat="45.3687016" lon="10.7616218"><ele>97.0</ele><time>2026-03-28T09:46:00.579Z</time></trkpt><trkpt lat="45.3687741" lon="10.7618353"><ele>97.0</ele><time>2026-03-28T09:46:01.578Z</time></trkpt><trkpt lat="45.3688464" lon="10.7620662"><ele>97.0</ele><time>2026-03-28T09:46:02.578Z</time></trkpt><trkpt lat="45.3689201" lon="10.7623107"><ele>97.0</ele><time>2026-03-28T09:46:03.578Z</time></trkpt><trkpt lat="45.3689902" lon="10.7625646"><ele>96.66666666666667</ele><time>2026-03-28T09:46:04.579Z</time></trkpt><trkpt lat="45.3690571" lon="10.7628096"><ele>96.33333333333334</ele><time>2026-03-28T09:46:05.578Z</time></trkpt><trkpt lat="45.3691198" lon="10.7630373"><ele>96.0</ele><time>2026-03-28T09:46:06.578Z</time></trkpt><trkpt lat="45.3691767" lon="10.7632584"><ele>96.0</ele><time>2026-03-28T09:46:07.578Z</time></trkpt><trkpt lat="45.3692261" lon="10.7634712"><ele>96.0</ele><time>2026-03-28T09:46:08.579Z</time></trkpt><trkpt lat="45.3692607" lon="10.7636855"><ele>96.0</ele><time>2026-03-28T09:46:09.579Z</time></trkpt><trkpt lat="45.3692691" lon="10.7638968"><ele>96.25</ele><time>2026-03-28T09:46:10.579Z</time></trkpt><trkpt lat="45.3692552" lon="10.7641107"><ele>96.5</ele><time>2026-03-28T09:46:11.579Z</time></trkpt><trkpt lat="45.3692414" lon="10.7643144"><ele>96.75</ele><time>2026-03-28T09:46:12.579Z</time></trkpt><trkpt lat="45.3692307" lon="10.7645096"><ele>97.0</ele><time>2026-03-28T09:46:13.578Z</time></trkpt><trkpt lat="45.3692258" lon="10.7646879"><ele>97.0</ele><time>2026-03-28T09:46:14.579Z</time></trkpt><trkpt lat="45.3692329" lon="10.7648512"><ele>97.0</ele><time>2026-03-28T09:46:15.578Z</time></trkpt><trkpt lat="45.3692423" lon="10.7649983"><ele>97.0</ele><time>2026-03-28T09:46:16.578Z</time></trkpt><trkpt lat="45.369234" lon="10.7651368"><ele>97.0</ele><time>2026-03-28T09:46:17.579Z</time></trkpt><trkpt lat="45.3692046" lon="10.7652758"><ele>97.0</ele><time>2026-03-28T09:46:18.578Z</time></trkpt><trkpt lat="45.3691669" lon="10.7654122"><ele>97.0</ele><time>2026-03-28T09:46:19.579Z</time></trkpt><trkpt lat="45.3691171" lon="10.7655534"><ele>97.0</ele><time>2026-03-28T09:46:20.577Z</time></trkpt><trkpt lat="45.3690642" lon="10.7656886"><ele>97.0</ele><time>2026-03-28T09:46:21.577Z</time></trkpt><trkpt lat="45.3690106" lon="10.7658269"><ele>97.0</ele><time>2026-03-28T09:46:22.578Z</time></trkpt><trkpt lat="45.3689498" lon="10.7659791"><ele>97.25</ele><time>2026-03-28T09:46:23.579Z</time></trkpt><trkpt lat="45.3688888" lon="10.7661462"><ele>97.5</ele><time>2026-03-28T09:46:24.579Z</time></trkpt><trkpt lat="45.3688275" lon="10.7663293"><ele>97.75</ele><time>2026-03-28T09:46:25.578Z</time></trkpt><trkpt lat="45.3687658" lon="10.7665202"><ele>98.0</ele><time>2026-03-28T09:46:26.577Z</time></trkpt><trkpt lat="45.3687085" lon="10.7667052"><ele>96.75</ele><time>2026-03-28T09:46:27.579Z</time></trkpt><trkpt lat="45.3686545" lon="10.7668938"><ele>95.5</ele><time>2026-03-28T09:46:28.579Z</time></trkpt><trkpt lat="45.3686002" lon="10.7670853"><ele>94.25</ele><time>2026-03-28T09:46:29.577Z</time></trkpt><trkpt lat="45.3685504" lon="10.7672676"><ele>93.0</ele><time>2026-03-28T09:46:30.577Z</time></trkpt><trkpt lat="45.3685053" lon="10.7674465"><ele>93.0</ele><time>2026-03-28T09:46:31.577Z</time></trkpt><trkpt lat="45.368467" lon="10.7676227"><ele>93.0</ele><time>2026-03-28T09:46:32.578Z</time></trkpt><trkpt lat="45.3684324" lon="10.7678109"><ele>93.0</ele><time>2026-03-28T09:46:33.579Z</time></trkpt><trkpt lat="45.368396" lon="10.768015"><ele>93.0</ele><time>2026-03-28T09:46:34.579Z</time></trkpt><trkpt lat="45.368369" lon="10.7682329"><ele>93.0</ele><time>2026-03-28T09:46:35.578Z</time></trkpt><trkpt lat="45.3683475" lon="10.7684559"><ele>93.0</ele><time>2026-03-28T09:46:36.579Z</time></trkpt><trkpt lat="45.3683267" lon="10.768685"><ele>93.0</ele><time>2026-03-28T09:46:37.577Z</time></trkpt><trkpt lat="45.3683066" lon="10.7689065"><ele>93.25</ele><time>2026-03-28T09:46:38.578Z</time></trkpt><trkpt lat="45.3682849" lon="10.7691192"><ele>93.5</ele><time>2026-03-28T09:46:39.577Z</time></trkpt><trkpt lat="45.3682708" lon="10.7693226"><ele>93.75</ele><time>2026-03-28T09:46:40.578Z</time></trkpt><trkpt lat="45.3682675" lon="10.7695393"><ele>94.0</ele><time>2026-03-28T09:46:41.578Z</time></trkpt><trkpt lat="45.3682729" lon="10.7697545"><ele>94.25</ele><time>2026-03-28T09:46:42.579Z</time></trkpt><trkpt lat="45.368278" lon="10.7699504"><ele>94.5</ele><time>2026-03-28T09:46:43.578Z</time></trkpt><trkpt lat="45.3682825" lon="10.7701372"><ele>94.75</ele><time>2026-03-28T09:46:44.578Z</time></trkpt><trkpt lat="45.3682783" lon="10.7703237"><ele>95.0</ele><time>2026-03-28T09:46:45.578Z</time></trkpt><trkpt lat="45.3682641" lon="10.7705241"><ele>95.0</ele><time>2026-03-28T09:46:46.578Z</time></trkpt><trkpt lat="45.3682451" lon="10.7707336"><ele>95.0</ele><time>2026-03-28T09:46:47.578Z</time></trkpt><trkpt lat="45.3682163" lon="10.7709525"><ele>95.0</ele><time>2026-03-28T09:46:48.579Z</time></trkpt><trkpt lat="45.3681824" lon="10.7711722"><ele>95.5</ele><time>2026-03-28T09:46:49.579Z</time></trkpt><trkpt lat="45.3681375" lon="10.7713807"><ele>96.0</ele><time>2026-03-28T09:46:50.579Z</time></trkpt><trkpt lat="45.3680805" lon="10.7715601"><ele>96.5</ele><time>2026-03-28T09:46:51.579Z</time></trkpt><trkpt lat="45.3680217" lon="10.7717477"><ele>97.0</ele><time>2026-03-28T09:46:52.579Z</time></trkpt><trkpt lat="45.367964" lon="10.7719534"><ele>95.33333333333334</ele><time>2026-03-28T09:46:53.579Z</time></trkpt><trkpt lat="45.3679137" lon="10.7721633"><ele>93.66666666666667</ele><time>2026-03-28T09:46:54.578Z</time></trkpt><trkpt lat="45.3678712" lon="10.7723703"><ele>92.0</ele><time>2026-03-28T09:46:55.578Z</time></trkpt><trkpt lat="45.3678289" lon="10.7725742"><ele>91.75</ele><time>2026-03-28T09:46:56.578Z</time></trkpt><trkpt lat="45.3677983" lon="10.7727807"><ele>91.5</ele><time>2026-03-28T09:46:57.578Z</time></trkpt><trkpt lat="45.3677745" lon="10.7729685"><ele>91.25</ele><time>2026-03-28T09:46:58.578Z</time></trkpt><trkpt lat="45.3677508" lon="10.7731452"><ele>91.0</ele><time>2026-03-28T09:46:59.578Z</time></trkpt><trkpt lat="45.3677275" lon="10.7733241"><ele>91.0</ele><time>2026-03-28T09:47:00.579Z</time></trkpt><trkpt lat="45.3677043" lon="10.7735022"><ele>91.0</ele><time>2026-03-28T09:47:01.577Z</time></trkpt><trkpt lat="45.3676848" lon="10.7736685"><ele>91.0</ele><time>2026-03-28T09:47:02.577Z</time></trkpt><trkpt lat="45.3676669" lon="10.7738252"><ele>91.0</ele><time>2026-03-28T09:47:03.579Z</time></trkpt><trkpt lat="45.3676508" lon="10.7739679"><ele>91.75</ele><time>2026-03-28T09:47:04.578Z</time></trkpt><trkpt lat="45.367633" lon="10.7741178"><ele>92.5</ele><time>2026-03-28T09:47:05.578Z</time></trkpt><trkpt lat="45.3676169" lon="10.7742727"><ele>93.25</ele><time>2026-03-28T09:47:06.577Z</time></trkpt><trkpt lat="45.3675989" lon="10.7744336"><ele>94.0</ele><time>2026-03-28T09:47:07.578Z</time></trkpt><trkpt lat="45.3675816" lon="10.7746063"><ele>94.0</ele><time>2026-03-28T09:47:08.579Z</time></trkpt><trkpt lat="45.3675688" lon="10.7747784"><ele>94.0</ele><time>2026-03-28T09:47:09.578Z</time></trkpt><trkpt lat="45.3675529" lon="10.7749551"><ele>94.0</ele><time>2026-03-28T09:47:10.579Z</time></trkpt><trkpt lat="45.3675361" lon="10.7751414"><ele>94.0</ele><time>2026-03-28T09:47:11.579Z</time></trkpt><trkpt lat="45.3675179" lon="10.7753293"><ele>94.0</ele><time>2026-03-28T09:47:12.578Z</time></trkpt><trkpt lat="45.3674964" lon="10.7755159"><ele>94.0</ele><time>2026-03-28T09:47:13.578Z</time></trkpt><trkpt lat="45.3674733" lon="10.7757012"><ele>94.0</ele><time>2026-03-28T09:47:14.579Z</time></trkpt><trkpt lat="45.3674579" lon="10.7759037"><ele>94.0</ele><time>2026-03-28T09:47:15.577Z</time></trkpt><trkpt lat="45.3674398" lon="10.7760991"><ele>94.25</ele><time>2026-03-28T09:47:16.579Z</time></trkpt><trkpt lat="45.3674298" lon="10.7762764"><ele>94.5</ele><time>2026-03-28T09:47:17.578Z</time></trkpt><trkpt lat="45.3674162" lon="10.7764591"><ele>94.75</ele><time>2026-03-28T09:47:18.578Z</time></trkpt><trkpt lat="45.3674028" lon="10.7766319"><ele>95.0</ele><time>2026-03-28T09:47:19.579Z</time></trkpt><trkpt lat="45.3673949" lon="10.7768109"><ele>94.5</ele><time>2026-03-28T09:47:20.579Z</time></trkpt><trkpt lat="45.3673987" lon="10.7769961"><ele>94.0</ele><time>2026-03-28T09:47:21.579Z</time></trkpt><trkpt lat="45.3674125" lon="10.7771716"><ele>93.5</ele><time>2026-03-28T09:47:22.578Z</time></trkpt><trkpt lat="45.3674292" lon="10.7773681"><ele>93.0</ele><time>2026-03-28T09:47:23.578Z</time></trkpt><trkpt lat="45.3674461" lon="10.777569"><ele>92.25</ele><time>2026-03-28T09:47:24.578Z</time></trkpt><trkpt lat="45.3674735" lon="10.7777642"><ele>91.5</ele><time>2026-03-28T09:47:25.578Z</time></trkpt><trkpt lat="45.3674936" lon="10.7779474"><ele>90.75</ele><time>2026-03-28T09:47:26.578Z</time></trkpt><trkpt lat="45.3675082" lon="10.7781192"><ele>90.0</ele><time>2026-03-28T09:47:27.578Z</time></trkpt><trkpt lat="45.3675045" lon="10.7782976"><ele>90.0</ele><time>2026-03-28T09:47:28.578Z</time></trkpt><trkpt lat="45.3675029" lon="10.7784801"><ele>90.0</ele><time>2026-03-28T09:47:29.579Z</time></trkpt><trkpt lat="45.3674387" lon="10.7786668"><ele>90.0</ele><time>2026-03-28T09:47:30.579Z</time></trkpt><trkpt lat="45.3673955" lon="10.7788597"><ele>90.0</ele><time>2026-03-28T09:47:31.577Z</time></trkpt><trkpt lat="45.3673519" lon="10.7790379"><ele>89.6</ele><time>2026-03-28T09:47:32.578Z</time></trkpt><trkpt lat="45.3673169" lon="10.7791977"><ele>89.2</ele><time>2026-03-28T09:47:33.578Z</time></trkpt><trkpt lat="45.3672886" lon="10.7793419"><ele>88.80000000000001</ele><time>2026-03-28T09:47:34.577Z</time></trkpt><trkpt lat="45.3672719" lon="10.7794591"><ele>88.4</ele><time>2026-03-28T09:47:35.578Z</time></trkpt><trkpt lat="45.3672868" lon="10.7795898"><ele>88.0</ele><time>2026-03-28T09:47:37.579Z</time></trkpt><trkpt lat="45.3673946" lon="10.7796716"><ele>87.75</ele><time>2026-03-28T09:47:39.577Z</time></trkpt><trkpt lat="45.3674806" lon="10.7796904"><ele>87.5</ele><time>2026-03-28T09:47:40.578Z</time></trkpt><trkpt lat="45.3675874" lon="10.779716"><ele>87.25</ele><time>2026-03-28T09:47:41.578Z</time></trkpt><trkpt lat="45.3677102" lon="10.7797589"><ele>87.0</ele><time>2026-03-28T09:47:42.579Z</time></trkpt><trkpt lat="45.3678412" lon="10.7798164"><ele>87.0</ele><time>2026-03-28T09:47:43.579Z</time></trkpt><trkpt lat="45.3679774" lon="10.7798733"><ele>87.0</ele><time>2026-03-28T09:47:44.578Z</time></trkpt><trkpt lat="45.3681136" lon="10.7799215"><ele>87.0</ele><time>2026-03-28T09:47:45.578Z</time></trkpt><trkpt lat="45.3682407" lon="10.779965"><ele>87.0</ele><time>2026-03-28T09:47:46.578Z</time></trkpt><trkpt lat="45.3683679" lon="10.7800138"><ele>88.0</ele><time>2026-03-28T09:47:47.577Z</time></trkpt><trkpt lat="45.3685002" lon="10.7800659"><ele>89.0</ele><time>2026-03-28T09:47:48.579Z</time></trkpt><trkpt lat="45.3686329" lon="10.7801171"><ele>90.0</ele><time>2026-03-28T09:47:49.579Z</time></trkpt><trkpt lat="45.3687688" lon="10.7801664"><ele>91.0</ele><time>2026-03-28T09:47:50.577Z</time></trkpt><trkpt lat="45.3689089" lon="10.7802171"><ele>91.33333333333333</ele><time>2026-03-28T09:47:51.578Z</time></trkpt><trkpt lat="45.3690518" lon="10.7802811"><ele>91.66666666666667</ele><time>2026-03-28T09:47:52.578Z</time></trkpt><trkpt lat="45.3692014" lon="10.7803485"><ele>92.0</ele><time>2026-03-28T09:47:53.578Z</time></trkpt><trkpt lat="45.3693548" lon="10.7804132"><ele>92.0</ele><time>2026-03-28T09:47:54.578Z</time></trkpt><trkpt lat="45.3695064" lon="10.7804775"><ele>92.0</ele><time>2026-03-28T09:47:55.579Z</time></trkpt><trkpt lat="45.3696502" lon="10.780542"><ele>92.0</ele><time>2026-03-28T09:47:56.578Z</time></trkpt><trkpt lat="45.3697797" lon="10.7806126"><ele>92.0</ele><time>2026-03-28T09:47:57.578Z</time></trkpt><trkpt lat="45.3699026" lon="10.7806977"><ele>92.0</ele><time>2026-03-28T09:47:58.578Z</time></trkpt><trkpt lat="45.3700146" lon="10.780795"><ele>92.0</ele><time>2026-03-28T09:47:59.579Z</time></trkpt><trkpt lat="45.3701054" lon="10.7809103"><ele>92.0</ele><time>2026-03-28T09:48:00.579Z</time></trkpt><trkpt lat="45.3701813" lon="10.781037"><ele>92.0</ele><time>2026-03-28T09:48:01.579Z</time></trkpt><trkpt lat="45.3702532" lon="10.781154"><ele>92.0</ele><time>2026-03-28T09:48:02.578Z</time></trkpt><trkpt lat="45.370331" lon="10.7812368"><ele>92.0</ele><time>2026-03-28T09:48:03.578Z</time></trkpt><trkpt lat="45.3704256" lon="10.7812894"><ele>92.0</ele><time>2026-03-28T09:48:04.578Z</time></trkpt><trkpt lat="45.3705438" lon="10.7813289"><ele>92.0</ele><time>2026-03-28T09:48:05.578Z</time></trkpt><trkpt lat="45.3706696" lon="10.7813673"><ele>92.0</ele><time>2026-03-28T09:48:06.578Z</time></trkpt><trkpt lat="45.3707864" lon="10.7814101"><ele>91.5</ele><time>2026-03-28T09:48:07.579Z</time></trkpt><trkpt lat="45.3708971" lon="10.7814668"><ele>91.0</ele><time>2026-03-28T09:48:08.579Z</time></trkpt><trkpt lat="45.3710005" lon="10.7815466"><ele>90.5</ele><time>2026-03-28T09:48:09.579Z</time></trkpt><trkpt lat="45.3710997" lon="10.781638"><ele>90.0</ele><time>2026-03-28T09:48:10.579Z</time></trkpt><trkpt lat="45.3711981" lon="10.7817365"><ele>89.25</ele><time>2026-03-28T09:48:11.578Z</time></trkpt><trkpt lat="45.3713003" lon="10.7818531"><ele>88.5</ele><time>2026-03-28T09:48:12.578Z</time></trkpt><trkpt lat="45.3714077" lon="10.781981"><ele>87.75</ele><time>2026-03-28T09:48:13.579Z</time></trkpt><trkpt lat="45.3714972" lon="10.7820802"><ele>87.0</ele><time>2026-03-28T09:48:14.579Z</time></trkpt><trkpt lat="45.3715702" lon="10.7821458"><ele>87.0</ele><time>2026-03-28T09:48:15.578Z</time></trkpt><trkpt lat="45.3716389" lon="10.7822002"><ele>87.0</ele><time>2026-03-28T09:48:16.577Z</time></trkpt><trkpt lat="45.3717047" lon="10.7822437"><ele>87.0</ele><time>2026-03-28T09:48:17.579Z</time></trkpt><trkpt lat="45.3717637" lon="10.7822768"><ele>87.0</ele><time>2026-03-28T09:48:18.579Z</time></trkpt><trkpt lat="45.37187" lon="10.7823574"><ele>87.0</ele><time>2026-03-28T09:48:20.577Z</time></trkpt><trkpt lat="45.3719278" lon="10.7824144"><ele>87.0</ele><time>2026-03-28T09:48:21.577Z</time></trkpt><trkpt lat="45.3719873" lon="10.7824815"><ele>87.0</ele><time>2026-03-28T09:48:22.579Z</time></trkpt><trkpt lat="45.3720555" lon="10.7825484"><ele>87.0</ele><time>2026-03-28T09:48:23.578Z</time></trkpt><trkpt lat="45.3721342" lon="10.7826238"><ele>87.0</ele><time>2026-03-28T09:48:24.579Z</time></trkpt><trkpt lat="45.3722179" lon="10.782721"><ele>87.0</ele><time>2026-03-28T09:48:25.578Z</time></trkpt><trkpt lat="45.3723101" lon="10.7828411"><ele>87.0</ele><time>2026-03-28T09:48:26.577Z</time></trkpt><trkpt lat="45.3724178" lon="10.7829762"><ele>85.25</ele><time>2026-03-28T09:48:27.578Z</time></trkpt><trkpt lat="45.3725294" lon="10.7831218"><ele>83.5</ele><time>2026-03-28T09:48:28.579Z</time></trkpt><trkpt lat="45.3726379" lon="10.7832615"><ele>81.75</ele><time>2026-03-28T09:48:29.578Z</time></trkpt><trkpt lat="45.3727451" lon="10.7833827"><ele>80.0</ele><time>2026-03-28T09:48:30.579Z</time></trkpt><trkpt lat="45.3728583" lon="10.7834819"><ele>77.75</ele><time>2026-03-28T09:48:31.578Z</time></trkpt><trkpt lat="45.3729702" lon="10.7835619"><ele>75.5</ele><time>2026-03-28T09:48:32.578Z</time></trkpt><trkpt lat="45.3730804" lon="10.7836323"><ele>73.25</ele><time>2026-03-28T09:48:33.579Z</time></trkpt><trkpt lat="45.3731991" lon="10.7836876"><ele>71.0</ele><time>2026-03-28T09:48:34.578Z</time></trkpt><trkpt lat="45.3733298" lon="10.7837212"><ele>70.75</ele><time>2026-03-28T09:48:35.578Z</time></trkpt><trkpt lat="45.3734733" lon="10.7837353"><ele>70.5</ele><time>2026-03-28T09:48:36.578Z</time></trkpt><trkpt lat="45.3736203" lon="10.7837393"><ele>70.25</ele><time>2026-03-28T09:48:37.577Z</time></trkpt><trkpt lat="45.3737618" lon="10.7837442"><ele>70.0</ele><time>2026-03-28T09:48:38.578Z</time></trkpt><trkpt lat="45.3738872" lon="10.7837558"><ele>70.0</ele><time>2026-03-28T09:48:39.578Z</time></trkpt><trkpt lat="45.3739973" lon="10.7837655"><ele>70.0</ele><time>2026-03-28T09:48:40.578Z</time></trkpt><trkpt lat="45.3740903" lon="10.7837794"><ele>70.0</ele><time>2026-03-28T09:48:41.578Z</time></trkpt><trkpt lat="45.3741684" lon="10.7837982"><ele>70.0</ele><time>2026-03-28T09:48:42.578Z</time></trkpt><trkpt lat="45.3742394" lon="10.7838082"><ele>70.0</ele><time>2026-03-28T09:48:43.578Z</time></trkpt><trkpt lat="45.3743073" lon="10.7838198"><ele>70.0</ele><time>2026-03-28T09:48:44.578Z</time></trkpt><trkpt lat="45.3744124" lon="10.7838231"><ele>70.0</ele><time>2026-03-28T09:48:46.578Z</time></trkpt><trkpt lat="45.3745021" lon="10.7837769"><ele>70.0</ele><time>2026-03-28T09:48:48.579Z</time></trkpt><trkpt lat="45.3745661" lon="10.7837084"><ele>70.0</ele><time>2026-03-28T09:48:49.578Z</time></trkpt><trkpt lat="45.3746445" lon="10.7836097"><ele>70.0</ele><time>2026-03-28T09:48:50.578Z</time></trkpt><trkpt lat="45.3747406" lon="10.783477"><ele>70.0</ele><time>2026-03-28T09:48:51.578Z</time></trkpt><trkpt lat="45.3748432" lon="10.7833426"><ele>70.25</ele><time>2026-03-28T09:48:52.577Z</time></trkpt><trkpt lat="45.3749516" lon="10.7832223"><ele>70.5</ele><time>2026-03-28T09:48:53.578Z</time></trkpt><trkpt lat="45.3750799" lon="10.7831247"><ele>70.75</ele><time>2026-03-28T09:48:54.577Z</time></trkpt><trkpt lat="45.375227" lon="10.7830642"><ele>71.0</ele><time>2026-03-28T09:48:55.577Z</time></trkpt><trkpt lat="45.3753808" lon="10.7830201"><ele>70.5</ele><time>2026-03-28T09:48:56.578Z</time></trkpt><trkpt lat="45.3755271" lon="10.7829721"><ele>70.0</ele><time>2026-03-28T09:48:57.579Z</time></trkpt><trkpt lat="45.3756688" lon="10.7829203"><ele>69.5</ele><time>2026-03-28T09:48:58.579Z</time></trkpt><trkpt lat="45.3758096" lon="10.7828608"><ele>69.0</ele><time>2026-03-28T09:48:59.579Z</time></trkpt><trkpt lat="45.3759398" lon="10.782778"><ele>69.25</ele><time>2026-03-28T09:49:00.578Z</time></trkpt><trkpt lat="45.376062" lon="10.7826628"><ele>69.5</ele><time>2026-03-28T09:49:01.578Z</time></trkpt><trkpt lat="45.3761757" lon="10.7825321"><ele>69.75</ele><time>2026-03-28T09:49:02.578Z</time></trkpt><trkpt lat="45.3762824" lon="10.7823898"><ele>70.0</ele><time>2026-03-28T09:49:03.579Z</time></trkpt><trkpt lat="45.3763735" lon="10.7821874"><ele>70.0</ele><time>2026-03-28T09:49:04.578Z</time></trkpt><trkpt lat="45.3764547" lon="10.78203"><ele>70.0</ele><time>2026-03-28T09:49:05.578Z</time></trkpt><trkpt lat="45.3765255" lon="10.7818724"><ele>70.0</ele><time>2026-03-28T09:49:06.578Z</time></trkpt><trkpt lat="45.3766111" lon="10.7816636"><ele>70.0</ele><time>2026-03-28T09:49:07.579Z</time></trkpt><trkpt lat="45.3766919" lon="10.7814447"><ele>71.33333333333333</ele><time>2026-03-28T09:49:08.578Z</time></trkpt><trkpt lat="45.3767617" lon="10.7812464"><ele>72.66666666666667</ele><time>2026-03-28T09:49:09.578Z</time></trkpt><trkpt lat="45.3768277" lon="10.7810238"><ele>74.0</ele><time>2026-03-28T09:49:10.579Z</time></trkpt><trkpt lat="45.37689" lon="10.7807312"><ele>74.66666666666667</ele><time>2026-03-28T09:49:11.579Z</time></trkpt><trkpt lat="45.3769409" lon="10.7804526"><ele>75.33333333333333</ele><time>2026-03-28T09:49:12.578Z</time></trkpt><trkpt lat="45.3769884" lon="10.7801935"><ele>76.0</ele><time>2026-03-28T09:49:13.579Z</time></trkpt><trkpt lat="45.3770353" lon="10.7799284"><ele>78.66666666666666</ele><time>2026-03-28T09:49:14.578Z</time></trkpt><trkpt lat="45.3770835" lon="10.7796711"><ele>81.33333333333333</ele><time>2026-03-28T09:49:15.579Z</time></trkpt><trkpt lat="45.3771355" lon="10.7794277"><ele>84.0</ele><time>2026-03-28T09:49:16.578Z</time></trkpt><trkpt lat="45.377184" lon="10.7791751"><ele>81.5</ele><time>2026-03-28T09:49:17.578Z</time></trkpt><trkpt lat="45.3773067" lon="10.7788135"><ele>79.0</ele><time>2026-03-28T09:49:18.579Z</time></trkpt><trkpt lat="45.3774098" lon="10.7784863"><ele>79.0</ele><time>2026-03-28T09:49:19.579Z</time></trkpt><trkpt lat="45.3775096" lon="10.778204"><ele>79.0</ele><time>2026-03-28T09:49:20.578Z</time></trkpt><trkpt lat="45.3776161" lon="10.7779505"><ele>79.0</ele><time>2026-03-28T09:49:21.578Z</time></trkpt><trkpt lat="45.3777184" lon="10.7776929"><ele>78.2</ele><time>2026-03-28T09:49:22.579Z</time></trkpt><trkpt lat="45.3777788" lon="10.7775865"><ele>77.4</ele><time>2026-03-28T09:49:23.579Z</time></trkpt><trkpt lat="45.3778473" lon="10.777449"><ele>76.6</ele><time>2026-03-28T09:49:24.578Z</time></trkpt><trkpt lat="45.3779103" lon="10.7773173"><ele>75.8</ele><time>2026-03-28T09:49:25.577Z</time></trkpt><trkpt lat="45.3779767" lon="10.7772177"><ele>75.0</ele><time>2026-03-28T09:49:26.578Z</time></trkpt><trkpt lat="45.3780675" lon="10.7771683"><ele>75.0</ele><time>2026-03-28T09:49:27.578Z</time></trkpt><trkpt lat="45.3781663" lon="10.7771587"><ele>75.0</ele><time>2026-03-28T09:49:28.578Z</time></trkpt><trkpt lat="45.3782647" lon="10.7771869"><ele>75.0</ele><time>2026-03-28T09:49:29.579Z</time></trkpt><trkpt lat="45.3783588" lon="10.7772488"><ele>75.0</ele><time>2026-03-28T09:49:30.578Z</time></trkpt><trkpt lat="45.3784495" lon="10.7773133"><ele>75.0</ele><time>2026-03-28T09:49:31.578Z</time></trkpt><trkpt lat="45.3785525" lon="10.7773683"><ele>75.0</ele><time>2026-03-28T09:49:32.577Z</time></trkpt><trkpt lat="45.3786588" lon="10.7774024"><ele>75.0</ele><time>2026-03-28T09:49:33.579Z</time></trkpt><trkpt lat="45.3787732" lon="10.7773819"><ele>75.0</ele><time>2026-03-28T09:49:34.579Z</time></trkpt><trkpt lat="45.3789261" lon="10.7772991"><ele>75.0</ele><time>2026-03-28T09:49:35.578Z</time></trkpt><trkpt lat="45.3791172" lon="10.7771765"><ele>74.0</ele><time>2026-03-28T09:49:36.579Z</time></trkpt><trkpt lat="45.3793418" lon="10.7770429"><ele>73.0</ele><time>2026-03-28T09:49:37.577Z</time></trkpt><trkpt lat="45.3795814" lon="10.7768903"><ele>75.0</ele><time>2026-03-28T09:49:38.577Z</time></trkpt><trkpt lat="45.379793" lon="10.7767352"><ele>77.0</ele><time>2026-03-28T09:49:39.578Z</time></trkpt><trkpt lat="45.3799879" lon="10.7765839"><ele>77.0</ele><time>2026-03-28T09:49:40.579Z</time></trkpt><trkpt lat="45.3801752" lon="10.7764527"><ele>77.0</ele><time>2026-03-28T09:49:41.578Z</time></trkpt><trkpt lat="45.380378" lon="10.7763347"><ele>77.0</ele><time>2026-03-28T09:49:42.578Z</time></trkpt><trkpt lat="45.3805981" lon="10.7762148"><ele>76.5</ele><time>2026-03-28T09:49:43.578Z</time></trkpt><trkpt lat="45.3808491" lon="10.7760818"><ele>76.0</ele><time>2026-03-28T09:49:44.578Z</time></trkpt><trkpt lat="45.3810832" lon="10.7759559"><ele>77.0</ele><time>2026-03-28T09:49:45.579Z</time></trkpt><trkpt lat="45.381288" lon="10.7758401"><ele>78.0</ele><time>2026-03-28T09:49:46.579Z</time></trkpt><trkpt lat="45.3814735" lon="10.7757457"><ele>79.0</ele><time>2026-03-28T09:49:47.579Z</time></trkpt><trkpt lat="45.3816326" lon="10.7756528"><ele>79.0</ele><time>2026-03-28T09:49:48.578Z</time></trkpt><trkpt lat="45.3817665" lon="10.7755566"><ele>79.0</ele><time>2026-03-28T09:49:49.579Z</time></trkpt><trkpt lat="45.3818624" lon="10.7754361"><ele>79.0</ele><time>2026-03-28T09:49:50.579Z</time></trkpt><trkpt lat="45.3819106" lon="10.7752677"><ele>79.0</ele><time>2026-03-28T09:49:51.577Z</time></trkpt><trkpt lat="45.3818989" lon="10.7750689"><ele>81.0</ele><time>2026-03-28T09:49:52.578Z</time></trkpt><trkpt lat="45.3818393" lon="10.7748179"><ele>83.0</ele><time>2026-03-28T09:49:53.578Z</time></trkpt><trkpt lat="45.3817594" lon="10.7745466"><ele>85.0</ele><time>2026-03-28T09:49:54.579Z</time></trkpt><trkpt lat="45.3817162" lon="10.7743501"><ele>88.33333333333333</ele><time>2026-03-28T09:49:55.579Z</time></trkpt><trkpt lat="45.381703" lon="10.7741174"><ele>91.66666666666667</ele><time>2026-03-28T09:49:56.577Z</time></trkpt><trkpt lat="45.3816996" lon="10.7738336"><ele>95.0</ele><time>2026-03-28T09:49:57.578Z</time></trkpt><trkpt lat="45.3816816" lon="10.7735717"><ele>96.33333333333334</ele><time>2026-03-28T09:49:58.577Z</time></trkpt><trkpt lat="45.3816779" lon="10.7733425"><ele>97.66666666666667</ele><time>2026-03-28T09:49:59.579Z</time></trkpt><trkpt lat="45.3816878" lon="10.7731341"><ele>99.0</ele><time>2026-03-28T09:50:00.579Z</time></trkpt><trkpt lat="45.3817144" lon="10.7729303"><ele>99.33333333333334</ele><time>2026-03-28T09:50:01.577Z</time></trkpt><trkpt lat="45.3817693" lon="10.7726845"><ele>99.66666666666667</ele><time>2026-03-28T09:50:02.578Z</time></trkpt><trkpt lat="45.3818523" lon="10.7723979"><ele>100.0</ele><time>2026-03-28T09:50:03.579Z</time></trkpt><trkpt lat="45.3819604" lon="10.7720835"><ele>100.66666666666667</ele><time>2026-03-28T09:50:04.579Z</time></trkpt><trkpt lat="45.382059" lon="10.7717757"><ele>101.33333333333334</ele><time>2026-03-28T09:50:05.578Z</time></trkpt><trkpt lat="45.3821544" lon="10.7715169"><ele>102.0</ele><time>2026-03-28T09:50:06.578Z</time></trkpt><trkpt lat="45.3822632" lon="10.7712898"><ele>104.33333333333334</ele><time>2026-03-28T09:50:07.579Z</time></trkpt><trkpt lat="45.3823911" lon="10.771084"><ele>106.66666666666667</ele><time>2026-03-28T09:50:08.579Z</time></trkpt><trkpt lat="45.3825104" lon="10.770903"><ele>109.0</ele><time>2026-03-28T09:50:09.579Z</time></trkpt><trkpt lat="45.3826055" lon="10.7707533"><ele>109.2</ele><time>2026-03-28T09:50:10.578Z</time></trkpt><trkpt lat="45.3826766" lon="10.7706391"><ele>109.4</ele><time>2026-03-28T09:50:11.578Z</time></trkpt><trkpt lat="45.382732" lon="10.7705524"><ele>109.6</ele><time>2026-03-28T09:50:12.578Z</time></trkpt><trkpt lat="45.3828317" lon="10.7705475"><ele>109.8</ele><time>2026-03-28T09:50:14.578Z</time></trkpt><trkpt lat="45.382884" lon="10.7706367"><ele>110.0</ele><time>2026-03-28T09:50:15.578Z</time></trkpt><trkpt lat="45.3829598" lon="10.7708178"><ele>111.0</ele><time>2026-03-28T09:50:16.577Z</time></trkpt><trkpt lat="45.3830607" lon="10.7710198"><ele>112.0</ele><time>2026-03-28T09:50:17.579Z</time></trkpt><trkpt lat="45.3831727" lon="10.7712266"><ele>113.0</ele><time>2026-03-28T09:50:18.578Z</time></trkpt><trkpt lat="45.3833003" lon="10.7714312"><ele>113.0</ele><time>2026-03-28T09:50:19.577Z</time></trkpt><trkpt lat="45.3834224" lon="10.7716061"><ele>113.0</ele><time>2026-03-28T09:50:20.579Z</time></trkpt><trkpt lat="45.3835463" lon="10.7717642"><ele>113.0</ele><time>2026-03-28T09:50:21.578Z</time></trkpt><trkpt lat="45.383671" lon="10.7719115"><ele>112.25</ele><time>2026-03-28T09:50:22.579Z</time></trkpt><trkpt lat="45.3837878" lon="10.7720405"><ele>111.5</ele><time>2026-03-28T09:50:23.577Z</time></trkpt><trkpt lat="45.3838941" lon="10.7721462"><ele>110.75</ele><time>2026-03-28T09:50:24.579Z</time></trkpt><trkpt lat="45.3840031" lon="10.7722541"><ele>110.0</ele><time>2026-03-28T09:50:25.578Z</time></trkpt><trkpt lat="45.3841193" lon="10.7723703"><ele>110.33333333333333</ele><time>2026-03-28T09:50:26.578Z</time></trkpt><trkpt lat="45.3842344" lon="10.7725116"><ele>110.66666666666666</ele><time>2026-03-28T09:50:27.578Z</time></trkpt><trkpt lat="45.3843574" lon="10.7726519"><ele>111.0</ele><time>2026-03-28T09:50:28.579Z</time></trkpt><trkpt lat="45.384468" lon="10.7727761"><ele>111.0</ele><time>2026-03-28T09:50:29.579Z</time></trkpt><trkpt lat="45.3845743" lon="10.7728849"><ele>111.0</ele><time>2026-03-28T09:50:30.578Z</time></trkpt><trkpt lat="45.3846709" lon="10.7729652"><ele>111.0</ele><time>2026-03-28T09:50:31.578Z</time></trkpt><trkpt lat="45.3847662" lon="10.7730259"><ele>111.0</ele><time>2026-03-28T09:50:32.578Z</time></trkpt><trkpt lat="45.3848543" lon="10.7730688"><ele>111.0</ele><time>2026-03-28T09:50:33.579Z</time></trkpt><trkpt lat="45.3849414" lon="10.7731088"><ele>112.5</ele><time>2026-03-28T09:50:34.578Z</time></trkpt><trkpt lat="45.3850446" lon="10.7731414"><ele>114.0</ele><time>2026-03-28T09:50:35.579Z</time></trkpt><trkpt lat="45.3851736" lon="10.7731762"><ele>115.5</ele><time>2026-03-28T09:50:36.579Z</time></trkpt><trkpt lat="45.3852935" lon="10.7732129"><ele>117.0</ele><time>2026-03-28T09:50:37.578Z</time></trkpt><trkpt lat="45.3853984" lon="10.7732437"><ele>117.0</ele><time>2026-03-28T09:50:38.578Z</time></trkpt><trkpt lat="45.3854996" lon="10.7733192"><ele>117.0</ele><time>2026-03-28T09:50:39.579Z</time></trkpt><trkpt lat="45.3856068" lon="10.7734194"><ele>117.0</ele><time>2026-03-28T09:50:40.579Z</time></trkpt><trkpt lat="45.3857075" lon="10.7735331"><ele>117.0</ele><time>2026-03-28T09:50:41.579Z</time></trkpt><trkpt lat="45.3857977" lon="10.7736246"><ele>117.66666666666666</ele><time>2026-03-28T09:50:42.578Z</time></trkpt><trkpt lat="45.3859123" lon="10.7737281"><ele>118.33333333333333</ele><time>2026-03-28T09:50:43.578Z</time></trkpt><trkpt lat="45.3860205" lon="10.7738293"><ele>119.0</ele><time>2026-03-28T09:50:44.578Z</time></trkpt><trkpt lat="45.3861886" lon="10.7739619"><ele>119.0</ele><time>2026-03-28T09:50:45.578Z</time></trkpt><trkpt lat="45.3863352" lon="10.7741232"><ele>119.0</ele><time>2026-03-28T09:50:46.579Z</time></trkpt><trkpt lat="45.3864658" lon="10.7742758"><ele>119.0</ele><time>2026-03-28T09:50:47.578Z</time></trkpt><trkpt lat="45.3865756" lon="10.774396"><ele>119.5</ele><time>2026-03-28T09:50:48.578Z</time></trkpt><trkpt lat="45.3866718" lon="10.774499"><ele>120.0</ele><time>2026-03-28T09:50:49.578Z</time></trkpt><trkpt lat="45.386776" lon="10.7745955"><ele>120.5</ele><time>2026-03-28T09:50:50.578Z</time></trkpt><trkpt lat="45.3868657" lon="10.7746841"><ele>121.0</ele><time>2026-03-28T09:50:51.578Z</time></trkpt><trkpt lat="45.3869561" lon="10.7747937"><ele>121.0</ele><time>2026-03-28T09:50:52.579Z</time></trkpt><trkpt lat="45.3870261" lon="10.7749119"><ele>121.0</ele><time>2026-03-28T09:50:53.579Z</time></trkpt><trkpt lat="45.387129" lon="10.7750779"><ele>121.0</ele><time>2026-03-28T09:50:54.578Z</time></trkpt><trkpt lat="45.3872243" lon="10.7752055"><ele>121.0</ele><time>2026-03-28T09:50:55.578Z</time></trkpt><trkpt lat="45.3873398" lon="10.7753452"><ele>121.25</ele><time>2026-03-28T09:50:56.578Z</time></trkpt><trkpt lat="45.3874615" lon="10.77549"><ele>121.5</ele><time>2026-03-28T09:50:57.579Z</time></trkpt><trkpt lat="45.3875691" lon="10.7755681"><ele>121.75</ele><time>2026-03-28T09:50:58.579Z</time></trkpt><trkpt lat="45.3876897" lon="10.7756526"><ele>122.0</ele><time>2026-03-28T09:50:59.578Z</time></trkpt><trkpt lat="45.3877991" lon="10.7757297"><ele>122.0</ele><time>2026-03-28T09:51:00.578Z</time></trkpt><trkpt lat="45.3879013" lon="10.7758353"><ele>122.0</ele><time>2026-03-28T09:51:01.578Z</time></trkpt><trkpt lat="45.3879945" lon="10.7759633"><ele>122.0</ele><time>2026-03-28T09:51:02.577Z</time></trkpt><trkpt lat="45.3880777" lon="10.7760892"><ele>122.0</ele><time>2026-03-28T09:51:03.579Z</time></trkpt><trkpt lat="45.3881628" lon="10.7762134"><ele>121.6</ele><time>2026-03-28T09:51:04.578Z</time></trkpt><trkpt lat="45.3882322" lon="10.7763412"><ele>121.19999999999999</ele><time>2026-03-28T09:51:05.578Z</time></trkpt><trkpt lat="45.3882992" lon="10.7764656"><ele>120.8</ele><time>2026-03-28T09:51:06.578Z</time></trkpt><trkpt lat="45.3883565" lon="10.7765869"><ele>120.4</ele><time>2026-03-28T09:51:07.579Z</time></trkpt><trkpt lat="45.3884184" lon="10.7767015"><ele>120.0</ele><time>2026-03-28T09:51:08.578Z</time></trkpt><trkpt lat="45.3884689" lon="10.7768253"><ele>117.2</ele><time>2026-03-28T09:51:09.578Z</time></trkpt><trkpt lat="45.3885301" lon="10.7769491"><ele>114.4</ele><time>2026-03-28T09:51:10.579Z</time></trkpt><trkpt lat="45.3885914" lon="10.7770854"><ele>111.6</ele><time>2026-03-28T09:51:11.579Z</time></trkpt><trkpt lat="45.3886469" lon="10.7772161"><ele>108.8</ele><time>2026-03-28T09:51:12.578Z</time></trkpt><trkpt lat="45.3886981" lon="10.7773577"><ele>106.0</ele><time>2026-03-28T09:51:13.577Z</time></trkpt><trkpt lat="45.388744" lon="10.777517"><ele>106.0</ele><time>2026-03-28T09:51:14.579Z</time></trkpt><trkpt lat="45.3887862" lon="10.7776844"><ele>106.0</ele><time>2026-03-28T09:51:15.578Z</time></trkpt><trkpt lat="45.3888233" lon="10.777848"><ele>106.0</ele><time>2026-03-28T09:51:16.577Z</time></trkpt><trkpt lat="45.3888644" lon="10.7779941"><ele>106.0</ele><time>2026-03-28T09:51:17.579Z</time></trkpt><trkpt lat="45.3888979" lon="10.7780932"><ele>106.0</ele><time>2026-03-28T09:51:18.579Z</time></trkpt><trkpt lat="45.3889306" lon="10.7781712"><ele>107.25</ele><time>2026-03-28T09:51:20.577Z</time></trkpt><trkpt lat="45.3890409" lon="10.7781688"><ele>108.5</ele><time>2026-03-28T09:51:30.578Z</time></trkpt><trkpt lat="45.389155" lon="10.7782225"><ele>109.75</ele><time>2026-03-28T09:51:31.579Z</time></trkpt><trkpt lat="45.3892696" lon="10.7783019"><ele>111.0</ele><time>2026-03-28T09:51:32.577Z</time></trkpt><trkpt lat="45.3893862" lon="10.7783736"><ele>111.0</ele><time>2026-03-28T09:51:33.578Z</time></trkpt><trkpt lat="45.389519" lon="10.7784452"><ele>111.0</ele><time>2026-03-28T09:51:34.579Z</time></trkpt><trkpt lat="45.3896722" lon="10.7785462"><ele>111.0</ele><time>2026-03-28T09:51:35.579Z</time></trkpt><trkpt lat="45.3898256" lon="10.7786545"><ele>110.5</ele><time>2026-03-28T09:51:36.577Z</time></trkpt><trkpt lat="45.3899628" lon="10.7787426"><ele>110.0</ele><time>2026-03-28T09:51:37.577Z</time></trkpt><trkpt lat="45.3900853" lon="10.7788282"><ele>109.5</ele><time>2026-03-28T09:51:38.579Z</time></trkpt><trkpt lat="45.3901976" lon="10.7789081"><ele>109.0</ele><time>2026-03-28T09:51:39.579Z</time></trkpt><trkpt lat="45.3902924" lon="10.7789654"><ele>109.0</ele><time>2026-03-28T09:51:40.579Z</time></trkpt><trkpt lat="45.3903768" lon="10.7790084"><ele>109.0</ele><time>2026-03-28T09:51:41.578Z</time></trkpt><trkpt lat="45.3904244" lon="10.7789193"><ele>109.0</ele><time>2026-03-28T09:51:43.579Z</time></trkpt><trkpt lat="45.3904434" lon="10.7787931"><ele>109.0</ele><time>2026-03-28T09:51:44.578Z</time></trkpt><trkpt lat="45.3904659" lon="10.7786356"><ele>109.0</ele><time>2026-03-28T09:51:45.578Z</time></trkpt><trkpt lat="45.3904943" lon="10.7784409"><ele>110.5</ele><time>2026-03-28T09:51:46.578Z</time></trkpt><trkpt lat="45.3905308" lon="10.7782652"><ele>112.0</ele><time>2026-03-28T09:51:47.578Z</time></trkpt><trkpt lat="45.3905746" lon="10.7781194"><ele>113.5</ele><time>2026-03-28T09:51:48.578Z</time></trkpt><trkpt lat="45.390635" lon="10.7779992"><ele>115.0</ele><time>2026-03-28T09:51:49.579Z</time></trkpt><trkpt lat="45.3907216" lon="10.7778958"><ele>115.0</ele><time>2026-03-28T09:51:50.579Z</time></trkpt><trkpt lat="45.3908135" lon="10.7777987"><ele>115.0</ele><time>2026-03-28T09:51:51.579Z</time></trkpt><trkpt lat="45.3908948" lon="10.7776908"><ele>115.0</ele><time>2026-03-28T09:51:52.579Z</time></trkpt><trkpt lat="45.3909553" lon="10.7775591"><ele>115.0</ele><time>2026-03-28T09:51:53.579Z</time></trkpt><trkpt lat="45.3910029" lon="10.7774464"><ele>115.0</ele><time>2026-03-28T09:51:54.579Z</time></trkpt><trkpt lat="45.3910418" lon="10.7773323"><ele>114.8</ele><time>2026-03-28T09:51:55.578Z</time></trkpt><trkpt lat="45.391072" lon="10.7772117"><ele>114.6</ele><time>2026-03-28T09:51:56.578Z</time></trkpt><trkpt lat="45.3910284" lon="10.777031"><ele>114.4</ele><time>2026-03-28T09:51:57.578Z</time></trkpt><trkpt lat="45.3909893" lon="10.7769018"><ele>114.2</ele><time>2026-03-28T09:51:58.577Z</time></trkpt><trkpt lat="45.3909434" lon="10.776782"><ele>114.0</ele><time>2026-03-28T09:51:59.579Z</time></trkpt><trkpt lat="45.3909077" lon="10.7766863"><ele>114.0</ele><time>2026-03-28T09:52:00.579Z</time></trkpt><trkpt lat="45.3908486" lon="10.7765887"><ele>114.0</ele><time>2026-03-28T09:52:01.578Z</time></trkpt><trkpt lat="45.3907781" lon="10.7764849"><ele>114.0</ele><time>2026-03-28T09:52:02.578Z</time></trkpt><trkpt lat="45.3907152" lon="10.7763891"><ele>114.0</ele><time>2026-03-28T09:52:03.578Z</time></trkpt><trkpt lat="45.3906668" lon="10.7762836"><ele>114.0</ele><time>2026-03-28T09:52:04.578Z</time></trkpt><trkpt lat="45.3906198" lon="10.7761826"><ele>114.0</ele><time>2026-03-28T09:52:05.577Z</time></trkpt><trkpt lat="45.3905908" lon="10.7760828"><ele>114.0</ele><time>2026-03-28T09:52:06.578Z</time></trkpt><trkpt lat="45.3905995" lon="10.7759422"><ele>114.0</ele><time>2026-03-28T09:52:07.579Z</time></trkpt><trkpt lat="45.3906108" lon="10.7757777"><ele>114.0</ele><time>2026-03-28T09:52:08.579Z</time></trkpt><trkpt lat="45.3906279" lon="10.7755862"><ele>114.0</ele><time>2026-03-28T09:52:09.578Z</time></trkpt><trkpt lat="45.3906287" lon="10.7754026"><ele>111.75</ele><time>2026-03-28T09:52:10.578Z</time></trkpt><trkpt lat="45.3906217" lon="10.7752122"><ele>109.5</ele><time>2026-03-28T09:52:11.578Z</time></trkpt><trkpt lat="45.3906135" lon="10.7749916"><ele>107.25</ele><time>2026-03-28T09:52:12.578Z</time></trkpt><trkpt lat="45.3905976" lon="10.7747701"><ele>105.0</ele><time>2026-03-28T09:52:13.579Z</time></trkpt><trkpt lat="45.3905641" lon="10.7745605"><ele>104.75</ele><time>2026-03-28T09:52:14.579Z</time></trkpt><trkpt lat="45.3905166" lon="10.7743627"><ele>104.5</ele><time>2026-03-28T09:52:15.578Z</time></trkpt><trkpt lat="45.3904689" lon="10.7741827"><ele>104.25</ele><time>2026-03-28T09:52:16.578Z</time></trkpt><trkpt lat="45.3904261" lon="10.7740327"><ele>104.0</ele><time>2026-03-28T09:52:17.578Z</time></trkpt><trkpt lat="45.3903979" lon="10.7738989"><ele>103.4</ele><time>2026-03-28T09:52:18.579Z</time></trkpt><trkpt lat="45.3903802" lon="10.7737582"><ele>102.80000000000001</ele><time>2026-03-28T09:52:19.578Z</time></trkpt><trkpt lat="45.3903671" lon="10.7736156"><ele>102.19999999999999</ele><time>2026-03-28T09:52:20.578Z</time></trkpt><trkpt lat="45.3904958" lon="10.77357"><ele>101.6</ele><time>2026-03-28T09:52:22.578Z</time></trkpt><trkpt lat="45.39057" lon="10.7735532"><ele>101.0</ele><time>2026-03-28T09:52:23.578Z</time></trkpt><trkpt lat="45.3906393" lon="10.7735191"><ele>100.4</ele><time>2026-03-28T09:52:24.578Z</time></trkpt><trkpt lat="45.3907219" lon="10.7734662"><ele>99.8</ele><time>2026-03-28T09:52:25.578Z</time></trkpt><trkpt lat="45.3908141" lon="10.7734133"><ele>99.2</ele><time>2026-03-28T09:52:26.578Z</time></trkpt><trkpt lat="45.3909058" lon="10.7733594"><ele>98.60000000000001</ele><time>2026-03-28T09:52:27.579Z</time></trkpt><trkpt lat="45.3910137" lon="10.7732827"><ele>98.0</ele><time>2026-03-28T09:52:28.579Z</time></trkpt><trkpt lat="45.3911318" lon="10.7732003"><ele>98.0</ele><time>2026-03-28T09:52:29.578Z</time></trkpt><trkpt lat="45.3912374" lon="10.7731013"><ele>98.0</ele><time>2026-03-28T09:52:30.578Z</time></trkpt><trkpt lat="45.3913394" lon="10.7730007"><ele>98.0</ele><time>2026-03-28T09:52:31.579Z</time></trkpt><trkpt lat="45.391444" lon="10.7728428"><ele>98.0</ele><time>2026-03-28T09:52:32.578Z</time></trkpt><trkpt lat="45.3915599" lon="10.7726995"><ele>95.25</ele><time>2026-03-28T09:52:33.578Z</time></trkpt><trkpt lat="45.391685" lon="10.7725738"><ele>92.5</ele><time>2026-03-28T09:52:34.577Z</time></trkpt><trkpt lat="45.3918013" lon="10.7724607"><ele>89.75</ele><time>2026-03-28T09:52:35.578Z</time></trkpt><trkpt lat="45.3918979" lon="10.7723591"><ele>87.0</ele><time>2026-03-28T09:52:36.578Z</time></trkpt><trkpt lat="45.3919806" lon="10.7722475"><ele>87.0</ele><time>2026-03-28T09:52:37.578Z</time></trkpt><trkpt lat="45.3920603" lon="10.7721236"><ele>87.0</ele><time>2026-03-28T09:52:38.578Z</time></trkpt><trkpt lat="45.3921337" lon="10.772"><ele>87.0</ele><time>2026-03-28T09:52:39.579Z</time></trkpt><trkpt lat="45.3922131" lon="10.7718849"><ele>87.0</ele><time>2026-03-28T09:52:40.578Z</time></trkpt><trkpt lat="45.3923132" lon="10.7717942"><ele>86.8</ele><time>2026-03-28T09:52:41.579Z</time></trkpt><trkpt lat="45.3924098" lon="10.7717065"><ele>86.6</ele><time>2026-03-28T09:52:42.578Z</time></trkpt><trkpt lat="45.3924838" lon="10.7716196"><ele>86.39999999999999</ele><time>2026-03-28T09:52:43.578Z</time></trkpt><trkpt lat="45.3925394" lon="10.7715111"><ele>86.19999999999999</ele><time>2026-03-28T09:52:44.578Z</time></trkpt><trkpt lat="45.3925732" lon="10.7713995"><ele>86.0</ele><time>2026-03-28T09:52:45.579Z</time></trkpt><trkpt lat="45.3925833" lon="10.7712819"><ele>86.0</ele><time>2026-03-28T09:52:46.579Z</time></trkpt><trkpt lat="45.3925898" lon="10.7711637"><ele>86.0</ele><time>2026-03-28T09:52:47.578Z</time></trkpt><trkpt lat="45.3925709" lon="10.7710214"><ele>86.0</ele><time>2026-03-28T09:52:48.578Z</time></trkpt><trkpt lat="45.3925301" lon="10.7707971"><ele>86.0</ele><time>2026-03-28T09:52:49.579Z</time></trkpt><trkpt lat="45.3924982" lon="10.7706195"><ele>85.8</ele><time>2026-03-28T09:52:50.578Z</time></trkpt><trkpt lat="45.3924845" lon="10.7704856"><ele>85.6</ele><time>2026-03-28T09:52:51.577Z</time></trkpt><trkpt lat="45.3924895" lon="10.7703936"><ele>85.4</ele><time>2026-03-28T09:52:52.579Z</time></trkpt><trkpt lat="45.3925726" lon="10.7702954"><ele>85.2</ele><time>2026-03-28T09:52:54.578Z</time></trkpt><trkpt lat="45.3926488" lon="10.7702817"><ele>85.0</ele><time>2026-03-28T09:52:55.577Z</time></trkpt><trkpt lat="45.3927594" lon="10.7702886"><ele>85.0</ele><time>2026-03-28T09:52:56.579Z</time></trkpt><trkpt lat="45.3928976" lon="10.7702955"><ele>85.0</ele><time>2026-03-28T09:52:57.579Z</time></trkpt><trkpt lat="45.3930533" lon="10.770295"><ele>85.0</ele><time>2026-03-28T09:52:58.579Z</time></trkpt><trkpt lat="45.3932003" lon="10.7702861"><ele>85.0</ele><time>2026-03-28T09:52:59.579Z</time></trkpt><trkpt lat="45.3933302" lon="10.7702836"><ele>85.5</ele><time>2026-03-28T09:53:00.578Z</time></trkpt><trkpt lat="45.3934616" lon="10.7703002"><ele>86.0</ele><time>2026-03-28T09:53:01.579Z</time></trkpt><trkpt lat="45.3936072" lon="10.7703364"><ele>86.5</ele><time>2026-03-28T09:53:02.578Z</time></trkpt><trkpt lat="45.3937698" lon="10.770387"><ele>87.0</ele><time>2026-03-28T09:53:03.578Z</time></trkpt><trkpt lat="45.3939354" lon="10.7704472"><ele>89.0</ele><time>2026-03-28T09:53:04.579Z</time></trkpt><trkpt lat="45.3940789" lon="10.770514"><ele>91.0</ele><time>2026-03-28T09:53:05.578Z</time></trkpt><trkpt lat="45.3942117" lon="10.7705703"><ele>93.0</ele><time>2026-03-28T09:53:06.577Z</time></trkpt><trkpt lat="45.3943024" lon="10.7706399"><ele>95.0</ele><time>2026-03-28T09:53:07.578Z</time></trkpt><trkpt lat="45.3943935" lon="10.7707269"><ele>95.0</ele><time>2026-03-28T09:53:08.578Z</time></trkpt><trkpt lat="45.3944766" lon="10.7708231"><ele>95.0</ele><time>2026-03-28T09:53:09.578Z</time></trkpt><trkpt lat="45.3945536" lon="10.7709242"><ele>95.0</ele><time>2026-03-28T09:53:10.579Z</time></trkpt><trkpt lat="45.3946336" lon="10.7710303"><ele>95.0</ele><time>2026-03-28T09:53:11.578Z</time></trkpt><trkpt lat="45.3947161" lon="10.7711377"><ele>95.0</ele><time>2026-03-28T09:53:12.578Z</time></trkpt><trkpt lat="45.3948034" lon="10.7712436"><ele>96.25</ele><time>2026-03-28T09:53:13.579Z</time></trkpt><trkpt lat="45.3948917" lon="10.7713538"><ele>97.5</ele><time>2026-03-28T09:53:14.578Z</time></trkpt><trkpt lat="45.3949821" lon="10.7714783"><ele>98.75</ele><time>2026-03-28T09:53:15.578Z</time></trkpt><trkpt lat="45.3950826" lon="10.7716167"><ele>100.0</ele><time>2026-03-28T09:53:16.578Z</time></trkpt><trkpt lat="45.3951848" lon="10.7717719"><ele>97.66666666666667</ele><time>2026-03-28T09:53:17.579Z</time></trkpt><trkpt lat="45.3952861" lon="10.7719428"><ele>95.33333333333334</ele><time>2026-03-28T09:53:18.579Z</time></trkpt><trkpt lat="45.3953946" lon="10.772124"><ele>93.0</ele><time>2026-03-28T09:53:19.579Z</time></trkpt><trkpt lat="45.3954512" lon="10.7723259"><ele>98.0</ele><time>2026-03-28T09:53:20.578Z</time></trkpt><trkpt lat="45.3955352" lon="10.7725047"><ele>103.0</ele><time>2026-03-28T09:53:21.578Z</time></trkpt><trkpt lat="45.3955946" lon="10.7726987"><ele>108.0</ele><time>2026-03-28T09:53:22.579Z</time></trkpt><trkpt lat="45.3956671" lon="10.7728987"><ele>108.0</ele><time>2026-03-28T09:53:23.579Z</time></trkpt><trkpt lat="45.3957277" lon="10.7730744"><ele>108.00000000000001</ele><time>2026-03-28T09:53:24.578Z</time></trkpt><trkpt lat="45.3957732" lon="10.7732052"><ele>108.00000000000001</ele><time>2026-03-28T09:53:25.578Z</time></trkpt><trkpt lat="45.3958195" lon="10.7733546"><ele>108.0</ele><time>2026-03-28T09:53:26.578Z</time></trkpt><trkpt lat="45.3958496" lon="10.7734755"><ele>108.0</ele><time>2026-03-28T09:53:27.579Z</time></trkpt><trkpt lat="45.3958763" lon="10.7735854"><ele>107.5</ele><time>2026-03-28T09:53:28.579Z</time></trkpt><trkpt lat="45.3959027" lon="10.7737028"><ele>107.0</ele><time>2026-03-28T09:53:29.578Z</time></trkpt><trkpt lat="45.3959174" lon="10.7738323"><ele>106.5</ele><time>2026-03-28T09:53:30.579Z</time></trkpt><trkpt lat="45.3959505" lon="10.7739669"><ele>106.0</ele><time>2026-03-28T09:53:31.579Z</time></trkpt><trkpt lat="45.3959721" lon="10.774081"><ele>105.5</ele><time>2026-03-28T09:53:32.578Z</time></trkpt><trkpt lat="45.3960004" lon="10.7741882"><ele>105.0</ele><time>2026-03-28T09:53:33.578Z</time></trkpt><trkpt lat="45.3960669" lon="10.7742503"><ele>105.0</ele><time>2026-03-28T09:53:34.577Z</time></trkpt><trkpt lat="45.3961317" lon="10.7743054"><ele>105.0</ele><time>2026-03-28T09:53:35.579Z</time></trkpt><trkpt lat="45.3962126" lon="10.7743503"><ele>105.0</ele><time>2026-03-28T09:53:36.578Z</time></trkpt><trkpt lat="45.3963112" lon="10.7743859"><ele>105.0</ele><time>2026-03-28T09:53:37.579Z</time></trkpt><trkpt lat="45.396427" lon="10.7744151"><ele>105.0</ele><time>2026-03-28T09:53:38.579Z</time></trkpt><trkpt lat="45.3965654" lon="10.7744323"><ele>106.2</ele><time>2026-03-28T09:53:39.579Z</time></trkpt><trkpt lat="45.3967128" lon="10.7744421"><ele>107.4</ele><time>2026-03-28T09:53:40.578Z</time></trkpt><trkpt lat="45.3968124" lon="10.7744534"><ele>108.6</ele><time>2026-03-28T09:53:41.579Z</time></trkpt><trkpt lat="45.3968829" lon="10.7744719"><ele>109.8</ele><time>2026-03-28T09:53:42.579Z</time></trkpt><trkpt lat="45.3969499" lon="10.7745471"><ele>111.0</ele><time>2026-03-28T09:53:44.579Z</time></trkpt><trkpt lat="45.3969307" lon="10.7747067"><ele>111.0</ele><time>2026-03-28T09:53:46.578Z</time></trkpt><trkpt lat="45.3968866" lon="10.7748333"><ele>111.0</ele><time>2026-03-28T09:53:47.577Z</time></trkpt><trkpt lat="45.3968491" lon="10.7750033"><ele>111.0</ele><time>2026-03-28T09:53:48.579Z</time></trkpt><trkpt lat="45.3968212" lon="10.7751895"><ele>111.0</ele><time>2026-03-28T09:53:49.579Z</time></trkpt><trkpt lat="45.3967913" lon="10.7754024"><ele>111.5</ele><time>2026-03-28T09:53:50.579Z</time></trkpt><trkpt lat="45.3967688" lon="10.7756026"><ele>112.0</ele><time>2026-03-28T09:53:51.578Z</time></trkpt><trkpt lat="45.3967562" lon="10.7757884"><ele>112.5</ele><time>2026-03-28T09:53:52.579Z</time></trkpt><trkpt lat="45.3967513" lon="10.7759487"><ele>113.0</ele><time>2026-03-28T09:53:53.579Z</time></trkpt><trkpt lat="45.3967541" lon="10.776063"><ele>113.0</ele><time>2026-03-28T09:53:54.577Z</time></trkpt><trkpt lat="45.3968037" lon="10.7762127"><ele>113.0</ele><time>2026-03-28T09:53:56.578Z</time></trkpt><trkpt lat="45.396929" lon="10.776321"><ele>113.0</ele><time>2026-03-28T09:53:58.578Z</time></trkpt><trkpt lat="45.3970906" lon="10.776276"><ele>113.0</ele><time>2026-03-28T09:53:59.579Z</time></trkpt><trkpt lat="45.397217" lon="10.7763203"><ele>114.25</ele><time>2026-03-28T09:54:00.578Z</time></trkpt><trkpt lat="45.3973594" lon="10.7763667"><ele>115.5</ele><time>2026-03-28T09:54:01.578Z</time></trkpt><trkpt lat="45.3974977" lon="10.7764024"><ele>116.75</ele><time>2026-03-28T09:54:02.579Z</time></trkpt><trkpt lat="45.3976333" lon="10.7764159"><ele>118.0</ele><time>2026-03-28T09:54:03.579Z</time></trkpt><trkpt lat="45.3977484" lon="10.7763999"><ele>118.00000000000001</ele><time>2026-03-28T09:54:04.578Z</time></trkpt><trkpt lat="45.397845" lon="10.7764"><ele>118.0</ele><time>2026-03-28T09:54:05.578Z</time></trkpt><trkpt lat="45.3979092" lon="10.776421"><ele>118.0</ele><time>2026-03-28T09:54:06.578Z</time></trkpt><trkpt lat="45.3979909" lon="10.7765429"><ele>118.0</ele><time>2026-03-28T09:54:08.579Z</time></trkpt><trkpt lat="45.3980021" lon="10.7766388"><ele>118.00000000000001</ele><time>2026-03-28T09:54:09.579Z</time></trkpt><trkpt lat="45.3980277" lon="10.7767622"><ele>118.0</ele><time>2026-03-28T09:54:10.578Z</time></trkpt><trkpt lat="45.3980607" lon="10.7768469"><ele>119.0</ele><time>2026-03-28T09:54:11.578Z</time></trkpt><trkpt lat="45.398164" lon="10.776904"><ele>120.00000000000001</ele><time>2026-03-28T09:54:13.578Z</time></trkpt><trkpt lat="45.3982549" lon="10.7769039"><ele>121.00000000000001</ele><time>2026-03-28T09:54:14.579Z</time></trkpt><trkpt lat="45.3983681" lon="10.776926"><ele>122.0</ele><time>2026-03-28T09:54:15.579Z</time></trkpt><trkpt lat="45.398488" lon="10.7769433"><ele>123.0</ele><time>2026-03-28T09:54:16.578Z</time></trkpt><trkpt lat="45.3985963" lon="10.7769596"><ele>123.0</ele><time>2026-03-28T09:54:17.578Z</time></trkpt><trkpt lat="45.3986432" lon="10.7770488"><ele>123.00000000000001</ele><time>2026-03-28T09:54:18.579Z</time></trkpt><trkpt lat="45.3987073" lon="10.7771497"><ele>123.00000000000001</ele><time>2026-03-28T09:54:19.579Z</time></trkpt><trkpt lat="45.3987636" lon="10.7772553"><ele>123.0</ele><time>2026-03-28T09:54:20.578Z</time></trkpt><trkpt lat="45.3988121" lon="10.7774388"><ele>123.0</ele><time>2026-03-28T09:54:21.578Z</time></trkpt><trkpt lat="45.3989008" lon="10.7775767"><ele>123.0</ele><time>2026-03-28T09:54:22.578Z</time></trkpt><trkpt lat="45.3990172" lon="10.7777338"><ele>123.0</ele><time>2026-03-28T09:54:23.577Z</time></trkpt><trkpt lat="45.3991167" lon="10.7778716"><ele>123.0</ele><time>2026-03-28T09:54:24.579Z</time></trkpt><trkpt lat="45.3991762" lon="10.7779279"><ele>123.0</ele><time>2026-03-28T09:54:25.579Z</time></trkpt><trkpt lat="45.39918" lon="10.7781086"><ele>123.0</ele><time>2026-03-28T09:54:27.578Z</time></trkpt><trkpt lat="45.3991868" lon="10.7782891"><ele>123.0</ele><time>2026-03-28T09:54:28.579Z</time></trkpt><trkpt lat="45.3992149" lon="10.7785009"><ele>123.0</ele><time>2026-03-28T09:54:29.579Z</time></trkpt><trkpt lat="45.3992409" lon="10.7787126"><ele>123.0</ele><time>2026-03-28T09:54:30.58Z</time></trkpt><trkpt lat="45.3992687" lon="10.7789345"><ele>122.75</ele><time>2026-03-28T09:54:31.58Z</time></trkpt><trkpt lat="45.3992921" lon="10.7791379"><ele>122.5</ele><time>2026-03-28T09:54:32.58Z</time></trkpt><trkpt lat="45.3993129" lon="10.779303"><ele>122.25</ele><time>2026-03-28T09:54:33.58Z</time></trkpt><trkpt lat="45.3993268" lon="10.7794686"><ele>122.0</ele><time>2026-03-28T09:54:34.579Z</time></trkpt><trkpt lat="45.3993275" lon="10.7796185"><ele>121.83333333333333</ele><time>2026-03-28T09:54:35.58Z</time></trkpt><trkpt lat="45.3993298" lon="10.7797387"><ele>121.66666666666666</ele><time>2026-03-28T09:54:36.579Z</time></trkpt><trkpt lat="45.399379" lon="10.779862"><ele>121.5</ele><time>2026-03-28T09:54:38.58Z</time></trkpt><trkpt lat="45.3994542" lon="10.7798739"><ele>121.33333333333334</ele><time>2026-03-28T09:54:40.58Z</time></trkpt><trkpt lat="45.3995645" lon="10.7798684"><ele>121.16666666666667</ele><time>2026-03-28T09:54:42.58Z</time></trkpt><trkpt lat="45.3996422" lon="10.7798709"><ele>121.0</ele><time>2026-03-28T09:54:43.578Z</time></trkpt><trkpt lat="45.399739" lon="10.7798665"><ele>121.0</ele><time>2026-03-28T09:54:44.579Z</time></trkpt><trkpt lat="45.399855" lon="10.7798606"><ele>121.0</ele><time>2026-03-28T09:54:45.58Z</time></trkpt><trkpt lat="45.3999872" lon="10.7798541"><ele>121.0</ele><time>2026-03-28T09:54:46.578Z</time></trkpt><trkpt lat="45.4001296" lon="10.7798524"><ele>121.0</ele><time>2026-03-28T09:54:47.579Z</time></trkpt><trkpt lat="45.400267" lon="10.7798495"><ele>121.0</ele><time>2026-03-28T09:54:48.579Z</time></trkpt><trkpt lat="45.4003819" lon="10.7798475"><ele>121.0</ele><time>2026-03-28T09:54:49.58Z</time></trkpt><trkpt lat="45.4004895" lon="10.7798715"><ele>121.0</ele><time>2026-03-28T09:54:50.578Z</time></trkpt><trkpt lat="45.4005953" lon="10.7799363"><ele>121.0</ele><time>2026-03-28T09:54:51.578Z</time></trkpt><trkpt lat="45.4007227" lon="10.7800277"><ele>121.0</ele><time>2026-03-28T09:54:52.579Z</time></trkpt><trkpt lat="45.4008617" lon="10.780141"><ele>121.0</ele><time>2026-03-28T09:54:53.579Z</time></trkpt><trkpt lat="45.4009906" lon="10.7802436"><ele>121.0</ele><time>2026-03-28T09:54:54.579Z</time></trkpt><trkpt lat="45.4011016" lon="10.7803361"><ele>121.0</ele><time>2026-03-28T09:54:55.579Z</time></trkpt><trkpt lat="45.4012071" lon="10.7804188"><ele>121.0</ele><time>2026-03-28T09:54:56.58Z</time></trkpt><trkpt lat="45.4013045" lon="10.7804807"><ele>121.0</ele><time>2026-03-28T09:54:57.58Z</time></trkpt><trkpt lat="45.401391" lon="10.7805255"><ele>121.0</ele><time>2026-03-28T09:54:58.58Z</time></trkpt><trkpt lat="45.4014923" lon="10.7805845"><ele>121.0</ele><time>2026-03-28T09:55:00.579Z</time></trkpt><trkpt lat="45.4015832" lon="10.7806664"><ele>121.0</ele><time>2026-03-28T09:55:02.58Z</time></trkpt><trkpt lat="45.4016154" lon="10.7807678"><ele>121.00000000000001</ele><time>2026-03-28T09:55:03.579Z</time></trkpt><trkpt lat="45.4016454" lon="10.7808554"><ele>121.0</ele><time>2026-03-28T09:55:04.579Z</time></trkpt><trkpt lat="45.4016871" lon="10.7809698"><ele>121.0</ele><time>2026-03-28T09:55:05.579Z</time></trkpt><trkpt lat="45.4017273" lon="10.7810671"><ele>121.0</ele><time>2026-03-28T09:55:06.58Z</time></trkpt><trkpt lat="45.4017763" lon="10.7811753"><ele>121.00000000000001</ele><time>2026-03-28T09:55:07.579Z</time></trkpt><trkpt lat="45.4018427" lon="10.7812937"><ele>121.0</ele><time>2026-03-28T09:55:08.579Z</time></trkpt><trkpt lat="45.4019262" lon="10.781421"><ele>121.0</ele><time>2026-03-28T09:55:09.58Z</time></trkpt><trkpt lat="45.402015" lon="10.7815313"><ele>121.0</ele><time>2026-03-28T09:55:10.579Z</time></trkpt><trkpt lat="45.4021059" lon="10.7816193"><ele>121.0</ele><time>2026-03-28T09:55:11.579Z</time></trkpt><trkpt lat="45.4022025" lon="10.7816936"><ele>121.0</ele><time>2026-03-28T09:55:12.579Z</time></trkpt><trkpt lat="45.4023098" lon="10.7817879"><ele>120.75</ele><time>2026-03-28T09:55:13.578Z</time></trkpt><trkpt lat="45.4024188" lon="10.7819129"><ele>120.5</ele><time>2026-03-28T09:55:14.579Z</time></trkpt><trkpt lat="45.4025277" lon="10.7820614"><ele>120.25</ele><time>2026-03-28T09:55:15.579Z</time></trkpt><trkpt lat="45.402623" lon="10.7822168"><ele>120.0</ele><time>2026-03-28T09:55:16.579Z</time></trkpt><trkpt lat="45.4027197" lon="10.7823894"><ele>120.0</ele><time>2026-03-28T09:55:17.579Z</time></trkpt><trkpt lat="45.4028071" lon="10.7825335"><ele>120.0</ele><time>2026-03-28T09:55:18.579Z</time></trkpt><trkpt lat="45.4028899" lon="10.7826661"><ele>120.0</ele><time>2026-03-28T09:55:19.579Z</time></trkpt><trkpt lat="45.4029849" lon="10.7827849"><ele>120.0</ele><time>2026-03-28T09:55:20.579Z</time></trkpt><trkpt lat="45.4030752" lon="10.7828855"><ele>119.83333333333333</ele><time>2026-03-28T09:55:21.579Z</time></trkpt><trkpt lat="45.4031458" lon="10.7829644"><ele>119.66666666666666</ele><time>2026-03-28T09:55:22.58Z</time></trkpt><trkpt lat="45.4031923" lon="10.7830525"><ele>119.5</ele><time>2026-03-28T09:55:23.579Z</time></trkpt><trkpt lat="45.4032354" lon="10.7831632"><ele>119.33333333333333</ele><time>2026-03-28T09:55:24.579Z</time></trkpt><trkpt lat="45.4032884" lon="10.7832506"><ele>119.16666666666666</ele><time>2026-03-28T09:55:25.579Z</time></trkpt><trkpt lat="45.4033602" lon="10.7833528"><ele>119.0</ele><time>2026-03-28T09:55:26.579Z</time></trkpt><trkpt lat="45.4034313" lon="10.7834658"><ele>119.25</ele><time>2026-03-28T09:55:27.579Z</time></trkpt><trkpt lat="45.4035031" lon="10.7836171"><ele>119.5</ele><time>2026-03-28T09:55:28.579Z</time></trkpt><trkpt lat="45.4036017" lon="10.7837842"><ele>119.75</ele><time>2026-03-28T09:55:29.58Z</time></trkpt><trkpt lat="45.4037132" lon="10.7839567"><ele>120.0</ele><time>2026-03-28T09:55:30.579Z</time></trkpt><trkpt lat="45.4038098" lon="10.7841066"><ele>120.0</ele><time>2026-03-28T09:55:31.578Z</time></trkpt><trkpt lat="45.4038949" lon="10.7842488"><ele>120.0</ele><time>2026-03-28T09:55:32.579Z</time></trkpt><trkpt lat="45.4039681" lon="10.7843996"><ele>120.0</ele><time>2026-03-28T09:55:33.579Z</time></trkpt><trkpt lat="45.404029" lon="10.7845821"><ele>120.0</ele><time>2026-03-28T09:55:34.579Z</time></trkpt><trkpt lat="45.4040669" lon="10.7847547"><ele>121.0</ele><time>2026-03-28T09:55:35.58Z</time></trkpt><trkpt lat="45.4040809" lon="10.7849559"><ele>122.0</ele><time>2026-03-28T09:55:36.58Z</time></trkpt><trkpt lat="45.4040975" lon="10.7851749"><ele>123.0</ele><time>2026-03-28T09:55:37.58Z</time></trkpt><trkpt lat="45.4041104" lon="10.7853947"><ele>123.25</ele><time>2026-03-28T09:55:38.579Z</time></trkpt><trkpt lat="45.4041289" lon="10.7855792"><ele>123.5</ele><time>2026-03-28T09:55:39.58Z</time></trkpt><trkpt lat="45.4041531" lon="10.7857537"><ele>123.75</ele><time>2026-03-28T09:55:40.579Z</time></trkpt><trkpt lat="45.404197" lon="10.7859514"><ele>124.0</ele><time>2026-03-28T09:55:41.579Z</time></trkpt><trkpt lat="45.4042407" lon="10.7861222"><ele>124.0</ele><time>2026-03-28T09:55:42.58Z</time></trkpt><trkpt lat="45.4042784" lon="10.786276"><ele>124.0</ele><time>2026-03-28T09:55:43.578Z</time></trkpt><trkpt lat="45.4042907" lon="10.7864105"><ele>124.0</ele><time>2026-03-28T09:55:44.578Z</time></trkpt><trkpt lat="45.4042891" lon="10.7865122"><ele>124.0</ele><time>2026-03-28T09:55:45.579Z</time></trkpt><trkpt lat="45.4042691" lon="10.7866408"><ele>124.0</ele><time>2026-03-28T09:55:46.579Z</time></trkpt><trkpt lat="45.4042542" lon="10.7867746"><ele>122.75</ele><time>2026-03-28T09:55:47.58Z</time></trkpt><trkpt lat="45.4042552" lon="10.7869299"><ele>121.5</ele><time>2026-03-28T09:55:48.58Z</time></trkpt><trkpt lat="45.4042686" lon="10.7871245"><ele>120.25</ele><time>2026-03-28T09:55:49.58Z</time></trkpt><trkpt lat="45.4042853" lon="10.7873106"><ele>119.0</ele><time>2026-03-28T09:55:50.58Z</time></trkpt><trkpt lat="45.404314" lon="10.7874739"><ele>119.0</ele><time>2026-03-28T09:55:51.58Z</time></trkpt><trkpt lat="45.4043507" lon="10.7876158"><ele>119.0</ele><time>2026-03-28T09:55:52.578Z</time></trkpt><trkpt lat="45.4044068" lon="10.7877659"><ele>119.0</ele><time>2026-03-28T09:55:53.579Z</time></trkpt><trkpt lat="45.4044775" lon="10.787913"><ele>119.0</ele><time>2026-03-28T09:55:54.58Z</time></trkpt><trkpt lat="45.4045629" lon="10.7880548"><ele>118.2</ele><time>2026-03-28T09:55:55.578Z</time></trkpt><trkpt lat="45.4046585" lon="10.7881907"><ele>117.4</ele><time>2026-03-28T09:55:56.579Z</time></trkpt><trkpt lat="45.4047378" lon="10.788304"><ele>116.6</ele><time>2026-03-28T09:55:57.579Z</time></trkpt><trkpt lat="45.4048046" lon="10.7884129"><ele>115.8</ele><time>2026-03-28T09:55:58.579Z</time></trkpt><trkpt lat="45.404839" lon="10.7885328"><ele>115.0</ele><time>2026-03-28T09:55:59.579Z</time></trkpt><trkpt lat="45.4048545" lon="10.7886762"><ele>114.0</ele><time>2026-03-28T09:56:00.58Z</time></trkpt><trkpt lat="45.4048675" lon="10.7888203"><ele>113.0</ele><time>2026-03-28T09:56:01.58Z</time></trkpt><trkpt lat="45.4048748" lon="10.7889603"><ele>112.0</ele><time>2026-03-28T09:56:02.579Z</time></trkpt><trkpt lat="45.4048812" lon="10.7890922"><ele>111.0</ele><time>2026-03-28T09:56:03.579Z</time></trkpt><trkpt lat="45.4048887" lon="10.7892158"><ele>110.0</ele><time>2026-03-28T09:56:04.579Z</time></trkpt><trkpt lat="45.4048918" lon="10.7893306"><ele>110.14285714285714</ele><time>2026-03-28T09:56:05.579Z</time></trkpt><trkpt lat="45.4048897" lon="10.78944"><ele>110.28571428571428</ele><time>2026-03-28T09:56:06.58Z</time></trkpt><trkpt lat="45.4048895" lon="10.7895405"><ele>110.42857142857142</ele><time>2026-03-28T09:56:07.579Z</time></trkpt><trkpt lat="45.4048917" lon="10.7896344"><ele>110.57142857142857</ele><time>2026-03-28T09:56:08.58Z</time></trkpt><trkpt lat="45.4048951" lon="10.7897328"><ele>110.71428571428572</ele><time>2026-03-28T09:56:09.58Z</time></trkpt><trkpt lat="45.4048932" lon="10.789844"><ele>110.85714285714285</ele><time>2026-03-28T09:56:10.579Z</time></trkpt><trkpt lat="45.4048933" lon="10.7899625"><ele>111.0</ele><time>2026-03-28T09:56:11.579Z</time></trkpt><trkpt lat="45.4048953" lon="10.7900877"><ele>110.8</ele><time>2026-03-28T09:56:12.578Z</time></trkpt><trkpt lat="45.4048974" lon="10.7902195"><ele>110.6</ele><time>2026-03-28T09:56:13.58Z</time></trkpt><trkpt lat="45.4048985" lon="10.7903552"><ele>110.4</ele><time>2026-03-28T09:56:14.58Z</time></trkpt><trkpt lat="45.4049003" lon="10.7904932"><ele>110.2</ele><time>2026-03-28T09:56:15.58Z</time></trkpt><trkpt lat="45.4049049" lon="10.7906359"><ele>110.0</ele><time>2026-03-28T09:56:16.58Z</time></trkpt><trkpt lat="45.4049098" lon="10.7907838"><ele>109.99999999999999</ele><time>2026-03-28T09:56:17.579Z</time></trkpt><trkpt lat="45.404916" lon="10.7909309"><ele>110.0</ele><time>2026-03-28T09:56:18.579Z</time></trkpt><trkpt lat="45.4049182" lon="10.7910693"><ele>110.0</ele><time>2026-03-28T09:56:19.579Z</time></trkpt><trkpt lat="45.4049213" lon="10.7911931"><ele>110.0</ele><time>2026-03-28T09:56:20.579Z</time></trkpt><trkpt lat="45.404928" lon="10.7913008"><ele>109.99999999999999</ele><time>2026-03-28T09:56:21.579Z</time></trkpt><trkpt lat="45.4049368" lon="10.7913901"><ele>110.0</ele><time>2026-03-28T09:56:22.579Z</time></trkpt><trkpt lat="45.4049912" lon="10.7914795"><ele>110.4</ele><time>2026-03-28T09:56:24.579Z</time></trkpt><trkpt lat="45.4051023" lon="10.7915149"><ele>110.8</ele><time>2026-03-28T09:56:26.58Z</time></trkpt><trkpt lat="45.4051753" lon="10.7915142"><ele>111.19999999999999</ele><time>2026-03-28T09:56:27.579Z</time></trkpt><trkpt lat="45.4052555" lon="10.7915015"><ele>111.6</ele><time>2026-03-28T09:56:28.58Z</time></trkpt><trkpt lat="45.4053426" lon="10.791491"><ele>112.0</ele><time>2026-03-28T09:56:29.58Z</time></trkpt><trkpt lat="45.4054373" lon="10.7914868"><ele>112.25</ele><time>2026-03-28T09:56:30.58Z</time></trkpt><trkpt lat="45.4055417" lon="10.7914867"><ele>112.5</ele><time>2026-03-28T09:56:31.579Z</time></trkpt><trkpt lat="45.405655" lon="10.7914839"><ele>112.75</ele><time>2026-03-28T09:56:32.579Z</time></trkpt><trkpt lat="45.4057767" lon="10.7914741"><ele>113.0</ele><time>2026-03-28T09:56:33.579Z</time></trkpt><trkpt lat="45.4058996" lon="10.7914602"><ele>113.0</ele><time>2026-03-28T09:56:34.578Z</time></trkpt><trkpt lat="45.4060235" lon="10.7914417"><ele>113.0</ele><time>2026-03-28T09:56:35.579Z</time></trkpt><trkpt lat="45.4061491" lon="10.7914222"><ele>113.0</ele><time>2026-03-28T09:56:36.579Z</time></trkpt><trkpt lat="45.4062751" lon="10.7914099"><ele>113.0</ele><time>2026-03-28T09:56:37.579Z</time></trkpt><trkpt lat="45.4064039" lon="10.7914013"><ele>112.75</ele><time>2026-03-28T09:56:38.58Z</time></trkpt><trkpt lat="45.4065348" lon="10.7913938"><ele>112.5</ele><time>2026-03-28T09:56:39.58Z</time></trkpt><trkpt lat="45.4066592" lon="10.7913878"><ele>112.25</ele><time>2026-03-28T09:56:40.578Z</time></trkpt><trkpt lat="45.4067801" lon="10.791384"><ele>112.0</ele><time>2026-03-28T09:56:41.578Z</time></trkpt><trkpt lat="45.4068984" lon="10.7913834"><ele>112.0</ele><time>2026-03-28T09:56:42.579Z</time></trkpt><trkpt lat="45.4070168" lon="10.7913785"><ele>112.0</ele><time>2026-03-28T09:56:43.578Z</time></trkpt><trkpt lat="45.4071352" lon="10.7913699"><ele>112.0</ele><time>2026-03-28T09:56:44.579Z</time></trkpt><trkpt lat="45.4072551" lon="10.7913608"><ele>112.0</ele><time>2026-03-28T09:56:45.579Z</time></trkpt><trkpt lat="45.4073751" lon="10.7913508"><ele>112.0</ele><time>2026-03-28T09:56:46.578Z</time></trkpt><trkpt lat="45.4074975" lon="10.7913412"><ele>112.0</ele><time>2026-03-28T09:56:47.579Z</time></trkpt><trkpt lat="45.407623" lon="10.7913337"><ele>112.0</ele><time>2026-03-28T09:56:48.58Z</time></trkpt><trkpt lat="45.4077507" lon="10.7913285"><ele>112.0</ele><time>2026-03-28T09:56:49.579Z</time></trkpt><trkpt lat="45.4078829" lon="10.7913218"><ele>112.25</ele><time>2026-03-28T09:56:50.579Z</time></trkpt><trkpt lat="45.4080173" lon="10.7913119"><ele>112.5</ele><time>2026-03-28T09:56:51.58Z</time></trkpt><trkpt lat="45.408156" lon="10.7913046"><ele>112.75</ele><time>2026-03-28T09:56:52.58Z</time></trkpt><trkpt lat="45.4083009" lon="10.7912961"><ele>113.0</ele><time>2026-03-28T09:56:53.579Z</time></trkpt><trkpt lat="45.4084475" lon="10.7912871"><ele>113.0</ele><time>2026-03-28T09:56:54.58Z</time></trkpt><trkpt lat="45.408588" lon="10.7912784"><ele>113.0</ele><time>2026-03-28T09:56:55.58Z</time></trkpt><trkpt lat="45.4087173" lon="10.7912697"><ele>113.0</ele><time>2026-03-28T09:56:56.578Z</time></trkpt><trkpt lat="45.4088372" lon="10.7912601"><ele>113.0</ele><time>2026-03-28T09:56:57.579Z</time></trkpt><trkpt lat="45.4089369" lon="10.7912527"><ele>112.99999999999999</ele><time>2026-03-28T09:56:58.579Z</time></trkpt><trkpt lat="45.4090319" lon="10.7912413"><ele>113.0</ele><time>2026-03-28T09:56:59.579Z</time></trkpt><trkpt lat="45.4091127" lon="10.7912313"><ele>113.0</ele><time>2026-03-28T09:57:00.579Z</time></trkpt><trkpt lat="45.4091804" lon="10.791233"><ele>113.0</ele><time>2026-03-28T09:57:01.578Z</time></trkpt><trkpt lat="45.4092528" lon="10.7912254"><ele>112.99999999999999</ele><time>2026-03-28T09:57:03.578Z</time></trkpt><trkpt lat="45.4093013" lon="10.791144"><ele>113.0</ele><time>2026-03-28T09:57:11.578Z</time></trkpt><trkpt lat="45.4093041" lon="10.7910348"><ele>113.2</ele><time>2026-03-28T09:57:12.579Z</time></trkpt><trkpt lat="45.4092905" lon="10.7908966"><ele>113.4</ele><time>2026-03-28T09:57:13.58Z</time></trkpt><trkpt lat="45.4092865" lon="10.7907317"><ele>113.60000000000001</ele><time>2026-03-28T09:57:14.579Z</time></trkpt><trkpt lat="45.4092817" lon="10.7905894"><ele>113.80000000000001</ele><time>2026-03-28T09:57:15.579Z</time></trkpt><trkpt lat="45.4092791" lon="10.7904581"><ele>114.0</ele><time>2026-03-28T09:57:16.58Z</time></trkpt><trkpt lat="45.4092877" lon="10.7903591"><ele>114.0</ele><time>2026-03-28T09:57:17.58Z</time></trkpt><trkpt lat="45.4093311" lon="10.7902673"><ele>114.0</ele><time>2026-03-28T09:57:19.58Z</time></trkpt><trkpt lat="45.4094343" lon="10.7902076"><ele>114.0</ele><time>2026-03-28T09:57:21.579Z</time></trkpt><trkpt lat="45.4094937" lon="10.7901671"><ele>114.0</ele><time>2026-03-28T09:57:22.579Z</time></trkpt><trkpt lat="45.4095531" lon="10.790115"><ele>114.0</ele><time>2026-03-28T09:57:23.579Z</time></trkpt><trkpt lat="45.4096177" lon="10.790055"><ele>114.0</ele><time>2026-03-28T09:57:24.579Z</time></trkpt><trkpt lat="45.4096872" lon="10.7899897"><ele>114.33333333333333</ele><time>2026-03-28T09:57:25.579Z</time></trkpt><trkpt lat="45.4097619" lon="10.78992"><ele>114.66666666666666</ele><time>2026-03-28T09:57:26.579Z</time></trkpt><trkpt lat="45.4098319" lon="10.7898583"><ele>115.0</ele><time>2026-03-28T09:57:27.58Z</time></trkpt><trkpt lat="45.4098884" lon="10.7898032"><ele>115.33333333333333</ele><time>2026-03-28T09:57:28.58Z</time></trkpt><trkpt lat="45.409945" lon="10.7897548"><ele>115.66666666666666</ele><time>2026-03-28T09:57:29.579Z</time></trkpt><trkpt lat="45.4099989" lon="10.7897083"><ele>116.0</ele><time>2026-03-28T09:57:30.58Z</time></trkpt><trkpt lat="45.410098" lon="10.7896165"><ele>116.0</ele><time>2026-03-28T09:57:32.58Z</time></trkpt><trkpt lat="45.4101984" lon="10.7895147"><ele>116.0</ele><time>2026-03-28T09:57:34.579Z</time></trkpt><trkpt lat="45.4102564" lon="10.7894635"><ele>116.0</ele><time>2026-03-28T09:57:35.58Z</time></trkpt><trkpt lat="45.4103216" lon="10.7894047"><ele>116.0</ele><time>2026-03-28T09:57:36.58Z</time></trkpt><trkpt lat="45.4103942" lon="10.789336"><ele>116.0</ele><time>2026-03-28T09:57:37.579Z</time></trkpt><trkpt lat="45.4104702" lon="10.7892557"><ele>116.25</ele><time>2026-03-28T09:57:38.58Z</time></trkpt><trkpt lat="45.4105534" lon="10.7891722"><ele>116.5</ele><time>2026-03-28T09:57:39.579Z</time></trkpt><trkpt lat="45.4106438" lon="10.7890863"><ele>116.75</ele><time>2026-03-28T09:57:40.578Z</time></trkpt><trkpt lat="45.4107441" lon="10.7890031"><ele>117.0</ele><time>2026-03-28T09:57:41.579Z</time></trkpt><trkpt lat="45.4108507" lon="10.7889102"><ele>117.0</ele><time>2026-03-28T09:57:42.58Z</time></trkpt><trkpt lat="45.4109627" lon="10.7888115"><ele>117.0</ele><time>2026-03-28T09:57:43.58Z</time></trkpt><trkpt lat="45.411077" lon="10.7887008"><ele>117.0</ele><time>2026-03-28T09:57:44.58Z</time></trkpt><trkpt lat="45.4111925" lon="10.7885789"><ele>117.0</ele><time>2026-03-28T09:57:45.58Z</time></trkpt><trkpt lat="45.4113021" lon="10.7884504"><ele>117.25</ele><time>2026-03-28T09:57:46.579Z</time></trkpt><trkpt lat="45.4114125" lon="10.788312"><ele>117.5</ele><time>2026-03-28T09:57:47.579Z</time></trkpt><trkpt lat="45.4115283" lon="10.7881779"><ele>117.75</ele><time>2026-03-28T09:57:48.579Z</time></trkpt><trkpt lat="45.4116487" lon="10.7880493"><ele>118.0</ele><time>2026-03-28T09:57:49.579Z</time></trkpt><trkpt lat="45.4117615" lon="10.7879406"><ele>118.0</ele><time>2026-03-28T09:57:50.58Z</time></trkpt><trkpt lat="45.411865" lon="10.7878424"><ele>118.0</ele><time>2026-03-28T09:57:51.579Z</time></trkpt><trkpt lat="45.4119567" lon="10.7877435"><ele>118.0</ele><time>2026-03-28T09:57:52.579Z</time></trkpt><trkpt lat="45.4120384" lon="10.7876434"><ele>118.0</ele><time>2026-03-28T09:57:53.579Z</time></trkpt><trkpt lat="45.4121081" lon="10.7875187"><ele>118.0</ele><time>2026-03-28T09:57:54.58Z</time></trkpt><trkpt lat="45.4121546" lon="10.7873687"><ele>118.0</ele><time>2026-03-28T09:57:55.579Z</time></trkpt><trkpt lat="45.4121887" lon="10.7871996"><ele>118.0</ele><time>2026-03-28T09:57:56.579Z</time></trkpt><trkpt lat="45.4122248" lon="10.7870357"><ele>118.0</ele><time>2026-03-28T09:57:57.579Z</time></trkpt><trkpt lat="45.4122686" lon="10.7868796"><ele>117.5</ele><time>2026-03-28T09:57:58.579Z</time></trkpt><trkpt lat="45.4123392" lon="10.7867325"><ele>117.0</ele><time>2026-03-28T09:57:59.579Z</time></trkpt><trkpt lat="45.4124452" lon="10.7865823"><ele>116.5</ele><time>2026-03-28T09:58:00.579Z</time></trkpt><trkpt lat="45.4125659" lon="10.7864226"><ele>116.0</ele><time>2026-03-28T09:58:01.579Z</time></trkpt><trkpt lat="45.4126939" lon="10.7862485"><ele>116.0</ele><time>2026-03-28T09:58:02.58Z</time></trkpt><trkpt lat="45.412821" lon="10.7860751"><ele>116.0</ele><time>2026-03-28T09:58:03.58Z</time></trkpt><trkpt lat="45.4129546" lon="10.7858925"><ele>116.0</ele><time>2026-03-28T09:58:04.578Z</time></trkpt><trkpt lat="45.4130899" lon="10.7857002"><ele>117.0</ele><time>2026-03-28T09:58:05.58Z</time></trkpt><trkpt lat="45.4132001" lon="10.7855191"><ele>118.0</ele><time>2026-03-28T09:58:06.579Z</time></trkpt><trkpt lat="45.4133173" lon="10.7853265"><ele>119.0</ele><time>2026-03-28T09:58:07.579Z</time></trkpt><trkpt lat="45.4134372" lon="10.7851281"><ele>120.0</ele><time>2026-03-28T09:58:08.58Z</time></trkpt><trkpt lat="45.4135493" lon="10.7849365"><ele>121.0</ele><time>2026-03-28T09:58:09.579Z</time></trkpt><trkpt lat="45.4136499" lon="10.7847647"><ele>122.0</ele><time>2026-03-28T09:58:10.579Z</time></trkpt><trkpt lat="45.4137338" lon="10.7846141"><ele>122.0</ele><time>2026-03-28T09:58:11.579Z</time></trkpt><trkpt lat="45.4138107" lon="10.7844773"><ele>121.99999999999999</ele><time>2026-03-28T09:58:12.58Z</time></trkpt><trkpt lat="45.4138742" lon="10.7843663"><ele>121.99999999999999</ele><time>2026-03-28T09:58:13.58Z</time></trkpt><trkpt lat="45.4139244" lon="10.7842865"><ele>122.0</ele><time>2026-03-28T09:58:14.58Z</time></trkpt><trkpt lat="45.41402" lon="10.7842119"><ele>122.0</ele><time>2026-03-28T09:58:16.579Z</time></trkpt><trkpt lat="45.414152" lon="10.7842619"><ele>122.0</ele><time>2026-03-28T09:58:18.579Z</time></trkpt><trkpt lat="45.4142516" lon="10.7843203"><ele>122.0</ele><time>2026-03-28T09:58:19.579Z</time></trkpt><trkpt lat="45.4143746" lon="10.7844006"><ele>122.0</ele><time>2026-03-28T09:58:20.579Z</time></trkpt><trkpt lat="45.4145101" lon="10.7844934"><ele>122.0</ele><time>2026-03-28T09:58:21.579Z</time></trkpt><trkpt lat="45.4146599" lon="10.7845966"><ele>122.0</ele><time>2026-03-28T09:58:22.579Z</time></trkpt><trkpt lat="45.4148291" lon="10.7847111"><ele>122.0</ele><time>2026-03-28T09:58:23.579Z</time></trkpt><trkpt lat="45.4150181" lon="10.7848344"><ele>122.0</ele><time>2026-03-28T09:58:24.579Z</time></trkpt><trkpt lat="45.4151974" lon="10.7849523"><ele>122.0</ele><time>2026-03-28T09:58:25.579Z</time></trkpt><trkpt lat="45.4153682" lon="10.7850628"><ele>122.0</ele><time>2026-03-28T09:58:26.58Z</time></trkpt><trkpt lat="45.4155369" lon="10.7851719"><ele>122.0</ele><time>2026-03-28T09:58:27.579Z</time></trkpt><trkpt lat="45.4157023" lon="10.7852763"><ele>121.66666666666666</ele><time>2026-03-28T09:58:28.58Z</time></trkpt><trkpt lat="45.4158656" lon="10.7853813"><ele>121.33333333333334</ele><time>2026-03-28T09:58:29.58Z</time></trkpt><trkpt lat="45.4160315" lon="10.7854877"><ele>121.0</ele><time>2026-03-28T09:58:30.579Z</time></trkpt><trkpt lat="45.4161958" lon="10.7855976"><ele>122.33333333333334</ele><time>2026-03-28T09:58:31.58Z</time></trkpt><trkpt lat="45.4163621" lon="10.7857078"><ele>123.66666666666666</ele><time>2026-03-28T09:58:32.579Z</time></trkpt><trkpt lat="45.4165289" lon="10.7858194"><ele>125.0</ele><time>2026-03-28T09:58:33.579Z</time></trkpt><trkpt lat="45.4166964" lon="10.7859326"><ele>125.0</ele><time>2026-03-28T09:58:34.579Z</time></trkpt><trkpt lat="45.4168687" lon="10.7860494"><ele>125.0</ele><time>2026-03-28T09:58:35.578Z</time></trkpt><trkpt lat="45.4170403" lon="10.7861677"><ele>125.0</ele><time>2026-03-28T09:58:36.579Z</time></trkpt><trkpt lat="45.4172152" lon="10.7862868"><ele>125.0</ele><time>2026-03-28T09:58:37.579Z</time></trkpt><trkpt lat="45.4173919" lon="10.7863992"><ele>125.0</ele><time>2026-03-28T09:58:38.578Z</time></trkpt><trkpt lat="45.4175694" lon="10.7865112"><ele>125.0</ele><time>2026-03-28T09:58:39.579Z</time></trkpt><trkpt lat="45.4177456" lon="10.7866274"><ele>125.0</ele><time>2026-03-28T09:58:40.579Z</time></trkpt><trkpt lat="45.4179218" lon="10.7867433"><ele>125.0</ele><time>2026-03-28T09:58:41.58Z</time></trkpt><trkpt lat="45.418092" lon="10.7868558"><ele>125.0</ele><time>2026-03-28T09:58:42.58Z</time></trkpt><trkpt lat="45.4182476" lon="10.786961"><ele>125.0</ele><time>2026-03-28T09:58:43.58Z</time></trkpt><trkpt lat="45.418385" lon="10.7870574"><ele>125.0</ele><time>2026-03-28T09:58:44.58Z</time></trkpt><trkpt lat="45.4185086" lon="10.787147"><ele>125.0</ele><time>2026-03-28T09:58:45.579Z</time></trkpt><trkpt lat="45.4186251" lon="10.7872229"><ele>125.0</ele><time>2026-03-28T09:58:46.579Z</time></trkpt><trkpt lat="45.4187373" lon="10.7872882"><ele>124.66666666666666</ele><time>2026-03-28T09:58:47.579Z</time></trkpt><trkpt lat="45.4188404" lon="10.7873385"><ele>124.33333333333333</ele><time>2026-03-28T09:58:48.58Z</time></trkpt><trkpt lat="45.4189308" lon="10.7873739"><ele>124.0</ele><time>2026-03-28T09:58:49.58Z</time></trkpt><trkpt lat="45.419011" lon="10.7873922"><ele>123.66666666666666</ele><time>2026-03-28T09:58:50.578Z</time></trkpt><trkpt lat="45.4190794" lon="10.7873936"><ele>123.33333333333333</ele><time>2026-03-28T09:58:51.579Z</time></trkpt><trkpt lat="45.4191746" lon="10.7873662"><ele>123.0</ele><time>2026-03-28T09:58:53.579Z</time></trkpt><trkpt lat="45.4192394" lon="10.787226"><ele>123.0</ele><time>2026-03-28T09:58:55.579Z</time></trkpt><trkpt lat="45.4192598" lon="10.7871185"><ele>123.0</ele><time>2026-03-28T09:58:56.58Z</time></trkpt><trkpt lat="45.4192869" lon="10.7870233"><ele>123.0</ele><time>2026-03-28T09:58:57.578Z</time></trkpt><trkpt lat="45.4193856" lon="10.7869679"><ele>123.0</ele><time>2026-03-28T09:58:59.579Z</time></trkpt><trkpt lat="45.4194513" lon="10.786986"><ele>123.0</ele><time>2026-03-28T09:59:00.579Z</time></trkpt><trkpt lat="45.4195355" lon="10.7870394"><ele>123.0</ele><time>2026-03-28T09:59:01.579Z</time></trkpt><trkpt lat="45.4196368" lon="10.7870933"><ele>123.4</ele><time>2026-03-28T09:59:02.578Z</time></trkpt><trkpt lat="45.4197443" lon="10.7871558"><ele>123.80000000000001</ele><time>2026-03-28T09:59:03.579Z</time></trkpt><trkpt lat="45.41984" lon="10.7872142"><ele>124.2</ele><time>2026-03-28T09:59:04.58Z</time></trkpt><trkpt lat="45.4199351" lon="10.7872719"><ele>124.6</ele><time>2026-03-28T09:59:05.579Z</time></trkpt><trkpt lat="45.4200406" lon="10.787363"><ele>125.0</ele><time>2026-03-28T09:59:06.579Z</time></trkpt><trkpt lat="45.420149" lon="10.787491"><ele>125.0</ele><time>2026-03-28T09:59:07.58Z</time></trkpt><trkpt lat="45.4202599" lon="10.7876447"><ele>125.0</ele><time>2026-03-28T09:59:08.579Z</time></trkpt><trkpt lat="45.4203755" lon="10.7878191"><ele>125.0</ele><time>2026-03-28T09:59:09.579Z</time></trkpt><trkpt lat="45.4204894" lon="10.7879736"><ele>126.33333333333333</ele><time>2026-03-28T09:59:10.58Z</time></trkpt><trkpt lat="45.4206208" lon="10.7881254"><ele>127.66666666666666</ele><time>2026-03-28T09:59:11.579Z</time></trkpt><trkpt lat="45.420759" lon="10.7882698"><ele>129.0</ele><time>2026-03-28T09:59:12.578Z</time></trkpt><trkpt lat="45.4208832" lon="10.7884013"><ele>129.0</ele><time>2026-03-28T09:59:13.579Z</time></trkpt><trkpt lat="45.4210015" lon="10.7885359"><ele>129.0</ele><time>2026-03-28T09:59:14.579Z</time></trkpt><trkpt lat="45.4211042" lon="10.7886581"><ele>129.0</ele><time>2026-03-28T09:59:15.579Z</time></trkpt><trkpt lat="45.4212047" lon="10.7887777"><ele>129.0</ele><time>2026-03-28T09:59:16.579Z</time></trkpt><trkpt lat="45.4213215" lon="10.7889173"><ele>129.33333333333334</ele><time>2026-03-28T09:59:17.579Z</time></trkpt><trkpt lat="45.4214476" lon="10.7890846"><ele>129.66666666666669</ele><time>2026-03-28T09:59:18.579Z</time></trkpt><trkpt lat="45.4215587" lon="10.7892605"><ele>130.0</ele><time>2026-03-28T09:59:19.579Z</time></trkpt><trkpt lat="45.4216527" lon="10.7894357"><ele>130.33333333333334</ele><time>2026-03-28T09:59:20.58Z</time></trkpt><trkpt lat="45.4217397" lon="10.7896197"><ele>130.66666666666666</ele><time>2026-03-28T09:59:21.579Z</time></trkpt><trkpt lat="45.4218218" lon="10.789818"><ele>131.0</ele><time>2026-03-28T09:59:22.579Z</time></trkpt><trkpt lat="45.4218862" lon="10.7900066"><ele>131.0</ele><time>2026-03-28T09:59:23.578Z</time></trkpt><trkpt lat="45.421946" lon="10.7901814"><ele>131.0</ele><time>2026-03-28T09:59:24.579Z</time></trkpt><trkpt lat="45.422008" lon="10.790332"><ele>131.0</ele><time>2026-03-28T09:59:25.579Z</time></trkpt><trkpt lat="45.4220626" lon="10.7904412"><ele>131.0</ele><time>2026-03-28T09:59:26.579Z</time></trkpt><trkpt lat="45.4221156" lon="10.7905034"><ele>131.0</ele><time>2026-03-28T09:59:27.58Z</time></trkpt><trkpt lat="45.4222383" lon="10.7904855"><ele>131.0</ele><time>2026-03-28T09:59:29.579Z</time></trkpt><trkpt lat="45.4223206" lon="10.7904225"><ele>131.0</ele><time>2026-03-28T09:59:30.578Z</time></trkpt><trkpt lat="45.422426" lon="10.7903883"><ele>131.0</ele><time>2026-03-28T09:59:31.579Z</time></trkpt><trkpt lat="45.4225469" lon="10.7903702"><ele>131.0</ele><time>2026-03-28T09:59:32.58Z</time></trkpt><trkpt lat="45.4226808" lon="10.7903521"><ele>131.0</ele><time>2026-03-28T09:59:33.58Z</time></trkpt><trkpt lat="45.4228261" lon="10.7903187"><ele>131.0</ele><time>2026-03-28T09:59:34.58Z</time></trkpt><trkpt lat="45.4229769" lon="10.790279"><ele>131.0</ele><time>2026-03-28T09:59:35.58Z</time></trkpt><trkpt lat="45.4231148" lon="10.7902403"><ele>131.0</ele><time>2026-03-28T09:59:36.58Z</time></trkpt><trkpt lat="45.4232473" lon="10.7902033"><ele>130.75</ele><time>2026-03-28T09:59:37.58Z</time></trkpt><trkpt lat="45.4233888" lon="10.7901775"><ele>130.5</ele><time>2026-03-28T09:59:38.58Z</time></trkpt><trkpt lat="45.4235316" lon="10.7901496"><ele>130.25</ele><time>2026-03-28T09:59:39.58Z</time></trkpt><trkpt lat="45.4236626" lon="10.7900981"><ele>130.0</ele><time>2026-03-28T09:59:40.578Z</time></trkpt><trkpt lat="45.4237726" lon="10.7900363"><ele>130.2</ele><time>2026-03-28T09:59:41.579Z</time></trkpt><trkpt lat="45.4238588" lon="10.7899863"><ele>130.4</ele><time>2026-03-28T09:59:42.579Z</time></trkpt><trkpt lat="45.4239285" lon="10.7899618"><ele>130.6</ele><time>2026-03-28T09:59:43.579Z</time></trkpt><trkpt lat="45.4240106" lon="10.7900577"><ele>130.8</ele><time>2026-03-28T09:59:45.578Z</time></trkpt><trkpt lat="45.4240301" lon="10.7901854"><ele>131.0</ele><time>2026-03-28T09:59:46.58Z</time></trkpt><trkpt lat="45.4240554" lon="10.7903654"><ele>131.0</ele><time>2026-03-28T09:59:47.579Z</time></trkpt><trkpt lat="45.4240737" lon="10.7905785"><ele>131.0</ele><time>2026-03-28T09:59:48.58Z</time></trkpt><trkpt lat="45.4240886" lon="10.7908232"><ele>131.0</ele><time>2026-03-28T09:59:49.58Z</time></trkpt><trkpt lat="45.424103" lon="10.7910731"><ele>131.0</ele><time>2026-03-28T09:59:50.579Z</time></trkpt><trkpt lat="45.4241081" lon="10.7913206"><ele>131.0</ele><time>2026-03-28T09:59:51.58Z</time></trkpt><trkpt lat="45.4241066" lon="10.7915506"><ele>131.0</ele><time>2026-03-28T09:59:52.58Z</time></trkpt><trkpt lat="45.4241033" lon="10.7917343"><ele>130.66666666666666</ele><time>2026-03-28T09:59:53.58Z</time></trkpt><trkpt lat="45.4240999" lon="10.7918815"><ele>130.33333333333331</ele><time>2026-03-28T09:59:54.579Z</time></trkpt><trkpt lat="45.4241051" lon="10.7919998"><ele>130.0</ele><time>2026-03-28T09:59:55.579Z</time></trkpt><trkpt lat="45.4241304" lon="10.7920931"><ele>129.66666666666666</ele><time>2026-03-28T09:59:56.579Z</time></trkpt><trkpt lat="45.4241839" lon="10.7921632"><ele>129.33333333333334</ele><time>2026-03-28T09:59:57.579Z</time></trkpt><trkpt lat="45.4242731" lon="10.7921953"><ele>129.0</ele><time>2026-03-28T09:59:58.578Z</time></trkpt><trkpt lat="45.424419" lon="10.7922344"><ele>129.0</ele><time>2026-03-28T09:59:59.578Z</time></trkpt><trkpt lat="45.4245939" lon="10.7922914"><ele>129.0</ele><time>2026-03-28T10:00:00.58Z</time></trkpt><trkpt lat="45.4247627" lon="10.7923421"><ele>129.0</ele><time>2026-03-28T10:00:01.579Z</time></trkpt><trkpt lat="45.4249189" lon="10.7924006"><ele>128.2</ele><time>2026-03-28T10:00:02.578Z</time></trkpt><trkpt lat="45.4250503" lon="10.7924473"><ele>127.4</ele><time>2026-03-28T10:00:03.579Z</time></trkpt><trkpt lat="45.425136" lon="10.7924795"><ele>126.6</ele><time>2026-03-28T10:00:04.579Z</time></trkpt><trkpt lat="45.4252247" lon="10.7925084"><ele>125.8</ele><time>2026-03-28T10:00:06.579Z</time></trkpt><trkpt lat="45.4252913" lon="10.7925139"><ele>125.0</ele><time>2026-03-28T10:00:07.579Z</time></trkpt><trkpt lat="45.4253868" lon="10.7924987"><ele>125.25</ele><time>2026-03-28T10:00:08.579Z</time></trkpt><trkpt lat="45.4255025" lon="10.7924655"><ele>125.5</ele><time>2026-03-28T10:00:09.58Z</time></trkpt><trkpt lat="45.4256409" lon="10.7924198"><ele>125.75</ele><time>2026-03-28T10:00:10.579Z</time></trkpt><trkpt lat="45.4257905" lon="10.7923751"><ele>126.0</ele><time>2026-03-28T10:00:11.579Z</time></trkpt><trkpt lat="45.4259319" lon="10.7923298"><ele>126.0</ele><time>2026-03-28T10:00:12.579Z</time></trkpt><trkpt lat="45.4260715" lon="10.7922787"><ele>126.0</ele><time>2026-03-28T10:00:13.579Z</time></trkpt><trkpt lat="45.4262098" lon="10.7922355"><ele>126.0</ele><time>2026-03-28T10:00:14.579Z</time></trkpt><trkpt lat="45.4263509" lon="10.7921928"><ele>126.0</ele><time>2026-03-28T10:00:15.578Z</time></trkpt><trkpt lat="45.4265009" lon="10.7921513"><ele>125.33333333333334</ele><time>2026-03-28T10:00:16.578Z</time></trkpt><trkpt lat="45.4266568" lon="10.792104"><ele>124.66666666666667</ele><time>2026-03-28T10:00:17.579Z</time></trkpt><trkpt lat="45.4268139" lon="10.7920535"><ele>124.0</ele><time>2026-03-28T10:00:18.58Z</time></trkpt><trkpt lat="45.4269749" lon="10.7919989"><ele>124.0</ele><time>2026-03-28T10:00:19.58Z</time></trkpt><trkpt lat="45.42714" lon="10.7919408"><ele>124.0</ele><time>2026-03-28T10:00:20.58Z</time></trkpt><trkpt lat="45.4273149" lon="10.7918865"><ele>124.0</ele><time>2026-03-28T10:00:21.58Z</time></trkpt><trkpt lat="45.4274936" lon="10.7918325"><ele>124.0</ele><time>2026-03-28T10:00:22.58Z</time></trkpt><trkpt lat="45.4276805" lon="10.7917752"><ele>124.0</ele><time>2026-03-28T10:00:23.579Z</time></trkpt><trkpt lat="45.4278743" lon="10.7917127"><ele>124.0</ele><time>2026-03-28T10:00:24.58Z</time></trkpt><trkpt lat="45.4280811" lon="10.7916426"><ele>124.5</ele><time>2026-03-28T10:00:25.58Z</time></trkpt><trkpt lat="45.4283118" lon="10.7915625"><ele>125.0</ele><time>2026-03-28T10:00:26.579Z</time></trkpt><trkpt lat="45.4285236" lon="10.7914975"><ele>125.0</ele><time>2026-03-28T10:00:27.578Z</time></trkpt><trkpt lat="45.4287202" lon="10.7914364"><ele>125.0</ele><time>2026-03-28T10:00:28.578Z</time></trkpt><trkpt lat="45.428902" lon="10.7913772"><ele>125.0</ele><time>2026-03-28T10:00:29.578Z</time></trkpt><trkpt lat="45.429067" lon="10.7913209"><ele>125.0</ele><time>2026-03-28T10:00:30.58Z</time></trkpt><trkpt lat="45.4292186" lon="10.7912745"><ele>125.0</ele><time>2026-03-28T10:00:31.579Z</time></trkpt><trkpt lat="45.4293605" lon="10.7912326"><ele>125.0</ele><time>2026-03-28T10:00:32.579Z</time></trkpt><trkpt lat="45.4294906" lon="10.791188"><ele>125.0</ele><time>2026-03-28T10:00:33.579Z</time></trkpt><trkpt lat="45.429603" lon="10.7911497"><ele>125.2</ele><time>2026-03-28T10:00:34.579Z</time></trkpt><trkpt lat="45.4296813" lon="10.7911266"><ele>125.4</ele><time>2026-03-28T10:00:35.579Z</time></trkpt><trkpt lat="45.4297861" lon="10.7911267"><ele>125.6</ele><time>2026-03-28T10:00:37.579Z</time></trkpt><trkpt lat="45.4298605" lon="10.7911689"><ele>125.8</ele><time>2026-03-28T10:00:41.58Z</time></trkpt><trkpt lat="45.4299523" lon="10.7913198"><ele>126.0</ele><time>2026-03-28T10:00:43.58Z</time></trkpt><trkpt lat="45.4300004" lon="10.7914154"><ele>126.0</ele><time>2026-03-28T10:00:44.58Z</time></trkpt><trkpt lat="45.4300491" lon="10.7915028"><ele>126.0</ele><time>2026-03-28T10:00:45.579Z</time></trkpt><trkpt lat="45.4301169" lon="10.7915704"><ele>126.0</ele><time>2026-03-28T10:00:46.58Z</time></trkpt><trkpt lat="45.4302105" lon="10.7916013"><ele>126.0</ele><time>2026-03-28T10:00:47.579Z</time></trkpt><trkpt lat="45.4303163" lon="10.791591"><ele>126.0</ele><time>2026-03-28T10:00:48.579Z</time></trkpt><trkpt lat="45.4304392" lon="10.7915541"><ele>126.33333333333334</ele><time>2026-03-28T10:00:49.578Z</time></trkpt><trkpt lat="45.4305841" lon="10.7915272"><ele>126.66666666666667</ele><time>2026-03-28T10:00:50.578Z</time></trkpt><trkpt lat="45.4307497" lon="10.7914984"><ele>127.0</ele><time>2026-03-28T10:00:51.579Z</time></trkpt><trkpt lat="45.4309273" lon="10.7914692"><ele>127.0</ele><time>2026-03-28T10:00:52.579Z</time></trkpt><trkpt lat="45.4310978" lon="10.7914496"><ele>127.0</ele><time>2026-03-28T10:00:53.579Z</time></trkpt><trkpt lat="45.4312571" lon="10.7914386"><ele>127.0</ele><time>2026-03-28T10:00:54.58Z</time></trkpt><trkpt lat="45.4314029" lon="10.7914434"><ele>126.33333333333334</ele><time>2026-03-28T10:00:55.58Z</time></trkpt><trkpt lat="45.4315499" lon="10.7914812"><ele>125.66666666666666</ele><time>2026-03-28T10:00:56.579Z</time></trkpt><trkpt lat="45.4317022" lon="10.791552"><ele>125.0</ele><time>2026-03-28T10:00:57.58Z</time></trkpt><trkpt lat="45.4318595" lon="10.7916393"><ele>125.0</ele><time>2026-03-28T10:00:58.579Z</time></trkpt><trkpt lat="45.4320238" lon="10.7917461"><ele>125.0</ele><time>2026-03-28T10:00:59.58Z</time></trkpt><trkpt lat="45.4321944" lon="10.7918655"><ele>125.0</ele><time>2026-03-28T10:01:00.58Z</time></trkpt><trkpt lat="45.4323682" lon="10.7919909"><ele>125.66666666666666</ele><time>2026-03-28T10:01:01.579Z</time></trkpt><trkpt lat="45.4325346" lon="10.7921017"><ele>126.33333333333334</ele><time>2026-03-28T10:01:02.578Z</time></trkpt><trkpt lat="45.4326911" lon="10.7921932"><ele>127.0</ele><time>2026-03-28T10:01:03.579Z</time></trkpt><trkpt lat="45.432839" lon="10.7922686"><ele>128.0</ele><time>2026-03-28T10:01:04.578Z</time></trkpt><trkpt lat="45.4329789" lon="10.7923083"><ele>129.0</ele><time>2026-03-28T10:01:05.578Z</time></trkpt><trkpt lat="45.4331228" lon="10.7923258"><ele>130.0</ele><time>2026-03-28T10:01:06.579Z</time></trkpt><trkpt lat="45.4332675" lon="10.7923336"><ele>131.0</ele><time>2026-03-28T10:01:07.579Z</time></trkpt><trkpt lat="45.4334194" lon="10.7923475"><ele>131.0</ele><time>2026-03-28T10:01:08.578Z</time></trkpt><trkpt lat="45.4335811" lon="10.7923702"><ele>131.0</ele><time>2026-03-28T10:01:09.58Z</time></trkpt><trkpt lat="45.4337533" lon="10.7923889"><ele>131.0</ele><time>2026-03-28T10:01:10.579Z</time></trkpt><trkpt lat="45.4339354" lon="10.7923957"><ele>131.0</ele><time>2026-03-28T10:01:11.579Z</time></trkpt><trkpt lat="45.4341305" lon="10.792388"><ele>131.0</ele><time>2026-03-28T10:01:12.58Z</time></trkpt><trkpt lat="45.4343348" lon="10.7923678"><ele>131.0</ele><time>2026-03-28T10:01:13.58Z</time></trkpt><trkpt lat="45.4345461" lon="10.7923395"><ele>131.0</ele><time>2026-03-28T10:01:14.58Z</time></trkpt><trkpt lat="45.4347662" lon="10.7923139"><ele>131.0</ele><time>2026-03-28T10:01:15.58Z</time></trkpt><trkpt lat="45.43499" lon="10.7922854"><ele>131.0</ele><time>2026-03-28T10:01:16.579Z</time></trkpt><trkpt lat="45.4352214" lon="10.7922518"><ele>131.0</ele><time>2026-03-28T10:01:17.58Z</time></trkpt><trkpt lat="45.4354571" lon="10.7922183"><ele>131.0</ele><time>2026-03-28T10:01:18.579Z</time></trkpt><trkpt lat="45.4356966" lon="10.7921862"><ele>132.5</ele><time>2026-03-28T10:01:19.579Z</time></trkpt><trkpt lat="45.4359348" lon="10.7921497"><ele>134.0</ele><time>2026-03-28T10:01:20.578Z</time></trkpt><trkpt lat="45.436172" lon="10.7921113"><ele>133.66666666666666</ele><time>2026-03-28T10:01:21.58Z</time></trkpt><trkpt lat="45.4363964" lon="10.7920782"><ele>133.33333333333334</ele><time>2026-03-28T10:01:22.578Z</time></trkpt><trkpt lat="45.4366046" lon="10.7920514"><ele>133.0</ele><time>2026-03-28T10:01:23.579Z</time></trkpt><trkpt lat="45.4367563" lon="10.7920386"><ele>133.0</ele><time>2026-03-28T10:01:24.579Z</time></trkpt><trkpt lat="45.4368522" lon="10.7920347"><ele>133.0</ele><time>2026-03-28T10:01:25.579Z</time></trkpt><trkpt lat="45.4368873" lon="10.7919213"><ele>133.0</ele><time>2026-03-28T10:01:28.579Z</time></trkpt><trkpt lat="45.436904" lon="10.7917671"><ele>133.0</ele><time>2026-03-28T10:01:30.58Z</time></trkpt><trkpt lat="45.436938" lon="10.7916688"><ele>133.0</ele><time>2026-03-28T10:01:31.58Z</time></trkpt><trkpt lat="45.4369835" lon="10.7915458"><ele>133.20000000000002</ele><time>2026-03-28T10:01:32.58Z</time></trkpt><trkpt lat="45.4370098" lon="10.7914197"><ele>133.4</ele><time>2026-03-28T10:01:33.579Z</time></trkpt><trkpt lat="45.4370102" lon="10.791298"><ele>133.60000000000002</ele><time>2026-03-28T10:01:34.578Z</time></trkpt><trkpt lat="45.4369823" lon="10.7911576"><ele>133.8</ele><time>2026-03-28T10:01:35.579Z</time></trkpt><trkpt lat="45.4369188" lon="10.791014"><ele>134.0</ele><time>2026-03-28T10:01:36.58Z</time></trkpt><trkpt lat="45.4368434" lon="10.7908664"><ele>134.0</ele><time>2026-03-28T10:01:37.58Z</time></trkpt><trkpt lat="45.4367719" lon="10.790748"><ele>134.0</ele><time>2026-03-28T10:01:38.58Z</time></trkpt><trkpt lat="45.436701" lon="10.7906478"><ele>134.0</ele><time>2026-03-28T10:01:39.579Z</time></trkpt><trkpt lat="45.4366535" lon="10.7905616"><ele>134.0</ele><time>2026-03-28T10:01:40.578Z</time></trkpt><trkpt lat="45.4366334" lon="10.7904277"><ele>134.0</ele><time>2026-03-28T10:01:42.579Z</time></trkpt><trkpt lat="45.4367039" lon="10.7902962"><ele>134.0</ele><time>2026-03-28T10:01:44.579Z</time></trkpt><trkpt lat="45.4367757" lon="10.7902095"><ele>134.0</ele><time>2026-03-28T10:01:45.58Z</time></trkpt><trkpt lat="45.4368505" lon="10.7901008"><ele>134.0</ele><time>2026-03-28T10:01:46.579Z</time></trkpt><trkpt lat="45.4369361" lon="10.789969"><ele>134.0</ele><time>2026-03-28T10:01:47.578Z</time></trkpt><trkpt lat="45.4370165" lon="10.7898437"><ele>134.0</ele><time>2026-03-28T10:01:48.58Z</time></trkpt><trkpt lat="45.4370852" lon="10.7897482"><ele>133.16666666666666</ele><time>2026-03-28T10:01:49.579Z</time></trkpt><trkpt lat="45.437139" lon="10.7896629"><ele>132.33333333333331</ele><time>2026-03-28T10:01:50.578Z</time></trkpt><trkpt lat="45.4371878" lon="10.7895874"><ele>131.5</ele><time>2026-03-28T10:01:51.579Z</time></trkpt><trkpt lat="45.4372242" lon="10.7894609"><ele>130.66666666666666</ele><time>2026-03-28T10:01:53.579Z</time></trkpt><trkpt lat="45.4372296" lon="10.7893689"><ele>129.83333333333334</ele><time>2026-03-28T10:01:56.58Z</time></trkpt><trkpt lat="45.4371892" lon="10.7892941"><ele>129.0</ele><time>2026-03-28T10:02:07.579Z</time></trkpt><trkpt lat="45.4370921" lon="10.789249"><ele>129.0</ele><time>2026-03-28T10:02:09.58Z</time></trkpt><trkpt lat="45.4370175" lon="10.7892084"><ele>129.0</ele><time>2026-03-28T10:02:10.58Z</time></trkpt><trkpt lat="45.4369557" lon="10.7891537"><ele>129.0</ele><time>2026-03-28T10:02:11.579Z</time></trkpt><trkpt lat="45.4369056" lon="10.7890355"><ele>129.0</ele><time>2026-03-28T10:02:13.578Z</time></trkpt><trkpt lat="45.4369573" lon="10.7888662"><ele>129.0</ele><time>2026-03-28T10:02:15.579Z</time></trkpt><trkpt lat="45.4370108" lon="10.7888008"><ele>129.0</ele><time>2026-03-28T10:02:16.579Z</time></trkpt><trkpt lat="45.4370402" lon="10.7886421"><ele>129.0</ele><time>2026-03-28T10:02:18.58Z</time></trkpt><trkpt lat="45.4370369" lon="10.7885089"><ele>129.0</ele><time>2026-03-28T10:02:19.578Z</time></trkpt><trkpt lat="45.4370274" lon="10.78836"><ele>129.0</ele><time>2026-03-28T10:02:20.579Z</time></trkpt><trkpt lat="45.4370147" lon="10.7881949"><ele>129.0</ele><time>2026-03-28T10:02:21.579Z</time></trkpt><trkpt lat="45.4369972" lon="10.788054"><ele>128.75</ele><time>2026-03-28T10:02:22.58Z</time></trkpt><trkpt lat="45.4369748" lon="10.7879177"><ele>128.5</ele><time>2026-03-28T10:02:23.58Z</time></trkpt><trkpt lat="45.4369515" lon="10.7877608"><ele>128.25</ele><time>2026-03-28T10:02:24.58Z</time></trkpt><trkpt lat="45.4369379" lon="10.7875888"><ele>128.0</ele><time>2026-03-28T10:02:25.579Z</time></trkpt><trkpt lat="45.4369296" lon="10.7874203"><ele>128.0</ele><time>2026-03-28T10:02:26.579Z</time></trkpt><trkpt lat="45.4369388" lon="10.7872385"><ele>128.0</ele><time>2026-03-28T10:02:27.579Z</time></trkpt><trkpt lat="45.436993" lon="10.7870781"><ele>128.0</ele><time>2026-03-28T10:02:28.58Z</time></trkpt><trkpt lat="45.4370639" lon="10.7869127"><ele>128.0</ele><time>2026-03-28T10:02:29.579Z</time></trkpt><trkpt lat="45.437106" lon="10.7867617"><ele>127.75</ele><time>2026-03-28T10:02:30.58Z</time></trkpt><trkpt lat="45.4371591" lon="10.7866073"><ele>127.5</ele><time>2026-03-28T10:02:31.579Z</time></trkpt><trkpt lat="45.4372034" lon="10.786435"><ele>127.25</ele><time>2026-03-28T10:02:32.578Z</time></trkpt><trkpt lat="45.437237" lon="10.7862658"><ele>127.0</ele><time>2026-03-28T10:02:33.578Z</time></trkpt><trkpt lat="45.4372728" lon="10.7861148"><ele>128.5</ele><time>2026-03-28T10:02:34.58Z</time></trkpt><trkpt lat="45.437311" lon="10.7859571"><ele>130.0</ele><time>2026-03-28T10:02:35.58Z</time></trkpt><trkpt lat="45.4373491" lon="10.7857994"><ele>131.5</ele><time>2026-03-28T10:02:36.58Z</time></trkpt><trkpt lat="45.4373902" lon="10.7856539"><ele>133.0</ele><time>2026-03-28T10:02:37.579Z</time></trkpt><trkpt lat="45.4374328" lon="10.7854972"><ele>133.0</ele><time>2026-03-28T10:02:38.579Z</time></trkpt><trkpt lat="45.4374658" lon="10.7853678"><ele>133.0</ele><time>2026-03-28T10:02:39.579Z</time></trkpt><trkpt lat="45.4375006" lon="10.7852458"><ele>133.0</ele><time>2026-03-28T10:02:40.579Z</time></trkpt><trkpt lat="45.4375278" lon="10.7851249"><ele>133.0</ele><time>2026-03-28T10:02:41.579Z</time></trkpt><trkpt lat="45.4375497" lon="10.7850172"><ele>133.0</ele><time>2026-03-28T10:02:42.58Z</time></trkpt><trkpt lat="45.4375719" lon="10.7848283"><ele>133.33333333333334</ele><time>2026-03-28T10:02:44.58Z</time></trkpt><trkpt lat="45.4375859" lon="10.7847115"><ele>133.66666666666669</ele><time>2026-03-28T10:02:45.579Z</time></trkpt><trkpt lat="45.4375965" lon="10.7845842"><ele>134.0</ele><time>2026-03-28T10:02:46.578Z</time></trkpt><trkpt lat="45.4376097" lon="10.7844526"><ele>134.33333333333334</ele><time>2026-03-28T10:02:47.579Z</time></trkpt><trkpt lat="45.4376234" lon="10.7843342"><ele>134.66666666666666</ele><time>2026-03-28T10:02:48.58Z</time></trkpt><trkpt lat="45.4376352" lon="10.7842135"><ele>135.0</ele><time>2026-03-28T10:02:49.579Z</time></trkpt><trkpt lat="45.4376442" lon="10.7841107"><ele>135.0</ele><time>2026-03-28T10:02:50.58Z</time></trkpt><trkpt lat="45.4376493" lon="10.7839934"><ele>135.0</ele><time>2026-03-28T10:02:51.578Z</time></trkpt><trkpt lat="45.4376517" lon="10.7838916"><ele>135.0</ele><time>2026-03-28T10:02:52.58Z</time></trkpt><trkpt lat="45.4376583" lon="10.7837862"><ele>135.0</ele><time>2026-03-28T10:02:53.579Z</time></trkpt><trkpt lat="45.4376667" lon="10.7836856"><ele>135.0</ele><time>2026-03-28T10:02:54.58Z</time></trkpt><trkpt lat="45.4376754" lon="10.7835911"><ele>135.0</ele><time>2026-03-28T10:02:55.58Z</time></trkpt><trkpt lat="45.4376879" lon="10.7834586"><ele>134.0</ele><time>2026-03-28T10:02:56.579Z</time></trkpt><trkpt lat="45.4377062" lon="10.7833088"><ele>133.0</ele><time>2026-03-28T10:02:57.58Z</time></trkpt><trkpt lat="45.4377259" lon="10.7831619"><ele>132.0</ele><time>2026-03-28T10:02:58.58Z</time></trkpt><trkpt lat="45.4377399" lon="10.7830163"><ele>131.0</ele><time>2026-03-28T10:02:59.579Z</time></trkpt><trkpt lat="45.4377529" lon="10.7828699"><ele>130.0</ele><time>2026-03-28T10:03:00.58Z</time></trkpt><trkpt lat="45.437762" lon="10.7827291"><ele>128.8</ele><time>2026-03-28T10:03:01.58Z</time></trkpt><trkpt lat="45.4377638" lon="10.7825949"><ele>127.6</ele><time>2026-03-28T10:03:02.58Z</time></trkpt><trkpt lat="45.4377685" lon="10.7824792"><ele>126.4</ele><time>2026-03-28T10:03:03.579Z</time></trkpt><trkpt lat="45.4378453" lon="10.7823411"><ele>125.2</ele><time>2026-03-28T10:03:05.579Z</time></trkpt><trkpt lat="45.4379167" lon="10.7823215"><ele>124.0</ele><time>2026-03-28T10:03:06.579Z</time></trkpt><trkpt lat="45.4380157" lon="10.7823321"><ele>123.5</ele><time>2026-03-28T10:03:07.579Z</time></trkpt><trkpt lat="45.4381352" lon="10.782346"><ele>123.0</ele><time>2026-03-28T10:03:08.578Z</time></trkpt><trkpt lat="45.4382695" lon="10.7823438"><ele>122.5</ele><time>2026-03-28T10:03:09.58Z</time></trkpt><trkpt lat="45.4383865" lon="10.7823464"><ele>122.0</ele><time>2026-03-28T10:03:10.58Z</time></trkpt><trkpt lat="45.4384972" lon="10.7823536"><ele>122.0</ele><time>2026-03-28T10:03:11.58Z</time></trkpt><trkpt lat="45.4386021" lon="10.7823569"><ele>121.99999999999999</ele><time>2026-03-28T10:03:12.579Z</time></trkpt><trkpt lat="45.4386995" lon="10.7823626"><ele>121.99999999999999</ele><time>2026-03-28T10:03:13.579Z</time></trkpt><trkpt lat="45.4387948" lon="10.7823743"><ele>122.0</ele><time>2026-03-28T10:03:14.579Z</time></trkpt><trkpt lat="45.4388958" lon="10.7823901"><ele>122.0</ele><time>2026-03-28T10:03:15.578Z</time></trkpt><trkpt lat="45.4390069" lon="10.7823993"><ele>122.25</ele><time>2026-03-28T10:03:16.58Z</time></trkpt><trkpt lat="45.4391244" lon="10.782413"><ele>122.5</ele><time>2026-03-28T10:03:17.579Z</time></trkpt><trkpt lat="45.4392514" lon="10.7824324"><ele>122.75</ele><time>2026-03-28T10:03:18.579Z</time></trkpt><trkpt lat="45.4393757" lon="10.7824496"><ele>123.0</ele><time>2026-03-28T10:03:19.579Z</time></trkpt><trkpt lat="45.4394912" lon="10.7824476"><ele>123.0</ele><time>2026-03-28T10:03:20.579Z</time></trkpt><trkpt lat="45.4395953" lon="10.782472"><ele>123.00000000000001</ele><time>2026-03-28T10:03:21.579Z</time></trkpt><trkpt lat="45.4396733" lon="10.782491"><ele>123.00000000000001</ele><time>2026-03-28T10:03:22.579Z</time></trkpt><trkpt lat="45.4397559" lon="10.7824888"><ele>123.0</ele><time>2026-03-28T10:03:24.578Z</time></trkpt><trkpt lat="45.4398296" lon="10.7824124"><ele>123.0</ele><time>2026-03-28T10:03:45.578Z</time></trkpt><trkpt lat="45.4398483" lon="10.782281"><ele>123.33333333333334</ele><time>2026-03-28T10:03:46.579Z</time></trkpt><trkpt lat="45.439861" lon="10.7820864"><ele>123.66666666666667</ele><time>2026-03-28T10:03:47.58Z</time></trkpt><trkpt lat="45.439875" lon="10.7818321"><ele>124.0</ele><time>2026-03-28T10:03:48.579Z</time></trkpt><trkpt lat="45.4398901" lon="10.7816182"><ele>123.5</ele><time>2026-03-28T10:03:49.579Z</time></trkpt><trkpt lat="45.4399028" lon="10.7814133"><ele>123.0</ele><time>2026-03-28T10:03:50.58Z</time></trkpt><trkpt lat="45.4399164" lon="10.7812272"><ele>122.5</ele><time>2026-03-28T10:03:51.58Z</time></trkpt><trkpt lat="45.4399359" lon="10.7810729"><ele>122.0</ele><time>2026-03-28T10:03:52.58Z</time></trkpt><trkpt lat="45.4399724" lon="10.7809589"><ele>121.8</ele><time>2026-03-28T10:03:53.579Z</time></trkpt><trkpt lat="45.4400301" lon="10.7808781"><ele>121.6</ele><time>2026-03-28T10:03:54.579Z</time></trkpt><trkpt lat="45.4401133" lon="10.7808493"><ele>121.39999999999999</ele><time>2026-03-28T10:03:55.579Z</time></trkpt><trkpt lat="45.440213" lon="10.7808486"><ele>121.19999999999999</ele><time>2026-03-28T10:03:56.58Z</time></trkpt><trkpt lat="45.4403334" lon="10.7808723"><ele>121.0</ele><time>2026-03-28T10:03:57.58Z</time></trkpt><trkpt lat="45.4404802" lon="10.7809167"><ele>121.0</ele><time>2026-03-28T10:03:58.58Z</time></trkpt><trkpt lat="45.4406321" lon="10.7810097"><ele>121.0</ele><time>2026-03-28T10:03:59.58Z</time></trkpt><trkpt lat="45.4407785" lon="10.7811336"><ele>121.0</ele><time>2026-03-28T10:04:00.58Z</time></trkpt><trkpt lat="45.440918" lon="10.7812466"><ele>120.75</ele><time>2026-03-28T10:04:01.579Z</time></trkpt><trkpt lat="45.4410484" lon="10.7813496"><ele>120.5</ele><time>2026-03-28T10:04:02.58Z</time></trkpt><trkpt lat="45.4411702" lon="10.7814495"><ele>120.25</ele><time>2026-03-28T10:04:03.58Z</time></trkpt><trkpt lat="45.4412854" lon="10.7815383"><ele>120.0</ele><time>2026-03-28T10:04:04.579Z</time></trkpt><trkpt lat="45.4413938" lon="10.7816139"><ele>120.0</ele><time>2026-03-28T10:04:05.579Z</time></trkpt><trkpt lat="45.4414948" lon="10.7816921"><ele>120.0</ele><time>2026-03-28T10:04:06.58Z</time></trkpt><trkpt lat="45.4415916" lon="10.7817669"><ele>120.0</ele><time>2026-03-28T10:04:07.579Z</time></trkpt><trkpt lat="45.4416759" lon="10.7818249"><ele>120.0</ele><time>2026-03-28T10:04:08.58Z</time></trkpt><trkpt lat="45.4417527" lon="10.7818807"><ele>120.0</ele><time>2026-03-28T10:04:09.579Z</time></trkpt><trkpt lat="45.4418246" lon="10.7819221"><ele>119.83333333333333</ele><time>2026-03-28T10:04:10.579Z</time></trkpt><trkpt lat="45.4418891" lon="10.7819619"><ele>119.66666666666666</ele><time>2026-03-28T10:04:11.579Z</time></trkpt><trkpt lat="45.4419528" lon="10.7819903"><ele>119.5</ele><time>2026-03-28T10:04:12.58Z</time></trkpt><trkpt lat="45.4420184" lon="10.7820064"><ele>119.33333333333333</ele><time>2026-03-28T10:04:13.579Z</time></trkpt><trkpt lat="45.4420812" lon="10.7820246"><ele>119.16666666666666</ele><time>2026-03-28T10:04:14.579Z</time></trkpt><trkpt lat="45.4422064" lon="10.7820568"><ele>119.0</ele><time>2026-03-28T10:04:16.579Z</time></trkpt><trkpt lat="45.4422935" lon="10.7820688"><ele>118.75</ele><time>2026-03-28T10:04:17.579Z</time></trkpt><trkpt lat="45.4424085" lon="10.7821019"><ele>118.5</ele><time>2026-03-28T10:04:18.578Z</time></trkpt><trkpt lat="45.4425491" lon="10.7821525"><ele>118.25</ele><time>2026-03-28T10:04:19.579Z</time></trkpt><trkpt lat="45.4427232" lon="10.7822155"><ele>118.0</ele><time>2026-03-28T10:04:20.58Z</time></trkpt><trkpt lat="45.4429199" lon="10.7822707"><ele>118.5</ele><time>2026-03-28T10:04:21.579Z</time></trkpt><trkpt lat="45.443137" lon="10.7823148"><ele>119.0</ele><time>2026-03-28T10:04:22.579Z</time></trkpt><trkpt lat="45.4433691" lon="10.7823529"><ele>119.0</ele><time>2026-03-28T10:04:23.579Z</time></trkpt><trkpt lat="45.4436038" lon="10.7823937"><ele>119.0</ele><time>2026-03-28T10:04:24.579Z</time></trkpt><trkpt lat="45.4438314" lon="10.7824381"><ele>119.66666666666666</ele><time>2026-03-28T10:04:25.579Z</time></trkpt><trkpt lat="45.444053" lon="10.7824799"><ele>120.33333333333334</ele><time>2026-03-28T10:04:26.579Z</time></trkpt><trkpt lat="45.4442585" lon="10.7825165"><ele>121.0</ele><time>2026-03-28T10:04:27.579Z</time></trkpt><trkpt lat="45.44445" lon="10.7825473"><ele>121.33333333333334</ele><time>2026-03-28T10:04:28.579Z</time></trkpt><trkpt lat="45.4446341" lon="10.7825843"><ele>121.66666666666666</ele><time>2026-03-28T10:04:29.579Z</time></trkpt><trkpt lat="45.4448156" lon="10.7826294"><ele>122.0</ele><time>2026-03-28T10:04:30.579Z</time></trkpt><trkpt lat="45.4449832" lon="10.7826687"><ele>122.0</ele><time>2026-03-28T10:04:31.578Z</time></trkpt><trkpt lat="45.4451399" lon="10.7826953"><ele>122.0</ele><time>2026-03-28T10:04:32.579Z</time></trkpt><trkpt lat="45.4452909" lon="10.7827009"><ele>122.0</ele><time>2026-03-28T10:04:33.579Z</time></trkpt><trkpt lat="45.4454434" lon="10.7826705"><ele>121.0</ele><time>2026-03-28T10:04:34.58Z</time></trkpt><trkpt lat="45.4455973" lon="10.7826021"><ele>120.0</ele><time>2026-03-28T10:04:35.58Z</time></trkpt><trkpt lat="45.445764" lon="10.7825167"><ele>119.0</ele><time>2026-03-28T10:04:36.579Z</time></trkpt><trkpt lat="45.4459351" lon="10.7824188"><ele>119.0</ele><time>2026-03-28T10:04:37.58Z</time></trkpt><trkpt lat="45.4461016" lon="10.7823261"><ele>119.0</ele><time>2026-03-28T10:04:38.578Z</time></trkpt><trkpt lat="45.4462616" lon="10.782255"><ele>119.0</ele><time>2026-03-28T10:04:39.58Z</time></trkpt><trkpt lat="45.4464136" lon="10.7821839"><ele>118.66666666666666</ele><time>2026-03-28T10:04:40.58Z</time></trkpt><trkpt lat="45.4465626" lon="10.7821079"><ele>118.33333333333334</ele><time>2026-03-28T10:04:41.58Z</time></trkpt><trkpt lat="45.4467105" lon="10.7820102"><ele>118.0</ele><time>2026-03-28T10:04:42.58Z</time></trkpt><trkpt lat="45.4468524" lon="10.7818689"><ele>118.0</ele><time>2026-03-28T10:04:43.579Z</time></trkpt><trkpt lat="45.4469846" lon="10.781676"><ele>118.0</ele><time>2026-03-28T10:04:44.579Z</time></trkpt><trkpt lat="45.4471194" lon="10.7814612"><ele>118.0</ele><time>2026-03-28T10:04:45.58Z</time></trkpt><trkpt lat="45.4472533" lon="10.7812578"><ele>116.33333333333334</ele><time>2026-03-28T10:04:46.579Z</time></trkpt><trkpt lat="45.4473949" lon="10.7810938"><ele>114.66666666666666</ele><time>2026-03-28T10:04:47.579Z</time></trkpt><trkpt lat="45.4475541" lon="10.7809661"><ele>113.0</ele><time>2026-03-28T10:04:48.579Z</time></trkpt><trkpt lat="45.4477302" lon="10.7808597"><ele>113.0</ele><time>2026-03-28T10:04:49.579Z</time></trkpt><trkpt lat="45.4479265" lon="10.780761"><ele>113.0</ele><time>2026-03-28T10:04:50.579Z</time></trkpt><trkpt lat="45.4481301" lon="10.7806866"><ele>113.0</ele><time>2026-03-28T10:04:51.579Z</time></trkpt><trkpt lat="45.4483148" lon="10.7806187"><ele>114.0</ele><time>2026-03-28T10:04:52.579Z</time></trkpt><trkpt lat="45.4484818" lon="10.7805222"><ele>115.0</ele><time>2026-03-28T10:04:53.579Z</time></trkpt><trkpt lat="45.4486277" lon="10.7804115"><ele>116.0</ele><time>2026-03-28T10:04:54.579Z</time></trkpt><trkpt lat="45.4487543" lon="10.7802864"><ele>116.5</ele><time>2026-03-28T10:04:55.579Z</time></trkpt><trkpt lat="45.4488725" lon="10.7801237"><ele>117.0</ele><time>2026-03-28T10:04:56.579Z</time></trkpt><trkpt lat="45.448953" lon="10.7799782"><ele>117.5</ele><time>2026-03-28T10:04:57.579Z</time></trkpt><trkpt lat="45.4489982" lon="10.779888"><ele>118.0</ele><time>2026-03-28T10:04:58.578Z</time></trkpt><trkpt lat="45.4490165" lon="10.7797231"><ele>118.0</ele><time>2026-03-28T10:05:00.579Z</time></trkpt><trkpt lat="45.448928" lon="10.7795934"><ele>118.00000000000001</ele><time>2026-03-28T10:05:02.579Z</time></trkpt><trkpt lat="45.448864" lon="10.7795323"><ele>118.00000000000001</ele><time>2026-03-28T10:05:03.578Z</time></trkpt><trkpt lat="45.4487969" lon="10.779457"><ele>118.0</ele><time>2026-03-28T10:05:04.58Z</time></trkpt><trkpt lat="45.4487142" lon="10.7793667"><ele>118.0</ele><time>2026-03-28T10:05:05.58Z</time></trkpt><trkpt lat="45.4486167" lon="10.7792589"><ele>117.66666666666667</ele><time>2026-03-28T10:05:06.58Z</time></trkpt><trkpt lat="45.4485073" lon="10.7791267"><ele>117.33333333333334</ele><time>2026-03-28T10:05:07.579Z</time></trkpt><trkpt lat="45.4483866" lon="10.7789696"><ele>117.0</ele><time>2026-03-28T10:05:08.58Z</time></trkpt><trkpt lat="45.4482479" lon="10.7787946"><ele>117.0</ele><time>2026-03-28T10:05:09.579Z</time></trkpt><trkpt lat="45.4481007" lon="10.7786057"><ele>117.0</ele><time>2026-03-28T10:05:10.579Z</time></trkpt><trkpt lat="45.4479454" lon="10.7784057"><ele>117.0</ele><time>2026-03-28T10:05:11.58Z</time></trkpt><trkpt lat="45.4477851" lon="10.7782007"><ele>116.66666666666666</ele><time>2026-03-28T10:05:12.579Z</time></trkpt><trkpt lat="45.4476249" lon="10.7779913"><ele>116.33333333333333</ele><time>2026-03-28T10:05:13.579Z</time></trkpt><trkpt lat="45.4474639" lon="10.7777789"><ele>116.0</ele><time>2026-03-28T10:05:14.58Z</time></trkpt><trkpt lat="45.4472985" lon="10.7775617"><ele>116.0</ele><time>2026-03-28T10:05:15.58Z</time></trkpt><trkpt lat="45.4471336" lon="10.7773416"><ele>116.0</ele><time>2026-03-28T10:05:16.579Z</time></trkpt><trkpt lat="45.4469766" lon="10.777136"><ele>116.0</ele><time>2026-03-28T10:05:17.579Z</time></trkpt><trkpt lat="45.4468289" lon="10.776941"><ele>116.0</ele><time>2026-03-28T10:05:18.58Z</time></trkpt><trkpt lat="45.446686" lon="10.7767454"><ele>116.0</ele><time>2026-03-28T10:05:19.579Z</time></trkpt><trkpt lat="45.4465536" lon="10.7765443"><ele>116.0</ele><time>2026-03-28T10:05:20.579Z</time></trkpt><trkpt lat="45.4464311" lon="10.7763332"><ele>116.0</ele><time>2026-03-28T10:05:21.579Z</time></trkpt><trkpt lat="45.4463244" lon="10.7761222"><ele>116.0</ele><time>2026-03-28T10:05:22.58Z</time></trkpt><trkpt lat="45.446235" lon="10.7759216"><ele>116.0</ele><time>2026-03-28T10:05:23.58Z</time></trkpt><trkpt lat="45.4461671" lon="10.7757271"><ele>115.33333333333333</ele><time>2026-03-28T10:05:24.58Z</time></trkpt><trkpt lat="45.4461041" lon="10.7755193"><ele>114.66666666666666</ele><time>2026-03-28T10:05:25.579Z</time></trkpt><trkpt lat="45.4460399" lon="10.7752872"><ele>114.0</ele><time>2026-03-28T10:05:26.579Z</time></trkpt><trkpt lat="45.4459655" lon="10.7750332"><ele>114.0</ele><time>2026-03-28T10:05:27.579Z</time></trkpt><trkpt lat="45.4458848" lon="10.7747702"><ele>114.0</ele><time>2026-03-28T10:05:28.578Z</time></trkpt><trkpt lat="45.4458182" lon="10.7745199"><ele>114.0</ele><time>2026-03-28T10:05:29.578Z</time></trkpt><trkpt lat="45.4457637" lon="10.7742844"><ele>113.66666666666666</ele><time>2026-03-28T10:05:30.579Z</time></trkpt><trkpt lat="45.4457158" lon="10.7740636"><ele>113.33333333333333</ele><time>2026-03-28T10:05:31.579Z</time></trkpt><trkpt lat="45.4456706" lon="10.7738541"><ele>113.0</ele><time>2026-03-28T10:05:32.58Z</time></trkpt><trkpt lat="45.4456136" lon="10.7736491"><ele>112.66666666666666</ele><time>2026-03-28T10:05:33.58Z</time></trkpt><trkpt lat="45.4455459" lon="10.7734285"><ele>112.33333333333334</ele><time>2026-03-28T10:05:34.579Z</time></trkpt><trkpt lat="45.4454793" lon="10.7732098"><ele>112.0</ele><time>2026-03-28T10:05:35.579Z</time></trkpt><trkpt lat="45.4454" lon="10.7729972"><ele>112.0</ele><time>2026-03-28T10:05:36.579Z</time></trkpt><trkpt lat="45.4453101" lon="10.772789"><ele>112.0</ele><time>2026-03-28T10:05:37.58Z</time></trkpt><trkpt lat="45.4452204" lon="10.7726133"><ele>112.0</ele><time>2026-03-28T10:05:38.58Z</time></trkpt><trkpt lat="45.4451327" lon="10.7724531"><ele>112.0</ele><time>2026-03-28T10:05:39.579Z</time></trkpt><trkpt lat="45.4450643" lon="10.7722869"><ele>112.0</ele><time>2026-03-28T10:05:40.579Z</time></trkpt><trkpt lat="45.445015" lon="10.7721182"><ele>112.0</ele><time>2026-03-28T10:05:41.579Z</time></trkpt><trkpt lat="45.4449882" lon="10.7719443"><ele>112.0</ele><time>2026-03-28T10:05:42.58Z</time></trkpt><trkpt lat="45.4449764" lon="10.7717335"><ele>112.0</ele><time>2026-03-28T10:05:43.579Z</time></trkpt><trkpt lat="45.4449625" lon="10.7714926"><ele>112.0</ele><time>2026-03-28T10:05:44.579Z</time></trkpt><trkpt lat="45.4449515" lon="10.7712576"><ele>112.0</ele><time>2026-03-28T10:05:45.579Z</time></trkpt><trkpt lat="45.4449399" lon="10.771019"><ele>114.0</ele><time>2026-03-28T10:05:46.58Z</time></trkpt><trkpt lat="45.4449231" lon="10.7707789"><ele>116.0</ele><time>2026-03-28T10:05:47.579Z</time></trkpt><trkpt lat="45.4449" lon="10.7705485"><ele>118.0</ele><time>2026-03-28T10:05:48.579Z</time></trkpt><trkpt lat="45.4448755" lon="10.770344"><ele>119.0</ele><time>2026-03-28T10:05:49.58Z</time></trkpt><trkpt lat="45.4448433" lon="10.7701413"><ele>120.0</ele><time>2026-03-28T10:05:50.579Z</time></trkpt><trkpt lat="45.4447953" lon="10.7699711"><ele>121.0</ele><time>2026-03-28T10:05:51.579Z</time></trkpt><trkpt lat="45.4447313" lon="10.7698282"><ele>122.0</ele><time>2026-03-28T10:05:52.579Z</time></trkpt><trkpt lat="45.4446622" lon="10.7696934"><ele>122.0</ele><time>2026-03-28T10:05:53.58Z</time></trkpt><trkpt lat="45.4446011" lon="10.7695484"><ele>122.0</ele><time>2026-03-28T10:05:54.579Z</time></trkpt><trkpt lat="45.4445385" lon="10.7693897"><ele>122.0</ele><time>2026-03-28T10:05:55.579Z</time></trkpt><trkpt lat="45.444479" lon="10.7692382"><ele>122.0</ele><time>2026-03-28T10:05:56.58Z</time></trkpt><trkpt lat="45.4444171" lon="10.7690949"><ele>121.83333333333333</ele><time>2026-03-28T10:05:57.58Z</time></trkpt><trkpt lat="45.4443849" lon="10.7690075"><ele>121.66666666666666</ele><time>2026-03-28T10:05:58.579Z</time></trkpt><trkpt lat="45.4443339" lon="10.7689093"><ele>121.5</ele><time>2026-03-28T10:05:59.58Z</time></trkpt><trkpt lat="45.4442855" lon="10.7688233"><ele>121.33333333333334</ele><time>2026-03-28T10:06:00.579Z</time></trkpt><trkpt lat="45.4442274" lon="10.7687499"><ele>121.16666666666667</ele><time>2026-03-28T10:06:01.579Z</time></trkpt><trkpt lat="45.4441651" lon="10.7686738"><ele>121.0</ele><time>2026-03-28T10:06:02.579Z</time></trkpt><trkpt lat="45.4440912" lon="10.7685975"><ele>121.00000000000001</ele><time>2026-03-28T10:06:03.58Z</time></trkpt><trkpt lat="45.4440161" lon="10.7685271"><ele>121.0</ele><time>2026-03-28T10:06:04.579Z</time></trkpt><trkpt lat="45.4439488" lon="10.7684624"><ele>121.0</ele><time>2026-03-28T10:06:05.579Z</time></trkpt><trkpt lat="45.4438947" lon="10.768395"><ele>121.0</ele><time>2026-03-28T10:06:06.579Z</time></trkpt><trkpt lat="45.4438706" lon="10.7682728"><ele>121.00000000000001</ele><time>2026-03-28T10:06:08.58Z</time></trkpt><trkpt lat="45.4439338" lon="10.7681906"><ele>121.0</ele><time>2026-03-28T10:06:10.58Z</time></trkpt><trkpt lat="45.4440084" lon="10.7681623"><ele>119.33333333333334</ele><time>2026-03-28T10:06:11.579Z</time></trkpt><trkpt lat="45.4441244" lon="10.7681579"><ele>117.66666666666666</ele><time>2026-03-28T10:06:12.579Z</time></trkpt><trkpt lat="45.4442761" lon="10.7681453"><ele>116.0</ele><time>2026-03-28T10:06:13.579Z</time></trkpt><trkpt lat="45.44447" lon="10.7681192"><ele>116.0</ele><time>2026-03-28T10:06:14.58Z</time></trkpt><trkpt lat="45.4446935" lon="10.7680975"><ele>116.0</ele><time>2026-03-28T10:06:15.58Z</time></trkpt><trkpt lat="45.4449507" lon="10.7680692"><ele>116.0</ele><time>2026-03-28T10:06:16.578Z</time></trkpt><trkpt lat="45.4452347" lon="10.7680354"><ele>116.0</ele><time>2026-03-28T10:06:17.579Z</time></trkpt><trkpt lat="45.4455072" lon="10.7680152"><ele>115.0</ele><time>2026-03-28T10:06:18.58Z</time></trkpt><trkpt lat="45.4457624" lon="10.7680106"><ele>114.0</ele><time>2026-03-28T10:06:19.579Z</time></trkpt><trkpt lat="45.4460066" lon="10.7680327"><ele>114.0</ele><time>2026-03-28T10:06:20.579Z</time></trkpt><trkpt lat="45.4462438" lon="10.7680847"><ele>114.0</ele><time>2026-03-28T10:06:21.58Z</time></trkpt><trkpt lat="45.4464788" lon="10.7681653"><ele>113.0</ele><time>2026-03-28T10:06:22.579Z</time></trkpt><trkpt lat="45.4467222" lon="10.7682734"><ele>112.0</ele><time>2026-03-28T10:06:23.58Z</time></trkpt><trkpt lat="45.4469885" lon="10.7684092"><ele>113.5</ele><time>2026-03-28T10:06:24.58Z</time></trkpt><trkpt lat="45.4472628" lon="10.768575"><ele>115.0</ele><time>2026-03-28T10:06:25.58Z</time></trkpt><trkpt lat="45.4475217" lon="10.7687428"><ele>115.0</ele><time>2026-03-28T10:06:26.579Z</time></trkpt><trkpt lat="45.4477606" lon="10.7689037"><ele>115.0</ele><time>2026-03-28T10:06:27.579Z</time></trkpt><trkpt lat="45.447985" lon="10.7690588"><ele>114.5</ele><time>2026-03-28T10:06:28.579Z</time></trkpt><trkpt lat="45.4481901" lon="10.7692181"><ele>114.0</ele><time>2026-03-28T10:06:29.58Z</time></trkpt><trkpt lat="45.4483771" lon="10.7693842"><ele>113.66666666666666</ele><time>2026-03-28T10:06:30.58Z</time></trkpt><trkpt lat="45.4485496" lon="10.7695581"><ele>113.33333333333333</ele><time>2026-03-28T10:06:31.58Z</time></trkpt><trkpt lat="45.4487093" lon="10.7697383"><ele>113.0</ele><time>2026-03-28T10:06:32.579Z</time></trkpt><trkpt lat="45.4488473" lon="10.7699107"><ele>113.33333333333333</ele><time>2026-03-28T10:06:33.579Z</time></trkpt><trkpt lat="45.4489436" lon="10.77004"><ele>113.66666666666666</ele><time>2026-03-28T10:06:34.58Z</time></trkpt><trkpt lat="45.4490048" lon="10.7701198"><ele>114.0</ele><time>2026-03-28T10:06:35.579Z</time></trkpt><trkpt lat="45.4490583" lon="10.7701781"><ele>114.33333333333334</ele><time>2026-03-28T10:06:36.578Z</time></trkpt><trkpt lat="45.4491143" lon="10.7702509"><ele>114.66666666666667</ele><time>2026-03-28T10:06:37.578Z</time></trkpt><trkpt lat="45.4491664" lon="10.7703298"><ele>115.0</ele><time>2026-03-28T10:06:38.579Z</time></trkpt><trkpt lat="45.4492532" lon="10.7703929"><ele>115.0</ele><time>2026-03-28T10:06:40.58Z</time></trkpt><trkpt lat="45.449319" lon="10.7703966"><ele>115.0</ele><time>2026-03-28T10:06:41.58Z</time></trkpt><trkpt lat="45.4494141" lon="10.7703951"><ele>115.0</ele><time>2026-03-28T10:06:42.58Z</time></trkpt><trkpt lat="45.4495501" lon="10.7704078"><ele>115.0</ele><time>2026-03-28T10:06:43.579Z</time></trkpt><trkpt lat="45.4497054" lon="10.7704202"><ele>115.0</ele><time>2026-03-28T10:06:44.579Z</time></trkpt><trkpt lat="45.449891" lon="10.77044"><ele>115.0</ele><time>2026-03-28T10:06:45.58Z</time></trkpt><trkpt lat="45.4500796" lon="10.7704646"><ele>115.0</ele><time>2026-03-28T10:06:46.58Z</time></trkpt><trkpt lat="45.4502701" lon="10.7704973"><ele>115.33333333333334</ele><time>2026-03-28T10:06:47.578Z</time></trkpt><trkpt lat="45.4504724" lon="10.7705286"><ele>115.66666666666666</ele><time>2026-03-28T10:06:48.578Z</time></trkpt><trkpt lat="45.4506596" lon="10.770551"><ele>116.0</ele><time>2026-03-28T10:06:49.579Z</time></trkpt><trkpt lat="45.4508326" lon="10.770577"><ele>116.0</ele><time>2026-03-28T10:06:50.578Z</time></trkpt><trkpt lat="45.45099" lon="10.7706018"><ele>116.0</ele><time>2026-03-28T10:06:51.579Z</time></trkpt><trkpt lat="45.4511411" lon="10.7706275"><ele>116.0</ele><time>2026-03-28T10:06:52.579Z</time></trkpt><trkpt lat="45.4512828" lon="10.7706527"><ele>116.25</ele><time>2026-03-28T10:06:53.58Z</time></trkpt><trkpt lat="45.451423" lon="10.7706741"><ele>116.5</ele><time>2026-03-28T10:06:54.579Z</time></trkpt><trkpt lat="45.4515679" lon="10.7707014"><ele>116.75</ele><time>2026-03-28T10:06:55.579Z</time></trkpt><trkpt lat="45.4517213" lon="10.7707359"><ele>117.0</ele><time>2026-03-28T10:06:56.579Z</time></trkpt><trkpt lat="45.4518885" lon="10.7707715"><ele>117.0</ele><time>2026-03-28T10:06:57.58Z</time></trkpt><trkpt lat="45.4520523" lon="10.7708028"><ele>117.0</ele><time>2026-03-28T10:06:58.579Z</time></trkpt><trkpt lat="45.4521988" lon="10.7708263"><ele>117.0</ele><time>2026-03-28T10:06:59.578Z</time></trkpt><trkpt lat="45.4523376" lon="10.7708474"><ele>117.5</ele><time>2026-03-28T10:07:00.579Z</time></trkpt><trkpt lat="45.4524665" lon="10.7708675"><ele>118.0</ele><time>2026-03-28T10:07:01.579Z</time></trkpt><trkpt lat="45.452587" lon="10.7708842"><ele>118.5</ele><time>2026-03-28T10:07:02.58Z</time></trkpt><trkpt lat="45.4526932" lon="10.7708975"><ele>119.0</ele><time>2026-03-28T10:07:03.579Z</time></trkpt><trkpt lat="45.4527902" lon="10.7709187"><ele>118.99999999999999</ele><time>2026-03-28T10:07:04.579Z</time></trkpt><trkpt lat="45.4528793" lon="10.770942"><ele>119.0</ele><time>2026-03-28T10:07:05.58Z</time></trkpt><trkpt lat="45.4529595" lon="10.7709611"><ele>119.0</ele><time>2026-03-28T10:07:06.579Z</time></trkpt><trkpt lat="45.4530403" lon="10.7709795"><ele>119.0</ele><time>2026-03-28T10:07:07.579Z</time></trkpt><trkpt lat="45.4531141" lon="10.7709849"><ele>118.99999999999999</ele><time>2026-03-28T10:07:08.579Z</time></trkpt><trkpt lat="45.4531859" lon="10.7709916"><ele>119.0</ele><time>2026-03-28T10:07:09.579Z</time></trkpt><trkpt lat="45.4532617" lon="10.7710084"><ele>118.80000000000001</ele><time>2026-03-28T10:07:10.578Z</time></trkpt><trkpt lat="45.4533437" lon="10.7710242"><ele>118.60000000000001</ele><time>2026-03-28T10:07:11.579Z</time></trkpt><trkpt lat="45.4534331" lon="10.7710443"><ele>118.4</ele><time>2026-03-28T10:07:12.58Z</time></trkpt><trkpt lat="45.453528" lon="10.7710586"><ele>118.2</ele><time>2026-03-28T10:07:13.58Z</time></trkpt><trkpt lat="45.4536265" lon="10.7710704"><ele>118.0</ele><time>2026-03-28T10:07:14.58Z</time></trkpt><trkpt lat="45.4537319" lon="10.7710823"><ele>117.75</ele><time>2026-03-28T10:07:15.58Z</time></trkpt><trkpt lat="45.4538486" lon="10.771102"><ele>117.5</ele><time>2026-03-28T10:07:16.58Z</time></trkpt><trkpt lat="45.4539784" lon="10.7711246"><ele>117.25</ele><time>2026-03-28T10:07:17.579Z</time></trkpt><trkpt lat="45.4541153" lon="10.7711488"><ele>117.0</ele><time>2026-03-28T10:07:18.579Z</time></trkpt><trkpt lat="45.4542575" lon="10.771171"><ele>117.0</ele><time>2026-03-28T10:07:19.58Z</time></trkpt><trkpt lat="45.4544" lon="10.7711932"><ele>117.0</ele><time>2026-03-28T10:07:20.579Z</time></trkpt><trkpt lat="45.4545371" lon="10.7712175"><ele>117.0</ele><time>2026-03-28T10:07:21.579Z</time></trkpt><trkpt lat="45.4546619" lon="10.7712364"><ele>117.0</ele><time>2026-03-28T10:07:22.579Z</time></trkpt><trkpt lat="45.4547722" lon="10.7712503"><ele>117.5</ele><time>2026-03-28T10:07:23.579Z</time></trkpt><trkpt lat="45.4548607" lon="10.77126"><ele>118.0</ele><time>2026-03-28T10:07:24.58Z</time></trkpt><trkpt lat="45.4549301" lon="10.7712736"><ele>118.5</ele><time>2026-03-28T10:07:25.579Z</time></trkpt><trkpt lat="45.4550103" lon="10.7713243"><ele>119.0</ele><time>2026-03-28T10:07:27.58Z</time></trkpt><trkpt lat="45.4550291" lon="10.7714512"><ele>119.5</ele><time>2026-03-28T10:07:29.579Z</time></trkpt><trkpt lat="45.4550184" lon="10.7715524"><ele>120.0</ele><time>2026-03-28T10:07:30.579Z</time></trkpt><trkpt lat="45.4550949" lon="10.7716716"><ele>120.0</ele><time>2026-03-28T10:07:32.58Z</time></trkpt><trkpt lat="45.4551655" lon="10.7717087"><ele>120.0</ele><time>2026-03-28T10:07:33.58Z</time></trkpt><trkpt lat="45.4552666" lon="10.7717427"><ele>120.0</ele><time>2026-03-28T10:07:34.58Z</time></trkpt><trkpt lat="45.4553915" lon="10.7717727"><ele>120.0</ele><time>2026-03-28T10:07:35.58Z</time></trkpt><trkpt lat="45.4555344" lon="10.7718058"><ele>120.0</ele><time>2026-03-28T10:07:36.58Z</time></trkpt><trkpt lat="45.455678" lon="10.7718384"><ele>120.0</ele><time>2026-03-28T10:07:37.58Z</time></trkpt><trkpt lat="45.4558235" lon="10.7718659"><ele>120.0</ele><time>2026-03-28T10:07:38.578Z</time></trkpt><trkpt lat="45.4559742" lon="10.7719011"><ele>120.0</ele><time>2026-03-28T10:07:39.58Z</time></trkpt><trkpt lat="45.4561279" lon="10.7719351"><ele>120.33333333333334</ele><time>2026-03-28T10:07:40.579Z</time></trkpt><trkpt lat="45.4562833" lon="10.7719744"><ele>120.66666666666667</ele><time>2026-03-28T10:07:41.579Z</time></trkpt><trkpt lat="45.4564399" lon="10.7720109"><ele>121.0</ele><time>2026-03-28T10:07:42.578Z</time></trkpt><trkpt lat="45.4566017" lon="10.7720413"><ele>121.0</ele><time>2026-03-28T10:07:43.579Z</time></trkpt><trkpt lat="45.45677" lon="10.7720598"><ele>121.0</ele><time>2026-03-28T10:07:44.579Z</time></trkpt><trkpt lat="45.4569431" lon="10.7720711"><ele>121.0</ele><time>2026-03-28T10:07:45.578Z</time></trkpt><trkpt lat="45.4571213" lon="10.7720781"><ele>121.0</ele><time>2026-03-28T10:07:46.58Z</time></trkpt><trkpt lat="45.4572991" lon="10.7720816"><ele>121.0</ele><time>2026-03-28T10:07:47.58Z</time></trkpt><trkpt lat="45.457448" lon="10.7720837"><ele>121.0</ele><time>2026-03-28T10:07:48.58Z</time></trkpt><trkpt lat="45.4575666" lon="10.7720831"><ele>121.0</ele><time>2026-03-28T10:07:49.579Z</time></trkpt><trkpt lat="45.4576717" lon="10.7720796"><ele>121.0</ele><time>2026-03-28T10:07:50.58Z</time></trkpt><trkpt lat="45.4577748" lon="10.7720732"><ele>121.0</ele><time>2026-03-28T10:07:51.579Z</time></trkpt><trkpt lat="45.4578958" lon="10.772067"><ele>121.0</ele><time>2026-03-28T10:07:52.578Z</time></trkpt><trkpt lat="45.4580377" lon="10.7720635"><ele>121.0</ele><time>2026-03-28T10:07:53.58Z</time></trkpt><trkpt lat="45.4582049" lon="10.7720629"><ele>121.0</ele><time>2026-03-28T10:07:54.58Z</time></trkpt><trkpt lat="45.4583859" lon="10.7720546"><ele>121.0</ele><time>2026-03-28T10:07:55.579Z</time></trkpt><trkpt lat="45.4585839" lon="10.7720323"><ele>121.0</ele><time>2026-03-28T10:07:56.58Z</time></trkpt><trkpt lat="45.458768" lon="10.7720064"><ele>121.0</ele><time>2026-03-28T10:07:57.58Z</time></trkpt><trkpt lat="45.4589371" lon="10.7719816"><ele>121.0</ele><time>2026-03-28T10:07:58.579Z</time></trkpt><trkpt lat="45.4590943" lon="10.7719557"><ele>121.0</ele><time>2026-03-28T10:07:59.579Z</time></trkpt><trkpt lat="45.4592433" lon="10.7719367"><ele>121.0</ele><time>2026-03-28T10:08:00.58Z</time></trkpt><trkpt lat="45.4593979" lon="10.7719215"><ele>121.0</ele><time>2026-03-28T10:08:01.58Z</time></trkpt><trkpt lat="45.4595524" lon="10.7719203"><ele>121.0</ele><time>2026-03-28T10:08:02.579Z</time></trkpt><trkpt lat="45.4597094" lon="10.7719304"><ele>121.33333333333334</ele><time>2026-03-28T10:08:03.579Z</time></trkpt><trkpt lat="45.4598611" lon="10.7719341"><ele>121.66666666666666</ele><time>2026-03-28T10:08:04.579Z</time></trkpt><trkpt lat="45.4600261" lon="10.7719351"><ele>122.0</ele><time>2026-03-28T10:08:05.579Z</time></trkpt><trkpt lat="45.4602099" lon="10.771941"><ele>122.0</ele><time>2026-03-28T10:08:06.578Z</time></trkpt><trkpt lat="45.460403" lon="10.7719466"><ele>122.0</ele><time>2026-03-28T10:08:07.579Z</time></trkpt><trkpt lat="45.4605807" lon="10.7719516"><ele>122.0</ele><time>2026-03-28T10:08:08.578Z</time></trkpt><trkpt lat="45.4607417" lon="10.7719564"><ele>122.19999999999999</ele><time>2026-03-28T10:08:09.578Z</time></trkpt><trkpt lat="45.4608823" lon="10.7719612"><ele>122.39999999999999</ele><time>2026-03-28T10:08:10.579Z</time></trkpt><trkpt lat="45.4609976" lon="10.7719671"><ele>122.60000000000001</ele><time>2026-03-28T10:08:11.58Z</time></trkpt><trkpt lat="45.4610859" lon="10.7719713"><ele>122.80000000000001</ele><time>2026-03-28T10:08:12.58Z</time></trkpt><trkpt lat="45.4611496" lon="10.7719792"><ele>123.0</ele><time>2026-03-28T10:08:13.58Z</time></trkpt><trkpt lat="45.4612206" lon="10.7720361"><ele>123.0</ele><time>2026-03-28T10:08:16.579Z</time></trkpt><trkpt lat="45.4612311" lon="10.7722348"><ele>123.00000000000001</ele><time>2026-03-28T10:08:18.579Z</time></trkpt><trkpt lat="45.4612349" lon="10.7723622"><ele>123.00000000000001</ele><time>2026-03-28T10:08:19.579Z</time></trkpt><trkpt lat="45.4612528" lon="10.7724579"><ele>123.0</ele><time>2026-03-28T10:08:20.578Z</time></trkpt><trkpt lat="45.4613618" lon="10.7725497"><ele>123.0</ele><time>2026-03-28T10:08:22.58Z</time></trkpt><trkpt lat="45.4614648" lon="10.7725526"><ele>123.5</ele><time>2026-03-28T10:08:23.58Z</time></trkpt><trkpt lat="45.4615925" lon="10.7725701"><ele>124.0</ele><time>2026-03-28T10:08:24.578Z</time></trkpt><trkpt lat="45.4617388" lon="10.7725701"><ele>124.5</ele><time>2026-03-28T10:08:25.578Z</time></trkpt><trkpt lat="45.4619084" lon="10.7725649"><ele>125.0</ele><time>2026-03-28T10:08:26.579Z</time></trkpt><trkpt lat="45.4620931" lon="10.7725389"><ele>125.5</ele><time>2026-03-28T10:08:27.579Z</time></trkpt><trkpt lat="45.4622802" lon="10.7725005"><ele>126.0</ele><time>2026-03-28T10:08:28.578Z</time></trkpt><trkpt lat="45.4624122" lon="10.7724724"><ele>126.5</ele><time>2026-03-28T10:08:29.579Z</time></trkpt><trkpt lat="45.4625312" lon="10.7724449"><ele>127.0</ele><time>2026-03-28T10:08:30.579Z</time></trkpt><trkpt lat="45.4626418" lon="10.7724152"><ele>127.0</ele><time>2026-03-28T10:08:31.579Z</time></trkpt><trkpt lat="45.4627566" lon="10.7723824"><ele>127.0</ele><time>2026-03-28T10:08:32.579Z</time></trkpt><trkpt lat="45.4628765" lon="10.7723584"><ele>127.0</ele><time>2026-03-28T10:08:33.579Z</time></trkpt><trkpt lat="45.4629959" lon="10.7723645"><ele>127.0</ele><time>2026-03-28T10:08:34.579Z</time></trkpt><trkpt lat="45.4631296" lon="10.7723864"><ele>128.33333333333334</ele><time>2026-03-28T10:08:35.579Z</time></trkpt><trkpt lat="45.4632746" lon="10.7724208"><ele>129.66666666666666</ele><time>2026-03-28T10:08:36.579Z</time></trkpt><trkpt lat="45.4634327" lon="10.7724537"><ele>131.0</ele><time>2026-03-28T10:08:37.579Z</time></trkpt><trkpt lat="45.4635885" lon="10.7724918"><ele>131.0</ele><time>2026-03-28T10:08:38.58Z</time></trkpt><trkpt lat="45.4637372" lon="10.7725698"><ele>131.0</ele><time>2026-03-28T10:08:39.58Z</time></trkpt><trkpt lat="45.4638863" lon="10.7726607"><ele>131.0</ele><time>2026-03-28T10:08:40.579Z</time></trkpt><trkpt lat="45.4640181" lon="10.7727499"><ele>132.0</ele><time>2026-03-28T10:08:41.58Z</time></trkpt><trkpt lat="45.4641231" lon="10.7728451"><ele>133.0</ele><time>2026-03-28T10:08:42.58Z</time></trkpt><trkpt lat="45.4642021" lon="10.7729381"><ele>134.0</ele><time>2026-03-28T10:08:43.579Z</time></trkpt><trkpt lat="45.4642551" lon="10.7730212"><ele>135.0</ele><time>2026-03-28T10:08:44.579Z</time></trkpt><trkpt lat="45.4642826" lon="10.7731158"><ele>136.0</ele><time>2026-03-28T10:08:45.58Z</time></trkpt><trkpt lat="45.4642721" lon="10.7732153"><ele>137.0</ele><time>2026-03-28T10:08:46.58Z</time></trkpt><trkpt lat="45.4642319" lon="10.7733325"><ele>137.0</ele><time>2026-03-28T10:08:47.579Z</time></trkpt><trkpt lat="45.4641636" lon="10.7734959"><ele>137.0</ele><time>2026-03-28T10:08:48.579Z</time></trkpt><trkpt lat="45.4640725" lon="10.7736959"><ele>137.0</ele><time>2026-03-28T10:08:49.579Z</time></trkpt><trkpt lat="45.4639845" lon="10.7738877"><ele>137.79999999999998</ele><time>2026-03-28T10:08:50.579Z</time></trkpt><trkpt lat="45.4639094" lon="10.7740523"><ele>138.6</ele><time>2026-03-28T10:08:51.579Z</time></trkpt><trkpt lat="45.4638476" lon="10.7742074"><ele>139.39999999999998</ele><time>2026-03-28T10:08:52.579Z</time></trkpt><trkpt lat="45.4638244" lon="10.7743072"><ele>140.2</ele><time>2026-03-28T10:08:53.579Z</time></trkpt><trkpt lat="45.4638405" lon="10.7744319"><ele>141.0</ele><time>2026-03-28T10:08:55.579Z</time></trkpt><trkpt lat="45.463897" lon="10.7745336"><ele>141.16666666666666</ele><time>2026-03-28T10:08:57.58Z</time></trkpt><trkpt lat="45.4638518" lon="10.7744705"><ele>141.33333333333334</ele><time>2026-03-28T10:09:18.579Z</time></trkpt><trkpt lat="45.4639005" lon="10.7745378"><ele>141.5</ele><time>2026-03-28T10:09:32.579Z</time></trkpt><trkpt lat="45.4639894" lon="10.7746373"><ele>141.66666666666669</ele><time>2026-03-28T10:09:34.579Z</time></trkpt><trkpt lat="45.4640475" lon="10.7746952"><ele>141.83333333333334</ele><time>2026-03-28T10:09:35.579Z</time></trkpt><trkpt lat="45.464111" lon="10.7747636"><ele>142.0</ele><time>2026-03-28T10:09:36.579Z</time></trkpt><trkpt lat="45.4641775" lon="10.7748381"><ele>142.0</ele><time>2026-03-28T10:09:37.579Z</time></trkpt><trkpt lat="45.4642368" lon="10.7749059"><ele>142.0</ele><time>2026-03-28T10:09:38.579Z</time></trkpt><trkpt lat="45.4642901" lon="10.7749676"><ele>142.0</ele><time>2026-03-28T10:09:39.58Z</time></trkpt><trkpt lat="45.4643754" lon="10.7750445"><ele>142.0</ele><time>2026-03-28T10:09:41.579Z</time></trkpt><trkpt lat="45.4644349" lon="10.7750996"><ele>142.0</ele><time>2026-03-28T10:09:45.579Z</time></trkpt><trkpt lat="45.4645178" lon="10.7751795"><ele>142.0</ele><time>2026-03-28T10:11:13.579Z</time></trkpt><trkpt lat="45.4645879" lon="10.7752521"><ele>143.75</ele><time>2026-03-28T10:11:14.579Z</time></trkpt><trkpt lat="45.464667" lon="10.7753332"><ele>145.5</ele><time>2026-03-28T10:11:15.579Z</time></trkpt><trkpt lat="45.4647562" lon="10.7754226"><ele>147.25</ele><time>2026-03-28T10:11:16.58Z</time></trkpt><trkpt lat="45.4648582" lon="10.7755155"><ele>149.0</ele><time>2026-03-28T10:11:17.579Z</time></trkpt><trkpt lat="45.4649669" lon="10.775606"><ele>149.0</ele><time>2026-03-28T10:11:18.579Z</time></trkpt><trkpt lat="45.4650794" lon="10.7756901"><ele>149.0</ele><time>2026-03-28T10:11:19.58Z</time></trkpt><trkpt lat="45.4651806" lon="10.775778"><ele>149.0</ele><time>2026-03-28T10:11:20.58Z</time></trkpt><trkpt lat="45.4652891" lon="10.7758756"><ele>149.0</ele><time>2026-03-28T10:11:21.579Z</time></trkpt><trkpt lat="45.4653973" lon="10.7759646"><ele>149.4</ele><time>2026-03-28T10:11:22.58Z</time></trkpt><trkpt lat="45.4654977" lon="10.7760408"><ele>149.8</ele><time>2026-03-28T10:11:23.579Z</time></trkpt><trkpt lat="45.4655823" lon="10.7761063"><ele>150.2</ele><time>2026-03-28T10:11:24.58Z</time></trkpt><trkpt lat="45.4656729" lon="10.7761629"><ele>150.6</ele><time>2026-03-28T10:11:25.579Z</time></trkpt><trkpt lat="45.4657664" lon="10.776226"><ele>151.0</ele><time>2026-03-28T10:11:26.579Z</time></trkpt><trkpt lat="45.465862" lon="10.7762661"><ele>151.0</ele><time>2026-03-28T10:11:27.58Z</time></trkpt><trkpt lat="45.4659783" lon="10.776299"><ele>151.0</ele><time>2026-03-28T10:11:28.579Z</time></trkpt><trkpt lat="45.4661119" lon="10.7763465"><ele>151.0</ele><time>2026-03-28T10:11:29.579Z</time></trkpt><trkpt lat="45.4662484" lon="10.7764249"><ele>151.0</ele><time>2026-03-28T10:11:30.579Z</time></trkpt><trkpt lat="45.466387" lon="10.7764948"><ele>151.6</ele><time>2026-03-28T10:11:31.58Z</time></trkpt><trkpt lat="45.466522" lon="10.7765618"><ele>152.2</ele><time>2026-03-28T10:11:32.579Z</time></trkpt><trkpt lat="45.4666304" lon="10.7766162"><ele>152.8</ele><time>2026-03-28T10:11:33.578Z</time></trkpt><trkpt lat="45.4667228" lon="10.7766692"><ele>153.4</ele><time>2026-03-28T10:11:34.578Z</time></trkpt><trkpt lat="45.4667889" lon="10.7767084"><ele>154.0</ele><time>2026-03-28T10:11:35.58Z</time></trkpt><trkpt lat="45.4668681" lon="10.7767699"><ele>154.0</ele><time>2026-03-28T10:12:34.579Z</time></trkpt><trkpt lat="45.4669818" lon="10.7768196"><ele>154.0</ele><time>2026-03-28T10:12:36.579Z</time></trkpt><trkpt lat="45.4670844" lon="10.7768708"><ele>154.0</ele><time>2026-03-28T10:12:38.579Z</time></trkpt><trkpt lat="45.4671722" lon="10.7769177"><ele>154.0</ele><time>2026-03-28T10:12:40.579Z</time></trkpt><trkpt lat="45.4672816" lon="10.7769712"><ele>154.0</ele><time>2026-03-28T10:12:42.58Z</time></trkpt><trkpt lat="45.4673539" lon="10.777011"><ele>154.8</ele><time>2026-03-28T10:12:43.579Z</time></trkpt><trkpt lat="45.4674427" lon="10.777057"><ele>155.60000000000002</ele><time>2026-03-28T10:12:44.58Z</time></trkpt><trkpt lat="45.4675392" lon="10.7771056"><ele>156.4</ele><time>2026-03-28T10:12:45.579Z</time></trkpt><trkpt lat="45.467628" lon="10.7771521"><ele>157.20000000000002</ele><time>2026-03-28T10:12:46.579Z</time></trkpt><trkpt lat="45.4676989" lon="10.7771953"><ele>158.0</ele><time>2026-03-28T10:12:47.579Z</time></trkpt><trkpt lat="45.4677731" lon="10.7772521"><ele>158.0</ele><time>2026-03-28T10:12:48.579Z</time></trkpt><trkpt lat="45.4678608" lon="10.77732"><ele>158.0</ele><time>2026-03-28T10:12:49.579Z</time></trkpt><trkpt lat="45.4679689" lon="10.7773828"><ele>158.0</ele><time>2026-03-28T10:12:50.58Z</time></trkpt><trkpt lat="45.4680982" lon="10.7774514"><ele>158.0</ele><time>2026-03-28T10:12:51.58Z</time></trkpt><trkpt lat="45.4682394" lon="10.777526"><ele>157.5</ele><time>2026-03-28T10:12:52.58Z</time></trkpt><trkpt lat="45.468377" lon="10.7775992"><ele>157.0</ele><time>2026-03-28T10:12:53.579Z</time></trkpt><trkpt lat="45.4685031" lon="10.7776725"><ele>156.5</ele><time>2026-03-28T10:12:54.579Z</time></trkpt><trkpt lat="45.4686211" lon="10.7777427"><ele>156.0</ele><time>2026-03-28T10:12:55.58Z</time></trkpt><trkpt lat="45.4687317" lon="10.7778062"><ele>155.66666666666666</ele><time>2026-03-28T10:12:56.58Z</time></trkpt><trkpt lat="45.4688336" lon="10.7778663"><ele>155.33333333333334</ele><time>2026-03-28T10:12:57.578Z</time></trkpt><trkpt lat="45.4689249" lon="10.7779228"><ele>155.0</ele><time>2026-03-28T10:12:58.578Z</time></trkpt><trkpt lat="45.4690066" lon="10.7779726"><ele>154.66666666666669</ele><time>2026-03-28T10:12:59.579Z</time></trkpt><trkpt lat="45.4690796" lon="10.7780157"><ele>154.33333333333334</ele><time>2026-03-28T10:13:00.579Z</time></trkpt><trkpt lat="45.4691448" lon="10.7780525"><ele>154.0</ele><time>2026-03-28T10:13:01.579Z</time></trkpt><trkpt lat="45.4691991" lon="10.7781458"><ele>154.0</ele><time>2026-03-28T10:13:03.58Z</time></trkpt><trkpt lat="45.4691672" lon="10.7782935"><ele>154.0</ele><time>2026-03-28T10:13:05.579Z</time></trkpt><trkpt lat="45.469124" lon="10.7783923"><ele>154.0</ele><time>2026-03-28T10:13:06.58Z</time></trkpt><trkpt lat="45.469056" lon="10.7785124"><ele>154.0</ele><time>2026-03-28T10:13:07.579Z</time></trkpt><trkpt lat="45.4689695" lon="10.7786443"><ele>154.0</ele><time>2026-03-28T10:13:08.579Z</time></trkpt><trkpt lat="45.4688709" lon="10.7787852"><ele>153.5</ele><time>2026-03-28T10:13:09.579Z</time></trkpt><trkpt lat="45.4687664" lon="10.7789391"><ele>153.0</ele><time>2026-03-28T10:13:10.579Z</time></trkpt><trkpt lat="45.4686703" lon="10.7790815"><ele>152.5</ele><time>2026-03-28T10:13:11.58Z</time></trkpt><trkpt lat="45.4685807" lon="10.7792072"><ele>152.0</ele><time>2026-03-28T10:13:12.58Z</time></trkpt><trkpt lat="45.4684957" lon="10.7793255"><ele>152.0</ele><time>2026-03-28T10:13:13.58Z</time></trkpt><trkpt lat="45.4684147" lon="10.7794341"><ele>152.0</ele><time>2026-03-28T10:13:14.58Z</time></trkpt><trkpt lat="45.4683396" lon="10.7795351"><ele>152.0</ele><time>2026-03-28T10:13:15.58Z</time></trkpt><trkpt lat="45.4682673" lon="10.7796265"><ele>152.0</ele><time>2026-03-28T10:13:16.579Z</time></trkpt><trkpt lat="45.4681757" lon="10.7797192"><ele>152.0</ele><time>2026-03-28T10:13:17.579Z</time></trkpt><trkpt lat="45.4680533" lon="10.7798173"><ele>152.25</ele><time>2026-03-28T10:13:18.579Z</time></trkpt><trkpt lat="45.4679286" lon="10.7798965"><ele>152.5</ele><time>2026-03-28T10:13:19.58Z</time></trkpt><trkpt lat="45.4678193" lon="10.7799795"><ele>152.75</ele><time>2026-03-28T10:13:20.579Z</time></trkpt><trkpt lat="45.4677156" lon="10.7800927"><ele>153.0</ele><time>2026-03-28T10:13:21.58Z</time></trkpt><trkpt lat="45.4676107" lon="10.7802388"><ele>154.66666666666666</ele><time>2026-03-28T10:13:22.58Z</time></trkpt><trkpt lat="45.4675008" lon="10.7804233"><ele>156.33333333333331</ele><time>2026-03-28T10:13:23.58Z</time></trkpt><trkpt lat="45.4673797" lon="10.7806521"><ele>158.0</ele><time>2026-03-28T10:13:24.58Z</time></trkpt><trkpt lat="45.4672605" lon="10.7808889"><ele>158.5</ele><time>2026-03-28T10:13:25.58Z</time></trkpt><trkpt lat="45.467163" lon="10.7810786"><ele>159.0</ele><time>2026-03-28T10:13:26.578Z</time></trkpt><trkpt lat="45.467081" lon="10.7812364"><ele>159.5</ele><time>2026-03-28T10:13:27.579Z</time></trkpt><trkpt lat="45.4670017" lon="10.7814046"><ele>160.0</ele><time>2026-03-28T10:13:28.579Z</time></trkpt><trkpt lat="45.4669287" lon="10.7816041"><ele>158.0</ele><time>2026-03-28T10:13:29.58Z</time></trkpt><trkpt lat="45.4668717" lon="10.7818275"><ele>156.0</ele><time>2026-03-28T10:13:30.579Z</time></trkpt><trkpt lat="45.4668288" lon="10.7820707"><ele>154.0</ele><time>2026-03-28T10:13:31.578Z</time></trkpt><trkpt lat="45.4667968" lon="10.782323"><ele>154.0</ele><time>2026-03-28T10:13:32.58Z</time></trkpt><trkpt lat="45.466768" lon="10.782564"><ele>154.0</ele><time>2026-03-28T10:13:33.58Z</time></trkpt><trkpt lat="45.4667308" lon="10.7827958"><ele>154.0</ele><time>2026-03-28T10:13:34.579Z</time></trkpt><trkpt lat="45.4666872" lon="10.7830346"><ele>153.66666666666669</ele><time>2026-03-28T10:13:35.579Z</time></trkpt><trkpt lat="45.4666359" lon="10.7832753"><ele>153.33333333333334</ele><time>2026-03-28T10:13:36.58Z</time></trkpt><trkpt lat="45.4665877" lon="10.7835024"><ele>153.0</ele><time>2026-03-28T10:13:37.58Z</time></trkpt><trkpt lat="45.4665639" lon="10.7837168"><ele>152.75</ele><time>2026-03-28T10:13:38.579Z</time></trkpt><trkpt lat="45.4665551" lon="10.7839222"><ele>152.5</ele><time>2026-03-28T10:13:39.579Z</time></trkpt><trkpt lat="45.4665585" lon="10.7841081"><ele>152.25</ele><time>2026-03-28T10:13:40.579Z</time></trkpt><trkpt lat="45.4665498" lon="10.7842781"><ele>152.0</ele><time>2026-03-28T10:13:41.58Z</time></trkpt><trkpt lat="45.4665273" lon="10.7844109"><ele>152.6</ele><time>2026-03-28T10:13:42.58Z</time></trkpt><trkpt lat="45.4665456" lon="10.7845658"><ele>153.2</ele><time>2026-03-28T10:13:44.578Z</time></trkpt><trkpt lat="45.4666455" lon="10.7845864"><ele>153.8</ele><time>2026-03-28T10:13:46.579Z</time></trkpt><trkpt lat="45.466728" lon="10.7845631"><ele>154.4</ele><time>2026-03-28T10:13:47.58Z</time></trkpt><trkpt lat="45.4668041" lon="10.7845612"><ele>155.0</ele><time>2026-03-28T10:13:48.58Z</time></trkpt><trkpt lat="45.4668924" lon="10.7845897"><ele>155.0</ele><time>2026-03-28T10:13:49.58Z</time></trkpt><trkpt lat="45.4669819" lon="10.7846415"><ele>155.0</ele><time>2026-03-28T10:13:50.579Z</time></trkpt><trkpt lat="45.4670742" lon="10.7846797"><ele>155.0</ele><time>2026-03-28T10:13:51.579Z</time></trkpt><trkpt lat="45.4671587" lon="10.7846803"><ele>155.0</ele><time>2026-03-28T10:13:52.579Z</time></trkpt><trkpt lat="45.4672377" lon="10.784681"><ele>155.0</ele><time>2026-03-28T10:13:53.579Z</time></trkpt><trkpt lat="45.4673064" lon="10.7846042"><ele>155.0</ele><time>2026-03-28T10:13:54.578Z</time></trkpt><trkpt lat="45.4674026" lon="10.7845219"><ele>155.0</ele><time>2026-03-28T10:13:55.578Z</time></trkpt><trkpt lat="45.4674942" lon="10.7844664"><ele>155.0</ele><time>2026-03-28T10:13:56.579Z</time></trkpt><trkpt lat="45.4676019" lon="10.7844357"><ele>155.0</ele><time>2026-03-28T10:13:57.579Z</time></trkpt><trkpt lat="45.4677226" lon="10.7844234"><ele>155.0</ele><time>2026-03-28T10:13:58.58Z</time></trkpt><trkpt lat="45.4678486" lon="10.7844167"><ele>154.5</ele><time>2026-03-28T10:13:59.579Z</time></trkpt><trkpt lat="45.4679781" lon="10.7844062"><ele>154.0</ele><time>2026-03-28T10:14:00.58Z</time></trkpt><trkpt lat="45.4681082" lon="10.7843842"><ele>153.5</ele><time>2026-03-28T10:14:01.579Z</time></trkpt><trkpt lat="45.4682283" lon="10.7843512"><ele>153.0</ele><time>2026-03-28T10:14:02.579Z</time></trkpt><trkpt lat="45.4683401" lon="10.7843011"><ele>153.0</ele><time>2026-03-28T10:14:03.579Z</time></trkpt><trkpt lat="45.4684415" lon="10.7842384"><ele>153.0</ele><time>2026-03-28T10:14:04.58Z</time></trkpt><trkpt lat="45.4685385" lon="10.7841659"><ele>153.0</ele><time>2026-03-28T10:14:05.58Z</time></trkpt><trkpt lat="45.4686321" lon="10.7840918"><ele>153.0</ele><time>2026-03-28T10:14:06.579Z</time></trkpt><trkpt lat="45.4687369" lon="10.7840375"><ele>153.0</ele><time>2026-03-28T10:14:07.579Z</time></trkpt><trkpt lat="45.4688602" lon="10.7839932"><ele>152.0</ele><time>2026-03-28T10:14:08.579Z</time></trkpt><trkpt lat="45.4689962" lon="10.7839454"><ele>151.0</ele><time>2026-03-28T10:14:09.58Z</time></trkpt><trkpt lat="45.4691451" lon="10.7838923"><ele>150.0</ele><time>2026-03-28T10:14:10.58Z</time></trkpt><trkpt lat="45.4692892" lon="10.7838434"><ele>149.0</ele><time>2026-03-28T10:14:11.58Z</time></trkpt><trkpt lat="45.4694399" lon="10.7837996"><ele>149.0</ele><time>2026-03-28T10:14:12.579Z</time></trkpt><trkpt lat="45.469586" lon="10.7837733"><ele>149.0</ele><time>2026-03-28T10:14:13.578Z</time></trkpt><trkpt lat="45.4697314" lon="10.7837633"><ele>149.0</ele><time>2026-03-28T10:14:14.579Z</time></trkpt><trkpt lat="45.4698725" lon="10.7837676"><ele>149.0</ele><time>2026-03-28T10:14:15.579Z</time></trkpt><trkpt lat="45.4700193" lon="10.7837839"><ele>148.25</ele><time>2026-03-28T10:14:16.578Z</time></trkpt><trkpt lat="45.4701633" lon="10.7838085"><ele>147.5</ele><time>2026-03-28T10:14:17.578Z</time></trkpt><trkpt lat="45.4703028" lon="10.7838437"><ele>146.75</ele><time>2026-03-28T10:14:18.579Z</time></trkpt><trkpt lat="45.4704533" lon="10.7838732"><ele>146.0</ele><time>2026-03-28T10:14:19.58Z</time></trkpt><trkpt lat="45.4706062" lon="10.7838853"><ele>145.0</ele><time>2026-03-28T10:14:20.58Z</time></trkpt><trkpt lat="45.4707514" lon="10.7838767"><ele>144.0</ele><time>2026-03-28T10:14:21.58Z</time></trkpt><trkpt lat="45.4709073" lon="10.7838497"><ele>143.0</ele><time>2026-03-28T10:14:22.579Z</time></trkpt><trkpt lat="45.4710655" lon="10.7838115"><ele>143.0</ele><time>2026-03-28T10:14:23.578Z</time></trkpt><trkpt lat="45.4712317" lon="10.7837617"><ele>143.0</ele><time>2026-03-28T10:14:24.579Z</time></trkpt><trkpt lat="45.4714096" lon="10.7837069"><ele>143.0</ele><time>2026-03-28T10:14:25.579Z</time></trkpt><trkpt lat="45.4715754" lon="10.7836584"><ele>142.25</ele><time>2026-03-28T10:14:26.579Z</time></trkpt><trkpt lat="45.471729" lon="10.7836141"><ele>141.5</ele><time>2026-03-28T10:14:27.579Z</time></trkpt><trkpt lat="45.4718755" lon="10.7835755"><ele>140.75</ele><time>2026-03-28T10:14:28.578Z</time></trkpt><trkpt lat="45.4720131" lon="10.78354"><ele>140.0</ele><time>2026-03-28T10:14:29.579Z</time></trkpt><trkpt lat="45.4721415" lon="10.7835086"><ele>139.8</ele><time>2026-03-28T10:14:30.579Z</time></trkpt><trkpt lat="45.4722652" lon="10.78348"><ele>139.6</ele><time>2026-03-28T10:14:31.578Z</time></trkpt><trkpt lat="45.4723849" lon="10.7834525"><ele>139.4</ele><time>2026-03-28T10:14:32.579Z</time></trkpt><trkpt lat="45.4724919" lon="10.7834347"><ele>139.2</ele><time>2026-03-28T10:14:33.579Z</time></trkpt><trkpt lat="45.4725812" lon="10.7834181"><ele>139.0</ele><time>2026-03-28T10:14:34.579Z</time></trkpt><trkpt lat="45.4726587" lon="10.7834052"><ele>139.0</ele><time>2026-03-28T10:14:35.58Z</time></trkpt><trkpt lat="45.4727297" lon="10.7833907"><ele>139.0</ele><time>2026-03-28T10:14:36.58Z</time></trkpt><trkpt lat="45.4727952" lon="10.7833771"><ele>139.0</ele><time>2026-03-28T10:14:37.58Z</time></trkpt><trkpt lat="45.4728692" lon="10.7833719"><ele>139.0</ele><time>2026-03-28T10:14:38.58Z</time></trkpt><trkpt lat="45.4729396" lon="10.7833682"><ele>139.0</ele><time>2026-03-28T10:14:39.579Z</time></trkpt><trkpt lat="45.4730112" lon="10.7833607"><ele>139.0</ele><time>2026-03-28T10:14:40.579Z</time></trkpt><trkpt lat="45.4731243" lon="10.7833578"><ele>139.0</ele><time>2026-03-28T10:14:42.579Z</time></trkpt><trkpt lat="45.4732118" lon="10.7833562"><ele>139.0</ele><time>2026-03-28T10:14:44.579Z</time></trkpt><trkpt lat="45.4732904" lon="10.7833513"><ele>139.0</ele><time>2026-03-28T10:14:46.578Z</time></trkpt><trkpt lat="45.4733615" lon="10.7833541"><ele>139.0</ele><time>2026-03-28T10:14:48.579Z</time></trkpt><trkpt lat="45.473424" lon="10.7834114"><ele>139.0</ele><time>2026-03-28T10:14:51.58Z</time></trkpt><trkpt lat="45.4735207" lon="10.7834524"><ele>139.0</ele><time>2026-03-28T10:14:53.579Z</time></trkpt><trkpt lat="45.4735985" lon="10.7834484"><ele>139.0</ele><time>2026-03-28T10:14:54.58Z</time></trkpt><trkpt lat="45.4736971" lon="10.7834344"><ele>139.0</ele><time>2026-03-28T10:14:55.579Z</time></trkpt><trkpt lat="45.4738131" lon="10.7834044"><ele>139.0</ele><time>2026-03-28T10:14:56.58Z</time></trkpt><trkpt lat="45.4739212" lon="10.7833575"><ele>139.0</ele><time>2026-03-28T10:14:57.58Z</time></trkpt><trkpt lat="45.4740214" lon="10.7833161"><ele>139.0</ele><time>2026-03-28T10:14:58.58Z</time></trkpt><trkpt lat="45.474113" lon="10.7832816"><ele>139.6</ele><time>2026-03-28T10:14:59.58Z</time></trkpt><trkpt lat="45.4741998" lon="10.7832545"><ele>140.2</ele><time>2026-03-28T10:15:00.58Z</time></trkpt><trkpt lat="45.474287" lon="10.7832196"><ele>140.79999999999998</ele><time>2026-03-28T10:15:01.579Z</time></trkpt><trkpt lat="45.4743824" lon="10.7831799"><ele>141.4</ele><time>2026-03-28T10:15:02.58Z</time></trkpt><trkpt lat="45.474488" lon="10.7831405"><ele>142.0</ele><time>2026-03-28T10:15:03.58Z</time></trkpt><trkpt lat="45.4745975" lon="10.7830995"><ele>141.6</ele><time>2026-03-28T10:15:04.58Z</time></trkpt><trkpt lat="45.4747079" lon="10.7830518"><ele>141.2</ele><time>2026-03-28T10:15:05.58Z</time></trkpt><trkpt lat="45.4748181" lon="10.7829922"><ele>140.8</ele><time>2026-03-28T10:15:06.58Z</time></trkpt><trkpt lat="45.4749123" lon="10.7829291"><ele>140.4</ele><time>2026-03-28T10:15:07.578Z</time></trkpt><trkpt lat="45.4749935" lon="10.7828612"><ele>140.0</ele><time>2026-03-28T10:15:08.578Z</time></trkpt><trkpt lat="45.4750685" lon="10.7827941"><ele>140.0</ele><time>2026-03-28T10:15:09.58Z</time></trkpt><trkpt lat="45.475137" lon="10.7827264"><ele>140.0</ele><time>2026-03-28T10:15:10.579Z</time></trkpt><trkpt lat="45.4752096" lon="10.7826642"><ele>140.0</ele><time>2026-03-28T10:15:11.579Z</time></trkpt><trkpt lat="45.4752889" lon="10.7825981"><ele>140.0</ele><time>2026-03-28T10:15:12.579Z</time></trkpt><trkpt lat="45.475374" lon="10.7825247"><ele>140.0</ele><time>2026-03-28T10:15:13.579Z</time></trkpt><trkpt lat="45.4754581" lon="10.7824479"><ele>139.66666666666666</ele><time>2026-03-28T10:15:14.58Z</time></trkpt><trkpt lat="45.4755217" lon="10.782388"><ele>139.33333333333331</ele><time>2026-03-28T10:15:15.58Z</time></trkpt><trkpt lat="45.4755749" lon="10.7823307"><ele>139.0</ele><time>2026-03-28T10:15:16.579Z</time></trkpt><trkpt lat="45.4756357" lon="10.7822707"><ele>138.66666666666666</ele><time>2026-03-28T10:15:17.579Z</time></trkpt><trkpt lat="45.4757039" lon="10.7821923"><ele>138.33333333333334</ele><time>2026-03-28T10:15:18.578Z</time></trkpt><trkpt lat="45.475782" lon="10.7821015"><ele>138.0</ele><time>2026-03-28T10:15:19.58Z</time></trkpt><trkpt lat="45.475869" lon="10.7819981"><ele>138.0</ele><time>2026-03-28T10:15:20.58Z</time></trkpt><trkpt lat="45.4759422" lon="10.7818856"><ele>138.0</ele><time>2026-03-28T10:15:21.58Z</time></trkpt><trkpt lat="45.4760101" lon="10.7817765"><ele>138.0</ele><time>2026-03-28T10:15:22.579Z</time></trkpt><trkpt lat="45.4760743" lon="10.7816687"><ele>138.0</ele><time>2026-03-28T10:15:23.578Z</time></trkpt><trkpt lat="45.4761366" lon="10.7815736"><ele>138.0</ele><time>2026-03-28T10:15:24.579Z</time></trkpt><trkpt lat="45.4762072" lon="10.7814993"><ele>137.20000000000002</ele><time>2026-03-28T10:15:25.578Z</time></trkpt><trkpt lat="45.4762916" lon="10.7814304"><ele>136.4</ele><time>2026-03-28T10:15:26.579Z</time></trkpt><trkpt lat="45.4763802" lon="10.7813347"><ele>135.60000000000002</ele><time>2026-03-28T10:15:27.579Z</time></trkpt><trkpt lat="45.4764682" lon="10.7812658"><ele>134.8</ele><time>2026-03-28T10:15:28.58Z</time></trkpt><trkpt lat="45.4765446" lon="10.7812146"><ele>134.0</ele><time>2026-03-28T10:15:29.58Z</time></trkpt><trkpt lat="45.4766157" lon="10.7811596"><ele>134.0</ele><time>2026-03-28T10:15:30.579Z</time></trkpt><trkpt lat="45.476683" lon="10.7811182"><ele>134.0</ele><time>2026-03-28T10:15:31.58Z</time></trkpt><trkpt lat="45.4767899" lon="10.7810574"><ele>134.0</ele><time>2026-03-28T10:15:33.578Z</time></trkpt><trkpt lat="45.4768442" lon="10.78097"><ele>134.0</ele><time>2026-03-28T10:15:35.579Z</time></trkpt><trkpt lat="45.4768512" lon="10.7807905"><ele>134.0</ele><time>2026-03-28T10:15:37.58Z</time></trkpt><trkpt lat="45.4768426" lon="10.7806425"><ele>134.5</ele><time>2026-03-28T10:15:38.58Z</time></trkpt><trkpt lat="45.4768436" lon="10.7804766"><ele>135.0</ele><time>2026-03-28T10:15:39.58Z</time></trkpt><trkpt lat="45.4768464" lon="10.7802961"><ele>135.5</ele><time>2026-03-28T10:15:40.58Z</time></trkpt><trkpt lat="45.476843" lon="10.7801383"><ele>136.0</ele><time>2026-03-28T10:15:41.578Z</time></trkpt><trkpt lat="45.4768331" lon="10.7799872"><ele>136.5</ele><time>2026-03-28T10:15:42.58Z</time></trkpt><trkpt lat="45.4768228" lon="10.7798253"><ele>137.0</ele><time>2026-03-28T10:15:43.579Z</time></trkpt><trkpt lat="45.4768188" lon="10.7796657"><ele>137.5</ele><time>2026-03-28T10:15:44.579Z</time></trkpt><trkpt lat="45.4768163" lon="10.7795038"><ele>138.0</ele><time>2026-03-28T10:15:45.579Z</time></trkpt><trkpt lat="45.4768149" lon="10.7793447"><ele>138.25</ele><time>2026-03-28T10:15:46.579Z</time></trkpt><trkpt lat="45.4768109" lon="10.7791626"><ele>138.5</ele><time>2026-03-28T10:15:47.579Z</time></trkpt><trkpt lat="45.476806" lon="10.7789793"><ele>138.75</ele><time>2026-03-28T10:15:48.579Z</time></trkpt><trkpt lat="45.4768055" lon="10.7787824"><ele>139.0</ele><time>2026-03-28T10:15:49.579Z</time></trkpt><trkpt lat="45.4768024" lon="10.778569"><ele>138.25</ele><time>2026-03-28T10:15:50.579Z</time></trkpt><trkpt lat="45.4768001" lon="10.7783603"><ele>137.5</ele><time>2026-03-28T10:15:51.579Z</time></trkpt><trkpt lat="45.4767965" lon="10.778168"><ele>136.75</ele><time>2026-03-28T10:15:52.579Z</time></trkpt><trkpt lat="45.4767949" lon="10.7779805"><ele>136.0</ele><time>2026-03-28T10:15:53.579Z</time></trkpt><trkpt lat="45.4767917" lon="10.7778041"><ele>135.8</ele><time>2026-03-28T10:15:54.578Z</time></trkpt><trkpt lat="45.476785" lon="10.7776375"><ele>135.6</ele><time>2026-03-28T10:15:55.578Z</time></trkpt><trkpt lat="45.4767816" lon="10.7774892"><ele>135.4</ele><time>2026-03-28T10:15:56.579Z</time></trkpt><trkpt lat="45.4767835" lon="10.7773574"><ele>135.2</ele><time>2026-03-28T10:15:57.58Z</time></trkpt><trkpt lat="45.4768022" lon="10.7772422"><ele>135.0</ele><time>2026-03-28T10:15:58.58Z</time></trkpt><trkpt lat="45.4768257" lon="10.7771332"><ele>135.0</ele><time>2026-03-28T10:15:59.579Z</time></trkpt><trkpt lat="45.4769424" lon="10.7770746"><ele>135.0</ele><time>2026-03-28T10:16:00.579Z</time></trkpt><trkpt lat="45.4770554" lon="10.7770105"><ele>135.0</ele><time>2026-03-28T10:16:01.579Z</time></trkpt><trkpt lat="45.4771834" lon="10.7769518"><ele>135.0</ele><time>2026-03-28T10:16:02.58Z</time></trkpt><trkpt lat="45.4773368" lon="10.7769092"><ele>134.5</ele><time>2026-03-28T10:16:03.578Z</time></trkpt><trkpt lat="45.4774767" lon="10.776848"><ele>134.0</ele><time>2026-03-28T10:16:04.579Z</time></trkpt><trkpt lat="45.4776179" lon="10.7767892"><ele>133.5</ele><time>2026-03-28T10:16:05.579Z</time></trkpt><trkpt lat="45.4777492" lon="10.776752"><ele>133.0</ele><time>2026-03-28T10:16:06.58Z</time></trkpt><trkpt lat="45.4778731" lon="10.7767565"><ele>135.0</ele><time>2026-03-28T10:16:07.58Z</time></trkpt><trkpt lat="45.4779963" lon="10.7767673"><ele>137.0</ele><time>2026-03-28T10:16:08.579Z</time></trkpt><trkpt lat="45.4781027" lon="10.7767852"><ele>139.0</ele><time>2026-03-28T10:16:09.579Z</time></trkpt><trkpt lat="45.4782082" lon="10.7767962"><ele>141.0</ele><time>2026-03-28T10:16:10.579Z</time></trkpt><trkpt lat="45.4783283" lon="10.7767705"><ele>141.0</ele><time>2026-03-28T10:16:11.579Z</time></trkpt><trkpt lat="45.4784358" lon="10.7767627"><ele>141.0</ele><time>2026-03-28T10:16:12.578Z</time></trkpt><trkpt lat="45.478541" lon="10.7767333"><ele>141.0</ele><time>2026-03-28T10:16:13.58Z</time></trkpt><trkpt lat="45.4785707" lon="10.7766433"><ele>141.0</ele><time>2026-03-28T10:16:14.579Z</time></trkpt><trkpt lat="45.4786378" lon="10.7765577"><ele>141.0</ele><time>2026-03-28T10:16:15.579Z</time></trkpt><trkpt lat="45.4786796" lon="10.7764525"><ele>141.0</ele><time>2026-03-28T10:16:16.579Z</time></trkpt><trkpt lat="45.4786955" lon="10.7763346"><ele>141.0</ele><time>2026-03-28T10:16:17.58Z</time></trkpt><trkpt lat="45.478688" lon="10.7762157"><ele>141.0</ele><time>2026-03-28T10:16:18.578Z</time></trkpt><trkpt lat="45.4786918" lon="10.7761039"><ele>141.0</ele><time>2026-03-28T10:16:19.579Z</time></trkpt><trkpt lat="45.4787516" lon="10.7759776"><ele>141.0</ele><time>2026-03-28T10:16:21.58Z</time></trkpt><trkpt lat="45.478814" lon="10.7759543"><ele>141.0</ele><time>2026-03-28T10:16:22.58Z</time></trkpt><trkpt lat="45.4789099" lon="10.7759533"><ele>139.75</ele><time>2026-03-28T10:16:23.58Z</time></trkpt><trkpt lat="45.4790425" lon="10.775977"><ele>138.5</ele><time>2026-03-28T10:16:24.58Z</time></trkpt><trkpt lat="45.4791822" lon="10.7759914"><ele>137.25</ele><time>2026-03-28T10:16:25.579Z</time></trkpt><trkpt lat="45.4792803" lon="10.7759969"><ele>136.0</ele><time>2026-03-28T10:16:26.58Z</time></trkpt><trkpt lat="45.479361" lon="10.7759963"><ele>136.0</ele><time>2026-03-28T10:16:27.579Z</time></trkpt><trkpt lat="45.4794565" lon="10.7758988"><ele>136.0</ele><time>2026-03-28T10:16:29.58Z</time></trkpt><trkpt lat="45.4794868" lon="10.7757869"><ele>136.0</ele><time>2026-03-28T10:16:30.58Z</time></trkpt><trkpt lat="45.4795177" lon="10.7756224"><ele>136.0</ele><time>2026-03-28T10:16:31.578Z</time></trkpt><trkpt lat="45.4795491" lon="10.7754343"><ele>136.0</ele><time>2026-03-28T10:16:32.579Z</time></trkpt><trkpt lat="45.4795816" lon="10.7752636"><ele>136.0</ele><time>2026-03-28T10:16:33.579Z</time></trkpt><trkpt lat="45.4796329" lon="10.7750928"><ele>136.0</ele><time>2026-03-28T10:16:34.578Z</time></trkpt><trkpt lat="45.479717" lon="10.7748804"><ele>136.0</ele><time>2026-03-28T10:16:35.58Z</time></trkpt><trkpt lat="45.4797941" lon="10.7746491"><ele>135.0</ele><time>2026-03-28T10:16:36.579Z</time></trkpt><trkpt lat="45.4798727" lon="10.7744133"><ele>134.0</ele><time>2026-03-28T10:16:37.58Z</time></trkpt><trkpt lat="45.4799433" lon="10.7742147"><ele>133.0</ele><time>2026-03-28T10:16:38.58Z</time></trkpt><trkpt lat="45.4800017" lon="10.7740372"><ele>133.0</ele><time>2026-03-28T10:16:39.58Z</time></trkpt><trkpt lat="45.480055" lon="10.7738691"><ele>133.0</ele><time>2026-03-28T10:16:40.579Z</time></trkpt><trkpt lat="45.4801097" lon="10.7737236"><ele>133.0</ele><time>2026-03-28T10:16:41.579Z</time></trkpt><trkpt lat="45.4801784" lon="10.7736237"><ele>133.0</ele><time>2026-03-28T10:16:42.579Z</time></trkpt><trkpt lat="45.4802495" lon="10.7735624"><ele>133.0</ele><time>2026-03-28T10:16:43.579Z</time></trkpt><trkpt lat="45.4803361" lon="10.7735412"><ele>133.0</ele><time>2026-03-28T10:16:44.58Z</time></trkpt><trkpt lat="45.4804271" lon="10.7735666"><ele>133.0</ele><time>2026-03-28T10:16:45.58Z</time></trkpt><trkpt lat="45.4805177" lon="10.7735918"><ele>133.0</ele><time>2026-03-28T10:16:46.58Z</time></trkpt><trkpt lat="45.4805966" lon="10.7736045"><ele>133.0</ele><time>2026-03-28T10:16:47.579Z</time></trkpt><trkpt lat="45.4806612" lon="10.7735908"><ele>133.0</ele><time>2026-03-28T10:16:48.579Z</time></trkpt><trkpt lat="45.480746" lon="10.7734509"><ele>133.0</ele><time>2026-03-28T10:16:50.578Z</time></trkpt><trkpt lat="45.4807719" lon="10.7733257"><ele>133.0</ele><time>2026-03-28T10:16:51.579Z</time></trkpt><trkpt lat="45.480791" lon="10.773164"><ele>133.0</ele><time>2026-03-28T10:16:52.579Z</time></trkpt><trkpt lat="45.4808077" lon="10.7729786"><ele>133.0</ele><time>2026-03-28T10:16:53.579Z</time></trkpt><trkpt lat="45.4808339" lon="10.7728271"><ele>133.0</ele><time>2026-03-28T10:16:54.579Z</time></trkpt><trkpt lat="45.4808745" lon="10.7726929"><ele>133.5</ele><time>2026-03-28T10:16:55.579Z</time></trkpt><trkpt lat="45.4809459" lon="10.7725582"><ele>134.0</ele><time>2026-03-28T10:16:56.579Z</time></trkpt><trkpt lat="45.481042" lon="10.7724192"><ele>134.5</ele><time>2026-03-28T10:16:57.58Z</time></trkpt><trkpt lat="45.4811597" lon="10.7722644"><ele>135.0</ele><time>2026-03-28T10:16:58.58Z</time></trkpt><trkpt lat="45.4812685" lon="10.7721194"><ele>135.0</ele><time>2026-03-28T10:16:59.579Z</time></trkpt><trkpt lat="45.4813722" lon="10.7719859"><ele>135.0</ele><time>2026-03-28T10:17:00.58Z</time></trkpt><trkpt lat="45.4814664" lon="10.7718673"><ele>135.0</ele><time>2026-03-28T10:17:01.579Z</time></trkpt><trkpt lat="45.4815532" lon="10.7717622"><ele>135.0</ele><time>2026-03-28T10:17:02.58Z</time></trkpt><trkpt lat="45.4816353" lon="10.7716683"><ele>135.0</ele><time>2026-03-28T10:17:03.58Z</time></trkpt><trkpt lat="45.4817078" lon="10.7715844"><ele>135.0</ele><time>2026-03-28T10:17:04.579Z</time></trkpt><trkpt lat="45.4817689" lon="10.7714991"><ele>135.0</ele><time>2026-03-28T10:17:05.58Z</time></trkpt><trkpt lat="45.4818329" lon="10.7714173"><ele>135.0</ele><time>2026-03-28T10:17:06.58Z</time></trkpt><trkpt lat="45.4818972" lon="10.7713412"><ele>135.0</ele><time>2026-03-28T10:17:07.58Z</time></trkpt><trkpt lat="45.481968" lon="10.7712499"><ele>135.0</ele><time>2026-03-28T10:17:08.579Z</time></trkpt><trkpt lat="45.4820363" lon="10.7711512"><ele>135.0</ele><time>2026-03-28T10:17:09.578Z</time></trkpt><trkpt lat="45.482105" lon="10.7710458"><ele>135.0</ele><time>2026-03-28T10:17:10.579Z</time></trkpt><trkpt lat="45.4821819" lon="10.7709323"><ele>135.0</ele><time>2026-03-28T10:17:11.58Z</time></trkpt><trkpt lat="45.4822628" lon="10.7708081"><ele>135.0</ele><time>2026-03-28T10:17:12.58Z</time></trkpt><trkpt lat="45.4823532" lon="10.7706766"><ele>135.0</ele><time>2026-03-28T10:17:13.58Z</time></trkpt><trkpt lat="45.4824378" lon="10.7705537"><ele>135.0</ele><time>2026-03-28T10:17:14.58Z</time></trkpt><trkpt lat="45.4825178" lon="10.7704508"><ele>135.0</ele><time>2026-03-28T10:17:15.58Z</time></trkpt><trkpt lat="45.4825873" lon="10.7703938"><ele>135.0</ele><time>2026-03-28T10:17:16.579Z</time></trkpt><trkpt lat="45.4826591" lon="10.7703698"><ele>135.0</ele><time>2026-03-28T10:17:17.58Z</time></trkpt><trkpt lat="45.4827556" lon="10.7703908"><ele>135.0</ele><time>2026-03-28T10:17:18.58Z</time></trkpt><trkpt lat="45.4828715" lon="10.7704342"><ele>135.0</ele><time>2026-03-28T10:17:19.579Z</time></trkpt><trkpt lat="45.4830077" lon="10.7704897"><ele>135.0</ele><time>2026-03-28T10:17:20.579Z</time></trkpt><trkpt lat="45.4831679" lon="10.770547"><ele>135.0</ele><time>2026-03-28T10:17:21.58Z</time></trkpt><trkpt lat="45.4833452" lon="10.7705905"><ele>135.66666666666666</ele><time>2026-03-28T10:17:22.58Z</time></trkpt><trkpt lat="45.483505" lon="10.7706151"><ele>136.33333333333331</ele><time>2026-03-28T10:17:23.58Z</time></trkpt><trkpt lat="45.4836568" lon="10.7706364"><ele>137.0</ele><time>2026-03-28T10:17:24.578Z</time></trkpt><trkpt lat="45.4838047" lon="10.7706611"><ele>137.5</ele><time>2026-03-28T10:17:25.579Z</time></trkpt><trkpt lat="45.4839402" lon="10.7706929"><ele>138.0</ele><time>2026-03-28T10:17:26.58Z</time></trkpt><trkpt lat="45.4840716" lon="10.7707466"><ele>138.5</ele><time>2026-03-28T10:17:27.58Z</time></trkpt><trkpt lat="45.4842117" lon="10.7708078"><ele>139.0</ele><time>2026-03-28T10:17:28.579Z</time></trkpt><trkpt lat="45.4843301" lon="10.7708821"><ele>139.0</ele><time>2026-03-28T10:17:29.579Z</time></trkpt><trkpt lat="45.4844467" lon="10.7709853"><ele>139.0</ele><time>2026-03-28T10:17:30.579Z</time></trkpt><trkpt lat="45.4845567" lon="10.7710971"><ele>139.0</ele><time>2026-03-28T10:17:31.58Z</time></trkpt><trkpt lat="45.4846613" lon="10.7712051"><ele>139.0</ele><time>2026-03-28T10:17:32.58Z</time></trkpt><trkpt lat="45.4847693" lon="10.7713107"><ele>137.75</ele><time>2026-03-28T10:17:33.579Z</time></trkpt><trkpt lat="45.4848785" lon="10.7714153"><ele>136.5</ele><time>2026-03-28T10:17:34.58Z</time></trkpt><trkpt lat="45.4849973" lon="10.7715219"><ele>135.25</ele><time>2026-03-28T10:17:35.579Z</time></trkpt><trkpt lat="45.4851139" lon="10.7716263"><ele>134.0</ele><time>2026-03-28T10:17:36.58Z</time></trkpt><trkpt lat="45.4852426" lon="10.7717526"><ele>133.66666666666666</ele><time>2026-03-28T10:17:37.579Z</time></trkpt><trkpt lat="45.4853811" lon="10.7718992"><ele>133.33333333333334</ele><time>2026-03-28T10:17:38.579Z</time></trkpt><trkpt lat="45.4855029" lon="10.7720293"><ele>133.0</ele><time>2026-03-28T10:17:39.579Z</time></trkpt><trkpt lat="45.4856186" lon="10.7721512"><ele>133.5</ele><time>2026-03-28T10:17:40.578Z</time></trkpt><trkpt lat="45.4857308" lon="10.77227"><ele>134.0</ele><time>2026-03-28T10:17:41.58Z</time></trkpt><trkpt lat="45.4858436" lon="10.7723768"><ele>134.5</ele><time>2026-03-28T10:17:42.58Z</time></trkpt><trkpt lat="45.4859641" lon="10.772488"><ele>135.0</ele><time>2026-03-28T10:17:43.58Z</time></trkpt><trkpt lat="45.4860653" lon="10.7725867"><ele>135.0</ele><time>2026-03-28T10:17:44.579Z</time></trkpt><trkpt lat="45.486145" lon="10.7726588"><ele>135.0</ele><time>2026-03-28T10:17:45.58Z</time></trkpt><trkpt lat="45.4862243" lon="10.7727226"><ele>135.0</ele><time>2026-03-28T10:17:47.579Z</time></trkpt><trkpt lat="45.4863464" lon="10.772692"><ele>135.0</ele><time>2026-03-28T10:17:49.58Z</time></trkpt><trkpt lat="45.4864353" lon="10.7726091"><ele>135.0</ele><time>2026-03-28T10:17:50.58Z</time></trkpt><trkpt lat="45.4865547" lon="10.772484"><ele>135.33333333333334</ele><time>2026-03-28T10:17:51.58Z</time></trkpt><trkpt lat="45.4867058" lon="10.7723107"><ele>135.66666666666669</ele><time>2026-03-28T10:17:52.579Z</time></trkpt><trkpt lat="45.4868827" lon="10.772087"><ele>136.0</ele><time>2026-03-28T10:17:53.579Z</time></trkpt><trkpt lat="45.487058" lon="10.7718093"><ele>136.0</ele><time>2026-03-28T10:17:54.578Z</time></trkpt><trkpt lat="45.487208" lon="10.7715467"><ele>136.0</ele><time>2026-03-28T10:17:55.58Z</time></trkpt><trkpt lat="45.4873445" lon="10.7713032"><ele>136.0</ele><time>2026-03-28T10:17:56.58Z</time></trkpt><trkpt lat="45.4874667" lon="10.7710911"><ele>136.0</ele><time>2026-03-28T10:17:57.58Z</time></trkpt><trkpt lat="45.4875661" lon="10.7709121"><ele>136.0</ele><time>2026-03-28T10:17:58.579Z</time></trkpt><trkpt lat="45.4876488" lon="10.7707693"><ele>135.8</ele><time>2026-03-28T10:17:59.579Z</time></trkpt><trkpt lat="45.4877148" lon="10.7706625"><ele>135.6</ele><time>2026-03-28T10:18:00.579Z</time></trkpt><trkpt lat="45.4877638" lon="10.7705905"><ele>135.4</ele><time>2026-03-28T10:18:01.579Z</time></trkpt><trkpt lat="45.4878404" lon="10.7705088"><ele>135.2</ele><time>2026-03-28T10:18:03.578Z</time></trkpt><trkpt lat="45.4879451" lon="10.7705308"><ele>135.0</ele><time>2026-03-28T10:18:05.58Z</time></trkpt><trkpt lat="45.4880141" lon="10.7705946"><ele>135.0</ele><time>2026-03-28T10:18:06.58Z</time></trkpt><trkpt lat="45.4880955" lon="10.7706835"><ele>135.0</ele><time>2026-03-28T10:18:07.579Z</time></trkpt><trkpt lat="45.4881743" lon="10.7707731"><ele>135.0</ele><time>2026-03-28T10:18:08.58Z</time></trkpt><trkpt lat="45.4882306" lon="10.7708364"><ele>135.0</ele><time>2026-03-28T10:18:09.58Z</time></trkpt><trkpt lat="45.4882909" lon="10.7709082"><ele>135.0</ele><time>2026-03-28T10:18:11.581Z</time></trkpt><trkpt lat="45.4883573" lon="10.770991"><ele>135.0</ele><time>2026-03-28T10:18:14.581Z</time></trkpt><trkpt lat="45.4884079" lon="10.7710702"><ele>135.16666666666666</ele><time>2026-03-28T10:18:16.581Z</time></trkpt><trkpt lat="45.4884343" lon="10.771182"><ele>135.33333333333334</ele><time>2026-03-28T10:18:18.581Z</time></trkpt><trkpt lat="45.4884124" lon="10.7713042"><ele>135.5</ele><time>2026-03-28T10:18:20.58Z</time></trkpt><trkpt lat="45.4883752" lon="10.7714179"><ele>135.66666666666669</ele><time>2026-03-28T10:18:22.579Z</time></trkpt><trkpt lat="45.4883911" lon="10.7715399"><ele>135.83333333333334</ele><time>2026-03-28T10:18:24.581Z</time></trkpt><trkpt lat="45.4884588" lon="10.7715836"><ele>136.0</ele><time>2026-03-28T10:18:26.581Z</time></trkpt><trkpt lat="45.4885436" lon="10.7714953"><ele>136.0</ele><time>2026-03-28T10:18:28.58Z</time></trkpt><trkpt lat="45.4886037" lon="10.7713747"><ele>136.0</ele><time>2026-03-28T10:18:29.58Z</time></trkpt><trkpt lat="45.4886634" lon="10.7712646"><ele>136.0</ele><time>2026-03-28T10:18:30.58Z</time></trkpt><trkpt lat="45.4887265" lon="10.7711457"><ele>136.0</ele><time>2026-03-28T10:18:31.581Z</time></trkpt><trkpt lat="45.488843" lon="10.7710128"><ele>136.5</ele><time>2026-03-28T10:18:32.581Z</time></trkpt><trkpt lat="45.4889459" lon="10.770906"><ele>137.0</ele><time>2026-03-28T10:18:33.581Z</time></trkpt><trkpt lat="45.4891061" lon="10.7708478"><ele>137.5</ele><time>2026-03-28T10:18:34.581Z</time></trkpt><trkpt lat="45.4892426" lon="10.7707993"><ele>138.0</ele><time>2026-03-28T10:18:35.58Z</time></trkpt><trkpt lat="45.4893736" lon="10.770751"><ele>138.0</ele><time>2026-03-28T10:18:36.581Z</time></trkpt><trkpt lat="45.4895221" lon="10.7707009"><ele>138.0</ele><time>2026-03-28T10:18:37.58Z</time></trkpt><trkpt lat="45.4896894" lon="10.7706511"><ele>138.0</ele><time>2026-03-28T10:18:38.58Z</time></trkpt><trkpt lat="45.4898761" lon="10.7705949"><ele>138.0</ele><time>2026-03-28T10:18:39.58Z</time></trkpt><trkpt lat="45.4900791" lon="10.7705395"><ele>138.0</ele><time>2026-03-28T10:18:40.581Z</time></trkpt><trkpt lat="45.490296" lon="10.7704904"><ele>138.0</ele><time>2026-03-28T10:18:41.58Z</time></trkpt><trkpt lat="45.4905228" lon="10.7704394"><ele>138.0</ele><time>2026-03-28T10:18:42.58Z</time></trkpt><trkpt lat="45.4907552" lon="10.7703786"><ele>138.0</ele><time>2026-03-28T10:18:43.581Z</time></trkpt><trkpt lat="45.490975" lon="10.7703158"><ele>138.0</ele><time>2026-03-28T10:18:44.58Z</time></trkpt><trkpt lat="45.4911805" lon="10.7702453"><ele>138.0</ele><time>2026-03-28T10:18:45.581Z</time></trkpt><trkpt lat="45.4913719" lon="10.7701695"><ele>138.0</ele><time>2026-03-28T10:18:46.579Z</time></trkpt><trkpt lat="45.4915488" lon="10.7700955"><ele>137.0</ele><time>2026-03-28T10:18:47.581Z</time></trkpt><trkpt lat="45.4917142" lon="10.77002"><ele>136.0</ele><time>2026-03-28T10:18:48.581Z</time></trkpt><trkpt lat="45.4918676" lon="10.7699519"><ele>135.0</ele><time>2026-03-28T10:18:49.581Z</time></trkpt><trkpt lat="45.4919957" lon="10.7698838"><ele>134.6</ele><time>2026-03-28T10:18:50.581Z</time></trkpt><trkpt lat="45.4921017" lon="10.7698101"><ele>134.2</ele><time>2026-03-28T10:18:51.581Z</time></trkpt><trkpt lat="45.4921886" lon="10.7697461"><ele>133.8</ele><time>2026-03-28T10:18:52.581Z</time></trkpt><trkpt lat="45.4922698" lon="10.7696853"><ele>133.4</ele><time>2026-03-28T10:18:53.579Z</time></trkpt><trkpt lat="45.4923449" lon="10.7696275"><ele>133.0</ele><time>2026-03-28T10:18:54.581Z</time></trkpt><trkpt lat="45.4924109" lon="10.7695685"><ele>133.0</ele><time>2026-03-28T10:18:55.58Z</time></trkpt><trkpt lat="45.4925142" lon="10.7695616"><ele>133.0</ele><time>2026-03-28T10:18:57.58Z</time></trkpt><trkpt lat="45.4926102" lon="10.7696851"><ele>133.0</ele><time>2026-03-28T10:18:59.58Z</time></trkpt><trkpt lat="45.4926503" lon="10.7698048"><ele>133.0</ele><time>2026-03-28T10:19:00.58Z</time></trkpt><trkpt lat="45.4926992" lon="10.769948"><ele>133.0</ele><time>2026-03-28T10:19:01.581Z</time></trkpt><trkpt lat="45.492751" lon="10.7700862"><ele>133.0</ele><time>2026-03-28T10:19:02.581Z</time></trkpt><trkpt lat="45.492856" lon="10.770257"><ele>133.0</ele><time>2026-03-28T10:19:03.58Z</time></trkpt><trkpt lat="45.492923" lon="10.77042"><ele>133.0</ele><time>2026-03-28T10:19:04.581Z</time></trkpt><trkpt lat="45.4929899" lon="10.7705728"><ele>133.0</ele><time>2026-03-28T10:19:05.581Z</time></trkpt><trkpt lat="45.4930601" lon="10.7707266"><ele>133.0</ele><time>2026-03-28T10:19:06.58Z</time></trkpt><trkpt lat="45.4931313" lon="10.7708547"><ele>133.0</ele><time>2026-03-28T10:19:07.58Z</time></trkpt><trkpt lat="45.4932073" lon="10.7709765"><ele>133.0</ele><time>2026-03-28T10:19:08.581Z</time></trkpt><trkpt lat="45.4932721" lon="10.7710699"><ele>133.0</ele><time>2026-03-28T10:19:09.581Z</time></trkpt><trkpt lat="45.4933411" lon="10.771128"><ele>133.0</ele><time>2026-03-28T10:19:10.581Z</time></trkpt><trkpt lat="45.493425" lon="10.7711537"><ele>134.0</ele><time>2026-03-28T10:19:11.58Z</time></trkpt><trkpt lat="45.4935335" lon="10.7711543"><ele>135.0</ele><time>2026-03-28T10:19:12.581Z</time></trkpt><trkpt lat="45.4936653" lon="10.7711477"><ele>136.0</ele><time>2026-03-28T10:19:13.58Z</time></trkpt><trkpt lat="45.4938162" lon="10.771154"><ele>137.0</ele><time>2026-03-28T10:19:14.58Z</time></trkpt><trkpt lat="45.4939589" lon="10.771173"><ele>137.0</ele><time>2026-03-28T10:19:15.581Z</time></trkpt><trkpt lat="45.4940746" lon="10.7711887"><ele>137.0</ele><time>2026-03-28T10:19:16.581Z</time></trkpt><trkpt lat="45.4941658" lon="10.7711972"><ele>137.0</ele><time>2026-03-28T10:19:17.581Z</time></trkpt><trkpt lat="45.4942377" lon="10.7712227"><ele>137.0</ele><time>2026-03-28T10:19:18.58Z</time></trkpt><trkpt lat="45.4942903" lon="10.7712784"><ele>137.0</ele><time>2026-03-28T10:19:19.579Z</time></trkpt><trkpt lat="45.4943262" lon="10.7713578"><ele>137.0</ele><time>2026-03-28T10:19:20.581Z</time></trkpt><trkpt lat="45.4943447" lon="10.7714749"><ele>137.0</ele><time>2026-03-28T10:19:21.581Z</time></trkpt><trkpt lat="45.4943463" lon="10.7716285"><ele>137.0</ele><time>2026-03-28T10:19:22.581Z</time></trkpt><trkpt lat="45.4943506" lon="10.7718204"><ele>137.0</ele><time>2026-03-28T10:19:23.579Z</time></trkpt><trkpt lat="45.4943575" lon="10.7720477"><ele>137.0</ele><time>2026-03-28T10:19:24.58Z</time></trkpt><trkpt lat="45.4943677" lon="10.7723"><ele>137.0</ele><time>2026-03-28T10:19:25.579Z</time></trkpt><trkpt lat="45.4943841" lon="10.7725482"><ele>137.0</ele><time>2026-03-28T10:19:26.58Z</time></trkpt><trkpt lat="45.4944013" lon="10.7728085"><ele>137.0</ele><time>2026-03-28T10:19:27.58Z</time></trkpt><trkpt lat="45.4944227" lon="10.7730718"><ele>137.33333333333331</ele><time>2026-03-28T10:19:28.58Z</time></trkpt><trkpt lat="45.4944457" lon="10.7733065"><ele>137.66666666666666</ele><time>2026-03-28T10:19:29.581Z</time></trkpt><trkpt lat="45.4944676" lon="10.7735162"><ele>138.0</ele><time>2026-03-28T10:19:30.579Z</time></trkpt><trkpt lat="45.4944875" lon="10.7737335"><ele>139.33333333333334</ele><time>2026-03-28T10:19:31.581Z</time></trkpt><trkpt lat="45.4945136" lon="10.773961"><ele>140.66666666666669</ele><time>2026-03-28T10:19:32.58Z</time></trkpt><trkpt lat="45.4945449" lon="10.774198"><ele>142.0</ele><time>2026-03-28T10:19:33.58Z</time></trkpt><trkpt lat="45.4945709" lon="10.7744139"><ele>143.5</ele><time>2026-03-28T10:19:34.581Z</time></trkpt><trkpt lat="45.4945921" lon="10.7746064"><ele>145.0</ele><time>2026-03-28T10:19:35.58Z</time></trkpt><trkpt lat="45.4946081" lon="10.7747693"><ele>146.5</ele><time>2026-03-28T10:19:36.581Z</time></trkpt><trkpt lat="45.494622" lon="10.7749326"><ele>148.0</ele><time>2026-03-28T10:19:37.581Z</time></trkpt><trkpt lat="45.4946373" lon="10.7751052"><ele>148.0</ele><time>2026-03-28T10:19:38.581Z</time></trkpt><trkpt lat="45.4946369" lon="10.7752881"><ele>148.0</ele><time>2026-03-28T10:19:39.58Z</time></trkpt><trkpt lat="45.4946351" lon="10.7754831"><ele>148.0</ele><time>2026-03-28T10:19:40.581Z</time></trkpt><trkpt lat="45.4946432" lon="10.7756908"><ele>148.0</ele><time>2026-03-28T10:19:41.581Z</time></trkpt><trkpt lat="45.4946529" lon="10.7758699"><ele>148.33333333333334</ele><time>2026-03-28T10:19:42.58Z</time></trkpt><trkpt lat="45.4946592" lon="10.7760308"><ele>148.66666666666669</ele><time>2026-03-28T10:19:43.579Z</time></trkpt><trkpt lat="45.4946566" lon="10.7761559"><ele>149.0</ele><time>2026-03-28T10:19:44.581Z</time></trkpt><trkpt lat="45.4946574" lon="10.7762673"><ele>149.33333333333334</ele><time>2026-03-28T10:19:45.581Z</time></trkpt><trkpt lat="45.4946963" lon="10.776365"><ele>149.66666666666666</ele><time>2026-03-28T10:19:46.58Z</time></trkpt><trkpt lat="45.4947493" lon="10.7764668"><ele>150.0</ele><time>2026-03-28T10:19:47.579Z</time></trkpt><trkpt lat="45.4948318" lon="10.776545"><ele>150.0</ele><time>2026-03-28T10:19:48.58Z</time></trkpt><trkpt lat="45.4949192" lon="10.7766367"><ele>150.0</ele><time>2026-03-28T10:19:49.58Z</time></trkpt><trkpt lat="45.495005" lon="10.7767298"><ele>150.0</ele><time>2026-03-28T10:19:50.581Z</time></trkpt><trkpt lat="45.4951106" lon="10.7768238"><ele>150.0</ele><time>2026-03-28T10:19:51.581Z</time></trkpt><trkpt lat="45.4952261" lon="10.7769165"><ele>149.5</ele><time>2026-03-28T10:19:52.581Z</time></trkpt><trkpt lat="45.495339" lon="10.7770291"><ele>149.0</ele><time>2026-03-28T10:19:53.581Z</time></trkpt><trkpt lat="45.4954317" lon="10.7771507"><ele>148.5</ele><time>2026-03-28T10:19:54.58Z</time></trkpt><trkpt lat="45.4955205" lon="10.7772826"><ele>148.0</ele><time>2026-03-28T10:19:55.579Z</time></trkpt><trkpt lat="45.4956059" lon="10.7774081"><ele>147.6</ele><time>2026-03-28T10:19:56.58Z</time></trkpt><trkpt lat="45.4956757" lon="10.7775294"><ele>147.20000000000002</ele><time>2026-03-28T10:19:57.581Z</time></trkpt><trkpt lat="45.4957274" lon="10.7776664"><ele>146.8</ele><time>2026-03-28T10:19:58.581Z</time></trkpt><trkpt lat="45.4957735" lon="10.7777892"><ele>146.4</ele><time>2026-03-28T10:19:59.58Z</time></trkpt><trkpt lat="45.4958142" lon="10.7778674"><ele>146.0</ele><time>2026-03-28T10:20:00.58Z</time></trkpt><trkpt lat="45.4958938" lon="10.7779477"><ele>144.8</ele><time>2026-03-28T10:20:02.58Z</time></trkpt><trkpt lat="45.4959651" lon="10.7779506"><ele>143.6</ele><time>2026-03-28T10:20:03.58Z</time></trkpt><trkpt lat="45.4960524" lon="10.7779173"><ele>142.4</ele><time>2026-03-28T10:20:04.579Z</time></trkpt><trkpt lat="45.4961344" lon="10.7778879"><ele>141.2</ele><time>2026-03-28T10:20:05.58Z</time></trkpt><trkpt lat="45.4962303" lon="10.7778752"><ele>140.0</ele><time>2026-03-28T10:20:06.58Z</time></trkpt><trkpt lat="45.4963398" lon="10.777862"><ele>139.83333333333331</ele><time>2026-03-28T10:20:07.58Z</time></trkpt><trkpt lat="45.4964521" lon="10.7778555"><ele>139.66666666666666</ele><time>2026-03-28T10:20:08.58Z</time></trkpt><trkpt lat="45.4965366" lon="10.7778565"><ele>139.5</ele><time>2026-03-28T10:20:09.579Z</time></trkpt><trkpt lat="45.4966209" lon="10.7778515"><ele>139.33333333333334</ele><time>2026-03-28T10:20:10.58Z</time></trkpt><trkpt lat="45.4966978" lon="10.7778552"><ele>139.16666666666669</ele><time>2026-03-28T10:20:11.58Z</time></trkpt><trkpt lat="45.4967681" lon="10.7778737"><ele>139.0</ele><time>2026-03-28T10:20:12.58Z</time></trkpt><trkpt lat="45.4968373" lon="10.7779185"><ele>139.0</ele><time>2026-03-28T10:20:13.58Z</time></trkpt><trkpt lat="45.4968997" lon="10.7779798"><ele>139.0</ele><time>2026-03-28T10:20:14.58Z</time></trkpt><trkpt lat="45.4969704" lon="10.7780576"><ele>139.0</ele><time>2026-03-28T10:20:15.58Z</time></trkpt><trkpt lat="45.4970329" lon="10.778122"><ele>139.0</ele><time>2026-03-28T10:20:16.581Z</time></trkpt><trkpt lat="45.4970971" lon="10.7781653"><ele>139.0</ele><time>2026-03-28T10:20:17.58Z</time></trkpt><trkpt lat="45.4971568" lon="10.7781994"><ele>139.0</ele><time>2026-03-28T10:20:18.58Z</time></trkpt><trkpt lat="45.4972374" lon="10.7782691"><ele>139.33333333333334</ele><time>2026-03-28T10:20:20.58Z</time></trkpt><trkpt lat="45.4972539" lon="10.7784289"><ele>139.66666666666666</ele><time>2026-03-28T10:20:22.581Z</time></trkpt><trkpt lat="45.497154" lon="10.7787015"><ele>140.0</ele><time>2026-03-28T10:20:23.58Z</time></trkpt><trkpt lat="45.4970996" lon="10.7789452"><ele>139.5</ele><time>2026-03-28T10:20:24.581Z</time></trkpt><trkpt lat="45.4970614" lon="10.7791485"><ele>139.0</ele><time>2026-03-28T10:20:25.58Z</time></trkpt><trkpt lat="45.4970365" lon="10.7793565"><ele>138.5</ele><time>2026-03-28T10:20:26.581Z</time></trkpt><trkpt lat="45.4970152" lon="10.7795576"><ele>138.0</ele><time>2026-03-28T10:20:27.58Z</time></trkpt><trkpt lat="45.4969953" lon="10.7797761"><ele>137.0</ele><time>2026-03-28T10:20:28.58Z</time></trkpt><trkpt lat="45.4969851" lon="10.7800069"><ele>136.0</ele><time>2026-03-28T10:20:29.581Z</time></trkpt><trkpt lat="45.4969767" lon="10.7802307"><ele>135.0</ele><time>2026-03-28T10:20:30.58Z</time></trkpt><trkpt lat="45.4969711" lon="10.7804326"><ele>135.0</ele><time>2026-03-28T10:20:31.581Z</time></trkpt><trkpt lat="45.4969605" lon="10.7806017"><ele>135.0</ele><time>2026-03-28T10:20:32.579Z</time></trkpt><trkpt lat="45.496926" lon="10.7807565"><ele>135.0</ele><time>2026-03-28T10:20:33.581Z</time></trkpt><trkpt lat="45.4968853" lon="10.7808884"><ele>135.0</ele><time>2026-03-28T10:20:34.581Z</time></trkpt><trkpt lat="45.4968671" lon="10.7809866"><ele>135.0</ele><time>2026-03-28T10:20:35.581Z</time></trkpt><trkpt lat="45.4968994" lon="10.7811181"><ele>135.5</ele><time>2026-03-28T10:20:37.579Z</time></trkpt><trkpt lat="45.4970394" lon="10.7811632"><ele>136.0</ele><time>2026-03-28T10:20:39.581Z</time></trkpt><trkpt lat="45.4971491" lon="10.78116"><ele>136.5</ele><time>2026-03-28T10:20:40.58Z</time></trkpt><trkpt lat="45.4972828" lon="10.7811593"><ele>137.0</ele><time>2026-03-28T10:20:41.581Z</time></trkpt><trkpt lat="45.4974309" lon="10.7811608"><ele>138.0</ele><time>2026-03-28T10:20:42.581Z</time></trkpt><trkpt lat="45.4975962" lon="10.7811654"><ele>139.0</ele><time>2026-03-28T10:20:43.579Z</time></trkpt><trkpt lat="45.497719" lon="10.7811789"><ele>140.0</ele><time>2026-03-28T10:20:44.58Z</time></trkpt><trkpt lat="45.4978115" lon="10.7811984"><ele>141.0</ele><time>2026-03-28T10:20:45.58Z</time></trkpt><trkpt lat="45.4978779" lon="10.7812424"><ele>143.75</ele><time>2026-03-28T10:20:46.579Z</time></trkpt><trkpt lat="45.4979192" lon="10.7813218"><ele>146.5</ele><time>2026-03-28T10:20:47.581Z</time></trkpt><trkpt lat="45.4979383" lon="10.7814542"><ele>149.25</ele><time>2026-03-28T10:20:48.58Z</time></trkpt><trkpt lat="45.4979414" lon="10.7816757"><ele>152.0</ele><time>2026-03-28T10:20:49.58Z</time></trkpt><trkpt lat="45.4979595" lon="10.781962"><ele>152.66666666666666</ele><time>2026-03-28T10:20:50.581Z</time></trkpt><trkpt lat="45.4979786" lon="10.7822396"><ele>153.33333333333334</ele><time>2026-03-28T10:20:51.58Z</time></trkpt><trkpt lat="45.4979984" lon="10.7824849"><ele>154.0</ele><time>2026-03-28T10:20:52.58Z</time></trkpt><trkpt lat="45.498021" lon="10.7827063"><ele>154.0</ele><time>2026-03-28T10:20:53.58Z</time></trkpt><trkpt lat="45.498033" lon="10.7828878"><ele>154.0</ele><time>2026-03-28T10:20:54.581Z</time></trkpt><trkpt lat="45.4980472" lon="10.7830527"><ele>154.0</ele><time>2026-03-28T10:20:55.58Z</time></trkpt><trkpt lat="45.4980821" lon="10.7832128"><ele>154.0</ele><time>2026-03-28T10:20:56.58Z</time></trkpt><trkpt lat="45.4981478" lon="10.7833863"><ele>154.4</ele><time>2026-03-28T10:20:57.581Z</time></trkpt><trkpt lat="45.4981922" lon="10.7835341"><ele>154.8</ele><time>2026-03-28T10:20:58.58Z</time></trkpt><trkpt lat="45.4982094" lon="10.7836724"><ele>155.2</ele><time>2026-03-28T10:20:59.58Z</time></trkpt><trkpt lat="45.4982081" lon="10.7838028"><ele>155.6</ele><time>2026-03-28T10:21:00.58Z</time></trkpt><trkpt lat="45.4981964" lon="10.783936"><ele>156.0</ele><time>2026-03-28T10:21:01.581Z</time></trkpt><trkpt lat="45.498214" lon="10.7840823"><ele>156.0</ele><time>2026-03-28T10:21:03.581Z</time></trkpt><trkpt lat="45.4983201" lon="10.7841208"><ele>156.0</ele><time>2026-03-28T10:21:05.58Z</time></trkpt><trkpt lat="45.4984318" lon="10.7841126"><ele>156.0</ele><time>2026-03-28T10:21:06.581Z</time></trkpt><trkpt lat="45.4985913" lon="10.7841142"><ele>156.0</ele><time>2026-03-28T10:21:07.581Z</time></trkpt><trkpt lat="45.4987749" lon="10.7841218"><ele>156.25</ele><time>2026-03-28T10:21:08.58Z</time></trkpt><trkpt lat="45.4989446" lon="10.7841299"><ele>156.5</ele><time>2026-03-28T10:21:09.581Z</time></trkpt><trkpt lat="45.4990894" lon="10.7841397"><ele>156.75</ele><time>2026-03-28T10:21:10.581Z</time></trkpt><trkpt lat="45.4992165" lon="10.78414"><ele>157.0</ele><time>2026-03-28T10:21:11.581Z</time></trkpt><trkpt lat="45.4993503" lon="10.7841275"><ele>157.0</ele><time>2026-03-28T10:21:12.581Z</time></trkpt><trkpt lat="45.4994761" lon="10.7841164"><ele>157.0</ele><time>2026-03-28T10:21:13.581Z</time></trkpt><trkpt lat="45.4995878" lon="10.7840857"><ele>157.0</ele><time>2026-03-28T10:21:14.581Z</time></trkpt><trkpt lat="45.4996937" lon="10.7840119"><ele>157.0</ele><time>2026-03-28T10:21:15.581Z</time></trkpt><trkpt lat="45.4997964" lon="10.7839166"><ele>157.5</ele><time>2026-03-28T10:21:16.581Z</time></trkpt><trkpt lat="45.4998913" lon="10.7838352"><ele>158.0</ele><time>2026-03-28T10:21:17.581Z</time></trkpt><trkpt lat="45.4999971" lon="10.7837476"><ele>158.5</ele><time>2026-03-28T10:21:18.581Z</time></trkpt><trkpt lat="45.5001064" lon="10.7836548"><ele>159.0</ele><time>2026-03-28T10:21:19.581Z</time></trkpt><trkpt lat="45.500198" lon="10.7835641"><ele>158.8</ele><time>2026-03-28T10:21:20.581Z</time></trkpt><trkpt lat="45.500274" lon="10.7834521"><ele>158.60000000000002</ele><time>2026-03-28T10:21:21.581Z</time></trkpt><trkpt lat="45.5003489" lon="10.7833248"><ele>158.4</ele><time>2026-03-28T10:21:22.581Z</time></trkpt><trkpt lat="45.5004193" lon="10.7831883"><ele>158.20000000000002</ele><time>2026-03-28T10:21:23.58Z</time></trkpt><trkpt lat="45.5004797" lon="10.7830716"><ele>158.0</ele><time>2026-03-28T10:21:24.58Z</time></trkpt><trkpt lat="45.5005352" lon="10.78297"><ele>158.33333333333331</ele><time>2026-03-28T10:21:25.58Z</time></trkpt><trkpt lat="45.5005961" lon="10.7828913"><ele>158.66666666666666</ele><time>2026-03-28T10:21:26.579Z</time></trkpt><trkpt lat="45.5006586" lon="10.7828411"><ele>159.0</ele><time>2026-03-28T10:21:27.58Z</time></trkpt><trkpt lat="45.5007312" lon="10.7828119"><ele>159.33333333333334</ele><time>2026-03-28T10:21:28.58Z</time></trkpt><trkpt lat="45.5008231" lon="10.7827976"><ele>159.66666666666669</ele><time>2026-03-28T10:21:29.58Z</time></trkpt><trkpt lat="45.5009331" lon="10.7827763"><ele>160.0</ele><time>2026-03-28T10:21:30.581Z</time></trkpt><trkpt lat="45.5010621" lon="10.7827519"><ele>160.0</ele><time>2026-03-28T10:21:31.58Z</time></trkpt><trkpt lat="45.5011897" lon="10.7827351"><ele>160.0</ele><time>2026-03-28T10:21:32.581Z</time></trkpt><trkpt lat="45.5012999" lon="10.7827169"><ele>160.0</ele><time>2026-03-28T10:21:33.58Z</time></trkpt><trkpt lat="45.5014036" lon="10.7826967"><ele>160.0</ele><time>2026-03-28T10:21:34.58Z</time></trkpt><trkpt lat="45.5015015" lon="10.7826772"><ele>160.0</ele><time>2026-03-28T10:21:35.581Z</time></trkpt><trkpt lat="45.501593" lon="10.7826708"><ele>160.16666666666669</ele><time>2026-03-28T10:21:36.58Z</time></trkpt><trkpt lat="45.5016796" lon="10.7826815"><ele>160.33333333333334</ele><time>2026-03-28T10:21:37.58Z</time></trkpt><trkpt lat="45.5017589" lon="10.7827026"><ele>160.5</ele><time>2026-03-28T10:21:38.58Z</time></trkpt><trkpt lat="45.501834" lon="10.7827346"><ele>160.66666666666666</ele><time>2026-03-28T10:21:39.581Z</time></trkpt><trkpt lat="45.5019075" lon="10.7827685"><ele>160.83333333333331</ele><time>2026-03-28T10:21:40.581Z</time></trkpt><trkpt lat="45.5019791" lon="10.782806"><ele>161.0</ele><time>2026-03-28T10:21:41.581Z</time></trkpt><trkpt lat="45.5020507" lon="10.7828452"><ele>160.0</ele><time>2026-03-28T10:21:42.581Z</time></trkpt><trkpt lat="45.5021262" lon="10.7828952"><ele>159.0</ele><time>2026-03-28T10:21:43.581Z</time></trkpt><trkpt lat="45.502206" lon="10.7829429"><ele>158.0</ele><time>2026-03-28T10:21:44.581Z</time></trkpt><trkpt lat="45.5022976" lon="10.782975"><ele>157.0</ele><time>2026-03-28T10:21:45.581Z</time></trkpt><trkpt lat="45.5023934" lon="10.7829837"><ele>156.0</ele><time>2026-03-28T10:21:46.581Z</time></trkpt><trkpt lat="45.5025003" lon="10.782971"><ele>156.0</ele><time>2026-03-28T10:21:47.58Z</time></trkpt><trkpt lat="45.5026061" lon="10.7829586"><ele>156.0</ele><time>2026-03-28T10:21:48.58Z</time></trkpt><trkpt lat="45.5027034" lon="10.7829482"><ele>156.0</ele><time>2026-03-28T10:21:49.58Z</time></trkpt><trkpt lat="45.5027977" lon="10.7829452"><ele>156.0</ele><time>2026-03-28T10:21:50.579Z</time></trkpt><trkpt lat="45.5028833" lon="10.7829573"><ele>156.0</ele><time>2026-03-28T10:21:51.58Z</time></trkpt><trkpt lat="45.5029655" lon="10.7829894"><ele>155.4</ele><time>2026-03-28T10:21:52.58Z</time></trkpt><trkpt lat="45.5030526" lon="10.7830103"><ele>154.8</ele><time>2026-03-28T10:21:53.58Z</time></trkpt><trkpt lat="45.5031682" lon="10.7830175"><ele>154.20000000000002</ele><time>2026-03-28T10:21:54.581Z</time></trkpt><trkpt lat="45.5032939" lon="10.7830331"><ele>153.6</ele><time>2026-03-28T10:21:55.581Z</time></trkpt><trkpt lat="45.5034049" lon="10.7830707"><ele>153.0</ele><time>2026-03-28T10:21:56.579Z</time></trkpt><trkpt lat="45.5035222" lon="10.7830914"><ele>153.0</ele><time>2026-03-28T10:21:57.58Z</time></trkpt><trkpt lat="45.5036268" lon="10.7830904"><ele>153.0</ele><time>2026-03-28T10:21:58.58Z</time></trkpt><trkpt lat="45.5037401" lon="10.783066"><ele>153.0</ele><time>2026-03-28T10:21:59.581Z</time></trkpt><trkpt lat="45.5038615" lon="10.7830363"><ele>153.0</ele><time>2026-03-28T10:22:00.58Z</time></trkpt><trkpt lat="45.5039893" lon="10.7830238"><ele>153.6</ele><time>2026-03-28T10:22:01.58Z</time></trkpt><trkpt lat="45.5041181" lon="10.7830088"><ele>154.20000000000002</ele><time>2026-03-28T10:22:02.579Z</time></trkpt><trkpt lat="45.5042326" lon="10.7829941"><ele>154.8</ele><time>2026-03-28T10:22:03.58Z</time></trkpt><trkpt lat="45.5043358" lon="10.7829828"><ele>155.4</ele><time>2026-03-28T10:22:04.58Z</time></trkpt><trkpt lat="45.5044206" lon="10.782981"><ele>156.0</ele><time>2026-03-28T10:22:05.581Z</time></trkpt><trkpt lat="45.5044908" lon="10.7830012"><ele>156.0</ele><time>2026-03-28T10:22:06.581Z</time></trkpt><trkpt lat="45.5045727" lon="10.7830517"><ele>156.0</ele><time>2026-03-28T10:22:07.581Z</time></trkpt><trkpt lat="45.5046506" lon="10.7831082"><ele>156.0</ele><time>2026-03-28T10:22:08.581Z</time></trkpt><trkpt lat="45.504727" lon="10.7831483"><ele>156.0</ele><time>2026-03-28T10:22:09.579Z</time></trkpt><trkpt lat="45.5048047" lon="10.7831775"><ele>156.0</ele><time>2026-03-28T10:22:10.58Z</time></trkpt><trkpt lat="45.5048939" lon="10.7831886"><ele>156.0</ele><time>2026-03-28T10:22:11.579Z</time></trkpt><trkpt lat="45.5049921" lon="10.7831829"><ele>155.33333333333334</ele><time>2026-03-28T10:22:12.58Z</time></trkpt><trkpt lat="45.5050773" lon="10.7831779"><ele>154.66666666666666</ele><time>2026-03-28T10:22:13.581Z</time></trkpt><trkpt lat="45.5051645" lon="10.783226"><ele>154.0</ele><time>2026-03-28T10:22:15.58Z</time></trkpt><trkpt lat="45.5051871" lon="10.7833108"><ele>153.33333333333331</ele><time>2026-03-28T10:22:16.581Z</time></trkpt><trkpt lat="45.5052062" lon="10.7834344"><ele>152.66666666666666</ele><time>2026-03-28T10:22:17.58Z</time></trkpt><trkpt lat="45.5052164" lon="10.7835929"><ele>152.0</ele><time>2026-03-28T10:22:18.581Z</time></trkpt><trkpt lat="45.5052187" lon="10.783767"><ele>151.79999999999998</ele><time>2026-03-28T10:22:19.581Z</time></trkpt><trkpt lat="45.5052174" lon="10.7839243"><ele>151.6</ele><time>2026-03-28T10:22:20.58Z</time></trkpt><trkpt lat="45.5052121" lon="10.7840728"><ele>151.39999999999998</ele><time>2026-03-28T10:22:21.58Z</time></trkpt><trkpt lat="45.5052052" lon="10.7842166"><ele>151.2</ele><time>2026-03-28T10:22:22.581Z</time></trkpt><trkpt lat="45.5052307" lon="10.7843397"><ele>151.0</ele><time>2026-03-28T10:22:23.581Z</time></trkpt><trkpt lat="45.5052743" lon="10.7844842"><ele>150.75</ele><time>2026-03-28T10:22:24.579Z</time></trkpt><trkpt lat="45.5053224" lon="10.7846537"><ele>150.5</ele><time>2026-03-28T10:22:25.581Z</time></trkpt><trkpt lat="45.5053576" lon="10.7848512"><ele>150.25</ele><time>2026-03-28T10:22:26.58Z</time></trkpt><trkpt lat="45.5053843" lon="10.7850781"><ele>150.0</ele><time>2026-03-28T10:22:27.581Z</time></trkpt><trkpt lat="45.5054098" lon="10.785322"><ele>149.66666666666666</ele><time>2026-03-28T10:22:28.58Z</time></trkpt><trkpt lat="45.5054344" lon="10.7855666"><ele>149.33333333333331</ele><time>2026-03-28T10:22:29.58Z</time></trkpt><trkpt lat="45.5054535" lon="10.7857985"><ele>149.0</ele><time>2026-03-28T10:22:30.58Z</time></trkpt><trkpt lat="45.5054726" lon="10.7860162"><ele>148.66666666666666</ele><time>2026-03-28T10:22:31.581Z</time></trkpt><trkpt lat="45.5055004" lon="10.7862351"><ele>148.33333333333334</ele><time>2026-03-28T10:22:32.581Z</time></trkpt><trkpt lat="45.505533" lon="10.7864691"><ele>148.0</ele><time>2026-03-28T10:22:33.579Z</time></trkpt><trkpt lat="45.5055662" lon="10.7867244"><ele>147.0</ele><time>2026-03-28T10:22:34.581Z</time></trkpt><trkpt lat="45.5055983" lon="10.7869685"><ele>146.0</ele><time>2026-03-28T10:22:35.579Z</time></trkpt><trkpt lat="45.5056268" lon="10.7871858"><ele>145.0</ele><time>2026-03-28T10:22:36.58Z</time></trkpt><trkpt lat="45.5056514" lon="10.7873881"><ele>145.0</ele><time>2026-03-28T10:22:37.581Z</time></trkpt><trkpt lat="45.5056727" lon="10.7875781"><ele>145.0</ele><time>2026-03-28T10:22:38.581Z</time></trkpt><trkpt lat="45.5056935" lon="10.7877553"><ele>145.0</ele><time>2026-03-28T10:22:39.58Z</time></trkpt><trkpt lat="45.5057146" lon="10.7879224"><ele>145.0</ele><time>2026-03-28T10:22:40.58Z</time></trkpt><trkpt lat="45.5057361" lon="10.7880785"><ele>145.0</ele><time>2026-03-28T10:22:41.58Z</time></trkpt><trkpt lat="45.5057522" lon="10.7882081"><ele>145.0</ele><time>2026-03-28T10:22:42.58Z</time></trkpt><trkpt lat="45.5057729" lon="10.7883162"><ele>145.0</ele><time>2026-03-28T10:22:43.581Z</time></trkpt><trkpt lat="45.5058102" lon="10.7884333"><ele>145.0</ele><time>2026-03-28T10:22:44.581Z</time></trkpt><trkpt lat="45.5058677" lon="10.7885672"><ele>145.0</ele><time>2026-03-28T10:22:45.58Z</time></trkpt><trkpt lat="45.5059047" lon="10.7886943"><ele>145.0</ele><time>2026-03-28T10:22:46.581Z</time></trkpt><trkpt lat="45.5059345" lon="10.7888399"><ele>145.0</ele><time>2026-03-28T10:22:47.58Z</time></trkpt><trkpt lat="45.5059666" lon="10.7889733"><ele>145.0</ele><time>2026-03-28T10:22:48.579Z</time></trkpt><trkpt lat="45.5059951" lon="10.7891157"><ele>145.0</ele><time>2026-03-28T10:22:49.579Z</time></trkpt><trkpt lat="45.5060283" lon="10.7892651"><ele>145.0</ele><time>2026-03-28T10:22:50.58Z</time></trkpt><trkpt lat="45.5060548" lon="10.789389"><ele>145.6</ele><time>2026-03-28T10:22:51.58Z</time></trkpt><trkpt lat="45.506077" lon="10.7894993"><ele>146.2</ele><time>2026-03-28T10:22:52.58Z</time></trkpt><trkpt lat="45.5060937" lon="10.7895876"><ele>146.8</ele><time>2026-03-28T10:22:53.58Z</time></trkpt><trkpt lat="45.5061238" lon="10.7897248"><ele>147.4</ele><time>2026-03-28T10:22:55.581Z</time></trkpt><trkpt lat="45.5061479" lon="10.789858"><ele>148.0</ele><time>2026-03-28T10:22:57.581Z</time></trkpt><trkpt lat="45.5061754" lon="10.7900511"><ele>148.0</ele><time>2026-03-28T10:22:59.58Z</time></trkpt><trkpt lat="45.5061976" lon="10.7901798"><ele>148.0</ele><time>2026-03-28T10:23:00.58Z</time></trkpt><trkpt lat="45.5062221" lon="10.7903295"><ele>148.0</ele><time>2026-03-28T10:23:01.58Z</time></trkpt><trkpt lat="45.506233" lon="10.7904813"><ele>148.0</ele><time>2026-03-28T10:23:02.58Z</time></trkpt><trkpt lat="45.5062473" lon="10.7906135"><ele>148.0</ele><time>2026-03-28T10:23:03.58Z</time></trkpt><trkpt lat="45.5062663" lon="10.790743"><ele>148.0</ele><time>2026-03-28T10:23:04.58Z</time></trkpt><trkpt lat="45.5062789" lon="10.7908521"><ele>148.0</ele><time>2026-03-28T10:23:05.58Z</time></trkpt><trkpt lat="45.5062939" lon="10.7909746"><ele>148.0</ele><time>2026-03-28T10:23:06.58Z</time></trkpt><trkpt lat="45.5063084" lon="10.7910941"><ele>148.0</ele><time>2026-03-28T10:23:07.58Z</time></trkpt><trkpt lat="45.5063188" lon="10.7911987"><ele>148.0</ele><time>2026-03-28T10:23:08.58Z</time></trkpt><trkpt lat="45.5063252" lon="10.7913001"><ele>148.0</ele><time>2026-03-28T10:23:09.58Z</time></trkpt><trkpt lat="45.5063329" lon="10.7914165"><ele>148.16666666666669</ele><time>2026-03-28T10:23:10.581Z</time></trkpt><trkpt lat="45.5063414" lon="10.7915511"><ele>148.33333333333334</ele><time>2026-03-28T10:23:11.581Z</time></trkpt><trkpt lat="45.5063523" lon="10.7916728"><ele>148.5</ele><time>2026-03-28T10:23:12.58Z</time></trkpt><trkpt lat="45.5063646" lon="10.7917806"><ele>148.66666666666666</ele><time>2026-03-28T10:23:13.58Z</time></trkpt><trkpt lat="45.5063891" lon="10.7918972"><ele>148.83333333333331</ele><time>2026-03-28T10:23:14.58Z</time></trkpt><trkpt lat="45.5064142" lon="10.7920165"><ele>149.0</ele><time>2026-03-28T10:23:15.579Z</time></trkpt><trkpt lat="45.5064399" lon="10.7921431"><ele>149.0</ele><time>2026-03-28T10:23:16.581Z</time></trkpt><trkpt lat="45.5064656" lon="10.792259"><ele>149.0</ele><time>2026-03-28T10:23:17.581Z</time></trkpt><trkpt lat="45.506488" lon="10.7923665"><ele>149.0</ele><time>2026-03-28T10:23:18.581Z</time></trkpt><trkpt lat="45.5065153" lon="10.7924788"><ele>149.0</ele><time>2026-03-28T10:23:19.58Z</time></trkpt><trkpt lat="45.5065374" lon="10.792563"><ele>149.0</ele><time>2026-03-28T10:23:20.581Z</time></trkpt><trkpt lat="45.5065863" lon="10.7927183"><ele>149.0</ele><time>2026-03-28T10:23:22.581Z</time></trkpt><trkpt lat="45.5066048" lon="10.7928124"><ele>149.2</ele><time>2026-03-28T10:23:23.58Z</time></trkpt><trkpt lat="45.5066188" lon="10.7929177"><ele>149.4</ele><time>2026-03-28T10:23:24.58Z</time></trkpt><trkpt lat="45.5066294" lon="10.7930384"><ele>149.6</ele><time>2026-03-28T10:23:25.58Z</time></trkpt><trkpt lat="45.5066285" lon="10.7931623"><ele>149.8</ele><time>2026-03-28T10:23:26.58Z</time></trkpt><trkpt lat="45.5066224" lon="10.7932946"><ele>150.0</ele><time>2026-03-28T10:23:27.58Z</time></trkpt><trkpt lat="45.5066228" lon="10.7934534"><ele>150.5</ele><time>2026-03-28T10:23:28.58Z</time></trkpt><trkpt lat="45.5066167" lon="10.7936211"><ele>151.0</ele><time>2026-03-28T10:23:29.581Z</time></trkpt><trkpt lat="45.5066048" lon="10.7938064"><ele>151.5</ele><time>2026-03-28T10:23:30.581Z</time></trkpt><trkpt lat="45.5065927" lon="10.7939954"><ele>152.0</ele><time>2026-03-28T10:23:31.581Z</time></trkpt><trkpt lat="45.5065771" lon="10.7941994"><ele>151.75</ele><time>2026-03-28T10:23:32.58Z</time></trkpt><trkpt lat="45.5065651" lon="10.7943966"><ele>151.5</ele><time>2026-03-28T10:23:33.58Z</time></trkpt><trkpt lat="45.506554" lon="10.7945776"><ele>151.25</ele><time>2026-03-28T10:23:34.579Z</time></trkpt><trkpt lat="45.506545" lon="10.7947411"><ele>151.0</ele><time>2026-03-28T10:23:35.579Z</time></trkpt><trkpt lat="45.5065406" lon="10.7948782"><ele>151.0</ele><time>2026-03-28T10:23:36.581Z</time></trkpt><trkpt lat="45.5065365" lon="10.7949871"><ele>151.0</ele><time>2026-03-28T10:23:37.58Z</time></trkpt><trkpt lat="45.5065328" lon="10.7951164"><ele>151.0</ele><time>2026-03-28T10:23:39.58Z</time></trkpt><trkpt lat="45.5065834" lon="10.7952336"><ele>151.0</ele><time>2026-03-28T10:23:41.58Z</time></trkpt><trkpt lat="45.5066464" lon="10.795365"><ele>151.0</ele><time>2026-03-28T10:23:43.581Z</time></trkpt><trkpt lat="45.5067391" lon="10.7954382"><ele>151.0</ele><time>2026-03-28T10:23:45.579Z</time></trkpt><trkpt lat="45.5068378" lon="10.7954253"><ele>151.0</ele><time>2026-03-28T10:23:47.581Z</time></trkpt><trkpt lat="45.5069105" lon="10.7952977"><ele>151.0</ele><time>2026-03-28T10:23:49.581Z</time></trkpt><trkpt lat="45.5069156" lon="10.7952012"><ele>151.0</ele><time>2026-03-28T10:23:50.581Z</time></trkpt><trkpt lat="45.5068985" lon="10.7951017"><ele>151.0</ele><time>2026-03-28T10:23:51.579Z</time></trkpt><trkpt lat="45.5069009" lon="10.7949848"><ele>151.0</ele><time>2026-03-28T10:23:52.581Z</time></trkpt><trkpt lat="45.5069152" lon="10.7948736"><ele>151.0</ele><time>2026-03-28T10:23:53.581Z</time></trkpt><trkpt lat="45.506956" lon="10.7947809"><ele>151.0</ele><time>2026-03-28T10:23:54.581Z</time></trkpt><trkpt lat="45.5070179" lon="10.7946884"><ele>151.0</ele><time>2026-03-28T10:23:55.581Z</time></trkpt><trkpt lat="45.5071242" lon="10.7945389"><ele>151.0</ele><time>2026-03-28T10:23:56.579Z</time></trkpt><trkpt lat="45.507275" lon="10.7943499"><ele>151.0</ele><time>2026-03-28T10:23:57.58Z</time></trkpt><trkpt lat="45.5074434" lon="10.7941731"><ele>151.0</ele><time>2026-03-28T10:23:58.581Z</time></trkpt><trkpt lat="45.5075896" lon="10.7940206"><ele>151.0</ele><time>2026-03-28T10:23:59.58Z</time></trkpt><trkpt lat="45.5077085" lon="10.7938844"><ele>151.0</ele><time>2026-03-28T10:24:00.58Z</time></trkpt><trkpt lat="45.5077892" lon="10.793792"><ele>151.0</ele><time>2026-03-28T10:24:01.581Z</time></trkpt><trkpt lat="45.5078634" lon="10.7937028"><ele>151.0</ele><time>2026-03-28T10:24:02.58Z</time></trkpt><trkpt lat="45.5079274" lon="10.7936282"><ele>151.0</ele><time>2026-03-28T10:24:03.579Z</time></trkpt><trkpt lat="45.5079871" lon="10.7935551"><ele>151.0</ele><time>2026-03-28T10:24:04.58Z</time></trkpt><trkpt lat="45.5080481" lon="10.7934847"><ele>151.0</ele><time>2026-03-28T10:24:05.58Z</time></trkpt><trkpt lat="45.5081116" lon="10.7934183"><ele>151.0</ele><time>2026-03-28T10:24:06.581Z</time></trkpt><trkpt lat="45.5081872" lon="10.7933314"><ele>151.0</ele><time>2026-03-28T10:24:07.58Z</time></trkpt><trkpt lat="45.5082695" lon="10.79324"><ele>151.0</ele><time>2026-03-28T10:24:08.579Z</time></trkpt><trkpt lat="45.5083541" lon="10.7931462"><ele>151.0</ele><time>2026-03-28T10:24:09.58Z</time></trkpt><trkpt lat="45.5084488" lon="10.7930481"><ele>151.0</ele><time>2026-03-28T10:24:10.581Z</time></trkpt><trkpt lat="45.5085495" lon="10.7929368"><ele>151.0</ele><time>2026-03-28T10:24:11.58Z</time></trkpt><trkpt lat="45.5086554" lon="10.7928237"><ele>151.0</ele><time>2026-03-28T10:24:12.579Z</time></trkpt><trkpt lat="45.5087661" lon="10.7927015"><ele>151.0</ele><time>2026-03-28T10:24:13.579Z</time></trkpt><trkpt lat="45.508874" lon="10.7925749"><ele>151.0</ele><time>2026-03-28T10:24:14.58Z</time></trkpt><trkpt lat="45.5089817" lon="10.7924527"><ele>151.0</ele><time>2026-03-28T10:24:15.579Z</time></trkpt><trkpt lat="45.5090857" lon="10.7923328"><ele>151.0</ele><time>2026-03-28T10:24:16.581Z</time></trkpt><trkpt lat="45.5091837" lon="10.7921861"><ele>151.0</ele><time>2026-03-28T10:24:17.579Z</time></trkpt><trkpt lat="45.5092693" lon="10.7920116"><ele>151.0</ele><time>2026-03-28T10:24:18.58Z</time></trkpt><trkpt lat="45.5093443" lon="10.7918302"><ele>151.0</ele><time>2026-03-28T10:24:19.58Z</time></trkpt><trkpt lat="45.5094108" lon="10.7916539"><ele>151.0</ele><time>2026-03-28T10:24:20.58Z</time></trkpt><trkpt lat="45.5094657" lon="10.7914631"><ele>151.0</ele><time>2026-03-28T10:24:21.579Z</time></trkpt><trkpt lat="45.5095138" lon="10.7912421"><ele>151.0</ele><time>2026-03-28T10:24:22.581Z</time></trkpt><trkpt lat="45.5095551" lon="10.7909854"><ele>151.66666666666669</ele><time>2026-03-28T10:24:23.581Z</time></trkpt><trkpt lat="45.5095786" lon="10.7907048"><ele>152.33333333333334</ele><time>2026-03-28T10:24:24.58Z</time></trkpt><trkpt lat="45.509588" lon="10.7904549"><ele>153.0</ele><time>2026-03-28T10:24:25.58Z</time></trkpt><trkpt lat="45.5095912" lon="10.7902199"><ele>153.25</ele><time>2026-03-28T10:24:26.58Z</time></trkpt><trkpt lat="45.5095913" lon="10.7900142"><ele>153.5</ele><time>2026-03-28T10:24:27.58Z</time></trkpt><trkpt lat="45.5095887" lon="10.7898183"><ele>153.75</ele><time>2026-03-28T10:24:28.58Z</time></trkpt><trkpt lat="45.5095865" lon="10.7896163"><ele>154.0</ele><time>2026-03-28T10:24:29.581Z</time></trkpt><trkpt lat="45.5095905" lon="10.7894083"><ele>153.5</ele><time>2026-03-28T10:24:30.58Z</time></trkpt><trkpt lat="45.5096056" lon="10.7892026"><ele>153.0</ele><time>2026-03-28T10:24:31.58Z</time></trkpt><trkpt lat="45.5096305" lon="10.7889889"><ele>152.5</ele><time>2026-03-28T10:24:32.58Z</time></trkpt><trkpt lat="45.5096627" lon="10.788777"><ele>152.0</ele><time>2026-03-28T10:24:33.58Z</time></trkpt><trkpt lat="45.5096971" lon="10.7885765"><ele>151.75</ele><time>2026-03-28T10:24:34.58Z</time></trkpt><trkpt lat="45.5097308" lon="10.7883754"><ele>151.5</ele><time>2026-03-28T10:24:35.58Z</time></trkpt><trkpt lat="45.509759" lon="10.7881823"><ele>151.25</ele><time>2026-03-28T10:24:36.581Z</time></trkpt><trkpt lat="45.5097657" lon="10.7879773"><ele>151.0</ele><time>2026-03-28T10:24:37.58Z</time></trkpt><trkpt lat="45.509749" lon="10.7877757"><ele>151.5</ele><time>2026-03-28T10:24:38.579Z</time></trkpt><trkpt lat="45.5097283" lon="10.7875864"><ele>152.0</ele><time>2026-03-28T10:24:39.58Z</time></trkpt><trkpt lat="45.509709" lon="10.7873953"><ele>152.5</ele><time>2026-03-28T10:24:40.58Z</time></trkpt><trkpt lat="45.5096775" lon="10.7871948"><ele>153.0</ele><time>2026-03-28T10:24:41.58Z</time></trkpt><trkpt lat="45.5096459" lon="10.7869877"><ele>152.75</ele><time>2026-03-28T10:24:42.58Z</time></trkpt><trkpt lat="45.5096299" lon="10.7867886"><ele>152.5</ele><time>2026-03-28T10:24:43.581Z</time></trkpt><trkpt lat="45.5096064" lon="10.7866048"><ele>152.25</ele><time>2026-03-28T10:24:44.58Z</time></trkpt><trkpt lat="45.5095704" lon="10.786417"><ele>152.0</ele><time>2026-03-28T10:24:45.58Z</time></trkpt><trkpt lat="45.5095411" lon="10.7862149"><ele>152.0</ele><time>2026-03-28T10:24:46.579Z</time></trkpt><trkpt lat="45.5095217" lon="10.7860164"><ele>152.0</ele><time>2026-03-28T10:24:47.58Z</time></trkpt><trkpt lat="45.5095062" lon="10.7858351"><ele>152.0</ele><time>2026-03-28T10:24:48.58Z</time></trkpt><trkpt lat="45.5094967" lon="10.7856654"><ele>152.0</ele><time>2026-03-28T10:24:49.579Z</time></trkpt><trkpt lat="45.5094841" lon="10.7855052"><ele>152.0</ele><time>2026-03-28T10:24:50.58Z</time></trkpt><trkpt lat="45.5094731" lon="10.7853405"><ele>152.0</ele><time>2026-03-28T10:24:51.58Z</time></trkpt><trkpt lat="45.5094705" lon="10.7851859"><ele>152.0</ele><time>2026-03-28T10:24:52.581Z</time></trkpt><trkpt lat="45.5094876" lon="10.7850479"><ele>152.0</ele><time>2026-03-28T10:24:53.581Z</time></trkpt><trkpt lat="45.5095254" lon="10.784938"><ele>152.0</ele><time>2026-03-28T10:24:54.581Z</time></trkpt><trkpt lat="45.5095824" lon="10.7848737"><ele>152.2</ele><time>2026-03-28T10:24:55.581Z</time></trkpt><trkpt lat="45.5096595" lon="10.7848477"><ele>152.39999999999998</ele><time>2026-03-28T10:24:56.58Z</time></trkpt><trkpt lat="45.5097527" lon="10.7848356"><ele>152.60000000000002</ele><time>2026-03-28T10:24:57.58Z</time></trkpt><trkpt lat="45.5098544" lon="10.7848322"><ele>152.8</ele><time>2026-03-28T10:24:58.581Z</time></trkpt><trkpt lat="45.5099596" lon="10.7848358"><ele>153.0</ele><time>2026-03-28T10:24:59.581Z</time></trkpt><trkpt lat="45.5100724" lon="10.7848461"><ele>153.0</ele><time>2026-03-28T10:25:00.58Z</time></trkpt><trkpt lat="45.5101938" lon="10.7848653"><ele>153.0</ele><time>2026-03-28T10:25:01.58Z</time></trkpt><trkpt lat="45.5103255" lon="10.7848804"><ele>153.0</ele><time>2026-03-28T10:25:02.581Z</time></trkpt><trkpt lat="45.5104631" lon="10.7848993"><ele>153.0</ele><time>2026-03-28T10:25:03.581Z</time></trkpt><trkpt lat="45.5106029" lon="10.7849132"><ele>153.66666666666666</ele><time>2026-03-28T10:25:04.581Z</time></trkpt><trkpt lat="45.5107518" lon="10.7849284"><ele>154.33333333333331</ele><time>2026-03-28T10:25:05.581Z</time></trkpt><trkpt lat="45.5109076" lon="10.7849473"><ele>155.0</ele><time>2026-03-28T10:25:06.581Z</time></trkpt><trkpt lat="45.5110654" lon="10.7849641"><ele>155.0</ele><time>2026-03-28T10:25:07.58Z</time></trkpt><trkpt lat="45.5112118" lon="10.784975"><ele>155.0</ele><time>2026-03-28T10:25:08.581Z</time></trkpt><trkpt lat="45.5113457" lon="10.7849793"><ele>155.0</ele><time>2026-03-28T10:25:09.581Z</time></trkpt><trkpt lat="45.5114681" lon="10.7849849"><ele>155.0</ele><time>2026-03-28T10:25:10.58Z</time></trkpt><trkpt lat="45.5115777" lon="10.7849932"><ele>155.4</ele><time>2026-03-28T10:25:11.581Z</time></trkpt><trkpt lat="45.5116912" lon="10.7850116"><ele>155.8</ele><time>2026-03-28T10:25:12.581Z</time></trkpt><trkpt lat="45.5117868" lon="10.785029"><ele>156.2</ele><time>2026-03-28T10:25:13.581Z</time></trkpt><trkpt lat="45.5118666" lon="10.785031"><ele>156.6</ele><time>2026-03-28T10:25:14.581Z</time></trkpt><trkpt lat="45.5119275" lon="10.7850008"><ele>157.0</ele><time>2026-03-28T10:25:15.58Z</time></trkpt><trkpt lat="45.5119927" lon="10.7848645"><ele>157.0</ele><time>2026-03-28T10:25:17.581Z</time></trkpt><trkpt lat="45.5120147" lon="10.7846839"><ele>157.0</ele><time>2026-03-28T10:25:19.58Z</time></trkpt><trkpt lat="45.5119945" lon="10.7844467"><ele>157.0</ele><time>2026-03-28T10:25:20.581Z</time></trkpt><trkpt lat="45.5120014" lon="10.7842804"><ele>157.0</ele><time>2026-03-28T10:25:21.58Z</time></trkpt><trkpt lat="45.5120376" lon="10.78413"><ele>157.0</ele><time>2026-03-28T10:25:22.581Z</time></trkpt><trkpt lat="45.5121014" lon="10.7839909"><ele>157.0</ele><time>2026-03-28T10:25:23.581Z</time></trkpt><trkpt lat="45.5121916" lon="10.783872"><ele>157.0</ele><time>2026-03-28T10:25:24.579Z</time></trkpt><trkpt lat="45.5123018" lon="10.7837542"><ele>157.0</ele><time>2026-03-28T10:25:25.58Z</time></trkpt><trkpt lat="45.5124062" lon="10.7836264"><ele>157.0</ele><time>2026-03-28T10:25:26.581Z</time></trkpt><trkpt lat="45.5124818" lon="10.7835382"><ele>157.0</ele><time>2026-03-28T10:25:27.579Z</time></trkpt><trkpt lat="45.512543" lon="10.7834704"><ele>157.0</ele><time>2026-03-28T10:25:28.581Z</time></trkpt><trkpt lat="45.5126277" lon="10.7833876"><ele>157.0</ele><time>2026-03-28T10:25:30.581Z</time></trkpt><trkpt lat="45.5126377" lon="10.7834874"><ele>157.0</ele><time>2026-03-28T10:25:35.579Z</time></trkpt><trkpt lat="45.5125671" lon="10.7835592"><ele>157.0</ele><time>2026-03-28T10:25:36.58Z</time></trkpt><trkpt lat="45.5125074" lon="10.7836045"><ele>157.0</ele><time>2026-03-28T10:25:37.581Z</time></trkpt><trkpt lat="45.512427" lon="10.7836252"><ele>157.0</ele><time>2026-03-28T10:25:42.581Z</time></trkpt><trkpt lat="45.5123489" lon="10.7836696"><ele>157.0</ele><time>2026-03-28T10:25:44.581Z</time></trkpt><trkpt lat="45.5122878" lon="10.7837415"><ele>157.0</ele><time>2026-03-28T10:25:45.581Z</time></trkpt><trkpt lat="45.5122288" lon="10.7838027"><ele>157.0</ele><time>2026-03-28T10:25:46.581Z</time></trkpt><trkpt lat="45.512172" lon="10.783857"><ele>157.0</ele><time>2026-03-28T10:25:47.58Z</time></trkpt><trkpt lat="45.5120864" lon="10.783958"><ele>157.0</ele><time>2026-03-28T10:25:49.58Z</time></trkpt><trkpt lat="45.5120194" lon="10.784112"><ele>157.0</ele><time>2026-03-28T10:25:51.58Z</time></trkpt><trkpt lat="45.5119824" lon="10.784255"><ele>157.0</ele><time>2026-03-28T10:25:53.579Z</time></trkpt><trkpt lat="45.5120092" lon="10.784355"><ele>157.0</ele><time>2026-03-28T10:25:56.581Z</time></trkpt><trkpt lat="45.5121202" lon="10.7843741"><ele>157.0</ele><time>2026-03-28T10:25:58.58Z</time></trkpt><trkpt lat="45.5122105" lon="10.7843731"><ele>156.6</ele><time>2026-03-28T10:25:59.58Z</time></trkpt><trkpt lat="45.5123198" lon="10.7843793"><ele>156.2</ele><time>2026-03-28T10:26:00.58Z</time></trkpt><trkpt lat="45.5124275" lon="10.7843805"><ele>155.8</ele><time>2026-03-28T10:26:01.579Z</time></trkpt><trkpt lat="45.5125352" lon="10.7843772"><ele>155.4</ele><time>2026-03-28T10:26:02.58Z</time></trkpt><trkpt lat="45.5126381" lon="10.7843735"><ele>155.0</ele><time>2026-03-28T10:26:03.581Z</time></trkpt><trkpt lat="45.5127505" lon="10.7843724"><ele>155.0</ele><time>2026-03-28T10:26:04.581Z</time></trkpt><trkpt lat="45.512869" lon="10.7843716"><ele>155.0</ele><time>2026-03-28T10:26:05.58Z</time></trkpt><trkpt lat="45.5130055" lon="10.7843627"><ele>155.0</ele><time>2026-03-28T10:26:06.58Z</time></trkpt><trkpt lat="45.513151" lon="10.7843535"><ele>155.0</ele><time>2026-03-28T10:26:07.58Z</time></trkpt><trkpt lat="45.5133051" lon="10.7843441"><ele>155.75</ele><time>2026-03-28T10:26:08.58Z</time></trkpt><trkpt lat="45.513453" lon="10.7843391"><ele>156.5</ele><time>2026-03-28T10:26:09.581Z</time></trkpt><trkpt lat="45.5135972" lon="10.7843268"><ele>157.25</ele><time>2026-03-28T10:26:10.581Z</time></trkpt><trkpt lat="45.5137404" lon="10.7843025"><ele>158.0</ele><time>2026-03-28T10:26:11.581Z</time></trkpt><trkpt lat="45.5138912" lon="10.7842803"><ele>159.33333333333331</ele><time>2026-03-28T10:26:12.581Z</time></trkpt><trkpt lat="45.5140421" lon="10.78426"><ele>160.66666666666666</ele><time>2026-03-28T10:26:13.581Z</time></trkpt><trkpt lat="45.5141974" lon="10.7842355"><ele>162.0</ele><time>2026-03-28T10:26:14.581Z</time></trkpt><trkpt lat="45.5143518" lon="10.7842086"><ele>162.0</ele><time>2026-03-28T10:26:15.581Z</time></trkpt><trkpt lat="45.5145045" lon="10.7841801"><ele>162.0</ele><time>2026-03-28T10:26:16.581Z</time></trkpt><trkpt lat="45.5146499" lon="10.7841431"><ele>162.0</ele><time>2026-03-28T10:26:17.581Z</time></trkpt><trkpt lat="45.5147867" lon="10.7841114"><ele>162.0</ele><time>2026-03-28T10:26:18.581Z</time></trkpt><trkpt lat="45.5149149" lon="10.7840802"><ele>162.6</ele><time>2026-03-28T10:26:19.581Z</time></trkpt><trkpt lat="45.5150365" lon="10.7840502"><ele>163.2</ele><time>2026-03-28T10:26:20.58Z</time></trkpt><trkpt lat="45.5151508" lon="10.7840232"><ele>163.8</ele><time>2026-03-28T10:26:21.58Z</time></trkpt><trkpt lat="45.5152492" lon="10.7839914"><ele>164.4</ele><time>2026-03-28T10:26:22.58Z</time></trkpt><trkpt lat="45.5153282" lon="10.7839466"><ele>165.0</ele><time>2026-03-28T10:26:23.58Z</time></trkpt><trkpt lat="45.5154019" lon="10.7838697"><ele>165.2</ele><time>2026-03-28T10:26:24.58Z</time></trkpt><trkpt lat="45.515488" lon="10.7837996"><ele>165.4</ele><time>2026-03-28T10:26:25.581Z</time></trkpt><trkpt lat="45.5155724" lon="10.7837501"><ele>165.60000000000002</ele><time>2026-03-28T10:26:26.581Z</time></trkpt><trkpt lat="45.5156517" lon="10.7837092"><ele>165.8</ele><time>2026-03-28T10:26:27.581Z</time></trkpt><trkpt lat="45.5157494" lon="10.7836831"><ele>166.0</ele><time>2026-03-28T10:26:28.579Z</time></trkpt><trkpt lat="45.5158572" lon="10.7836801"><ele>166.0</ele><time>2026-03-28T10:26:29.581Z</time></trkpt><trkpt lat="45.515977" lon="10.7836893"><ele>166.0</ele><time>2026-03-28T10:26:30.581Z</time></trkpt><trkpt lat="45.5160945" lon="10.7836929"><ele>166.0</ele><time>2026-03-28T10:26:31.58Z</time></trkpt><trkpt lat="45.5162026" lon="10.7836954"><ele>166.0</ele><time>2026-03-28T10:26:32.581Z</time></trkpt><trkpt lat="45.5163047" lon="10.7836887"><ele>166.0</ele><time>2026-03-28T10:26:33.58Z</time></trkpt><trkpt lat="45.5164045" lon="10.7836627"><ele>166.16666666666669</ele><time>2026-03-28T10:26:34.58Z</time></trkpt><trkpt lat="45.5164927" lon="10.783638"><ele>166.33333333333334</ele><time>2026-03-28T10:26:35.579Z</time></trkpt><trkpt lat="45.5165776" lon="10.7836219"><ele>166.5</ele><time>2026-03-28T10:26:36.58Z</time></trkpt><trkpt lat="45.5166586" lon="10.7836067"><ele>166.66666666666666</ele><time>2026-03-28T10:26:37.581Z</time></trkpt><trkpt lat="45.516723" lon="10.783596"><ele>166.83333333333331</ele><time>2026-03-28T10:26:38.581Z</time></trkpt><trkpt lat="45.516827" lon="10.7835673"><ele>167.0</ele><time>2026-03-28T10:26:40.581Z</time></trkpt><trkpt lat="45.5168763" lon="10.783493"><ele>167.0</ele><time>2026-03-28T10:26:42.581Z</time></trkpt><trkpt lat="45.5169122" lon="10.7834154"><ele>167.0</ele><time>2026-03-28T10:26:45.58Z</time></trkpt><trkpt lat="45.5169673" lon="10.7834798"><ele>167.0</ele><time>2026-03-28T10:26:48.58Z</time></trkpt><trkpt lat="45.517089" lon="10.783532"><ele>167.0</ele><time>2026-03-28T10:26:50.58Z</time></trkpt><trkpt lat="45.5171828" lon="10.783514"><ele>167.0</ele><time>2026-03-28T10:26:51.58Z</time></trkpt><trkpt lat="45.5172945" lon="10.783483"><ele>167.33333333333331</ele><time>2026-03-28T10:26:52.581Z</time></trkpt><trkpt lat="45.5174392" lon="10.7834532"><ele>167.66666666666666</ele><time>2026-03-28T10:26:53.581Z</time></trkpt><trkpt lat="45.5176106" lon="10.7834173"><ele>168.0</ele><time>2026-03-28T10:26:54.579Z</time></trkpt><trkpt lat="45.5178105" lon="10.783363"><ele>169.0</ele><time>2026-03-28T10:26:55.581Z</time></trkpt><trkpt lat="45.5180152" lon="10.7833011"><ele>170.0</ele><time>2026-03-28T10:26:56.58Z</time></trkpt><trkpt lat="45.5182125" lon="10.7832413"><ele>171.0</ele><time>2026-03-28T10:26:57.58Z</time></trkpt><trkpt lat="45.5184154" lon="10.7831771"><ele>171.0</ele><time>2026-03-28T10:26:58.58Z</time></trkpt><trkpt lat="45.5186228" lon="10.7831181"><ele>171.0</ele><time>2026-03-28T10:26:59.58Z</time></trkpt><trkpt lat="45.5188352" lon="10.783061"><ele>171.0</ele><time>2026-03-28T10:27:00.58Z</time></trkpt><trkpt lat="45.5190603" lon="10.7829962"><ele>169.5</ele><time>2026-03-28T10:27:01.581Z</time></trkpt><trkpt lat="45.519301" lon="10.7829309"><ele>168.0</ele><time>2026-03-28T10:27:02.581Z</time></trkpt><trkpt lat="45.5195563" lon="10.7828666"><ele>167.5</ele><time>2026-03-28T10:27:03.581Z</time></trkpt><trkpt lat="45.5197991" lon="10.7828062"><ele>167.0</ele><time>2026-03-28T10:27:04.581Z</time></trkpt><trkpt lat="45.5200378" lon="10.7827542"><ele>167.0</ele><time>2026-03-28T10:27:05.58Z</time></trkpt><trkpt lat="45.5202869" lon="10.7827086"><ele>167.0</ele><time>2026-03-28T10:27:06.58Z</time></trkpt><trkpt lat="45.520508" lon="10.7826718"><ele>167.33333333333331</ele><time>2026-03-28T10:27:07.58Z</time></trkpt><trkpt lat="45.5207029" lon="10.782633"><ele>167.66666666666666</ele><time>2026-03-28T10:27:08.581Z</time></trkpt><trkpt lat="45.52089" lon="10.7825824"><ele>168.0</ele><time>2026-03-28T10:27:09.579Z</time></trkpt><trkpt lat="45.5210752" lon="10.7825167"><ele>168.66666666666666</ele><time>2026-03-28T10:27:10.58Z</time></trkpt><trkpt lat="45.5212591" lon="10.7824522"><ele>169.33333333333331</ele><time>2026-03-28T10:27:11.58Z</time></trkpt><trkpt lat="45.521464" lon="10.7823899"><ele>170.0</ele><time>2026-03-28T10:27:12.58Z</time></trkpt><trkpt lat="45.5216956" lon="10.782325"><ele>170.0</ele><time>2026-03-28T10:27:13.58Z</time></trkpt><trkpt lat="45.5219176" lon="10.7822626"><ele>170.0</ele><time>2026-03-28T10:27:14.58Z</time></trkpt><trkpt lat="45.5221378" lon="10.7822075"><ele>169.0</ele><time>2026-03-28T10:27:15.58Z</time></trkpt><trkpt lat="45.5223641" lon="10.7821555"><ele>168.0</ele><time>2026-03-28T10:27:16.581Z</time></trkpt><trkpt lat="45.5225815" lon="10.7821033"><ele>168.0</ele><time>2026-03-28T10:27:17.58Z</time></trkpt><trkpt lat="45.5227777" lon="10.782059"><ele>168.0</ele><time>2026-03-28T10:27:18.581Z</time></trkpt><trkpt lat="45.5229738" lon="10.7820175"><ele>168.0</ele><time>2026-03-28T10:27:19.58Z</time></trkpt><trkpt lat="45.5231783" lon="10.7819729"><ele>166.66666666666666</ele><time>2026-03-28T10:27:20.58Z</time></trkpt><trkpt lat="45.5233662" lon="10.7819309"><ele>165.33333333333331</ele><time>2026-03-28T10:27:21.58Z</time></trkpt><trkpt lat="45.5235364" lon="10.7818893"><ele>164.0</ele><time>2026-03-28T10:27:22.581Z</time></trkpt><trkpt lat="45.5236951" lon="10.7818504"><ele>163.75</ele><time>2026-03-28T10:27:23.581Z</time></trkpt><trkpt lat="45.5238442" lon="10.7818063"><ele>163.5</ele><time>2026-03-28T10:27:24.58Z</time></trkpt><trkpt lat="45.5239837" lon="10.7817531"><ele>163.25</ele><time>2026-03-28T10:27:25.581Z</time></trkpt><trkpt lat="45.5241088" lon="10.7817059"><ele>163.0</ele><time>2026-03-28T10:27:26.581Z</time></trkpt><trkpt lat="45.5242181" lon="10.7816736"><ele>163.0</ele><time>2026-03-28T10:27:27.581Z</time></trkpt><trkpt lat="45.5242994" lon="10.7816504"><ele>163.0</ele><time>2026-03-28T10:27:28.581Z</time></trkpt><trkpt lat="45.5244049" lon="10.781551"><ele>163.0</ele><time>2026-03-28T10:27:30.581Z</time></trkpt><trkpt lat="45.5244713" lon="10.7814137"><ele>163.0</ele><time>2026-03-28T10:27:31.58Z</time></trkpt><trkpt lat="45.5245352" lon="10.7812241"><ele>162.5</ele><time>2026-03-28T10:27:32.58Z</time></trkpt><trkpt lat="45.5245732" lon="10.7810304"><ele>162.0</ele><time>2026-03-28T10:27:33.58Z</time></trkpt><trkpt lat="45.5245902" lon="10.7808523"><ele>161.5</ele><time>2026-03-28T10:27:34.581Z</time></trkpt><trkpt lat="45.5245814" lon="10.7806487"><ele>161.0</ele><time>2026-03-28T10:27:35.581Z</time></trkpt><trkpt lat="45.5245514" lon="10.7803888"><ele>161.0</ele><time>2026-03-28T10:27:36.58Z</time></trkpt><trkpt lat="45.524537" lon="10.7800986"><ele>161.0</ele><time>2026-03-28T10:27:37.58Z</time></trkpt><trkpt lat="45.5245463" lon="10.7798328"><ele>161.0</ele><time>2026-03-28T10:27:38.581Z</time></trkpt><trkpt lat="45.5245645" lon="10.7795905"><ele>161.0</ele><time>2026-03-28T10:27:39.581Z</time></trkpt><trkpt lat="45.5245858" lon="10.7793628"><ele>161.0</ele><time>2026-03-28T10:27:40.581Z</time></trkpt><trkpt lat="45.5245927" lon="10.7791539"><ele>161.0</ele><time>2026-03-28T10:27:41.58Z</time></trkpt><trkpt lat="45.524578" lon="10.7789433"><ele>161.66666666666666</ele><time>2026-03-28T10:27:42.579Z</time></trkpt><trkpt lat="45.5245528" lon="10.7787223"><ele>162.33333333333334</ele><time>2026-03-28T10:27:43.579Z</time></trkpt><trkpt lat="45.5245321" lon="10.7784978"><ele>163.0</ele><time>2026-03-28T10:27:44.581Z</time></trkpt><trkpt lat="45.5245129" lon="10.7782846"><ele>163.0</ele><time>2026-03-28T10:27:45.581Z</time></trkpt><trkpt lat="45.5244918" lon="10.7780744"><ele>163.0</ele><time>2026-03-28T10:27:46.579Z</time></trkpt><trkpt lat="45.5244717" lon="10.7778948"><ele>163.0</ele><time>2026-03-28T10:27:47.58Z</time></trkpt><trkpt lat="45.5244526" lon="10.7777264"><ele>163.0</ele><time>2026-03-28T10:27:48.581Z</time></trkpt><trkpt lat="45.5244353" lon="10.7775357"><ele>161.66666666666669</ele><time>2026-03-28T10:27:49.579Z</time></trkpt><trkpt lat="45.5244176" lon="10.7773251"><ele>160.33333333333334</ele><time>2026-03-28T10:27:50.579Z</time></trkpt><trkpt lat="45.5243995" lon="10.777101"><ele>159.0</ele><time>2026-03-28T10:27:51.579Z</time></trkpt><trkpt lat="45.5243825" lon="10.7768685"><ele>158.75</ele><time>2026-03-28T10:27:52.581Z</time></trkpt><trkpt lat="45.5243644" lon="10.7766523"><ele>158.5</ele><time>2026-03-28T10:27:53.58Z</time></trkpt><trkpt lat="45.5243479" lon="10.776463"><ele>158.25</ele><time>2026-03-28T10:27:54.581Z</time></trkpt><trkpt lat="45.5243393" lon="10.7763086"><ele>158.0</ele><time>2026-03-28T10:27:55.581Z</time></trkpt><trkpt lat="45.5243476" lon="10.7762023"><ele>158.0</ele><time>2026-03-28T10:27:56.581Z</time></trkpt><trkpt lat="45.5243784" lon="10.7761239"><ele>158.0</ele><time>2026-03-28T10:27:57.58Z</time></trkpt><trkpt lat="45.5244761" lon="10.7760101"><ele>158.0</ele><time>2026-03-28T10:27:59.581Z</time></trkpt><trkpt lat="45.5245592" lon="10.7759741"><ele>158.0</ele><time>2026-03-28T10:28:00.581Z</time></trkpt><trkpt lat="45.5246511" lon="10.775942"><ele>158.0</ele><time>2026-03-28T10:28:01.58Z</time></trkpt><trkpt lat="45.5247571" lon="10.7759209"><ele>158.0</ele><time>2026-03-28T10:28:02.581Z</time></trkpt><trkpt lat="45.5248739" lon="10.7759073"><ele>158.0</ele><time>2026-03-28T10:28:03.581Z</time></trkpt><trkpt lat="45.5250001" lon="10.7759012"><ele>158.0</ele><time>2026-03-28T10:28:04.581Z</time></trkpt><trkpt lat="45.5251345" lon="10.7758949"><ele>158.0</ele><time>2026-03-28T10:28:05.581Z</time></trkpt><trkpt lat="45.5252725" lon="10.7758835"><ele>158.0</ele><time>2026-03-28T10:28:06.581Z</time></trkpt><trkpt lat="45.5254148" lon="10.7758629"><ele>158.0</ele><time>2026-03-28T10:28:07.581Z</time></trkpt><trkpt lat="45.5255491" lon="10.7758441"><ele>158.0</ele><time>2026-03-28T10:28:08.581Z</time></trkpt><trkpt lat="45.5256794" lon="10.7758212"><ele>158.0</ele><time>2026-03-28T10:28:09.58Z</time></trkpt><trkpt lat="45.5258054" lon="10.7757936"><ele>158.0</ele><time>2026-03-28T10:28:10.581Z</time></trkpt><trkpt lat="45.5259272" lon="10.7757638"><ele>158.0</ele><time>2026-03-28T10:28:11.581Z</time></trkpt><trkpt lat="45.5260465" lon="10.7757186"><ele>158.0</ele><time>2026-03-28T10:28:12.579Z</time></trkpt><trkpt lat="45.5261687" lon="10.7756583"><ele>158.0</ele><time>2026-03-28T10:28:13.58Z</time></trkpt><trkpt lat="45.5262966" lon="10.7755924"><ele>158.0</ele><time>2026-03-28T10:28:14.58Z</time></trkpt><trkpt lat="45.5264182" lon="10.7755382"><ele>158.0</ele><time>2026-03-28T10:28:15.58Z</time></trkpt><trkpt lat="45.5265345" lon="10.7754939"><ele>158.0</ele><time>2026-03-28T10:28:16.58Z</time></trkpt><trkpt lat="45.5266529" lon="10.7754687"><ele>158.0</ele><time>2026-03-28T10:28:17.58Z</time></trkpt><trkpt lat="45.526772" lon="10.775476"><ele>158.0</ele><time>2026-03-28T10:28:18.58Z</time></trkpt><trkpt lat="45.5268958" lon="10.7755165"><ele>158.0</ele><time>2026-03-28T10:28:19.581Z</time></trkpt><trkpt lat="45.5270155" lon="10.7755752"><ele>158.0</ele><time>2026-03-28T10:28:20.58Z</time></trkpt><trkpt lat="45.5271333" lon="10.7756343"><ele>158.0</ele><time>2026-03-28T10:28:21.579Z</time></trkpt><trkpt lat="45.5272531" lon="10.7756902"><ele>157.5</ele><time>2026-03-28T10:28:22.58Z</time></trkpt><trkpt lat="45.5273769" lon="10.7757473"><ele>157.0</ele><time>2026-03-28T10:28:23.58Z</time></trkpt><trkpt lat="45.5274962" lon="10.7758"><ele>156.5</ele><time>2026-03-28T10:28:24.579Z</time></trkpt><trkpt lat="45.5276034" lon="10.7758442"><ele>156.0</ele><time>2026-03-28T10:28:25.581Z</time></trkpt><trkpt lat="45.5277118" lon="10.7758902"><ele>156.0</ele><time>2026-03-28T10:28:26.581Z</time></trkpt><trkpt lat="45.5278196" lon="10.7759316"><ele>156.0</ele><time>2026-03-28T10:28:27.58Z</time></trkpt><trkpt lat="45.5279285" lon="10.7759634"><ele>156.0</ele><time>2026-03-28T10:28:28.58Z</time></trkpt><trkpt lat="45.5280403" lon="10.7759845"><ele>156.0</ele><time>2026-03-28T10:28:29.58Z</time></trkpt><trkpt lat="45.5281571" lon="10.7759934"><ele>156.6</ele><time>2026-03-28T10:28:30.58Z</time></trkpt><trkpt lat="45.528274" lon="10.7760001"><ele>157.2</ele><time>2026-03-28T10:28:31.581Z</time></trkpt><trkpt lat="45.5283791" lon="10.776003"><ele>157.8</ele><time>2026-03-28T10:28:32.58Z</time></trkpt><trkpt lat="45.5284808" lon="10.7760101"><ele>158.4</ele><time>2026-03-28T10:28:33.581Z</time></trkpt><trkpt lat="45.5285905" lon="10.7760131"><ele>159.0</ele><time>2026-03-28T10:28:34.581Z</time></trkpt><trkpt lat="45.5286933" lon="10.7760025"><ele>159.25</ele><time>2026-03-28T10:28:35.581Z</time></trkpt><trkpt lat="45.5288025" lon="10.775975"><ele>159.5</ele><time>2026-03-28T10:28:36.579Z</time></trkpt><trkpt lat="45.5289211" lon="10.7759323"><ele>159.75</ele><time>2026-03-28T10:28:37.58Z</time></trkpt><trkpt lat="45.5290451" lon="10.7758665"><ele>160.0</ele><time>2026-03-28T10:28:38.579Z</time></trkpt><trkpt lat="45.5291712" lon="10.7757735"><ele>160.0</ele><time>2026-03-28T10:28:39.58Z</time></trkpt><trkpt lat="45.5292992" lon="10.7756622"><ele>160.0</ele><time>2026-03-28T10:28:40.58Z</time></trkpt><trkpt lat="45.5294245" lon="10.7755339"><ele>160.0</ele><time>2026-03-28T10:28:41.58Z</time></trkpt><trkpt lat="45.5295422" lon="10.7754174"><ele>160.0</ele><time>2026-03-28T10:28:42.58Z</time></trkpt><trkpt lat="45.5296345" lon="10.7753364"><ele>160.2</ele><time>2026-03-28T10:28:43.581Z</time></trkpt><trkpt lat="45.5297213" lon="10.7752794"><ele>160.4</ele><time>2026-03-28T10:28:44.581Z</time></trkpt><trkpt lat="45.5298087" lon="10.7752507"><ele>160.60000000000002</ele><time>2026-03-28T10:28:45.58Z</time></trkpt><trkpt lat="45.5299002" lon="10.7752662"><ele>160.8</ele><time>2026-03-28T10:28:46.581Z</time></trkpt><trkpt lat="45.5299999" lon="10.7753159"><ele>161.0</ele><time>2026-03-28T10:28:47.581Z</time></trkpt><trkpt lat="45.5301121" lon="10.7753802"><ele>161.0</ele><time>2026-03-28T10:28:48.58Z</time></trkpt><trkpt lat="45.5302436" lon="10.7754503"><ele>161.0</ele><time>2026-03-28T10:28:49.58Z</time></trkpt><trkpt lat="45.5303619" lon="10.7755203"><ele>161.0</ele><time>2026-03-28T10:28:50.58Z</time></trkpt><trkpt lat="45.5304667" lon="10.7755926"><ele>161.0</ele><time>2026-03-28T10:28:51.58Z</time></trkpt><trkpt lat="45.5305529" lon="10.7756818"><ele>161.0</ele><time>2026-03-28T10:28:52.58Z</time></trkpt><trkpt lat="45.530624" lon="10.7757987"><ele>161.0</ele><time>2026-03-28T10:28:53.58Z</time></trkpt><trkpt lat="45.5306787" lon="10.7759469"><ele>161.0</ele><time>2026-03-28T10:28:54.579Z</time></trkpt><trkpt lat="45.5307117" lon="10.7761043"><ele>161.0</ele><time>2026-03-28T10:28:55.581Z</time></trkpt><trkpt lat="45.5307453" lon="10.7762514"><ele>161.0</ele><time>2026-03-28T10:28:56.579Z</time></trkpt><trkpt lat="45.5308021" lon="10.7763801"><ele>161.20000000000002</ele><time>2026-03-28T10:28:57.58Z</time></trkpt><trkpt lat="45.5308715" lon="10.7764958"><ele>161.4</ele><time>2026-03-28T10:28:58.58Z</time></trkpt><trkpt lat="45.5309503" lon="10.77658"><ele>161.6</ele><time>2026-03-28T10:28:59.581Z</time></trkpt><trkpt lat="45.5310435" lon="10.77665"><ele>161.8</ele><time>2026-03-28T10:29:00.581Z</time></trkpt><trkpt lat="45.5311437" lon="10.7767003"><ele>162.0</ele><time>2026-03-28T10:29:01.581Z</time></trkpt><trkpt lat="45.5312607" lon="10.7767391"><ele>162.0</ele><time>2026-03-28T10:29:02.58Z</time></trkpt><trkpt lat="45.531365" lon="10.7767832"><ele>162.0</ele><time>2026-03-28T10:29:03.58Z</time></trkpt><trkpt lat="45.5314484" lon="10.7768301"><ele>162.0</ele><time>2026-03-28T10:29:04.579Z</time></trkpt><trkpt lat="45.531522" lon="10.7768949"><ele>162.0</ele><time>2026-03-28T10:29:05.58Z</time></trkpt><trkpt lat="45.5315927" lon="10.7769708"><ele>162.0</ele><time>2026-03-28T10:29:06.58Z</time></trkpt><trkpt lat="45.5315923" lon="10.7771384"><ele>162.39999999999998</ele><time>2026-03-28T10:29:08.58Z</time></trkpt><trkpt lat="45.5316317" lon="10.7772232"><ele>162.79999999999998</ele><time>2026-03-28T10:29:11.581Z</time></trkpt><trkpt lat="45.5317139" lon="10.7772693"><ele>163.2</ele><time>2026-03-28T10:29:19.581Z</time></trkpt><trkpt lat="45.5317985" lon="10.7772125"><ele>163.6</ele><time>2026-03-28T10:29:20.581Z</time></trkpt><trkpt lat="45.5319201" lon="10.7770954"><ele>164.0</ele><time>2026-03-28T10:29:21.581Z</time></trkpt><trkpt lat="45.5320629" lon="10.7769442"><ele>164.33333333333331</ele><time>2026-03-28T10:29:22.581Z</time></trkpt><trkpt lat="45.532193" lon="10.7768033"><ele>164.66666666666666</ele><time>2026-03-28T10:29:23.58Z</time></trkpt><trkpt lat="45.5323196" lon="10.7766769"><ele>165.0</ele><time>2026-03-28T10:29:24.579Z</time></trkpt><trkpt lat="45.5324328" lon="10.776562"><ele>165.0</ele><time>2026-03-28T10:29:25.58Z</time></trkpt><trkpt lat="45.5325408" lon="10.7764538"><ele>165.0</ele><time>2026-03-28T10:29:26.581Z</time></trkpt><trkpt lat="45.532647" lon="10.7763531"><ele>165.0</ele><time>2026-03-28T10:29:27.58Z</time></trkpt><trkpt lat="45.5327578" lon="10.7762594"><ele>165.0</ele><time>2026-03-28T10:29:28.581Z</time></trkpt><trkpt lat="45.532857" lon="10.7761789"><ele>165.25</ele><time>2026-03-28T10:29:29.58Z</time></trkpt><trkpt lat="45.5329544" lon="10.7760872"><ele>165.5</ele><time>2026-03-28T10:29:30.581Z</time></trkpt><trkpt lat="45.5330557" lon="10.7759956"><ele>165.75</ele><time>2026-03-28T10:29:31.581Z</time></trkpt><trkpt lat="45.533181" lon="10.7759118"><ele>166.0</ele><time>2026-03-28T10:29:32.58Z</time></trkpt><trkpt lat="45.5333271" lon="10.7758483"><ele>166.0</ele><time>2026-03-28T10:29:33.58Z</time></trkpt><trkpt lat="45.5335026" lon="10.7758205"><ele>166.0</ele><time>2026-03-28T10:29:34.581Z</time></trkpt><trkpt lat="45.5336944" lon="10.7758493"><ele>166.0</ele><time>2026-03-28T10:29:35.581Z</time></trkpt><trkpt lat="45.533908" lon="10.7759189"><ele>166.0</ele><time>2026-03-28T10:29:36.581Z</time></trkpt><trkpt lat="45.5341226" lon="10.7759977"><ele>166.0</ele><time>2026-03-28T10:29:37.581Z</time></trkpt><trkpt lat="45.5343085" lon="10.7760642"><ele>166.0</ele><time>2026-03-28T10:29:38.58Z</time></trkpt><trkpt lat="45.5344833" lon="10.7761287"><ele>167.0</ele><time>2026-03-28T10:29:39.58Z</time></trkpt><trkpt lat="45.5346414" lon="10.776183"><ele>168.0</ele><time>2026-03-28T10:29:40.581Z</time></trkpt><trkpt lat="45.5347858" lon="10.7762229"><ele>169.0</ele><time>2026-03-28T10:29:41.58Z</time></trkpt><trkpt lat="45.5349225" lon="10.7762456"><ele>170.0</ele><time>2026-03-28T10:29:42.581Z</time></trkpt><trkpt lat="45.5350557" lon="10.7762428"><ele>170.0</ele><time>2026-03-28T10:29:43.58Z</time></trkpt><trkpt lat="45.5351952" lon="10.7762233"><ele>170.0</ele><time>2026-03-28T10:29:44.58Z</time></trkpt><trkpt lat="45.5353355" lon="10.7761866"><ele>170.0</ele><time>2026-03-28T10:29:45.58Z</time></trkpt><trkpt lat="45.5354722" lon="10.7761127"><ele>170.0</ele><time>2026-03-28T10:29:46.579Z</time></trkpt><trkpt lat="45.5356013" lon="10.7760384"><ele>170.0</ele><time>2026-03-28T10:29:47.581Z</time></trkpt><trkpt lat="45.535729" lon="10.7759677"><ele>170.0</ele><time>2026-03-28T10:29:48.581Z</time></trkpt><trkpt lat="45.5358561" lon="10.7758917"><ele>170.0</ele><time>2026-03-28T10:29:49.581Z</time></trkpt><trkpt lat="45.5359831" lon="10.7758149"><ele>170.0</ele><time>2026-03-28T10:29:50.581Z</time></trkpt><trkpt lat="45.5361077" lon="10.7757386"><ele>170.25</ele><time>2026-03-28T10:29:51.579Z</time></trkpt><trkpt lat="45.5362326" lon="10.7756666"><ele>170.5</ele><time>2026-03-28T10:29:52.581Z</time></trkpt><trkpt lat="45.5363469" lon="10.775605"><ele>170.75</ele><time>2026-03-28T10:29:53.581Z</time></trkpt><trkpt lat="45.5364515" lon="10.7755441"><ele>171.0</ele><time>2026-03-28T10:29:54.581Z</time></trkpt><trkpt lat="45.5365558" lon="10.7754861"><ele>171.0</ele><time>2026-03-28T10:29:55.581Z</time></trkpt><trkpt lat="45.536658" lon="10.7754273"><ele>171.0</ele><time>2026-03-28T10:29:56.58Z</time></trkpt><trkpt lat="45.5367557" lon="10.7753724"><ele>171.0</ele><time>2026-03-28T10:29:57.58Z</time></trkpt><trkpt lat="45.5368438" lon="10.7753188"><ele>171.0</ele><time>2026-03-28T10:29:58.579Z</time></trkpt><trkpt lat="45.536922" lon="10.7752664"><ele>171.0</ele><time>2026-03-28T10:29:59.581Z</time></trkpt><trkpt lat="45.5370036" lon="10.7752162"><ele>171.60000000000002</ele><time>2026-03-28T10:30:00.581Z</time></trkpt><trkpt lat="45.5370846" lon="10.775172"><ele>172.2</ele><time>2026-03-28T10:30:01.581Z</time></trkpt><trkpt lat="45.5371639" lon="10.7751328"><ele>172.8</ele><time>2026-03-28T10:30:02.58Z</time></trkpt><trkpt lat="45.5372323" lon="10.7750984"><ele>173.39999999999998</ele><time>2026-03-28T10:30:03.581Z</time></trkpt><trkpt lat="45.5373454" lon="10.7750555"><ele>174.0</ele><time>2026-03-28T10:30:05.581Z</time></trkpt><trkpt lat="45.5374325" lon="10.7750261"><ele>174.0</ele><time>2026-03-28T10:30:07.581Z</time></trkpt><trkpt lat="45.537515" lon="10.7751172"><ele>174.0</ele><time>2026-03-28T10:30:09.581Z</time></trkpt><trkpt lat="45.5375337" lon="10.7752369"><ele>174.0</ele><time>2026-03-28T10:30:10.581Z</time></trkpt><trkpt lat="45.5375466" lon="10.7753866"><ele>174.0</ele><time>2026-03-28T10:30:11.58Z</time></trkpt><trkpt lat="45.5375602" lon="10.7755624"><ele>174.0</ele><time>2026-03-28T10:30:12.581Z</time></trkpt><trkpt lat="45.5375698" lon="10.7757526"><ele>174.25</ele><time>2026-03-28T10:30:13.58Z</time></trkpt><trkpt lat="45.5375822" lon="10.7759551"><ele>174.5</ele><time>2026-03-28T10:30:14.58Z</time></trkpt><trkpt lat="45.5375945" lon="10.776155"><ele>174.75</ele><time>2026-03-28T10:30:15.58Z</time></trkpt><trkpt lat="45.5376016" lon="10.7763649"><ele>175.0</ele><time>2026-03-28T10:30:16.58Z</time></trkpt><trkpt lat="45.5376096" lon="10.7765785"><ele>175.25</ele><time>2026-03-28T10:30:17.58Z</time></trkpt><trkpt lat="45.5376231" lon="10.7767906"><ele>175.5</ele><time>2026-03-28T10:30:18.58Z</time></trkpt><trkpt lat="45.537634" lon="10.7769911"><ele>175.75</ele><time>2026-03-28T10:30:19.581Z</time></trkpt><trkpt lat="45.5376387" lon="10.7771782"><ele>176.0</ele><time>2026-03-28T10:30:20.579Z</time></trkpt><trkpt lat="45.5376448" lon="10.7773544"><ele>176.0</ele><time>2026-03-28T10:30:21.58Z</time></trkpt><trkpt lat="45.5376498" lon="10.7775344"><ele>176.0</ele><time>2026-03-28T10:30:22.581Z</time></trkpt><trkpt lat="45.5376609" lon="10.777725"><ele>176.0</ele><time>2026-03-28T10:30:23.581Z</time></trkpt><trkpt lat="45.5376742" lon="10.7779145"><ele>176.0</ele><time>2026-03-28T10:30:24.581Z</time></trkpt><trkpt lat="45.537689" lon="10.7781209"><ele>175.66666666666666</ele><time>2026-03-28T10:30:25.58Z</time></trkpt><trkpt lat="45.5377045" lon="10.7783498"><ele>175.33333333333334</ele><time>2026-03-28T10:30:26.581Z</time></trkpt><trkpt lat="45.5377215" lon="10.7785951"><ele>175.0</ele><time>2026-03-28T10:30:27.58Z</time></trkpt><trkpt lat="45.5377326" lon="10.7788504"><ele>174.33333333333334</ele><time>2026-03-28T10:30:28.581Z</time></trkpt><trkpt lat="45.5377416" lon="10.7790917"><ele>173.66666666666666</ele><time>2026-03-28T10:30:29.58Z</time></trkpt><trkpt lat="45.5377542" lon="10.7793174"><ele>173.0</ele><time>2026-03-28T10:30:30.58Z</time></trkpt><trkpt lat="45.5377694" lon="10.7795275"><ele>173.0</ele><time>2026-03-28T10:30:31.579Z</time></trkpt><trkpt lat="45.5377836" lon="10.7797352"><ele>173.0</ele><time>2026-03-28T10:30:32.581Z</time></trkpt><trkpt lat="45.5377958" lon="10.7799192"><ele>173.0</ele><time>2026-03-28T10:30:33.581Z</time></trkpt><trkpt lat="45.5377755" lon="10.7800829"><ele>173.0</ele><time>2026-03-28T10:30:35.579Z</time></trkpt><trkpt lat="45.537735" lon="10.780152"><ele>173.0</ele><time>2026-03-28T10:30:36.58Z</time></trkpt><trkpt lat="45.5376335" lon="10.7801229"><ele>173.0</ele><time>2026-03-28T10:30:37.581Z</time></trkpt><trkpt lat="45.5375305" lon="10.7801304"><ele>173.0</ele><time>2026-03-28T10:30:38.581Z</time></trkpt><trkpt lat="45.5373895" lon="10.7801417"><ele>173.0</ele><time>2026-03-28T10:30:39.581Z</time></trkpt><trkpt lat="45.5372372" lon="10.7801663"><ele>172.0</ele><time>2026-03-28T10:30:40.58Z</time></trkpt><trkpt lat="45.5370659" lon="10.7802008"><ele>171.0</ele><time>2026-03-28T10:30:41.581Z</time></trkpt><trkpt lat="45.5368772" lon="10.7802266"><ele>170.0</ele><time>2026-03-28T10:30:42.581Z</time></trkpt><trkpt lat="45.5366676" lon="10.7802556"><ele>170.0</ele><time>2026-03-28T10:30:43.58Z</time></trkpt><trkpt lat="45.5364478" lon="10.7802893"><ele>170.0</ele><time>2026-03-28T10:30:44.579Z</time></trkpt><trkpt lat="45.5362179" lon="10.7803275"><ele>166.5</ele><time>2026-03-28T10:30:45.58Z</time></trkpt><trkpt lat="45.5359814" lon="10.7803652"><ele>163.0</ele><time>2026-03-28T10:30:46.58Z</time></trkpt><trkpt lat="45.5357421" lon="10.7804061"><ele>163.0</ele><time>2026-03-28T10:30:47.581Z</time></trkpt><trkpt lat="45.5355007" lon="10.7804485"><ele>163.0</ele><time>2026-03-28T10:30:48.581Z</time></trkpt><trkpt lat="45.5352543" lon="10.7804887"><ele>163.5</ele><time>2026-03-28T10:30:49.581Z</time></trkpt><trkpt lat="45.5350115" lon="10.7805298"><ele>164.0</ele><time>2026-03-28T10:30:50.581Z</time></trkpt><trkpt lat="45.5347843" lon="10.7805625"><ele>164.0</ele><time>2026-03-28T10:30:51.58Z</time></trkpt><trkpt lat="45.5345669" lon="10.7805887"><ele>164.0</ele><time>2026-03-28T10:30:52.58Z</time></trkpt><trkpt lat="45.534363" lon="10.7806121"><ele>164.0</ele><time>2026-03-28T10:30:53.58Z</time></trkpt><trkpt lat="45.5341708" lon="10.780634"><ele>164.0</ele><time>2026-03-28T10:30:54.58Z</time></trkpt><trkpt lat="45.5339912" lon="10.7806549"><ele>164.0</ele><time>2026-03-28T10:30:55.58Z</time></trkpt><trkpt lat="45.5338282" lon="10.780672"><ele>164.0</ele><time>2026-03-28T10:30:56.58Z</time></trkpt><trkpt lat="45.5337005" lon="10.780684"><ele>164.0</ele><time>2026-03-28T10:30:57.58Z</time></trkpt><trkpt lat="45.5335765" lon="10.7806939"><ele>164.0</ele><time>2026-03-28T10:30:58.58Z</time></trkpt><trkpt lat="45.5334582" lon="10.7807034"><ele>164.0</ele><time>2026-03-28T10:30:59.58Z</time></trkpt><trkpt lat="45.5333389" lon="10.780719"><ele>164.0</ele><time>2026-03-28T10:31:00.58Z</time></trkpt><trkpt lat="45.5332099" lon="10.7807351"><ele>164.0</ele><time>2026-03-28T10:31:01.58Z</time></trkpt><trkpt lat="45.5330736" lon="10.7807513"><ele>164.0</ele><time>2026-03-28T10:31:02.581Z</time></trkpt><trkpt lat="45.5329347" lon="10.7807719"><ele>164.0</ele><time>2026-03-28T10:31:03.58Z</time></trkpt><trkpt lat="45.5327851" lon="10.7807908"><ele>164.0</ele><time>2026-03-28T10:31:04.58Z</time></trkpt><trkpt lat="45.5326309" lon="10.7808096"><ele>164.5</ele><time>2026-03-28T10:31:05.58Z</time></trkpt><trkpt lat="45.5324852" lon="10.7808273"><ele>165.0</ele><time>2026-03-28T10:31:06.58Z</time></trkpt><trkpt lat="45.5323548" lon="10.7808492"><ele>165.5</ele><time>2026-03-28T10:31:07.58Z</time></trkpt><trkpt lat="45.5322384" lon="10.7808817"><ele>166.0</ele><time>2026-03-28T10:31:08.58Z</time></trkpt><trkpt lat="45.53213" lon="10.7809012"><ele>165.60000000000002</ele><time>2026-03-28T10:31:09.58Z</time></trkpt><trkpt lat="45.5320443" lon="10.7809086"><ele>165.2</ele><time>2026-03-28T10:31:10.581Z</time></trkpt><trkpt lat="45.5319488" lon="10.7809795"><ele>164.8</ele><time>2026-03-28T10:31:12.581Z</time></trkpt><trkpt lat="45.5319763" lon="10.7811517"><ele>164.39999999999998</ele><time>2026-03-28T10:31:14.58Z</time></trkpt><trkpt lat="45.5320255" lon="10.7812847"><ele>164.0</ele><time>2026-03-28T10:31:15.58Z</time></trkpt><trkpt lat="45.5320747" lon="10.7814489"><ele>164.0</ele><time>2026-03-28T10:31:16.581Z</time></trkpt><trkpt lat="45.5321377" lon="10.7816264"><ele>164.0</ele><time>2026-03-28T10:31:17.58Z</time></trkpt><trkpt lat="45.5321947" lon="10.7817953"><ele>164.0</ele><time>2026-03-28T10:31:18.579Z</time></trkpt><trkpt lat="45.532247" lon="10.7819568"><ele>164.0</ele><time>2026-03-28T10:31:19.581Z</time></trkpt><trkpt lat="45.5322925" lon="10.7821111"><ele>163.75</ele><time>2026-03-28T10:31:20.581Z</time></trkpt><trkpt lat="45.5323309" lon="10.7822789"><ele>163.5</ele><time>2026-03-28T10:31:21.581Z</time></trkpt><trkpt lat="45.5323674" lon="10.7824363"><ele>163.25</ele><time>2026-03-28T10:31:22.58Z</time></trkpt><trkpt lat="45.5324062" lon="10.7825965"><ele>163.0</ele><time>2026-03-28T10:31:23.58Z</time></trkpt><trkpt lat="45.53245" lon="10.7827627"><ele>163.0</ele><time>2026-03-28T10:31:24.581Z</time></trkpt><trkpt lat="45.5324944" lon="10.7829321"><ele>163.0</ele><time>2026-03-28T10:31:25.58Z</time></trkpt><trkpt lat="45.5325335" lon="10.7830976"><ele>163.0</ele><time>2026-03-28T10:31:26.58Z</time></trkpt><trkpt lat="45.5325647" lon="10.7832632"><ele>163.0</ele><time>2026-03-28T10:31:27.58Z</time></trkpt><trkpt lat="45.5325832" lon="10.7834151"><ele>163.4</ele><time>2026-03-28T10:31:28.58Z</time></trkpt><trkpt lat="45.5325753" lon="10.7835507"><ele>163.8</ele><time>2026-03-28T10:31:29.579Z</time></trkpt><trkpt lat="45.5325475" lon="10.7836743"><ele>164.2</ele><time>2026-03-28T10:31:30.58Z</time></trkpt><trkpt lat="45.532507" lon="10.783799"><ele>164.6</ele><time>2026-03-28T10:31:31.58Z</time></trkpt><trkpt lat="45.5324667" lon="10.7839192"><ele>165.0</ele><time>2026-03-28T10:31:32.58Z</time></trkpt><trkpt lat="45.5324208" lon="10.784047"><ele>165.0</ele><time>2026-03-28T10:31:33.581Z</time></trkpt><trkpt lat="45.5323727" lon="10.7841851"><ele>165.0</ele><time>2026-03-28T10:31:34.581Z</time></trkpt><trkpt lat="45.53233" lon="10.7843117"><ele>165.0</ele><time>2026-03-28T10:31:35.581Z</time></trkpt><trkpt lat="45.5322941" lon="10.784429"><ele>165.0</ele><time>2026-03-28T10:31:36.581Z</time></trkpt><trkpt lat="45.5322636" lon="10.7845509"><ele>165.0</ele><time>2026-03-28T10:31:37.581Z</time></trkpt><trkpt lat="45.5322375" lon="10.7846694"><ele>165.33333333333334</ele><time>2026-03-28T10:31:38.579Z</time></trkpt><trkpt lat="45.5322311" lon="10.7847914"><ele>165.66666666666666</ele><time>2026-03-28T10:31:39.58Z</time></trkpt><trkpt lat="45.5322471" lon="10.7849195"><ele>166.0</ele><time>2026-03-28T10:31:40.579Z</time></trkpt><trkpt lat="45.5322747" lon="10.7850392"><ele>166.33333333333331</ele><time>2026-03-28T10:31:41.58Z</time></trkpt><trkpt lat="45.5322835" lon="10.7851546"><ele>166.66666666666666</ele><time>2026-03-28T10:31:42.579Z</time></trkpt><trkpt lat="45.5322617" lon="10.7852724"><ele>167.0</ele><time>2026-03-28T10:31:43.58Z</time></trkpt><trkpt lat="45.5322167" lon="10.7853976"><ele>167.16666666666666</ele><time>2026-03-28T10:31:44.58Z</time></trkpt><trkpt lat="45.5321591" lon="10.7855107"><ele>167.33333333333331</ele><time>2026-03-28T10:31:45.581Z</time></trkpt><trkpt lat="45.532102" lon="10.7856069"><ele>167.5</ele><time>2026-03-28T10:31:46.581Z</time></trkpt><trkpt lat="45.5320513" lon="10.785709"><ele>167.66666666666666</ele><time>2026-03-28T10:31:47.581Z</time></trkpt><trkpt lat="45.5319893" lon="10.7857934"><ele>167.83333333333334</ele><time>2026-03-28T10:31:48.581Z</time></trkpt><trkpt lat="45.5319253" lon="10.7858779"><ele>168.0</ele><time>2026-03-28T10:31:49.581Z</time></trkpt><trkpt lat="45.531857" lon="10.78597"><ele>168.4</ele><time>2026-03-28T10:31:50.581Z</time></trkpt><trkpt lat="45.5317805" lon="10.7860739"><ele>168.8</ele><time>2026-03-28T10:31:51.58Z</time></trkpt><trkpt lat="45.5317018" lon="10.7861821"><ele>169.2</ele><time>2026-03-28T10:31:52.581Z</time></trkpt><trkpt lat="45.5316378" lon="10.7862858"><ele>169.6</ele><time>2026-03-28T10:31:53.581Z</time></trkpt><trkpt lat="45.5315755" lon="10.7863905"><ele>170.0</ele><time>2026-03-28T10:31:54.581Z</time></trkpt><trkpt lat="45.531513" lon="10.7865032"><ele>170.0</ele><time>2026-03-28T10:31:55.58Z</time></trkpt><trkpt lat="45.5314487" lon="10.7866177"><ele>170.0</ele><time>2026-03-28T10:31:56.581Z</time></trkpt><trkpt lat="45.5313827" lon="10.7867348"><ele>170.0</ele><time>2026-03-28T10:31:57.581Z</time></trkpt><trkpt lat="45.5313199" lon="10.7868498"><ele>170.0</ele><time>2026-03-28T10:31:58.579Z</time></trkpt><trkpt lat="45.5312594" lon="10.7869574"><ele>170.0</ele><time>2026-03-28T10:31:59.579Z</time></trkpt><trkpt lat="45.5312009" lon="10.7870576"><ele>170.16666666666666</ele><time>2026-03-28T10:32:00.58Z</time></trkpt><trkpt lat="45.5311593" lon="10.7871484"><ele>170.33333333333331</ele><time>2026-03-28T10:32:01.58Z</time></trkpt><trkpt lat="45.5311313" lon="10.7873141"><ele>170.5</ele><time>2026-03-28T10:32:03.581Z</time></trkpt><trkpt lat="45.5311349" lon="10.7874086"><ele>170.66666666666666</ele><time>2026-03-28T10:32:04.581Z</time></trkpt><trkpt lat="45.5311457" lon="10.7875087"><ele>170.83333333333334</ele><time>2026-03-28T10:32:05.58Z</time></trkpt><trkpt lat="45.531161" lon="10.787612"><ele>171.0</ele><time>2026-03-28T10:32:06.581Z</time></trkpt><trkpt lat="45.5311825" lon="10.7877227"><ele>172.0</ele><time>2026-03-28T10:32:07.579Z</time></trkpt><trkpt lat="45.531209" lon="10.7878262"><ele>173.0</ele><time>2026-03-28T10:32:08.579Z</time></trkpt><trkpt lat="45.531241" lon="10.7879326"><ele>174.0</ele><time>2026-03-28T10:32:09.58Z</time></trkpt><trkpt lat="45.5312915" lon="10.7880343"><ele>175.0</ele><time>2026-03-28T10:32:10.58Z</time></trkpt><trkpt lat="45.5313397" lon="10.7881377"><ele>176.0</ele><time>2026-03-28T10:32:11.581Z</time></trkpt><trkpt lat="45.5313776" lon="10.7882211"><ele>177.0</ele><time>2026-03-28T10:32:12.58Z</time></trkpt><trkpt lat="45.531436" lon="10.7883658"><ele>177.2</ele><time>2026-03-28T10:32:14.58Z</time></trkpt><trkpt lat="45.531479" lon="10.7884994"><ele>177.39999999999998</ele><time>2026-03-28T10:32:16.579Z</time></trkpt><trkpt lat="45.531549" lon="10.788582"><ele>177.60000000000002</ele><time>2026-03-28T10:32:19.58Z</time></trkpt><trkpt lat="45.5316221" lon="10.7885623"><ele>177.8</ele><time>2026-03-28T10:32:20.58Z</time></trkpt><trkpt lat="45.5317226" lon="10.7884825"><ele>178.0</ele><time>2026-03-28T10:32:21.581Z</time></trkpt><trkpt lat="45.5318391" lon="10.7883878"><ele>178.0</ele><time>2026-03-28T10:32:22.581Z</time></trkpt><trkpt lat="45.5319525" lon="10.7883014"><ele>178.0</ele><time>2026-03-28T10:32:23.581Z</time></trkpt><trkpt lat="45.5320729" lon="10.7882095"><ele>178.0</ele><time>2026-03-28T10:32:24.58Z</time></trkpt><trkpt lat="45.5321953" lon="10.7881209"><ele>178.0</ele><time>2026-03-28T10:32:25.579Z</time></trkpt><trkpt lat="45.5323093" lon="10.7880434"><ele>178.4</ele><time>2026-03-28T10:32:26.58Z</time></trkpt><trkpt lat="45.5324125" lon="10.7879775"><ele>178.8</ele><time>2026-03-28T10:32:27.579Z</time></trkpt><trkpt lat="45.5325082" lon="10.787921"><ele>179.2</ele><time>2026-03-28T10:32:28.58Z</time></trkpt><trkpt lat="45.5325941" lon="10.7878689"><ele>179.6</ele><time>2026-03-28T10:32:29.58Z</time></trkpt><trkpt lat="45.5326748" lon="10.7878189"><ele>180.0</ele><time>2026-03-28T10:32:30.579Z</time></trkpt><trkpt lat="45.5327483" lon="10.7877745"><ele>180.0</ele><time>2026-03-28T10:32:31.58Z</time></trkpt><trkpt lat="45.5328645" lon="10.7877732"><ele>180.0</ele><time>2026-03-28T10:32:33.58Z</time></trkpt><trkpt lat="45.5329106" lon="10.787838"><ele>180.0</ele><time>2026-03-28T10:32:34.58Z</time></trkpt><trkpt lat="45.5329545" lon="10.7879408"><ele>180.0</ele><time>2026-03-28T10:32:35.58Z</time></trkpt><trkpt lat="45.5330177" lon="10.7880628"><ele>180.0</ele><time>2026-03-28T10:32:36.58Z</time></trkpt><trkpt lat="45.5330888" lon="10.7882007"><ele>180.2</ele><time>2026-03-28T10:32:37.58Z</time></trkpt><trkpt lat="45.5331566" lon="10.7883416"><ele>180.4</ele><time>2026-03-28T10:32:38.581Z</time></trkpt><trkpt lat="45.5332171" lon="10.788473"><ele>180.60000000000002</ele><time>2026-03-28T10:32:39.581Z</time></trkpt><trkpt lat="45.5332788" lon="10.7885919"><ele>180.8</ele><time>2026-03-28T10:32:40.581Z</time></trkpt><trkpt lat="45.5333363" lon="10.7886997"><ele>181.0</ele><time>2026-03-28T10:32:41.581Z</time></trkpt><trkpt lat="45.5333855" lon="10.7888012"><ele>181.33333333333334</ele><time>2026-03-28T10:32:42.58Z</time></trkpt><trkpt lat="45.5334239" lon="10.7888976"><ele>181.66666666666669</ele><time>2026-03-28T10:32:43.58Z</time></trkpt><trkpt lat="45.5334617" lon="10.7889938"><ele>182.0</ele><time>2026-03-28T10:32:44.579Z</time></trkpt><trkpt lat="45.5335035" lon="10.7890897"><ele>182.33333333333334</ele><time>2026-03-28T10:32:45.581Z</time></trkpt><trkpt lat="45.5335518" lon="10.7891912"><ele>182.66666666666666</ele><time>2026-03-28T10:32:46.581Z</time></trkpt><trkpt lat="45.533613" lon="10.7893225"><ele>183.0</ele><time>2026-03-28T10:32:47.58Z</time></trkpt><trkpt lat="45.5336973" lon="10.7894535"><ele>187.5</ele><time>2026-03-28T10:32:48.581Z</time></trkpt><trkpt lat="45.5337649" lon="10.7895703"><ele>192.0</ele><time>2026-03-28T10:32:49.581Z</time></trkpt><trkpt lat="45.5338356" lon="10.7896959"><ele>196.5</ele><time>2026-03-28T10:32:50.581Z</time></trkpt><trkpt lat="45.5339413" lon="10.7898069"><ele>201.0</ele><time>2026-03-28T10:32:51.58Z</time></trkpt><trkpt lat="45.5340315" lon="10.7898906"><ele>201.0</ele><time>2026-03-28T10:32:52.581Z</time></trkpt><trkpt lat="45.534097" lon="10.7899629"><ele>201.0</ele><time>2026-03-28T10:32:53.58Z</time></trkpt><trkpt lat="45.5341563" lon="10.7900248"><ele>201.0</ele><time>2026-03-28T10:32:54.579Z</time></trkpt><trkpt lat="45.5342135" lon="10.7900739"><ele>201.0</ele><time>2026-03-28T10:32:55.581Z</time></trkpt><trkpt lat="45.5343142" lon="10.7901862"><ele>201.0</ele><time>2026-03-28T10:32:57.58Z</time></trkpt><trkpt lat="45.5343677" lon="10.7902351"><ele>201.0</ele><time>2026-03-28T10:32:58.581Z</time></trkpt><trkpt lat="45.5344331" lon="10.7902804"><ele>201.66666666666666</ele><time>2026-03-28T10:32:59.581Z</time></trkpt><trkpt lat="45.5345124" lon="10.7903073"><ele>202.33333333333331</ele><time>2026-03-28T10:33:00.581Z</time></trkpt><trkpt lat="45.5345806" lon="10.7903422"><ele>203.0</ele><time>2026-03-28T10:33:01.58Z</time></trkpt><trkpt lat="45.5346395" lon="10.7903959"><ele>203.66666666666666</ele><time>2026-03-28T10:33:02.58Z</time></trkpt><trkpt lat="45.5346932" lon="10.7904931"><ele>204.33333333333331</ele><time>2026-03-28T10:33:03.581Z</time></trkpt><trkpt lat="45.5347347" lon="10.7905794"><ele>205.0</ele><time>2026-03-28T10:33:04.581Z</time></trkpt><trkpt lat="45.5347836" lon="10.7906518"><ele>204.99999999999997</ele><time>2026-03-28T10:33:05.581Z</time></trkpt><trkpt lat="45.5348232" lon="10.7907221"><ele>205.0</ele><time>2026-03-28T10:33:06.581Z</time></trkpt><trkpt lat="45.5348811" lon="10.7908193"><ele>205.0</ele><time>2026-03-28T10:33:08.58Z</time></trkpt><trkpt lat="45.5349262" lon="10.7909119"><ele>205.0</ele><time>2026-03-28T10:33:11.581Z</time></trkpt><trkpt lat="45.5350094" lon="10.7909957"><ele>204.99999999999997</ele><time>2026-03-28T10:33:14.58Z</time></trkpt><trkpt lat="45.5350545" lon="10.7910737"><ele>205.0</ele><time>2026-03-28T10:33:15.581Z</time></trkpt><trkpt lat="45.5351507" lon="10.7911728"><ele>204.99999999999997</ele><time>2026-03-28T10:33:17.58Z</time></trkpt><trkpt lat="45.535205" lon="10.7912482"><ele>205.0</ele><time>2026-03-28T10:33:19.58Z</time></trkpt><trkpt lat="45.5352561" lon="10.7913097"><ele>205.0</ele><time>2026-03-28T10:33:21.58Z</time></trkpt><trkpt lat="45.5353111" lon="10.791214"><ele>205.0</ele><time>2026-03-28T10:33:26.581Z</time></trkpt><trkpt lat="45.5353839" lon="10.7911678"><ele>204.99999999999997</ele><time>2026-03-28T10:33:28.58Z</time></trkpt><trkpt lat="45.5354678" lon="10.7911029"><ele>205.0</ele><time>2026-03-28T10:33:30.58Z</time></trkpt><trkpt lat="45.5355233" lon="10.7910582"><ele>203.2</ele><time>2026-03-28T10:33:31.58Z</time></trkpt><trkpt lat="45.5356001" lon="10.7910763"><ele>201.4</ele><time>2026-03-28T10:33:32.58Z</time></trkpt><trkpt lat="45.5357208" lon="10.7911106"><ele>199.60000000000002</ele><time>2026-03-28T10:33:34.581Z</time></trkpt><trkpt lat="45.5357894" lon="10.7911803"><ele>197.8</ele><time>2026-03-28T10:33:35.581Z</time></trkpt><trkpt lat="45.535873" lon="10.791313"><ele>196.0</ele><time>2026-03-28T10:33:37.58Z</time></trkpt><trkpt lat="45.5359388" lon="10.7914443"><ele>196.0</ele><time>2026-03-28T10:33:39.581Z</time></trkpt><trkpt lat="45.5359947" lon="10.791537"><ele>196.0</ele><time>2026-03-28T10:33:41.58Z</time></trkpt><trkpt lat="45.536072" lon="10.7916107"><ele>196.0</ele><time>2026-03-28T10:33:43.58Z</time></trkpt><trkpt lat="45.5361559" lon="10.79162"><ele>196.0</ele><time>2026-03-28T10:33:45.581Z</time></trkpt><trkpt lat="45.5362265" lon="10.7915283"><ele>196.0</ele><time>2026-03-28T10:33:47.58Z</time></trkpt><trkpt lat="45.5362809" lon="10.7914079"><ele>193.60000000000002</ele><time>2026-03-28T10:33:49.58Z</time></trkpt><trkpt lat="45.5363856" lon="10.7913508"><ele>191.2</ele><time>2026-03-28T10:33:51.58Z</time></trkpt><trkpt lat="45.5364724" lon="10.7913427"><ele>188.8</ele><time>2026-03-28T10:33:52.58Z</time></trkpt><trkpt lat="45.5365584" lon="10.7913333"><ele>186.39999999999998</ele><time>2026-03-28T10:33:53.581Z</time></trkpt><trkpt lat="45.5366245" lon="10.7913409"><ele>184.0</ele><time>2026-03-28T10:33:54.581Z</time></trkpt><trkpt lat="45.5367185" lon="10.7913874"><ele>184.0</ele><time>2026-03-28T10:33:56.58Z</time></trkpt><trkpt lat="45.5368396" lon="10.7913402"><ele>184.0</ele><time>2026-03-28T10:33:59.581Z</time></trkpt><trkpt lat="45.5369482" lon="10.7912767"><ele>184.0</ele><time>2026-03-28T10:34:01.58Z</time></trkpt><trkpt lat="45.5370311" lon="10.7911732"><ele>184.0</ele><time>2026-03-28T10:34:03.58Z</time></trkpt><trkpt lat="45.5371084" lon="10.7910751"><ele>185.0</ele><time>2026-03-28T10:34:05.581Z</time></trkpt><trkpt lat="45.5371847" lon="10.7909905"><ele>186.0</ele><time>2026-03-28T10:34:07.58Z</time></trkpt><trkpt lat="45.537291" lon="10.7909747"><ele>187.0</ele><time>2026-03-28T10:34:09.581Z</time></trkpt><trkpt lat="45.5373906" lon="10.7909438"><ele>188.0</ele><time>2026-03-28T10:34:11.58Z</time></trkpt><trkpt lat="45.5374872" lon="10.7908721"><ele>189.0</ele><time>2026-03-28T10:34:13.579Z</time></trkpt><trkpt lat="45.5375807" lon="10.7907935"><ele>189.0</ele><time>2026-03-28T10:34:15.581Z</time></trkpt><trkpt lat="45.5376793" lon="10.7907377"><ele>189.0</ele><time>2026-03-28T10:34:17.579Z</time></trkpt><trkpt lat="45.5378105" lon="10.790671"><ele>189.0</ele><time>2026-03-28T10:34:19.58Z</time></trkpt><trkpt lat="45.537873" lon="10.7906416"><ele>189.0</ele><time>2026-03-28T10:34:20.58Z</time></trkpt><trkpt lat="45.5379925" lon="10.7905223"><ele>187.79999999999998</ele><time>2026-03-28T10:34:22.58Z</time></trkpt><trkpt lat="45.5380549" lon="10.7904391"><ele>186.6</ele><time>2026-03-28T10:34:23.58Z</time></trkpt><trkpt lat="45.5381218" lon="10.7903708"><ele>185.4</ele><time>2026-03-28T10:34:24.58Z</time></trkpt><trkpt lat="45.5382407" lon="10.7903035"><ele>184.2</ele><time>2026-03-28T10:34:26.581Z</time></trkpt><trkpt lat="45.5383326" lon="10.7901663"><ele>183.0</ele><time>2026-03-28T10:34:28.579Z</time></trkpt><trkpt lat="45.5383919" lon="10.7900942"><ele>183.0</ele><time>2026-03-28T10:34:29.579Z</time></trkpt><trkpt lat="45.5384658" lon="10.7899462"><ele>183.0</ele><time>2026-03-28T10:34:30.581Z</time></trkpt><trkpt lat="45.5385456" lon="10.7898187"><ele>183.0</ele><time>2026-03-28T10:34:31.579Z</time></trkpt><trkpt lat="45.5385978" lon="10.7897356"><ele>183.0</ele><time>2026-03-28T10:34:32.581Z</time></trkpt><trkpt lat="45.5386516" lon="10.7896643"><ele>183.0</ele><time>2026-03-28T10:34:33.58Z</time></trkpt><trkpt lat="45.5387275" lon="10.7895929"><ele>181.25</ele><time>2026-03-28T10:34:34.581Z</time></trkpt><trkpt lat="45.5387949" lon="10.7895278"><ele>179.5</ele><time>2026-03-28T10:34:35.58Z</time></trkpt><trkpt lat="45.5388919" lon="10.7893799"><ele>177.75</ele><time>2026-03-28T10:34:36.58Z</time></trkpt><trkpt lat="45.5389793" lon="10.7892404"><ele>176.0</ele><time>2026-03-28T10:34:37.579Z</time></trkpt><trkpt lat="45.5390557" lon="10.7891213"><ele>176.0</ele><time>2026-03-28T10:34:38.58Z</time></trkpt><trkpt lat="45.5391116" lon="10.789006"><ele>176.0</ele><time>2026-03-28T10:34:39.581Z</time></trkpt><trkpt lat="45.5391662" lon="10.7889021"><ele>176.0</ele><time>2026-03-28T10:34:40.579Z</time></trkpt><trkpt lat="45.5392248" lon="10.7887865"><ele>176.0</ele><time>2026-03-28T10:34:41.581Z</time></trkpt><trkpt lat="45.5392835" lon="10.7886706"><ele>176.0</ele><time>2026-03-28T10:34:42.581Z</time></trkpt><trkpt lat="45.539334" lon="10.788578"><ele>175.4</ele><time>2026-03-28T10:34:43.581Z</time></trkpt><trkpt lat="45.5393805" lon="10.7884843"><ele>174.8</ele><time>2026-03-28T10:34:44.58Z</time></trkpt><trkpt lat="45.5394281" lon="10.7883858"><ele>174.20000000000002</ele><time>2026-03-28T10:34:45.58Z</time></trkpt><trkpt lat="45.5394788" lon="10.7882358"><ele>173.60000000000002</ele><time>2026-03-28T10:34:46.58Z</time></trkpt><trkpt lat="45.5395233" lon="10.7881128"><ele>173.0</ele><time>2026-03-28T10:34:47.58Z</time></trkpt><trkpt lat="45.5395589" lon="10.7880191"><ele>173.0</ele><time>2026-03-28T10:34:48.58Z</time></trkpt><trkpt lat="45.5396051" lon="10.787957"><ele>173.0</ele><time>2026-03-28T10:34:49.58Z</time></trkpt><trkpt lat="45.5396763" lon="10.7878611"><ele>173.0</ele><time>2026-03-28T10:34:50.58Z</time></trkpt><trkpt lat="45.5397483" lon="10.7877745"><ele>173.0</ele><time>2026-03-28T10:34:51.581Z</time></trkpt><trkpt lat="45.5398925" lon="10.787642"><ele>173.0</ele><time>2026-03-28T10:34:52.579Z</time></trkpt><trkpt lat="45.5399703" lon="10.7875643"><ele>175.0</ele><time>2026-03-28T10:34:53.58Z</time></trkpt><trkpt lat="45.5400533" lon="10.7874834"><ele>177.0</ele><time>2026-03-28T10:34:54.581Z</time></trkpt><trkpt lat="45.5401309" lon="10.7873832"><ele>179.0</ele><time>2026-03-28T10:34:55.58Z</time></trkpt><trkpt lat="45.5401865" lon="10.7872809"><ele>181.0</ele><time>2026-03-28T10:34:56.58Z</time></trkpt><trkpt lat="45.5402624" lon="10.7871825"><ele>183.0</ele><time>2026-03-28T10:34:57.579Z</time></trkpt><trkpt lat="45.540316" lon="10.7870997"><ele>183.0</ele><time>2026-03-28T10:34:58.581Z</time></trkpt><trkpt lat="45.5403703" lon="10.7870102"><ele>183.0</ele><time>2026-03-28T10:34:59.58Z</time></trkpt><trkpt lat="45.5404212" lon="10.7869136"><ele>183.0</ele><time>2026-03-28T10:35:00.581Z</time></trkpt><trkpt lat="45.5404589" lon="10.7868231"><ele>183.0</ele><time>2026-03-28T10:35:01.58Z</time></trkpt><trkpt lat="45.5404889" lon="10.7867196"><ele>183.0</ele><time>2026-03-28T10:35:02.579Z</time></trkpt><trkpt lat="45.5405141" lon="10.7866039"><ele>183.0</ele><time>2026-03-28T10:35:03.581Z</time></trkpt><trkpt lat="45.5405366" lon="10.7864753"><ele>183.4</ele><time>2026-03-28T10:35:04.581Z</time></trkpt><trkpt lat="45.540581" lon="10.786363"><ele>183.8</ele><time>2026-03-28T10:35:05.579Z</time></trkpt><trkpt lat="45.5406259" lon="10.786271"><ele>184.2</ele><time>2026-03-28T10:35:06.58Z</time></trkpt><trkpt lat="45.5406835" lon="10.7861574"><ele>184.6</ele><time>2026-03-28T10:35:07.58Z</time></trkpt><trkpt lat="45.5407502" lon="10.7860321"><ele>185.0</ele><time>2026-03-28T10:35:08.581Z</time></trkpt><trkpt lat="45.5408135" lon="10.7858954"><ele>185.0</ele><time>2026-03-28T10:35:09.58Z</time></trkpt><trkpt lat="45.540884" lon="10.785779"><ele>185.0</ele><time>2026-03-28T10:35:10.579Z</time></trkpt><trkpt lat="45.5409528" lon="10.7856683"><ele>185.0</ele><time>2026-03-28T10:35:11.581Z</time></trkpt><trkpt lat="45.541014" lon="10.7855726"><ele>185.0</ele><time>2026-03-28T10:35:12.58Z</time></trkpt><trkpt lat="45.5410793" lon="10.7854741"><ele>185.0</ele><time>2026-03-28T10:35:13.58Z</time></trkpt><trkpt lat="45.5411559" lon="10.785399"><ele>184.8</ele><time>2026-03-28T10:35:14.58Z</time></trkpt><trkpt lat="45.5412279" lon="10.7853135"><ele>184.6</ele><time>2026-03-28T10:35:15.581Z</time></trkpt><trkpt lat="45.5413046" lon="10.7852428"><ele>184.39999999999998</ele><time>2026-03-28T10:35:16.581Z</time></trkpt><trkpt lat="45.5413823" lon="10.7851754"><ele>184.2</ele><time>2026-03-28T10:35:17.579Z</time></trkpt><trkpt lat="45.5414831" lon="10.7850983"><ele>184.0</ele><time>2026-03-28T10:35:18.58Z</time></trkpt><trkpt lat="45.5416243" lon="10.7849832"><ele>184.0</ele><time>2026-03-28T10:35:19.581Z</time></trkpt><trkpt lat="45.5418016" lon="10.7848814"><ele>184.0</ele><time>2026-03-28T10:35:20.58Z</time></trkpt><trkpt lat="45.5419472" lon="10.7847753"><ele>184.0</ele><time>2026-03-28T10:35:21.579Z</time></trkpt><trkpt lat="45.5420629" lon="10.7846553"><ele>183.33333333333334</ele><time>2026-03-28T10:35:22.58Z</time></trkpt><trkpt lat="45.5421745" lon="10.7844951"><ele>182.66666666666666</ele><time>2026-03-28T10:35:23.58Z</time></trkpt><trkpt lat="45.5422749" lon="10.7843195"><ele>182.0</ele><time>2026-03-28T10:35:24.58Z</time></trkpt><trkpt lat="45.5423669" lon="10.7841587"><ele>183.33333333333331</ele><time>2026-03-28T10:35:25.58Z</time></trkpt><trkpt lat="45.5424574" lon="10.7839916"><ele>184.66666666666666</ele><time>2026-03-28T10:35:26.58Z</time></trkpt><trkpt lat="45.542552" lon="10.7838259"><ele>186.0</ele><time>2026-03-28T10:35:27.581Z</time></trkpt><trkpt lat="45.5426621" lon="10.7836742"><ele>186.0</ele><time>2026-03-28T10:35:28.581Z</time></trkpt><trkpt lat="45.542783" lon="10.7835223"><ele>186.0</ele><time>2026-03-28T10:35:29.581Z</time></trkpt><trkpt lat="45.5429086" lon="10.7833593"><ele>186.0</ele><time>2026-03-28T10:35:30.581Z</time></trkpt><trkpt lat="45.5430164" lon="10.7832212"><ele>186.0</ele><time>2026-03-28T10:35:31.58Z</time></trkpt><trkpt lat="45.5431086" lon="10.7830893"><ele>186.0</ele><time>2026-03-28T10:35:32.58Z</time></trkpt><trkpt lat="45.543182" lon="10.7829775"><ele>186.0</ele><time>2026-03-28T10:35:33.58Z</time></trkpt><trkpt lat="45.5432233" lon="10.7828753"><ele>186.0</ele><time>2026-03-28T10:35:34.58Z</time></trkpt><trkpt lat="45.5432464" lon="10.7827798"><ele>186.0</ele><time>2026-03-28T10:35:35.581Z</time></trkpt><trkpt lat="45.5432517" lon="10.7826098"><ele>187.0</ele><time>2026-03-28T10:35:37.581Z</time></trkpt><trkpt lat="45.5432337" lon="10.7824979"><ele>188.0</ele><time>2026-03-28T10:35:38.58Z</time></trkpt><trkpt lat="45.5431952" lon="10.7823628"><ele>189.0</ele><time>2026-03-28T10:35:39.58Z</time></trkpt><trkpt lat="45.5431518" lon="10.7822151"><ele>190.0</ele><time>2026-03-28T10:35:40.581Z</time></trkpt><trkpt lat="45.5431303" lon="10.7820737"><ele>191.0</ele><time>2026-03-28T10:35:41.581Z</time></trkpt><trkpt lat="45.5431245" lon="10.7819433"><ele>191.0</ele><time>2026-03-28T10:35:42.58Z</time></trkpt><trkpt lat="45.5431302" lon="10.7818129"><ele>191.0</ele><time>2026-03-28T10:35:43.58Z</time></trkpt><trkpt lat="45.5431631" lon="10.7816848"><ele>191.0</ele><time>2026-03-28T10:35:44.58Z</time></trkpt><trkpt lat="45.5432116" lon="10.781572"><ele>191.0</ele><time>2026-03-28T10:35:45.58Z</time></trkpt><trkpt lat="45.5432566" lon="10.7814544"><ele>191.0</ele><time>2026-03-28T10:35:46.58Z</time></trkpt><trkpt lat="45.5432967" lon="10.7813443"><ele>191.0</ele><time>2026-03-28T10:35:47.581Z</time></trkpt><trkpt lat="45.5433334" lon="10.7812426"><ele>191.0</ele><time>2026-03-28T10:35:48.58Z</time></trkpt><trkpt lat="45.5433832" lon="10.7811512"><ele>191.0</ele><time>2026-03-28T10:35:49.581Z</time></trkpt><trkpt lat="45.5434464" lon="10.7811001"><ele>191.0</ele><time>2026-03-28T10:35:50.581Z</time></trkpt><trkpt lat="45.5435193" lon="10.7811119"><ele>191.0</ele><time>2026-03-28T10:35:51.581Z</time></trkpt><trkpt lat="45.5435972" lon="10.781188"><ele>191.0</ele><time>2026-03-28T10:35:52.581Z</time></trkpt><trkpt lat="45.543664" lon="10.7813001"><ele>191.0</ele><time>2026-03-28T10:35:53.58Z</time></trkpt><trkpt lat="45.5437321" lon="10.7814152"><ele>191.0</ele><time>2026-03-28T10:35:54.581Z</time></trkpt><trkpt lat="45.5438223" lon="10.7815329"><ele>191.0</ele><time>2026-03-28T10:35:55.58Z</time></trkpt><trkpt lat="45.5439303" lon="10.7816795"><ele>191.0</ele><time>2026-03-28T10:35:56.581Z</time></trkpt><trkpt lat="45.5440753" lon="10.7818617"><ele>189.66666666666666</ele><time>2026-03-28T10:35:57.58Z</time></trkpt><trkpt lat="45.54423" lon="10.7820529"><ele>188.33333333333334</ele><time>2026-03-28T10:35:58.58Z</time></trkpt><trkpt lat="45.5443954" lon="10.7822574"><ele>187.0</ele><time>2026-03-28T10:35:59.581Z</time></trkpt><trkpt lat="45.5445687" lon="10.7824614"><ele>187.0</ele><time>2026-03-28T10:36:00.58Z</time></trkpt><trkpt lat="45.5447451" lon="10.7826686"><ele>187.0</ele><time>2026-03-28T10:36:01.58Z</time></trkpt><trkpt lat="45.5449175" lon="10.7828816"><ele>186.0</ele><time>2026-03-28T10:36:02.58Z</time></trkpt><trkpt lat="45.545088" lon="10.7831099"><ele>185.0</ele><time>2026-03-28T10:36:03.579Z</time></trkpt><trkpt lat="45.5452599" lon="10.7833545"><ele>184.5</ele><time>2026-03-28T10:36:04.58Z</time></trkpt><trkpt lat="45.5454271" lon="10.7836099"><ele>184.0</ele><time>2026-03-28T10:36:05.58Z</time></trkpt><trkpt lat="45.5455913" lon="10.7838693"><ele>184.0</ele><time>2026-03-28T10:36:06.581Z</time></trkpt><trkpt lat="45.5457556" lon="10.7841336"><ele>184.0</ele><time>2026-03-28T10:36:07.58Z</time></trkpt><trkpt lat="45.5459148" lon="10.7843867"><ele>183.0</ele><time>2026-03-28T10:36:08.58Z</time></trkpt><trkpt lat="45.5460657" lon="10.7846418"><ele>182.0</ele><time>2026-03-28T10:36:09.581Z</time></trkpt><trkpt lat="45.5462143" lon="10.7849124"><ele>182.0</ele><time>2026-03-28T10:36:10.581Z</time></trkpt><trkpt lat="45.546361" lon="10.7851966"><ele>182.0</ele><time>2026-03-28T10:36:11.58Z</time></trkpt><trkpt lat="45.5465105" lon="10.7854886"><ele>182.0</ele><time>2026-03-28T10:36:12.58Z</time></trkpt><trkpt lat="45.5466849" lon="10.7858035"><ele>182.0</ele><time>2026-03-28T10:36:13.58Z</time></trkpt><trkpt lat="45.5468815" lon="10.7861398"><ele>177.5</ele><time>2026-03-28T10:36:14.579Z</time></trkpt><trkpt lat="45.54707" lon="10.7864605"><ele>173.0</ele><time>2026-03-28T10:36:15.58Z</time></trkpt><trkpt lat="45.5472436" lon="10.7867671"><ele>173.0</ele><time>2026-03-28T10:36:16.581Z</time></trkpt><trkpt lat="45.5474028" lon="10.7870595"><ele>173.0</ele><time>2026-03-28T10:36:17.581Z</time></trkpt><trkpt lat="45.5475515" lon="10.7873307"><ele>173.0</ele><time>2026-03-28T10:36:18.58Z</time></trkpt><trkpt lat="45.5476889" lon="10.7875876"><ele>173.0</ele><time>2026-03-28T10:36:19.581Z</time></trkpt><trkpt lat="45.5478173" lon="10.7878271"><ele>173.0</ele><time>2026-03-28T10:36:20.581Z</time></trkpt><trkpt lat="45.5479398" lon="10.788043"><ele>174.0</ele><time>2026-03-28T10:36:21.58Z</time></trkpt><trkpt lat="45.5480566" lon="10.7882447"><ele>175.0</ele><time>2026-03-28T10:36:22.58Z</time></trkpt><trkpt lat="45.5481601" lon="10.7884188"><ele>176.0</ele><time>2026-03-28T10:36:23.579Z</time></trkpt><trkpt lat="45.5482436" lon="10.7885503"><ele>177.0</ele><time>2026-03-28T10:36:24.581Z</time></trkpt><trkpt lat="45.5483039" lon="10.7886508"><ele>178.0</ele><time>2026-03-28T10:36:25.581Z</time></trkpt><trkpt lat="45.5483002" lon="10.7887882"><ele>179.0</ele><time>2026-03-28T10:36:27.579Z</time></trkpt><trkpt lat="45.5482476" lon="10.7889512"><ele>180.0</ele><time>2026-03-28T10:36:29.58Z</time></trkpt><trkpt lat="45.5482037" lon="10.7890498"><ele>181.0</ele><time>2026-03-28T10:36:30.581Z</time></trkpt><trkpt lat="45.5479854" lon="10.7891971"><ele>181.66666666666669</ele><time>2026-03-28T10:36:31.579Z</time></trkpt><trkpt lat="45.5478448" lon="10.7893563"><ele>182.33333333333334</ele><time>2026-03-28T10:36:32.58Z</time></trkpt><trkpt lat="45.5477218" lon="10.7894919"><ele>183.0</ele><time>2026-03-28T10:36:33.58Z</time></trkpt><trkpt lat="45.5476052" lon="10.7896063"><ele>183.0</ele><time>2026-03-28T10:36:34.58Z</time></trkpt><trkpt lat="45.5474825" lon="10.7896826"><ele>183.0</ele><time>2026-03-28T10:36:35.58Z</time></trkpt><trkpt lat="45.5473471" lon="10.7897491"><ele>183.0</ele><time>2026-03-28T10:36:36.581Z</time></trkpt><trkpt lat="45.5472108" lon="10.7898226"><ele>183.0</ele><time>2026-03-28T10:36:37.581Z</time></trkpt><trkpt lat="45.5470895" lon="10.7898877"><ele>182.60000000000002</ele><time>2026-03-28T10:36:38.581Z</time></trkpt><trkpt lat="45.5469755" lon="10.7899493"><ele>182.20000000000002</ele><time>2026-03-28T10:36:39.58Z</time></trkpt><trkpt lat="45.54689" lon="10.789998"><ele>181.8</ele><time>2026-03-28T10:36:40.581Z</time></trkpt><trkpt lat="45.5468045" lon="10.7900863"><ele>181.4</ele><time>2026-03-28T10:36:41.581Z</time></trkpt><trkpt lat="45.5467326" lon="10.7902155"><ele>181.0</ele><time>2026-03-28T10:36:42.581Z</time></trkpt><trkpt lat="45.5466863" lon="10.790393"><ele>180.66666666666669</ele><time>2026-03-28T10:36:43.581Z</time></trkpt><trkpt lat="45.5466452" lon="10.7906427"><ele>180.33333333333334</ele><time>2026-03-28T10:36:44.579Z</time></trkpt><trkpt lat="45.5465978" lon="10.7909272"><ele>180.0</ele><time>2026-03-28T10:36:45.579Z</time></trkpt><trkpt lat="45.5465562" lon="10.7911943"><ele>181.0</ele><time>2026-03-28T10:36:46.579Z</time></trkpt><trkpt lat="45.5465174" lon="10.7914445"><ele>182.0</ele><time>2026-03-28T10:36:47.581Z</time></trkpt><trkpt lat="45.5464798" lon="10.7916913"><ele>183.0</ele><time>2026-03-28T10:36:48.581Z</time></trkpt><trkpt lat="45.5464418" lon="10.7919194"><ele>183.0</ele><time>2026-03-28T10:36:49.58Z</time></trkpt><trkpt lat="45.5464073" lon="10.7921315"><ele>183.0</ele><time>2026-03-28T10:36:50.58Z</time></trkpt><trkpt lat="45.5463757" lon="10.7923331"><ele>183.0</ele><time>2026-03-28T10:36:51.579Z</time></trkpt><trkpt lat="45.5463471" lon="10.7925269"><ele>183.0</ele><time>2026-03-28T10:36:52.58Z</time></trkpt><trkpt lat="45.546319" lon="10.7926997"><ele>182.83333333333334</ele><time>2026-03-28T10:36:53.58Z</time></trkpt><trkpt lat="45.5463" lon="10.7928328"><ele>182.66666666666666</ele><time>2026-03-28T10:36:54.58Z</time></trkpt><trkpt lat="45.546297" lon="10.7929299"><ele>182.5</ele><time>2026-03-28T10:36:55.579Z</time></trkpt><trkpt lat="45.5463607" lon="10.7930446"><ele>182.33333333333331</ele><time>2026-03-28T10:36:57.581Z</time></trkpt><trkpt lat="45.5464333" lon="10.7930869"><ele>182.16666666666666</ele><time>2026-03-28T10:36:58.581Z</time></trkpt><trkpt lat="45.5465316" lon="10.7931205"><ele>182.0</ele><time>2026-03-28T10:36:59.581Z</time></trkpt><trkpt lat="45.54665" lon="10.7931731"><ele>182.0</ele><time>2026-03-28T10:37:00.581Z</time></trkpt><trkpt lat="45.5467903" lon="10.7932467"><ele>182.0</ele><time>2026-03-28T10:37:01.58Z</time></trkpt><trkpt lat="45.5469375" lon="10.7933219"><ele>182.0</ele><time>2026-03-28T10:37:02.581Z</time></trkpt><trkpt lat="45.5470691" lon="10.7933834"><ele>182.0</ele><time>2026-03-28T10:37:03.58Z</time></trkpt><trkpt lat="45.5471839" lon="10.7934412"><ele>182.0</ele><time>2026-03-28T10:37:04.58Z</time></trkpt><trkpt lat="45.5472647" lon="10.7934749"><ele>182.0</ele><time>2026-03-28T10:37:05.58Z</time></trkpt><trkpt lat="45.5473363" lon="10.7934959"><ele>182.0</ele><time>2026-03-28T10:37:06.579Z</time></trkpt><trkpt lat="45.5474425" lon="10.7934183"><ele>182.0</ele><time>2026-03-28T10:37:08.58Z</time></trkpt><trkpt lat="45.5474803" lon="10.793322"><ele>182.0</ele><time>2026-03-28T10:37:09.58Z</time></trkpt><trkpt lat="45.5475088" lon="10.7931894"><ele>182.0</ele><time>2026-03-28T10:37:10.579Z</time></trkpt><trkpt lat="45.5475353" lon="10.7930194"><ele>182.0</ele><time>2026-03-28T10:37:11.58Z</time></trkpt><trkpt lat="45.5475676" lon="10.792834"><ele>182.0</ele><time>2026-03-28T10:37:12.58Z</time></trkpt><trkpt lat="45.5475947" lon="10.7926815"><ele>182.0</ele><time>2026-03-28T10:37:13.58Z</time></trkpt><trkpt lat="45.5476191" lon="10.7925697"><ele>182.0</ele><time>2026-03-28T10:37:14.58Z</time></trkpt><trkpt lat="45.5476578" lon="10.7924961"><ele>181.83333333333331</ele><time>2026-03-28T10:37:15.581Z</time></trkpt><trkpt lat="45.5477232" lon="10.7924335"><ele>181.66666666666666</ele><time>2026-03-28T10:37:16.581Z</time></trkpt><trkpt lat="45.5477927" lon="10.7924182"><ele>181.5</ele><time>2026-03-28T10:37:17.581Z</time></trkpt><trkpt lat="45.5478608" lon="10.7924505"><ele>181.33333333333334</ele><time>2026-03-28T10:37:18.58Z</time></trkpt><trkpt lat="45.5479436" lon="10.7925195"><ele>181.16666666666669</ele><time>2026-03-28T10:37:19.58Z</time></trkpt><trkpt lat="45.5480341" lon="10.7926154"><ele>181.0</ele><time>2026-03-28T10:37:20.58Z</time></trkpt><trkpt lat="45.5481429" lon="10.7926993"><ele>181.5</ele><time>2026-03-28T10:37:21.581Z</time></trkpt><trkpt lat="45.5482489" lon="10.7927567"><ele>182.0</ele><time>2026-03-28T10:37:22.581Z</time></trkpt><trkpt lat="45.5483913" lon="10.7928036"><ele>182.5</ele><time>2026-03-28T10:37:23.58Z</time></trkpt><trkpt lat="45.5485444" lon="10.7928281"><ele>183.0</ele><time>2026-03-28T10:37:24.581Z</time></trkpt><trkpt lat="45.5487009" lon="10.792832"><ele>184.0</ele><time>2026-03-28T10:37:25.582Z</time></trkpt><trkpt lat="45.548866" lon="10.7928233"><ele>185.0</ele><time>2026-03-28T10:37:26.581Z</time></trkpt><trkpt lat="45.549006" lon="10.7927989"><ele>186.0</ele><time>2026-03-28T10:37:27.58Z</time></trkpt><trkpt lat="45.549144" lon="10.792762"><ele>187.0</ele><time>2026-03-28T10:37:28.58Z</time></trkpt><trkpt lat="45.5492692" lon="10.7927224"><ele>187.0</ele><time>2026-03-28T10:37:29.58Z</time></trkpt><trkpt lat="45.5493979" lon="10.7927168"><ele>187.0</ele><time>2026-03-28T10:37:30.582Z</time></trkpt><trkpt lat="45.5495104" lon="10.7927377"><ele>187.0</ele><time>2026-03-28T10:37:31.581Z</time></trkpt><trkpt lat="45.549597" lon="10.79277"><ele>187.0</ele><time>2026-03-28T10:37:32.581Z</time></trkpt><trkpt lat="45.5496867" lon="10.7928207"><ele>187.0</ele><time>2026-03-28T10:37:33.581Z</time></trkpt><trkpt lat="45.5498015" lon="10.7928976"><ele>186.75</ele><time>2026-03-28T10:37:34.581Z</time></trkpt><trkpt lat="45.5499214" lon="10.7930076"><ele>186.5</ele><time>2026-03-28T10:37:35.58Z</time></trkpt><trkpt lat="45.5500207" lon="10.7931121"><ele>186.25</ele><time>2026-03-28T10:37:36.582Z</time></trkpt><trkpt lat="45.5501248" lon="10.7932147"><ele>186.0</ele><time>2026-03-28T10:37:37.582Z</time></trkpt><trkpt lat="45.5502205" lon="10.7933566"><ele>186.0</ele><time>2026-03-28T10:37:38.581Z</time></trkpt><trkpt lat="45.5503162" lon="10.7935284"><ele>186.0</ele><time>2026-03-28T10:37:39.581Z</time></trkpt><trkpt lat="45.5504034" lon="10.7937016"><ele>186.0</ele><time>2026-03-28T10:37:40.581Z</time></trkpt><trkpt lat="45.5504867" lon="10.7938486"><ele>186.0</ele><time>2026-03-28T10:37:41.582Z</time></trkpt><trkpt lat="45.5505625" lon="10.79399"><ele>186.0</ele><time>2026-03-28T10:37:42.581Z</time></trkpt><trkpt lat="45.5506404" lon="10.7941299"><ele>186.0</ele><time>2026-03-28T10:37:43.581Z</time></trkpt><trkpt lat="45.5507065" lon="10.7942579"><ele>186.0</ele><time>2026-03-28T10:37:44.581Z</time></trkpt><trkpt lat="45.550757" lon="10.7943709"><ele>186.0</ele><time>2026-03-28T10:37:45.582Z</time></trkpt><trkpt lat="45.5507834" lon="10.7944772"><ele>186.0</ele><time>2026-03-28T10:37:46.582Z</time></trkpt><trkpt lat="45.5507819" lon="10.7946051"><ele>186.0</ele><time>2026-03-28T10:37:47.58Z</time></trkpt><trkpt lat="45.5507685" lon="10.7947614"><ele>186.0</ele><time>2026-03-28T10:37:48.582Z</time></trkpt><trkpt lat="45.5507673" lon="10.7949439"><ele>186.0</ele><time>2026-03-28T10:37:49.582Z</time></trkpt><trkpt lat="45.5507705" lon="10.7951791"><ele>186.0</ele><time>2026-03-28T10:37:50.58Z</time></trkpt><trkpt lat="45.5507707" lon="10.7954444"><ele>186.0</ele><time>2026-03-28T10:37:51.581Z</time></trkpt><trkpt lat="45.5507653" lon="10.7956817"><ele>186.0</ele><time>2026-03-28T10:37:52.581Z</time></trkpt><trkpt lat="45.5507739" lon="10.7959041"><ele>186.0</ele><time>2026-03-28T10:37:53.582Z</time></trkpt><trkpt lat="45.550787" lon="10.7961072"><ele>186.0</ele><time>2026-03-28T10:37:54.582Z</time></trkpt><trkpt lat="45.5507922" lon="10.7962992"><ele>186.0</ele><time>2026-03-28T10:37:55.582Z</time></trkpt><trkpt lat="45.5508006" lon="10.7964731"><ele>186.0</ele><time>2026-03-28T10:37:56.581Z</time></trkpt><trkpt lat="45.5508103" lon="10.7966326"><ele>186.0</ele><time>2026-03-28T10:37:57.58Z</time></trkpt><trkpt lat="45.5508284" lon="10.7968081"><ele>185.66666666666666</ele><time>2026-03-28T10:37:58.581Z</time></trkpt><trkpt lat="45.5508405" lon="10.7970273"><ele>185.33333333333331</ele><time>2026-03-28T10:37:59.581Z</time></trkpt><trkpt lat="45.5508329" lon="10.7973365"><ele>185.0</ele><time>2026-03-28T10:38:00.581Z</time></trkpt><trkpt lat="45.550819" lon="10.7976622"><ele>185.0</ele><time>2026-03-28T10:38:01.581Z</time></trkpt><trkpt lat="45.5507994" lon="10.7979561"><ele>185.0</ele><time>2026-03-28T10:38:02.582Z</time></trkpt><trkpt lat="45.550783" lon="10.798244"><ele>185.0</ele><time>2026-03-28T10:38:03.581Z</time></trkpt><trkpt lat="45.5507716" lon="10.7985435"><ele>185.0</ele><time>2026-03-28T10:38:04.582Z</time></trkpt><trkpt lat="45.5507664" lon="10.7988528"><ele>185.0</ele><time>2026-03-28T10:38:05.581Z</time></trkpt><trkpt lat="45.5507683" lon="10.7991834"><ele>185.0</ele><time>2026-03-28T10:38:06.581Z</time></trkpt><trkpt lat="45.5507794" lon="10.799526"><ele>184.66666666666666</ele><time>2026-03-28T10:38:07.581Z</time></trkpt><trkpt lat="45.5507943" lon="10.7998452"><ele>184.33333333333334</ele><time>2026-03-28T10:38:08.581Z</time></trkpt><trkpt lat="45.5508094" lon="10.8001452"><ele>184.0</ele><time>2026-03-28T10:38:09.581Z</time></trkpt><trkpt lat="45.5508259" lon="10.8004257"><ele>182.66666666666669</ele><time>2026-03-28T10:38:10.581Z</time></trkpt><trkpt lat="45.5508498" lon="10.8007007"><ele>181.33333333333334</ele><time>2026-03-28T10:38:11.582Z</time></trkpt><trkpt lat="45.5508743" lon="10.8009976"><ele>180.0</ele><time>2026-03-28T10:38:12.582Z</time></trkpt><trkpt lat="45.550883" lon="10.8013099"><ele>179.0</ele><time>2026-03-28T10:38:13.581Z</time></trkpt><trkpt lat="45.5508754" lon="10.801593"><ele>178.0</ele><time>2026-03-28T10:38:14.581Z</time></trkpt><trkpt lat="45.5508578" lon="10.8018566"><ele>177.0</ele><time>2026-03-28T10:38:15.58Z</time></trkpt><trkpt lat="45.5508404" lon="10.8021045"><ele>177.0</ele><time>2026-03-28T10:38:16.581Z</time></trkpt><trkpt lat="45.5508239" lon="10.8023425"><ele>177.0</ele><time>2026-03-28T10:38:17.581Z</time></trkpt><trkpt lat="45.5507955" lon="10.8025667"><ele>177.0</ele><time>2026-03-28T10:38:18.582Z</time></trkpt><trkpt lat="45.5507521" lon="10.8027727"><ele>176.0</ele><time>2026-03-28T10:38:19.582Z</time></trkpt><trkpt lat="45.5506929" lon="10.8029581"><ele>175.0</ele><time>2026-03-28T10:38:20.581Z</time></trkpt><trkpt lat="45.550623" lon="10.8031274"><ele>174.0</ele><time>2026-03-28T10:38:21.581Z</time></trkpt><trkpt lat="45.550545" lon="10.8032816"><ele>173.0</ele><time>2026-03-28T10:38:22.581Z</time></trkpt><trkpt lat="45.5504624" lon="10.8034061"><ele>172.66666666666666</ele><time>2026-03-28T10:38:23.58Z</time></trkpt><trkpt lat="45.5503979" lon="10.8035017"><ele>172.33333333333331</ele><time>2026-03-28T10:38:24.582Z</time></trkpt><trkpt lat="45.5503677" lon="10.8035894"><ele>172.0</ele><time>2026-03-28T10:38:25.581Z</time></trkpt><trkpt lat="45.5503631" lon="10.8036835"><ele>171.66666666666666</ele><time>2026-03-28T10:38:26.582Z</time></trkpt><trkpt lat="45.5504082" lon="10.8038129"><ele>171.33333333333334</ele><time>2026-03-28T10:38:28.581Z</time></trkpt><trkpt lat="45.5504688" lon="10.8038639"><ele>171.0</ele><time>2026-03-28T10:38:31.581Z</time></trkpt><trkpt lat="45.5506167" lon="10.8039501"><ele>171.0</ele><time>2026-03-28T10:38:33.581Z</time></trkpt><trkpt lat="45.5507431" lon="10.8039867"><ele>171.0</ele><time>2026-03-28T10:38:34.581Z</time></trkpt><trkpt lat="45.5509092" lon="10.8039986"><ele>171.0</ele><time>2026-03-28T10:38:35.582Z</time></trkpt><trkpt lat="45.5511064" lon="10.8039855"><ele>171.66666666666666</ele><time>2026-03-28T10:38:36.581Z</time></trkpt><trkpt lat="45.5513221" lon="10.8039615"><ele>172.33333333333331</ele><time>2026-03-28T10:38:37.581Z</time></trkpt><trkpt lat="45.5515267" lon="10.8039476"><ele>173.0</ele><time>2026-03-28T10:38:38.582Z</time></trkpt><trkpt lat="45.5517157" lon="10.8039348"><ele>173.0</ele><time>2026-03-28T10:38:39.582Z</time></trkpt><trkpt lat="45.5518902" lon="10.8039208"><ele>173.0</ele><time>2026-03-28T10:38:40.582Z</time></trkpt><trkpt lat="45.5520494" lon="10.8039108"><ele>173.0</ele><time>2026-03-28T10:38:41.582Z</time></trkpt><trkpt lat="45.5522039" lon="10.8038984"><ele>172.75</ele><time>2026-03-28T10:38:42.582Z</time></trkpt><trkpt lat="45.5523496" lon="10.8038827"><ele>172.5</ele><time>2026-03-28T10:38:43.581Z</time></trkpt><trkpt lat="45.5524927" lon="10.8038589"><ele>172.25</ele><time>2026-03-28T10:38:44.582Z</time></trkpt><trkpt lat="45.55263" lon="10.8038382"><ele>172.0</ele><time>2026-03-28T10:38:45.582Z</time></trkpt><trkpt lat="45.552762" lon="10.8038177"><ele>172.75</ele><time>2026-03-28T10:38:46.582Z</time></trkpt><trkpt lat="45.5528906" lon="10.803792"><ele>173.5</ele><time>2026-03-28T10:38:47.582Z</time></trkpt><trkpt lat="45.5530278" lon="10.8037657"><ele>174.25</ele><time>2026-03-28T10:38:48.582Z</time></trkpt><trkpt lat="45.5531625" lon="10.8037381"><ele>175.0</ele><time>2026-03-28T10:38:49.582Z</time></trkpt><trkpt lat="45.5532974" lon="10.8037096"><ele>175.0</ele><time>2026-03-28T10:38:50.582Z</time></trkpt><trkpt lat="45.5534245" lon="10.8036876"><ele>175.0</ele><time>2026-03-28T10:38:51.582Z</time></trkpt><trkpt lat="45.5535657" lon="10.8036596"><ele>175.0</ele><time>2026-03-28T10:38:52.582Z</time></trkpt><trkpt lat="45.5537119" lon="10.8036298"><ele>175.0</ele><time>2026-03-28T10:38:53.582Z</time></trkpt><trkpt lat="45.55386" lon="10.8036098"><ele>175.0</ele><time>2026-03-28T10:38:54.582Z</time></trkpt><trkpt lat="45.5540036" lon="10.8035976"><ele>175.0</ele><time>2026-03-28T10:38:55.582Z</time></trkpt><trkpt lat="45.554138" lon="10.8035985"><ele>175.0</ele><time>2026-03-28T10:38:56.581Z</time></trkpt><trkpt lat="45.5542712" lon="10.803607"><ele>175.0</ele><time>2026-03-28T10:38:57.581Z</time></trkpt><trkpt lat="45.5544042" lon="10.8036191"><ele>175.0</ele><time>2026-03-28T10:38:58.582Z</time></trkpt><trkpt lat="45.5545346" lon="10.8036294"><ele>175.0</ele><time>2026-03-28T10:38:59.581Z</time></trkpt><trkpt lat="45.5546656" lon="10.8036433"><ele>175.0</ele><time>2026-03-28T10:39:00.582Z</time></trkpt><trkpt lat="45.5547972" lon="10.8036481"><ele>175.0</ele><time>2026-03-28T10:39:01.582Z</time></trkpt><trkpt lat="45.5549398" lon="10.8036217"><ele>176.0</ele><time>2026-03-28T10:39:02.581Z</time></trkpt><trkpt lat="45.5551066" lon="10.803574"><ele>177.0</ele><time>2026-03-28T10:39:03.582Z</time></trkpt><trkpt lat="45.555325" lon="10.8034499"><ele>178.0</ele><time>2026-03-28T10:39:04.582Z</time></trkpt><trkpt lat="45.5555632" lon="10.8032874"><ele>178.0</ele><time>2026-03-28T10:39:05.582Z</time></trkpt><trkpt lat="45.5558062" lon="10.803105"><ele>178.0</ele><time>2026-03-28T10:39:06.581Z</time></trkpt><trkpt lat="45.5560221" lon="10.8029244"><ele>178.66666666666669</ele><time>2026-03-28T10:39:07.582Z</time></trkpt><trkpt lat="45.5562157" lon="10.8027501"><ele>179.33333333333334</ele><time>2026-03-28T10:39:08.582Z</time></trkpt><trkpt lat="45.5563913" lon="10.8025834"><ele>180.0</ele><time>2026-03-28T10:39:09.582Z</time></trkpt><trkpt lat="45.5565527" lon="10.802422"><ele>180.0</ele><time>2026-03-28T10:39:10.581Z</time></trkpt><trkpt lat="45.5567193" lon="10.8022632"><ele>180.0</ele><time>2026-03-28T10:39:11.582Z</time></trkpt><trkpt lat="45.5568836" lon="10.8021156"><ele>180.0</ele><time>2026-03-28T10:39:12.581Z</time></trkpt><trkpt lat="45.5570361" lon="10.8019754"><ele>181.0</ele><time>2026-03-28T10:39:13.582Z</time></trkpt><trkpt lat="45.5571786" lon="10.8018394"><ele>182.0</ele><time>2026-03-28T10:39:14.581Z</time></trkpt><trkpt lat="45.5573185" lon="10.801696"><ele>183.0</ele><time>2026-03-28T10:39:15.582Z</time></trkpt><trkpt lat="45.557476" lon="10.8015403"><ele>183.0</ele><time>2026-03-28T10:39:16.582Z</time></trkpt><trkpt lat="45.5576436" lon="10.8013787"><ele>183.0</ele><time>2026-03-28T10:39:17.581Z</time></trkpt><trkpt lat="45.5578606" lon="10.801253"><ele>183.0</ele><time>2026-03-28T10:39:18.581Z</time></trkpt><trkpt lat="45.558074" lon="10.8010862"><ele>183.66666666666666</ele><time>2026-03-28T10:39:19.581Z</time></trkpt><trkpt lat="45.5582637" lon="10.8009503"><ele>184.33333333333331</ele><time>2026-03-28T10:39:20.581Z</time></trkpt><trkpt lat="45.5584398" lon="10.8008004"><ele>185.0</ele><time>2026-03-28T10:39:21.581Z</time></trkpt><trkpt lat="45.5585948" lon="10.8006311"><ele>186.0</ele><time>2026-03-28T10:39:22.582Z</time></trkpt><trkpt lat="45.5587472" lon="10.8004676"><ele>187.0</ele><time>2026-03-28T10:39:23.582Z</time></trkpt><trkpt lat="45.5588891" lon="10.8003242"><ele>188.0</ele><time>2026-03-28T10:39:24.581Z</time></trkpt><trkpt lat="45.5590392" lon="10.8001732"><ele>187.33333333333331</ele><time>2026-03-28T10:39:25.581Z</time></trkpt><trkpt lat="45.5592078" lon="10.8000662"><ele>186.66666666666666</ele><time>2026-03-28T10:39:26.581Z</time></trkpt><trkpt lat="45.5593818" lon="10.7999738"><ele>186.0</ele><time>2026-03-28T10:39:27.581Z</time></trkpt><trkpt lat="45.5595716" lon="10.7999236"><ele>186.0</ele><time>2026-03-28T10:39:28.582Z</time></trkpt><trkpt lat="45.5597805" lon="10.7999155"><ele>186.0</ele><time>2026-03-28T10:39:29.58Z</time></trkpt><trkpt lat="45.560009" lon="10.799932"><ele>186.0</ele><time>2026-03-28T10:39:30.581Z</time></trkpt><trkpt lat="45.5602684" lon="10.7999598"><ele>185.5</ele><time>2026-03-28T10:39:31.581Z</time></trkpt><trkpt lat="45.5605534" lon="10.7999903"><ele>185.0</ele><time>2026-03-28T10:39:32.581Z</time></trkpt><trkpt lat="45.56086" lon="10.8000193"><ele>185.0</ele><time>2026-03-28T10:39:33.581Z</time></trkpt><trkpt lat="45.5611487" lon="10.8000461"><ele>185.0</ele><time>2026-03-28T10:39:34.581Z</time></trkpt><trkpt lat="45.5614154" lon="10.8000726"><ele>185.5</ele><time>2026-03-28T10:39:35.582Z</time></trkpt><trkpt lat="45.5616738" lon="10.8001"><ele>186.0</ele><time>2026-03-28T10:39:36.581Z</time></trkpt><trkpt lat="45.5619335" lon="10.800136"><ele>187.0</ele><time>2026-03-28T10:39:37.58Z</time></trkpt><trkpt lat="45.5621881" lon="10.800185"><ele>188.0</ele><time>2026-03-28T10:39:38.581Z</time></trkpt><trkpt lat="45.5624291" lon="10.8002395"><ele>188.0</ele><time>2026-03-28T10:39:39.581Z</time></trkpt><trkpt lat="45.5626566" lon="10.8002983"><ele>188.0</ele><time>2026-03-28T10:39:40.581Z</time></trkpt><trkpt lat="45.5628686" lon="10.8003616"><ele>188.0</ele><time>2026-03-28T10:39:41.582Z</time></trkpt><trkpt lat="45.5630648" lon="10.8004325"><ele>189.0</ele><time>2026-03-28T10:39:42.582Z</time></trkpt><trkpt lat="45.5632404" lon="10.8005217"><ele>190.0</ele><time>2026-03-28T10:39:43.581Z</time></trkpt><trkpt lat="45.5633982" lon="10.8006242"><ele>191.0</ele><time>2026-03-28T10:39:44.582Z</time></trkpt><trkpt lat="45.5635416" lon="10.8007298"><ele>191.0</ele><time>2026-03-28T10:39:45.582Z</time></trkpt><trkpt lat="45.5636797" lon="10.8008392"><ele>191.0</ele><time>2026-03-28T10:39:46.582Z</time></trkpt><trkpt lat="45.5638161" lon="10.8009564"><ele>191.0</ele><time>2026-03-28T10:39:47.581Z</time></trkpt><trkpt lat="45.563955" lon="10.8010711"><ele>190.33333333333331</ele><time>2026-03-28T10:39:48.581Z</time></trkpt><trkpt lat="45.5640915" lon="10.8011813"><ele>189.66666666666666</ele><time>2026-03-28T10:39:49.581Z</time></trkpt><trkpt lat="45.5642265" lon="10.8012892"><ele>189.0</ele><time>2026-03-28T10:39:50.581Z</time></trkpt><trkpt lat="45.5643626" lon="10.8013899"><ele>189.0</ele><time>2026-03-28T10:39:51.581Z</time></trkpt><trkpt lat="45.5645163" lon="10.8015015"><ele>189.0</ele><time>2026-03-28T10:39:52.58Z</time></trkpt><trkpt lat="45.5647139" lon="10.8016208"><ele>189.0</ele><time>2026-03-28T10:39:53.581Z</time></trkpt><trkpt lat="45.5649401" lon="10.801745"><ele>190.0</ele><time>2026-03-28T10:39:54.581Z</time></trkpt><trkpt lat="45.5651758" lon="10.8018305"><ele>191.0</ele><time>2026-03-28T10:39:55.582Z</time></trkpt><trkpt lat="45.5654251" lon="10.801897"><ele>191.0</ele><time>2026-03-28T10:39:56.582Z</time></trkpt><trkpt lat="45.5656711" lon="10.801956"><ele>191.0</ele><time>2026-03-28T10:39:57.582Z</time></trkpt><trkpt lat="45.5658971" lon="10.802013"><ele>191.0</ele><time>2026-03-28T10:39:58.581Z</time></trkpt><trkpt lat="45.5661123" lon="10.8020695"><ele>191.0</ele><time>2026-03-28T10:39:59.582Z</time></trkpt><trkpt lat="45.5663183" lon="10.8021229"><ele>191.0</ele><time>2026-03-28T10:40:00.581Z</time></trkpt><trkpt lat="45.5665192" lon="10.8021688"><ele>190.66666666666666</ele><time>2026-03-28T10:40:01.581Z</time></trkpt><trkpt lat="45.5667202" lon="10.8022111"><ele>190.33333333333334</ele><time>2026-03-28T10:40:02.581Z</time></trkpt><trkpt lat="45.5669226" lon="10.8022465"><ele>190.0</ele><time>2026-03-28T10:40:03.581Z</time></trkpt><trkpt lat="45.5671279" lon="10.8022584"><ele>191.0</ele><time>2026-03-28T10:40:04.581Z</time></trkpt><trkpt lat="45.5673586" lon="10.8022391"><ele>192.0</ele><time>2026-03-28T10:40:05.581Z</time></trkpt><trkpt lat="45.5676176" lon="10.8022062"><ele>191.5</ele><time>2026-03-28T10:40:06.581Z</time></trkpt><trkpt lat="45.5679119" lon="10.8021861"><ele>191.0</ele><time>2026-03-28T10:40:07.581Z</time></trkpt><trkpt lat="45.5681975" lon="10.802166"><ele>191.0</ele><time>2026-03-28T10:40:08.58Z</time></trkpt><trkpt lat="45.5684503" lon="10.8021466"><ele>191.0</ele><time>2026-03-28T10:40:09.581Z</time></trkpt><trkpt lat="45.5686742" lon="10.8021374"><ele>192.0</ele><time>2026-03-28T10:40:10.582Z</time></trkpt><trkpt lat="45.5688598" lon="10.8021375"><ele>193.0</ele><time>2026-03-28T10:40:11.581Z</time></trkpt><trkpt lat="45.5690114" lon="10.8021456"><ele>194.0</ele><time>2026-03-28T10:40:12.581Z</time></trkpt><trkpt lat="45.56914" lon="10.8021448"><ele>194.0</ele><time>2026-03-28T10:40:13.581Z</time></trkpt><trkpt lat="45.5692331" lon="10.8021304"><ele>194.0</ele><time>2026-03-28T10:40:14.581Z</time></trkpt><trkpt lat="45.5693059" lon="10.802075"><ele>194.0</ele><time>2026-03-28T10:40:15.581Z</time></trkpt><trkpt lat="45.5693639" lon="10.8019634"><ele>194.0</ele><time>2026-03-28T10:40:16.581Z</time></trkpt><trkpt lat="45.5694093" lon="10.8018178"><ele>194.0</ele><time>2026-03-28T10:40:17.581Z</time></trkpt><trkpt lat="45.5694483" lon="10.8016716"><ele>193.6</ele><time>2026-03-28T10:40:18.581Z</time></trkpt><trkpt lat="45.5694951" lon="10.8015199"><ele>193.2</ele><time>2026-03-28T10:40:19.582Z</time></trkpt><trkpt lat="45.5695357" lon="10.8013699"><ele>192.79999999999998</ele><time>2026-03-28T10:40:20.581Z</time></trkpt><trkpt lat="45.5695704" lon="10.8012304"><ele>192.39999999999998</ele><time>2026-03-28T10:40:21.581Z</time></trkpt><trkpt lat="45.5696112" lon="10.8010864"><ele>192.0</ele><time>2026-03-28T10:40:22.581Z</time></trkpt><trkpt lat="45.5696549" lon="10.8009216"><ele>192.0</ele><time>2026-03-28T10:40:23.581Z</time></trkpt><trkpt lat="45.5696962" lon="10.8007516"><ele>192.0</ele><time>2026-03-28T10:40:24.582Z</time></trkpt><trkpt lat="45.5697376" lon="10.8005815"><ele>192.0</ele><time>2026-03-28T10:40:25.582Z</time></trkpt><trkpt lat="45.5697763" lon="10.8004283"><ele>192.0</ele><time>2026-03-28T10:40:26.582Z</time></trkpt><trkpt lat="45.5698175" lon="10.8002927"><ele>192.0</ele><time>2026-03-28T10:40:27.581Z</time></trkpt><trkpt lat="45.5698661" lon="10.8001822"><ele>192.0</ele><time>2026-03-28T10:40:28.581Z</time></trkpt><trkpt lat="45.5699205" lon="10.8001042"><ele>192.0</ele><time>2026-03-28T10:40:29.581Z</time></trkpt><trkpt lat="45.56998" lon="10.8000515"><ele>192.0</ele><time>2026-03-28T10:40:30.581Z</time></trkpt><trkpt lat="45.5700606" lon="10.8000254"><ele>192.0</ele><time>2026-03-28T10:40:31.58Z</time></trkpt><trkpt lat="45.5701501" lon="10.7999954"><ele>192.0</ele><time>2026-03-28T10:40:32.582Z</time></trkpt><trkpt lat="45.5702324" lon="10.7999766"><ele>192.39999999999998</ele><time>2026-03-28T10:40:33.582Z</time></trkpt><trkpt lat="45.5703261" lon="10.7999597"><ele>192.79999999999998</ele><time>2026-03-28T10:40:34.581Z</time></trkpt><trkpt lat="45.5704282" lon="10.7999341"><ele>193.2</ele><time>2026-03-28T10:40:35.581Z</time></trkpt><trkpt lat="45.5705266" lon="10.7998861"><ele>193.6</ele><time>2026-03-28T10:40:36.581Z</time></trkpt><trkpt lat="45.5706319" lon="10.7998146"><ele>194.0</ele><time>2026-03-28T10:40:37.581Z</time></trkpt><trkpt lat="45.5707419" lon="10.7997237"><ele>194.75</ele><time>2026-03-28T10:40:38.582Z</time></trkpt><trkpt lat="45.5708501" lon="10.7996421"><ele>195.5</ele><time>2026-03-28T10:40:39.582Z</time></trkpt><trkpt lat="45.5709538" lon="10.7995793"><ele>196.25</ele><time>2026-03-28T10:40:40.582Z</time></trkpt><trkpt lat="45.5710685" lon="10.7995132"><ele>197.0</ele><time>2026-03-28T10:40:41.582Z</time></trkpt><trkpt lat="45.5711837" lon="10.7994305"><ele>197.0</ele><time>2026-03-28T10:40:42.582Z</time></trkpt><trkpt lat="45.5713005" lon="10.7993453"><ele>197.0</ele><time>2026-03-28T10:40:43.581Z</time></trkpt><trkpt lat="45.5714172" lon="10.7992543"><ele>197.0</ele><time>2026-03-28T10:40:44.581Z</time></trkpt><trkpt lat="45.5715377" lon="10.799162"><ele>197.0</ele><time>2026-03-28T10:40:45.582Z</time></trkpt><trkpt lat="45.5716572" lon="10.7990737"><ele>198.0</ele><time>2026-03-28T10:40:46.581Z</time></trkpt><trkpt lat="45.571774" lon="10.7989855"><ele>199.0</ele><time>2026-03-28T10:40:47.581Z</time></trkpt><trkpt lat="45.5718767" lon="10.7989117"><ele>200.0</ele><time>2026-03-28T10:40:48.582Z</time></trkpt><trkpt lat="45.5719832" lon="10.7988365"><ele>201.0</ele><time>2026-03-28T10:40:49.581Z</time></trkpt><trkpt lat="45.5720806" lon="10.7987446"><ele>201.0</ele><time>2026-03-28T10:40:50.582Z</time></trkpt><trkpt lat="45.5721589" lon="10.7986662"><ele>201.0</ele><time>2026-03-28T10:40:51.582Z</time></trkpt><trkpt lat="45.5722554" lon="10.7985921"><ele>201.0</ele><time>2026-03-28T10:40:52.581Z</time></trkpt><trkpt lat="45.5723695" lon="10.7985182"><ele>201.0</ele><time>2026-03-28T10:40:53.58Z</time></trkpt><trkpt lat="45.5724945" lon="10.7984306"><ele>201.5</ele><time>2026-03-28T10:40:54.58Z</time></trkpt><trkpt lat="45.5726053" lon="10.7983518"><ele>202.0</ele><time>2026-03-28T10:40:55.582Z</time></trkpt><trkpt lat="45.5727165" lon="10.798281"><ele>202.5</ele><time>2026-03-28T10:40:56.581Z</time></trkpt><trkpt lat="45.572819" lon="10.798224"><ele>203.0</ele><time>2026-03-28T10:40:57.582Z</time></trkpt><trkpt lat="45.5729288" lon="10.7981684"><ele>203.0</ele><time>2026-03-28T10:40:58.582Z</time></trkpt><trkpt lat="45.5730517" lon="10.7981129"><ele>203.0</ele><time>2026-03-28T10:40:59.582Z</time></trkpt><trkpt lat="45.5731799" lon="10.7980587"><ele>203.0</ele><time>2026-03-28T10:41:00.582Z</time></trkpt><trkpt lat="45.5733188" lon="10.7980005"><ele>203.0</ele><time>2026-03-28T10:41:01.581Z</time></trkpt><trkpt lat="45.5734612" lon="10.797938"><ele>203.0</ele><time>2026-03-28T10:41:02.582Z</time></trkpt><trkpt lat="45.573606" lon="10.7978804"><ele>203.0</ele><time>2026-03-28T10:41:03.582Z</time></trkpt><trkpt lat="45.5737363" lon="10.7978242"><ele>203.0</ele><time>2026-03-28T10:41:04.581Z</time></trkpt><trkpt lat="45.5738625" lon="10.7977702"><ele>203.0</ele><time>2026-03-28T10:41:05.581Z</time></trkpt><trkpt lat="45.5739772" lon="10.7977111"><ele>204.75</ele><time>2026-03-28T10:41:06.581Z</time></trkpt><trkpt lat="45.574094" lon="10.7976379"><ele>206.5</ele><time>2026-03-28T10:41:07.582Z</time></trkpt><trkpt lat="45.5742047" lon="10.7975611"><ele>208.25</ele><time>2026-03-28T10:41:08.582Z</time></trkpt><trkpt lat="45.5743023" lon="10.7974823"><ele>210.0</ele><time>2026-03-28T10:41:09.581Z</time></trkpt><trkpt lat="45.574391" lon="10.7973833"><ele>210.0</ele><time>2026-03-28T10:41:10.581Z</time></trkpt><trkpt lat="45.5744767" lon="10.7972546"><ele>210.0</ele><time>2026-03-28T10:41:11.58Z</time></trkpt><trkpt lat="45.5745646" lon="10.7971208"><ele>210.0</ele><time>2026-03-28T10:41:12.582Z</time></trkpt><trkpt lat="45.5746553" lon="10.7970051"><ele>210.0</ele><time>2026-03-28T10:41:13.582Z</time></trkpt><trkpt lat="45.5747599" lon="10.7969052"><ele>210.33333333333331</ele><time>2026-03-28T10:41:14.581Z</time></trkpt><trkpt lat="45.5748944" lon="10.7967995"><ele>210.66666666666666</ele><time>2026-03-28T10:41:15.58Z</time></trkpt><trkpt lat="45.5750365" lon="10.7966914"><ele>211.0</ele><time>2026-03-28T10:41:16.58Z</time></trkpt><trkpt lat="45.5751618" lon="10.7965806"><ele>211.0</ele><time>2026-03-28T10:41:17.581Z</time></trkpt><trkpt lat="45.575275" lon="10.7964651"><ele>211.0</ele><time>2026-03-28T10:41:18.581Z</time></trkpt><trkpt lat="45.5753866" lon="10.7963416"><ele>211.0</ele><time>2026-03-28T10:41:19.581Z</time></trkpt><trkpt lat="45.5754983" lon="10.7962012"><ele>211.0</ele><time>2026-03-28T10:41:20.582Z</time></trkpt><trkpt lat="45.5756041" lon="10.796046"><ele>209.25</ele><time>2026-03-28T10:41:21.582Z</time></trkpt><trkpt lat="45.5757018" lon="10.7958932"><ele>207.5</ele><time>2026-03-28T10:41:22.581Z</time></trkpt><trkpt lat="45.5757878" lon="10.7957426"><ele>205.75</ele><time>2026-03-28T10:41:23.581Z</time></trkpt><trkpt lat="45.5758646" lon="10.7956016"><ele>204.0</ele><time>2026-03-28T10:41:24.581Z</time></trkpt><trkpt lat="45.5759418" lon="10.7954754"><ele>204.0</ele><time>2026-03-28T10:41:25.58Z</time></trkpt><trkpt lat="45.5760305" lon="10.7953577"><ele>204.0</ele><time>2026-03-28T10:41:26.581Z</time></trkpt><trkpt lat="45.5761292" lon="10.7952558"><ele>204.0</ele><time>2026-03-28T10:41:27.582Z</time></trkpt><trkpt lat="45.5762125" lon="10.7951985"><ele>204.0</ele><time>2026-03-28T10:41:28.582Z</time></trkpt><trkpt lat="45.5762823" lon="10.7951615"><ele>204.0</ele><time>2026-03-28T10:41:29.582Z</time></trkpt><trkpt lat="45.5763931" lon="10.7951268"><ele>203.5</ele><time>2026-03-28T10:41:31.582Z</time></trkpt><trkpt lat="45.5764651" lon="10.7951068"><ele>203.0</ele><time>2026-03-28T10:41:33.582Z</time></trkpt><trkpt lat="45.5765165" lon="10.7949534"><ele>202.5</ele><time>2026-03-28T10:41:36.582Z</time></trkpt><trkpt lat="45.5765279" lon="10.794791"><ele>202.0</ele><time>2026-03-28T10:41:37.58Z</time></trkpt><trkpt lat="45.5765306" lon="10.7945553"><ele>202.33333333333331</ele><time>2026-03-28T10:41:38.58Z</time></trkpt><trkpt lat="45.5765345" lon="10.7942584"><ele>202.66666666666669</ele><time>2026-03-28T10:41:39.581Z</time></trkpt><trkpt lat="45.5765416" lon="10.7939299"><ele>203.0</ele><time>2026-03-28T10:41:40.581Z</time></trkpt><trkpt lat="45.5765485" lon="10.7936121"><ele>202.66666666666669</ele><time>2026-03-28T10:41:41.581Z</time></trkpt><trkpt lat="45.5765603" lon="10.7933159"><ele>202.33333333333331</ele><time>2026-03-28T10:41:42.581Z</time></trkpt><trkpt lat="45.5765714" lon="10.7930319"><ele>202.0</ele><time>2026-03-28T10:41:43.581Z</time></trkpt><trkpt lat="45.5765796" lon="10.7927549"><ele>202.0</ele><time>2026-03-28T10:41:44.581Z</time></trkpt><trkpt lat="45.5765853" lon="10.7924933"><ele>202.0</ele><time>2026-03-28T10:41:45.581Z</time></trkpt><trkpt lat="45.5765929" lon="10.7922452"><ele>202.0</ele><time>2026-03-28T10:41:46.582Z</time></trkpt><trkpt lat="45.5766007" lon="10.7920069"><ele>202.0</ele><time>2026-03-28T10:41:47.582Z</time></trkpt><trkpt lat="45.5765941" lon="10.7917719"><ele>202.0</ele><time>2026-03-28T10:41:48.581Z</time></trkpt><trkpt lat="45.5765519" lon="10.7915383"><ele>202.0</ele><time>2026-03-28T10:41:49.581Z</time></trkpt><trkpt lat="45.5764695" lon="10.7913137"><ele>202.0</ele><time>2026-03-28T10:41:50.581Z</time></trkpt><trkpt lat="45.5763569" lon="10.7910967"><ele>202.0</ele><time>2026-03-28T10:41:51.581Z</time></trkpt><trkpt lat="45.5762289" lon="10.7908908"><ele>202.0</ele><time>2026-03-28T10:41:52.582Z</time></trkpt><trkpt lat="45.5761073" lon="10.7907067"><ele>203.0</ele><time>2026-03-28T10:41:53.582Z</time></trkpt><trkpt lat="45.5760043" lon="10.79051"><ele>204.0</ele><time>2026-03-28T10:41:54.582Z</time></trkpt><trkpt lat="45.575913" lon="10.7902807"><ele>205.0</ele><time>2026-03-28T10:41:55.581Z</time></trkpt><trkpt lat="45.5758177" lon="10.7900448"><ele>206.33333333333331</ele><time>2026-03-28T10:41:56.581Z</time></trkpt><trkpt lat="45.5757121" lon="10.7898164"><ele>207.66666666666669</ele><time>2026-03-28T10:41:57.58Z</time></trkpt><trkpt lat="45.5756236" lon="10.7895973"><ele>209.0</ele><time>2026-03-28T10:41:58.582Z</time></trkpt><trkpt lat="45.5755432" lon="10.7893782"><ele>212.66666666666669</ele><time>2026-03-28T10:41:59.581Z</time></trkpt><trkpt lat="45.575488" lon="10.7891438"><ele>216.33333333333331</ele><time>2026-03-28T10:42:00.58Z</time></trkpt><trkpt lat="45.5754573" lon="10.7888997"><ele>220.0</ele><time>2026-03-28T10:42:01.581Z</time></trkpt><trkpt lat="45.5754445" lon="10.7886483"><ele>219.66666666666666</ele><time>2026-03-28T10:42:02.581Z</time></trkpt><trkpt lat="45.5754472" lon="10.788395"><ele>219.33333333333331</ele><time>2026-03-28T10:42:03.581Z</time></trkpt><trkpt lat="45.5754558" lon="10.7881417"><ele>219.0</ele><time>2026-03-28T10:42:04.581Z</time></trkpt><trkpt lat="45.5754712" lon="10.7878717"><ele>218.0</ele><time>2026-03-28T10:42:05.582Z</time></trkpt><trkpt lat="45.5754927" lon="10.7875997"><ele>217.0</ele><time>2026-03-28T10:42:06.582Z</time></trkpt><trkpt lat="45.5755263" lon="10.7873301"><ele>216.0</ele><time>2026-03-28T10:42:07.581Z</time></trkpt><trkpt lat="45.5755607" lon="10.7870631"><ele>217.0</ele><time>2026-03-28T10:42:08.582Z</time></trkpt><trkpt lat="45.5755911" lon="10.7868165"><ele>218.0</ele><time>2026-03-28T10:42:09.582Z</time></trkpt><trkpt lat="45.5756158" lon="10.7865816"><ele>219.0</ele><time>2026-03-28T10:42:10.581Z</time></trkpt><trkpt lat="45.5756344" lon="10.7863295"><ele>219.0</ele><time>2026-03-28T10:42:11.581Z</time></trkpt><trkpt lat="45.5756411" lon="10.7860639"><ele>219.0</ele><time>2026-03-28T10:42:12.581Z</time></trkpt><trkpt lat="45.5756333" lon="10.7857788"><ele>219.0</ele><time>2026-03-28T10:42:13.581Z</time></trkpt><trkpt lat="45.5756067" lon="10.7854705"><ele>223.0</ele><time>2026-03-28T10:42:14.581Z</time></trkpt><trkpt lat="45.5755703" lon="10.785158"><ele>227.0</ele><time>2026-03-28T10:42:15.581Z</time></trkpt><trkpt lat="45.5755323" lon="10.7848519"><ele>231.0</ele><time>2026-03-28T10:42:16.582Z</time></trkpt><trkpt lat="45.5754911" lon="10.7845561"><ele>233.33333333333331</ele><time>2026-03-28T10:42:17.582Z</time></trkpt><trkpt lat="45.5754437" lon="10.7842743"><ele>235.66666666666666</ele><time>2026-03-28T10:42:18.581Z</time></trkpt><trkpt lat="45.5753983" lon="10.784005"><ele>238.0</ele><time>2026-03-28T10:42:19.581Z</time></trkpt><trkpt lat="45.5753588" lon="10.7837419"><ele>233.0</ele><time>2026-03-28T10:42:20.582Z</time></trkpt><trkpt lat="45.575329" lon="10.7834785"><ele>228.0</ele><time>2026-03-28T10:42:21.58Z</time></trkpt><trkpt lat="45.5753114" lon="10.783203"><ele>223.0</ele><time>2026-03-28T10:42:22.581Z</time></trkpt><trkpt lat="45.5753016" lon="10.7829254"><ele>224.33333333333331</ele><time>2026-03-28T10:42:23.581Z</time></trkpt><trkpt lat="45.5752898" lon="10.7826438"><ele>225.66666666666669</ele><time>2026-03-28T10:42:24.581Z</time></trkpt><trkpt lat="45.5752795" lon="10.7823666"><ele>227.0</ele><time>2026-03-28T10:42:25.581Z</time></trkpt><trkpt lat="45.5752794" lon="10.7820979"><ele>227.0</ele><time>2026-03-28T10:42:26.582Z</time></trkpt><trkpt lat="45.5753145" lon="10.7818605"><ele>227.0</ele><time>2026-03-28T10:42:27.582Z</time></trkpt><trkpt lat="45.5753808" lon="10.7816245"><ele>227.0</ele><time>2026-03-28T10:42:28.581Z</time></trkpt><trkpt lat="45.5754752" lon="10.7813968"><ele>231.66666666666669</ele><time>2026-03-28T10:42:29.582Z</time></trkpt><trkpt lat="45.5755716" lon="10.7811615"><ele>236.33333333333331</ele><time>2026-03-28T10:42:30.582Z</time></trkpt><trkpt lat="45.5756351" lon="10.7809092"><ele>241.0</ele><time>2026-03-28T10:42:31.581Z</time></trkpt><trkpt lat="45.5756709" lon="10.7806405"><ele>241.0</ele><time>2026-03-28T10:42:32.58Z</time></trkpt><trkpt lat="45.5756881" lon="10.780385"><ele>241.0</ele><time>2026-03-28T10:42:33.581Z</time></trkpt><trkpt lat="45.5756755" lon="10.7801319"><ele>241.0</ele><time>2026-03-28T10:42:34.582Z</time></trkpt><trkpt lat="45.5756235" lon="10.7798755"><ele>238.33333333333331</ele><time>2026-03-28T10:42:35.582Z</time></trkpt><trkpt lat="45.5755425" lon="10.7796336"><ele>235.66666666666669</ele><time>2026-03-28T10:42:36.581Z</time></trkpt><trkpt lat="45.5754344" lon="10.7793991"><ele>233.0</ele><time>2026-03-28T10:42:37.582Z</time></trkpt><trkpt lat="45.5753018" lon="10.7791765"><ele>233.0</ele><time>2026-03-28T10:42:38.582Z</time></trkpt><trkpt lat="45.5751604" lon="10.7789619"><ele>233.0</ele><time>2026-03-28T10:42:39.582Z</time></trkpt><trkpt lat="45.5750225" lon="10.7787469"><ele>233.0</ele><time>2026-03-28T10:42:40.582Z</time></trkpt><trkpt lat="45.5748987" lon="10.7785128"><ele>229.33333333333334</ele><time>2026-03-28T10:42:41.581Z</time></trkpt><trkpt lat="45.5747768" lon="10.7782689"><ele>225.66666666666669</ele><time>2026-03-28T10:42:42.58Z</time></trkpt><trkpt lat="45.5746627" lon="10.7780168"><ele>222.0</ele><time>2026-03-28T10:42:43.58Z</time></trkpt><trkpt lat="45.5745526" lon="10.7777601"><ele>221.0</ele><time>2026-03-28T10:42:44.581Z</time></trkpt><trkpt lat="45.5744429" lon="10.7775029"><ele>220.0</ele><time>2026-03-28T10:42:45.581Z</time></trkpt><trkpt lat="45.5743387" lon="10.7772506"><ele>219.0</ele><time>2026-03-28T10:42:46.581Z</time></trkpt><trkpt lat="45.5742422" lon="10.777015"><ele>219.33333333333331</ele><time>2026-03-28T10:42:47.582Z</time></trkpt><trkpt lat="45.5741469" lon="10.7767785"><ele>219.66666666666666</ele><time>2026-03-28T10:42:48.582Z</time></trkpt><trkpt lat="45.5740542" lon="10.776535"><ele>220.0</ele><time>2026-03-28T10:42:49.581Z</time></trkpt><trkpt lat="45.5739611" lon="10.77629"><ele>220.0</ele><time>2026-03-28T10:42:50.581Z</time></trkpt><trkpt lat="45.5738719" lon="10.7760383"><ele>220.0</ele><time>2026-03-28T10:42:51.581Z</time></trkpt><trkpt lat="45.5737852" lon="10.7757833"><ele>220.0</ele><time>2026-03-28T10:42:52.581Z</time></trkpt><trkpt lat="45.5737045" lon="10.7755397"><ele>219.66666666666666</ele><time>2026-03-28T10:42:53.58Z</time></trkpt><trkpt lat="45.5736321" lon="10.7753113"><ele>219.33333333333331</ele><time>2026-03-28T10:42:54.58Z</time></trkpt><trkpt lat="45.5735699" lon="10.7750937"><ele>219.0</ele><time>2026-03-28T10:42:55.582Z</time></trkpt><trkpt lat="45.5735191" lon="10.7748878"><ele>218.39999999999998</ele><time>2026-03-28T10:42:56.58Z</time></trkpt><trkpt lat="45.5734845" lon="10.774704"><ele>217.79999999999998</ele><time>2026-03-28T10:42:57.581Z</time></trkpt><trkpt lat="45.5734599" lon="10.7745538"><ele>217.20000000000002</ele><time>2026-03-28T10:42:58.582Z</time></trkpt><trkpt lat="45.5734437" lon="10.774431"><ele>216.60000000000002</ele><time>2026-03-28T10:42:59.581Z</time></trkpt><trkpt lat="45.5734303" lon="10.7743385"><ele>216.0</ele><time>2026-03-28T10:43:00.582Z</time></trkpt><trkpt lat="45.5734079" lon="10.7741931"><ele>215.66666666666666</ele><time>2026-03-28T10:43:02.581Z</time></trkpt><trkpt lat="45.573401" lon="10.7740736"><ele>215.33333333333331</ele><time>2026-03-28T10:43:04.581Z</time></trkpt><trkpt lat="45.5734209" lon="10.7739878"><ele>215.0</ele><time>2026-03-28T10:43:06.581Z</time></trkpt><trkpt lat="45.5734306" lon="10.7738947"><ele>214.66666666666666</ele><time>2026-03-28T10:43:26.58Z</time></trkpt><trkpt lat="45.5734233" lon="10.7737362"><ele>214.33333333333331</ele><time>2026-03-28T10:43:27.582Z</time></trkpt><trkpt lat="45.5734153" lon="10.7735728"><ele>214.0</ele><time>2026-03-28T10:43:28.58Z</time></trkpt><trkpt lat="45.5734106" lon="10.7733455"><ele>214.0</ele><time>2026-03-28T10:43:29.58Z</time></trkpt><trkpt lat="45.5734018" lon="10.7728638"><ele>214.0</ele><time>2026-03-28T10:43:30.581Z</time></trkpt><trkpt lat="45.5734289" lon="10.7724425"><ele>213.5</ele><time>2026-03-28T10:43:31.581Z</time></trkpt><trkpt lat="45.5734586" lon="10.7720507"><ele>213.0</ele><time>2026-03-28T10:43:32.581Z</time></trkpt><trkpt lat="45.5734975" lon="10.7716915"><ele>212.0</ele><time>2026-03-28T10:43:33.581Z</time></trkpt><trkpt lat="45.5735421" lon="10.7713618"><ele>211.0</ele><time>2026-03-28T10:43:34.581Z</time></trkpt><trkpt lat="45.5735871" lon="10.7710569"><ele>210.66666666666666</ele><time>2026-03-28T10:43:35.582Z</time></trkpt><trkpt lat="45.5736274" lon="10.7707712"><ele>210.33333333333331</ele><time>2026-03-28T10:43:36.581Z</time></trkpt><trkpt lat="45.5736516" lon="10.7704787"><ele>210.0</ele><time>2026-03-28T10:43:37.582Z</time></trkpt><trkpt lat="45.5736574" lon="10.770158"><ele>209.5</ele><time>2026-03-28T10:43:38.581Z</time></trkpt><trkpt lat="45.5736623" lon="10.7698064"><ele>209.0</ele><time>2026-03-28T10:43:39.581Z</time></trkpt><trkpt lat="45.5736683" lon="10.7694785"><ele>208.66666666666669</ele><time>2026-03-28T10:43:40.582Z</time></trkpt><trkpt lat="45.5736718" lon="10.7691535"><ele>208.33333333333331</ele><time>2026-03-28T10:43:41.58Z</time></trkpt><trkpt lat="45.5736808" lon="10.7688554"><ele>208.0</ele><time>2026-03-28T10:43:42.581Z</time></trkpt><trkpt lat="45.5736832" lon="10.7685631"><ele>207.33333333333331</ele><time>2026-03-28T10:43:43.581Z</time></trkpt><trkpt lat="45.5736796" lon="10.7682709"><ele>206.66666666666669</ele><time>2026-03-28T10:43:44.581Z</time></trkpt><trkpt lat="45.5736671" lon="10.7679828"><ele>206.0</ele><time>2026-03-28T10:43:45.581Z</time></trkpt><trkpt lat="45.573661" lon="10.7677135"><ele>205.33333333333334</ele><time>2026-03-28T10:43:46.581Z</time></trkpt><trkpt lat="45.5736633" lon="10.7674642"><ele>204.66666666666669</ele><time>2026-03-28T10:43:47.582Z</time></trkpt><trkpt lat="45.5736692" lon="10.7672286"><ele>204.0</ele><time>2026-03-28T10:43:48.581Z</time></trkpt><trkpt lat="45.5736784" lon="10.7670077"><ele>204.33333333333331</ele><time>2026-03-28T10:43:49.582Z</time></trkpt><trkpt lat="45.5736932" lon="10.7667914"><ele>204.66666666666666</ele><time>2026-03-28T10:43:50.582Z</time></trkpt><trkpt lat="45.5737061" lon="10.7665603"><ele>205.0</ele><time>2026-03-28T10:43:51.581Z</time></trkpt><trkpt lat="45.5737093" lon="10.7663181"><ele>205.0</ele><time>2026-03-28T10:43:52.581Z</time></trkpt><trkpt lat="45.5737044" lon="10.7660737"><ele>205.0</ele><time>2026-03-28T10:43:53.58Z</time></trkpt><trkpt lat="45.5736838" lon="10.7658531"><ele>205.0</ele><time>2026-03-28T10:43:54.581Z</time></trkpt><trkpt lat="45.5736374" lon="10.7656443"><ele>205.0</ele><time>2026-03-28T10:43:55.582Z</time></trkpt><trkpt lat="45.5735628" lon="10.7654195"><ele>205.0</ele><time>2026-03-28T10:43:56.581Z</time></trkpt><trkpt lat="45.573465" lon="10.7651996"><ele>205.0</ele><time>2026-03-28T10:43:57.581Z</time></trkpt><trkpt lat="45.57336" lon="10.7649961"><ele>205.66666666666666</ele><time>2026-03-28T10:43:58.58Z</time></trkpt><trkpt lat="45.573261" lon="10.7648064"><ele>206.33333333333331</ele><time>2026-03-28T10:43:59.581Z</time></trkpt><trkpt lat="45.5731727" lon="10.7646191"><ele>207.0</ele><time>2026-03-28T10:44:00.582Z</time></trkpt><trkpt lat="45.5731018" lon="10.7644038"><ele>206.66666666666669</ele><time>2026-03-28T10:44:01.582Z</time></trkpt><trkpt lat="45.5730494" lon="10.7641521"><ele>206.33333333333334</ele><time>2026-03-28T10:44:02.582Z</time></trkpt><trkpt lat="45.5730079" lon="10.7638629"><ele>206.0</ele><time>2026-03-28T10:44:03.582Z</time></trkpt><trkpt lat="45.5729625" lon="10.7635426"><ele>205.0</ele><time>2026-03-28T10:44:04.581Z</time></trkpt><trkpt lat="45.5729101" lon="10.7631795"><ele>204.0</ele><time>2026-03-28T10:44:05.582Z</time></trkpt><trkpt lat="45.5728497" lon="10.7627898"><ele>203.0</ele><time>2026-03-28T10:44:06.581Z</time></trkpt><trkpt lat="45.5727822" lon="10.7623712"><ele>202.0</ele><time>2026-03-28T10:44:07.581Z</time></trkpt><trkpt lat="45.5727093" lon="10.7619296"><ele>202.0</ele><time>2026-03-28T10:44:08.582Z</time></trkpt><trkpt lat="45.5726381" lon="10.7615003"><ele>202.0</ele><time>2026-03-28T10:44:09.582Z</time></trkpt><trkpt lat="45.5725691" lon="10.7611044"><ele>202.0</ele><time>2026-03-28T10:44:10.582Z</time></trkpt><trkpt lat="45.5725083" lon="10.7607377"><ele>202.0</ele><time>2026-03-28T10:44:11.582Z</time></trkpt><trkpt lat="45.5724545" lon="10.7603957"><ele>202.0</ele><time>2026-03-28T10:44:12.582Z</time></trkpt><trkpt lat="45.5724022" lon="10.7600764"><ele>202.0</ele><time>2026-03-28T10:44:13.581Z</time></trkpt><trkpt lat="45.572349" lon="10.7597797"><ele>202.0</ele><time>2026-03-28T10:44:14.582Z</time></trkpt><trkpt lat="45.5722998" lon="10.7595095"><ele>202.5</ele><time>2026-03-28T10:44:15.582Z</time></trkpt><trkpt lat="45.5722608" lon="10.7592635"><ele>203.0</ele><time>2026-03-28T10:44:16.581Z</time></trkpt><trkpt lat="45.5722287" lon="10.7590593"><ele>203.5</ele><time>2026-03-28T10:44:17.582Z</time></trkpt><trkpt lat="45.5722033" lon="10.7589093"><ele>204.0</ele><time>2026-03-28T10:44:18.582Z</time></trkpt><trkpt lat="45.5721838" lon="10.7587784"><ele>204.0</ele><time>2026-03-28T10:44:19.582Z</time></trkpt><trkpt lat="45.5721847" lon="10.7586573"><ele>204.0</ele><time>2026-03-28T10:44:20.582Z</time></trkpt><trkpt lat="45.5722137" lon="10.7585431"><ele>204.0</ele><time>2026-03-28T10:44:21.582Z</time></trkpt><trkpt lat="45.5722678" lon="10.758439"><ele>204.0</ele><time>2026-03-28T10:44:22.581Z</time></trkpt><trkpt lat="45.5723426" lon="10.7583475"><ele>204.0</ele><time>2026-03-28T10:44:23.58Z</time></trkpt><trkpt lat="45.5724372" lon="10.7582844"><ele>204.5</ele><time>2026-03-28T10:44:24.582Z</time></trkpt><trkpt lat="45.5725462" lon="10.7582426"><ele>205.0</ele><time>2026-03-28T10:44:25.581Z</time></trkpt><trkpt lat="45.5726635" lon="10.7582027"><ele>205.5</ele><time>2026-03-28T10:44:26.582Z</time></trkpt><trkpt lat="45.5727804" lon="10.7581564"><ele>206.0</ele><time>2026-03-28T10:44:27.581Z</time></trkpt><trkpt lat="45.5729043" lon="10.7581147"><ele>206.0</ele><time>2026-03-28T10:44:28.582Z</time></trkpt><trkpt lat="45.573033" lon="10.7580787"><ele>206.0</ele><time>2026-03-28T10:44:29.582Z</time></trkpt><trkpt lat="45.5731647" lon="10.758041"><ele>206.0</ele><time>2026-03-28T10:44:30.582Z</time></trkpt><trkpt lat="45.5733001" lon="10.7579964"><ele>206.0</ele><time>2026-03-28T10:44:31.582Z</time></trkpt><trkpt lat="45.5734417" lon="10.7579465"><ele>206.0</ele><time>2026-03-28T10:44:32.582Z</time></trkpt><trkpt lat="45.5735861" lon="10.7579008"><ele>206.0</ele><time>2026-03-28T10:44:33.581Z</time></trkpt><trkpt lat="45.5737343" lon="10.7578561"><ele>206.0</ele><time>2026-03-28T10:44:34.582Z</time></trkpt><trkpt lat="45.5738845" lon="10.7578022"><ele>205.75</ele><time>2026-03-28T10:44:35.582Z</time></trkpt><trkpt lat="45.5740322" lon="10.7577563"><ele>205.5</ele><time>2026-03-28T10:44:36.582Z</time></trkpt><trkpt lat="45.5741744" lon="10.7577112"><ele>205.25</ele><time>2026-03-28T10:44:37.582Z</time></trkpt><trkpt lat="45.574313" lon="10.7576612"><ele>205.0</ele><time>2026-03-28T10:44:38.582Z</time></trkpt><trkpt lat="45.5744454" lon="10.7576194"><ele>205.5</ele><time>2026-03-28T10:44:39.582Z</time></trkpt><trkpt lat="45.5745764" lon="10.7575881"><ele>206.0</ele><time>2026-03-28T10:44:40.581Z</time></trkpt><trkpt lat="45.5747" lon="10.7575569"><ele>206.5</ele><time>2026-03-28T10:44:41.582Z</time></trkpt><trkpt lat="45.5748235" lon="10.7575162"><ele>207.0</ele><time>2026-03-28T10:44:42.581Z</time></trkpt><trkpt lat="45.5749466" lon="10.7574681"><ele>207.0</ele><time>2026-03-28T10:44:43.582Z</time></trkpt><trkpt lat="45.5750745" lon="10.7574201"><ele>207.0</ele><time>2026-03-28T10:44:44.581Z</time></trkpt><trkpt lat="45.5752116" lon="10.7573712"><ele>207.0</ele><time>2026-03-28T10:44:45.581Z</time></trkpt><trkpt lat="45.5753579" lon="10.7573176"><ele>207.0</ele><time>2026-03-28T10:44:46.582Z</time></trkpt><trkpt lat="45.5755169" lon="10.7572683"><ele>207.33333333333331</ele><time>2026-03-28T10:44:47.582Z</time></trkpt><trkpt lat="45.575682" lon="10.7572188"><ele>207.66666666666666</ele><time>2026-03-28T10:44:48.582Z</time></trkpt><trkpt lat="45.5758497" lon="10.7571626"><ele>208.0</ele><time>2026-03-28T10:44:49.581Z</time></trkpt><trkpt lat="45.5760077" lon="10.7571047"><ele>208.0</ele><time>2026-03-28T10:44:50.581Z</time></trkpt><trkpt lat="45.5761538" lon="10.7570569"><ele>208.0</ele><time>2026-03-28T10:44:51.581Z</time></trkpt><trkpt lat="45.5762891" lon="10.7570106"><ele>208.0</ele><time>2026-03-28T10:44:52.582Z</time></trkpt><trkpt lat="45.5764157" lon="10.7569652"><ele>208.0</ele><time>2026-03-28T10:44:53.581Z</time></trkpt><trkpt lat="45.5765351" lon="10.7569268"><ele>207.60000000000002</ele><time>2026-03-28T10:44:54.581Z</time></trkpt><trkpt lat="45.5766478" lon="10.7568927"><ele>207.20000000000002</ele><time>2026-03-28T10:44:55.582Z</time></trkpt><trkpt lat="45.5767542" lon="10.7568471"><ele>206.8</ele><time>2026-03-28T10:44:56.582Z</time></trkpt><trkpt lat="45.5768413" lon="10.7567825"><ele>206.4</ele><time>2026-03-28T10:44:57.582Z</time></trkpt><trkpt lat="45.576918" lon="10.7566971"><ele>206.0</ele><time>2026-03-28T10:44:58.582Z</time></trkpt><trkpt lat="45.5769834" lon="10.7565984"><ele>206.00000000000003</ele><time>2026-03-28T10:44:59.581Z</time></trkpt><trkpt lat="45.577039" lon="10.7565024"><ele>206.0</ele><time>2026-03-28T10:45:00.581Z</time></trkpt><trkpt lat="45.5770872" lon="10.756408"><ele>206.0</ele><time>2026-03-28T10:45:01.582Z</time></trkpt><trkpt lat="45.5771325" lon="10.7563077"><ele>206.0</ele><time>2026-03-28T10:45:02.581Z</time></trkpt><trkpt lat="45.5771676" lon="10.7561963"><ele>206.00000000000003</ele><time>2026-03-28T10:45:03.582Z</time></trkpt><trkpt lat="45.5771964" lon="10.7560765"><ele>206.0</ele><time>2026-03-28T10:45:04.582Z</time></trkpt><trkpt lat="45.5772147" lon="10.755948"><ele>206.0</ele><time>2026-03-28T10:45:05.582Z</time></trkpt><trkpt lat="45.577226" lon="10.7558111"><ele>206.0</ele><time>2026-03-28T10:45:06.581Z</time></trkpt><trkpt lat="45.5772284" lon="10.7556701"><ele>206.0</ele><time>2026-03-28T10:45:07.581Z</time></trkpt><trkpt lat="45.5772238" lon="10.7555282"><ele>206.0</ele><time>2026-03-28T10:45:08.581Z</time></trkpt><trkpt lat="45.5772127" lon="10.7553973"><ele>206.0</ele><time>2026-03-28T10:45:09.581Z</time></trkpt><trkpt lat="45.5771998" lon="10.7552751"><ele>206.16666666666669</ele><time>2026-03-28T10:45:10.581Z</time></trkpt><trkpt lat="45.5771815" lon="10.7551523"><ele>206.33333333333334</ele><time>2026-03-28T10:45:11.581Z</time></trkpt><trkpt lat="45.5771633" lon="10.7550275"><ele>206.5</ele><time>2026-03-28T10:45:12.581Z</time></trkpt><trkpt lat="45.577145" lon="10.7549063"><ele>206.66666666666669</ele><time>2026-03-28T10:45:13.582Z</time></trkpt><trkpt lat="45.5771294" lon="10.7547922"><ele>206.83333333333334</ele><time>2026-03-28T10:45:14.582Z</time></trkpt><trkpt lat="45.5771126" lon="10.7546893"><ele>207.0</ele><time>2026-03-28T10:45:15.582Z</time></trkpt><trkpt lat="45.5770966" lon="10.7545904"><ele>207.0</ele><time>2026-03-28T10:45:16.581Z</time></trkpt><trkpt lat="45.5770784" lon="10.7544976"><ele>207.0</ele><time>2026-03-28T10:45:17.582Z</time></trkpt><trkpt lat="45.5770323" lon="10.754347"><ele>207.0</ele><time>2026-03-28T10:45:19.582Z</time></trkpt><trkpt lat="45.5769877" lon="10.7542337"><ele>207.0</ele><time>2026-03-28T10:45:21.582Z</time></trkpt><trkpt lat="45.5769352" lon="10.7541705"><ele>207.0</ele><time>2026-03-28T10:45:23.582Z</time></trkpt><trkpt lat="45.5768548" lon="10.7541642"><ele>207.0</ele><time>2026-03-28T10:45:27.581Z</time></trkpt><trkpt lat="45.5767927" lon="10.7541826"><ele>210.0</ele><time>2026-03-28T10:45:31.581Z</time></trkpt><trkpt lat="45.5767422" lon="10.7542669"><ele>210.0</ele><time>2026-03-28T10:45:38.581Z</time></trkpt><trkpt lat="45.5766689" lon="10.754352"><ele>210.0</ele><time>2026-03-28T10:45:41.581Z</time></trkpt><trkpt lat="45.576607" lon="10.7542885"><ele>210.0</ele><time>2026-03-28T10:45:44.581Z</time></trkpt></trkseg></trk></gpx>